<?xml version='1.0' encoding='UTF-8'?><gpx version="1.1" creator="JPX - https://github.com/jenetics/jpx" xmlns="http://www.topografix.com/GPX/1/1"><trk><trkseg><trkpt lat="42.5224342" lon="14.1525571"><ele>1.9999999999999998</ele><time>2026-05-02T06:38:48.041Z</time></trkpt><trkpt lat="42.5224678" lon="14.1526589"><ele>2.0</ele><time>2026-05-02T06:38:51.041Z</time></trkpt><trkpt lat="42.5224238" lon="14.1527402"><ele>2.0</ele><time>2026-05-02T06:38:54.04Z</time></trkpt><trkpt lat="42.5223584" lon="14.1527899"><ele>2.0</ele><time>2026-05-02T06:38:57.04Z</time></trkpt><trkpt lat="42.522325" lon="14.1528908"><ele>1.9999999999999998</ele><time>2026-05-02T06:39:45.041Z</time></trkpt><trkpt lat="42.5223668" lon="14.1529654"><ele>2.0</ele><time>2026-05-02T06:39:47.04Z</time></trkpt><trkpt lat="42.522409" lon="14.153042"><ele>2.0</ele><time>2026-05-02T06:39:50.04Z</time></trkpt><trkpt lat="42.5224823" lon="14.1530059"><ele>1.9999999999999998</ele><time>2026-05-02T06:39:53.04Z</time></trkpt><trkpt lat="42.5225493" lon="14.1529688"><ele>2.0</ele><time>2026-05-02T06:39:56.04Z</time></trkpt><trkpt lat="42.5226155" lon="14.1529139"><ele>2.0</ele><time>2026-05-02T06:39:59.041Z</time></trkpt><trkpt lat="42.5226893" lon="14.1528835"><ele>1.9999999999999998</ele><time>2026-05-02T06:40:02.04Z</time></trkpt><trkpt lat="42.5226251" lon="14.152846"><ele>2.0</ele><time>2026-05-02T06:40:07.04Z</time></trkpt><trkpt lat="42.5225741" lon="14.1529158"><ele>2.0</ele><time>2026-05-02T06:40:09.04Z</time></trkpt><trkpt lat="42.5224959" lon="14.1529782"><ele>1.9999999999999998</ele><time>2026-05-02T06:40:11.041Z</time></trkpt><trkpt lat="42.5224246" lon="14.1530188"><ele>2.0</ele><time>2026-05-02T06:40:14.04Z</time></trkpt><trkpt lat="42.522357" lon="14.152937"><ele>2.0</ele><time>2026-05-02T06:41:17.04Z</time></trkpt><trkpt lat="42.5223132" lon="14.1528377"><ele>2.0</ele><time>2026-05-02T06:41:19.04Z</time></trkpt><trkpt lat="42.5222726" lon="14.1527535"><ele>1.9999999999999998</ele><time>2026-05-02T06:41:21.041Z</time></trkpt><trkpt lat="42.5222217" lon="14.1526606"><ele>2.0</ele><time>2026-05-02T06:41:23.04Z</time></trkpt><trkpt lat="42.5221861" lon="14.1525632"><ele>2.0</ele><time>2026-05-02T06:41:25.04Z</time></trkpt><trkpt lat="42.5221422" lon="14.1524559"><ele>2.0</ele><time>2026-05-02T06:41:27.04Z</time></trkpt><trkpt lat="42.5220863" lon="14.1523387"><ele>2.0</ele><time>2026-05-02T06:41:29.04Z</time></trkpt><trkpt lat="42.5220236" lon="14.152204"><ele>2.0</ele><time>2026-05-02T06:41:31.041Z</time></trkpt><trkpt lat="42.5219643" lon="14.152067"><ele>2.0</ele><time>2026-05-02T06:41:33.04Z</time></trkpt><trkpt lat="42.5218843" lon="14.1520058"><ele>1.6</ele><time>2026-05-02T06:41:35.04Z</time></trkpt><trkpt lat="42.5218025" lon="14.1520685"><ele>1.2000000000000002</ele><time>2026-05-02T06:41:37.04Z</time></trkpt><trkpt lat="42.5218031" lon="14.1521904"><ele>0.8</ele><time>2026-05-02T06:41:39.04Z</time></trkpt><trkpt lat="42.5218689" lon="14.1523199"><ele>0.4</ele><time>2026-05-02T06:41:41.041Z</time></trkpt><trkpt lat="42.5219153" lon="14.1524269"><ele>0.0</ele><time>2026-05-02T06:41:43.04Z</time></trkpt><trkpt lat="42.5219579" lon="14.152518"><ele>-0.16666666666666666</ele><time>2026-05-02T06:41:46.04Z</time></trkpt><trkpt lat="42.5220044" lon="14.1525947"><ele>-0.3333333333333333</ele><time>2026-05-02T06:41:50.04Z</time></trkpt><trkpt lat="42.5220504" lon="14.1526957"><ele>-0.5</ele><time>2026-05-02T06:42:35.037Z</time></trkpt><trkpt lat="42.522123" lon="14.1528273"><ele>-0.6666666666666666</ele><time>2026-05-02T06:42:37.037Z</time></trkpt><trkpt lat="42.52215" lon="14.1529163"><ele>-0.8333333333333333</ele><time>2026-05-02T06:42:38.037Z</time></trkpt><trkpt lat="42.5221747" lon="14.1530016"><ele>-1.0</ele><time>2026-05-02T06:42:39.037Z</time></trkpt><trkpt lat="42.5222295" lon="14.1531282"><ele>-0.4</ele><time>2026-05-02T06:42:41.037Z</time></trkpt><trkpt lat="42.5222845" lon="14.1531849"><ele>0.19999999999999996</ele><time>2026-05-02T06:42:59.038Z</time></trkpt><trkpt lat="42.5223456" lon="14.1531097"><ele>0.8000000000000002</ele><time>2026-05-02T06:43:02.037Z</time></trkpt><trkpt lat="42.5224399" lon="14.1530484"><ele>1.4000000000000001</ele><time>2026-05-02T06:43:30.037Z</time></trkpt><trkpt lat="42.5225228" lon="14.1529583"><ele>2.0</ele><time>2026-05-02T06:43:32.038Z</time></trkpt><trkpt lat="42.5226139" lon="14.1528909"><ele>2.0</ele><time>2026-05-02T06:43:34.037Z</time></trkpt><trkpt lat="42.522679" lon="14.15288"><ele>1.9999999999999998</ele><time>2026-05-02T06:43:38.037Z</time></trkpt><trkpt lat="42.5227066" lon="14.1529662"><ele>2.0</ele><time>2026-05-02T06:43:41.037Z</time></trkpt><trkpt lat="42.5226452" lon="14.1530399"><ele>2.0</ele><time>2026-05-02T06:43:43.037Z</time></trkpt><trkpt lat="42.5225776" lon="14.1530774"><ele>1.9999999999999998</ele><time>2026-05-02T06:43:44.037Z</time></trkpt><trkpt lat="42.5225204" lon="14.1531262"><ele>2.0</ele><time>2026-05-02T06:43:45.037Z</time></trkpt><trkpt lat="42.5224577" lon="14.1531867"><ele>2.0</ele><time>2026-05-02T06:43:46.037Z</time></trkpt><trkpt lat="42.5223864" lon="14.1532514"><ele>1.9999999999999998</ele><time>2026-05-02T06:43:47.037Z</time></trkpt><trkpt lat="42.5223101" lon="14.153318"><ele>2.0</ele><time>2026-05-02T06:43:48.038Z</time></trkpt><trkpt lat="42.5222437" lon="14.1533786"><ele>2.0</ele><time>2026-05-02T06:43:49.038Z</time></trkpt><trkpt lat="42.5221817" lon="14.1534276"><ele>2.0</ele><time>2026-05-02T06:43:50.037Z</time></trkpt><trkpt lat="42.5221205" lon="14.1534778"><ele>1.9999999999999998</ele><time>2026-05-02T06:43:51.038Z</time></trkpt><trkpt lat="42.5220235" lon="14.1535628"><ele>2.0</ele><time>2026-05-02T06:43:53.037Z</time></trkpt><trkpt lat="42.5219393" lon="14.1536022"><ele>1.6666666666666665</ele><time>2026-05-02T06:43:55.037Z</time></trkpt><trkpt lat="42.5218488" lon="14.1535182"><ele>1.3333333333333333</ele><time>2026-05-02T06:43:57.037Z</time></trkpt><trkpt lat="42.5218134" lon="14.15344"><ele>1.0</ele><time>2026-05-02T06:43:58.037Z</time></trkpt><trkpt lat="42.521784" lon="14.1533313"><ele>0.6666666666666666</ele><time>2026-05-02T06:43:59.037Z</time></trkpt><trkpt lat="42.5217514" lon="14.153216"><ele>0.3333333333333333</ele><time>2026-05-02T06:44:00.037Z</time></trkpt><trkpt lat="42.52171" lon="14.1530992"><ele>0.0</ele><time>2026-05-02T06:44:01.037Z</time></trkpt><trkpt lat="42.5216648" lon="14.1529766"><ele>0.0</ele><time>2026-05-02T06:44:02.037Z</time></trkpt><trkpt lat="42.5216249" lon="14.1528509"><ele>0.0</ele><time>2026-05-02T06:44:03.037Z</time></trkpt><trkpt lat="42.5215788" lon="14.1527209"><ele>0.0</ele><time>2026-05-02T06:44:04.037Z</time></trkpt><trkpt lat="42.5215297" lon="14.152591"><ele>0.0</ele><time>2026-05-02T06:44:05.037Z</time></trkpt><trkpt lat="42.5214828" lon="14.1524539"><ele>0.0</ele><time>2026-05-02T06:44:06.037Z</time></trkpt><trkpt lat="42.5214364" lon="14.15232"><ele>0.0</ele><time>2026-05-02T06:44:07.038Z</time></trkpt><trkpt lat="42.521393" lon="14.1521882"><ele>0.0</ele><time>2026-05-02T06:44:08.038Z</time></trkpt><trkpt lat="42.5213492" lon="14.1520556"><ele>0.0</ele><time>2026-05-02T06:44:09.037Z</time></trkpt><trkpt lat="42.5213019" lon="14.1519233"><ele>0.0</ele><time>2026-05-02T06:44:10.037Z</time></trkpt><trkpt lat="42.5212503" lon="14.1517833"><ele>0.0</ele><time>2026-05-02T06:44:11.037Z</time></trkpt><trkpt lat="42.521198" lon="14.1516384"><ele>0.5</ele><time>2026-05-02T06:44:12.037Z</time></trkpt><trkpt lat="42.5211499" lon="14.1514875"><ele>1.0</ele><time>2026-05-02T06:44:13.037Z</time></trkpt><trkpt lat="42.5210937" lon="14.1513349"><ele>1.5</ele><time>2026-05-02T06:44:14.037Z</time></trkpt><trkpt lat="42.5210394" lon="14.1511776"><ele>2.0</ele><time>2026-05-02T06:44:15.037Z</time></trkpt><trkpt lat="42.5209916" lon="14.1510306"><ele>2.0</ele><time>2026-05-02T06:44:16.037Z</time></trkpt><trkpt lat="42.5209428" lon="14.1508972"><ele>2.0</ele><time>2026-05-02T06:44:17.037Z</time></trkpt><trkpt lat="42.5208935" lon="14.1507676"><ele>2.0</ele><time>2026-05-02T06:44:18.037Z</time></trkpt><trkpt lat="42.5208502" lon="14.150637"><ele>2.0</ele><time>2026-05-02T06:44:19.038Z</time></trkpt><trkpt lat="42.5208036" lon="14.1505076"><ele>2.0</ele><time>2026-05-02T06:44:20.037Z</time></trkpt><trkpt lat="42.520764" lon="14.1503808"><ele>2.0</ele><time>2026-05-02T06:44:21.037Z</time></trkpt><trkpt lat="42.5207185" lon="14.1502508"><ele>2.0</ele><time>2026-05-02T06:44:22.037Z</time></trkpt><trkpt lat="42.5206758" lon="14.1501168"><ele>2.0</ele><time>2026-05-02T06:44:23.037Z</time></trkpt><trkpt lat="42.5206331" lon="14.1499813"><ele>2.0</ele><time>2026-05-02T06:44:24.037Z</time></trkpt><trkpt lat="42.5205907" lon="14.1498471"><ele>2.0</ele><time>2026-05-02T06:44:25.038Z</time></trkpt><trkpt lat="42.5205382" lon="14.1497006"><ele>2.0</ele><time>2026-05-02T06:44:26.037Z</time></trkpt><trkpt lat="42.5204898" lon="14.1495491"><ele>2.0</ele><time>2026-05-02T06:44:27.037Z</time></trkpt><trkpt lat="42.5204389" lon="14.1493844"><ele>2.0</ele><time>2026-05-02T06:44:28.037Z</time></trkpt><trkpt lat="42.5203806" lon="14.149211"><ele>2.0</ele><time>2026-05-02T06:44:29.037Z</time></trkpt><trkpt lat="42.5203164" lon="14.1490298"><ele>2.0</ele><time>2026-05-02T06:44:30.037Z</time></trkpt><trkpt lat="42.5202515" lon="14.1488414"><ele>2.0</ele><time>2026-05-02T06:44:31.037Z</time></trkpt><trkpt lat="42.5201854" lon="14.1486521"><ele>2.0</ele><time>2026-05-02T06:44:32.037Z</time></trkpt><trkpt lat="42.5201192" lon="14.1484681"><ele>2.0</ele><time>2026-05-02T06:44:33.037Z</time></trkpt><trkpt lat="42.5200516" lon="14.1482895"><ele>2.0</ele><time>2026-05-02T06:44:34.037Z</time></trkpt><trkpt lat="42.5199761" lon="14.1481309"><ele>2.0</ele><time>2026-05-02T06:44:35.037Z</time></trkpt><trkpt lat="42.5199014" lon="14.1479923"><ele>2.0</ele><time>2026-05-02T06:44:36.037Z</time></trkpt><trkpt lat="42.5198202" lon="14.1478647"><ele>2.25</ele><time>2026-05-02T06:44:37.037Z</time></trkpt><trkpt lat="42.5197454" lon="14.1477404"><ele>2.5</ele><time>2026-05-02T06:44:38.038Z</time></trkpt><trkpt lat="42.5196727" lon="14.1476209"><ele>2.75</ele><time>2026-05-02T06:44:39.037Z</time></trkpt><trkpt lat="42.5196001" lon="14.1474967"><ele>3.0</ele><time>2026-05-02T06:44:40.037Z</time></trkpt><trkpt lat="42.5195427" lon="14.1473633"><ele>3.0</ele><time>2026-05-02T06:44:41.037Z</time></trkpt><trkpt lat="42.519497" lon="14.1472139"><ele>3.0</ele><time>2026-05-02T06:44:42.037Z</time></trkpt><trkpt lat="42.519472" lon="14.1470541"><ele>3.0</ele><time>2026-05-02T06:44:43.038Z</time></trkpt><trkpt lat="42.5194611" lon="14.1468732"><ele>3.0</ele><time>2026-05-02T06:44:44.038Z</time></trkpt><trkpt lat="42.5194769" lon="14.1467166"><ele>3.0</ele><time>2026-05-02T06:44:45.038Z</time></trkpt><trkpt lat="42.5194989" lon="14.1465784"><ele>3.0</ele><time>2026-05-02T06:44:46.037Z</time></trkpt><trkpt lat="42.5195126" lon="14.1464885"><ele>3.0</ele><time>2026-05-02T06:44:47.037Z</time></trkpt><trkpt lat="42.5195542" lon="14.1463596"><ele>3.0</ele><time>2026-05-02T06:44:49.037Z</time></trkpt><trkpt lat="42.5195937" lon="14.1462776"><ele>3.0</ele><time>2026-05-02T06:44:51.037Z</time></trkpt><trkpt lat="42.51964" lon="14.1462071"><ele>3.0</ele><time>2026-05-02T06:44:57.037Z</time></trkpt><trkpt lat="42.5196833" lon="14.14609"><ele>3.0</ele><time>2026-05-02T06:45:00.037Z</time></trkpt><trkpt lat="42.5196774" lon="14.1459825"><ele>3.0</ele><time>2026-05-02T06:45:02.037Z</time></trkpt><trkpt lat="42.5196221" lon="14.1458869"><ele>3.0</ele><time>2026-05-02T06:45:04.037Z</time></trkpt><trkpt lat="42.5195246" lon="14.1458115"><ele>3.0</ele><time>2026-05-02T06:45:06.037Z</time></trkpt><trkpt lat="42.519448" lon="14.1457203"><ele>3.0</ele><time>2026-05-02T06:45:08.038Z</time></trkpt><trkpt lat="42.5194079" lon="14.145653"><ele>3.0</ele><time>2026-05-02T06:49:27.04Z</time></trkpt><trkpt lat="42.5193194" lon="14.1455968"><ele>3.0</ele><time>2026-05-02T06:49:29.04Z</time></trkpt><trkpt lat="42.5192519" lon="14.1455746"><ele>3.0</ele><time>2026-05-02T06:49:30.04Z</time></trkpt><trkpt lat="42.5191806" lon="14.1455447"><ele>3.0</ele><time>2026-05-02T06:49:31.04Z</time></trkpt><trkpt lat="42.5191036" lon="14.1455022"><ele>3.0</ele><time>2026-05-02T06:49:32.04Z</time></trkpt><trkpt lat="42.5190204" lon="14.1454578"><ele>3.0</ele><time>2026-05-02T06:49:33.041Z</time></trkpt><trkpt lat="42.5189388" lon="14.1454025"><ele>3.0</ele><time>2026-05-02T06:49:34.04Z</time></trkpt><trkpt lat="42.5188547" lon="14.1453388"><ele>3.0</ele><time>2026-05-02T06:49:35.04Z</time></trkpt><trkpt lat="42.5187653" lon="14.1452757"><ele>3.0</ele><time>2026-05-02T06:49:36.04Z</time></trkpt><trkpt lat="42.5186729" lon="14.1452131"><ele>3.0</ele><time>2026-05-02T06:49:37.04Z</time></trkpt><trkpt lat="42.5185791" lon="14.1451504"><ele>3.0</ele><time>2026-05-02T06:49:38.04Z</time></trkpt><trkpt lat="42.5184872" lon="14.1450872"><ele>3.0</ele><time>2026-05-02T06:49:39.04Z</time></trkpt><trkpt lat="42.5184008" lon="14.1450187"><ele>3.0</ele><time>2026-05-02T06:49:40.041Z</time></trkpt><trkpt lat="42.5183135" lon="14.1449493"><ele>3.0</ele><time>2026-05-02T06:49:41.041Z</time></trkpt><trkpt lat="42.5182251" lon="14.1448815"><ele>3.0</ele><time>2026-05-02T06:49:42.04Z</time></trkpt><trkpt lat="42.5181277" lon="14.1448139"><ele>3.0</ele><time>2026-05-02T06:49:43.04Z</time></trkpt><trkpt lat="42.5180239" lon="14.1447472"><ele>3.0</ele><time>2026-05-02T06:49:44.04Z</time></trkpt><trkpt lat="42.5179205" lon="14.1446787"><ele>3.0</ele><time>2026-05-02T06:49:45.04Z</time></trkpt><trkpt lat="42.5178152" lon="14.1446108"><ele>3.0</ele><time>2026-05-02T06:49:46.04Z</time></trkpt><trkpt lat="42.5177119" lon="14.1445473"><ele>3.0</ele><time>2026-05-02T06:49:47.04Z</time></trkpt><trkpt lat="42.5176114" lon="14.1444668"><ele>3.0</ele><time>2026-05-02T06:49:48.041Z</time></trkpt><trkpt lat="42.5175079" lon="14.1443791"><ele>3.0</ele><time>2026-05-02T06:49:49.04Z</time></trkpt><trkpt lat="42.5174077" lon="14.1442931"><ele>3.0</ele><time>2026-05-02T06:49:50.04Z</time></trkpt><trkpt lat="42.5172988" lon="14.1442189"><ele>3.0</ele><time>2026-05-02T06:49:51.04Z</time></trkpt><trkpt lat="42.517189" lon="14.1441458"><ele>3.0</ele><time>2026-05-02T06:49:52.04Z</time></trkpt><trkpt lat="42.5170814" lon="14.1440748"><ele>3.75</ele><time>2026-05-02T06:49:53.04Z</time></trkpt><trkpt lat="42.5169767" lon="14.1440008"><ele>4.5</ele><time>2026-05-02T06:49:54.04Z</time></trkpt><trkpt lat="42.5168702" lon="14.1439285"><ele>5.25</ele><time>2026-05-02T06:49:55.04Z</time></trkpt><trkpt lat="42.5167662" lon="14.1438444"><ele>6.0</ele><time>2026-05-02T06:49:56.04Z</time></trkpt><trkpt lat="42.5166606" lon="14.1437614"><ele>6.0</ele><time>2026-05-02T06:49:57.04Z</time></trkpt><trkpt lat="42.5165547" lon="14.1436781"><ele>6.0</ele><time>2026-05-02T06:49:58.041Z</time></trkpt><trkpt lat="42.5164565" lon="14.1436049"><ele>6.0</ele><time>2026-05-02T06:49:59.04Z</time></trkpt><trkpt lat="42.5163558" lon="14.1435327"><ele>6.0</ele><time>2026-05-02T06:50:00.04Z</time></trkpt><trkpt lat="42.5162541" lon="14.1434614"><ele>5.5</ele><time>2026-05-02T06:50:01.041Z</time></trkpt><trkpt lat="42.5161506" lon="14.1434007"><ele>5.0</ele><time>2026-05-02T06:50:02.041Z</time></trkpt><trkpt lat="42.5160459" lon="14.1433345"><ele>4.5</ele><time>2026-05-02T06:50:03.04Z</time></trkpt><trkpt lat="42.515935" lon="14.1432555"><ele>4.0</ele><time>2026-05-02T06:50:04.04Z</time></trkpt><trkpt lat="42.5158275" lon="14.1431759"><ele>3.8000000000000003</ele><time>2026-05-02T06:50:05.04Z</time></trkpt><trkpt lat="42.515721" lon="14.1430917"><ele>3.6000000000000005</ele><time>2026-05-02T06:50:06.04Z</time></trkpt><trkpt lat="42.5156198" lon="14.1430149"><ele>3.4</ele><time>2026-05-02T06:50:07.041Z</time></trkpt><trkpt lat="42.5155247" lon="14.1429463"><ele>3.2</ele><time>2026-05-02T06:50:08.04Z</time></trkpt><trkpt lat="42.5154355" lon="14.1428809"><ele>3.0</ele><time>2026-05-02T06:50:09.041Z</time></trkpt><trkpt lat="42.5153459" lon="14.142825"><ele>2.8</ele><time>2026-05-02T06:50:10.041Z</time></trkpt><trkpt lat="42.5152579" lon="14.1427624"><ele>2.5999999999999996</ele><time>2026-05-02T06:50:11.04Z</time></trkpt><trkpt lat="42.5151685" lon="14.1426993"><ele>2.4000000000000004</ele><time>2026-05-02T06:50:12.04Z</time></trkpt><trkpt lat="42.5150762" lon="14.142633"><ele>2.2</ele><time>2026-05-02T06:50:13.04Z</time></trkpt><trkpt lat="42.5149809" lon="14.1425589"><ele>2.0</ele><time>2026-05-02T06:50:14.041Z</time></trkpt><trkpt lat="42.5148832" lon="14.1424788"><ele>2.0</ele><time>2026-05-02T06:50:15.04Z</time></trkpt><trkpt lat="42.5147841" lon="14.1424048"><ele>2.0</ele><time>2026-05-02T06:50:16.04Z</time></trkpt><trkpt lat="42.5146907" lon="14.1423354"><ele>2.0</ele><time>2026-05-02T06:50:17.041Z</time></trkpt><trkpt lat="42.5145948" lon="14.1422681"><ele>2.0</ele><time>2026-05-02T06:50:18.04Z</time></trkpt><trkpt lat="42.5145002" lon="14.1421962"><ele>2.0</ele><time>2026-05-02T06:50:19.04Z</time></trkpt><trkpt lat="42.5143975" lon="14.1421203"><ele>2.1666666666666665</ele><time>2026-05-02T06:50:20.041Z</time></trkpt><trkpt lat="42.5143091" lon="14.1420442"><ele>2.333333333333333</ele><time>2026-05-02T06:50:21.041Z</time></trkpt><trkpt lat="42.5142405" lon="14.1419835"><ele>2.5</ele><time>2026-05-02T06:50:22.04Z</time></trkpt><trkpt lat="42.5141846" lon="14.141943"><ele>2.6666666666666665</ele><time>2026-05-02T06:50:23.041Z</time></trkpt><trkpt lat="42.5141245" lon="14.1419035"><ele>2.8333333333333335</ele><time>2026-05-02T06:50:25.041Z</time></trkpt><trkpt lat="42.5140637" lon="14.1418805"><ele>3.0</ele><time>2026-05-02T06:50:27.04Z</time></trkpt><trkpt lat="42.5139422" lon="14.1417876"><ele>3.0</ele><time>2026-05-02T06:50:29.041Z</time></trkpt><trkpt lat="42.5138596" lon="14.1417275"><ele>3.0</ele><time>2026-05-02T06:50:30.04Z</time></trkpt><trkpt lat="42.5137636" lon="14.1416594"><ele>3.0</ele><time>2026-05-02T06:50:31.04Z</time></trkpt><trkpt lat="42.5136547" lon="14.141592"><ele>3.0</ele><time>2026-05-02T06:50:32.04Z</time></trkpt><trkpt lat="42.5135352" lon="14.1415101"><ele>3.75</ele><time>2026-05-02T06:50:33.041Z</time></trkpt><trkpt lat="42.513409" lon="14.1414196"><ele>4.5</ele><time>2026-05-02T06:50:34.04Z</time></trkpt><trkpt lat="42.5132856" lon="14.1413331"><ele>5.25</ele><time>2026-05-02T06:50:35.04Z</time></trkpt><trkpt lat="42.513178" lon="14.1412472"><ele>6.0</ele><time>2026-05-02T06:50:36.04Z</time></trkpt><trkpt lat="42.5130785" lon="14.1411331"><ele>6.0</ele><time>2026-05-02T06:50:37.041Z</time></trkpt><trkpt lat="42.5129897" lon="14.1410065"><ele>6.0</ele><time>2026-05-02T06:50:38.04Z</time></trkpt><trkpt lat="42.5129232" lon="14.1408525"><ele>6.0</ele><time>2026-05-02T06:50:39.04Z</time></trkpt><trkpt lat="42.5128825" lon="14.1406866"><ele>6.0</ele><time>2026-05-02T06:50:40.04Z</time></trkpt><trkpt lat="42.5128577" lon="14.1405078"><ele>6.0</ele><time>2026-05-02T06:50:41.04Z</time></trkpt><trkpt lat="42.512865" lon="14.1403214"><ele>6.0</ele><time>2026-05-02T06:50:42.04Z</time></trkpt><trkpt lat="42.5129051" lon="14.1401286"><ele>6.0</ele><time>2026-05-02T06:50:43.041Z</time></trkpt><trkpt lat="42.5129709" lon="14.1399455"><ele>6.0</ele><time>2026-05-02T06:50:44.04Z</time></trkpt><trkpt lat="42.5130396" lon="14.1397637"><ele>6.25</ele><time>2026-05-02T06:50:45.04Z</time></trkpt><trkpt lat="42.5131108" lon="14.1395867"><ele>6.5</ele><time>2026-05-02T06:50:46.041Z</time></trkpt><trkpt lat="42.5131765" lon="14.1394113"><ele>6.75</ele><time>2026-05-02T06:50:47.04Z</time></trkpt><trkpt lat="42.5132385" lon="14.1392391"><ele>7.0</ele><time>2026-05-02T06:50:48.04Z</time></trkpt><trkpt lat="42.5133034" lon="14.1390741"><ele>6.5</ele><time>2026-05-02T06:50:49.04Z</time></trkpt><trkpt lat="42.513368" lon="14.1389099"><ele>6.0</ele><time>2026-05-02T06:50:50.04Z</time></trkpt><trkpt lat="42.5134336" lon="14.1387384"><ele>5.5</ele><time>2026-05-02T06:50:51.041Z</time></trkpt><trkpt lat="42.5134917" lon="14.1385762"><ele>5.0</ele><time>2026-05-02T06:50:52.041Z</time></trkpt><trkpt lat="42.5135614" lon="14.1384143"><ele>5.0</ele><time>2026-05-02T06:50:53.04Z</time></trkpt><trkpt lat="42.5136255" lon="14.1382566"><ele>5.0</ele><time>2026-05-02T06:50:54.041Z</time></trkpt><trkpt lat="42.5136839" lon="14.1381054"><ele>5.0</ele><time>2026-05-02T06:50:55.04Z</time></trkpt><trkpt lat="42.5137352" lon="14.1379754"><ele>5.0</ele><time>2026-05-02T06:50:56.04Z</time></trkpt><trkpt lat="42.5137828" lon="14.1378622"><ele>5.2</ele><time>2026-05-02T06:50:57.04Z</time></trkpt><trkpt lat="42.5138287" lon="14.1377756"><ele>5.4</ele><time>2026-05-02T06:50:58.04Z</time></trkpt><trkpt lat="42.5138678" lon="14.1377034"><ele>5.6</ele><time>2026-05-02T06:50:59.041Z</time></trkpt><trkpt lat="42.5139218" lon="14.1375529"><ele>5.8</ele><time>2026-05-02T06:51:01.04Z</time></trkpt><trkpt lat="42.5138749" lon="14.1374024"><ele>6.0</ele><time>2026-05-02T06:51:03.041Z</time></trkpt><trkpt lat="42.5138153" lon="14.1373543"><ele>5.666666666666667</ele><time>2026-05-02T06:51:04.04Z</time></trkpt><trkpt lat="42.5137463" lon="14.1372932"><ele>5.333333333333333</ele><time>2026-05-02T06:51:05.041Z</time></trkpt><trkpt lat="42.5136865" lon="14.1372082"><ele>5.0</ele><time>2026-05-02T06:51:06.04Z</time></trkpt><trkpt lat="42.5136446" lon="14.1371155"><ele>4.666666666666666</ele><time>2026-05-02T06:51:07.04Z</time></trkpt><trkpt lat="42.5135993" lon="14.1370031"><ele>4.333333333333333</ele><time>2026-05-02T06:51:08.04Z</time></trkpt><trkpt lat="42.513557" lon="14.1368752"><ele>4.0</ele><time>2026-05-02T06:51:09.04Z</time></trkpt><trkpt lat="42.5135155" lon="14.1367314"><ele>4.0</ele><time>2026-05-02T06:51:10.04Z</time></trkpt><trkpt lat="42.5134783" lon="14.1365877"><ele>4.0</ele><time>2026-05-02T06:51:11.041Z</time></trkpt><trkpt lat="42.5134434" lon="14.1364272"><ele>4.0</ele><time>2026-05-02T06:51:12.041Z</time></trkpt><trkpt lat="42.5134091" lon="14.1362611"><ele>4.0</ele><time>2026-05-02T06:51:13.04Z</time></trkpt><trkpt lat="42.5133701" lon="14.1360896"><ele>3.75</ele><time>2026-05-02T06:51:14.04Z</time></trkpt><trkpt lat="42.5133206" lon="14.1359149"><ele>3.5</ele><time>2026-05-02T06:51:15.041Z</time></trkpt><trkpt lat="42.5132509" lon="14.1357403"><ele>3.25</ele><time>2026-05-02T06:51:16.04Z</time></trkpt><trkpt lat="42.513162" lon="14.1355664"><ele>3.0</ele><time>2026-05-02T06:51:17.04Z</time></trkpt><trkpt lat="42.5130701" lon="14.1354081"><ele>3.0</ele><time>2026-05-02T06:51:18.04Z</time></trkpt><trkpt lat="42.5129607" lon="14.1352556"><ele>3.0</ele><time>2026-05-02T06:51:19.04Z</time></trkpt><trkpt lat="42.5128417" lon="14.1351225"><ele>3.0</ele><time>2026-05-02T06:51:20.04Z</time></trkpt><trkpt lat="42.5126949" lon="14.1350021"><ele>2.3333333333333335</ele><time>2026-05-02T06:51:21.041Z</time></trkpt><trkpt lat="42.512541" lon="14.1348854"><ele>1.6666666666666665</ele><time>2026-05-02T06:51:22.04Z</time></trkpt><trkpt lat="42.5123806" lon="14.1347852"><ele>1.0</ele><time>2026-05-02T06:51:23.04Z</time></trkpt><trkpt lat="42.5122309" lon="14.1346779"><ele>1.0</ele><time>2026-05-02T06:51:24.04Z</time></trkpt><trkpt lat="42.5120823" lon="14.1345789"><ele>1.0</ele><time>2026-05-02T06:51:25.04Z</time></trkpt><trkpt lat="42.511936" lon="14.1344652"><ele>1.0</ele><time>2026-05-02T06:51:26.04Z</time></trkpt><trkpt lat="42.5117921" lon="14.134328"><ele>2.3333333333333335</ele><time>2026-05-02T06:51:27.04Z</time></trkpt><trkpt lat="42.5116692" lon="14.134155"><ele>3.666666666666667</ele><time>2026-05-02T06:51:28.04Z</time></trkpt><trkpt lat="42.5115795" lon="14.1339869"><ele>5.0</ele><time>2026-05-02T06:51:29.041Z</time></trkpt><trkpt lat="42.5114887" lon="14.1337945"><ele>5.0</ele><time>2026-05-02T06:51:30.041Z</time></trkpt><trkpt lat="42.5113967" lon="14.1336057"><ele>5.0</ele><time>2026-05-02T06:51:31.041Z</time></trkpt><trkpt lat="42.5112873" lon="14.1334274"><ele>5.0</ele><time>2026-05-02T06:51:32.04Z</time></trkpt><trkpt lat="42.5111769" lon="14.1332497"><ele>5.333333333333334</ele><time>2026-05-02T06:51:33.041Z</time></trkpt><trkpt lat="42.5110678" lon="14.1330666"><ele>5.666666666666667</ele><time>2026-05-02T06:51:34.04Z</time></trkpt><trkpt lat="42.5109618" lon="14.1328833"><ele>6.0</ele><time>2026-05-02T06:51:35.04Z</time></trkpt><trkpt lat="42.5108606" lon="14.132694"><ele>6.0</ele><time>2026-05-02T06:51:36.04Z</time></trkpt><trkpt lat="42.5107594" lon="14.1324979"><ele>6.0</ele><time>2026-05-02T06:51:37.04Z</time></trkpt><trkpt lat="42.5106588" lon="14.1323037"><ele>6.0</ele><time>2026-05-02T06:51:38.04Z</time></trkpt><trkpt lat="42.5105522" lon="14.1321007"><ele>6.0</ele><time>2026-05-02T06:51:39.04Z</time></trkpt><trkpt lat="42.5104503" lon="14.1319058"><ele>6.0</ele><time>2026-05-02T06:51:40.04Z</time></trkpt><trkpt lat="42.5103445" lon="14.1317149"><ele>6.0</ele><time>2026-05-02T06:51:41.04Z</time></trkpt><trkpt lat="42.510238" lon="14.1315311"><ele>5.666666666666667</ele><time>2026-05-02T06:51:42.04Z</time></trkpt><trkpt lat="42.5101315" lon="14.131345"><ele>5.333333333333334</ele><time>2026-05-02T06:51:43.04Z</time></trkpt><trkpt lat="42.5100221" lon="14.1311744"><ele>5.0</ele><time>2026-05-02T06:51:44.04Z</time></trkpt><trkpt lat="42.509913" lon="14.131005"><ele>5.0</ele><time>2026-05-02T06:51:45.041Z</time></trkpt><trkpt lat="42.5098004" lon="14.1308315"><ele>5.0</ele><time>2026-05-02T06:51:46.04Z</time></trkpt><trkpt lat="42.5096846" lon="14.1306596"><ele>5.0</ele><time>2026-05-02T06:51:47.04Z</time></trkpt><trkpt lat="42.5095744" lon="14.1304984"><ele>5.5</ele><time>2026-05-02T06:51:48.041Z</time></trkpt><trkpt lat="42.5094696" lon="14.130341"><ele>6.0</ele><time>2026-05-02T06:51:49.04Z</time></trkpt><trkpt lat="42.5093712" lon="14.1301948"><ele>6.5</ele><time>2026-05-02T06:51:50.04Z</time></trkpt><trkpt lat="42.5092803" lon="14.1300581"><ele>7.0</ele><time>2026-05-02T06:51:51.04Z</time></trkpt><trkpt lat="42.5092078" lon="14.1299435"><ele>6.666666666666667</ele><time>2026-05-02T06:51:52.04Z</time></trkpt><trkpt lat="42.5091487" lon="14.1298461"><ele>6.333333333333334</ele><time>2026-05-02T06:51:53.041Z</time></trkpt><trkpt lat="42.5091003" lon="14.1297582"><ele>6.0</ele><time>2026-05-02T06:51:54.041Z</time></trkpt><trkpt lat="42.5090728" lon="14.1296636"><ele>5.666666666666667</ele><time>2026-05-02T06:51:55.04Z</time></trkpt><trkpt lat="42.5090558" lon="14.1295611"><ele>5.333333333333334</ele><time>2026-05-02T06:51:56.04Z</time></trkpt><trkpt lat="42.5090172" lon="14.1294659"><ele>5.0</ele><time>2026-05-02T06:51:57.04Z</time></trkpt><trkpt lat="42.5089585" lon="14.129375"><ele>5.0</ele><time>2026-05-02T06:51:58.04Z</time></trkpt><trkpt lat="42.5088622" lon="14.129295"><ele>5.0</ele><time>2026-05-02T06:51:59.041Z</time></trkpt><trkpt lat="42.5087491" lon="14.1291842"><ele>5.0</ele><time>2026-05-02T06:52:00.04Z</time></trkpt><trkpt lat="42.5086701" lon="14.1290545"><ele>5.0</ele><time>2026-05-02T06:52:01.04Z</time></trkpt><trkpt lat="42.5085884" lon="14.1289084"><ele>5.333333333333334</ele><time>2026-05-02T06:52:02.04Z</time></trkpt><trkpt lat="42.5084971" lon="14.1287468"><ele>5.666666666666667</ele><time>2026-05-02T06:52:03.04Z</time></trkpt><trkpt lat="42.5083939" lon="14.1285793"><ele>6.0</ele><time>2026-05-02T06:52:04.04Z</time></trkpt><trkpt lat="42.5082926" lon="14.1283979"><ele>5.666666666666667</ele><time>2026-05-02T06:52:05.041Z</time></trkpt><trkpt lat="42.5081899" lon="14.1282159"><ele>5.333333333333334</ele><time>2026-05-02T06:52:06.04Z</time></trkpt><trkpt lat="42.5080839" lon="14.1280222"><ele>5.0</ele><time>2026-05-02T06:52:07.04Z</time></trkpt><trkpt lat="42.5079745" lon="14.1278228"><ele>5.666666666666667</ele><time>2026-05-02T06:52:08.04Z</time></trkpt><trkpt lat="42.5078615" lon="14.1276291"><ele>6.333333333333334</ele><time>2026-05-02T06:52:09.04Z</time></trkpt><trkpt lat="42.5077445" lon="14.1274301"><ele>7.0</ele><time>2026-05-02T06:52:10.04Z</time></trkpt><trkpt lat="42.5076356" lon="14.1272255"><ele>7.333333333333334</ele><time>2026-05-02T06:52:11.041Z</time></trkpt><trkpt lat="42.5075256" lon="14.127025"><ele>7.666666666666666</ele><time>2026-05-02T06:52:12.04Z</time></trkpt><trkpt lat="42.5074177" lon="14.1268247"><ele>8.0</ele><time>2026-05-02T06:52:13.04Z</time></trkpt><trkpt lat="42.5073072" lon="14.1266268"><ele>7.666666666666666</ele><time>2026-05-02T06:52:14.041Z</time></trkpt><trkpt lat="42.5071957" lon="14.1264302"><ele>7.333333333333334</ele><time>2026-05-02T06:52:15.04Z</time></trkpt><trkpt lat="42.5070808" lon="14.1262378"><ele>7.0</ele><time>2026-05-02T06:52:16.04Z</time></trkpt><trkpt lat="42.5069632" lon="14.1260418"><ele>7.0</ele><time>2026-05-02T06:52:17.04Z</time></trkpt><trkpt lat="42.5068376" lon="14.1258462"><ele>7.0</ele><time>2026-05-02T06:52:18.04Z</time></trkpt><trkpt lat="42.5067089" lon="14.1256618"><ele>7.0</ele><time>2026-05-02T06:52:19.04Z</time></trkpt><trkpt lat="42.5065815" lon="14.1254721"><ele>7.333333333333334</ele><time>2026-05-02T06:52:20.041Z</time></trkpt><trkpt lat="42.5064524" lon="14.1252793"><ele>7.666666666666666</ele><time>2026-05-02T06:52:21.04Z</time></trkpt><trkpt lat="42.5063139" lon="14.1250926"><ele>8.0</ele><time>2026-05-02T06:52:22.04Z</time></trkpt><trkpt lat="42.5061712" lon="14.1249099"><ele>8.333333333333332</ele><time>2026-05-02T06:52:23.04Z</time></trkpt><trkpt lat="42.5060279" lon="14.1247355"><ele>8.666666666666666</ele><time>2026-05-02T06:52:24.041Z</time></trkpt><trkpt lat="42.5058791" lon="14.1245558"><ele>9.0</ele><time>2026-05-02T06:52:25.04Z</time></trkpt><trkpt lat="42.5057305" lon="14.1243772"><ele>9.0</ele><time>2026-05-02T06:52:26.04Z</time></trkpt><trkpt lat="42.5055711" lon="14.1242136"><ele>9.0</ele><time>2026-05-02T06:52:27.04Z</time></trkpt><trkpt lat="42.5054085" lon="14.1240518"><ele>9.0</ele><time>2026-05-02T06:52:28.04Z</time></trkpt><trkpt lat="42.5052493" lon="14.1238899"><ele>8.333333333333334</ele><time>2026-05-02T06:52:29.04Z</time></trkpt><trkpt lat="42.5050881" lon="14.1237326"><ele>7.666666666666667</ele><time>2026-05-02T06:52:30.04Z</time></trkpt><trkpt lat="42.5049257" lon="14.123581"><ele>7.0</ele><time>2026-05-02T06:52:31.04Z</time></trkpt><trkpt lat="42.5047625" lon="14.1234281"><ele>7.0</ele><time>2026-05-02T06:52:32.04Z</time></trkpt><trkpt lat="42.5046" lon="14.1232795"><ele>7.0</ele><time>2026-05-02T06:52:33.04Z</time></trkpt><trkpt lat="42.5044396" lon="14.1231283"><ele>7.0</ele><time>2026-05-02T06:52:34.04Z</time></trkpt><trkpt lat="42.504283" lon="14.1229813"><ele>8.0</ele><time>2026-05-02T06:52:35.04Z</time></trkpt><trkpt lat="42.5041336" lon="14.1228418"><ele>9.0</ele><time>2026-05-02T06:52:36.041Z</time></trkpt><trkpt lat="42.50399" lon="14.1227069"><ele>10.0</ele><time>2026-05-02T06:52:37.04Z</time></trkpt><trkpt lat="42.5038419" lon="14.1225761"><ele>10.0</ele><time>2026-05-02T06:52:38.041Z</time></trkpt><trkpt lat="42.5036913" lon="14.1224511"><ele>10.0</ele><time>2026-05-02T06:52:39.04Z</time></trkpt><trkpt lat="42.5035432" lon="14.1223301"><ele>10.0</ele><time>2026-05-02T06:52:40.04Z</time></trkpt><trkpt lat="42.5034066" lon="14.1222083"><ele>9.75</ele><time>2026-05-02T06:52:41.04Z</time></trkpt><trkpt lat="42.5032792" lon="14.1220934"><ele>9.5</ele><time>2026-05-02T06:52:42.04Z</time></trkpt><trkpt lat="42.5031652" lon="14.1219948"><ele>9.25</ele><time>2026-05-02T06:52:43.04Z</time></trkpt><trkpt lat="42.5030639" lon="14.1218979"><ele>9.0</ele><time>2026-05-02T06:52:44.041Z</time></trkpt><trkpt lat="42.5029763" lon="14.1218069"><ele>8.8</ele><time>2026-05-02T06:52:45.04Z</time></trkpt><trkpt lat="42.5029019" lon="14.1217091"><ele>8.600000000000001</ele><time>2026-05-02T06:52:46.04Z</time></trkpt><trkpt lat="42.5028463" lon="14.1215957"><ele>8.4</ele><time>2026-05-02T06:52:47.041Z</time></trkpt><trkpt lat="42.502804" lon="14.121485"><ele>8.200000000000001</ele><time>2026-05-02T06:52:48.04Z</time></trkpt><trkpt lat="42.5027502" lon="14.1213983"><ele>8.0</ele><time>2026-05-02T06:52:49.04Z</time></trkpt><trkpt lat="42.502677" lon="14.1213414"><ele>8.0</ele><time>2026-05-02T06:52:50.04Z</time></trkpt><trkpt lat="42.5026046" lon="14.1213234"><ele>8.0</ele><time>2026-05-02T06:52:51.041Z</time></trkpt><trkpt lat="42.502506" lon="14.1213223"><ele>8.0</ele><time>2026-05-02T06:52:52.041Z</time></trkpt><trkpt lat="42.502405" lon="14.1213079"><ele>8.0</ele><time>2026-05-02T06:52:53.041Z</time></trkpt><trkpt lat="42.5022992" lon="14.1212597"><ele>8.0</ele><time>2026-05-02T06:52:54.041Z</time></trkpt><trkpt lat="42.5021892" lon="14.1211991"><ele>8.5</ele><time>2026-05-02T06:52:55.04Z</time></trkpt><trkpt lat="42.5020731" lon="14.1211271"><ele>9.0</ele><time>2026-05-02T06:52:56.04Z</time></trkpt><trkpt lat="42.5019434" lon="14.1210516"><ele>9.5</ele><time>2026-05-02T06:52:57.04Z</time></trkpt><trkpt lat="42.5018013" lon="14.1209743"><ele>10.0</ele><time>2026-05-02T06:52:58.04Z</time></trkpt><trkpt lat="42.5016558" lon="14.1208997"><ele>10.0</ele><time>2026-05-02T06:52:59.04Z</time></trkpt><trkpt lat="42.5015068" lon="14.1208343"><ele>10.0</ele><time>2026-05-02T06:53:00.04Z</time></trkpt><trkpt lat="42.5013625" lon="14.1208002"><ele>10.0</ele><time>2026-05-02T06:53:01.04Z</time></trkpt><trkpt lat="42.5012169" lon="14.1207701"><ele>10.333333333333334</ele><time>2026-05-02T06:53:02.041Z</time></trkpt><trkpt lat="42.5010673" lon="14.1207155"><ele>10.666666666666666</ele><time>2026-05-02T06:53:03.04Z</time></trkpt><trkpt lat="42.5009202" lon="14.1206269"><ele>11.0</ele><time>2026-05-02T06:53:04.04Z</time></trkpt><trkpt lat="42.5007727" lon="14.1205238"><ele>11.0</ele><time>2026-05-02T06:53:05.04Z</time></trkpt><trkpt lat="42.5006172" lon="14.120424"><ele>11.0</ele><time>2026-05-02T06:53:06.04Z</time></trkpt><trkpt lat="42.5004586" lon="14.1203185"><ele>11.0</ele><time>2026-05-02T06:53:07.04Z</time></trkpt><trkpt lat="42.5003092" lon="14.1202163"><ele>11.75</ele><time>2026-05-02T06:53:08.04Z</time></trkpt><trkpt lat="42.500183" lon="14.1201225"><ele>12.5</ele><time>2026-05-02T06:53:09.04Z</time></trkpt><trkpt lat="42.5000702" lon="14.1200427"><ele>13.25</ele><time>2026-05-02T06:53:10.04Z</time></trkpt><trkpt lat="42.4999691" lon="14.1199692"><ele>14.0</ele><time>2026-05-02T06:53:11.041Z</time></trkpt><trkpt lat="42.4998789" lon="14.1199027"><ele>14.2</ele><time>2026-05-02T06:53:12.04Z</time></trkpt><trkpt lat="42.4997937" lon="14.1198641"><ele>14.399999999999999</ele><time>2026-05-02T06:53:13.04Z</time></trkpt><trkpt lat="42.4997141" lon="14.1198671"><ele>14.6</ele><time>2026-05-02T06:53:14.04Z</time></trkpt><trkpt lat="42.4996403" lon="14.1198922"><ele>14.8</ele><time>2026-05-02T06:53:15.04Z</time></trkpt><trkpt lat="42.499572" lon="14.1199773"><ele>15.0</ele><time>2026-05-02T06:53:16.04Z</time></trkpt><trkpt lat="42.49949" lon="14.1200902"><ele>15.0</ele><time>2026-05-02T06:53:17.04Z</time></trkpt><trkpt lat="42.4994099" lon="14.1202045"><ele>15.0</ele><time>2026-05-02T06:53:18.041Z</time></trkpt><trkpt lat="42.4993233" lon="14.1203184"><ele>15.0</ele><time>2026-05-02T06:53:19.041Z</time></trkpt><trkpt lat="42.499226" lon="14.120436"><ele>15.0</ele><time>2026-05-02T06:53:20.04Z</time></trkpt><trkpt lat="42.4991224" lon="14.1205631"><ele>15.0</ele><time>2026-05-02T06:53:21.041Z</time></trkpt><trkpt lat="42.4990124" lon="14.1206967"><ele>15.0</ele><time>2026-05-02T06:53:22.04Z</time></trkpt><trkpt lat="42.4989066" lon="14.1208293"><ele>15.0</ele><time>2026-05-02T06:53:23.04Z</time></trkpt><trkpt lat="42.4987994" lon="14.1209615"><ele>15.0</ele><time>2026-05-02T06:53:24.04Z</time></trkpt><trkpt lat="42.4987005" lon="14.1210846"><ele>15.25</ele><time>2026-05-02T06:53:25.04Z</time></trkpt><trkpt lat="42.4986056" lon="14.1212033"><ele>15.5</ele><time>2026-05-02T06:53:26.04Z</time></trkpt><trkpt lat="42.498519" lon="14.121312"><ele>15.75</ele><time>2026-05-02T06:53:27.04Z</time></trkpt><trkpt lat="42.4984346" lon="14.1214109"><ele>16.0</ele><time>2026-05-02T06:53:28.04Z</time></trkpt><trkpt lat="42.4983524" lon="14.1215081"><ele>15.75</ele><time>2026-05-02T06:53:29.04Z</time></trkpt><trkpt lat="42.4982561" lon="14.121567"><ele>15.5</ele><time>2026-05-02T06:53:30.04Z</time></trkpt><trkpt lat="42.4981577" lon="14.1216259"><ele>15.25</ele><time>2026-05-02T06:53:31.04Z</time></trkpt><trkpt lat="42.4980636" lon="14.1217036"><ele>15.0</ele><time>2026-05-02T06:53:32.04Z</time></trkpt><trkpt lat="42.4979782" lon="14.1218311"><ele>15.0</ele><time>2026-05-02T06:53:33.041Z</time></trkpt><trkpt lat="42.4978955" lon="14.1219766"><ele>15.0</ele><time>2026-05-02T06:53:34.041Z</time></trkpt><trkpt lat="42.4978047" lon="14.1221377"><ele>15.0</ele><time>2026-05-02T06:53:35.041Z</time></trkpt><trkpt lat="42.4977017" lon="14.1223043"><ele>15.0</ele><time>2026-05-02T06:53:36.041Z</time></trkpt><trkpt lat="42.4975874" lon="14.1224765"><ele>14.666666666666668</ele><time>2026-05-02T06:53:37.04Z</time></trkpt><trkpt lat="42.4974703" lon="14.1226598"><ele>14.333333333333334</ele><time>2026-05-02T06:53:38.04Z</time></trkpt><trkpt lat="42.4973464" lon="14.1228647"><ele>14.0</ele><time>2026-05-02T06:53:39.04Z</time></trkpt><trkpt lat="42.497233" lon="14.12304"><ele>14.0</ele><time>2026-05-02T06:53:40.04Z</time></trkpt><trkpt lat="42.4971185" lon="14.1232021"><ele>14.0</ele><time>2026-05-02T06:53:41.04Z</time></trkpt><trkpt lat="42.4970292" lon="14.1233385"><ele>14.0</ele><time>2026-05-02T06:53:42.04Z</time></trkpt><trkpt lat="42.4969397" lon="14.1234682"><ele>14.0</ele><time>2026-05-02T06:53:43.04Z</time></trkpt><trkpt lat="42.4968547" lon="14.123584"><ele>14.399999999999999</ele><time>2026-05-02T06:53:44.041Z</time></trkpt><trkpt lat="42.4967678" lon="14.1236793"><ele>14.799999999999999</ele><time>2026-05-02T06:53:45.04Z</time></trkpt><trkpt lat="42.4966828" lon="14.1237555"><ele>15.200000000000001</ele><time>2026-05-02T06:53:46.04Z</time></trkpt><trkpt lat="42.4965929" lon="14.1238262"><ele>15.600000000000001</ele><time>2026-05-02T06:53:47.04Z</time></trkpt><trkpt lat="42.4965108" lon="14.123905"><ele>16.0</ele><time>2026-05-02T06:53:48.04Z</time></trkpt><trkpt lat="42.4964254" lon="14.1239948"><ele>16.2</ele><time>2026-05-02T06:53:49.04Z</time></trkpt><trkpt lat="42.4963353" lon="14.1240859"><ele>16.400000000000002</ele><time>2026-05-02T06:53:50.041Z</time></trkpt><trkpt lat="42.4962513" lon="14.124173"><ele>16.6</ele><time>2026-05-02T06:53:51.04Z</time></trkpt><trkpt lat="42.4961757" lon="14.1242513"><ele>16.8</ele><time>2026-05-02T06:53:52.04Z</time></trkpt><trkpt lat="42.4961052" lon="14.1243181"><ele>17.0</ele><time>2026-05-02T06:53:53.04Z</time></trkpt><trkpt lat="42.4960369" lon="14.1243795"><ele>16.6</ele><time>2026-05-02T06:53:54.04Z</time></trkpt><trkpt lat="42.4959639" lon="14.1244175"><ele>16.2</ele><time>2026-05-02T06:53:55.04Z</time></trkpt><trkpt lat="42.4958898" lon="14.1244667"><ele>15.8</ele><time>2026-05-02T06:53:56.041Z</time></trkpt><trkpt lat="42.4958114" lon="14.1245235"><ele>15.4</ele><time>2026-05-02T06:53:57.041Z</time></trkpt><trkpt lat="42.4957097" lon="14.1245487"><ele>15.0</ele><time>2026-05-02T06:53:58.04Z</time></trkpt><trkpt lat="42.495601" lon="14.1245474"><ele>15.0</ele><time>2026-05-02T06:53:59.04Z</time></trkpt><trkpt lat="42.4954683" lon="14.1245481"><ele>15.0</ele><time>2026-05-02T06:54:00.04Z</time></trkpt><trkpt lat="42.4953274" lon="14.124552"><ele>15.0</ele><time>2026-05-02T06:54:01.04Z</time></trkpt><trkpt lat="42.4951753" lon="14.1245588"><ele>15.0</ele><time>2026-05-02T06:54:02.04Z</time></trkpt><trkpt lat="42.4950335" lon="14.124568"><ele>15.4</ele><time>2026-05-02T06:54:03.04Z</time></trkpt><trkpt lat="42.4949068" lon="14.1245724"><ele>15.8</ele><time>2026-05-02T06:54:04.041Z</time></trkpt><trkpt lat="42.4947909" lon="14.1245676"><ele>16.2</ele><time>2026-05-02T06:54:05.04Z</time></trkpt><trkpt lat="42.4946952" lon="14.124563"><ele>16.6</ele><time>2026-05-02T06:54:06.041Z</time></trkpt><trkpt lat="42.4946145" lon="14.1245605"><ele>17.0</ele><time>2026-05-02T06:54:07.04Z</time></trkpt><trkpt lat="42.4945367" lon="14.1245536"><ele>17.2</ele><time>2026-05-02T06:54:08.041Z</time></trkpt><trkpt lat="42.4944572" lon="14.1245616"><ele>17.4</ele><time>2026-05-02T06:54:09.04Z</time></trkpt><trkpt lat="42.494378" lon="14.1246208"><ele>17.6</ele><time>2026-05-02T06:54:10.04Z</time></trkpt><trkpt lat="42.494301" lon="14.1247101"><ele>17.8</ele><time>2026-05-02T06:54:11.04Z</time></trkpt><trkpt lat="42.4942254" lon="14.1248215"><ele>18.0</ele><time>2026-05-02T06:54:12.04Z</time></trkpt><trkpt lat="42.4941552" lon="14.1249185"><ele>18.0</ele><time>2026-05-02T06:54:13.041Z</time></trkpt><trkpt lat="42.4940907" lon="14.1250101"><ele>18.0</ele><time>2026-05-02T06:54:14.041Z</time></trkpt><trkpt lat="42.4940331" lon="14.1250956"><ele>18.0</ele><time>2026-05-02T06:54:15.04Z</time></trkpt><trkpt lat="42.4939863" lon="14.1251729"><ele>18.0</ele><time>2026-05-02T06:54:16.04Z</time></trkpt><trkpt lat="42.4939324" lon="14.1252726"><ele>18.0</ele><time>2026-05-02T06:54:18.04Z</time></trkpt><trkpt lat="42.4938671" lon="14.1253074"><ele>18.0</ele><time>2026-05-02T06:54:22.04Z</time></trkpt><trkpt lat="42.4937766" lon="14.1252297"><ele>18.2</ele><time>2026-05-02T06:54:25.041Z</time></trkpt><trkpt lat="42.4937115" lon="14.1251779"><ele>18.4</ele><time>2026-05-02T06:54:26.04Z</time></trkpt><trkpt lat="42.4936346" lon="14.1251202"><ele>18.599999999999998</ele><time>2026-05-02T06:54:27.041Z</time></trkpt><trkpt lat="42.4935521" lon="14.1250485"><ele>18.8</ele><time>2026-05-02T06:54:28.04Z</time></trkpt><trkpt lat="42.4934566" lon="14.1249753"><ele>19.0</ele><time>2026-05-02T06:54:29.041Z</time></trkpt><trkpt lat="42.4933611" lon="14.1249003"><ele>19.0</ele><time>2026-05-02T06:54:30.04Z</time></trkpt><trkpt lat="42.4932716" lon="14.1248312"><ele>19.0</ele><time>2026-05-02T06:54:31.04Z</time></trkpt><trkpt lat="42.4931839" lon="14.1247635"><ele>19.0</ele><time>2026-05-02T06:54:32.041Z</time></trkpt><trkpt lat="42.4930912" lon="14.1246876"><ele>19.0</ele><time>2026-05-02T06:54:33.04Z</time></trkpt><trkpt lat="42.4929974" lon="14.1246084"><ele>19.0</ele><time>2026-05-02T06:54:34.041Z</time></trkpt><trkpt lat="42.4929053" lon="14.1245365"><ele>19.6</ele><time>2026-05-02T06:54:35.041Z</time></trkpt><trkpt lat="42.4928167" lon="14.1244683"><ele>20.2</ele><time>2026-05-02T06:54:36.041Z</time></trkpt><trkpt lat="42.4927326" lon="14.1243983"><ele>20.8</ele><time>2026-05-02T06:54:37.04Z</time></trkpt><trkpt lat="42.4926524" lon="14.12433"><ele>21.400000000000002</ele><time>2026-05-02T06:54:38.04Z</time></trkpt><trkpt lat="42.492566" lon="14.1242583"><ele>22.0</ele><time>2026-05-02T06:54:39.04Z</time></trkpt><trkpt lat="42.4924808" lon="14.1241876"><ele>22.0</ele><time>2026-05-02T06:54:40.04Z</time></trkpt><trkpt lat="42.492392" lon="14.1241152"><ele>22.0</ele><time>2026-05-02T06:54:41.04Z</time></trkpt><trkpt lat="42.4922991" lon="14.1240378"><ele>22.0</ele><time>2026-05-02T06:54:42.041Z</time></trkpt><trkpt lat="42.4922045" lon="14.1239588"><ele>22.0</ele><time>2026-05-02T06:54:43.041Z</time></trkpt><trkpt lat="42.4921048" lon="14.1238777"><ele>22.0</ele><time>2026-05-02T06:54:44.04Z</time></trkpt><trkpt lat="42.4920104" lon="14.1238055"><ele>21.75</ele><time>2026-05-02T06:54:45.04Z</time></trkpt><trkpt lat="42.491909" lon="14.1237234"><ele>21.5</ele><time>2026-05-02T06:54:46.04Z</time></trkpt><trkpt lat="42.4918055" lon="14.1236454"><ele>21.25</ele><time>2026-05-02T06:54:47.04Z</time></trkpt><trkpt lat="42.4917036" lon="14.1235695"><ele>21.0</ele><time>2026-05-02T06:54:48.04Z</time></trkpt><trkpt lat="42.4915968" lon="14.1234825"><ele>21.0</ele><time>2026-05-02T06:54:49.041Z</time></trkpt><trkpt lat="42.4914916" lon="14.1233947"><ele>21.0</ele><time>2026-05-02T06:54:50.04Z</time></trkpt><trkpt lat="42.4913914" lon="14.1233105"><ele>21.0</ele><time>2026-05-02T06:54:51.04Z</time></trkpt><trkpt lat="42.491292" lon="14.1232261"><ele>21.0</ele><time>2026-05-02T06:54:52.04Z</time></trkpt><trkpt lat="42.4911889" lon="14.1231431"><ele>21.5</ele><time>2026-05-02T06:54:53.04Z</time></trkpt><trkpt lat="42.4910794" lon="14.1230595"><ele>22.0</ele><time>2026-05-02T06:54:54.041Z</time></trkpt><trkpt lat="42.4909621" lon="14.1229722"><ele>22.5</ele><time>2026-05-02T06:54:55.041Z</time></trkpt><trkpt lat="42.4908283" lon="14.1228736"><ele>23.0</ele><time>2026-05-02T06:54:56.04Z</time></trkpt><trkpt lat="42.4906783" lon="14.1227601"><ele>23.0</ele><time>2026-05-02T06:54:57.04Z</time></trkpt><trkpt lat="42.4905397" lon="14.1226423"><ele>23.0</ele><time>2026-05-02T06:54:58.04Z</time></trkpt><trkpt lat="42.4904341" lon="14.1225453"><ele>23.0</ele><time>2026-05-02T06:54:59.04Z</time></trkpt><trkpt lat="42.4903673" lon="14.1224725"><ele>23.0</ele><time>2026-05-02T06:55:00.04Z</time></trkpt><trkpt lat="42.4903369" lon="14.1223736"><ele>22.799999999999997</ele><time>2026-05-02T06:55:02.04Z</time></trkpt><trkpt lat="42.4903826" lon="14.1222895"><ele>22.6</ele><time>2026-05-02T06:55:04.04Z</time></trkpt><trkpt lat="42.4904215" lon="14.1221508"><ele>22.4</ele><time>2026-05-02T06:55:06.04Z</time></trkpt><trkpt lat="42.4904301" lon="14.1220311"><ele>22.200000000000003</ele><time>2026-05-02T06:55:08.041Z</time></trkpt><trkpt lat="42.4904477" lon="14.1218667"><ele>22.0</ele><time>2026-05-02T06:55:10.04Z</time></trkpt><trkpt lat="42.4904769" lon="14.1217717"><ele>21.8</ele><time>2026-05-02T06:55:11.04Z</time></trkpt><trkpt lat="42.4905202" lon="14.1216779"><ele>21.6</ele><time>2026-05-02T06:55:12.041Z</time></trkpt><trkpt lat="42.4905679" lon="14.1215757"><ele>21.400000000000002</ele><time>2026-05-02T06:55:13.04Z</time></trkpt><trkpt lat="42.490616" lon="14.1214702"><ele>21.200000000000003</ele><time>2026-05-02T06:55:14.04Z</time></trkpt><trkpt lat="42.490663" lon="14.1213583"><ele>21.0</ele><time>2026-05-02T06:55:15.04Z</time></trkpt><trkpt lat="42.4907157" lon="14.121233"><ele>21.0</ele><time>2026-05-02T06:55:16.041Z</time></trkpt><trkpt lat="42.4907733" lon="14.1210989"><ele>21.0</ele><time>2026-05-02T06:55:17.04Z</time></trkpt><trkpt lat="42.4908332" lon="14.1209639"><ele>21.0</ele><time>2026-05-02T06:55:18.041Z</time></trkpt><trkpt lat="42.4908913" lon="14.1208359"><ele>21.0</ele><time>2026-05-02T06:55:19.04Z</time></trkpt><trkpt lat="42.490944" lon="14.1207106"><ele>21.0</ele><time>2026-05-02T06:55:20.04Z</time></trkpt><trkpt lat="42.4909992" lon="14.1205925"><ele>21.0</ele><time>2026-05-02T06:55:21.04Z</time></trkpt><trkpt lat="42.4910518" lon="14.1204694"><ele>21.0</ele><time>2026-05-02T06:55:22.04Z</time></trkpt><trkpt lat="42.4911095" lon="14.1203489"><ele>21.0</ele><time>2026-05-02T06:55:23.04Z</time></trkpt><trkpt lat="42.491165" lon="14.1202313"><ele>21.0</ele><time>2026-05-02T06:55:24.04Z</time></trkpt><trkpt lat="42.4912206" lon="14.1201043"><ele>21.0</ele><time>2026-05-02T06:55:25.039Z</time></trkpt><trkpt lat="42.491282" lon="14.1199729"><ele>20.75</ele><time>2026-05-02T06:55:26.04Z</time></trkpt><trkpt lat="42.4913434" lon="14.1198346"><ele>20.5</ele><time>2026-05-02T06:55:27.039Z</time></trkpt><trkpt lat="42.4914007" lon="14.1196963"><ele>20.25</ele><time>2026-05-02T06:55:28.039Z</time></trkpt><trkpt lat="42.4914616" lon="14.1195554"><ele>20.0</ele><time>2026-05-02T06:55:29.039Z</time></trkpt><trkpt lat="42.4915142" lon="14.1194427"><ele>20.0</ele><time>2026-05-02T06:55:30.039Z</time></trkpt><trkpt lat="42.4915636" lon="14.1193379"><ele>20.0</ele><time>2026-05-02T06:55:31.039Z</time></trkpt><trkpt lat="42.4916111" lon="14.1192419"><ele>20.0</ele><time>2026-05-02T06:55:32.039Z</time></trkpt><trkpt lat="42.4916529" lon="14.1191505"><ele>20.0</ele><time>2026-05-02T06:55:33.04Z</time></trkpt><trkpt lat="42.4916895" lon="14.119074"><ele>20.0</ele><time>2026-05-02T06:55:34.039Z</time></trkpt><trkpt lat="42.4917448" lon="14.1189497"><ele>20.0</ele><time>2026-05-02T06:55:36.039Z</time></trkpt><trkpt lat="42.4917873" lon="14.1188676"><ele>19.8</ele><time>2026-05-02T06:55:38.039Z</time></trkpt><trkpt lat="42.4918428" lon="14.1188027"><ele>19.6</ele><time>2026-05-02T06:58:20.04Z</time></trkpt><trkpt lat="42.4918897" lon="14.1186693"><ele>19.4</ele><time>2026-05-02T06:58:24.04Z</time></trkpt><trkpt lat="42.4919396" lon="14.1185299"><ele>19.2</ele><time>2026-05-02T06:58:26.039Z</time></trkpt><trkpt lat="42.4919969" lon="14.1183936"><ele>19.0</ele><time>2026-05-02T06:58:28.039Z</time></trkpt><trkpt lat="42.4920497" lon="14.1182699"><ele>18.5</ele><time>2026-05-02T06:58:30.039Z</time></trkpt><trkpt lat="42.4920959" lon="14.1181672"><ele>18.0</ele><time>2026-05-02T06:58:32.039Z</time></trkpt><trkpt lat="42.4921342" lon="14.1180839"><ele>17.5</ele><time>2026-05-02T06:58:34.039Z</time></trkpt><trkpt lat="42.4921784" lon="14.1179869"><ele>17.0</ele><time>2026-05-02T06:58:37.039Z</time></trkpt><trkpt lat="42.4922214" lon="14.1179058"><ele>16.5</ele><time>2026-05-02T06:58:41.039Z</time></trkpt><trkpt lat="42.4922456" lon="14.1178094"><ele>16.0</ele><time>2026-05-02T06:58:46.039Z</time></trkpt><trkpt lat="42.4923312" lon="14.1177074"><ele>16.0</ele><time>2026-05-02T06:59:15.04Z</time></trkpt><trkpt lat="42.4923749" lon="14.1176233"><ele>16.0</ele><time>2026-05-02T06:59:16.039Z</time></trkpt><trkpt lat="42.4924271" lon="14.1175056"><ele>16.0</ele><time>2026-05-02T06:59:17.039Z</time></trkpt><trkpt lat="42.4924521" lon="14.1173593"><ele>16.0</ele><time>2026-05-02T06:59:18.04Z</time></trkpt><trkpt lat="42.4925478" lon="14.1172449"><ele>16.0</ele><time>2026-05-02T06:59:19.039Z</time></trkpt><trkpt lat="42.4926076" lon="14.117109"><ele>16.5</ele><time>2026-05-02T06:59:20.039Z</time></trkpt><trkpt lat="42.4926562" lon="14.116998"><ele>17.0</ele><time>2026-05-02T06:59:21.04Z</time></trkpt><trkpt lat="42.4927347" lon="14.1168081"><ele>17.5</ele><time>2026-05-02T06:59:23.04Z</time></trkpt><trkpt lat="42.4927597" lon="14.1166544"><ele>18.0</ele><time>2026-05-02T06:59:24.039Z</time></trkpt><trkpt lat="42.4928189" lon="14.116529"><ele>18.25</ele><time>2026-05-02T06:59:25.039Z</time></trkpt><trkpt lat="42.4928771" lon="14.1164047"><ele>18.5</ele><time>2026-05-02T06:59:26.039Z</time></trkpt><trkpt lat="42.4929354" lon="14.1162707"><ele>18.75</ele><time>2026-05-02T06:59:27.039Z</time></trkpt><trkpt lat="42.4929958" lon="14.1161376"><ele>19.0</ele><time>2026-05-02T06:59:28.039Z</time></trkpt><trkpt lat="42.4930525" lon="14.1160006"><ele>19.0</ele><time>2026-05-02T06:59:29.039Z</time></trkpt><trkpt lat="42.4931105" lon="14.1158632"><ele>19.0</ele><time>2026-05-02T06:59:30.039Z</time></trkpt><trkpt lat="42.4931729" lon="14.1157286"><ele>19.0</ele><time>2026-05-02T06:59:31.039Z</time></trkpt><trkpt lat="42.4932357" lon="14.1155964"><ele>19.0</ele><time>2026-05-02T06:59:32.039Z</time></trkpt><trkpt lat="42.4932942" lon="14.1154595"><ele>19.0</ele><time>2026-05-02T06:59:33.039Z</time></trkpt><trkpt lat="42.4933532" lon="14.1153207"><ele>19.0</ele><time>2026-05-02T06:59:34.039Z</time></trkpt><trkpt lat="42.4934178" lon="14.1151864"><ele>19.0</ele><time>2026-05-02T06:59:35.039Z</time></trkpt><trkpt lat="42.4934787" lon="14.1150532"><ele>19.0</ele><time>2026-05-02T06:59:36.039Z</time></trkpt><trkpt lat="42.4935299" lon="14.1149242"><ele>19.0</ele><time>2026-05-02T06:59:37.039Z</time></trkpt><trkpt lat="42.4935788" lon="14.114806"><ele>19.0</ele><time>2026-05-02T06:59:38.039Z</time></trkpt><trkpt lat="42.4936259" lon="14.1146981"><ele>19.0</ele><time>2026-05-02T06:59:39.039Z</time></trkpt><trkpt lat="42.4936677" lon="14.1145937"><ele>19.0</ele><time>2026-05-02T06:59:40.039Z</time></trkpt><trkpt lat="42.4937126" lon="14.1144981"><ele>19.0</ele><time>2026-05-02T06:59:41.039Z</time></trkpt><trkpt lat="42.4937517" lon="14.1144067"><ele>19.0</ele><time>2026-05-02T06:59:42.039Z</time></trkpt><trkpt lat="42.4937853" lon="14.114313"><ele>19.0</ele><time>2026-05-02T06:59:43.039Z</time></trkpt><trkpt lat="42.493826" lon="14.1142422"><ele>19.0</ele><time>2026-05-02T06:59:44.039Z</time></trkpt><trkpt lat="42.4938979" lon="14.1141853"><ele>19.0</ele><time>2026-05-02T06:59:46.04Z</time></trkpt><trkpt lat="42.4940174" lon="14.1141952"><ele>19.0</ele><time>2026-05-02T06:59:48.039Z</time></trkpt><trkpt lat="42.4941" lon="14.1142337"><ele>19.0</ele><time>2026-05-02T06:59:49.039Z</time></trkpt><trkpt lat="42.494187" lon="14.114277"><ele>19.0</ele><time>2026-05-02T06:59:50.039Z</time></trkpt><trkpt lat="42.4942799" lon="14.1143224"><ele>19.0</ele><time>2026-05-02T06:59:51.04Z</time></trkpt><trkpt lat="42.4943751" lon="14.1143707"><ele>19.0</ele><time>2026-05-02T06:59:52.039Z</time></trkpt><trkpt lat="42.4944569" lon="14.114407"><ele>19.0</ele><time>2026-05-02T06:59:53.039Z</time></trkpt><trkpt lat="42.4945225" lon="14.1144346"><ele>19.0</ele><time>2026-05-02T06:59:54.039Z</time></trkpt><trkpt lat="42.4946043" lon="14.1144273"><ele>19.0</ele><time>2026-05-02T06:59:56.039Z</time></trkpt><trkpt lat="42.4946473" lon="14.1143041"><ele>19.0</ele><time>2026-05-02T06:59:58.04Z</time></trkpt><trkpt lat="42.4946619" lon="14.1142151"><ele>19.0</ele><time>2026-05-02T06:59:59.039Z</time></trkpt><trkpt lat="42.4946809" lon="14.1141122"><ele>19.0</ele><time>2026-05-02T07:00:00.04Z</time></trkpt><trkpt lat="42.4946959" lon="14.1140133"><ele>19.0</ele><time>2026-05-02T07:00:01.039Z</time></trkpt><trkpt lat="42.4946943" lon="14.1139141"><ele>19.0</ele><time>2026-05-02T07:00:02.039Z</time></trkpt><trkpt lat="42.4947139" lon="14.1138279"><ele>19.0</ele><time>2026-05-02T07:00:04.04Z</time></trkpt><trkpt lat="42.4946185" lon="14.1137752"><ele>19.0</ele><time>2026-05-02T07:00:06.039Z</time></trkpt><trkpt lat="42.4945316" lon="14.1137542"><ele>19.2</ele><time>2026-05-02T07:00:07.039Z</time></trkpt><trkpt lat="42.4944433" lon="14.1137288"><ele>19.4</ele><time>2026-05-02T07:00:08.04Z</time></trkpt><trkpt lat="42.4943515" lon="14.1137009"><ele>19.6</ele><time>2026-05-02T07:00:09.04Z</time></trkpt><trkpt lat="42.4942536" lon="14.1136704"><ele>19.8</ele><time>2026-05-02T07:00:10.039Z</time></trkpt><trkpt lat="42.4941544" lon="14.1136346"><ele>20.0</ele><time>2026-05-02T07:00:11.04Z</time></trkpt><trkpt lat="42.4940511" lon="14.1135981"><ele>20.0</ele><time>2026-05-02T07:00:12.04Z</time></trkpt><trkpt lat="42.4939488" lon="14.1135621"><ele>20.0</ele><time>2026-05-02T07:00:13.039Z</time></trkpt><trkpt lat="42.4938363" lon="14.1134981"><ele>20.0</ele><time>2026-05-02T07:00:14.04Z</time></trkpt><trkpt lat="42.4937255" lon="14.1134548"><ele>20.0</ele><time>2026-05-02T07:00:15.04Z</time></trkpt><trkpt lat="42.4936172" lon="14.113411"><ele>19.25</ele><time>2026-05-02T07:00:16.039Z</time></trkpt><trkpt lat="42.4935075" lon="14.1133646"><ele>18.5</ele><time>2026-05-02T07:00:17.039Z</time></trkpt><trkpt lat="42.4933967" lon="14.1133162"><ele>17.75</ele><time>2026-05-02T07:00:18.039Z</time></trkpt><trkpt lat="42.4932821" lon="14.1132641"><ele>17.0</ele><time>2026-05-02T07:00:19.039Z</time></trkpt><trkpt lat="42.4931606" lon="14.1132141"><ele>16.75</ele><time>2026-05-02T07:00:20.04Z</time></trkpt><trkpt lat="42.4930342" lon="14.1131612"><ele>16.5</ele><time>2026-05-02T07:00:21.04Z</time></trkpt><trkpt lat="42.492908" lon="14.1131091"><ele>16.25</ele><time>2026-05-02T07:00:22.04Z</time></trkpt><trkpt lat="42.4927848" lon="14.1130545"><ele>16.0</ele><time>2026-05-02T07:00:23.039Z</time></trkpt><trkpt lat="42.4926583" lon="14.1130015"><ele>16.0</ele><time>2026-05-02T07:00:24.039Z</time></trkpt><trkpt lat="42.4925363" lon="14.1129544"><ele>16.0</ele><time>2026-05-02T07:00:25.039Z</time></trkpt><trkpt lat="42.4924188" lon="14.1129081"><ele>16.0</ele><time>2026-05-02T07:00:26.039Z</time></trkpt><trkpt lat="42.4922984" lon="14.1128503"><ele>16.0</ele><time>2026-05-02T07:00:27.039Z</time></trkpt><trkpt lat="42.492178" lon="14.1127969"><ele>15.75</ele><time>2026-05-02T07:00:28.04Z</time></trkpt><trkpt lat="42.4920551" lon="14.1127481"><ele>15.5</ele><time>2026-05-02T07:00:29.039Z</time></trkpt><trkpt lat="42.4919323" lon="14.1127118"><ele>15.25</ele><time>2026-05-02T07:00:30.04Z</time></trkpt><trkpt lat="42.4918024" lon="14.1126537"><ele>15.0</ele><time>2026-05-02T07:00:31.039Z</time></trkpt><trkpt lat="42.4916722" lon="14.1125977"><ele>15.0</ele><time>2026-05-02T07:00:32.04Z</time></trkpt><trkpt lat="42.4915427" lon="14.1125431"><ele>15.0</ele><time>2026-05-02T07:00:33.039Z</time></trkpt><trkpt lat="42.4914133" lon="14.1124844"><ele>15.0</ele><time>2026-05-02T07:00:34.039Z</time></trkpt><trkpt lat="42.4912841" lon="14.1124267"><ele>15.0</ele><time>2026-05-02T07:00:35.04Z</time></trkpt><trkpt lat="42.4911626" lon="14.1123792"><ele>15.25</ele><time>2026-05-02T07:00:36.039Z</time></trkpt><trkpt lat="42.4910443" lon="14.112322"><ele>15.5</ele><time>2026-05-02T07:00:37.04Z</time></trkpt><trkpt lat="42.4909192" lon="14.1122698"><ele>15.75</ele><time>2026-05-02T07:00:38.039Z</time></trkpt><trkpt lat="42.4907972" lon="14.1122153"><ele>16.0</ele><time>2026-05-02T07:00:39.039Z</time></trkpt><trkpt lat="42.4906774" lon="14.1121684"><ele>16.0</ele><time>2026-05-02T07:00:40.04Z</time></trkpt><trkpt lat="42.4905601" lon="14.1121167"><ele>16.0</ele><time>2026-05-02T07:00:41.039Z</time></trkpt><trkpt lat="42.4904326" lon="14.1120671"><ele>16.0</ele><time>2026-05-02T07:00:42.039Z</time></trkpt><trkpt lat="42.4903002" lon="14.1120207"><ele>16.0</ele><time>2026-05-02T07:00:43.039Z</time></trkpt><trkpt lat="42.4901686" lon="14.1119723"><ele>16.0</ele><time>2026-05-02T07:00:44.039Z</time></trkpt><trkpt lat="42.4900388" lon="14.1119286"><ele>16.0</ele><time>2026-05-02T07:00:45.039Z</time></trkpt><trkpt lat="42.4899194" lon="14.1118739"><ele>16.0</ele><time>2026-05-02T07:00:46.04Z</time></trkpt><trkpt lat="42.4897963" lon="14.1118214"><ele>16.0</ele><time>2026-05-02T07:00:47.039Z</time></trkpt><trkpt lat="42.4896748" lon="14.1117682"><ele>16.8</ele><time>2026-05-02T07:00:48.039Z</time></trkpt><trkpt lat="42.4895639" lon="14.1117205"><ele>17.6</ele><time>2026-05-02T07:00:49.039Z</time></trkpt><trkpt lat="42.489449" lon="14.1116786"><ele>18.4</ele><time>2026-05-02T07:00:50.039Z</time></trkpt><trkpt lat="42.4893421" lon="14.1116417"><ele>19.2</ele><time>2026-05-02T07:00:51.039Z</time></trkpt><trkpt lat="42.489244" lon="14.1116138"><ele>20.0</ele><time>2026-05-02T07:00:52.039Z</time></trkpt><trkpt lat="42.4891504" lon="14.1115825"><ele>20.2</ele><time>2026-05-02T07:00:53.039Z</time></trkpt><trkpt lat="42.4890588" lon="14.1115482"><ele>20.4</ele><time>2026-05-02T07:00:54.039Z</time></trkpt><trkpt lat="42.4889601" lon="14.1115102"><ele>20.6</ele><time>2026-05-02T07:00:55.039Z</time></trkpt><trkpt lat="42.4888657" lon="14.1114747"><ele>20.8</ele><time>2026-05-02T07:00:56.04Z</time></trkpt><trkpt lat="42.4887823" lon="14.1114378"><ele>21.0</ele><time>2026-05-02T07:00:57.039Z</time></trkpt><trkpt lat="42.4887087" lon="14.1114069"><ele>21.0</ele><time>2026-05-02T07:00:58.039Z</time></trkpt><trkpt lat="42.4886081" lon="14.1114086"><ele>21.0</ele><time>2026-05-02T07:01:00.04Z</time></trkpt><trkpt lat="42.4885672" lon="14.1115303"><ele>21.0</ele><time>2026-05-02T07:01:02.039Z</time></trkpt><trkpt lat="42.4885494" lon="14.1116132"><ele>21.0</ele><time>2026-05-02T07:01:03.039Z</time></trkpt><trkpt lat="42.4885282" lon="14.1116977"><ele>21.0</ele><time>2026-05-02T07:01:04.039Z</time></trkpt><trkpt lat="42.4885174" lon="14.1117857"><ele>21.0</ele><time>2026-05-02T07:01:05.039Z</time></trkpt><trkpt lat="42.4884642" lon="14.1119106"><ele>21.0</ele><time>2026-05-02T07:01:07.039Z</time></trkpt><trkpt lat="42.4883737" lon="14.1119598"><ele>21.0</ele><time>2026-05-02T07:01:09.039Z</time></trkpt><trkpt lat="42.4882642" lon="14.1119303"><ele>21.0</ele><time>2026-05-02T07:01:11.039Z</time></trkpt><trkpt lat="42.4881939" lon="14.1119136"><ele>21.0</ele><time>2026-05-02T07:01:12.039Z</time></trkpt><trkpt lat="42.4881074" lon="14.1118916"><ele>21.0</ele><time>2026-05-02T07:01:13.039Z</time></trkpt><trkpt lat="42.4880228" lon="14.1118692"><ele>21.0</ele><time>2026-05-02T07:01:14.039Z</time></trkpt><trkpt lat="42.4879486" lon="14.1118478"><ele>21.0</ele><time>2026-05-02T07:01:15.04Z</time></trkpt><trkpt lat="42.4878657" lon="14.1118169"><ele>21.0</ele><time>2026-05-02T07:01:16.04Z</time></trkpt><trkpt lat="42.4877684" lon="14.1117632"><ele>21.0</ele><time>2026-05-02T07:01:17.039Z</time></trkpt><trkpt lat="42.4876638" lon="14.1116989"><ele>21.0</ele><time>2026-05-02T07:01:18.039Z</time></trkpt><trkpt lat="42.4875579" lon="14.1116272"><ele>21.25</ele><time>2026-05-02T07:01:19.039Z</time></trkpt><trkpt lat="42.4874421" lon="14.1115546"><ele>21.5</ele><time>2026-05-02T07:01:20.039Z</time></trkpt><trkpt lat="42.487314" lon="14.1114872"><ele>21.75</ele><time>2026-05-02T07:01:21.039Z</time></trkpt><trkpt lat="42.4871749" lon="14.1114302"><ele>22.0</ele><time>2026-05-02T07:01:22.039Z</time></trkpt><trkpt lat="42.4870401" lon="14.1113764"><ele>22.0</ele><time>2026-05-02T07:01:23.039Z</time></trkpt><trkpt lat="42.4869194" lon="14.1113268"><ele>22.0</ele><time>2026-05-02T07:01:24.039Z</time></trkpt><trkpt lat="42.4868132" lon="14.111279"><ele>22.0</ele><time>2026-05-02T07:01:25.039Z</time></trkpt><trkpt lat="42.486723" lon="14.1112378"><ele>22.0</ele><time>2026-05-02T07:01:26.039Z</time></trkpt><trkpt lat="42.4866608" lon="14.1112126"><ele>22.0</ele><time>2026-05-02T07:01:27.04Z</time></trkpt><trkpt lat="42.4865865" lon="14.111213"><ele>22.0</ele><time>2026-05-02T07:01:29.04Z</time></trkpt><trkpt lat="42.4864961" lon="14.1112838"><ele>22.0</ele><time>2026-05-02T07:01:31.04Z</time></trkpt><trkpt lat="42.4864389" lon="14.111353"><ele>22.0</ele><time>2026-05-02T07:01:32.039Z</time></trkpt><trkpt lat="42.4863773" lon="14.1114482"><ele>22.0</ele><time>2026-05-02T07:01:33.039Z</time></trkpt><trkpt lat="42.4863116" lon="14.1115533"><ele>22.0</ele><time>2026-05-02T07:01:34.04Z</time></trkpt><trkpt lat="42.4862368" lon="14.1116849"><ele>22.0</ele><time>2026-05-02T07:01:35.039Z</time></trkpt><trkpt lat="42.4861629" lon="14.1118202"><ele>22.0</ele><time>2026-05-02T07:01:36.039Z</time></trkpt><trkpt lat="42.4860801" lon="14.1119616"><ele>22.0</ele><time>2026-05-02T07:01:37.039Z</time></trkpt><trkpt lat="42.4860007" lon="14.1121033"><ele>22.0</ele><time>2026-05-02T07:01:38.04Z</time></trkpt><trkpt lat="42.4859225" lon="14.1122514"><ele>22.0</ele><time>2026-05-02T07:01:39.039Z</time></trkpt><trkpt lat="42.4858422" lon="14.1124033"><ele>22.0</ele><time>2026-05-02T07:01:40.039Z</time></trkpt><trkpt lat="42.485766" lon="14.1125587"><ele>22.0</ele><time>2026-05-02T07:01:41.039Z</time></trkpt><trkpt lat="42.4856891" lon="14.1127027"><ele>22.0</ele><time>2026-05-02T07:01:42.039Z</time></trkpt><trkpt lat="42.4856208" lon="14.1128353"><ele>22.5</ele><time>2026-05-02T07:01:43.039Z</time></trkpt><trkpt lat="42.4855451" lon="14.1129687"><ele>23.0</ele><time>2026-05-02T07:01:44.039Z</time></trkpt><trkpt lat="42.4854706" lon="14.1131042"><ele>23.5</ele><time>2026-05-02T07:01:45.04Z</time></trkpt><trkpt lat="42.4853863" lon="14.1132477"><ele>24.0</ele><time>2026-05-02T07:01:46.04Z</time></trkpt><trkpt lat="42.4852911" lon="14.1133974"><ele>24.0</ele><time>2026-05-02T07:01:47.039Z</time></trkpt><trkpt lat="42.4851882" lon="14.1135451"><ele>24.0</ele><time>2026-05-02T07:01:48.039Z</time></trkpt><trkpt lat="42.4850854" lon="14.1136928"><ele>24.0</ele><time>2026-05-02T07:01:49.039Z</time></trkpt><trkpt lat="42.4849864" lon="14.1138427"><ele>24.0</ele><time>2026-05-02T07:01:50.039Z</time></trkpt><trkpt lat="42.4848826" lon="14.113994"><ele>23.666666666666668</ele><time>2026-05-02T07:01:51.039Z</time></trkpt><trkpt lat="42.4847765" lon="14.1141459"><ele>23.333333333333336</ele><time>2026-05-02T07:01:52.039Z</time></trkpt><trkpt lat="42.4846633" lon="14.1143013"><ele>23.0</ele><time>2026-05-02T07:01:53.04Z</time></trkpt><trkpt lat="42.4845503" lon="14.1144632"><ele>23.666666666666668</ele><time>2026-05-02T07:01:54.039Z</time></trkpt><trkpt lat="42.484434" lon="14.1146263"><ele>24.333333333333336</ele><time>2026-05-02T07:01:55.039Z</time></trkpt><trkpt lat="42.4843148" lon="14.1147923"><ele>25.0</ele><time>2026-05-02T07:01:56.04Z</time></trkpt><trkpt lat="42.4841991" lon="14.1149594"><ele>25.25</ele><time>2026-05-02T07:01:57.039Z</time></trkpt><trkpt lat="42.4840858" lon="14.115118"><ele>25.5</ele><time>2026-05-02T07:01:58.039Z</time></trkpt><trkpt lat="42.483987" lon="14.1152626"><ele>25.75</ele><time>2026-05-02T07:01:59.04Z</time></trkpt><trkpt lat="42.4838912" lon="14.1153965"><ele>26.0</ele><time>2026-05-02T07:02:00.04Z</time></trkpt><trkpt lat="42.4838037" lon="14.1155293"><ele>26.5</ele><time>2026-05-02T07:02:01.039Z</time></trkpt><trkpt lat="42.4837167" lon="14.1156564"><ele>27.0</ele><time>2026-05-02T07:02:02.04Z</time></trkpt><trkpt lat="42.483633" lon="14.1157939"><ele>27.5</ele><time>2026-05-02T07:02:03.039Z</time></trkpt><trkpt lat="42.4835476" lon="14.1159295"><ele>28.0</ele><time>2026-05-02T07:02:04.04Z</time></trkpt><trkpt lat="42.4834591" lon="14.1160524"><ele>28.0</ele><time>2026-05-02T07:02:05.04Z</time></trkpt><trkpt lat="42.4833722" lon="14.116171"><ele>27.999999999999996</ele><time>2026-05-02T07:02:06.04Z</time></trkpt><trkpt lat="42.4833042" lon="14.1162791"><ele>27.999999999999996</ele><time>2026-05-02T07:02:07.04Z</time></trkpt><trkpt lat="42.4832452" lon="14.1163668"><ele>28.0</ele><time>2026-05-02T07:02:08.04Z</time></trkpt><trkpt lat="42.4831854" lon="14.1164309"><ele>28.0</ele><time>2026-05-02T07:02:09.04Z</time></trkpt><trkpt lat="42.483083" lon="14.1164932"><ele>28.000000000000004</ele><time>2026-05-02T07:02:11.04Z</time></trkpt><trkpt lat="42.4829983" lon="14.1164833"><ele>28.0</ele><time>2026-05-02T07:02:13.04Z</time></trkpt><trkpt lat="42.4828978" lon="14.1164001"><ele>28.0</ele><time>2026-05-02T07:02:15.041Z</time></trkpt><trkpt lat="42.4828336" lon="14.116349"><ele>28.0</ele><time>2026-05-02T07:02:16.04Z</time></trkpt><trkpt lat="42.4827663" lon="14.1162969"><ele>28.000000000000004</ele><time>2026-05-02T07:02:17.04Z</time></trkpt><trkpt lat="42.4826954" lon="14.1162454"><ele>28.0</ele><time>2026-05-02T07:02:18.04Z</time></trkpt><trkpt lat="42.4826266" lon="14.1161848"><ele>28.2</ele><time>2026-05-02T07:02:19.041Z</time></trkpt><trkpt lat="42.4825519" lon="14.1161228"><ele>28.4</ele><time>2026-05-02T07:02:20.041Z</time></trkpt><trkpt lat="42.4824636" lon="14.1160601"><ele>28.599999999999998</ele><time>2026-05-02T07:02:21.041Z</time></trkpt><trkpt lat="42.482372" lon="14.115989"><ele>28.799999999999997</ele><time>2026-05-02T07:02:22.04Z</time></trkpt><trkpt lat="42.4822753" lon="14.115916"><ele>29.0</ele><time>2026-05-02T07:02:23.04Z</time></trkpt><trkpt lat="42.4821811" lon="14.1158352"><ele>29.6</ele><time>2026-05-02T07:02:24.041Z</time></trkpt><trkpt lat="42.4820902" lon="14.1157543"><ele>30.2</ele><time>2026-05-02T07:02:25.04Z</time></trkpt><trkpt lat="42.4820006" lon="14.1156792"><ele>30.800000000000004</ele><time>2026-05-02T07:02:26.04Z</time></trkpt><trkpt lat="42.4819017" lon="14.1156114"><ele>31.400000000000002</ele><time>2026-05-02T07:02:27.041Z</time></trkpt><trkpt lat="42.4817999" lon="14.1155352"><ele>32.0</ele><time>2026-05-02T07:02:28.04Z</time></trkpt><trkpt lat="42.4816849" lon="14.1154408"><ele>32.25</ele><time>2026-05-02T07:02:29.04Z</time></trkpt><trkpt lat="42.4815661" lon="14.1153419"><ele>32.5</ele><time>2026-05-02T07:02:30.04Z</time></trkpt><trkpt lat="42.4814383" lon="14.1152393"><ele>32.75</ele><time>2026-05-02T07:02:31.041Z</time></trkpt><trkpt lat="42.4812998" lon="14.1151288"><ele>33.0</ele><time>2026-05-02T07:02:32.041Z</time></trkpt><trkpt lat="42.4811615" lon="14.1150179"><ele>32.0</ele><time>2026-05-02T07:02:33.04Z</time></trkpt><trkpt lat="42.4810298" lon="14.1149034"><ele>31.0</ele><time>2026-05-02T07:02:34.04Z</time></trkpt><trkpt lat="42.4808939" lon="14.1147896"><ele>30.0</ele><time>2026-05-02T07:02:35.04Z</time></trkpt><trkpt lat="42.4807599" lon="14.1146829"><ele>30.0</ele><time>2026-05-02T07:02:36.041Z</time></trkpt><trkpt lat="42.4806295" lon="14.1145818"><ele>30.0</ele><time>2026-05-02T07:02:37.04Z</time></trkpt><trkpt lat="42.480497" lon="14.1144786"><ele>30.0</ele><time>2026-05-02T07:02:38.04Z</time></trkpt><trkpt lat="42.480364" lon="14.1143726"><ele>30.0</ele><time>2026-05-02T07:02:39.04Z</time></trkpt><trkpt lat="42.4802283" lon="14.1142598"><ele>30.0</ele><time>2026-05-02T07:02:40.04Z</time></trkpt><trkpt lat="42.4800928" lon="14.1141508"><ele>30.0</ele><time>2026-05-02T07:02:41.041Z</time></trkpt><trkpt lat="42.4799579" lon="14.1140434"><ele>29.666666666666664</ele><time>2026-05-02T07:02:42.04Z</time></trkpt><trkpt lat="42.479824" lon="14.1139341"><ele>29.333333333333332</ele><time>2026-05-02T07:02:43.04Z</time></trkpt><trkpt lat="42.4796953" lon="14.1138193"><ele>29.0</ele><time>2026-05-02T07:02:44.041Z</time></trkpt><trkpt lat="42.4795639" lon="14.1137087"><ele>30.0</ele><time>2026-05-02T07:02:45.04Z</time></trkpt><trkpt lat="42.4794323" lon="14.1135965"><ele>31.0</ele><time>2026-05-02T07:02:46.04Z</time></trkpt><trkpt lat="42.4793019" lon="14.1134811"><ele>32.0</ele><time>2026-05-02T07:02:47.04Z</time></trkpt><trkpt lat="42.4791686" lon="14.1133667"><ele>32.0</ele><time>2026-05-02T07:02:48.04Z</time></trkpt><trkpt lat="42.4790345" lon="14.1132597"><ele>32.0</ele><time>2026-05-02T07:02:49.04Z</time></trkpt><trkpt lat="42.4789031" lon="14.1131577"><ele>32.0</ele><time>2026-05-02T07:02:50.04Z</time></trkpt><trkpt lat="42.478785" lon="14.1130646"><ele>32.0</ele><time>2026-05-02T07:02:51.04Z</time></trkpt><trkpt lat="42.4786721" lon="14.112981"><ele>32.25</ele><time>2026-05-02T07:02:52.04Z</time></trkpt><trkpt lat="42.4785594" lon="14.1128879"><ele>32.5</ele><time>2026-05-02T07:02:53.041Z</time></trkpt><trkpt lat="42.4784418" lon="14.1127909"><ele>32.75</ele><time>2026-05-02T07:02:54.04Z</time></trkpt><trkpt lat="42.4783242" lon="14.1126898"><ele>33.0</ele><time>2026-05-02T07:02:55.04Z</time></trkpt><trkpt lat="42.4781972" lon="14.1125923"><ele>33.0</ele><time>2026-05-02T07:02:56.04Z</time></trkpt><trkpt lat="42.4780708" lon="14.1124987"><ele>33.0</ele><time>2026-05-02T07:02:57.04Z</time></trkpt><trkpt lat="42.4779474" lon="14.1124084"><ele>33.0</ele><time>2026-05-02T07:02:58.04Z</time></trkpt><trkpt lat="42.477824" lon="14.1123152"><ele>33.0</ele><time>2026-05-02T07:02:59.04Z</time></trkpt><trkpt lat="42.4777063" lon="14.1122159"><ele>33.5</ele><time>2026-05-02T07:03:00.04Z</time></trkpt><trkpt lat="42.4776011" lon="14.1121115"><ele>34.0</ele><time>2026-05-02T07:03:01.04Z</time></trkpt><trkpt lat="42.4774815" lon="14.1120207"><ele>34.5</ele><time>2026-05-02T07:03:02.04Z</time></trkpt><trkpt lat="42.4773509" lon="14.1119261"><ele>35.0</ele><time>2026-05-02T07:03:03.041Z</time></trkpt><trkpt lat="42.4772231" lon="14.1118258"><ele>35.0</ele><time>2026-05-02T07:03:04.04Z</time></trkpt><trkpt lat="42.4770989" lon="14.1117224"><ele>35.0</ele><time>2026-05-02T07:03:05.041Z</time></trkpt><trkpt lat="42.4769891" lon="14.1116261"><ele>35.0</ele><time>2026-05-02T07:03:06.04Z</time></trkpt><trkpt lat="42.4768849" lon="14.1115475"><ele>35.0</ele><time>2026-05-02T07:03:07.04Z</time></trkpt><trkpt lat="42.4767846" lon="14.1114657"><ele>35.0</ele><time>2026-05-02T07:03:08.04Z</time></trkpt><trkpt lat="42.4766903" lon="14.1113872"><ele>35.0</ele><time>2026-05-02T07:03:09.04Z</time></trkpt><trkpt lat="42.4765986" lon="14.1113128"><ele>35.0</ele><time>2026-05-02T07:03:10.041Z</time></trkpt><trkpt lat="42.4765131" lon="14.1112324"><ele>35.0</ele><time>2026-05-02T07:03:11.04Z</time></trkpt><trkpt lat="42.4764365" lon="14.1111516"><ele>35.0</ele><time>2026-05-02T07:03:12.041Z</time></trkpt><trkpt lat="42.4763739" lon="14.1110869"><ele>35.0</ele><time>2026-05-02T07:03:13.04Z</time></trkpt><trkpt lat="42.4763233" lon="14.1109932"><ele>35.0</ele><time>2026-05-02T07:03:15.04Z</time></trkpt><trkpt lat="42.4763138" lon="14.1108595"><ele>35.0</ele><time>2026-05-02T07:03:18.04Z</time></trkpt><trkpt lat="42.4762815" lon="14.1107301"><ele>35.0</ele><time>2026-05-02T07:03:20.04Z</time></trkpt><trkpt lat="42.4762056" lon="14.1106451"><ele>35.0</ele><time>2026-05-02T07:03:22.04Z</time></trkpt><trkpt lat="42.4761405" lon="14.1106473"><ele>35.0</ele><time>2026-05-02T07:03:23.04Z</time></trkpt><trkpt lat="42.4760673" lon="14.1106653"><ele>35.33333333333333</ele><time>2026-05-02T07:03:24.04Z</time></trkpt><trkpt lat="42.4759816" lon="14.110696"><ele>35.666666666666664</ele><time>2026-05-02T07:03:25.04Z</time></trkpt><trkpt lat="42.4758929" lon="14.1107086"><ele>36.0</ele><time>2026-05-02T07:03:26.04Z</time></trkpt><trkpt lat="42.4758086" lon="14.1106824"><ele>36.333333333333336</ele><time>2026-05-02T07:03:27.04Z</time></trkpt><trkpt lat="42.475748" lon="14.1106331"><ele>36.66666666666667</ele><time>2026-05-02T07:03:28.04Z</time></trkpt><trkpt lat="42.475692" lon="14.1105847"><ele>37.0</ele><time>2026-05-02T07:03:29.041Z</time></trkpt><trkpt lat="42.4755933" lon="14.1105194"><ele>37.0</ele><time>2026-05-02T07:03:31.041Z</time></trkpt><trkpt lat="42.4755173" lon="14.1104904"><ele>37.0</ele><time>2026-05-02T07:03:33.041Z</time></trkpt><trkpt lat="42.47544" lon="14.1104629"><ele>37.0</ele><time>2026-05-02T07:03:35.04Z</time></trkpt><trkpt lat="42.475373" lon="14.1104601"><ele>37.0</ele><time>2026-05-02T07:03:36.04Z</time></trkpt><trkpt lat="42.4752968" lon="14.1104627"><ele>37.0</ele><time>2026-05-02T07:03:37.04Z</time></trkpt><trkpt lat="42.4752043" lon="14.1104753"><ele>37.0</ele><time>2026-05-02T07:03:38.04Z</time></trkpt><trkpt lat="42.4751029" lon="14.1104997"><ele>38.75</ele><time>2026-05-02T07:03:39.041Z</time></trkpt><trkpt lat="42.4749908" lon="14.1105176"><ele>40.5</ele><time>2026-05-02T07:03:40.04Z</time></trkpt><trkpt lat="42.4748642" lon="14.1105279"><ele>42.25</ele><time>2026-05-02T07:03:41.04Z</time></trkpt><trkpt lat="42.4747365" lon="14.1105213"><ele>44.0</ele><time>2026-05-02T07:03:42.04Z</time></trkpt><trkpt lat="42.4746" lon="14.1104951"><ele>46.666666666666664</ele><time>2026-05-02T07:03:43.04Z</time></trkpt><trkpt lat="42.4744471" lon="14.1104402"><ele>49.33333333333333</ele><time>2026-05-02T07:03:44.04Z</time></trkpt><trkpt lat="42.4742813" lon="14.1103654"><ele>52.0</ele><time>2026-05-02T07:03:45.04Z</time></trkpt><trkpt lat="42.4741056" lon="14.1102665"><ele>52.0</ele><time>2026-05-02T07:03:46.041Z</time></trkpt><trkpt lat="42.4739203" lon="14.1101898"><ele>52.0</ele><time>2026-05-02T07:03:47.04Z</time></trkpt><trkpt lat="42.4737413" lon="14.1101224"><ele>52.0</ele><time>2026-05-02T07:03:48.04Z</time></trkpt><trkpt lat="42.4735784" lon="14.1100489"><ele>53.0</ele><time>2026-05-02T07:03:49.041Z</time></trkpt><trkpt lat="42.4734316" lon="14.1099791"><ele>54.0</ele><time>2026-05-02T07:03:50.04Z</time></trkpt><trkpt lat="42.4732959" lon="14.1099096"><ele>55.0</ele><time>2026-05-02T07:03:51.04Z</time></trkpt><trkpt lat="42.4731607" lon="14.1098373"><ele>56.0</ele><time>2026-05-02T07:03:52.041Z</time></trkpt><trkpt lat="42.4730229" lon="14.1097629"><ele>59.66666666666667</ele><time>2026-05-02T07:03:53.04Z</time></trkpt><trkpt lat="42.4728778" lon="14.1096899"><ele>63.33333333333333</ele><time>2026-05-02T07:03:54.04Z</time></trkpt><trkpt lat="42.4727215" lon="14.1096135"><ele>67.0</ele><time>2026-05-02T07:03:55.041Z</time></trkpt><trkpt lat="42.4725606" lon="14.1095385"><ele>67.0</ele><time>2026-05-02T07:03:56.04Z</time></trkpt><trkpt lat="42.4723921" lon="14.1094863"><ele>67.0</ele><time>2026-05-02T07:03:57.04Z</time></trkpt><trkpt lat="42.4722171" lon="14.1094501"><ele>67.0</ele><time>2026-05-02T07:03:58.04Z</time></trkpt><trkpt lat="42.4720495" lon="14.1093971"><ele>65.66666666666666</ele><time>2026-05-02T07:03:59.04Z</time></trkpt><trkpt lat="42.4718875" lon="14.1093156"><ele>64.33333333333333</ele><time>2026-05-02T07:04:00.04Z</time></trkpt><trkpt lat="42.4717321" lon="14.1092009"><ele>63.0</ele><time>2026-05-02T07:04:01.04Z</time></trkpt><trkpt lat="42.4715851" lon="14.1090678"><ele>64.0</ele><time>2026-05-02T07:04:02.041Z</time></trkpt><trkpt lat="42.4714532" lon="14.1089175"><ele>65.0</ele><time>2026-05-02T07:04:03.04Z</time></trkpt><trkpt lat="42.4713346" lon="14.1087625"><ele>66.0</ele><time>2026-05-02T07:04:04.04Z</time></trkpt><trkpt lat="42.4712242" lon="14.1086253"><ele>66.0</ele><time>2026-05-02T07:04:05.04Z</time></trkpt><trkpt lat="42.4711276" lon="14.1084977"><ele>66.0</ele><time>2026-05-02T07:04:06.04Z</time></trkpt><trkpt lat="42.4710413" lon="14.1083788"><ele>66.0</ele><time>2026-05-02T07:04:07.04Z</time></trkpt><trkpt lat="42.4709602" lon="14.1082647"><ele>66.0</ele><time>2026-05-02T07:04:08.04Z</time></trkpt><trkpt lat="42.4708838" lon="14.1081312"><ele>69.0</ele><time>2026-05-02T07:04:09.041Z</time></trkpt><trkpt lat="42.4708014" lon="14.1079788"><ele>72.0</ele><time>2026-05-02T07:04:10.04Z</time></trkpt><trkpt lat="42.4707244" lon="14.1078173"><ele>75.0</ele><time>2026-05-02T07:04:11.04Z</time></trkpt><trkpt lat="42.4706495" lon="14.107652"><ele>78.0</ele><time>2026-05-02T07:04:12.04Z</time></trkpt><trkpt lat="42.4705827" lon="14.1074806"><ele>76.0</ele><time>2026-05-02T07:04:13.041Z</time></trkpt><trkpt lat="42.470529" lon="14.1072927"><ele>74.0</ele><time>2026-05-02T07:04:14.04Z</time></trkpt><trkpt lat="42.4704795" lon="14.1070907"><ele>72.0</ele><time>2026-05-02T07:04:15.04Z</time></trkpt><trkpt lat="42.4704261" lon="14.1068906"><ele>72.0</ele><time>2026-05-02T07:04:16.04Z</time></trkpt><trkpt lat="42.4703612" lon="14.1067028"><ele>72.0</ele><time>2026-05-02T07:04:17.041Z</time></trkpt><trkpt lat="42.4702864" lon="14.1065357"><ele>72.0</ele><time>2026-05-02T07:04:18.04Z</time></trkpt><trkpt lat="42.470204" lon="14.106383"><ele>72.0</ele><time>2026-05-02T07:04:19.041Z</time></trkpt><trkpt lat="42.4701111" lon="14.1062565"><ele>75.0</ele><time>2026-05-02T07:04:20.041Z</time></trkpt><trkpt lat="42.4700045" lon="14.1061471"><ele>78.0</ele><time>2026-05-02T07:04:21.04Z</time></trkpt><trkpt lat="42.4698929" lon="14.1060633"><ele>81.0</ele><time>2026-05-02T07:04:22.04Z</time></trkpt><trkpt lat="42.4697782" lon="14.1059812"><ele>84.0</ele><time>2026-05-02T07:04:23.04Z</time></trkpt><trkpt lat="42.469653" lon="14.1058954"><ele>83.0</ele><time>2026-05-02T07:04:24.04Z</time></trkpt><trkpt lat="42.4695235" lon="14.1057997"><ele>82.0</ele><time>2026-05-02T07:04:25.041Z</time></trkpt><trkpt lat="42.4693878" lon="14.1057053"><ele>81.0</ele><time>2026-05-02T07:04:26.04Z</time></trkpt><trkpt lat="42.4692462" lon="14.105604"><ele>84.25</ele><time>2026-05-02T07:04:27.04Z</time></trkpt><trkpt lat="42.4691109" lon="14.1055069"><ele>87.5</ele><time>2026-05-02T07:04:28.04Z</time></trkpt><trkpt lat="42.4689781" lon="14.1054169"><ele>90.75</ele><time>2026-05-02T07:04:29.04Z</time></trkpt><trkpt lat="42.4688461" lon="14.1053265"><ele>94.0</ele><time>2026-05-02T07:04:30.041Z</time></trkpt><trkpt lat="42.4687095" lon="14.1052428"><ele>94.66666666666666</ele><time>2026-05-02T07:04:31.041Z</time></trkpt><trkpt lat="42.4685571" lon="14.1051808"><ele>95.33333333333333</ele><time>2026-05-02T07:04:32.04Z</time></trkpt><trkpt lat="42.4683985" lon="14.1051397"><ele>96.0</ele><time>2026-05-02T07:04:33.04Z</time></trkpt><trkpt lat="42.4682397" lon="14.1051115"><ele>96.0</ele><time>2026-05-02T07:04:34.04Z</time></trkpt><trkpt lat="42.4680819" lon="14.1050788"><ele>96.0</ele><time>2026-05-02T07:04:35.04Z</time></trkpt><trkpt lat="42.4679406" lon="14.1050349"><ele>96.0</ele><time>2026-05-02T07:04:36.04Z</time></trkpt><trkpt lat="42.4678155" lon="14.1049752"><ele>96.0</ele><time>2026-05-02T07:04:37.04Z</time></trkpt><trkpt lat="42.4676985" lon="14.1048935"><ele>98.0</ele><time>2026-05-02T07:04:38.04Z</time></trkpt><trkpt lat="42.4675887" lon="14.1047868"><ele>100.0</ele><time>2026-05-02T07:04:39.041Z</time></trkpt><trkpt lat="42.4674852" lon="14.1046642"><ele>102.0</ele><time>2026-05-02T07:04:40.041Z</time></trkpt><trkpt lat="42.4673774" lon="14.1045408"><ele>104.0</ele><time>2026-05-02T07:04:41.041Z</time></trkpt><trkpt lat="42.4672519" lon="14.1044359"><ele>104.0</ele><time>2026-05-02T07:04:42.04Z</time></trkpt><trkpt lat="42.4671181" lon="14.1043293"><ele>104.0</ele><time>2026-05-02T07:04:43.04Z</time></trkpt><trkpt lat="42.4669832" lon="14.104229"><ele>104.0</ele><time>2026-05-02T07:04:44.04Z</time></trkpt><trkpt lat="42.4668485" lon="14.1041339"><ele>102.75</ele><time>2026-05-02T07:04:45.04Z</time></trkpt><trkpt lat="42.4667141" lon="14.1040317"><ele>101.5</ele><time>2026-05-02T07:04:46.041Z</time></trkpt><trkpt lat="42.466581" lon="14.103934"><ele>100.25</ele><time>2026-05-02T07:04:47.04Z</time></trkpt><trkpt lat="42.4664528" lon="14.1038557"><ele>99.0</ele><time>2026-05-02T07:04:48.04Z</time></trkpt><trkpt lat="42.4663149" lon="14.1038082"><ele>102.5</ele><time>2026-05-02T07:04:49.04Z</time></trkpt><trkpt lat="42.4661734" lon="14.1037877"><ele>106.0</ele><time>2026-05-02T07:04:50.04Z</time></trkpt><trkpt lat="42.4660215" lon="14.1037965"><ele>109.5</ele><time>2026-05-02T07:04:51.04Z</time></trkpt><trkpt lat="42.4658738" lon="14.1038188"><ele>113.0</ele><time>2026-05-02T07:04:52.04Z</time></trkpt><trkpt lat="42.4657325" lon="14.1038292"><ele>113.0</ele><time>2026-05-02T07:04:53.04Z</time></trkpt><trkpt lat="42.4656043" lon="14.1038186"><ele>113.0</ele><time>2026-05-02T07:04:54.04Z</time></trkpt><trkpt lat="42.4654848" lon="14.1037882"><ele>113.0</ele><time>2026-05-02T07:04:55.04Z</time></trkpt><trkpt lat="42.4653588" lon="14.1037459"><ele>113.0</ele><time>2026-05-02T07:04:56.04Z</time></trkpt><trkpt lat="42.4652363" lon="14.1036788"><ele>114.0</ele><time>2026-05-02T07:04:57.041Z</time></trkpt><trkpt lat="42.4651309" lon="14.1036081"><ele>115.00000000000001</ele><time>2026-05-02T07:04:58.041Z</time></trkpt><trkpt lat="42.4650345" lon="14.1035533"><ele>116.00000000000001</ele><time>2026-05-02T07:04:59.04Z</time></trkpt><trkpt lat="42.4649485" lon="14.1034788"><ele>117.0</ele><time>2026-05-02T07:05:00.04Z</time></trkpt><trkpt lat="42.4648754" lon="14.1033998"><ele>118.0</ele><time>2026-05-02T07:05:01.04Z</time></trkpt><trkpt lat="42.4648091" lon="14.1033016"><ele>117.4</ele><time>2026-05-02T07:05:02.041Z</time></trkpt><trkpt lat="42.4647401" lon="14.1032058"><ele>116.80000000000001</ele><time>2026-05-02T07:05:03.04Z</time></trkpt><trkpt lat="42.4646663" lon="14.1031266"><ele>116.2</ele><time>2026-05-02T07:05:04.04Z</time></trkpt><trkpt lat="42.464581" lon="14.1030589"><ele>115.6</ele><time>2026-05-02T07:05:05.041Z</time></trkpt><trkpt lat="42.4644956" lon="14.1030292"><ele>115.0</ele><time>2026-05-02T07:05:06.041Z</time></trkpt><trkpt lat="42.4644279" lon="14.1030551"><ele>115.6</ele><time>2026-05-02T07:05:07.04Z</time></trkpt><trkpt lat="42.4643697" lon="14.1032014"><ele>116.2</ele><time>2026-05-02T07:05:09.041Z</time></trkpt><trkpt lat="42.464395" lon="14.1032964"><ele>116.80000000000001</ele><time>2026-05-02T07:05:10.04Z</time></trkpt><trkpt lat="42.4644493" lon="14.103373"><ele>117.4</ele><time>2026-05-02T07:05:11.04Z</time></trkpt><trkpt lat="42.4645304" lon="14.1034304"><ele>118.0</ele><time>2026-05-02T07:05:12.04Z</time></trkpt><trkpt lat="42.4646206" lon="14.1034763"><ele>118.0</ele><time>2026-05-02T07:05:13.04Z</time></trkpt><trkpt lat="42.4646888" lon="14.1035246"><ele>118.00000000000001</ele><time>2026-05-02T07:05:14.041Z</time></trkpt><trkpt lat="42.4647497" lon="14.1036568"><ele>118.00000000000001</ele><time>2026-05-02T07:05:16.04Z</time></trkpt><trkpt lat="42.4646859" lon="14.1037714"><ele>118.0</ele><time>2026-05-02T07:05:18.04Z</time></trkpt><trkpt lat="42.4646064" lon="14.1038056"><ele>118.0</ele><time>2026-05-02T07:05:19.04Z</time></trkpt><trkpt lat="42.4645271" lon="14.1038389"><ele>118.4</ele><time>2026-05-02T07:05:20.04Z</time></trkpt><trkpt lat="42.4644431" lon="14.1038846"><ele>118.80000000000001</ele><time>2026-05-02T07:05:21.04Z</time></trkpt><trkpt lat="42.4643411" lon="14.1039243"><ele>119.2</ele><time>2026-05-02T07:05:22.04Z</time></trkpt><trkpt lat="42.4642274" lon="14.1039482"><ele>119.6</ele><time>2026-05-02T07:05:23.04Z</time></trkpt><trkpt lat="42.4641048" lon="14.1039592"><ele>120.0</ele><time>2026-05-02T07:05:24.041Z</time></trkpt><trkpt lat="42.4639788" lon="14.1039708"><ele>120.0</ele><time>2026-05-02T07:05:25.04Z</time></trkpt><trkpt lat="42.4638487" lon="14.1039929"><ele>120.0</ele><time>2026-05-02T07:05:26.041Z</time></trkpt><trkpt lat="42.4637137" lon="14.1040249"><ele>120.0</ele><time>2026-05-02T07:05:27.04Z</time></trkpt><trkpt lat="42.4635766" lon="14.1040594"><ele>120.0</ele><time>2026-05-02T07:05:28.041Z</time></trkpt><trkpt lat="42.4634556" lon="14.1040978"><ele>122.25</ele><time>2026-05-02T07:05:29.04Z</time></trkpt><trkpt lat="42.4633429" lon="14.1041728"><ele>124.5</ele><time>2026-05-02T07:05:30.04Z</time></trkpt><trkpt lat="42.463227" lon="14.1042783"><ele>126.75</ele><time>2026-05-02T07:05:31.041Z</time></trkpt><trkpt lat="42.4631149" lon="14.1044092"><ele>129.0</ele><time>2026-05-02T07:05:32.04Z</time></trkpt><trkpt lat="42.4630028" lon="14.1045267"><ele>129.4</ele><time>2026-05-02T07:05:33.04Z</time></trkpt><trkpt lat="42.462903" lon="14.1046285"><ele>129.8</ele><time>2026-05-02T07:05:34.04Z</time></trkpt><trkpt lat="42.4628153" lon="14.1046989"><ele>130.2</ele><time>2026-05-02T07:05:35.04Z</time></trkpt><trkpt lat="42.4627536" lon="14.1047435"><ele>130.6</ele><time>2026-05-02T07:05:36.04Z</time></trkpt><trkpt lat="42.4626793" lon="14.1047318"><ele>131.0</ele><time>2026-05-02T07:05:37.04Z</time></trkpt><trkpt lat="42.4625601" lon="14.1046682"><ele>131.0</ele><time>2026-05-02T07:05:39.041Z</time></trkpt><trkpt lat="42.4624575" lon="14.1047036"><ele>131.0</ele><time>2026-05-02T07:05:41.04Z</time></trkpt><trkpt lat="42.4624609" lon="14.1048493"><ele>131.0</ele><time>2026-05-02T07:05:43.04Z</time></trkpt><trkpt lat="42.4624744" lon="14.1049351"><ele>131.0</ele><time>2026-05-02T07:05:44.04Z</time></trkpt><trkpt lat="42.4624393" lon="14.105038"><ele>131.0</ele><time>2026-05-02T07:05:45.04Z</time></trkpt><trkpt lat="42.4623687" lon="14.1051261"><ele>131.4</ele><time>2026-05-02T07:05:46.04Z</time></trkpt><trkpt lat="42.4622935" lon="14.1052077"><ele>131.8</ele><time>2026-05-02T07:05:47.041Z</time></trkpt><trkpt lat="42.4622131" lon="14.1052973"><ele>132.20000000000002</ele><time>2026-05-02T07:05:48.04Z</time></trkpt><trkpt lat="42.4621336" lon="14.105393"><ele>132.6</ele><time>2026-05-02T07:05:49.041Z</time></trkpt><trkpt lat="42.4620486" lon="14.1054789"><ele>133.0</ele><time>2026-05-02T07:05:50.04Z</time></trkpt><trkpt lat="42.4619534" lon="14.1055656"><ele>134.5</ele><time>2026-05-02T07:05:51.041Z</time></trkpt><trkpt lat="42.4618571" lon="14.1056585"><ele>136.0</ele><time>2026-05-02T07:05:52.04Z</time></trkpt><trkpt lat="42.4617495" lon="14.1057634"><ele>137.5</ele><time>2026-05-02T07:05:53.04Z</time></trkpt><trkpt lat="42.4616389" lon="14.1058711"><ele>139.0</ele><time>2026-05-02T07:05:54.04Z</time></trkpt><trkpt lat="42.4615384" lon="14.1059751"><ele>139.0</ele><time>2026-05-02T07:05:55.04Z</time></trkpt><trkpt lat="42.461439" lon="14.1060798"><ele>139.0</ele><time>2026-05-02T07:05:56.04Z</time></trkpt><trkpt lat="42.4613294" lon="14.1061864"><ele>139.0</ele><time>2026-05-02T07:05:57.041Z</time></trkpt><trkpt lat="42.4612099" lon="14.1062881"><ele>139.0</ele><time>2026-05-02T07:05:58.041Z</time></trkpt><trkpt lat="42.4610962" lon="14.1063571"><ele>140.25</ele><time>2026-05-02T07:05:59.04Z</time></trkpt><trkpt lat="42.4609833" lon="14.106408"><ele>141.5</ele><time>2026-05-02T07:06:00.041Z</time></trkpt><trkpt lat="42.46088" lon="14.1064601"><ele>142.75</ele><time>2026-05-02T07:06:01.04Z</time></trkpt><trkpt lat="42.4607758" lon="14.1065292"><ele>144.0</ele><time>2026-05-02T07:06:02.04Z</time></trkpt><trkpt lat="42.4606768" lon="14.1066268"><ele>144.0</ele><time>2026-05-02T07:06:03.04Z</time></trkpt><trkpt lat="42.4605897" lon="14.1067516"><ele>144.0</ele><time>2026-05-02T07:06:04.04Z</time></trkpt><trkpt lat="42.4605249" lon="14.1068921"><ele>144.0</ele><time>2026-05-02T07:06:05.04Z</time></trkpt><trkpt lat="42.4604626" lon="14.1070367"><ele>144.0</ele><time>2026-05-02T07:06:06.041Z</time></trkpt><trkpt lat="42.4604085" lon="14.1071942"><ele>148.0</ele><time>2026-05-02T07:06:07.04Z</time></trkpt><trkpt lat="42.4603662" lon="14.1073522"><ele>152.0</ele><time>2026-05-02T07:06:08.04Z</time></trkpt><trkpt lat="42.4603433" lon="14.1075109"><ele>156.0</ele><time>2026-05-02T07:06:09.04Z</time></trkpt><trkpt lat="42.4603224" lon="14.1076702"><ele>160.0</ele><time>2026-05-02T07:06:10.04Z</time></trkpt><trkpt lat="42.460295" lon="14.107828"><ele>160.0</ele><time>2026-05-02T07:06:11.04Z</time></trkpt><trkpt lat="42.4602442" lon="14.1079749"><ele>160.0</ele><time>2026-05-02T07:06:12.04Z</time></trkpt><trkpt lat="42.4601899" lon="14.108123"><ele>160.0</ele><time>2026-05-02T07:06:13.04Z</time></trkpt><trkpt lat="42.4601286" lon="14.1082607"><ele>160.0</ele><time>2026-05-02T07:06:14.04Z</time></trkpt><trkpt lat="42.4600714" lon="14.1084059"><ele>159.25</ele><time>2026-05-02T07:06:15.041Z</time></trkpt><trkpt lat="42.4600219" lon="14.1085614"><ele>158.5</ele><time>2026-05-02T07:06:16.04Z</time></trkpt><trkpt lat="42.4599752" lon="14.1087004"><ele>157.75</ele><time>2026-05-02T07:06:17.04Z</time></trkpt><trkpt lat="42.4599252" lon="14.1088304"><ele>157.0</ele><time>2026-05-02T07:06:18.04Z</time></trkpt><trkpt lat="42.4598677" lon="14.1089578"><ele>155.75</ele><time>2026-05-02T07:06:19.04Z</time></trkpt><trkpt lat="42.4597969" lon="14.1090791"><ele>154.5</ele><time>2026-05-02T07:06:20.04Z</time></trkpt><trkpt lat="42.4597132" lon="14.1091965"><ele>153.25</ele><time>2026-05-02T07:06:21.04Z</time></trkpt><trkpt lat="42.4596213" lon="14.1092886"><ele>152.0</ele><time>2026-05-02T07:06:22.04Z</time></trkpt><trkpt lat="42.4595301" lon="14.1093759"><ele>155.0</ele><time>2026-05-02T07:06:23.04Z</time></trkpt><trkpt lat="42.4594386" lon="14.1094613"><ele>158.0</ele><time>2026-05-02T07:06:24.041Z</time></trkpt><trkpt lat="42.4593501" lon="14.1095517"><ele>161.0</ele><time>2026-05-02T07:06:25.04Z</time></trkpt><trkpt lat="42.4592691" lon="14.1096538"><ele>164.0</ele><time>2026-05-02T07:06:26.041Z</time></trkpt><trkpt lat="42.4591803" lon="14.1097596"><ele>164.0</ele><time>2026-05-02T07:06:27.04Z</time></trkpt><trkpt lat="42.459093" lon="14.1098717"><ele>164.0</ele><time>2026-05-02T07:06:28.04Z</time></trkpt><trkpt lat="42.4590104" lon="14.1099901"><ele>164.0</ele><time>2026-05-02T07:06:29.04Z</time></trkpt><trkpt lat="42.4589338" lon="14.1101085"><ele>164.0</ele><time>2026-05-02T07:06:30.041Z</time></trkpt><trkpt lat="42.458866" lon="14.1102159"><ele>163.6</ele><time>2026-05-02T07:06:31.04Z</time></trkpt><trkpt lat="42.4588046" lon="14.1103302"><ele>163.2</ele><time>2026-05-02T07:06:32.04Z</time></trkpt><trkpt lat="42.4587415" lon="14.1104338"><ele>162.79999999999998</ele><time>2026-05-02T07:06:33.04Z</time></trkpt><trkpt lat="42.4586796" lon="14.1105376"><ele>162.39999999999998</ele><time>2026-05-02T07:06:34.041Z</time></trkpt><trkpt lat="42.458613" lon="14.1106451"><ele>162.0</ele><time>2026-05-02T07:06:35.04Z</time></trkpt><trkpt lat="42.4585475" lon="14.1107616"><ele>162.0</ele><time>2026-05-02T07:06:36.04Z</time></trkpt><trkpt lat="42.4584807" lon="14.110878"><ele>162.0</ele><time>2026-05-02T07:06:37.04Z</time></trkpt><trkpt lat="42.4584171" lon="14.1109894"><ele>162.0</ele><time>2026-05-02T07:06:38.041Z</time></trkpt><trkpt lat="42.4583512" lon="14.1111015"><ele>162.0</ele><time>2026-05-02T07:06:39.04Z</time></trkpt><trkpt lat="42.4582831" lon="14.1111876"><ele>162.0</ele><time>2026-05-02T07:06:40.04Z</time></trkpt><trkpt lat="42.4582098" lon="14.1112397"><ele>162.0</ele><time>2026-05-02T07:06:41.04Z</time></trkpt><trkpt lat="42.4581324" lon="14.1112455"><ele>162.0</ele><time>2026-05-02T07:06:42.04Z</time></trkpt><trkpt lat="42.4580243" lon="14.1111629"><ele>162.0</ele><time>2026-05-02T07:06:44.041Z</time></trkpt><trkpt lat="42.4579694" lon="14.1110258"><ele>162.0</ele><time>2026-05-02T07:06:46.04Z</time></trkpt><trkpt lat="42.4579301" lon="14.1109014"><ele>162.0</ele><time>2026-05-02T07:06:48.04Z</time></trkpt><trkpt lat="42.4578683" lon="14.1107939"><ele>164.6</ele><time>2026-05-02T07:06:50.04Z</time></trkpt><trkpt lat="42.4577624" lon="14.1107647"><ele>167.2</ele><time>2026-05-02T07:06:52.04Z</time></trkpt><trkpt lat="42.457698" lon="14.1109036"><ele>169.8</ele><time>2026-05-02T07:06:54.04Z</time></trkpt><trkpt lat="42.4577011" lon="14.1110003"><ele>172.4</ele><time>2026-05-02T07:06:55.04Z</time></trkpt><trkpt lat="42.4577294" lon="14.111093"><ele>175.0</ele><time>2026-05-02T07:06:56.04Z</time></trkpt><trkpt lat="42.4577531" lon="14.1111975"><ele>175.0</ele><time>2026-05-02T07:06:57.04Z</time></trkpt><trkpt lat="42.4577845" lon="14.1113077"><ele>175.0</ele><time>2026-05-02T07:06:58.04Z</time></trkpt><trkpt lat="42.4578132" lon="14.1114206"><ele>175.0</ele><time>2026-05-02T07:06:59.04Z</time></trkpt><trkpt lat="42.4578383" lon="14.1115269"><ele>175.0</ele><time>2026-05-02T07:07:00.041Z</time></trkpt><trkpt lat="42.4578654" lon="14.1116423"><ele>175.0</ele><time>2026-05-02T07:07:01.04Z</time></trkpt><trkpt lat="42.4578949" lon="14.111762"><ele>175.0</ele><time>2026-05-02T07:07:02.04Z</time></trkpt><trkpt lat="42.4579235" lon="14.1118827"><ele>175.0</ele><time>2026-05-02T07:07:03.04Z</time></trkpt><trkpt lat="42.4579541" lon="14.1120029"><ele>175.0</ele><time>2026-05-02T07:07:04.04Z</time></trkpt><trkpt lat="42.457989" lon="14.1121424"><ele>175.0</ele><time>2026-05-02T07:07:05.04Z</time></trkpt><trkpt lat="42.4580225" lon="14.1122844"><ele>175.0</ele><time>2026-05-02T07:07:06.04Z</time></trkpt><trkpt lat="42.4580574" lon="14.1124304"><ele>175.0</ele><time>2026-05-02T07:07:07.04Z</time></trkpt><trkpt lat="42.4580862" lon="14.1125787"><ele>175.0</ele><time>2026-05-02T07:07:08.04Z</time></trkpt><trkpt lat="42.458104" lon="14.1127161"><ele>175.0</ele><time>2026-05-02T07:07:09.04Z</time></trkpt><trkpt lat="42.4581096" lon="14.1128411"><ele>175.0</ele><time>2026-05-02T07:07:10.041Z</time></trkpt><trkpt lat="42.4581079" lon="14.1129634"><ele>175.0</ele><time>2026-05-02T07:07:11.041Z</time></trkpt><trkpt lat="42.4580934" lon="14.1130846"><ele>175.0</ele><time>2026-05-02T07:07:12.04Z</time></trkpt><trkpt lat="42.458054" lon="14.1132046"><ele>175.6</ele><time>2026-05-02T07:07:13.04Z</time></trkpt><trkpt lat="42.4580088" lon="14.1133282"><ele>176.2</ele><time>2026-05-02T07:07:14.04Z</time></trkpt><trkpt lat="42.4579568" lon="14.1134619"><ele>176.8</ele><time>2026-05-02T07:07:15.04Z</time></trkpt><trkpt lat="42.4579211" lon="14.1136041"><ele>177.4</ele><time>2026-05-02T07:07:16.041Z</time></trkpt><trkpt lat="42.4579019" lon="14.113763"><ele>178.0</ele><time>2026-05-02T07:07:17.04Z</time></trkpt><trkpt lat="42.457902" lon="14.1139224"><ele>176.0</ele><time>2026-05-02T07:07:18.04Z</time></trkpt><trkpt lat="42.4579089" lon="14.1140724"><ele>174.0</ele><time>2026-05-02T07:07:19.04Z</time></trkpt><trkpt lat="42.4579161" lon="14.1142282"><ele>172.0</ele><time>2026-05-02T07:07:20.04Z</time></trkpt><trkpt lat="42.457916" lon="14.1143758"><ele>170.0</ele><time>2026-05-02T07:07:21.041Z</time></trkpt><trkpt lat="42.4579039" lon="14.1145236"><ele>168.0</ele><time>2026-05-02T07:07:22.041Z</time></trkpt><trkpt lat="42.4578763" lon="14.114665"><ele>168.0</ele><time>2026-05-02T07:07:23.041Z</time></trkpt><trkpt lat="42.4578441" lon="14.114803"><ele>168.0</ele><time>2026-05-02T07:07:24.04Z</time></trkpt><trkpt lat="42.4578105" lon="14.1149367"><ele>168.0</ele><time>2026-05-02T07:07:25.04Z</time></trkpt><trkpt lat="42.4577886" lon="14.1150674"><ele>168.0</ele><time>2026-05-02T07:07:26.041Z</time></trkpt><trkpt lat="42.4577815" lon="14.1151902"><ele>168.0</ele><time>2026-05-02T07:07:27.041Z</time></trkpt><trkpt lat="42.4578043" lon="14.1153306"><ele>167.75</ele><time>2026-05-02T07:07:28.041Z</time></trkpt><trkpt lat="42.4578568" lon="14.1154692"><ele>167.5</ele><time>2026-05-02T07:07:29.04Z</time></trkpt><trkpt lat="42.4579304" lon="14.1155873"><ele>167.25</ele><time>2026-05-02T07:07:30.04Z</time></trkpt><trkpt lat="42.4580131" lon="14.1157015"><ele>167.0</ele><time>2026-05-02T07:07:31.04Z</time></trkpt><trkpt lat="42.4580984" lon="14.1157952"><ele>167.0</ele><time>2026-05-02T07:07:32.04Z</time></trkpt><trkpt lat="42.4581849" lon="14.1158786"><ele>167.0</ele><time>2026-05-02T07:07:33.04Z</time></trkpt><trkpt lat="42.4582656" lon="14.1159659"><ele>167.0</ele><time>2026-05-02T07:07:34.041Z</time></trkpt><trkpt lat="42.4583425" lon="14.1160549"><ele>167.0</ele><time>2026-05-02T07:07:35.04Z</time></trkpt><trkpt lat="42.458412" lon="14.1161457"><ele>167.0</ele><time>2026-05-02T07:07:36.04Z</time></trkpt><trkpt lat="42.4584764" lon="14.1162201"><ele>167.0</ele><time>2026-05-02T07:07:37.04Z</time></trkpt><trkpt lat="42.4585362" lon="14.1162963"><ele>167.0</ele><time>2026-05-02T07:07:38.04Z</time></trkpt><trkpt lat="42.4586029" lon="14.1163706"><ele>167.0</ele><time>2026-05-02T07:07:39.041Z</time></trkpt><trkpt lat="42.4586824" lon="14.1164601"><ele>167.0</ele><time>2026-05-02T07:07:40.04Z</time></trkpt><trkpt lat="42.4587649" lon="14.1165497"><ele>167.0</ele><time>2026-05-02T07:07:41.04Z</time></trkpt><trkpt lat="42.4588538" lon="14.1166411"><ele>166.2</ele><time>2026-05-02T07:07:42.04Z</time></trkpt><trkpt lat="42.4589421" lon="14.1167304"><ele>165.39999999999998</ele><time>2026-05-02T07:07:43.041Z</time></trkpt><trkpt lat="42.4590276" lon="14.1168041"><ele>164.60000000000002</ele><time>2026-05-02T07:07:44.04Z</time></trkpt><trkpt lat="42.4591195" lon="14.1168874"><ele>163.8</ele><time>2026-05-02T07:07:45.04Z</time></trkpt><trkpt lat="42.4592177" lon="14.1169676"><ele>163.0</ele><time>2026-05-02T07:07:46.041Z</time></trkpt><trkpt lat="42.4593065" lon="14.1170406"><ele>163.0</ele><time>2026-05-02T07:07:47.04Z</time></trkpt><trkpt lat="42.4594039" lon="14.1171156"><ele>163.0</ele><time>2026-05-02T07:07:48.041Z</time></trkpt><trkpt lat="42.4595052" lon="14.1172"><ele>163.0</ele><time>2026-05-02T07:07:49.041Z</time></trkpt><trkpt lat="42.4596032" lon="14.1172768"><ele>163.0</ele><time>2026-05-02T07:07:50.04Z</time></trkpt><trkpt lat="42.459704" lon="14.1173598"><ele>162.25</ele><time>2026-05-02T07:07:51.04Z</time></trkpt><trkpt lat="42.4598093" lon="14.1174407"><ele>161.5</ele><time>2026-05-02T07:07:52.04Z</time></trkpt><trkpt lat="42.4599102" lon="14.1175219"><ele>160.75</ele><time>2026-05-02T07:07:53.04Z</time></trkpt><trkpt lat="42.4600103" lon="14.1176038"><ele>160.0</ele><time>2026-05-02T07:07:54.04Z</time></trkpt><trkpt lat="42.4601034" lon="14.1176819"><ele>160.0</ele><time>2026-05-02T07:07:55.041Z</time></trkpt><trkpt lat="42.4601963" lon="14.1177553"><ele>160.0</ele><time>2026-05-02T07:07:56.04Z</time></trkpt><trkpt lat="42.4602941" lon="14.117837"><ele>160.0</ele><time>2026-05-02T07:07:57.04Z</time></trkpt><trkpt lat="42.4603799" lon="14.1179324"><ele>160.0</ele><time>2026-05-02T07:07:58.04Z</time></trkpt><trkpt lat="42.4604469" lon="14.1180481"><ele>160.0</ele><time>2026-05-02T07:07:59.04Z</time></trkpt><trkpt lat="42.4604812" lon="14.1181784"><ele>160.2</ele><time>2026-05-02T07:08:00.04Z</time></trkpt><trkpt lat="42.460498" lon="14.1183205"><ele>160.4</ele><time>2026-05-02T07:08:01.04Z</time></trkpt><trkpt lat="42.4604952" lon="14.1184578"><ele>160.60000000000002</ele><time>2026-05-02T07:08:02.04Z</time></trkpt><trkpt lat="42.4604731" lon="14.1185997"><ele>160.8</ele><time>2026-05-02T07:08:03.04Z</time></trkpt><trkpt lat="42.4604394" lon="14.1187374"><ele>161.0</ele><time>2026-05-02T07:08:04.04Z</time></trkpt><trkpt lat="42.4604009" lon="14.1188768"><ele>160.8</ele><time>2026-05-02T07:08:05.04Z</time></trkpt><trkpt lat="42.4603612" lon="14.1190172"><ele>160.60000000000002</ele><time>2026-05-02T07:08:06.041Z</time></trkpt><trkpt lat="42.4603231" lon="14.1191477"><ele>160.4</ele><time>2026-05-02T07:08:07.04Z</time></trkpt><trkpt lat="42.4602817" lon="14.1192585"><ele>160.2</ele><time>2026-05-02T07:08:08.04Z</time></trkpt><trkpt lat="42.4602417" lon="14.1193627"><ele>160.0</ele><time>2026-05-02T07:08:09.04Z</time></trkpt><trkpt lat="42.4601919" lon="14.119456"><ele>160.0</ele><time>2026-05-02T07:08:10.04Z</time></trkpt><trkpt lat="42.4601391" lon="14.119544"><ele>160.0</ele><time>2026-05-02T07:08:11.041Z</time></trkpt><trkpt lat="42.4600723" lon="14.1196145"><ele>160.0</ele><time>2026-05-02T07:08:12.041Z</time></trkpt><trkpt lat="42.459998" lon="14.1196646"><ele>160.0</ele><time>2026-05-02T07:08:13.04Z</time></trkpt><trkpt lat="42.4599386" lon="14.1197336"><ele>160.0</ele><time>2026-05-02T07:08:14.04Z</time></trkpt><trkpt lat="42.4598911" lon="14.1198329"><ele>160.0</ele><time>2026-05-02T07:08:15.04Z</time></trkpt><trkpt lat="42.4598588" lon="14.1199504"><ele>160.0</ele><time>2026-05-02T07:08:16.041Z</time></trkpt><trkpt lat="42.459804" lon="14.1200578"><ele>160.0</ele><time>2026-05-02T07:08:17.041Z</time></trkpt><trkpt lat="42.4597313" lon="14.1201493"><ele>160.0</ele><time>2026-05-02T07:08:18.04Z</time></trkpt><trkpt lat="42.4596507" lon="14.1202349"><ele>160.0</ele><time>2026-05-02T07:08:19.04Z</time></trkpt><trkpt lat="42.4595671" lon="14.1203161"><ele>160.0</ele><time>2026-05-02T07:08:20.04Z</time></trkpt><trkpt lat="42.4594833" lon="14.1204045"><ele>160.0</ele><time>2026-05-02T07:08:21.04Z</time></trkpt><trkpt lat="42.4594037" lon="14.1204857"><ele>160.0</ele><time>2026-05-02T07:08:22.04Z</time></trkpt><trkpt lat="42.4593233" lon="14.1205738"><ele>160.0</ele><time>2026-05-02T07:08:23.04Z</time></trkpt><trkpt lat="42.4592404" lon="14.1206595"><ele>160.0</ele><time>2026-05-02T07:08:24.04Z</time></trkpt><trkpt lat="42.4591627" lon="14.1207401"><ele>160.0</ele><time>2026-05-02T07:08:25.04Z</time></trkpt><trkpt lat="42.4590891" lon="14.1208262"><ele>160.0</ele><time>2026-05-02T07:08:26.04Z</time></trkpt><trkpt lat="42.4590213" lon="14.1208981"><ele>160.0</ele><time>2026-05-02T07:08:27.04Z</time></trkpt><trkpt lat="42.4589665" lon="14.1209613"><ele>160.0</ele><time>2026-05-02T07:08:28.04Z</time></trkpt><trkpt lat="42.4588923" lon="14.1210284"><ele>160.0</ele><time>2026-05-02T07:08:30.041Z</time></trkpt><trkpt lat="42.4588289" lon="14.1210033"><ele>160.0</ele><time>2026-05-02T07:08:32.04Z</time></trkpt><trkpt lat="42.458738" lon="14.1208953"><ele>160.0</ele><time>2026-05-02T07:08:34.04Z</time></trkpt><trkpt lat="42.4586872" lon="14.1208333"><ele>160.16666666666669</ele><time>2026-05-02T07:08:35.04Z</time></trkpt><trkpt lat="42.4586276" lon="14.120771"><ele>160.33333333333334</ele><time>2026-05-02T07:08:36.041Z</time></trkpt><trkpt lat="42.4585663" lon="14.1207121"><ele>160.5</ele><time>2026-05-02T07:08:37.04Z</time></trkpt><trkpt lat="42.4585071" lon="14.1206474"><ele>160.66666666666666</ele><time>2026-05-02T07:08:38.04Z</time></trkpt><trkpt lat="42.4584405" lon="14.1205705"><ele>160.83333333333331</ele><time>2026-05-02T07:08:39.041Z</time></trkpt><trkpt lat="42.4583763" lon="14.1204993"><ele>161.0</ele><time>2026-05-02T07:08:40.04Z</time></trkpt><trkpt lat="42.4583118" lon="14.120433"><ele>159.20000000000002</ele><time>2026-05-02T07:08:41.04Z</time></trkpt><trkpt lat="42.4582436" lon="14.1203603"><ele>157.4</ele><time>2026-05-02T07:08:42.04Z</time></trkpt><trkpt lat="42.4581763" lon="14.1202872"><ele>155.6</ele><time>2026-05-02T07:08:43.04Z</time></trkpt><trkpt lat="42.4581075" lon="14.1202131"><ele>153.8</ele><time>2026-05-02T07:08:44.04Z</time></trkpt><trkpt lat="42.45804" lon="14.1201314"><ele>152.0</ele><time>2026-05-02T07:08:45.04Z</time></trkpt><trkpt lat="42.4579748" lon="14.1200314"><ele>150.0</ele><time>2026-05-02T07:08:46.041Z</time></trkpt><trkpt lat="42.4579058" lon="14.1199244"><ele>148.0</ele><time>2026-05-02T07:08:47.041Z</time></trkpt><trkpt lat="42.4578304" lon="14.1198147"><ele>146.0</ele><time>2026-05-02T07:08:48.04Z</time></trkpt><trkpt lat="42.4577593" lon="14.1197045"><ele>144.0</ele><time>2026-05-02T07:08:49.04Z</time></trkpt><trkpt lat="42.4577009" lon="14.1196235"><ele>142.0</ele><time>2026-05-02T07:08:50.04Z</time></trkpt><trkpt lat="42.4576504" lon="14.1195593"><ele>140.0</ele><time>2026-05-02T07:08:51.04Z</time></trkpt><trkpt lat="42.4575637" lon="14.1194446"><ele>138.0</ele><time>2026-05-02T07:08:53.04Z</time></trkpt><trkpt lat="42.4574957" lon="14.1193492"><ele>136.0</ele><time>2026-05-02T07:08:55.04Z</time></trkpt><trkpt lat="42.4574187" lon="14.1192724"><ele>134.0</ele><time>2026-05-02T07:08:57.04Z</time></trkpt><trkpt lat="42.4573197" lon="14.1192551"><ele>132.0</ele><time>2026-05-02T07:08:59.04Z</time></trkpt><trkpt lat="42.4571966" lon="14.1192519"><ele>132.0</ele><time>2026-05-02T07:09:01.04Z</time></trkpt><trkpt lat="42.4571335" lon="14.1192482"><ele>132.0</ele><time>2026-05-02T07:09:02.04Z</time></trkpt><trkpt lat="42.4570616" lon="14.1192485"><ele>132.0</ele><time>2026-05-02T07:09:03.04Z</time></trkpt><trkpt lat="42.4569898" lon="14.1192584"><ele>132.0</ele><time>2026-05-02T07:09:04.04Z</time></trkpt><trkpt lat="42.4569113" lon="14.1192661"><ele>132.0</ele><time>2026-05-02T07:09:05.04Z</time></trkpt><trkpt lat="42.4568379" lon="14.1192792"><ele>132.0</ele><time>2026-05-02T07:09:06.04Z</time></trkpt><trkpt lat="42.4567647" lon="14.1192921"><ele>132.0</ele><time>2026-05-02T07:09:07.04Z</time></trkpt><trkpt lat="42.4566931" lon="14.1193093"><ele>130.4</ele><time>2026-05-02T07:09:08.04Z</time></trkpt><trkpt lat="42.4566301" lon="14.1193282"><ele>128.79999999999998</ele><time>2026-05-02T07:09:09.04Z</time></trkpt><trkpt lat="42.4565146" lon="14.1193322"><ele>127.2</ele><time>2026-05-02T07:09:11.041Z</time></trkpt><trkpt lat="42.45643" lon="14.1193238"><ele>125.6</ele><time>2026-05-02T07:09:13.04Z</time></trkpt><trkpt lat="42.456329" lon="14.1193389"><ele>124.0</ele><time>2026-05-02T07:09:15.04Z</time></trkpt><trkpt lat="42.4562215" lon="14.119344"><ele>123.16666666666667</ele><time>2026-05-02T07:09:17.04Z</time></trkpt><trkpt lat="42.4561214" lon="14.119342"><ele>122.33333333333334</ele><time>2026-05-02T07:09:19.04Z</time></trkpt><trkpt lat="42.456037" lon="14.1193221"><ele>121.5</ele><time>2026-05-02T07:09:22.04Z</time></trkpt><trkpt lat="42.4559478" lon="14.1193034"><ele>120.66666666666666</ele><time>2026-05-02T07:09:24.04Z</time></trkpt><trkpt lat="42.4558649" lon="14.1192661"><ele>119.83333333333333</ele><time>2026-05-02T07:09:26.04Z</time></trkpt><trkpt lat="42.4557895" lon="14.119236"><ele>119.0</ele><time>2026-05-02T07:09:28.04Z</time></trkpt><trkpt lat="42.4557184" lon="14.1192096"><ele>118.99999999999999</ele><time>2026-05-02T07:09:30.04Z</time></trkpt><trkpt lat="42.4556497" lon="14.1191947"><ele>119.0</ele><time>2026-05-02T07:09:32.04Z</time></trkpt><trkpt lat="42.4555845" lon="14.1192161"><ele>119.0</ele><time>2026-05-02T07:09:34.041Z</time></trkpt><trkpt lat="42.4554915" lon="14.1192155"><ele>119.0</ele><time>2026-05-02T07:09:37.04Z</time></trkpt><trkpt lat="42.4554212" lon="14.1192122"><ele>118.99999999999999</ele><time>2026-05-02T07:09:39.04Z</time></trkpt><trkpt lat="42.4553443" lon="14.1192183"><ele>119.0</ele><time>2026-05-02T07:09:42.04Z</time></trkpt><trkpt lat="42.4552713" lon="14.1192222"><ele>118.16666666666666</ele><time>2026-05-02T07:09:44.041Z</time></trkpt><trkpt lat="42.4551742" lon="14.1192085"><ele>117.33333333333333</ele><time>2026-05-02T07:09:48.04Z</time></trkpt><trkpt lat="42.455099" lon="14.1192066"><ele>116.5</ele><time>2026-05-02T07:09:50.04Z</time></trkpt><trkpt lat="42.4550288" lon="14.119199"><ele>115.66666666666666</ele><time>2026-05-02T07:09:54.04Z</time></trkpt><trkpt lat="42.4549638" lon="14.1191854"><ele>114.83333333333333</ele><time>2026-05-02T07:09:57.04Z</time></trkpt><trkpt lat="42.4548894" lon="14.1191503"><ele>114.0</ele><time>2026-05-02T07:10:00.04Z</time></trkpt><trkpt lat="42.45483" lon="14.1190716"><ele>113.5</ele><time>2026-05-02T07:10:03.04Z</time></trkpt><trkpt lat="42.4548199" lon="14.1189535"><ele>113.0</ele><time>2026-05-02T07:10:06.04Z</time></trkpt><trkpt lat="42.4548332" lon="14.1188558"><ele>112.5</ele><time>2026-05-02T07:10:08.04Z</time></trkpt><trkpt lat="42.4548432" lon="14.1187598"><ele>112.0</ele><time>2026-05-02T07:10:10.04Z</time></trkpt><trkpt lat="42.454862" lon="14.1186095"><ele>111.5</ele><time>2026-05-02T07:10:12.04Z</time></trkpt><trkpt lat="42.4548744" lon="14.1184959"><ele>111.0</ele><time>2026-05-02T07:10:13.04Z</time></trkpt><trkpt lat="42.4548688" lon="14.1183966"><ele>111.0</ele><time>2026-05-02T07:10:14.04Z</time></trkpt><trkpt lat="42.4548867" lon="14.1182573"><ele>111.0</ele><time>2026-05-02T07:10:16.04Z</time></trkpt><trkpt lat="42.4549173" lon="14.1181015"><ele>111.0</ele><time>2026-05-02T07:10:18.04Z</time></trkpt><trkpt lat="42.4549393" lon="14.1180108"><ele>111.0</ele><time>2026-05-02T07:10:19.04Z</time></trkpt><trkpt lat="42.454961" lon="14.1179019"><ele>111.0</ele><time>2026-05-02T07:10:20.04Z</time></trkpt><trkpt lat="42.4549781" lon="14.1177728"><ele>112.0</ele><time>2026-05-02T07:10:21.04Z</time></trkpt><trkpt lat="42.454994" lon="14.1176243"><ele>113.0</ele><time>2026-05-02T07:10:22.04Z</time></trkpt><trkpt lat="42.4549989" lon="14.1174735"><ele>114.0</ele><time>2026-05-02T07:10:23.04Z</time></trkpt><trkpt lat="42.4550024" lon="14.1173565"><ele>115.0</ele><time>2026-05-02T07:10:24.041Z</time></trkpt><trkpt lat="42.4549856" lon="14.1172366"><ele>116.0</ele><time>2026-05-02T07:10:26.04Z</time></trkpt><trkpt lat="42.4549111" lon="14.1171956"><ele>117.4</ele><time>2026-05-02T07:10:28.04Z</time></trkpt><trkpt lat="42.4547851" lon="14.1171603"><ele>118.8</ele><time>2026-05-02T07:10:30.04Z</time></trkpt><trkpt lat="42.4547103" lon="14.117141"><ele>120.20000000000002</ele><time>2026-05-02T07:10:31.04Z</time></trkpt><trkpt lat="42.4546215" lon="14.1171139"><ele>121.60000000000001</ele><time>2026-05-02T07:10:32.04Z</time></trkpt><trkpt lat="42.4545241" lon="14.1170858"><ele>123.0</ele><time>2026-05-02T07:10:33.04Z</time></trkpt><trkpt lat="42.4544242" lon="14.1170669"><ele>123.5</ele><time>2026-05-02T07:10:34.04Z</time></trkpt><trkpt lat="42.4543165" lon="14.1170538"><ele>124.0</ele><time>2026-05-02T07:10:35.041Z</time></trkpt><trkpt lat="42.4542033" lon="14.1170318"><ele>124.5</ele><time>2026-05-02T07:10:36.04Z</time></trkpt><trkpt lat="42.4540798" lon="14.1170056"><ele>125.0</ele><time>2026-05-02T07:10:37.04Z</time></trkpt><trkpt lat="42.4539623" lon="14.1169923"><ele>124.99999999999999</ele><time>2026-05-02T07:10:38.041Z</time></trkpt><trkpt lat="42.4538739" lon="14.1169753"><ele>125.0</ele><time>2026-05-02T07:10:39.041Z</time></trkpt><trkpt lat="42.4537971" lon="14.1169612"><ele>125.0</ele><time>2026-05-02T07:10:40.04Z</time></trkpt><trkpt lat="42.453719" lon="14.1169595"><ele>125.0</ele><time>2026-05-02T07:10:41.04Z</time></trkpt><trkpt lat="42.453637" lon="14.1169862"><ele>124.99999999999999</ele><time>2026-05-02T07:10:42.04Z</time></trkpt><trkpt lat="42.4535608" lon="14.117025"><ele>125.0</ele><time>2026-05-02T07:10:43.04Z</time></trkpt><trkpt lat="42.4534914" lon="14.1170816"><ele>125.33333333333333</ele><time>2026-05-02T07:10:44.04Z</time></trkpt><trkpt lat="42.453419" lon="14.1171652"><ele>125.66666666666666</ele><time>2026-05-02T07:10:45.04Z</time></trkpt><trkpt lat="42.4533479" lon="14.1172379"><ele>126.0</ele><time>2026-05-02T07:10:46.04Z</time></trkpt><trkpt lat="42.4532769" lon="14.1172888"><ele>126.33333333333334</ele><time>2026-05-02T07:10:47.04Z</time></trkpt><trkpt lat="42.4532002" lon="14.1173324"><ele>126.66666666666667</ele><time>2026-05-02T07:10:48.04Z</time></trkpt><trkpt lat="42.453128" lon="14.1173656"><ele>127.0</ele><time>2026-05-02T07:10:49.04Z</time></trkpt><trkpt lat="42.4529984" lon="14.1173954"><ele>127.50000000000001</ele><time>2026-05-02T07:10:51.04Z</time></trkpt><trkpt lat="42.4529249" lon="14.1174052"><ele>128.0</ele><time>2026-05-02T07:10:52.04Z</time></trkpt><trkpt lat="42.4528477" lon="14.1174092"><ele>128.5</ele><time>2026-05-02T07:10:53.04Z</time></trkpt><trkpt lat="42.4527679" lon="14.1174061"><ele>129.0</ele><time>2026-05-02T07:10:54.04Z</time></trkpt><trkpt lat="42.4526968" lon="14.1173994"><ele>129.5</ele><time>2026-05-02T07:10:55.041Z</time></trkpt><trkpt lat="42.4526001" lon="14.1173513"><ele>130.0</ele><time>2026-05-02T07:10:57.04Z</time></trkpt><trkpt lat="42.452538" lon="14.1172315"><ele>130.0</ele><time>2026-05-02T07:10:59.041Z</time></trkpt><trkpt lat="42.4525127" lon="14.117151"><ele>130.0</ele><time>2026-05-02T07:11:00.041Z</time></trkpt><trkpt lat="42.4524815" lon="14.1170633"><ele>130.0</ele><time>2026-05-02T07:11:01.04Z</time></trkpt><trkpt lat="42.4524479" lon="14.1169709"><ele>130.0</ele><time>2026-05-02T07:11:02.04Z</time></trkpt><trkpt lat="42.452407" lon="14.1168698"><ele>130.0</ele><time>2026-05-02T07:11:03.04Z</time></trkpt><trkpt lat="42.4523635" lon="14.116766"><ele>130.0</ele><time>2026-05-02T07:11:04.04Z</time></trkpt><trkpt lat="42.4523109" lon="14.1166769"><ele>130.0</ele><time>2026-05-02T07:11:05.04Z</time></trkpt><trkpt lat="42.4522586" lon="14.116609"><ele>130.0</ele><time>2026-05-02T07:11:06.04Z</time></trkpt><trkpt lat="42.4522029" lon="14.1165403"><ele>130.0</ele><time>2026-05-02T07:11:07.04Z</time></trkpt><trkpt lat="42.4521423" lon="14.1164699"><ele>130.0</ele><time>2026-05-02T07:11:08.04Z</time></trkpt><trkpt lat="42.452076" lon="14.1164089"><ele>130.0</ele><time>2026-05-02T07:11:09.04Z</time></trkpt><trkpt lat="42.4520013" lon="14.1163755"><ele>130.0</ele><time>2026-05-02T07:11:10.04Z</time></trkpt><trkpt lat="42.4519076" lon="14.1163638"><ele>131.4</ele><time>2026-05-02T07:11:11.04Z</time></trkpt><trkpt lat="42.4517963" lon="14.1163621"><ele>132.8</ele><time>2026-05-02T07:11:12.04Z</time></trkpt><trkpt lat="42.4516838" lon="14.1163606"><ele>134.2</ele><time>2026-05-02T07:11:13.04Z</time></trkpt><trkpt lat="42.4515925" lon="14.1163691"><ele>135.6</ele><time>2026-05-02T07:11:14.04Z</time></trkpt><trkpt lat="42.4515075" lon="14.1163742"><ele>137.0</ele><time>2026-05-02T07:11:15.04Z</time></trkpt><trkpt lat="42.4514254" lon="14.1163725"><ele>137.0</ele><time>2026-05-02T07:11:16.04Z</time></trkpt><trkpt lat="42.4513476" lon="14.1163495"><ele>137.0</ele><time>2026-05-02T07:11:17.04Z</time></trkpt><trkpt lat="42.4512771" lon="14.1163094"><ele>137.0</ele><time>2026-05-02T07:11:18.04Z</time></trkpt><trkpt lat="42.4512151" lon="14.1162689"><ele>137.0</ele><time>2026-05-02T07:11:19.04Z</time></trkpt><trkpt lat="42.4511261" lon="14.1161821"><ele>137.0</ele><time>2026-05-02T07:11:21.04Z</time></trkpt><trkpt lat="42.4510479" lon="14.1161691"><ele>137.0</ele><time>2026-05-02T07:11:23.04Z</time></trkpt><trkpt lat="42.4509869" lon="14.1161986"><ele>133.83333333333331</ele><time>2026-05-02T07:11:24.04Z</time></trkpt><trkpt lat="42.4509251" lon="14.1162282"><ele>130.66666666666666</ele><time>2026-05-02T07:11:25.041Z</time></trkpt><trkpt lat="42.450863" lon="14.1162616"><ele>127.5</ele><time>2026-05-02T07:11:26.04Z</time></trkpt><trkpt lat="42.4508033" lon="14.1162944"><ele>124.33333333333334</ele><time>2026-05-02T07:11:27.04Z</time></trkpt><trkpt lat="42.450692" lon="14.116366"><ele>121.16666666666667</ele><time>2026-05-02T07:11:29.041Z</time></trkpt><trkpt lat="42.4506349" lon="14.1164046"><ele>118.0</ele><time>2026-05-02T07:11:30.04Z</time></trkpt><trkpt lat="42.450527" lon="14.1164883"><ele>118.00000000000001</ele><time>2026-05-02T07:11:32.04Z</time></trkpt><trkpt lat="42.4504725" lon="14.1165497"><ele>118.0</ele><time>2026-05-02T07:11:33.04Z</time></trkpt><trkpt lat="42.4504156" lon="14.1166092"><ele>118.0</ele><time>2026-05-02T07:11:34.04Z</time></trkpt><trkpt lat="42.4503573" lon="14.1166642"><ele>118.0</ele><time>2026-05-02T07:11:35.04Z</time></trkpt><trkpt lat="42.4503056" lon="14.1167201"><ele>118.00000000000001</ele><time>2026-05-02T07:11:36.041Z</time></trkpt><trkpt lat="42.4502052" lon="14.1168205"><ele>118.0</ele><time>2026-05-02T07:11:38.04Z</time></trkpt><trkpt lat="42.4501081" lon="14.1169213"><ele>116.16666666666667</ele><time>2026-05-02T07:11:40.04Z</time></trkpt><trkpt lat="42.4500129" lon="14.1170028"><ele>114.33333333333334</ele><time>2026-05-02T07:11:42.04Z</time></trkpt><trkpt lat="42.4499045" lon="14.1170833"><ele>112.5</ele><time>2026-05-02T07:11:44.04Z</time></trkpt><trkpt lat="42.4498445" lon="14.1171144"><ele>110.66666666666666</ele><time>2026-05-02T07:11:45.04Z</time></trkpt><trkpt lat="42.4497807" lon="14.1171477"><ele>108.83333333333333</ele><time>2026-05-02T07:11:46.04Z</time></trkpt><trkpt lat="42.4497156" lon="14.1171831"><ele>107.0</ele><time>2026-05-02T07:11:47.04Z</time></trkpt><trkpt lat="42.4496472" lon="14.1172174"><ele>105.33333333333333</ele><time>2026-05-02T07:11:48.04Z</time></trkpt><trkpt lat="42.4495741" lon="14.117237"><ele>103.66666666666666</ele><time>2026-05-02T07:11:49.041Z</time></trkpt><trkpt lat="42.4494964" lon="14.1172438"><ele>102.0</ele><time>2026-05-02T07:11:50.041Z</time></trkpt><trkpt lat="42.4494166" lon="14.117236"><ele>100.33333333333334</ele><time>2026-05-02T07:11:51.04Z</time></trkpt><trkpt lat="42.4493306" lon="14.1172149"><ele>98.66666666666667</ele><time>2026-05-02T07:11:52.04Z</time></trkpt><trkpt lat="42.4492396" lon="14.11719"><ele>97.0</ele><time>2026-05-02T07:11:53.04Z</time></trkpt><trkpt lat="42.4491499" lon="14.1171608"><ele>97.0</ele><time>2026-05-02T07:11:54.04Z</time></trkpt><trkpt lat="42.449072" lon="14.1171332"><ele>97.0</ele><time>2026-05-02T07:11:55.04Z</time></trkpt><trkpt lat="42.4490025" lon="14.1171159"><ele>97.0</ele><time>2026-05-02T07:11:56.04Z</time></trkpt><trkpt lat="42.4488958" lon="14.1170943"><ele>97.0</ele><time>2026-05-02T07:11:58.04Z</time></trkpt><trkpt lat="42.4487924" lon="14.1170706"><ele>97.0</ele><time>2026-05-02T07:12:00.04Z</time></trkpt><trkpt lat="42.4486892" lon="14.1170723"><ele>96.66666666666667</ele><time>2026-05-02T07:12:02.041Z</time></trkpt><trkpt lat="42.4486219" lon="14.1170776"><ele>96.33333333333334</ele><time>2026-05-02T07:12:04.041Z</time></trkpt><trkpt lat="42.4485648" lon="14.117151"><ele>96.0</ele><time>2026-05-02T07:12:07.041Z</time></trkpt><trkpt lat="42.4485346" lon="14.1172306"><ele>95.66666666666667</ele><time>2026-05-02T07:12:09.04Z</time></trkpt><trkpt lat="42.4485072" lon="14.1173452"><ele>95.33333333333334</ele><time>2026-05-02T07:12:11.04Z</time></trkpt><trkpt lat="42.4484826" lon="14.1174769"><ele>95.0</ele><time>2026-05-02T07:12:13.04Z</time></trkpt><trkpt lat="42.4485112" lon="14.1175849"><ele>94.0</ele><time>2026-05-02T07:12:15.04Z</time></trkpt><trkpt lat="42.4485287" lon="14.1176911"><ele>93.0</ele><time>2026-05-02T07:12:18.041Z</time></trkpt><trkpt lat="42.4485411" lon="14.1177816"><ele>92.0</ele><time>2026-05-02T07:12:39.04Z</time></trkpt><trkpt lat="42.4485602" lon="14.117892"><ele>91.0</ele><time>2026-05-02T07:12:41.04Z</time></trkpt><trkpt lat="42.4485676" lon="14.1180064"><ele>90.0</ele><time>2026-05-02T07:12:43.04Z</time></trkpt><trkpt lat="42.4485555" lon="14.1181128"><ele>89.0</ele><time>2026-05-02T07:12:45.041Z</time></trkpt><trkpt lat="42.4485499" lon="14.1182445"><ele>89.0</ele><time>2026-05-02T07:12:47.04Z</time></trkpt><trkpt lat="42.4485676" lon="14.1184028"><ele>89.0</ele><time>2026-05-02T07:12:49.041Z</time></trkpt><trkpt lat="42.4485895" lon="14.1185385"><ele>89.0</ele><time>2026-05-02T07:12:51.04Z</time></trkpt><trkpt lat="42.4486013" lon="14.1186279"><ele>89.0</ele><time>2026-05-02T07:12:53.04Z</time></trkpt><trkpt lat="42.4486004" lon="14.118726"><ele>89.0</ele><time>2026-05-02T07:13:20.04Z</time></trkpt><trkpt lat="42.4486212" lon="14.1188919"><ele>89.0</ele><time>2026-05-02T07:13:35.04Z</time></trkpt><trkpt lat="42.4486448" lon="14.1189858"><ele>89.0</ele><time>2026-05-02T07:13:39.058Z</time></trkpt><trkpt lat="42.4486571" lon="14.1190811"><ele>89.0</ele><time>2026-05-02T07:14:43.04Z</time></trkpt><trkpt lat="42.448648" lon="14.119194"><ele>89.0</ele><time>2026-05-02T07:14:47.04Z</time></trkpt><trkpt lat="42.448644" lon="14.1192859"><ele>89.0</ele><time>2026-05-02T07:14:49.04Z</time></trkpt><trkpt lat="42.4486452" lon="14.119382"><ele>89.0</ele><time>2026-05-02T07:14:51.04Z</time></trkpt><trkpt lat="42.4486493" lon="14.1195018"><ele>90.16666666666667</ele><time>2026-05-02T07:14:53.04Z</time></trkpt><trkpt lat="42.4486519" lon="14.1196257"><ele>91.33333333333334</ele><time>2026-05-02T07:14:55.04Z</time></trkpt><trkpt lat="42.4486575" lon="14.1197371"><ele>92.5</ele><time>2026-05-02T07:14:57.041Z</time></trkpt><trkpt lat="42.4486581" lon="14.1198252"><ele>93.66666666666667</ele><time>2026-05-02T07:14:59.04Z</time></trkpt><trkpt lat="42.4486606" lon="14.1199314"><ele>94.83333333333333</ele><time>2026-05-02T07:15:02.04Z</time></trkpt><trkpt lat="42.4486658" lon="14.1200487"><ele>96.0</ele><time>2026-05-02T07:15:05.04Z</time></trkpt><trkpt lat="42.4486697" lon="14.1201574"><ele>97.66666666666667</ele><time>2026-05-02T07:15:08.041Z</time></trkpt><trkpt lat="42.4486708" lon="14.1202675"><ele>99.33333333333334</ele><time>2026-05-02T07:15:11.04Z</time></trkpt><trkpt lat="42.4486724" lon="14.1203794"><ele>101.0</ele><time>2026-05-02T07:15:14.04Z</time></trkpt><trkpt lat="42.4486765" lon="14.1204871"><ele>102.66666666666667</ele><time>2026-05-02T07:15:30.04Z</time></trkpt><trkpt lat="42.4486893" lon="14.1206115"><ele>104.33333333333334</ele><time>2026-05-02T07:15:46.041Z</time></trkpt><trkpt lat="42.4486842" lon="14.1207067"><ele>106.0</ele><time>2026-05-02T07:15:48.04Z</time></trkpt><trkpt lat="42.4486876" lon="14.1208187"><ele>108.4</ele><time>2026-05-02T07:15:50.04Z</time></trkpt><trkpt lat="42.4486897" lon="14.1209615"><ele>110.8</ele><time>2026-05-02T07:15:52.041Z</time></trkpt><trkpt lat="42.4486865" lon="14.1211312"><ele>113.20000000000002</ele><time>2026-05-02T07:15:54.04Z</time></trkpt><trkpt lat="42.448691" lon="14.121275"><ele>115.60000000000001</ele><time>2026-05-02T07:15:56.04Z</time></trkpt><trkpt lat="42.4486975" lon="14.1214042"><ele>118.0</ele><time>2026-05-02T07:15:58.04Z</time></trkpt><trkpt lat="42.4486959" lon="14.121502"><ele>119.50000000000001</ele><time>2026-05-02T07:16:00.04Z</time></trkpt><trkpt lat="42.4486998" lon="14.1216523"><ele>121.0</ele><time>2026-05-02T07:16:03.041Z</time></trkpt><trkpt lat="42.4487099" lon="14.1217388"><ele>122.5</ele><time>2026-05-02T07:16:04.041Z</time></trkpt><trkpt lat="42.4487188" lon="14.1218311"><ele>124.0</ele><time>2026-05-02T07:16:05.04Z</time></trkpt><trkpt lat="42.448733" lon="14.1219285"><ele>125.50000000000001</ele><time>2026-05-02T07:16:06.041Z</time></trkpt><trkpt lat="42.4487543" lon="14.1220401"><ele>127.0</ele><time>2026-05-02T07:16:07.04Z</time></trkpt><trkpt lat="42.4487791" lon="14.1221546"><ele>126.83333333333334</ele><time>2026-05-02T07:16:08.04Z</time></trkpt><trkpt lat="42.4488106" lon="14.1222582"><ele>126.66666666666667</ele><time>2026-05-02T07:16:09.04Z</time></trkpt><trkpt lat="42.4488402" lon="14.1223489"><ele>126.5</ele><time>2026-05-02T07:16:10.04Z</time></trkpt><trkpt lat="42.4488728" lon="14.1224395"><ele>126.33333333333334</ele><time>2026-05-02T07:16:11.041Z</time></trkpt><trkpt lat="42.448909" lon="14.1225536"><ele>126.16666666666667</ele><time>2026-05-02T07:16:13.04Z</time></trkpt><trkpt lat="42.4488242" lon="14.1225976"><ele>126.0</ele><time>2026-05-02T07:16:17.041Z</time></trkpt><trkpt lat="42.4487156" lon="14.1225754"><ele>126.8</ele><time>2026-05-02T07:16:19.04Z</time></trkpt><trkpt lat="42.4486327" lon="14.1225413"><ele>127.6</ele><time>2026-05-02T07:16:21.04Z</time></trkpt><trkpt lat="42.4486685" lon="14.1226179"><ele>128.4</ele><time>2026-05-02T07:17:39.04Z</time></trkpt><trkpt lat="42.4485807" lon="14.1225608"><ele>129.2</ele><time>2026-05-02T07:24:05.04Z</time></trkpt><trkpt lat="42.448463" lon="14.1224711"><ele>130.0</ele><time>2026-05-02T07:24:07.04Z</time></trkpt><trkpt lat="42.4483799" lon="14.1224102"><ele>129.4</ele><time>2026-05-02T07:24:08.04Z</time></trkpt><trkpt lat="42.4482942" lon="14.1223518"><ele>128.8</ele><time>2026-05-02T07:24:09.041Z</time></trkpt><trkpt lat="42.4482013" lon="14.1222849"><ele>128.2</ele><time>2026-05-02T07:24:10.04Z</time></trkpt><trkpt lat="42.4480961" lon="14.1222169"><ele>127.6</ele><time>2026-05-02T07:24:11.04Z</time></trkpt><trkpt lat="42.4479902" lon="14.1221412"><ele>127.0</ele><time>2026-05-02T07:24:12.04Z</time></trkpt><trkpt lat="42.4478834" lon="14.1220732"><ele>128.6</ele><time>2026-05-02T07:24:13.04Z</time></trkpt><trkpt lat="42.4477829" lon="14.1220034"><ele>130.2</ele><time>2026-05-02T07:24:14.041Z</time></trkpt><trkpt lat="42.4476844" lon="14.1219341"><ele>131.8</ele><time>2026-05-02T07:24:15.04Z</time></trkpt><trkpt lat="42.447589" lon="14.1218652"><ele>133.4</ele><time>2026-05-02T07:24:16.04Z</time></trkpt><trkpt lat="42.4474901" lon="14.1218202"><ele>135.0</ele><time>2026-05-02T07:24:17.04Z</time></trkpt><trkpt lat="42.4473909" lon="14.1217798"><ele>135.0</ele><time>2026-05-02T07:24:18.041Z</time></trkpt><trkpt lat="42.4472802" lon="14.1217599"><ele>135.0</ele><time>2026-05-02T07:24:19.041Z</time></trkpt><trkpt lat="42.4471688" lon="14.1217449"><ele>135.0</ele><time>2026-05-02T07:24:20.04Z</time></trkpt><trkpt lat="42.4470591" lon="14.1217302"><ele>135.0</ele><time>2026-05-02T07:24:21.04Z</time></trkpt><trkpt lat="42.4469444" lon="14.1217143"><ele>135.0</ele><time>2026-05-02T07:24:22.04Z</time></trkpt><trkpt lat="42.4468231" lon="14.1217055"><ele>134.25</ele><time>2026-05-02T07:24:23.041Z</time></trkpt><trkpt lat="42.4466997" lon="14.1217018"><ele>133.5</ele><time>2026-05-02T07:24:24.04Z</time></trkpt><trkpt lat="42.4465773" lon="14.1217172"><ele>132.75</ele><time>2026-05-02T07:24:25.04Z</time></trkpt><trkpt lat="42.4464574" lon="14.1217564"><ele>132.0</ele><time>2026-05-02T07:24:26.04Z</time></trkpt><trkpt lat="42.4463349" lon="14.1217984"><ele>131.0</ele><time>2026-05-02T07:24:27.04Z</time></trkpt><trkpt lat="42.4462086" lon="14.1218314"><ele>130.0</ele><time>2026-05-02T07:24:28.041Z</time></trkpt><trkpt lat="42.4460946" lon="14.121855"><ele>129.0</ele><time>2026-05-02T07:24:29.04Z</time></trkpt><trkpt lat="42.4459881" lon="14.1218813"><ele>128.0</ele><time>2026-05-02T07:24:30.041Z</time></trkpt><trkpt lat="42.4458909" lon="14.121909"><ele>128.0</ele><time>2026-05-02T07:24:31.04Z</time></trkpt><trkpt lat="42.4457961" lon="14.1219523"><ele>128.0</ele><time>2026-05-02T07:24:32.04Z</time></trkpt><trkpt lat="42.4457009" lon="14.1220256"><ele>128.0</ele><time>2026-05-02T07:24:33.04Z</time></trkpt><trkpt lat="42.4456168" lon="14.1221201"><ele>128.0</ele><time>2026-05-02T07:24:34.04Z</time></trkpt><trkpt lat="42.445534" lon="14.1222356"><ele>128.0</ele><time>2026-05-02T07:24:35.04Z</time></trkpt><trkpt lat="42.4454382" lon="14.1223425"><ele>127.5</ele><time>2026-05-02T07:24:36.04Z</time></trkpt><trkpt lat="42.4453437" lon="14.1224483"><ele>127.0</ele><time>2026-05-02T07:24:37.04Z</time></trkpt><trkpt lat="42.4452426" lon="14.1225403"><ele>126.5</ele><time>2026-05-02T07:24:38.04Z</time></trkpt><trkpt lat="42.4451314" lon="14.1226117"><ele>126.0</ele><time>2026-05-02T07:24:39.04Z</time></trkpt><trkpt lat="42.4450127" lon="14.1226759"><ele>126.0</ele><time>2026-05-02T07:24:40.04Z</time></trkpt><trkpt lat="42.4449046" lon="14.1227387"><ele>126.0</ele><time>2026-05-02T07:24:41.04Z</time></trkpt><trkpt lat="42.4448032" lon="14.1228194"><ele>126.0</ele><time>2026-05-02T07:24:42.04Z</time></trkpt><trkpt lat="42.4447022" lon="14.122921"><ele>126.0</ele><time>2026-05-02T07:24:43.04Z</time></trkpt><trkpt lat="42.4446095" lon="14.123043"><ele>124.25</ele><time>2026-05-02T07:24:44.041Z</time></trkpt><trkpt lat="42.4445172" lon="14.1231634"><ele>122.5</ele><time>2026-05-02T07:24:45.04Z</time></trkpt><trkpt lat="42.4444243" lon="14.1232763"><ele>120.75</ele><time>2026-05-02T07:24:46.04Z</time></trkpt><trkpt lat="42.4443266" lon="14.1233632"><ele>119.0</ele><time>2026-05-02T07:24:47.04Z</time></trkpt><trkpt lat="42.4442239" lon="14.1234223"><ele>119.0</ele><time>2026-05-02T07:24:48.04Z</time></trkpt><trkpt lat="42.4441228" lon="14.1234432"><ele>119.0</ele><time>2026-05-02T07:24:49.041Z</time></trkpt><trkpt lat="42.4440111" lon="14.1234263"><ele>119.0</ele><time>2026-05-02T07:24:50.04Z</time></trkpt><trkpt lat="42.4438941" lon="14.1234169"><ele>119.0</ele><time>2026-05-02T07:24:51.04Z</time></trkpt><trkpt lat="42.4437688" lon="14.1234282"><ele>117.0</ele><time>2026-05-02T07:24:52.04Z</time></trkpt><trkpt lat="42.4436392" lon="14.1234729"><ele>115.0</ele><time>2026-05-02T07:24:53.04Z</time></trkpt><trkpt lat="42.4434955" lon="14.1235278"><ele>113.0</ele><time>2026-05-02T07:24:54.041Z</time></trkpt><trkpt lat="42.4433521" lon="14.1235778"><ele>111.0</ele><time>2026-05-02T07:24:55.04Z</time></trkpt><trkpt lat="42.4432119" lon="14.1236166"><ele>111.0</ele><time>2026-05-02T07:24:56.04Z</time></trkpt><trkpt lat="42.443076" lon="14.1236576"><ele>111.0</ele><time>2026-05-02T07:24:57.041Z</time></trkpt><trkpt lat="42.44295" lon="14.1237057"><ele>111.0</ele><time>2026-05-02T07:24:58.04Z</time></trkpt><trkpt lat="42.4428203" lon="14.1237526"><ele>111.0</ele><time>2026-05-02T07:24:59.04Z</time></trkpt><trkpt lat="42.4426817" lon="14.1237964"><ele>111.5</ele><time>2026-05-02T07:25:00.04Z</time></trkpt><trkpt lat="42.4425409" lon="14.1238278"><ele>112.0</ele><time>2026-05-02T07:25:01.04Z</time></trkpt><trkpt lat="42.4423974" lon="14.1238587"><ele>112.5</ele><time>2026-05-02T07:25:02.041Z</time></trkpt><trkpt lat="42.4422514" lon="14.1238954"><ele>113.0</ele><time>2026-05-02T07:25:03.04Z</time></trkpt><trkpt lat="42.4421024" lon="14.1239228"><ele>113.0</ele><time>2026-05-02T07:25:04.041Z</time></trkpt><trkpt lat="42.4419602" lon="14.1239283"><ele>113.0</ele><time>2026-05-02T07:25:05.04Z</time></trkpt><trkpt lat="42.441816" lon="14.1239194"><ele>113.0</ele><time>2026-05-02T07:25:06.04Z</time></trkpt><trkpt lat="42.4416706" lon="14.1238943"><ele>113.0</ele><time>2026-05-02T07:25:07.04Z</time></trkpt><trkpt lat="42.4415237" lon="14.1238595"><ele>113.0</ele><time>2026-05-02T07:25:08.041Z</time></trkpt><trkpt lat="42.4413949" lon="14.1238152"><ele>113.0</ele><time>2026-05-02T07:25:09.04Z</time></trkpt><trkpt lat="42.4412759" lon="14.1237572"><ele>113.0</ele><time>2026-05-02T07:25:10.041Z</time></trkpt><trkpt lat="42.4411623" lon="14.1236866"><ele>113.0</ele><time>2026-05-02T07:25:11.04Z</time></trkpt><trkpt lat="42.4410473" lon="14.1236151"><ele>111.25</ele><time>2026-05-02T07:25:12.04Z</time></trkpt><trkpt lat="42.4409347" lon="14.1235369"><ele>109.5</ele><time>2026-05-02T07:25:13.04Z</time></trkpt><trkpt lat="42.4408165" lon="14.1234589"><ele>107.75</ele><time>2026-05-02T07:25:14.04Z</time></trkpt><trkpt lat="42.4406945" lon="14.1233882"><ele>106.0</ele><time>2026-05-02T07:25:15.041Z</time></trkpt><trkpt lat="42.4405648" lon="14.123328"><ele>106.25</ele><time>2026-05-02T07:25:16.04Z</time></trkpt><trkpt lat="42.4404251" lon="14.1232853"><ele>106.5</ele><time>2026-05-02T07:25:17.04Z</time></trkpt><trkpt lat="42.4402785" lon="14.1232402"><ele>106.75</ele><time>2026-05-02T07:25:18.04Z</time></trkpt><trkpt lat="42.4401507" lon="14.1232183"><ele>107.0</ele><time>2026-05-02T07:25:19.04Z</time></trkpt><trkpt lat="42.4400234" lon="14.1232077"><ele>107.0</ele><time>2026-05-02T07:25:20.04Z</time></trkpt><trkpt lat="42.4398991" lon="14.1232013"><ele>107.0</ele><time>2026-05-02T07:25:21.04Z</time></trkpt><trkpt lat="42.4397729" lon="14.1232017"><ele>107.0</ele><time>2026-05-02T07:25:22.04Z</time></trkpt><trkpt lat="42.4396488" lon="14.1232271"><ele>107.0</ele><time>2026-05-02T07:25:23.04Z</time></trkpt><trkpt lat="42.4395214" lon="14.123272"><ele>100.25</ele><time>2026-05-02T07:25:24.041Z</time></trkpt><trkpt lat="42.4393926" lon="14.1233336"><ele>93.5</ele><time>2026-05-02T07:25:25.04Z</time></trkpt><trkpt lat="42.4392683" lon="14.1233975"><ele>86.75</ele><time>2026-05-02T07:25:26.041Z</time></trkpt><trkpt lat="42.4391329" lon="14.1234465"><ele>80.0</ele><time>2026-05-02T07:25:27.041Z</time></trkpt><trkpt lat="42.4389935" lon="14.1234737"><ele>80.0</ele><time>2026-05-02T07:25:28.04Z</time></trkpt><trkpt lat="42.4388493" lon="14.1234887"><ele>80.0</ele><time>2026-05-02T07:25:29.041Z</time></trkpt><trkpt lat="42.4387057" lon="14.1235109"><ele>80.0</ele><time>2026-05-02T07:25:30.04Z</time></trkpt><trkpt lat="42.4385568" lon="14.1235363"><ele>80.0</ele><time>2026-05-02T07:25:31.04Z</time></trkpt><trkpt lat="42.4384113" lon="14.1235778"><ele>77.25</ele><time>2026-05-02T07:25:32.04Z</time></trkpt><trkpt lat="42.4382532" lon="14.1236324"><ele>74.5</ele><time>2026-05-02T07:25:33.04Z</time></trkpt><trkpt lat="42.4381173" lon="14.123676"><ele>71.75</ele><time>2026-05-02T07:25:34.04Z</time></trkpt><trkpt lat="42.4379794" lon="14.1237162"><ele>69.0</ele><time>2026-05-02T07:25:35.04Z</time></trkpt><trkpt lat="42.4378433" lon="14.1237486"><ele>68.8</ele><time>2026-05-02T07:25:36.041Z</time></trkpt><trkpt lat="42.4377398" lon="14.1237645"><ele>68.60000000000001</ele><time>2026-05-02T07:25:37.04Z</time></trkpt><trkpt lat="42.4376387" lon="14.1237541"><ele>68.4</ele><time>2026-05-02T07:25:38.04Z</time></trkpt><trkpt lat="42.4375357" lon="14.1236884"><ele>68.2</ele><time>2026-05-02T07:25:39.04Z</time></trkpt><trkpt lat="42.4374297" lon="14.1236566"><ele>68.0</ele><time>2026-05-02T07:25:40.041Z</time></trkpt><trkpt lat="42.437323" lon="14.1236368"><ele>68.0</ele><time>2026-05-02T07:25:41.04Z</time></trkpt><trkpt lat="42.437228" lon="14.1236001"><ele>68.0</ele><time>2026-05-02T07:25:42.04Z</time></trkpt><trkpt lat="42.4371307" lon="14.1235344"><ele>68.0</ele><time>2026-05-02T07:25:43.041Z</time></trkpt><trkpt lat="42.4370272" lon="14.1234644"><ele>68.0</ele><time>2026-05-02T07:25:44.04Z</time></trkpt><trkpt lat="42.4369245" lon="14.1234025"><ele>68.0</ele><time>2026-05-02T07:25:45.04Z</time></trkpt><trkpt lat="42.4368304" lon="14.1233631"><ele>66.66666666666667</ele><time>2026-05-02T07:25:46.041Z</time></trkpt><trkpt lat="42.4367516" lon="14.1233243"><ele>65.33333333333334</ele><time>2026-05-02T07:25:47.04Z</time></trkpt><trkpt lat="42.4366851" lon="14.1232972"><ele>64.0</ele><time>2026-05-02T07:25:48.04Z</time></trkpt><trkpt lat="42.4366229" lon="14.1232836"><ele>62.66666666666667</ele><time>2026-05-02T07:25:49.04Z</time></trkpt><trkpt lat="42.4365568" lon="14.1232663"><ele>61.333333333333336</ele><time>2026-05-02T07:25:50.04Z</time></trkpt><trkpt lat="42.4364943" lon="14.1232464"><ele>60.0</ele><time>2026-05-02T07:25:51.04Z</time></trkpt><trkpt lat="42.4363621" lon="14.123198"><ele>60.8</ele><time>2026-05-02T07:25:53.04Z</time></trkpt><trkpt lat="42.4362795" lon="14.1231781"><ele>61.6</ele><time>2026-05-02T07:25:54.04Z</time></trkpt><trkpt lat="42.4361815" lon="14.1231612"><ele>62.400000000000006</ele><time>2026-05-02T07:25:55.04Z</time></trkpt><trkpt lat="42.4360753" lon="14.1231374"><ele>63.2</ele><time>2026-05-02T07:25:56.04Z</time></trkpt><trkpt lat="42.4359665" lon="14.1231017"><ele>64.0</ele><time>2026-05-02T07:25:57.04Z</time></trkpt><trkpt lat="42.4358605" lon="14.1230698"><ele>64.0</ele><time>2026-05-02T07:25:58.04Z</time></trkpt><trkpt lat="42.4357594" lon="14.1230567"><ele>64.0</ele><time>2026-05-02T07:25:59.04Z</time></trkpt><trkpt lat="42.4356585" lon="14.1230751"><ele>64.0</ele><time>2026-05-02T07:26:00.04Z</time></trkpt><trkpt lat="42.4355605" lon="14.1231324"><ele>64.0</ele><time>2026-05-02T07:26:01.041Z</time></trkpt><trkpt lat="42.4354561" lon="14.1232172"><ele>64.0</ele><time>2026-05-02T07:26:02.04Z</time></trkpt><trkpt lat="42.4353427" lon="14.1233313"><ele>64.66666666666666</ele><time>2026-05-02T07:26:03.04Z</time></trkpt><trkpt lat="42.4352298" lon="14.1234616"><ele>65.33333333333333</ele><time>2026-05-02T07:26:04.04Z</time></trkpt><trkpt lat="42.435106" lon="14.1236042"><ele>66.0</ele><time>2026-05-02T07:26:05.04Z</time></trkpt><trkpt lat="42.4349766" lon="14.1237575"><ele>66.0</ele><time>2026-05-02T07:26:06.04Z</time></trkpt><trkpt lat="42.434841" lon="14.1239263"><ele>66.0</ele><time>2026-05-02T07:26:07.04Z</time></trkpt><trkpt lat="42.4347112" lon="14.1240906"><ele>66.0</ele><time>2026-05-02T07:26:08.04Z</time></trkpt><trkpt lat="42.4345904" lon="14.1242521"><ele>65.33333333333333</ele><time>2026-05-02T07:26:09.04Z</time></trkpt><trkpt lat="42.4344744" lon="14.1244102"><ele>64.66666666666666</ele><time>2026-05-02T07:26:10.04Z</time></trkpt><trkpt lat="42.4343619" lon="14.1245693"><ele>64.0</ele><time>2026-05-02T07:26:11.04Z</time></trkpt><trkpt lat="42.434251" lon="14.1247289"><ele>64.0</ele><time>2026-05-02T07:26:12.04Z</time></trkpt><trkpt lat="42.4341495" lon="14.124879"><ele>64.0</ele><time>2026-05-02T07:26:13.04Z</time></trkpt><trkpt lat="42.4340512" lon="14.1250178"><ele>64.0</ele><time>2026-05-02T07:26:14.04Z</time></trkpt><trkpt lat="42.4339601" lon="14.1251472"><ele>64.0</ele><time>2026-05-02T07:26:15.04Z</time></trkpt><trkpt lat="42.4338834" lon="14.1252609"><ele>63.400000000000006</ele><time>2026-05-02T07:26:16.04Z</time></trkpt><trkpt lat="42.4338212" lon="14.1253408"><ele>62.800000000000004</ele><time>2026-05-02T07:26:17.041Z</time></trkpt><trkpt lat="42.4337262" lon="14.1254114"><ele>62.199999999999996</ele><time>2026-05-02T07:26:19.04Z</time></trkpt><trkpt lat="42.4336343" lon="14.1253623"><ele>61.599999999999994</ele><time>2026-05-02T07:26:21.04Z</time></trkpt><trkpt lat="42.433559" lon="14.125249"><ele>61.0</ele><time>2026-05-02T07:26:23.04Z</time></trkpt><trkpt lat="42.4335141" lon="14.1251648"><ele>61.0</ele><time>2026-05-02T07:26:24.04Z</time></trkpt><trkpt lat="42.4334597" lon="14.1251021"><ele>60.99999999999999</ele><time>2026-05-02T07:26:25.04Z</time></trkpt><trkpt lat="42.4333615" lon="14.1251147"><ele>60.99999999999999</ele><time>2026-05-02T07:26:27.04Z</time></trkpt><trkpt lat="42.433262" lon="14.1252116"><ele>61.0</ele><time>2026-05-02T07:26:29.04Z</time></trkpt><trkpt lat="42.4332013" lon="14.1252855"><ele>61.0</ele><time>2026-05-02T07:26:30.04Z</time></trkpt><trkpt lat="42.4331223" lon="14.1253558"><ele>61.0</ele><time>2026-05-02T07:26:31.04Z</time></trkpt><trkpt lat="42.4330281" lon="14.1254277"><ele>61.0</ele><time>2026-05-02T07:26:32.04Z</time></trkpt><trkpt lat="42.4329173" lon="14.1254972"><ele>61.0</ele><time>2026-05-02T07:26:33.04Z</time></trkpt><trkpt lat="42.4328105" lon="14.1255773"><ele>61.0</ele><time>2026-05-02T07:26:34.04Z</time></trkpt><trkpt lat="42.432712" lon="14.1256606"><ele>61.4</ele><time>2026-05-02T07:26:35.04Z</time></trkpt><trkpt lat="42.4326361" lon="14.1257502"><ele>61.8</ele><time>2026-05-02T07:26:36.04Z</time></trkpt><trkpt lat="42.4325635" lon="14.1258367"><ele>62.199999999999996</ele><time>2026-05-02T07:26:37.04Z</time></trkpt><trkpt lat="42.4324913" lon="14.125899"><ele>62.599999999999994</ele><time>2026-05-02T07:26:38.04Z</time></trkpt><trkpt lat="42.4324028" lon="14.1259529"><ele>63.0</ele><time>2026-05-02T07:26:39.04Z</time></trkpt><trkpt lat="42.4323028" lon="14.1260107"><ele>63.0</ele><time>2026-05-02T07:26:40.041Z</time></trkpt><trkpt lat="42.4321849" lon="14.1260856"><ele>63.0</ele><time>2026-05-02T07:26:41.041Z</time></trkpt><trkpt lat="42.4320741" lon="14.1261502"><ele>63.0</ele><time>2026-05-02T07:26:42.04Z</time></trkpt><trkpt lat="42.4319807" lon="14.1262078"><ele>63.0</ele><time>2026-05-02T07:26:43.04Z</time></trkpt><trkpt lat="42.4319015" lon="14.1262637"><ele>63.0</ele><time>2026-05-02T07:26:44.04Z</time></trkpt><trkpt lat="42.43183" lon="14.1263033"><ele>64.8</ele><time>2026-05-02T07:26:45.04Z</time></trkpt><trkpt lat="42.4317468" lon="14.1263146"><ele>66.6</ele><time>2026-05-02T07:26:46.04Z</time></trkpt><trkpt lat="42.4316568" lon="14.1263158"><ele>68.4</ele><time>2026-05-02T07:26:47.04Z</time></trkpt><trkpt lat="42.4315523" lon="14.1263284"><ele>70.2</ele><time>2026-05-02T07:26:48.04Z</time></trkpt><trkpt lat="42.4314451" lon="14.1263457"><ele>72.0</ele><time>2026-05-02T07:26:49.04Z</time></trkpt><trkpt lat="42.4313315" lon="14.1263735"><ele>73.0</ele><time>2026-05-02T07:26:50.04Z</time></trkpt><trkpt lat="42.4312222" lon="14.1264134"><ele>74.0</ele><time>2026-05-02T07:26:51.04Z</time></trkpt><trkpt lat="42.4311037" lon="14.1264561"><ele>75.0</ele><time>2026-05-02T07:26:52.04Z</time></trkpt><trkpt lat="42.4309835" lon="14.1265113"><ele>76.0</ele><time>2026-05-02T07:26:53.04Z</time></trkpt><trkpt lat="42.4308804" lon="14.1265825"><ele>76.0</ele><time>2026-05-02T07:26:54.04Z</time></trkpt><trkpt lat="42.4307869" lon="14.1266684"><ele>76.0</ele><time>2026-05-02T07:26:55.041Z</time></trkpt><trkpt lat="42.4306963" lon="14.1267608"><ele>76.0</ele><time>2026-05-02T07:26:56.04Z</time></trkpt><trkpt lat="42.4306132" lon="14.1268386"><ele>76.0</ele><time>2026-05-02T07:26:57.04Z</time></trkpt><trkpt lat="42.4305417" lon="14.1268969"><ele>76.0</ele><time>2026-05-02T07:26:58.041Z</time></trkpt><trkpt lat="42.4304726" lon="14.1269165"><ele>76.83333333333333</ele><time>2026-05-02T07:26:59.04Z</time></trkpt><trkpt lat="42.4303527" lon="14.1268966"><ele>77.66666666666666</ele><time>2026-05-02T07:27:01.04Z</time></trkpt><trkpt lat="42.4302932" lon="14.12685"><ele>78.5</ele><time>2026-05-02T07:27:03.04Z</time></trkpt><trkpt lat="42.4302576" lon="14.1267492"><ele>79.33333333333333</ele><time>2026-05-02T07:27:07.04Z</time></trkpt><trkpt lat="42.4301739" lon="14.1267231"><ele>80.16666666666667</ele><time>2026-05-02T07:27:26.04Z</time></trkpt><trkpt lat="42.4301066" lon="14.126733"><ele>81.0</ele><time>2026-05-02T07:27:28.04Z</time></trkpt><trkpt lat="42.4300115" lon="14.1267807"><ele>81.0</ele><time>2026-05-02T07:27:30.041Z</time></trkpt><trkpt lat="42.4299457" lon="14.1268162"><ele>81.0</ele><time>2026-05-02T07:27:31.04Z</time></trkpt><trkpt lat="42.42988" lon="14.1268424"><ele>81.0</ele><time>2026-05-02T07:27:32.04Z</time></trkpt><trkpt lat="42.4298091" lon="14.1268631"><ele>81.0</ele><time>2026-05-02T07:27:33.04Z</time></trkpt><trkpt lat="42.4297359" lon="14.1268837"><ele>81.0</ele><time>2026-05-02T07:27:34.04Z</time></trkpt><trkpt lat="42.4296609" lon="14.1269006"><ele>81.0</ele><time>2026-05-02T07:27:35.04Z</time></trkpt><trkpt lat="42.4295909" lon="14.1269099"><ele>81.0</ele><time>2026-05-02T07:27:36.04Z</time></trkpt><trkpt lat="42.4295142" lon="14.1269135"><ele>78.66666666666667</ele><time>2026-05-02T07:27:37.04Z</time></trkpt><trkpt lat="42.4294418" lon="14.1269071"><ele>76.33333333333333</ele><time>2026-05-02T07:27:38.04Z</time></trkpt><trkpt lat="42.4293644" lon="14.1269029"><ele>74.0</ele><time>2026-05-02T07:27:39.04Z</time></trkpt><trkpt lat="42.4292826" lon="14.1268955"><ele>71.66666666666666</ele><time>2026-05-02T07:27:40.04Z</time></trkpt><trkpt lat="42.4291942" lon="14.1268877"><ele>69.33333333333333</ele><time>2026-05-02T07:27:41.04Z</time></trkpt><trkpt lat="42.4291048" lon="14.1268768"><ele>67.0</ele><time>2026-05-02T07:27:42.04Z</time></trkpt><trkpt lat="42.4290258" lon="14.126853"><ele>67.0</ele><time>2026-05-02T07:27:43.041Z</time></trkpt><trkpt lat="42.4289512" lon="14.1268184"><ele>67.0</ele><time>2026-05-02T07:27:44.04Z</time></trkpt><trkpt lat="42.428875" lon="14.1267722"><ele>67.0</ele><time>2026-05-02T07:27:45.04Z</time></trkpt><trkpt lat="42.4288082" lon="14.1267014"><ele>67.0</ele><time>2026-05-02T07:27:46.04Z</time></trkpt><trkpt lat="42.4287484" lon="14.1266253"><ele>67.0</ele><time>2026-05-02T07:27:47.041Z</time></trkpt><trkpt lat="42.4287029" lon="14.1265476"><ele>67.0</ele><time>2026-05-02T07:27:48.041Z</time></trkpt><trkpt lat="42.4286666" lon="14.1264689"><ele>64.85714285714286</ele><time>2026-05-02T07:27:49.04Z</time></trkpt><trkpt lat="42.4286276" lon="14.1263942"><ele>62.71428571428571</ele><time>2026-05-02T07:27:50.04Z</time></trkpt><trkpt lat="42.4285857" lon="14.1263177"><ele>60.57142857142857</ele><time>2026-05-02T07:27:51.04Z</time></trkpt><trkpt lat="42.4285444" lon="14.1262497"><ele>58.42857142857143</ele><time>2026-05-02T07:27:52.04Z</time></trkpt><trkpt lat="42.4285016" lon="14.1261853"><ele>56.28571428571429</ele><time>2026-05-02T07:27:53.041Z</time></trkpt><trkpt lat="42.4284511" lon="14.12613"><ele>54.14285714285714</ele><time>2026-05-02T07:27:54.041Z</time></trkpt><trkpt lat="42.4283992" lon="14.1260784"><ele>52.0</ele><time>2026-05-02T07:27:55.04Z</time></trkpt><trkpt lat="42.4282911" lon="14.1260196"><ele>51.99999999999999</ele><time>2026-05-02T07:27:57.041Z</time></trkpt><trkpt lat="42.4281851" lon="14.1259944"><ele>52.0</ele><time>2026-05-02T07:27:59.04Z</time></trkpt><trkpt lat="42.4280821" lon="14.126005"><ele>52.0</ele><time>2026-05-02T07:28:01.04Z</time></trkpt><trkpt lat="42.4280188" lon="14.1260233"><ele>52.0</ele><time>2026-05-02T07:28:02.04Z</time></trkpt><trkpt lat="42.42795" lon="14.1260246"><ele>51.99999999999999</ele><time>2026-05-02T07:28:03.04Z</time></trkpt><trkpt lat="42.4278848" lon="14.1260202"><ele>52.0</ele><time>2026-05-02T07:28:04.04Z</time></trkpt><trkpt lat="42.4278062" lon="14.1259994"><ele>50.6</ele><time>2026-05-02T07:28:05.04Z</time></trkpt><trkpt lat="42.4277248" lon="14.1259766"><ele>49.2</ele><time>2026-05-02T07:28:06.04Z</time></trkpt><trkpt lat="42.4276344" lon="14.1259339"><ele>47.8</ele><time>2026-05-02T07:28:07.041Z</time></trkpt><trkpt lat="42.4275464" lon="14.1258865"><ele>46.4</ele><time>2026-05-02T07:28:08.04Z</time></trkpt><trkpt lat="42.4274658" lon="14.125841"><ele>45.0</ele><time>2026-05-02T07:28:09.04Z</time></trkpt><trkpt lat="42.4273811" lon="14.1257926"><ele>45.0</ele><time>2026-05-02T07:28:10.04Z</time></trkpt><trkpt lat="42.4272955" lon="14.1257599"><ele>45.0</ele><time>2026-05-02T07:28:11.04Z</time></trkpt><trkpt lat="42.4272105" lon="14.125742"><ele>45.0</ele><time>2026-05-02T07:28:12.04Z</time></trkpt><trkpt lat="42.4271307" lon="14.1257348"><ele>45.0</ele><time>2026-05-02T07:28:13.04Z</time></trkpt><trkpt lat="42.4270551" lon="14.1257274"><ele>45.0</ele><time>2026-05-02T07:28:14.04Z</time></trkpt><trkpt lat="42.4269869" lon="14.1257123"><ele>45.0</ele><time>2026-05-02T07:28:15.041Z</time></trkpt><trkpt lat="42.4268797" lon="14.1256536"><ele>43.2</ele><time>2026-05-02T07:28:17.04Z</time></trkpt><trkpt lat="42.4268105" lon="14.1255732"><ele>41.4</ele><time>2026-05-02T07:28:19.04Z</time></trkpt><trkpt lat="42.4267942" lon="14.1254722"><ele>39.6</ele><time>2026-05-02T07:28:22.04Z</time></trkpt><trkpt lat="42.4268106" lon="14.1253123"><ele>37.8</ele><time>2026-05-02T07:28:24.04Z</time></trkpt><trkpt lat="42.4268253" lon="14.1251934"><ele>36.0</ele><time>2026-05-02T07:28:25.04Z</time></trkpt><trkpt lat="42.4268524" lon="14.1250591"><ele>36.0</ele><time>2026-05-02T07:28:26.041Z</time></trkpt><trkpt lat="42.426876" lon="14.1249278"><ele>36.0</ele><time>2026-05-02T07:28:27.041Z</time></trkpt><trkpt lat="42.4268965" lon="14.1247992"><ele>36.0</ele><time>2026-05-02T07:28:28.04Z</time></trkpt><trkpt lat="42.4269177" lon="14.1246812"><ele>36.0</ele><time>2026-05-02T07:28:29.04Z</time></trkpt><trkpt lat="42.4269281" lon="14.124592"><ele>36.0</ele><time>2026-05-02T07:28:30.04Z</time></trkpt><trkpt lat="42.4269063" lon="14.1244548"><ele>36.6</ele><time>2026-05-02T07:28:32.04Z</time></trkpt><trkpt lat="42.4268528" lon="14.1243732"><ele>37.2</ele><time>2026-05-02T07:28:34.041Z</time></trkpt><trkpt lat="42.4267395" lon="14.1242766"><ele>37.8</ele><time>2026-05-02T07:28:36.04Z</time></trkpt><trkpt lat="42.4266498" lon="14.1242177"><ele>38.4</ele><time>2026-05-02T07:28:37.04Z</time></trkpt><trkpt lat="42.4265722" lon="14.1241545"><ele>39.0</ele><time>2026-05-02T07:28:38.04Z</time></trkpt><trkpt lat="42.4265009" lon="14.124065"><ele>40.25</ele><time>2026-05-02T07:28:39.04Z</time></trkpt><trkpt lat="42.4264422" lon="14.1239399"><ele>41.5</ele><time>2026-05-02T07:28:40.04Z</time></trkpt><trkpt lat="42.4263982" lon="14.1237801"><ele>42.75</ele><time>2026-05-02T07:28:41.04Z</time></trkpt><trkpt lat="42.4263626" lon="14.1236076"><ele>44.0</ele><time>2026-05-02T07:28:42.04Z</time></trkpt><trkpt lat="42.426325" lon="14.1234063"><ele>42.5</ele><time>2026-05-02T07:28:43.04Z</time></trkpt><trkpt lat="42.4262881" lon="14.1232083"><ele>41.0</ele><time>2026-05-02T07:28:44.04Z</time></trkpt><trkpt lat="42.4262577" lon="14.123032"><ele>39.5</ele><time>2026-05-02T07:28:45.04Z</time></trkpt><trkpt lat="42.426235" lon="14.1228752"><ele>38.0</ele><time>2026-05-02T07:28:46.04Z</time></trkpt><trkpt lat="42.4262181" lon="14.1227332"><ele>38.0</ele><time>2026-05-02T07:28:47.04Z</time></trkpt><trkpt lat="42.4262011" lon="14.1226077"><ele>38.0</ele><time>2026-05-02T07:28:48.04Z</time></trkpt><trkpt lat="42.4261847" lon="14.122506"><ele>38.0</ele><time>2026-05-02T07:28:49.04Z</time></trkpt><trkpt lat="42.4261711" lon="14.1223704"><ele>38.0</ele><time>2026-05-02T07:28:51.04Z</time></trkpt><trkpt lat="42.4261445" lon="14.1222748"><ele>38.0</ele><time>2026-05-02T07:28:53.04Z</time></trkpt><trkpt lat="42.4261372" lon="14.1221761"><ele>38.0</ele><time>2026-05-02T07:28:54.04Z</time></trkpt><trkpt lat="42.4261251" lon="14.1220692"><ele>38.25</ele><time>2026-05-02T07:28:55.041Z</time></trkpt><trkpt lat="42.4261086" lon="14.1219298"><ele>38.5</ele><time>2026-05-02T07:28:56.041Z</time></trkpt><trkpt lat="42.4260913" lon="14.1217905"><ele>38.75</ele><time>2026-05-02T07:28:57.04Z</time></trkpt><trkpt lat="42.4260628" lon="14.1216213"><ele>39.0</ele><time>2026-05-02T07:28:58.04Z</time></trkpt><trkpt lat="42.4260379" lon="14.1214464"><ele>39.666666666666664</ele><time>2026-05-02T07:28:59.041Z</time></trkpt><trkpt lat="42.4260128" lon="14.1212592"><ele>40.33333333333333</ele><time>2026-05-02T07:29:00.04Z</time></trkpt><trkpt lat="42.4259801" lon="14.1210515"><ele>41.0</ele><time>2026-05-02T07:29:01.04Z</time></trkpt><trkpt lat="42.4259199" lon="14.1208423"><ele>42.33333333333333</ele><time>2026-05-02T07:29:02.04Z</time></trkpt><trkpt lat="42.4258377" lon="14.1206431"><ele>43.666666666666664</ele><time>2026-05-02T07:29:03.04Z</time></trkpt><trkpt lat="42.4257533" lon="14.1204443"><ele>45.0</ele><time>2026-05-02T07:29:04.04Z</time></trkpt><trkpt lat="42.4256722" lon="14.120247"><ele>45.0</ele><time>2026-05-02T07:29:05.04Z</time></trkpt><trkpt lat="42.425602" lon="14.1200361"><ele>45.0</ele><time>2026-05-02T07:29:06.04Z</time></trkpt><trkpt lat="42.4255492" lon="14.1198207"><ele>45.0</ele><time>2026-05-02T07:29:07.04Z</time></trkpt><trkpt lat="42.4255036" lon="14.1195877"><ele>43.0</ele><time>2026-05-02T07:29:08.04Z</time></trkpt><trkpt lat="42.4254652" lon="14.11934"><ele>41.0</ele><time>2026-05-02T07:29:09.04Z</time></trkpt><trkpt lat="42.4254269" lon="14.1190829"><ele>39.0</ele><time>2026-05-02T07:29:10.041Z</time></trkpt><trkpt lat="42.4253865" lon="14.1188222"><ele>39.0</ele><time>2026-05-02T07:29:11.04Z</time></trkpt><trkpt lat="42.4253425" lon="14.1185686"><ele>39.0</ele><time>2026-05-02T07:29:12.041Z</time></trkpt><trkpt lat="42.4252977" lon="14.1183251"><ele>39.0</ele><time>2026-05-02T07:29:13.04Z</time></trkpt><trkpt lat="42.4252567" lon="14.1180903"><ele>39.333333333333336</ele><time>2026-05-02T07:29:14.04Z</time></trkpt><trkpt lat="42.4252195" lon="14.1178593"><ele>39.66666666666667</ele><time>2026-05-02T07:29:15.04Z</time></trkpt><trkpt lat="42.4251849" lon="14.1176225"><ele>40.0</ele><time>2026-05-02T07:29:16.04Z</time></trkpt><trkpt lat="42.42515" lon="14.1173895"><ele>41.333333333333336</ele><time>2026-05-02T07:29:17.04Z</time></trkpt><trkpt lat="42.4251213" lon="14.1171438"><ele>42.666666666666664</ele><time>2026-05-02T07:29:18.04Z</time></trkpt><trkpt lat="42.4251037" lon="14.116896"><ele>44.0</ele><time>2026-05-02T07:29:19.04Z</time></trkpt><trkpt lat="42.4250914" lon="14.1166502"><ele>44.0</ele><time>2026-05-02T07:29:20.041Z</time></trkpt><trkpt lat="42.4250762" lon="14.1164002"><ele>44.0</ele><time>2026-05-02T07:29:21.041Z</time></trkpt><trkpt lat="42.4250565" lon="14.1161526"><ele>44.0</ele><time>2026-05-02T07:29:22.04Z</time></trkpt><trkpt lat="42.4250379" lon="14.1159003"><ele>44.33333333333333</ele><time>2026-05-02T07:29:23.04Z</time></trkpt><trkpt lat="42.4250248" lon="14.1156467"><ele>44.666666666666664</ele><time>2026-05-02T07:29:24.041Z</time></trkpt><trkpt lat="42.4250124" lon="14.115397"><ele>45.0</ele><time>2026-05-02T07:29:25.04Z</time></trkpt><trkpt lat="42.424998" lon="14.1151503"><ele>45.0</ele><time>2026-05-02T07:29:26.041Z</time></trkpt><trkpt lat="42.4249782" lon="14.1149099"><ele>45.0</ele><time>2026-05-02T07:29:27.04Z</time></trkpt><trkpt lat="42.4249594" lon="14.1146656"><ele>45.0</ele><time>2026-05-02T07:29:28.041Z</time></trkpt><trkpt lat="42.4249428" lon="14.1144247"><ele>46.0</ele><time>2026-05-02T07:29:29.04Z</time></trkpt><trkpt lat="42.4249287" lon="14.114191"><ele>47.0</ele><time>2026-05-02T07:29:30.04Z</time></trkpt><trkpt lat="42.4249107" lon="14.1139541"><ele>48.0</ele><time>2026-05-02T07:29:31.04Z</time></trkpt><trkpt lat="42.4248884" lon="14.1137222"><ele>48.66666666666667</ele><time>2026-05-02T07:29:32.04Z</time></trkpt><trkpt lat="42.4248718" lon="14.113492"><ele>49.333333333333336</ele><time>2026-05-02T07:29:33.04Z</time></trkpt><trkpt lat="42.4248605" lon="14.1132699"><ele>50.0</ele><time>2026-05-02T07:29:34.04Z</time></trkpt><trkpt lat="42.4248583" lon="14.1130732"><ele>50.5</ele><time>2026-05-02T07:29:35.041Z</time></trkpt><trkpt lat="42.424868" lon="14.1128917"><ele>51.0</ele><time>2026-05-02T07:29:36.04Z</time></trkpt><trkpt lat="42.4248866" lon="14.1127224"><ele>51.5</ele><time>2026-05-02T07:29:37.04Z</time></trkpt><trkpt lat="42.4249116" lon="14.1125596"><ele>52.0</ele><time>2026-05-02T07:29:38.041Z</time></trkpt><trkpt lat="42.4249365" lon="14.1124251"><ele>51.2</ele><time>2026-05-02T07:29:39.04Z</time></trkpt><trkpt lat="42.4249567" lon="14.1123239"><ele>50.400000000000006</ele><time>2026-05-02T07:29:40.04Z</time></trkpt><trkpt lat="42.4249936" lon="14.1122336"><ele>49.599999999999994</ele><time>2026-05-02T07:29:42.04Z</time></trkpt><trkpt lat="42.4249652" lon="14.1121157"><ele>48.8</ele><time>2026-05-02T07:29:47.041Z</time></trkpt><trkpt lat="42.4249288" lon="14.1120171"><ele>48.0</ele><time>2026-05-02T07:29:49.04Z</time></trkpt><trkpt lat="42.4249224" lon="14.111848"><ele>48.0</ele><time>2026-05-02T07:29:51.04Z</time></trkpt><trkpt lat="42.4249217" lon="14.1117565"><ele>48.0</ele><time>2026-05-02T07:29:52.04Z</time></trkpt><trkpt lat="42.4249103" lon="14.1116384"><ele>48.0</ele><time>2026-05-02T07:29:54.04Z</time></trkpt><trkpt lat="42.4248427" lon="14.1116466"><ele>48.0</ele><time>2026-05-02T07:29:56.04Z</time></trkpt><trkpt lat="42.4247739" lon="14.111694"><ele>48.0</ele><time>2026-05-02T07:29:57.041Z</time></trkpt><trkpt lat="42.424678" lon="14.111748"><ele>48.0</ele><time>2026-05-02T07:29:58.04Z</time></trkpt><trkpt lat="42.4245818" lon="14.1117988"><ele>46.5</ele><time>2026-05-02T07:29:59.04Z</time></trkpt><trkpt lat="42.4244713" lon="14.1118376"><ele>45.0</ele><time>2026-05-02T07:30:00.041Z</time></trkpt><trkpt lat="42.4243473" lon="14.1118692"><ele>43.5</ele><time>2026-05-02T07:30:01.04Z</time></trkpt><trkpt lat="42.424227" lon="14.1118867"><ele>42.0</ele><time>2026-05-02T07:30:02.04Z</time></trkpt><trkpt lat="42.4241149" lon="14.1119205"><ele>42.0</ele><time>2026-05-02T07:30:03.041Z</time></trkpt><trkpt lat="42.4240109" lon="14.111964"><ele>42.0</ele><time>2026-05-02T07:30:04.041Z</time></trkpt><trkpt lat="42.4238979" lon="14.1120051"><ele>42.0</ele><time>2026-05-02T07:30:05.04Z</time></trkpt><trkpt lat="42.4237924" lon="14.1120281"><ele>42.0</ele><time>2026-05-02T07:30:06.04Z</time></trkpt><trkpt lat="42.4236864" lon="14.1120348"><ele>42.0</ele><time>2026-05-02T07:30:07.04Z</time></trkpt><trkpt lat="42.4235722" lon="14.1120198"><ele>40.75</ele><time>2026-05-02T07:30:08.04Z</time></trkpt><trkpt lat="42.4234634" lon="14.1120068"><ele>39.5</ele><time>2026-05-02T07:30:09.041Z</time></trkpt><trkpt lat="42.4233518" lon="14.1120196"><ele>38.25</ele><time>2026-05-02T07:30:10.04Z</time></trkpt><trkpt lat="42.4232531" lon="14.112072"><ele>37.0</ele><time>2026-05-02T07:30:11.04Z</time></trkpt><trkpt lat="42.423143" lon="14.112163"><ele>37.0</ele><time>2026-05-02T07:30:12.04Z</time></trkpt><trkpt lat="42.4230426" lon="14.1122763"><ele>37.0</ele><time>2026-05-02T07:30:13.04Z</time></trkpt><trkpt lat="42.4229483" lon="14.1123954"><ele>37.0</ele><time>2026-05-02T07:30:14.04Z</time></trkpt><trkpt lat="42.4228552" lon="14.1125183"><ele>37.0</ele><time>2026-05-02T07:30:15.04Z</time></trkpt><trkpt lat="42.4227484" lon="14.1126396"><ele>38.75</ele><time>2026-05-02T07:30:16.04Z</time></trkpt><trkpt lat="42.4226352" lon="14.1127556"><ele>40.5</ele><time>2026-05-02T07:30:17.041Z</time></trkpt><trkpt lat="42.422518" lon="14.1128687"><ele>42.25</ele><time>2026-05-02T07:30:18.04Z</time></trkpt><trkpt lat="42.4224014" lon="14.1129822"><ele>44.0</ele><time>2026-05-02T07:30:19.041Z</time></trkpt><trkpt lat="42.4222823" lon="14.1130892"><ele>44.0</ele><time>2026-05-02T07:30:20.04Z</time></trkpt><trkpt lat="42.422173" lon="14.1131958"><ele>44.0</ele><time>2026-05-02T07:30:21.04Z</time></trkpt><trkpt lat="42.422068" lon="14.113302"><ele>44.0</ele><time>2026-05-02T07:30:22.04Z</time></trkpt><trkpt lat="42.4219703" lon="14.1133868"><ele>44.0</ele><time>2026-05-02T07:30:23.041Z</time></trkpt><trkpt lat="42.4218643" lon="14.1134595"><ele>45.25</ele><time>2026-05-02T07:30:24.04Z</time></trkpt><trkpt lat="42.4217529" lon="14.1135125"><ele>46.5</ele><time>2026-05-02T07:30:25.04Z</time></trkpt><trkpt lat="42.421635" lon="14.1135531"><ele>47.75</ele><time>2026-05-02T07:30:26.04Z</time></trkpt><trkpt lat="42.4215146" lon="14.1135951"><ele>49.0</ele><time>2026-05-02T07:30:27.04Z</time></trkpt><trkpt lat="42.4213976" lon="14.1136391"><ele>50.0</ele><time>2026-05-02T07:30:28.041Z</time></trkpt><trkpt lat="42.4212787" lon="14.1136998"><ele>51.0</ele><time>2026-05-02T07:30:29.04Z</time></trkpt><trkpt lat="42.4211628" lon="14.1137764"><ele>52.0</ele><time>2026-05-02T07:30:30.041Z</time></trkpt><trkpt lat="42.4210536" lon="14.1138624"><ele>53.0</ele><time>2026-05-02T07:30:31.041Z</time></trkpt><trkpt lat="42.4209497" lon="14.1139443"><ele>53.0</ele><time>2026-05-02T07:30:32.041Z</time></trkpt><trkpt lat="42.4208559" lon="14.1140189"><ele>53.0</ele><time>2026-05-02T07:30:33.04Z</time></trkpt><trkpt lat="42.4207525" lon="14.1140846"><ele>53.0</ele><time>2026-05-02T07:30:34.04Z</time></trkpt><trkpt lat="42.4206625" lon="14.114157"><ele>53.0</ele><time>2026-05-02T07:30:35.04Z</time></trkpt><trkpt lat="42.4205765" lon="14.114252"><ele>53.0</ele><time>2026-05-02T07:30:36.041Z</time></trkpt><trkpt lat="42.4204947" lon="14.1143723"><ele>55.5</ele><time>2026-05-02T07:30:37.041Z</time></trkpt><trkpt lat="42.4204212" lon="14.1144883"><ele>58.0</ele><time>2026-05-02T07:30:38.04Z</time></trkpt><trkpt lat="42.4203496" lon="14.1146078"><ele>60.5</ele><time>2026-05-02T07:30:39.04Z</time></trkpt><trkpt lat="42.4202561" lon="14.1147046"><ele>63.0</ele><time>2026-05-02T07:30:40.04Z</time></trkpt><trkpt lat="42.4201502" lon="14.1147725"><ele>63.0</ele><time>2026-05-02T07:30:41.04Z</time></trkpt><trkpt lat="42.4200286" lon="14.1148324"><ele>63.0</ele><time>2026-05-02T07:30:42.04Z</time></trkpt><trkpt lat="42.4199149" lon="14.1148905"><ele>63.0</ele><time>2026-05-02T07:30:43.04Z</time></trkpt><trkpt lat="42.4197979" lon="14.1149596"><ele>63.0</ele><time>2026-05-02T07:30:44.04Z</time></trkpt><trkpt lat="42.4196914" lon="14.1150477"><ele>67.25</ele><time>2026-05-02T07:30:45.04Z</time></trkpt><trkpt lat="42.4195946" lon="14.1151517"><ele>71.5</ele><time>2026-05-02T07:30:46.04Z</time></trkpt><trkpt lat="42.4195061" lon="14.1152539"><ele>75.75</ele><time>2026-05-02T07:30:47.041Z</time></trkpt><trkpt lat="42.4194274" lon="14.1153582"><ele>80.0</ele><time>2026-05-02T07:30:48.04Z</time></trkpt><trkpt lat="42.4193444" lon="14.1154457"><ele>80.0</ele><time>2026-05-02T07:30:49.041Z</time></trkpt><trkpt lat="42.4192501" lon="14.1155256"><ele>80.0</ele><time>2026-05-02T07:30:50.04Z</time></trkpt><trkpt lat="42.4191513" lon="14.1156126"><ele>80.0</ele><time>2026-05-02T07:30:51.04Z</time></trkpt><trkpt lat="42.419067" lon="14.115703"><ele>80.0</ele><time>2026-05-02T07:30:52.041Z</time></trkpt><trkpt lat="42.4190088" lon="14.115782"><ele>80.0</ele><time>2026-05-02T07:30:53.041Z</time></trkpt><trkpt lat="42.4189647" lon="14.1158553"><ele>81.0</ele><time>2026-05-02T07:30:54.04Z</time></trkpt><trkpt lat="42.4188819" lon="14.1159133"><ele>82.0</ele><time>2026-05-02T07:30:56.04Z</time></trkpt><trkpt lat="42.4187901" lon="14.1158998"><ele>83.0</ele><time>2026-05-02T07:30:58.04Z</time></trkpt><trkpt lat="42.4187303" lon="14.115848"><ele>84.0</ele><time>2026-05-02T07:30:59.04Z</time></trkpt><trkpt lat="42.4186674" lon="14.115781"><ele>85.0</ele><time>2026-05-02T07:31:00.04Z</time></trkpt><trkpt lat="42.4185932" lon="14.1157087"><ele>86.0</ele><time>2026-05-02T07:31:01.04Z</time></trkpt><trkpt lat="42.4185032" lon="14.1156451"><ele>89.0</ele><time>2026-05-02T07:31:02.04Z</time></trkpt><trkpt lat="42.418404" lon="14.1155719"><ele>92.0</ele><time>2026-05-02T07:31:03.041Z</time></trkpt><trkpt lat="42.4182891" lon="14.1155046"><ele>95.0</ele><time>2026-05-02T07:31:04.04Z</time></trkpt><trkpt lat="42.4181699" lon="14.1154455"><ele>98.0</ele><time>2026-05-02T07:31:05.04Z</time></trkpt><trkpt lat="42.4180566" lon="14.1153884"><ele>100.0</ele><time>2026-05-02T07:31:06.04Z</time></trkpt><trkpt lat="42.4179388" lon="14.1153285"><ele>102.0</ele><time>2026-05-02T07:31:07.04Z</time></trkpt><trkpt lat="42.4178163" lon="14.1152917"><ele>104.0</ele><time>2026-05-02T07:31:08.04Z</time></trkpt><trkpt lat="42.4176947" lon="14.1152599"><ele>106.0</ele><time>2026-05-02T07:31:09.04Z</time></trkpt><trkpt lat="42.4175845" lon="14.1152334"><ele>106.0</ele><time>2026-05-02T07:31:10.04Z</time></trkpt><trkpt lat="42.4174778" lon="14.1152054"><ele>106.0</ele><time>2026-05-02T07:31:11.04Z</time></trkpt><trkpt lat="42.4173778" lon="14.1151845"><ele>106.0</ele><time>2026-05-02T07:31:12.04Z</time></trkpt><trkpt lat="42.4172698" lon="14.1151715"><ele>106.0</ele><time>2026-05-02T07:31:13.04Z</time></trkpt><trkpt lat="42.4171561" lon="14.1151657"><ele>106.0</ele><time>2026-05-02T07:31:14.041Z</time></trkpt><trkpt lat="42.4170376" lon="14.1151606"><ele>107.0</ele><time>2026-05-02T07:31:15.04Z</time></trkpt><trkpt lat="42.4169216" lon="14.115158"><ele>108.0</ele><time>2026-05-02T07:31:16.04Z</time></trkpt><trkpt lat="42.4168102" lon="14.1151593"><ele>109.0</ele><time>2026-05-02T07:31:17.041Z</time></trkpt><trkpt lat="42.4166983" lon="14.1151679"><ele>110.0</ele><time>2026-05-02T07:31:18.04Z</time></trkpt><trkpt lat="42.4165959" lon="14.1151891"><ele>111.0</ele><time>2026-05-02T07:31:19.04Z</time></trkpt><trkpt lat="42.416493" lon="14.1152114"><ele>111.0</ele><time>2026-05-02T07:31:20.04Z</time></trkpt><trkpt lat="42.4163953" lon="14.1152283"><ele>111.0</ele><time>2026-05-02T07:31:21.04Z</time></trkpt><trkpt lat="42.4162955" lon="14.1152423"><ele>111.0</ele><time>2026-05-02T07:31:22.041Z</time></trkpt><trkpt lat="42.416187" lon="14.1152429"><ele>111.0</ele><time>2026-05-02T07:31:23.04Z</time></trkpt><trkpt lat="42.4160771" lon="14.1152435"><ele>111.0</ele><time>2026-05-02T07:31:24.04Z</time></trkpt><trkpt lat="42.4159691" lon="14.1152368"><ele>112.0</ele><time>2026-05-02T07:31:25.04Z</time></trkpt><trkpt lat="42.4158555" lon="14.115241"><ele>113.0</ele><time>2026-05-02T07:31:26.04Z</time></trkpt><trkpt lat="42.4157432" lon="14.1152668"><ele>114.0</ele><time>2026-05-02T07:31:27.04Z</time></trkpt><trkpt lat="42.4156357" lon="14.1152896"><ele>115.0</ele><time>2026-05-02T07:31:28.04Z</time></trkpt><trkpt lat="42.4155462" lon="14.115319"><ele>116.0</ele><time>2026-05-02T07:31:29.04Z</time></trkpt><trkpt lat="42.4154767" lon="14.1153435"><ele>116.16666666666666</ele><time>2026-05-02T07:31:30.04Z</time></trkpt><trkpt lat="42.4153705" lon="14.115388"><ele>116.33333333333333</ele><time>2026-05-02T07:31:32.04Z</time></trkpt><trkpt lat="42.4152977" lon="14.115425"><ele>116.5</ele><time>2026-05-02T07:31:35.04Z</time></trkpt><trkpt lat="42.4152509" lon="14.1154847"><ele>116.66666666666666</ele><time>2026-05-02T07:31:36.04Z</time></trkpt><trkpt lat="42.4151954" lon="14.1155582"><ele>116.83333333333333</ele><time>2026-05-02T07:31:37.04Z</time></trkpt><trkpt lat="42.4151333" lon="14.1156362"><ele>117.0</ele><time>2026-05-02T07:31:38.04Z</time></trkpt><trkpt lat="42.4150668" lon="14.1157274"><ele>116.75</ele><time>2026-05-02T07:31:39.04Z</time></trkpt><trkpt lat="42.4149914" lon="14.1158163"><ele>116.5</ele><time>2026-05-02T07:31:40.041Z</time></trkpt><trkpt lat="42.4149117" lon="14.1159225"><ele>116.25</ele><time>2026-05-02T07:31:41.041Z</time></trkpt><trkpt lat="42.4148231" lon="14.1160264"><ele>116.0</ele><time>2026-05-02T07:31:42.04Z</time></trkpt><trkpt lat="42.4147207" lon="14.116126"><ele>114.75</ele><time>2026-05-02T07:31:43.04Z</time></trkpt><trkpt lat="42.4146147" lon="14.1162177"><ele>113.5</ele><time>2026-05-02T07:31:44.04Z</time></trkpt><trkpt lat="42.414501" lon="14.1163008"><ele>112.25</ele><time>2026-05-02T07:31:45.04Z</time></trkpt><trkpt lat="42.4143939" lon="14.1163903"><ele>111.0</ele><time>2026-05-02T07:31:46.041Z</time></trkpt><trkpt lat="42.4142864" lon="14.1164712"><ele>111.0</ele><time>2026-05-02T07:31:47.04Z</time></trkpt><trkpt lat="42.4141768" lon="14.1165455"><ele>111.0</ele><time>2026-05-02T07:31:48.041Z</time></trkpt><trkpt lat="42.4140593" lon="14.1166212"><ele>111.0</ele><time>2026-05-02T07:31:49.04Z</time></trkpt><trkpt lat="42.4139398" lon="14.1166953"><ele>111.0</ele><time>2026-05-02T07:31:50.04Z</time></trkpt><trkpt lat="42.4138245" lon="14.1167652"><ele>110.0</ele><time>2026-05-02T07:31:51.04Z</time></trkpt><trkpt lat="42.4137264" lon="14.1168486"><ele>109.0</ele><time>2026-05-02T07:31:52.04Z</time></trkpt><trkpt lat="42.4136445" lon="14.1169627"><ele>108.0</ele><time>2026-05-02T07:31:53.04Z</time></trkpt><trkpt lat="42.4135653" lon="14.1170907"><ele>107.0</ele><time>2026-05-02T07:31:54.04Z</time></trkpt><trkpt lat="42.4134889" lon="14.1172121"><ele>107.0</ele><time>2026-05-02T07:31:55.04Z</time></trkpt><trkpt lat="42.4134197" lon="14.1173404"><ele>107.0</ele><time>2026-05-02T07:31:56.04Z</time></trkpt><trkpt lat="42.4133464" lon="14.1174638"><ele>107.0</ele><time>2026-05-02T07:31:57.04Z</time></trkpt><trkpt lat="42.4132731" lon="14.1175909"><ele>107.0</ele><time>2026-05-02T07:31:58.041Z</time></trkpt><trkpt lat="42.4132042" lon="14.1177157"><ele>107.0</ele><time>2026-05-02T07:31:59.041Z</time></trkpt><trkpt lat="42.4131353" lon="14.1178398"><ele>107.0</ele><time>2026-05-02T07:32:00.04Z</time></trkpt><trkpt lat="42.4130641" lon="14.1179723"><ele>107.0</ele><time>2026-05-02T07:32:01.041Z</time></trkpt><trkpt lat="42.4129905" lon="14.1181012"><ele>107.0</ele><time>2026-05-02T07:32:02.04Z</time></trkpt><trkpt lat="42.412907" lon="14.118229"><ele>107.0</ele><time>2026-05-02T07:32:03.04Z</time></trkpt><trkpt lat="42.4128165" lon="14.1183536"><ele>107.0</ele><time>2026-05-02T07:32:04.04Z</time></trkpt><trkpt lat="42.412717" lon="14.1184663"><ele>107.0</ele><time>2026-05-02T07:32:05.04Z</time></trkpt><trkpt lat="42.4126117" lon="14.1185684"><ele>107.0</ele><time>2026-05-02T07:32:06.04Z</time></trkpt><trkpt lat="42.412495" lon="14.1186618"><ele>107.0</ele><time>2026-05-02T07:32:07.04Z</time></trkpt><trkpt lat="42.412379" lon="14.1187492"><ele>107.0</ele><time>2026-05-02T07:32:08.04Z</time></trkpt><trkpt lat="42.4122613" lon="14.1188315"><ele>107.0</ele><time>2026-05-02T07:32:09.04Z</time></trkpt><trkpt lat="42.4121403" lon="14.1189165"><ele>107.0</ele><time>2026-05-02T07:32:10.04Z</time></trkpt><trkpt lat="42.412022" lon="14.1190006"><ele>105.75</ele><time>2026-05-02T07:32:11.04Z</time></trkpt><trkpt lat="42.411901" lon="14.1190875"><ele>104.5</ele><time>2026-05-02T07:32:12.04Z</time></trkpt><trkpt lat="42.4117803" lon="14.1191674"><ele>103.25</ele><time>2026-05-02T07:32:13.04Z</time></trkpt><trkpt lat="42.4116524" lon="14.1192434"><ele>102.0</ele><time>2026-05-02T07:32:14.041Z</time></trkpt><trkpt lat="42.4115258" lon="14.1193249"><ele>102.0</ele><time>2026-05-02T07:32:15.04Z</time></trkpt><trkpt lat="42.4114056" lon="14.1193969"><ele>102.0</ele><time>2026-05-02T07:32:16.04Z</time></trkpt><trkpt lat="42.4112894" lon="14.1194717"><ele>102.0</ele><time>2026-05-02T07:32:17.041Z</time></trkpt><trkpt lat="42.411182" lon="14.1195556"><ele>102.0</ele><time>2026-05-02T07:32:18.04Z</time></trkpt><trkpt lat="42.4110801" lon="14.1196478"><ele>102.19999999999999</ele><time>2026-05-02T07:32:19.04Z</time></trkpt><trkpt lat="42.4109834" lon="14.1197378"><ele>102.4</ele><time>2026-05-02T07:32:20.04Z</time></trkpt><trkpt lat="42.4108939" lon="14.119819"><ele>102.6</ele><time>2026-05-02T07:32:21.041Z</time></trkpt><trkpt lat="42.4108214" lon="14.1198865"><ele>102.80000000000001</ele><time>2026-05-02T07:32:22.041Z</time></trkpt><trkpt lat="42.410757" lon="14.1199304"><ele>103.0</ele><time>2026-05-02T07:32:23.04Z</time></trkpt><trkpt lat="42.4106627" lon="14.1199905"><ele>102.16666666666667</ele><time>2026-05-02T07:32:25.041Z</time></trkpt><trkpt lat="42.4105917" lon="14.1199855"><ele>101.33333333333334</ele><time>2026-05-02T07:32:27.04Z</time></trkpt><trkpt lat="42.4105129" lon="14.1199334"><ele>100.5</ele><time>2026-05-02T07:32:29.04Z</time></trkpt><trkpt lat="42.4104331" lon="14.1198572"><ele>99.66666666666666</ele><time>2026-05-02T07:32:31.04Z</time></trkpt><trkpt lat="42.4103483" lon="14.119782"><ele>98.83333333333333</ele><time>2026-05-02T07:32:33.04Z</time></trkpt><trkpt lat="42.4103013" lon="14.1196867"><ele>98.0</ele><time>2026-05-02T07:32:35.04Z</time></trkpt><trkpt lat="42.4102533" lon="14.1195839"><ele>97.66666666666666</ele><time>2026-05-02T07:32:37.041Z</time></trkpt><trkpt lat="42.4101926" lon="14.1194684"><ele>97.33333333333333</ele><time>2026-05-02T07:32:39.04Z</time></trkpt><trkpt lat="42.4101293" lon="14.1193678"><ele>97.0</ele><time>2026-05-02T07:32:41.04Z</time></trkpt><trkpt lat="42.4100842" lon="14.1192891"><ele>96.66666666666666</ele><time>2026-05-02T07:32:43.04Z</time></trkpt><trkpt lat="42.410034" lon="14.1192125"><ele>96.33333333333333</ele><time>2026-05-02T07:32:45.04Z</time></trkpt><trkpt lat="42.4099705" lon="14.1191336"><ele>96.0</ele><time>2026-05-02T07:32:47.04Z</time></trkpt><trkpt lat="42.4098928" lon="14.1190411"><ele>96.0</ele><time>2026-05-02T07:32:49.041Z</time></trkpt><trkpt lat="42.4097884" lon="14.1189633"><ele>96.0</ele><time>2026-05-02T07:32:51.04Z</time></trkpt><trkpt lat="42.4096886" lon="14.1188903"><ele>96.0</ele><time>2026-05-02T07:32:53.041Z</time></trkpt><trkpt lat="42.4095933" lon="14.1188137"><ele>96.0</ele><time>2026-05-02T07:32:55.04Z</time></trkpt><trkpt lat="42.4095098" lon="14.118752"><ele>96.0</ele><time>2026-05-02T07:32:57.041Z</time></trkpt><trkpt lat="42.4094164" lon="14.1186899"><ele>93.6</ele><time>2026-05-02T07:32:59.04Z</time></trkpt><trkpt lat="42.4093128" lon="14.1186268"><ele>91.19999999999999</ele><time>2026-05-02T07:33:01.04Z</time></trkpt><trkpt lat="42.4092186" lon="14.1185519"><ele>88.80000000000001</ele><time>2026-05-02T07:33:03.041Z</time></trkpt><trkpt lat="42.4091474" lon="14.1184827"><ele>86.4</ele><time>2026-05-02T07:33:05.04Z</time></trkpt><trkpt lat="42.4090835" lon="14.1184171"><ele>84.0</ele><time>2026-05-02T07:33:07.04Z</time></trkpt><trkpt lat="42.4090285" lon="14.1183511"><ele>84.0</ele><time>2026-05-02T07:33:09.041Z</time></trkpt><trkpt lat="42.4089716" lon="14.1182555"><ele>84.0</ele><time>2026-05-02T07:33:11.04Z</time></trkpt><trkpt lat="42.4089202" lon="14.1181295"><ele>84.0</ele><time>2026-05-02T07:33:13.04Z</time></trkpt><trkpt lat="42.4088811" lon="14.1180184"><ele>84.0</ele><time>2026-05-02T07:33:15.04Z</time></trkpt><trkpt lat="42.4088452" lon="14.1179085"><ele>84.0</ele><time>2026-05-02T07:33:17.041Z</time></trkpt><trkpt lat="42.4088046" lon="14.1177869"><ele>83.5</ele><time>2026-05-02T07:33:19.04Z</time></trkpt><trkpt lat="42.4087598" lon="14.1176623"><ele>83.0</ele><time>2026-05-02T07:33:21.04Z</time></trkpt><trkpt lat="42.4087199" lon="14.1175468"><ele>82.5</ele><time>2026-05-02T07:33:23.04Z</time></trkpt><trkpt lat="42.4086801" lon="14.1174478"><ele>82.0</ele><time>2026-05-02T07:33:26.04Z</time></trkpt><trkpt lat="42.4086506" lon="14.1173511"><ele>81.5</ele><time>2026-05-02T07:33:29.041Z</time></trkpt><trkpt lat="42.4086093" lon="14.1172688"><ele>81.0</ele><time>2026-05-02T07:33:32.04Z</time></trkpt><trkpt lat="42.4085479" lon="14.1172143"><ele>81.0</ele><time>2026-05-02T07:33:34.04Z</time></trkpt><trkpt lat="42.4084639" lon="14.1171376"><ele>81.0</ele><time>2026-05-02T07:33:36.041Z</time></trkpt><trkpt lat="42.4083783" lon="14.1170617"><ele>81.0</ele><time>2026-05-02T07:33:38.04Z</time></trkpt><trkpt lat="42.4082996" lon="14.1169707"><ele>81.0</ele><time>2026-05-02T07:33:40.041Z</time></trkpt><trkpt lat="42.4081999" lon="14.1168606"><ele>81.0</ele><time>2026-05-02T07:33:42.04Z</time></trkpt><trkpt lat="42.4081453" lon="14.1167997"><ele>81.0</ele><time>2026-05-02T07:33:43.04Z</time></trkpt><trkpt lat="42.4080888" lon="14.1167452"><ele>81.0</ele><time>2026-05-02T07:33:44.04Z</time></trkpt><trkpt lat="42.4080273" lon="14.1167095"><ele>81.0</ele><time>2026-05-02T07:33:45.04Z</time></trkpt><trkpt lat="42.4079153" lon="14.1166523"><ele>81.0</ele><time>2026-05-02T07:33:47.04Z</time></trkpt><trkpt lat="42.4078071" lon="14.1165826"><ele>81.0</ele><time>2026-05-02T07:33:49.04Z</time></trkpt><trkpt lat="42.407745" lon="14.1165457"><ele>81.0</ele><time>2026-05-02T07:33:50.04Z</time></trkpt><trkpt lat="42.4076845" lon="14.1165141"><ele>83.33333333333333</ele><time>2026-05-02T07:33:51.04Z</time></trkpt><trkpt lat="42.4075655" lon="14.1164655"><ele>85.66666666666667</ele><time>2026-05-02T07:33:53.04Z</time></trkpt><trkpt lat="42.407497" lon="14.1164431"><ele>88.0</ele><time>2026-05-02T07:33:54.04Z</time></trkpt><trkpt lat="42.4074265" lon="14.1164131"><ele>90.33333333333334</ele><time>2026-05-02T07:33:55.04Z</time></trkpt><trkpt lat="42.4073505" lon="14.1163831"><ele>92.66666666666667</ele><time>2026-05-02T07:33:56.04Z</time></trkpt><trkpt lat="42.4072799" lon="14.1163564"><ele>95.0</ele><time>2026-05-02T07:33:57.04Z</time></trkpt><trkpt lat="42.4072069" lon="14.1163362"><ele>96.6</ele><time>2026-05-02T07:33:58.04Z</time></trkpt><trkpt lat="42.407138" lon="14.1163296"><ele>98.2</ele><time>2026-05-02T07:33:59.04Z</time></trkpt><trkpt lat="42.4070125" lon="14.1162907"><ele>99.80000000000001</ele><time>2026-05-02T07:34:01.04Z</time></trkpt><trkpt lat="42.4069415" lon="14.1162471"><ele>101.4</ele><time>2026-05-02T07:34:02.04Z</time></trkpt><trkpt lat="42.4068571" lon="14.1161834"><ele>103.0</ele><time>2026-05-02T07:34:03.04Z</time></trkpt><trkpt lat="42.4067689" lon="14.1161148"><ele>103.0</ele><time>2026-05-02T07:34:04.04Z</time></trkpt><trkpt lat="42.4066697" lon="14.1160423"><ele>103.0</ele><time>2026-05-02T07:34:05.04Z</time></trkpt><trkpt lat="42.4065749" lon="14.1159742"><ele>103.0</ele><time>2026-05-02T07:34:06.04Z</time></trkpt><trkpt lat="42.4064936" lon="14.1159159"><ele>103.0</ele><time>2026-05-02T07:34:07.04Z</time></trkpt><trkpt lat="42.4064134" lon="14.1158684"><ele>103.0</ele><time>2026-05-02T07:34:08.041Z</time></trkpt><trkpt lat="42.4063303" lon="14.1158133"><ele>103.60000000000001</ele><time>2026-05-02T07:34:09.04Z</time></trkpt><trkpt lat="42.4062467" lon="14.1157567"><ele>104.2</ele><time>2026-05-02T07:34:10.04Z</time></trkpt><trkpt lat="42.4061644" lon="14.1157089"><ele>104.8</ele><time>2026-05-02T07:34:11.04Z</time></trkpt><trkpt lat="42.4060816" lon="14.1156462"><ele>105.4</ele><time>2026-05-02T07:34:12.04Z</time></trkpt><trkpt lat="42.4059979" lon="14.1155757"><ele>106.0</ele><time>2026-05-02T07:34:13.04Z</time></trkpt><trkpt lat="42.405923" lon="14.1155091"><ele>106.50000000000001</ele><time>2026-05-02T07:34:14.04Z</time></trkpt><trkpt lat="42.4058667" lon="14.1154683"><ele>107.0</ele><time>2026-05-02T07:34:15.04Z</time></trkpt><trkpt lat="42.4057596" lon="14.1154429"><ele>107.5</ele><time>2026-05-02T07:34:17.041Z</time></trkpt><trkpt lat="42.4056906" lon="14.1154575"><ele>108.0</ele><time>2026-05-02T07:34:18.04Z</time></trkpt><trkpt lat="42.4056291" lon="14.1154785"><ele>108.50000000000001</ele><time>2026-05-02T07:34:19.04Z</time></trkpt><trkpt lat="42.4055247" lon="14.1155366"><ele>109.0</ele><time>2026-05-02T07:34:21.04Z</time></trkpt><trkpt lat="42.4054609" lon="14.1156219"><ele>107.6</ele><time>2026-05-02T07:34:23.041Z</time></trkpt><trkpt lat="42.4054153" lon="14.1157531"><ele>106.2</ele><time>2026-05-02T07:34:25.04Z</time></trkpt><trkpt lat="42.4053639" lon="14.1158755"><ele>104.8</ele><time>2026-05-02T07:34:27.04Z</time></trkpt><trkpt lat="42.4052895" lon="14.1159992"><ele>103.39999999999999</ele><time>2026-05-02T07:34:29.041Z</time></trkpt><trkpt lat="42.4052397" lon="14.1160749"><ele>102.0</ele><time>2026-05-02T07:34:30.041Z</time></trkpt><trkpt lat="42.4051769" lon="14.1161539"><ele>102.0</ele><time>2026-05-02T07:34:31.041Z</time></trkpt><trkpt lat="42.4051091" lon="14.1162384"><ele>102.0</ele><time>2026-05-02T07:34:32.04Z</time></trkpt><trkpt lat="42.4050398" lon="14.1163248"><ele>102.0</ele><time>2026-05-02T07:34:33.041Z</time></trkpt><trkpt lat="42.4049654" lon="14.1164085"><ele>102.0</ele><time>2026-05-02T07:34:34.041Z</time></trkpt><trkpt lat="42.4048974" lon="14.1164983"><ele>102.0</ele><time>2026-05-02T07:34:35.041Z</time></trkpt><trkpt lat="42.4048255" lon="14.1165826"><ele>100.39999999999999</ele><time>2026-05-02T07:34:36.041Z</time></trkpt><trkpt lat="42.4047555" lon="14.116668"><ele>98.8</ele><time>2026-05-02T07:34:37.041Z</time></trkpt><trkpt lat="42.4046825" lon="14.1167614"><ele>97.2</ele><time>2026-05-02T07:34:38.041Z</time></trkpt><trkpt lat="42.4046043" lon="14.1168615"><ele>95.6</ele><time>2026-05-02T07:34:39.041Z</time></trkpt><trkpt lat="42.4045163" lon="14.1169711"><ele>94.0</ele><time>2026-05-02T07:34:40.041Z</time></trkpt><trkpt lat="42.4044207" lon="14.1170839"><ele>93.0</ele><time>2026-05-02T07:34:41.041Z</time></trkpt><trkpt lat="42.4043185" lon="14.117209"><ele>92.0</ele><time>2026-05-02T07:34:42.041Z</time></trkpt><trkpt lat="42.4042235" lon="14.1173391"><ele>91.0</ele><time>2026-05-02T07:34:43.041Z</time></trkpt><trkpt lat="42.4041255" lon="14.1174596"><ele>90.0</ele><time>2026-05-02T07:34:44.041Z</time></trkpt><trkpt lat="42.4040261" lon="14.117578"><ele>88.75</ele><time>2026-05-02T07:34:45.041Z</time></trkpt><trkpt lat="42.4039264" lon="14.1177017"><ele>87.5</ele><time>2026-05-02T07:34:46.041Z</time></trkpt><trkpt lat="42.4038263" lon="14.1178211"><ele>86.25</ele><time>2026-05-02T07:34:47.041Z</time></trkpt><trkpt lat="42.4037331" lon="14.1179426"><ele>85.0</ele><time>2026-05-02T07:34:48.041Z</time></trkpt><trkpt lat="42.4036391" lon="14.1180586"><ele>84.25</ele><time>2026-05-02T07:34:49.041Z</time></trkpt><trkpt lat="42.4035521" lon="14.1181749"><ele>83.5</ele><time>2026-05-02T07:34:50.041Z</time></trkpt><trkpt lat="42.4034617" lon="14.1182801"><ele>82.75</ele><time>2026-05-02T07:34:51.041Z</time></trkpt><trkpt lat="42.4033689" lon="14.1183832"><ele>82.0</ele><time>2026-05-02T07:34:52.041Z</time></trkpt><trkpt lat="42.4032781" lon="14.1184871"><ele>81.5</ele><time>2026-05-02T07:34:53.041Z</time></trkpt><trkpt lat="42.403191" lon="14.1185954"><ele>81.0</ele><time>2026-05-02T07:34:54.041Z</time></trkpt><trkpt lat="42.4031038" lon="14.1187096"><ele>80.5</ele><time>2026-05-02T07:34:55.041Z</time></trkpt><trkpt lat="42.4030204" lon="14.1188257"><ele>80.0</ele><time>2026-05-02T07:34:56.041Z</time></trkpt><trkpt lat="42.4029346" lon="14.1189405"><ele>79.75</ele><time>2026-05-02T07:34:57.041Z</time></trkpt><trkpt lat="42.4028469" lon="14.1190509"><ele>79.5</ele><time>2026-05-02T07:34:58.041Z</time></trkpt><trkpt lat="42.402754" lon="14.1191618"><ele>79.25</ele><time>2026-05-02T07:34:59.041Z</time></trkpt><trkpt lat="42.4026618" lon="14.1192719"><ele>79.0</ele><time>2026-05-02T07:35:00.041Z</time></trkpt><trkpt lat="42.402564" lon="14.1193768"><ele>78.0</ele><time>2026-05-02T07:35:01.041Z</time></trkpt><trkpt lat="42.4024634" lon="14.1194789"><ele>77.0</ele><time>2026-05-02T07:35:02.041Z</time></trkpt><trkpt lat="42.4023646" lon="14.1195718"><ele>76.0</ele><time>2026-05-02T07:35:03.042Z</time></trkpt><trkpt lat="42.402265" lon="14.1196652"><ele>75.0</ele><time>2026-05-02T07:35:04.041Z</time></trkpt><trkpt lat="42.4021645" lon="14.1197573"><ele>74.5</ele><time>2026-05-02T07:35:05.041Z</time></trkpt><trkpt lat="42.4020638" lon="14.1198494"><ele>74.0</ele><time>2026-05-02T07:35:06.042Z</time></trkpt><trkpt lat="42.4019649" lon="14.1199347"><ele>73.5</ele><time>2026-05-02T07:35:07.041Z</time></trkpt><trkpt lat="42.4018538" lon="14.1200308"><ele>73.0</ele><time>2026-05-02T07:35:08.042Z</time></trkpt><trkpt lat="42.4017342" lon="14.1201395"><ele>71.0</ele><time>2026-05-02T07:35:09.041Z</time></trkpt><trkpt lat="42.40161" lon="14.1202531"><ele>69.0</ele><time>2026-05-02T07:35:10.041Z</time></trkpt><trkpt lat="42.4014803" lon="14.1203695"><ele>67.0</ele><time>2026-05-02T07:35:11.041Z</time></trkpt><trkpt lat="42.4013553" lon="14.1204798"><ele>66.5</ele><time>2026-05-02T07:35:12.041Z</time></trkpt><trkpt lat="42.4012372" lon="14.1205854"><ele>66.0</ele><time>2026-05-02T07:35:13.041Z</time></trkpt><trkpt lat="42.4011235" lon="14.1206986"><ele>65.5</ele><time>2026-05-02T07:35:14.041Z</time></trkpt><trkpt lat="42.4010115" lon="14.1208011"><ele>65.0</ele><time>2026-05-02T07:35:15.041Z</time></trkpt><trkpt lat="42.400901" lon="14.1209073"><ele>64.75</ele><time>2026-05-02T07:35:16.041Z</time></trkpt><trkpt lat="42.4007818" lon="14.1210162"><ele>64.5</ele><time>2026-05-02T07:35:17.041Z</time></trkpt><trkpt lat="42.4006731" lon="14.1211248"><ele>64.25</ele><time>2026-05-02T07:35:18.042Z</time></trkpt><trkpt lat="42.4005658" lon="14.1212281"><ele>64.0</ele><time>2026-05-02T07:35:19.041Z</time></trkpt><trkpt lat="42.4004596" lon="14.1213261"><ele>63.25</ele><time>2026-05-02T07:35:20.041Z</time></trkpt><trkpt lat="42.4003515" lon="14.1214048"><ele>62.5</ele><time>2026-05-02T07:35:21.041Z</time></trkpt><trkpt lat="42.400253" lon="14.1214922"><ele>61.75</ele><time>2026-05-02T07:35:22.041Z</time></trkpt><trkpt lat="42.400155" lon="14.121587"><ele>61.0</ele><time>2026-05-02T07:35:23.041Z</time></trkpt><trkpt lat="42.400074" lon="14.1217112"><ele>61.0</ele><time>2026-05-02T07:35:24.041Z</time></trkpt><trkpt lat="42.4000125" lon="14.1218564"><ele>61.0</ele><time>2026-05-02T07:35:25.042Z</time></trkpt><trkpt lat="42.3999544" lon="14.122022"><ele>61.0</ele><time>2026-05-02T07:35:26.042Z</time></trkpt><trkpt lat="42.3998885" lon="14.1222056"><ele>61.0</ele><time>2026-05-02T07:35:27.041Z</time></trkpt><trkpt lat="42.3998279" lon="14.1223816"><ele>61.0</ele><time>2026-05-02T07:35:28.041Z</time></trkpt><trkpt lat="42.3997738" lon="14.1225373"><ele>61.0</ele><time>2026-05-02T07:35:29.04Z</time></trkpt><trkpt lat="42.3997432" lon="14.1226864"><ele>61.0</ele><time>2026-05-02T07:35:30.04Z</time></trkpt><trkpt lat="42.399743" lon="14.1228336"><ele>61.0</ele><time>2026-05-02T07:35:31.041Z</time></trkpt><trkpt lat="42.3997568" lon="14.1229799"><ele>61.0</ele><time>2026-05-02T07:35:32.04Z</time></trkpt><trkpt lat="42.3997709" lon="14.1231256"><ele>60.99999999999999</ele><time>2026-05-02T07:35:33.041Z</time></trkpt><trkpt lat="42.3997753" lon="14.1232705"><ele>60.99999999999999</ele><time>2026-05-02T07:35:34.041Z</time></trkpt><trkpt lat="42.3997525" lon="14.1234048"><ele>61.0</ele><time>2026-05-02T07:35:35.04Z</time></trkpt><trkpt lat="42.3997004" lon="14.123548"><ele>61.0</ele><time>2026-05-02T07:35:36.04Z</time></trkpt><trkpt lat="42.3996306" lon="14.1237123"><ele>59.25</ele><time>2026-05-02T07:35:37.04Z</time></trkpt><trkpt lat="42.3995601" lon="14.1238868"><ele>57.5</ele><time>2026-05-02T07:35:38.04Z</time></trkpt><trkpt lat="42.3994946" lon="14.1240575"><ele>55.75</ele><time>2026-05-02T07:35:39.04Z</time></trkpt><trkpt lat="42.3994217" lon="14.1242243"><ele>54.0</ele><time>2026-05-02T07:35:40.041Z</time></trkpt><trkpt lat="42.3993447" lon="14.1243895"><ele>53.5</ele><time>2026-05-02T07:35:41.04Z</time></trkpt><trkpt lat="42.3992605" lon="14.1245512"><ele>53.0</ele><time>2026-05-02T07:35:42.04Z</time></trkpt><trkpt lat="42.3991732" lon="14.1247086"><ele>52.5</ele><time>2026-05-02T07:35:43.04Z</time></trkpt><trkpt lat="42.3990927" lon="14.1248671"><ele>52.0</ele><time>2026-05-02T07:35:44.04Z</time></trkpt><trkpt lat="42.3990129" lon="14.1250209"><ele>51.75</ele><time>2026-05-02T07:35:45.04Z</time></trkpt><trkpt lat="42.3989153" lon="14.1251521"><ele>51.5</ele><time>2026-05-02T07:35:46.04Z</time></trkpt><trkpt lat="42.3987962" lon="14.1252473"><ele>51.25</ele><time>2026-05-02T07:35:47.04Z</time></trkpt><trkpt lat="42.3986794" lon="14.1253135"><ele>51.0</ele><time>2026-05-02T07:35:48.04Z</time></trkpt><trkpt lat="42.398551" lon="14.1253384"><ele>49.5</ele><time>2026-05-02T07:35:49.04Z</time></trkpt><trkpt lat="42.3984223" lon="14.1253354"><ele>48.0</ele><time>2026-05-02T07:35:50.04Z</time></trkpt><trkpt lat="42.3982927" lon="14.1253082"><ele>46.5</ele><time>2026-05-02T07:35:51.04Z</time></trkpt><trkpt lat="42.3981657" lon="14.1252731"><ele>45.0</ele><time>2026-05-02T07:35:52.04Z</time></trkpt><trkpt lat="42.3980428" lon="14.1252671"><ele>45.25</ele><time>2026-05-02T07:35:53.04Z</time></trkpt><trkpt lat="42.3979348" lon="14.1253125"><ele>45.5</ele><time>2026-05-02T07:35:54.04Z</time></trkpt><trkpt lat="42.3978423" lon="14.1253881"><ele>45.75</ele><time>2026-05-02T07:35:55.04Z</time></trkpt><trkpt lat="42.3977591" lon="14.1255105"><ele>46.0</ele><time>2026-05-02T07:35:56.04Z</time></trkpt><trkpt lat="42.3976949" lon="14.1256545"><ele>47.0</ele><time>2026-05-02T07:35:57.04Z</time></trkpt><trkpt lat="42.3976255" lon="14.1257949"><ele>48.0</ele><time>2026-05-02T07:35:58.04Z</time></trkpt><trkpt lat="42.3975443" lon="14.1259046"><ele>49.0</ele><time>2026-05-02T07:35:59.041Z</time></trkpt><trkpt lat="42.3974461" lon="14.1260014"><ele>50.0</ele><time>2026-05-02T07:36:00.04Z</time></trkpt><trkpt lat="42.3973359" lon="14.1260798"><ele>50.0</ele><time>2026-05-02T07:36:01.04Z</time></trkpt><trkpt lat="42.3972202" lon="14.1261318"><ele>50.0</ele><time>2026-05-02T07:36:02.041Z</time></trkpt><trkpt lat="42.3971056" lon="14.1261785"><ele>50.0</ele><time>2026-05-02T07:36:03.04Z</time></trkpt><trkpt lat="42.3969888" lon="14.126229"><ele>50.0</ele><time>2026-05-02T07:36:04.04Z</time></trkpt><trkpt lat="42.3968688" lon="14.1262911"><ele>51.0</ele><time>2026-05-02T07:36:05.04Z</time></trkpt><trkpt lat="42.3967478" lon="14.1263481"><ele>52.0</ele><time>2026-05-02T07:36:06.04Z</time></trkpt><trkpt lat="42.3966237" lon="14.1264013"><ele>53.0</ele><time>2026-05-02T07:36:07.04Z</time></trkpt><trkpt lat="42.3964904" lon="14.1264538"><ele>54.0</ele><time>2026-05-02T07:36:08.04Z</time></trkpt><trkpt lat="42.3963552" lon="14.1264986"><ele>54.0</ele><time>2026-05-02T07:36:09.04Z</time></trkpt><trkpt lat="42.3962207" lon="14.1265334"><ele>54.0</ele><time>2026-05-02T07:36:10.04Z</time></trkpt><trkpt lat="42.3960903" lon="14.1265559"><ele>54.0</ele><time>2026-05-02T07:36:11.04Z</time></trkpt><trkpt lat="42.3959527" lon="14.1265791"><ele>54.0</ele><time>2026-05-02T07:36:12.04Z</time></trkpt><trkpt lat="42.3958157" lon="14.1266092"><ele>54.0</ele><time>2026-05-02T07:36:13.04Z</time></trkpt><trkpt lat="42.3956791" lon="14.1266397"><ele>54.0</ele><time>2026-05-02T07:36:14.04Z</time></trkpt><trkpt lat="42.395539" lon="14.1266722"><ele>54.0</ele><time>2026-05-02T07:36:15.04Z</time></trkpt><trkpt lat="42.3954023" lon="14.1267067"><ele>54.0</ele><time>2026-05-02T07:36:16.04Z</time></trkpt><trkpt lat="42.3952618" lon="14.1267361"><ele>54.0</ele><time>2026-05-02T07:36:17.04Z</time></trkpt><trkpt lat="42.3951207" lon="14.1267635"><ele>54.0</ele><time>2026-05-02T07:36:18.04Z</time></trkpt><trkpt lat="42.3949785" lon="14.1267905"><ele>54.0</ele><time>2026-05-02T07:36:19.041Z</time></trkpt><trkpt lat="42.3948389" lon="14.1268226"><ele>54.0</ele><time>2026-05-02T07:36:20.041Z</time></trkpt><trkpt lat="42.3946978" lon="14.1268526"><ele>54.75</ele><time>2026-05-02T07:36:21.041Z</time></trkpt><trkpt lat="42.3945613" lon="14.1268759"><ele>55.5</ele><time>2026-05-02T07:36:22.041Z</time></trkpt><trkpt lat="42.3944203" lon="14.1269008"><ele>56.25</ele><time>2026-05-02T07:36:23.041Z</time></trkpt><trkpt lat="42.3942802" lon="14.1269267"><ele>57.0</ele><time>2026-05-02T07:36:24.04Z</time></trkpt><trkpt lat="42.394141" lon="14.1269528"><ele>57.0</ele><time>2026-05-02T07:36:25.04Z</time></trkpt><trkpt lat="42.394004" lon="14.1269803"><ele>57.0</ele><time>2026-05-02T07:36:26.04Z</time></trkpt><trkpt lat="42.3938702" lon="14.1270146"><ele>57.0</ele><time>2026-05-02T07:36:27.04Z</time></trkpt><trkpt lat="42.3937431" lon="14.1270686"><ele>57.0</ele><time>2026-05-02T07:36:28.04Z</time></trkpt><trkpt lat="42.393616" lon="14.1271548"><ele>56.5</ele><time>2026-05-02T07:36:29.041Z</time></trkpt><trkpt lat="42.3934976" lon="14.1272564"><ele>56.0</ele><time>2026-05-02T07:36:30.04Z</time></trkpt><trkpt lat="42.3933816" lon="14.1273743"><ele>55.5</ele><time>2026-05-02T07:36:31.04Z</time></trkpt><trkpt lat="42.3932583" lon="14.1275024"><ele>55.0</ele><time>2026-05-02T07:36:32.04Z</time></trkpt><trkpt lat="42.3931355" lon="14.1276463"><ele>54.666666666666664</ele><time>2026-05-02T07:36:33.041Z</time></trkpt><trkpt lat="42.3930126" lon="14.127784"><ele>54.33333333333333</ele><time>2026-05-02T07:36:34.04Z</time></trkpt><trkpt lat="42.3928848" lon="14.127923"><ele>54.0</ele><time>2026-05-02T07:36:35.041Z</time></trkpt><trkpt lat="42.3927639" lon="14.1280746"><ele>54.0</ele><time>2026-05-02T07:36:36.04Z</time></trkpt><trkpt lat="42.3926445" lon="14.1282327"><ele>54.0</ele><time>2026-05-02T07:36:37.041Z</time></trkpt><trkpt lat="42.3925316" lon="14.1283999"><ele>54.0</ele><time>2026-05-02T07:36:38.04Z</time></trkpt><trkpt lat="42.3924182" lon="14.1285734"><ele>54.0</ele><time>2026-05-02T07:36:39.04Z</time></trkpt><trkpt lat="42.3923101" lon="14.1287383"><ele>54.0</ele><time>2026-05-02T07:36:40.041Z</time></trkpt><trkpt lat="42.3922043" lon="14.1288905"><ele>54.0</ele><time>2026-05-02T07:36:41.041Z</time></trkpt><trkpt lat="42.3921042" lon="14.1290404"><ele>54.25</ele><time>2026-05-02T07:36:42.04Z</time></trkpt><trkpt lat="42.3920154" lon="14.129179"><ele>54.5</ele><time>2026-05-02T07:36:43.04Z</time></trkpt><trkpt lat="42.3919287" lon="14.1292995"><ele>54.75</ele><time>2026-05-02T07:36:44.04Z</time></trkpt><trkpt lat="42.3918484" lon="14.1293985"><ele>55.0</ele><time>2026-05-02T07:36:45.04Z</time></trkpt><trkpt lat="42.3917526" lon="14.1294681"><ele>55.0</ele><time>2026-05-02T07:36:46.04Z</time></trkpt><trkpt lat="42.3916579" lon="14.1295139"><ele>55.0</ele><time>2026-05-02T07:36:47.04Z</time></trkpt><trkpt lat="42.3915465" lon="14.1295177"><ele>55.0</ele><time>2026-05-02T07:36:48.04Z</time></trkpt><trkpt lat="42.3914319" lon="14.1294939"><ele>55.0</ele><time>2026-05-02T07:36:49.04Z</time></trkpt><trkpt lat="42.3913157" lon="14.129451"><ele>55.0</ele><time>2026-05-02T07:36:50.04Z</time></trkpt><trkpt lat="42.3911973" lon="14.1294178"><ele>51.75</ele><time>2026-05-02T07:36:51.041Z</time></trkpt><trkpt lat="42.3910768" lon="14.1293997"><ele>48.5</ele><time>2026-05-02T07:36:52.04Z</time></trkpt><trkpt lat="42.3909457" lon="14.129408"><ele>45.25</ele><time>2026-05-02T07:36:53.041Z</time></trkpt><trkpt lat="42.3908042" lon="14.1294519"><ele>42.0</ele><time>2026-05-02T07:36:54.04Z</time></trkpt><trkpt lat="42.3906476" lon="14.1295026"><ele>39.0</ele><time>2026-05-02T07:36:55.041Z</time></trkpt><trkpt lat="42.3904998" lon="14.1295613"><ele>36.0</ele><time>2026-05-02T07:36:56.04Z</time></trkpt><trkpt lat="42.3903545" lon="14.1296117"><ele>33.0</ele><time>2026-05-02T07:36:57.04Z</time></trkpt><trkpt lat="42.3902193" lon="14.1296663"><ele>30.0</ele><time>2026-05-02T07:36:58.04Z</time></trkpt><trkpt lat="42.3900993" lon="14.1297214"><ele>30.0</ele><time>2026-05-02T07:36:59.04Z</time></trkpt><trkpt lat="42.389989" lon="14.1297705"><ele>30.0</ele><time>2026-05-02T07:37:00.04Z</time></trkpt><trkpt lat="42.3898876" lon="14.1298155"><ele>30.0</ele><time>2026-05-02T07:37:01.04Z</time></trkpt><trkpt lat="42.3897966" lon="14.1298504"><ele>30.0</ele><time>2026-05-02T07:37:02.041Z</time></trkpt><trkpt lat="42.3897178" lon="14.1298742"><ele>30.0</ele><time>2026-05-02T07:37:03.04Z</time></trkpt><trkpt lat="42.3896125" lon="14.1298988"><ele>30.0</ele><time>2026-05-02T07:37:05.04Z</time></trkpt><trkpt lat="42.3895075" lon="14.1299434"><ele>30.0</ele><time>2026-05-02T07:37:08.04Z</time></trkpt><trkpt lat="42.3894449" lon="14.1299994"><ele>30.0</ele><time>2026-05-02T07:37:09.04Z</time></trkpt><trkpt lat="42.3893779" lon="14.1300665"><ele>30.0</ele><time>2026-05-02T07:37:10.04Z</time></trkpt><trkpt lat="42.3892999" lon="14.1301481"><ele>30.0</ele><time>2026-05-02T07:37:11.04Z</time></trkpt><trkpt lat="42.3892069" lon="14.1302336"><ele>30.0</ele><time>2026-05-02T07:37:12.04Z</time></trkpt><trkpt lat="42.3891007" lon="14.1303052"><ele>30.0</ele><time>2026-05-02T07:37:13.04Z</time></trkpt><trkpt lat="42.3890016" lon="14.1303753"><ele>30.0</ele><time>2026-05-02T07:37:14.041Z</time></trkpt><trkpt lat="42.3889126" lon="14.1304433"><ele>30.0</ele><time>2026-05-02T07:37:15.04Z</time></trkpt><trkpt lat="42.3888403" lon="14.1304963"><ele>30.0</ele><time>2026-05-02T07:37:16.04Z</time></trkpt><trkpt lat="42.3887655" lon="14.1305576"><ele>30.0</ele><time>2026-05-02T07:37:18.04Z</time></trkpt><trkpt lat="42.388696" lon="14.1306193"><ele>30.0</ele><time>2026-05-02T07:37:24.04Z</time></trkpt><trkpt lat="42.3886154" lon="14.1306712"><ele>30.0</ele><time>2026-05-02T07:37:26.041Z</time></trkpt><trkpt lat="42.3885043" lon="14.1306602"><ele>30.0</ele><time>2026-05-02T07:37:28.04Z</time></trkpt><trkpt lat="42.3884349" lon="14.1306277"><ele>30.0</ele><time>2026-05-02T07:37:29.041Z</time></trkpt><trkpt lat="42.388349" lon="14.1305824"><ele>30.0</ele><time>2026-05-02T07:37:30.04Z</time></trkpt><trkpt lat="42.3882645" lon="14.1305422"><ele>30.0</ele><time>2026-05-02T07:37:31.04Z</time></trkpt><trkpt lat="42.3881935" lon="14.1304956"><ele>30.0</ele><time>2026-05-02T07:37:32.04Z</time></trkpt><trkpt lat="42.3881195" lon="14.1304472"><ele>30.0</ele><time>2026-05-02T07:37:33.041Z</time></trkpt><trkpt lat="42.3880416" lon="14.1304079"><ele>30.0</ele><time>2026-05-02T07:37:34.04Z</time></trkpt><trkpt lat="42.3879626" lon="14.1303717"><ele>30.0</ele><time>2026-05-02T07:37:35.04Z</time></trkpt><trkpt lat="42.3878789" lon="14.1303321"><ele>30.0</ele><time>2026-05-02T07:37:36.04Z</time></trkpt><trkpt lat="42.3877937" lon="14.1302648"><ele>30.5</ele><time>2026-05-02T07:37:37.041Z</time></trkpt><trkpt lat="42.3877109" lon="14.1301885"><ele>31.0</ele><time>2026-05-02T07:37:38.04Z</time></trkpt><trkpt lat="42.3876226" lon="14.1301102"><ele>31.5</ele><time>2026-05-02T07:37:39.04Z</time></trkpt><trkpt lat="42.3875232" lon="14.1300135"><ele>32.0</ele><time>2026-05-02T07:37:40.041Z</time></trkpt><trkpt lat="42.3874134" lon="14.1299156"><ele>32.2</ele><time>2026-05-02T07:37:41.04Z</time></trkpt><trkpt lat="42.3873073" lon="14.129812"><ele>32.400000000000006</ele><time>2026-05-02T07:37:42.04Z</time></trkpt><trkpt lat="42.3871993" lon="14.1297131"><ele>32.599999999999994</ele><time>2026-05-02T07:37:43.041Z</time></trkpt><trkpt lat="42.387114" lon="14.1296163"><ele>32.8</ele><time>2026-05-02T07:37:44.041Z</time></trkpt><trkpt lat="42.3870562" lon="14.1295608"><ele>33.0</ele><time>2026-05-02T07:37:45.041Z</time></trkpt><trkpt lat="42.3870041" lon="14.1295049"><ele>33.0</ele><time>2026-05-02T07:37:47.041Z</time></trkpt><trkpt lat="42.3869431" lon="14.1294801"><ele>33.0</ele><time>2026-05-02T07:37:50.04Z</time></trkpt><trkpt lat="42.3868922" lon="14.129539"><ele>33.0</ele><time>2026-05-02T07:37:52.041Z</time></trkpt><trkpt lat="42.3868548" lon="14.1296113"><ele>33.0</ele><time>2026-05-02T07:37:53.041Z</time></trkpt><trkpt lat="42.3868225" lon="14.1296942"><ele>33.0</ele><time>2026-05-02T07:37:54.04Z</time></trkpt><trkpt lat="42.3867898" lon="14.1297775"><ele>33.0</ele><time>2026-05-02T07:37:55.04Z</time></trkpt><trkpt lat="42.3867295" lon="14.1299035"><ele>33.0</ele><time>2026-05-02T07:37:57.04Z</time></trkpt><trkpt lat="42.3867038" lon="14.1300001"><ele>32.8</ele><time>2026-05-02T07:37:59.04Z</time></trkpt><trkpt lat="42.3867308" lon="14.1301262"><ele>32.599999999999994</ele><time>2026-05-02T07:38:01.04Z</time></trkpt><trkpt lat="42.3867714" lon="14.1302573"><ele>32.400000000000006</ele><time>2026-05-02T07:38:03.04Z</time></trkpt><trkpt lat="42.38679" lon="14.1303512"><ele>32.2</ele><time>2026-05-02T07:38:07.04Z</time></trkpt><trkpt lat="42.3867399" lon="14.1304474"><ele>32.0</ele><time>2026-05-02T07:38:09.04Z</time></trkpt><trkpt lat="42.3866784" lon="14.1305718"><ele>31.999999999999996</ele><time>2026-05-02T07:38:11.04Z</time></trkpt><trkpt lat="42.3866241" lon="14.1306657"><ele>32.0</ele><time>2026-05-02T07:38:13.04Z</time></trkpt><trkpt lat="42.3865177" lon="14.1306972"><ele>32.0</ele><time>2026-05-02T07:38:15.04Z</time></trkpt><trkpt lat="42.386447" lon="14.1306885"><ele>32.0</ele><time>2026-05-02T07:38:16.04Z</time></trkpt><trkpt lat="42.3863807" lon="14.1306761"><ele>31.999999999999996</ele><time>2026-05-02T07:38:17.041Z</time></trkpt><trkpt lat="42.3862726" lon="14.1307105"><ele>32.0</ele><time>2026-05-02T07:38:19.04Z</time></trkpt><trkpt lat="42.3861793" lon="14.1308224"><ele>32.0</ele><time>2026-05-02T07:38:21.04Z</time></trkpt><trkpt lat="42.3861072" lon="14.1309748"><ele>32.0</ele><time>2026-05-02T07:38:23.04Z</time></trkpt><trkpt lat="42.3860606" lon="14.1310678"><ele>32.0</ele><time>2026-05-02T07:38:24.04Z</time></trkpt><trkpt lat="42.3860587" lon="14.13118"><ele>32.0</ele><time>2026-05-02T07:38:25.04Z</time></trkpt><trkpt lat="42.385982" lon="14.1312623"><ele>32.0</ele><time>2026-05-02T07:38:27.04Z</time></trkpt><trkpt lat="42.385917" lon="14.1312603"><ele>31.999999999999996</ele><time>2026-05-02T07:38:29.04Z</time></trkpt><trkpt lat="42.385843" lon="14.1311625"><ele>32.0</ele><time>2026-05-02T07:38:31.041Z</time></trkpt><trkpt lat="42.3857972" lon="14.1310972"><ele>32.0</ele><time>2026-05-02T07:38:32.04Z</time></trkpt><trkpt lat="42.385745" lon="14.1310247"><ele>32.0</ele><time>2026-05-02T07:38:33.04Z</time></trkpt><trkpt lat="42.3856761" lon="14.1309473"><ele>31.999999999999996</ele><time>2026-05-02T07:38:34.04Z</time></trkpt><trkpt lat="42.3856103" lon="14.1308729"><ele>32.0</ele><time>2026-05-02T07:38:35.04Z</time></trkpt><trkpt lat="42.3855451" lon="14.1308075"><ele>31.8</ele><time>2026-05-02T07:38:36.041Z</time></trkpt><trkpt lat="42.3854743" lon="14.1307479"><ele>31.6</ele><time>2026-05-02T07:38:37.041Z</time></trkpt><trkpt lat="42.3853909" lon="14.1306755"><ele>31.400000000000002</ele><time>2026-05-02T07:38:38.04Z</time></trkpt><trkpt lat="42.3853015" lon="14.1306015"><ele>31.200000000000003</ele><time>2026-05-02T07:38:39.04Z</time></trkpt><trkpt lat="42.3852104" lon="14.1305221"><ele>31.0</ele><time>2026-05-02T07:38:40.04Z</time></trkpt><trkpt lat="42.3851198" lon="14.1304396"><ele>31.0</ele><time>2026-05-02T07:38:41.04Z</time></trkpt><trkpt lat="42.3850245" lon="14.1303582"><ele>31.0</ele><time>2026-05-02T07:38:42.04Z</time></trkpt><trkpt lat="42.3849298" lon="14.1302681"><ele>31.0</ele><time>2026-05-02T07:38:43.041Z</time></trkpt><trkpt lat="42.3848335" lon="14.1301845"><ele>31.0</ele><time>2026-05-02T07:38:44.04Z</time></trkpt><trkpt lat="42.3847376" lon="14.1301027"><ele>30.8</ele><time>2026-05-02T07:38:45.04Z</time></trkpt><trkpt lat="42.3846391" lon="14.1300151"><ele>30.6</ele><time>2026-05-02T07:38:46.04Z</time></trkpt><trkpt lat="42.3845483" lon="14.1299325"><ele>30.4</ele><time>2026-05-02T07:38:47.04Z</time></trkpt><trkpt lat="42.3844567" lon="14.1298446"><ele>30.2</ele><time>2026-05-02T07:38:48.04Z</time></trkpt><trkpt lat="42.3843699" lon="14.1297625"><ele>30.0</ele><time>2026-05-02T07:38:49.041Z</time></trkpt><trkpt lat="42.3842844" lon="14.1296774"><ele>30.0</ele><time>2026-05-02T07:38:50.04Z</time></trkpt><trkpt lat="42.3841966" lon="14.1295929"><ele>30.0</ele><time>2026-05-02T07:38:51.04Z</time></trkpt><trkpt lat="42.3841083" lon="14.1295123"><ele>30.0</ele><time>2026-05-02T07:38:52.04Z</time></trkpt><trkpt lat="42.3840369" lon="14.1294372"><ele>30.0</ele><time>2026-05-02T07:38:53.041Z</time></trkpt><trkpt lat="42.383964" lon="14.129368"><ele>30.0</ele><time>2026-05-02T07:38:54.04Z</time></trkpt><trkpt lat="42.3838979" lon="14.1293107"><ele>30.0</ele><time>2026-05-02T07:38:55.04Z</time></trkpt><trkpt lat="42.3838356" lon="14.129253"><ele>30.0</ele><time>2026-05-02T07:38:56.041Z</time></trkpt><trkpt lat="42.3837775" lon="14.1292039"><ele>30.0</ele><time>2026-05-02T07:38:57.04Z</time></trkpt><trkpt lat="42.3837221" lon="14.1291504"><ele>30.0</ele><time>2026-05-02T07:38:58.04Z</time></trkpt><trkpt lat="42.3836613" lon="14.1290947"><ele>30.0</ele><time>2026-05-02T07:38:59.04Z</time></trkpt><trkpt lat="42.3835976" lon="14.129042"><ele>30.0</ele><time>2026-05-02T07:39:00.04Z</time></trkpt><trkpt lat="42.3835329" lon="14.128979"><ele>30.0</ele><time>2026-05-02T07:39:01.04Z</time></trkpt><trkpt lat="42.383465" lon="14.1289102"><ele>30.0</ele><time>2026-05-02T07:39:02.04Z</time></trkpt><trkpt lat="42.3834049" lon="14.1288491"><ele>30.0</ele><time>2026-05-02T07:39:03.041Z</time></trkpt><trkpt lat="42.3833505" lon="14.1288047"><ele>30.0</ele><time>2026-05-02T07:39:04.041Z</time></trkpt><trkpt lat="42.3832753" lon="14.1287666"><ele>30.0</ele><time>2026-05-02T07:39:06.04Z</time></trkpt><trkpt lat="42.3832117" lon="14.1287289"><ele>30.0</ele><time>2026-05-02T07:39:08.04Z</time></trkpt><trkpt lat="42.3831329" lon="14.1287163"><ele>30.0</ele><time>2026-05-02T07:39:11.04Z</time></trkpt><trkpt lat="42.383065" lon="14.1287782"><ele>30.2</ele><time>2026-05-02T07:39:13.04Z</time></trkpt><trkpt lat="42.3829785" lon="14.1288486"><ele>30.4</ele><time>2026-05-02T07:39:15.04Z</time></trkpt><trkpt lat="42.382892" lon="14.1288641"><ele>30.6</ele><time>2026-05-02T07:39:17.041Z</time></trkpt><trkpt lat="42.3827952" lon="14.128836"><ele>30.8</ele><time>2026-05-02T07:39:19.04Z</time></trkpt><trkpt lat="42.38271" lon="14.1287974"><ele>31.0</ele><time>2026-05-02T07:39:21.04Z</time></trkpt><trkpt lat="42.3826058" lon="14.1287734"><ele>31.0</ele><time>2026-05-02T07:39:23.041Z</time></trkpt><trkpt lat="42.3825173" lon="14.1288258"><ele>31.0</ele><time>2026-05-02T07:39:25.04Z</time></trkpt><trkpt lat="42.3824749" lon="14.1289281"><ele>31.0</ele><time>2026-05-02T07:39:27.04Z</time></trkpt><trkpt lat="42.382472" lon="14.1290731"><ele>31.0</ele><time>2026-05-02T07:39:29.041Z</time></trkpt><trkpt lat="42.3824878" lon="14.1292103"><ele>31.0</ele><time>2026-05-02T07:39:31.04Z</time></trkpt><trkpt lat="42.3824828" lon="14.1293483"><ele>30.8</ele><time>2026-05-02T07:39:33.04Z</time></trkpt><trkpt lat="42.3824468" lon="14.1295023"><ele>30.6</ele><time>2026-05-02T07:39:35.041Z</time></trkpt><trkpt lat="42.3824234" lon="14.1296249"><ele>30.4</ele><time>2026-05-02T07:39:37.04Z</time></trkpt><trkpt lat="42.3823659" lon="14.129695"><ele>30.2</ele><time>2026-05-02T07:39:40.04Z</time></trkpt><trkpt lat="42.3822764" lon="14.1297225"><ele>30.0</ele><time>2026-05-02T07:39:42.04Z</time></trkpt><trkpt lat="42.3821762" lon="14.1297572"><ele>28.833333333333332</ele><time>2026-05-02T07:39:44.04Z</time></trkpt><trkpt lat="42.3820592" lon="14.129789"><ele>27.666666666666668</ele><time>2026-05-02T07:39:46.04Z</time></trkpt><trkpt lat="42.3819623" lon="14.1297882"><ele>26.5</ele><time>2026-05-02T07:39:48.04Z</time></trkpt><trkpt lat="42.3818908" lon="14.1297872"><ele>25.333333333333336</ele><time>2026-05-02T07:39:50.041Z</time></trkpt><trkpt lat="42.3818897" lon="14.1298757"><ele>24.166666666666668</ele><time>2026-05-02T07:39:53.04Z</time></trkpt><trkpt lat="42.3819398" lon="14.1299658"><ele>23.0</ele><time>2026-05-02T07:39:55.04Z</time></trkpt><trkpt lat="42.3819664" lon="14.1300519"><ele>23.0</ele><time>2026-05-02T07:39:57.04Z</time></trkpt><trkpt lat="42.3819533" lon="14.1301485"><ele>23.0</ele><time>2026-05-02T07:40:00.04Z</time></trkpt><trkpt lat="42.3818918" lon="14.1301805"><ele>23.0</ele><time>2026-05-02T07:40:02.04Z</time></trkpt><trkpt lat="42.3818077" lon="14.1302171"><ele>23.0</ele><time>2026-05-02T07:40:04.04Z</time></trkpt><trkpt lat="42.381741" lon="14.1302158"><ele>23.0</ele><time>2026-05-02T07:40:06.04Z</time></trkpt><trkpt lat="42.3816788" lon="14.1301723"><ele>23.0</ele><time>2026-05-02T07:40:08.04Z</time></trkpt><trkpt lat="42.3816099" lon="14.1301246"><ele>23.0</ele><time>2026-05-02T07:40:10.04Z</time></trkpt><trkpt lat="42.3815449" lon="14.130078"><ele>23.0</ele><time>2026-05-02T07:40:12.041Z</time></trkpt><trkpt lat="42.3814641" lon="14.1300011"><ele>23.0</ele><time>2026-05-02T07:40:14.04Z</time></trkpt><trkpt lat="42.3813681" lon="14.1299289"><ele>23.0</ele><time>2026-05-02T07:40:16.041Z</time></trkpt><trkpt lat="42.3812448" lon="14.1298435"><ele>23.0</ele><time>2026-05-02T07:40:18.041Z</time></trkpt><trkpt lat="42.3811848" lon="14.1297952"><ele>23.0</ele><time>2026-05-02T07:40:19.04Z</time></trkpt><trkpt lat="42.3811285" lon="14.1297448"><ele>22.5</ele><time>2026-05-02T07:40:20.04Z</time></trkpt><trkpt lat="42.3810252" lon="14.1296489"><ele>22.0</ele><time>2026-05-02T07:40:22.04Z</time></trkpt><trkpt lat="42.3809174" lon="14.1295562"><ele>21.5</ele><time>2026-05-02T07:40:24.04Z</time></trkpt><trkpt lat="42.3808159" lon="14.129466"><ele>21.0</ele><time>2026-05-02T07:40:26.04Z</time></trkpt><trkpt lat="42.380725" lon="14.1293692"><ele>21.0</ele><time>2026-05-02T07:40:28.04Z</time></trkpt><trkpt lat="42.380635" lon="14.129294"><ele>21.0</ele><time>2026-05-02T07:40:30.04Z</time></trkpt><trkpt lat="42.38055" lon="14.1292263"><ele>21.0</ele><time>2026-05-02T07:40:32.04Z</time></trkpt><trkpt lat="42.3804625" lon="14.1291635"><ele>21.0</ele><time>2026-05-02T07:40:34.04Z</time></trkpt><trkpt lat="42.380402" lon="14.1291309"><ele>21.0</ele><time>2026-05-02T07:40:36.04Z</time></trkpt><trkpt lat="42.3803336" lon="14.1290925"><ele>21.0</ele><time>2026-05-02T07:40:38.04Z</time></trkpt><trkpt lat="42.3802334" lon="14.1290109"><ele>20.857142857142858</ele><time>2026-05-02T07:40:40.04Z</time></trkpt><trkpt lat="42.3801751" lon="14.1289681"><ele>20.714285714285715</ele><time>2026-05-02T07:40:41.04Z</time></trkpt><trkpt lat="42.3801163" lon="14.1289289"><ele>20.57142857142857</ele><time>2026-05-02T07:40:42.04Z</time></trkpt><trkpt lat="42.3800564" lon="14.1288998"><ele>20.42857142857143</ele><time>2026-05-02T07:40:43.04Z</time></trkpt><trkpt lat="42.3799977" lon="14.1288685"><ele>20.285714285714285</ele><time>2026-05-02T07:40:44.04Z</time></trkpt><trkpt lat="42.3799322" lon="14.1288378"><ele>20.142857142857142</ele><time>2026-05-02T07:40:45.04Z</time></trkpt><trkpt lat="42.3798684" lon="14.1288231"><ele>20.0</ele><time>2026-05-02T07:40:46.04Z</time></trkpt><trkpt lat="42.3798026" lon="14.1287965"><ele>20.0</ele><time>2026-05-02T07:40:47.04Z</time></trkpt><trkpt lat="42.3797318" lon="14.1287771"><ele>20.0</ele><time>2026-05-02T07:40:48.04Z</time></trkpt><trkpt lat="42.3796578" lon="14.1287664"><ele>20.0</ele><time>2026-05-02T07:40:49.04Z</time></trkpt><trkpt lat="42.3795831" lon="14.128749"><ele>20.0</ele><time>2026-05-02T07:40:50.041Z</time></trkpt><trkpt lat="42.3795157" lon="14.1287245"><ele>20.0</ele><time>2026-05-02T07:40:51.04Z</time></trkpt><trkpt lat="42.3794113" lon="14.1286999"><ele>20.0</ele><time>2026-05-02T07:40:53.04Z</time></trkpt><trkpt lat="42.3793222" lon="14.1286632"><ele>20.5</ele><time>2026-05-02T07:40:55.04Z</time></trkpt><trkpt lat="42.3792437" lon="14.1286471"><ele>21.0</ele><time>2026-05-02T07:40:57.04Z</time></trkpt><trkpt lat="42.3791641" lon="14.1286439"><ele>21.5</ele><time>2026-05-02T07:41:00.041Z</time></trkpt><trkpt lat="42.3790951" lon="14.1286461"><ele>22.0</ele><time>2026-05-02T07:41:03.041Z</time></trkpt><trkpt lat="42.3789984" lon="14.1286375"><ele>22.5</ele><time>2026-05-02T07:41:05.04Z</time></trkpt><trkpt lat="42.3789325" lon="14.1286315"><ele>23.0</ele><time>2026-05-02T07:41:06.04Z</time></trkpt><trkpt lat="42.3788588" lon="14.1286236"><ele>23.166666666666668</ele><time>2026-05-02T07:41:07.041Z</time></trkpt><trkpt lat="42.3787795" lon="14.1286097"><ele>23.333333333333336</ele><time>2026-05-02T07:41:08.04Z</time></trkpt><trkpt lat="42.3787023" lon="14.1285942"><ele>23.5</ele><time>2026-05-02T07:41:09.04Z</time></trkpt><trkpt lat="42.3786276" lon="14.1285792"><ele>23.666666666666668</ele><time>2026-05-02T07:41:10.04Z</time></trkpt><trkpt lat="42.3785517" lon="14.1285705"><ele>23.833333333333332</ele><time>2026-05-02T07:41:11.041Z</time></trkpt><trkpt lat="42.3784761" lon="14.1285567"><ele>24.0</ele><time>2026-05-02T07:41:12.04Z</time></trkpt><trkpt lat="42.3783982" lon="14.1285446"><ele>23.999999999999996</ele><time>2026-05-02T07:41:13.04Z</time></trkpt><trkpt lat="42.3783187" lon="14.128529"><ele>24.0</ele><time>2026-05-02T07:41:14.041Z</time></trkpt><trkpt lat="42.3782474" lon="14.1285203"><ele>24.0</ele><time>2026-05-02T07:41:15.04Z</time></trkpt><trkpt lat="42.3781797" lon="14.1285153"><ele>24.0</ele><time>2026-05-02T07:41:16.041Z</time></trkpt><trkpt lat="42.3781054" lon="14.1285138"><ele>24.0</ele><time>2026-05-02T07:41:17.04Z</time></trkpt><trkpt lat="42.3780295" lon="14.1285082"><ele>23.999999999999996</ele><time>2026-05-02T07:41:18.04Z</time></trkpt><trkpt lat="42.3779517" lon="14.1285055"><ele>24.0</ele><time>2026-05-02T07:41:19.041Z</time></trkpt><trkpt lat="42.3778759" lon="14.1285078"><ele>24.5</ele><time>2026-05-02T07:41:20.04Z</time></trkpt><trkpt lat="42.3777901" lon="14.1285175"><ele>25.0</ele><time>2026-05-02T07:41:21.04Z</time></trkpt><trkpt lat="42.3776985" lon="14.1285305"><ele>25.5</ele><time>2026-05-02T07:41:22.04Z</time></trkpt><trkpt lat="42.3776086" lon="14.1285403"><ele>26.0</ele><time>2026-05-02T07:41:23.04Z</time></trkpt><trkpt lat="42.3775289" lon="14.1285504"><ele>26.5</ele><time>2026-05-02T07:41:24.04Z</time></trkpt><trkpt lat="42.3774537" lon="14.1285553"><ele>27.0</ele><time>2026-05-02T07:41:25.04Z</time></trkpt><trkpt lat="42.3773771" lon="14.1285613"><ele>27.0</ele><time>2026-05-02T07:41:26.04Z</time></trkpt><trkpt lat="42.3772972" lon="14.1285664"><ele>27.0</ele><time>2026-05-02T07:41:27.04Z</time></trkpt><trkpt lat="42.3772108" lon="14.1285729"><ele>27.0</ele><time>2026-05-02T07:41:28.041Z</time></trkpt><trkpt lat="42.3771217" lon="14.1285805"><ele>27.0</ele><time>2026-05-02T07:41:29.04Z</time></trkpt><trkpt lat="42.3770305" lon="14.128589"><ele>27.0</ele><time>2026-05-02T07:41:30.04Z</time></trkpt><trkpt lat="42.3769394" lon="14.1285948"><ele>27.0</ele><time>2026-05-02T07:41:31.04Z</time></trkpt><trkpt lat="42.3768564" lon="14.1285959"><ele>26.5</ele><time>2026-05-02T07:41:32.041Z</time></trkpt><trkpt lat="42.3767677" lon="14.1285931"><ele>26.0</ele><time>2026-05-02T07:41:33.04Z</time></trkpt><trkpt lat="42.3766809" lon="14.1285875"><ele>25.5</ele><time>2026-05-02T07:41:34.04Z</time></trkpt><trkpt lat="42.3766001" lon="14.1285867"><ele>25.0</ele><time>2026-05-02T07:41:35.04Z</time></trkpt><trkpt lat="42.3765281" lon="14.128597"><ele>24.5</ele><time>2026-05-02T07:41:36.04Z</time></trkpt><trkpt lat="42.3764615" lon="14.1286049"><ele>24.0</ele><time>2026-05-02T07:41:37.041Z</time></trkpt><trkpt lat="42.3763551" lon="14.1286303"><ele>24.5</ele><time>2026-05-02T07:41:39.04Z</time></trkpt><trkpt lat="42.3762548" lon="14.1286434"><ele>25.0</ele><time>2026-05-02T07:41:41.041Z</time></trkpt><trkpt lat="42.3761918" lon="14.1286102"><ele>25.5</ele><time>2026-05-02T07:41:43.041Z</time></trkpt><trkpt lat="42.3761061" lon="14.1285458"><ele>26.0</ele><time>2026-05-02T07:41:45.04Z</time></trkpt><trkpt lat="42.3760352" lon="14.1284705"><ele>26.5</ele><time>2026-05-02T07:41:47.04Z</time></trkpt><trkpt lat="42.3759754" lon="14.1283886"><ele>27.0</ele><time>2026-05-02T07:41:49.04Z</time></trkpt><trkpt lat="42.375917" lon="14.1283046"><ele>27.5</ele><time>2026-05-02T07:41:51.04Z</time></trkpt><trkpt lat="42.3758748" lon="14.1282185"><ele>28.0</ele><time>2026-05-02T07:41:53.04Z</time></trkpt><trkpt lat="42.3758553" lon="14.1281367"><ele>28.5</ele><time>2026-05-02T07:41:56.04Z</time></trkpt><trkpt lat="42.3758052" lon="14.1280605"><ele>29.0</ele><time>2026-05-02T07:42:00.04Z</time></trkpt><trkpt lat="42.3757557" lon="14.1278968"><ele>29.5</ele><time>2026-05-02T07:42:09.04Z</time></trkpt><trkpt lat="42.3756749" lon="14.1279026"><ele>30.0</ele><time>2026-05-02T07:42:14.04Z</time></trkpt><trkpt lat="42.3756002" lon="14.1279188"><ele>30.0</ele><time>2026-05-02T07:42:17.04Z</time></trkpt><trkpt lat="42.3755018" lon="14.1279337"><ele>30.0</ele><time>2026-05-02T07:42:20.04Z</time></trkpt><trkpt lat="42.3754242" lon="14.1279482"><ele>30.0</ele><time>2026-05-02T07:42:23.04Z</time></trkpt><trkpt lat="42.3755063" lon="14.1279299"><ele>30.0</ele><time>2026-05-02T07:42:37.04Z</time></trkpt><trkpt lat="42.3755924" lon="14.1279167"><ele>30.0</ele><time>2026-05-02T07:42:40.04Z</time></trkpt><trkpt lat="42.3756747" lon="14.1279002"><ele>30.0</ele><time>2026-05-02T07:42:43.04Z</time></trkpt><trkpt lat="42.3757528" lon="14.1278781"><ele>30.0</ele><time>2026-05-02T07:43:14.04Z</time></trkpt><trkpt lat="42.3758182" lon="14.1278543"><ele>30.0</ele><time>2026-05-02T07:43:16.04Z</time></trkpt><trkpt lat="42.3758848" lon="14.1278514"><ele>30.0</ele><time>2026-05-02T07:43:19.04Z</time></trkpt><trkpt lat="42.3759296" lon="14.1277636"><ele>30.0</ele><time>2026-05-02T07:43:22.041Z</time></trkpt><trkpt lat="42.3759526" lon="14.1276649"><ele>30.0</ele><time>2026-05-02T07:43:24.04Z</time></trkpt><trkpt lat="42.3759875" lon="14.1275605"><ele>30.0</ele><time>2026-05-02T07:43:26.04Z</time></trkpt><trkpt lat="42.3760038" lon="14.1274691"><ele>30.0</ele><time>2026-05-02T07:43:28.04Z</time></trkpt><trkpt lat="42.3760213" lon="14.1273331"><ele>29.666666666666668</ele><time>2026-05-02T07:43:30.04Z</time></trkpt><trkpt lat="42.3760343" lon="14.1271598"><ele>29.333333333333336</ele><time>2026-05-02T07:43:32.04Z</time></trkpt><trkpt lat="42.3760512" lon="14.1270651"><ele>29.0</ele><time>2026-05-02T07:43:33.04Z</time></trkpt><trkpt lat="42.3760674" lon="14.1269809"><ele>28.666666666666668</ele><time>2026-05-02T07:43:34.041Z</time></trkpt><trkpt lat="42.3760923" lon="14.126896"><ele>28.333333333333336</ele><time>2026-05-02T07:43:35.04Z</time></trkpt><trkpt lat="42.3761096" lon="14.1268114"><ele>28.0</ele><time>2026-05-02T07:43:36.04Z</time></trkpt><trkpt lat="42.3761414" lon="14.126654"><ele>28.000000000000004</ele><time>2026-05-02T07:43:38.04Z</time></trkpt><trkpt lat="42.3761599" lon="14.1265679"><ele>28.0</ele><time>2026-05-02T07:43:39.041Z</time></trkpt><trkpt lat="42.3761746" lon="14.126476"><ele>28.0</ele><time>2026-05-02T07:43:40.04Z</time></trkpt><trkpt lat="42.3762062" lon="14.1263315"><ele>28.0</ele><time>2026-05-02T07:43:42.04Z</time></trkpt><trkpt lat="42.376175" lon="14.1262408"><ele>28.000000000000004</ele><time>2026-05-02T07:43:47.04Z</time></trkpt><trkpt lat="42.376108" lon="14.1261962"><ele>28.0</ele><time>2026-05-02T07:43:49.04Z</time></trkpt><trkpt lat="42.376037" lon="14.1261426"><ele>27.833333333333336</ele><time>2026-05-02T07:43:51.041Z</time></trkpt><trkpt lat="42.375949" lon="14.1260989"><ele>27.666666666666668</ele><time>2026-05-02T07:43:53.041Z</time></trkpt><trkpt lat="42.3758857" lon="14.1260721"><ele>27.5</ele><time>2026-05-02T07:43:54.04Z</time></trkpt><trkpt lat="42.3758202" lon="14.1260469"><ele>27.333333333333336</ele><time>2026-05-02T07:43:55.041Z</time></trkpt><trkpt lat="42.3757524" lon="14.1260178"><ele>27.166666666666668</ele><time>2026-05-02T07:43:56.041Z</time></trkpt><trkpt lat="42.3756881" lon="14.1259992"><ele>27.0</ele><time>2026-05-02T07:43:57.04Z</time></trkpt><trkpt lat="42.3755891" lon="14.1259463"><ele>27.0</ele><time>2026-05-02T07:43:59.041Z</time></trkpt><trkpt lat="42.3754853" lon="14.1258866"><ele>27.0</ele><time>2026-05-02T07:44:01.041Z</time></trkpt><trkpt lat="42.3754237" lon="14.1258286"><ele>27.0</ele><time>2026-05-02T07:44:03.04Z</time></trkpt><trkpt lat="42.3754423" lon="14.1256668"><ele>27.0</ele><time>2026-05-02T07:44:06.041Z</time></trkpt><trkpt lat="42.3754661" lon="14.1255848"><ele>27.0</ele><time>2026-05-02T07:44:07.04Z</time></trkpt><trkpt lat="42.3754846" lon="14.1254884"><ele>27.0</ele><time>2026-05-02T07:44:08.04Z</time></trkpt><trkpt lat="42.3754892" lon="14.1253781"><ele>27.0</ele><time>2026-05-02T07:44:09.041Z</time></trkpt><trkpt lat="42.3754758" lon="14.1252675"><ele>27.000000000000004</ele><time>2026-05-02T07:44:10.041Z</time></trkpt><trkpt lat="42.375463" lon="14.1251552"><ele>27.000000000000004</ele><time>2026-05-02T07:44:11.04Z</time></trkpt><trkpt lat="42.3754464" lon="14.1250294"><ele>27.0</ele><time>2026-05-02T07:44:12.04Z</time></trkpt><trkpt lat="42.3754279" lon="14.1248947"><ele>27.0</ele><time>2026-05-02T07:44:13.04Z</time></trkpt><trkpt lat="42.3754161" lon="14.1247684"><ele>27.666666666666668</ele><time>2026-05-02T07:44:14.04Z</time></trkpt><trkpt lat="42.3754055" lon="14.124662"><ele>28.333333333333336</ele><time>2026-05-02T07:44:15.04Z</time></trkpt><trkpt lat="42.3754005" lon="14.1245761"><ele>29.0</ele><time>2026-05-02T07:44:16.04Z</time></trkpt><trkpt lat="42.3754268" lon="14.1244252"><ele>29.666666666666668</ele><time>2026-05-02T07:44:18.04Z</time></trkpt><trkpt lat="42.3755032" lon="14.1243491"><ele>30.333333333333336</ele><time>2026-05-02T07:44:20.041Z</time></trkpt><trkpt lat="42.3755677" lon="14.1243556"><ele>31.0</ele><time>2026-05-02T07:44:21.04Z</time></trkpt><trkpt lat="42.3756611" lon="14.1243684"><ele>32.16666666666667</ele><time>2026-05-02T07:44:22.04Z</time></trkpt><trkpt lat="42.3757556" lon="14.1243897"><ele>33.333333333333336</ele><time>2026-05-02T07:44:23.041Z</time></trkpt><trkpt lat="42.3758474" lon="14.1244043"><ele>34.5</ele><time>2026-05-02T07:44:24.04Z</time></trkpt><trkpt lat="42.3759295" lon="14.1244166"><ele>35.666666666666664</ele><time>2026-05-02T07:44:25.04Z</time></trkpt><trkpt lat="42.3760021" lon="14.1244237"><ele>36.83333333333333</ele><time>2026-05-02T07:44:26.04Z</time></trkpt><trkpt lat="42.3760678" lon="14.1244341"><ele>38.0</ele><time>2026-05-02T07:44:27.041Z</time></trkpt><trkpt lat="42.3761358" lon="14.1244621"><ele>38.0</ele><time>2026-05-02T07:44:28.04Z</time></trkpt><trkpt lat="42.376207" lon="14.1244963"><ele>38.0</ele><time>2026-05-02T07:44:29.04Z</time></trkpt><trkpt lat="42.3762772" lon="14.1245045"><ele>38.0</ele><time>2026-05-02T07:44:30.04Z</time></trkpt><trkpt lat="42.3763449" lon="14.1245162"><ele>38.0</ele><time>2026-05-02T07:44:32.04Z</time></trkpt><trkpt lat="42.3764348" lon="14.1245346"><ele>38.0</ele><time>2026-05-02T07:44:36.04Z</time></trkpt><trkpt lat="42.3765068" lon="14.1245265"><ele>38.0</ele><time>2026-05-02T07:44:37.041Z</time></trkpt><trkpt lat="42.3766092" lon="14.1244796"><ele>38.0</ele><time>2026-05-02T07:44:39.04Z</time></trkpt><trkpt lat="42.3766511" lon="14.1243665"><ele>38.0</ele><time>2026-05-02T07:44:41.04Z</time></trkpt><trkpt lat="42.376589" lon="14.1242354"><ele>38.0</ele><time>2026-05-02T07:44:43.04Z</time></trkpt><trkpt lat="42.376461" lon="14.1241936"><ele>38.0</ele><time>2026-05-02T07:44:45.04Z</time></trkpt><trkpt lat="42.3763903" lon="14.1241713"><ele>38.0</ele><time>2026-05-02T07:44:46.041Z</time></trkpt><trkpt lat="42.3763169" lon="14.1241204"><ele>38.0</ele><time>2026-05-02T07:44:47.041Z</time></trkpt><trkpt lat="42.3762468" lon="14.1240694"><ele>38.0</ele><time>2026-05-02T07:44:48.04Z</time></trkpt><trkpt lat="42.3761724" lon="14.1240407"><ele>38.0</ele><time>2026-05-02T07:44:49.041Z</time></trkpt><trkpt lat="42.3760999" lon="14.1240204"><ele>38.0</ele><time>2026-05-02T07:44:50.04Z</time></trkpt><trkpt lat="42.3760132" lon="14.1239911"><ele>38.0</ele><time>2026-05-02T07:44:51.041Z</time></trkpt><trkpt lat="42.375914" lon="14.1239598"><ele>38.0</ele><time>2026-05-02T07:44:52.04Z</time></trkpt><trkpt lat="42.3758083" lon="14.1239177"><ele>38.25</ele><time>2026-05-02T07:44:53.04Z</time></trkpt><trkpt lat="42.3756889" lon="14.1238654"><ele>38.5</ele><time>2026-05-02T07:44:54.04Z</time></trkpt><trkpt lat="42.3755672" lon="14.1237863"><ele>38.75</ele><time>2026-05-02T07:44:55.041Z</time></trkpt><trkpt lat="42.3754365" lon="14.1236905"><ele>39.0</ele><time>2026-05-02T07:44:56.04Z</time></trkpt><trkpt lat="42.3753029" lon="14.1235929"><ele>39.0</ele><time>2026-05-02T07:44:57.04Z</time></trkpt><trkpt lat="42.3751691" lon="14.123491"><ele>39.0</ele><time>2026-05-02T07:44:58.04Z</time></trkpt><trkpt lat="42.3750289" lon="14.123381"><ele>39.0</ele><time>2026-05-02T07:44:59.04Z</time></trkpt><trkpt lat="42.3748873" lon="14.1232771"><ele>39.5</ele><time>2026-05-02T07:45:00.04Z</time></trkpt><trkpt lat="42.3747554" lon="14.1231801"><ele>40.0</ele><time>2026-05-02T07:45:01.041Z</time></trkpt><trkpt lat="42.3746354" lon="14.1230855"><ele>40.5</ele><time>2026-05-02T07:45:02.04Z</time></trkpt><trkpt lat="42.3745203" lon="14.1229958"><ele>41.0</ele><time>2026-05-02T07:45:03.04Z</time></trkpt><trkpt lat="42.3744165" lon="14.1229014"><ele>41.0</ele><time>2026-05-02T07:45:04.04Z</time></trkpt><trkpt lat="42.3743213" lon="14.1228004"><ele>41.0</ele><time>2026-05-02T07:45:05.041Z</time></trkpt><trkpt lat="42.3742397" lon="14.1227075"><ele>41.0</ele><time>2026-05-02T07:45:06.04Z</time></trkpt><trkpt lat="42.3741508" lon="14.1226319"><ele>41.0</ele><time>2026-05-02T07:45:07.041Z</time></trkpt><trkpt lat="42.3740457" lon="14.1225719"><ele>41.0</ele><time>2026-05-02T07:45:08.04Z</time></trkpt><trkpt lat="42.3739231" lon="14.1225031"><ele>41.0</ele><time>2026-05-02T07:45:09.04Z</time></trkpt><trkpt lat="42.373802" lon="14.1224225"><ele>41.0</ele><time>2026-05-02T07:45:10.04Z</time></trkpt><trkpt lat="42.3736773" lon="14.1223299"><ele>41.0</ele><time>2026-05-02T07:45:11.04Z</time></trkpt><trkpt lat="42.373544" lon="14.1222338"><ele>41.0</ele><time>2026-05-02T07:45:12.04Z</time></trkpt><trkpt lat="42.3734158" lon="14.1221234"><ele>41.0</ele><time>2026-05-02T07:45:13.04Z</time></trkpt><trkpt lat="42.3732889" lon="14.1220137"><ele>41.0</ele><time>2026-05-02T07:45:14.04Z</time></trkpt><trkpt lat="42.3731554" lon="14.121908"><ele>41.0</ele><time>2026-05-02T07:45:15.04Z</time></trkpt><trkpt lat="42.3730209" lon="14.121806"><ele>41.666666666666664</ele><time>2026-05-02T07:45:16.04Z</time></trkpt><trkpt lat="42.3728839" lon="14.1217038"><ele>42.333333333333336</ele><time>2026-05-02T07:45:17.04Z</time></trkpt><trkpt lat="42.3727448" lon="14.1215961"><ele>43.0</ele><time>2026-05-02T07:45:18.04Z</time></trkpt><trkpt lat="42.3726049" lon="14.1214809"><ele>43.0</ele><time>2026-05-02T07:45:19.041Z</time></trkpt><trkpt lat="42.3724672" lon="14.1213654"><ele>43.0</ele><time>2026-05-02T07:45:20.04Z</time></trkpt><trkpt lat="42.3723277" lon="14.121253"><ele>43.0</ele><time>2026-05-02T07:45:21.04Z</time></trkpt><trkpt lat="42.3721799" lon="14.1211492"><ele>39.66666666666667</ele><time>2026-05-02T07:45:22.04Z</time></trkpt><trkpt lat="42.3720245" lon="14.1210568"><ele>36.333333333333336</ele><time>2026-05-02T07:45:23.041Z</time></trkpt><trkpt lat="42.37187" lon="14.1209736"><ele>33.0</ele><time>2026-05-02T07:45:24.04Z</time></trkpt><trkpt lat="42.3717272" lon="14.1209071"><ele>33.0</ele><time>2026-05-02T07:45:25.041Z</time></trkpt><trkpt lat="42.3715963" lon="14.1208461"><ele>33.0</ele><time>2026-05-02T07:45:26.04Z</time></trkpt><trkpt lat="42.3714759" lon="14.1207888"><ele>33.0</ele><time>2026-05-02T07:45:27.04Z</time></trkpt><trkpt lat="42.3713636" lon="14.1207301"><ele>33.0</ele><time>2026-05-02T07:45:28.04Z</time></trkpt><trkpt lat="42.3712558" lon="14.1206774"><ele>34.0</ele><time>2026-05-02T07:45:29.04Z</time></trkpt><trkpt lat="42.3711499" lon="14.1206319"><ele>35.0</ele><time>2026-05-02T07:45:30.04Z</time></trkpt><trkpt lat="42.3710456" lon="14.1205982"><ele>36.0</ele><time>2026-05-02T07:45:31.04Z</time></trkpt><trkpt lat="42.3709436" lon="14.1205605"><ele>37.0</ele><time>2026-05-02T07:45:32.04Z</time></trkpt><trkpt lat="42.3708392" lon="14.1205315"><ele>38.0</ele><time>2026-05-02T07:45:33.04Z</time></trkpt><trkpt lat="42.3707326" lon="14.1205105"><ele>38.0</ele><time>2026-05-02T07:45:34.04Z</time></trkpt><trkpt lat="42.370616" lon="14.1204904"><ele>38.0</ele><time>2026-05-02T07:45:35.04Z</time></trkpt><trkpt lat="42.3704908" lon="14.1204721"><ele>38.0</ele><time>2026-05-02T07:45:36.041Z</time></trkpt><trkpt lat="42.370359" lon="14.1204628"><ele>38.0</ele><time>2026-05-02T07:45:37.04Z</time></trkpt><trkpt lat="42.3702127" lon="14.1204578"><ele>37.666666666666664</ele><time>2026-05-02T07:45:38.04Z</time></trkpt><trkpt lat="42.3700539" lon="14.1204404"><ele>37.333333333333336</ele><time>2026-05-02T07:45:39.041Z</time></trkpt><trkpt lat="42.3698761" lon="14.1204275"><ele>37.0</ele><time>2026-05-02T07:45:40.04Z</time></trkpt><trkpt lat="42.3696983" lon="14.1204096"><ele>37.0</ele><time>2026-05-02T07:45:41.041Z</time></trkpt><trkpt lat="42.3695327" lon="14.1203733"><ele>37.0</ele><time>2026-05-02T07:45:42.04Z</time></trkpt><trkpt lat="42.3693631" lon="14.1203438"><ele>37.0</ele><time>2026-05-02T07:45:43.04Z</time></trkpt><trkpt lat="42.3691938" lon="14.1203117"><ele>37.0</ele><time>2026-05-02T07:45:44.04Z</time></trkpt><trkpt lat="42.3690248" lon="14.1202801"><ele>37.0</ele><time>2026-05-02T07:45:45.04Z</time></trkpt><trkpt lat="42.3688559" lon="14.120253"><ele>37.0</ele><time>2026-05-02T07:45:46.04Z</time></trkpt><trkpt lat="42.3686862" lon="14.1202263"><ele>34.333333333333336</ele><time>2026-05-02T07:45:47.04Z</time></trkpt><trkpt lat="42.368515" lon="14.120192"><ele>31.666666666666664</ele><time>2026-05-02T07:45:48.04Z</time></trkpt><trkpt lat="42.3683465" lon="14.1201284"><ele>29.0</ele><time>2026-05-02T07:45:49.04Z</time></trkpt><trkpt lat="42.3681861" lon="14.1200442"><ele>29.0</ele><time>2026-05-02T07:45:50.04Z</time></trkpt><trkpt lat="42.3680286" lon="14.1199472"><ele>29.0</ele><time>2026-05-02T07:45:51.04Z</time></trkpt><trkpt lat="42.3678639" lon="14.1198439"><ele>29.0</ele><time>2026-05-02T07:45:52.04Z</time></trkpt><trkpt lat="42.3677032" lon="14.1197345"><ele>28.666666666666664</ele><time>2026-05-02T07:45:53.04Z</time></trkpt><trkpt lat="42.3675384" lon="14.1196197"><ele>28.333333333333336</ele><time>2026-05-02T07:45:54.04Z</time></trkpt><trkpt lat="42.3673783" lon="14.1195076"><ele>28.0</ele><time>2026-05-02T07:45:55.04Z</time></trkpt><trkpt lat="42.3672233" lon="14.1194023"><ele>27.666666666666668</ele><time>2026-05-02T07:45:56.04Z</time></trkpt><trkpt lat="42.3670676" lon="14.1192924"><ele>27.333333333333336</ele><time>2026-05-02T07:45:57.041Z</time></trkpt><trkpt lat="42.3669169" lon="14.1191949"><ele>27.0</ele><time>2026-05-02T07:45:58.04Z</time></trkpt><trkpt lat="42.3667693" lon="14.1190879"><ele>27.333333333333336</ele><time>2026-05-02T07:45:59.04Z</time></trkpt><trkpt lat="42.3666215" lon="14.1189786"><ele>27.666666666666668</ele><time>2026-05-02T07:46:00.04Z</time></trkpt><trkpt lat="42.3664704" lon="14.1188669"><ele>28.0</ele><time>2026-05-02T07:46:01.04Z</time></trkpt><trkpt lat="42.3663193" lon="14.1187613"><ele>28.0</ele><time>2026-05-02T07:46:02.04Z</time></trkpt><trkpt lat="42.3661717" lon="14.1186603"><ele>28.0</ele><time>2026-05-02T07:46:03.04Z</time></trkpt><trkpt lat="42.3660268" lon="14.1185648"><ele>28.0</ele><time>2026-05-02T07:46:04.04Z</time></trkpt><trkpt lat="42.3658929" lon="14.1184705"><ele>28.0</ele><time>2026-05-02T07:46:05.041Z</time></trkpt><trkpt lat="42.3657626" lon="14.1183776"><ele>28.0</ele><time>2026-05-02T07:46:06.04Z</time></trkpt><trkpt lat="42.3656311" lon="14.1182935"><ele>28.0</ele><time>2026-05-02T07:46:07.04Z</time></trkpt><trkpt lat="42.36549" lon="14.1182024"><ele>28.0</ele><time>2026-05-02T07:46:08.04Z</time></trkpt><trkpt lat="42.3653462" lon="14.118104"><ele>29.333333333333336</ele><time>2026-05-02T07:46:09.04Z</time></trkpt><trkpt lat="42.3652019" lon="14.118001"><ele>30.666666666666664</ele><time>2026-05-02T07:46:10.04Z</time></trkpt><trkpt lat="42.3650519" lon="14.1178978"><ele>32.0</ele><time>2026-05-02T07:46:11.041Z</time></trkpt><trkpt lat="42.3649016" lon="14.1177934"><ele>32.0</ele><time>2026-05-02T07:46:12.04Z</time></trkpt><trkpt lat="42.3647419" lon="14.1176925"><ele>32.0</ele><time>2026-05-02T07:46:13.041Z</time></trkpt><trkpt lat="42.3645815" lon="14.1175976"><ele>32.0</ele><time>2026-05-02T07:46:14.04Z</time></trkpt><trkpt lat="42.3644164" lon="14.117515"><ele>32.33333333333333</ele><time>2026-05-02T07:46:15.04Z</time></trkpt><trkpt lat="42.364245" lon="14.1174632"><ele>32.666666666666664</ele><time>2026-05-02T07:46:16.04Z</time></trkpt><trkpt lat="42.3640738" lon="14.117447"><ele>33.0</ele><time>2026-05-02T07:46:17.04Z</time></trkpt><trkpt lat="42.363901" lon="14.1174389"><ele>32.333333333333336</ele><time>2026-05-02T07:46:18.04Z</time></trkpt><trkpt lat="42.3637291" lon="14.117434"><ele>31.666666666666668</ele><time>2026-05-02T07:46:19.04Z</time></trkpt><trkpt lat="42.3635568" lon="14.1174345"><ele>31.0</ele><time>2026-05-02T07:46:20.04Z</time></trkpt><trkpt lat="42.363396" lon="14.1174359"><ele>31.0</ele><time>2026-05-02T07:46:21.04Z</time></trkpt><trkpt lat="42.363237" lon="14.1174329"><ele>31.0</ele><time>2026-05-02T07:46:22.041Z</time></trkpt><trkpt lat="42.3630802" lon="14.1174207"><ele>31.0</ele><time>2026-05-02T07:46:23.04Z</time></trkpt><trkpt lat="42.3629218" lon="14.117407"><ele>35.66666666666667</ele><time>2026-05-02T07:46:24.04Z</time></trkpt><trkpt lat="42.3627704" lon="14.1173808"><ele>40.333333333333336</ele><time>2026-05-02T07:46:25.041Z</time></trkpt><trkpt lat="42.3626203" lon="14.117341"><ele>45.0</ele><time>2026-05-02T07:46:26.041Z</time></trkpt><trkpt lat="42.3624742" lon="14.1172708"><ele>45.0</ele><time>2026-05-02T07:46:27.041Z</time></trkpt><trkpt lat="42.3623346" lon="14.1172023"><ele>45.0</ele><time>2026-05-02T07:46:28.04Z</time></trkpt><trkpt lat="42.3621972" lon="14.1171371"><ele>45.0</ele><time>2026-05-02T07:46:29.04Z</time></trkpt><trkpt lat="42.3620597" lon="14.1170778"><ele>45.0</ele><time>2026-05-02T07:46:30.04Z</time></trkpt><trkpt lat="42.3619163" lon="14.1170133"><ele>42.0</ele><time>2026-05-02T07:46:31.04Z</time></trkpt><trkpt lat="42.361764" lon="14.1169539"><ele>39.0</ele><time>2026-05-02T07:46:32.04Z</time></trkpt><trkpt lat="42.3616092" lon="14.1168906"><ele>36.0</ele><time>2026-05-02T07:46:33.04Z</time></trkpt><trkpt lat="42.3614469" lon="14.1168247"><ele>34.0</ele><time>2026-05-02T07:46:34.04Z</time></trkpt><trkpt lat="42.3612798" lon="14.1167458"><ele>32.0</ele><time>2026-05-02T07:46:35.04Z</time></trkpt><trkpt lat="42.3611073" lon="14.1166702"><ele>30.0</ele><time>2026-05-02T07:46:36.04Z</time></trkpt><trkpt lat="42.3609285" lon="14.1165909"><ele>32.333333333333336</ele><time>2026-05-02T07:46:37.04Z</time></trkpt><trkpt lat="42.3607517" lon="14.1165158"><ele>34.66666666666667</ele><time>2026-05-02T07:46:38.04Z</time></trkpt><trkpt lat="42.3605687" lon="14.1164419"><ele>37.0</ele><time>2026-05-02T07:46:39.04Z</time></trkpt><trkpt lat="42.360374" lon="14.1163654"><ele>37.0</ele><time>2026-05-02T07:46:40.041Z</time></trkpt><trkpt lat="42.3601766" lon="14.1162775"><ele>37.0</ele><time>2026-05-02T07:46:41.04Z</time></trkpt><trkpt lat="42.359973" lon="14.1161853"><ele>37.0</ele><time>2026-05-02T07:46:42.04Z</time></trkpt><trkpt lat="42.3597627" lon="14.1160863"><ele>36.66666666666667</ele><time>2026-05-02T07:46:43.04Z</time></trkpt><trkpt lat="42.3595521" lon="14.1159845"><ele>36.333333333333336</ele><time>2026-05-02T07:46:44.04Z</time></trkpt><trkpt lat="42.3593473" lon="14.115883"><ele>36.0</ele><time>2026-05-02T07:46:45.04Z</time></trkpt><trkpt lat="42.3591596" lon="14.1157978"><ele>37.666666666666664</ele><time>2026-05-02T07:46:46.04Z</time></trkpt><trkpt lat="42.3589777" lon="14.1157197"><ele>39.33333333333333</ele><time>2026-05-02T07:46:47.04Z</time></trkpt><trkpt lat="42.3588054" lon="14.1156524"><ele>41.0</ele><time>2026-05-02T07:46:48.04Z</time></trkpt><trkpt lat="42.3586358" lon="14.1155797"><ele>41.0</ele><time>2026-05-02T07:46:49.04Z</time></trkpt><trkpt lat="42.3584643" lon="14.1155181"><ele>41.0</ele><time>2026-05-02T07:46:50.04Z</time></trkpt><trkpt lat="42.3582936" lon="14.1154532"><ele>41.0</ele><time>2026-05-02T07:46:51.04Z</time></trkpt><trkpt lat="42.3581179" lon="14.1153799"><ele>41.0</ele><time>2026-05-02T07:46:52.04Z</time></trkpt><trkpt lat="42.3579418" lon="14.1153083"><ele>41.0</ele><time>2026-05-02T07:46:53.04Z</time></trkpt><trkpt lat="42.3577636" lon="14.1152399"><ele>41.0</ele><time>2026-05-02T07:46:54.04Z</time></trkpt><trkpt lat="42.3575844" lon="14.115168"><ele>41.0</ele><time>2026-05-02T07:46:55.04Z</time></trkpt><trkpt lat="42.3574074" lon="14.1150943"><ele>41.0</ele><time>2026-05-02T07:46:56.04Z</time></trkpt><trkpt lat="42.357226" lon="14.1150177"><ele>41.0</ele><time>2026-05-02T07:46:57.04Z</time></trkpt><trkpt lat="42.3570443" lon="14.1149497"><ele>43.666666666666664</ele><time>2026-05-02T07:46:58.041Z</time></trkpt><trkpt lat="42.3568639" lon="14.114877"><ele>46.33333333333333</ele><time>2026-05-02T07:46:59.04Z</time></trkpt><trkpt lat="42.3566813" lon="14.1148045"><ele>49.0</ele><time>2026-05-02T07:47:00.04Z</time></trkpt><trkpt lat="42.3564975" lon="14.1147287"><ele>48.33333333333333</ele><time>2026-05-02T07:47:01.04Z</time></trkpt><trkpt lat="42.3563161" lon="14.1146506"><ele>47.666666666666664</ele><time>2026-05-02T07:47:02.041Z</time></trkpt><trkpt lat="42.3561353" lon="14.1145805"><ele>47.0</ele><time>2026-05-02T07:47:03.04Z</time></trkpt><trkpt lat="42.3559479" lon="14.1145102"><ele>47.0</ele><time>2026-05-02T07:47:04.04Z</time></trkpt><trkpt lat="42.3557675" lon="14.1144383"><ele>47.0</ele><time>2026-05-02T07:47:05.04Z</time></trkpt><trkpt lat="42.3555911" lon="14.1143611"><ele>47.0</ele><time>2026-05-02T07:47:06.04Z</time></trkpt><trkpt lat="42.3554125" lon="14.1142913"><ele>43.666666666666664</ele><time>2026-05-02T07:47:07.041Z</time></trkpt><trkpt lat="42.3552365" lon="14.114227"><ele>40.333333333333336</ele><time>2026-05-02T07:47:08.04Z</time></trkpt><trkpt lat="42.3550711" lon="14.1141614"><ele>37.0</ele><time>2026-05-02T07:47:09.04Z</time></trkpt><trkpt lat="42.3549123" lon="14.1140964"><ele>36.66666666666667</ele><time>2026-05-02T07:47:10.04Z</time></trkpt><trkpt lat="42.3547619" lon="14.1140306"><ele>36.333333333333336</ele><time>2026-05-02T07:47:11.04Z</time></trkpt><trkpt lat="42.3546108" lon="14.1139718"><ele>36.0</ele><time>2026-05-02T07:47:12.04Z</time></trkpt><trkpt lat="42.3544612" lon="14.1139194"><ele>36.0</ele><time>2026-05-02T07:47:13.041Z</time></trkpt><trkpt lat="42.354308" lon="14.1138589"><ele>36.0</ele><time>2026-05-02T07:47:14.04Z</time></trkpt><trkpt lat="42.35415" lon="14.1137916"><ele>36.0</ele><time>2026-05-02T07:47:15.04Z</time></trkpt><trkpt lat="42.3539864" lon="14.1137209"><ele>35.666666666666664</ele><time>2026-05-02T07:47:16.04Z</time></trkpt><trkpt lat="42.3538176" lon="14.1136558"><ele>35.33333333333333</ele><time>2026-05-02T07:47:17.04Z</time></trkpt><trkpt lat="42.3536474" lon="14.1135899"><ele>35.0</ele><time>2026-05-02T07:47:18.04Z</time></trkpt><trkpt lat="42.3534755" lon="14.1135223"><ele>35.0</ele><time>2026-05-02T07:47:19.04Z</time></trkpt><trkpt lat="42.3533067" lon="14.1134513"><ele>35.0</ele><time>2026-05-02T07:47:20.04Z</time></trkpt><trkpt lat="42.3531357" lon="14.1133754"><ele>35.0</ele><time>2026-05-02T07:47:21.04Z</time></trkpt><trkpt lat="42.3529638" lon="14.1133104"><ele>35.0</ele><time>2026-05-02T07:47:22.04Z</time></trkpt><trkpt lat="42.3527807" lon="14.1132372"><ele>35.0</ele><time>2026-05-02T07:47:23.04Z</time></trkpt><trkpt lat="42.3525994" lon="14.1131718"><ele>35.0</ele><time>2026-05-02T07:47:24.041Z</time></trkpt><trkpt lat="42.352422" lon="14.1130962"><ele>35.0</ele><time>2026-05-02T07:47:25.04Z</time></trkpt><trkpt lat="42.3522405" lon="14.1130222"><ele>35.0</ele><time>2026-05-02T07:47:26.041Z</time></trkpt><trkpt lat="42.3520546" lon="14.1129536"><ele>35.0</ele><time>2026-05-02T07:47:27.04Z</time></trkpt><trkpt lat="42.3518671" lon="14.1128746"><ele>36.666666666666664</ele><time>2026-05-02T07:47:28.04Z</time></trkpt><trkpt lat="42.3516769" lon="14.1128006"><ele>38.333333333333336</ele><time>2026-05-02T07:47:29.04Z</time></trkpt><trkpt lat="42.3514925" lon="14.112722"><ele>40.0</ele><time>2026-05-02T07:47:30.04Z</time></trkpt><trkpt lat="42.35131" lon="14.1126488"><ele>41.333333333333336</ele><time>2026-05-02T07:47:31.04Z</time></trkpt><trkpt lat="42.3511422" lon="14.1125804"><ele>42.666666666666664</ele><time>2026-05-02T07:47:32.04Z</time></trkpt><trkpt lat="42.3509769" lon="14.1125211"><ele>44.0</ele><time>2026-05-02T07:47:33.04Z</time></trkpt><trkpt lat="42.3508199" lon="14.1124936"><ele>44.0</ele><time>2026-05-02T07:47:34.041Z</time></trkpt><trkpt lat="42.3506752" lon="14.1124711"><ele>44.0</ele><time>2026-05-02T07:47:35.04Z</time></trkpt><trkpt lat="42.350539" lon="14.1124499"><ele>44.0</ele><time>2026-05-02T07:47:36.04Z</time></trkpt><trkpt lat="42.3504164" lon="14.1124284"><ele>44.0</ele><time>2026-05-02T07:47:37.041Z</time></trkpt><trkpt lat="42.3503077" lon="14.1124052"><ele>44.0</ele><time>2026-05-02T07:47:38.04Z</time></trkpt><trkpt lat="42.3502106" lon="14.1123802"><ele>44.0</ele><time>2026-05-02T07:47:39.04Z</time></trkpt><trkpt lat="42.350129" lon="14.1123616"><ele>44.0</ele><time>2026-05-02T07:47:40.04Z</time></trkpt><trkpt lat="42.3500505" lon="14.1123561"><ele>44.0</ele><time>2026-05-02T07:47:41.04Z</time></trkpt><trkpt lat="42.3499713" lon="14.1123863"><ele>44.0</ele><time>2026-05-02T07:47:42.04Z</time></trkpt><trkpt lat="42.3498932" lon="14.1124481"><ele>44.0</ele><time>2026-05-02T07:47:43.04Z</time></trkpt><trkpt lat="42.3498321" lon="14.1125281"><ele>44.0</ele><time>2026-05-02T07:47:44.041Z</time></trkpt><trkpt lat="42.3497745" lon="14.11257"><ele>44.0</ele><time>2026-05-02T07:47:45.04Z</time></trkpt><trkpt lat="42.3496741" lon="14.1126536"><ele>44.0</ele><time>2026-05-02T07:47:47.04Z</time></trkpt><trkpt lat="42.3496047" lon="14.1127283"><ele>44.0</ele><time>2026-05-02T07:47:49.041Z</time></trkpt><trkpt lat="42.3495322" lon="14.1127415"><ele>44.0</ele><time>2026-05-02T07:47:51.04Z</time></trkpt><trkpt lat="42.3494742" lon="14.1126798"><ele>44.0</ele><time>2026-05-02T07:47:53.04Z</time></trkpt><trkpt lat="42.3494273" lon="14.1125431"><ele>43.83333333333333</ele><time>2026-05-02T07:47:55.04Z</time></trkpt><trkpt lat="42.3493597" lon="14.112422"><ele>43.666666666666664</ele><time>2026-05-02T07:47:57.04Z</time></trkpt><trkpt lat="42.349263" lon="14.112338"><ele>43.5</ele><time>2026-05-02T07:47:59.041Z</time></trkpt><trkpt lat="42.3492009" lon="14.1122897"><ele>43.333333333333336</ele><time>2026-05-02T07:48:00.04Z</time></trkpt><trkpt lat="42.3491388" lon="14.1122489"><ele>43.16666666666667</ele><time>2026-05-02T07:48:01.04Z</time></trkpt><trkpt lat="42.3490841" lon="14.1122051"><ele>43.0</ele><time>2026-05-02T07:48:02.04Z</time></trkpt><trkpt lat="42.3490145" lon="14.1121044"><ele>43.0</ele><time>2026-05-02T07:48:04.04Z</time></trkpt><trkpt lat="42.3489851" lon="14.1120054"><ele>43.0</ele><time>2026-05-02T07:48:06.04Z</time></trkpt><trkpt lat="42.3489717" lon="14.1118454"><ele>43.0</ele><time>2026-05-02T07:48:08.04Z</time></trkpt><trkpt lat="42.3489572" lon="14.111736"><ele>43.0</ele><time>2026-05-02T07:48:09.041Z</time></trkpt><trkpt lat="42.3489487" lon="14.1116297"><ele>43.0</ele><time>2026-05-02T07:48:10.041Z</time></trkpt><trkpt lat="42.348939" lon="14.1115172"><ele>43.0</ele><time>2026-05-02T07:48:11.04Z</time></trkpt><trkpt lat="42.34893" lon="14.1114133"><ele>43.0</ele><time>2026-05-02T07:48:12.041Z</time></trkpt><trkpt lat="42.3489168" lon="14.11131"><ele>43.0</ele><time>2026-05-02T07:48:13.04Z</time></trkpt><trkpt lat="42.3489048" lon="14.1112001"><ele>43.0</ele><time>2026-05-02T07:48:14.04Z</time></trkpt><trkpt lat="42.34889" lon="14.11109"><ele>43.0</ele><time>2026-05-02T07:48:15.04Z</time></trkpt><trkpt lat="42.3488753" lon="14.1109837"><ele>43.0</ele><time>2026-05-02T07:48:16.04Z</time></trkpt><trkpt lat="42.3488627" lon="14.1108979"><ele>43.0</ele><time>2026-05-02T07:48:17.04Z</time></trkpt><trkpt lat="42.3488701" lon="14.1108129"><ele>43.4</ele><time>2026-05-02T07:48:18.04Z</time></trkpt><trkpt lat="42.3489012" lon="14.1106588"><ele>43.8</ele><time>2026-05-02T07:48:20.04Z</time></trkpt><trkpt lat="42.3488797" lon="14.1105297"><ele>44.2</ele><time>2026-05-02T07:48:22.04Z</time></trkpt><trkpt lat="42.3488517" lon="14.1103696"><ele>44.6</ele><time>2026-05-02T07:48:24.041Z</time></trkpt><trkpt lat="42.3488352" lon="14.1102671"><ele>45.0</ele><time>2026-05-02T07:48:25.04Z</time></trkpt><trkpt lat="42.3488257" lon="14.1101771"><ele>45.333333333333336</ele><time>2026-05-02T07:48:26.04Z</time></trkpt><trkpt lat="42.3487904" lon="14.110047"><ele>45.666666666666664</ele><time>2026-05-02T07:48:28.04Z</time></trkpt><trkpt lat="42.3487256" lon="14.1099588"><ele>46.0</ele><time>2026-05-02T07:48:30.04Z</time></trkpt><trkpt lat="42.3486714" lon="14.1099092"><ele>46.33333333333333</ele><time>2026-05-02T07:48:31.041Z</time></trkpt><trkpt lat="42.3486147" lon="14.1098618"><ele>46.666666666666664</ele><time>2026-05-02T07:48:32.04Z</time></trkpt><trkpt lat="42.3485556" lon="14.1098194"><ele>47.0</ele><time>2026-05-02T07:48:33.041Z</time></trkpt><trkpt lat="42.3484646" lon="14.109748"><ele>47.0</ele><time>2026-05-02T07:48:35.04Z</time></trkpt><trkpt lat="42.3484053" lon="14.1097013"><ele>47.0</ele><time>2026-05-02T07:48:37.04Z</time></trkpt><trkpt lat="42.3483491" lon="14.1096484"><ele>47.0</ele><time>2026-05-02T07:48:39.041Z</time></trkpt><trkpt lat="42.3482836" lon="14.1095698"><ele>47.0</ele><time>2026-05-02T07:48:41.04Z</time></trkpt><trkpt lat="42.3481966" lon="14.1094345"><ele>47.0</ele><time>2026-05-02T07:48:43.04Z</time></trkpt><trkpt lat="42.3481433" lon="14.1093548"><ele>47.0</ele><time>2026-05-02T07:48:44.041Z</time></trkpt><trkpt lat="42.3480968" lon="14.1092678"><ele>47.0</ele><time>2026-05-02T07:48:45.04Z</time></trkpt><trkpt lat="42.3480522" lon="14.1091803"><ele>47.0</ele><time>2026-05-02T07:48:46.04Z</time></trkpt><trkpt lat="42.3480015" lon="14.1091171"><ele>47.0</ele><time>2026-05-02T07:48:47.04Z</time></trkpt><trkpt lat="42.347921" lon="14.1089891"><ele>47.0</ele><time>2026-05-02T07:48:49.041Z</time></trkpt><trkpt lat="42.3478879" lon="14.1088994"><ele>47.0</ele><time>2026-05-02T07:48:50.04Z</time></trkpt><trkpt lat="42.3478535" lon="14.1087921"><ele>47.0</ele><time>2026-05-02T07:48:51.04Z</time></trkpt><trkpt lat="42.3478152" lon="14.1086876"><ele>46.83333333333333</ele><time>2026-05-02T07:48:52.04Z</time></trkpt><trkpt lat="42.3477754" lon="14.1085949"><ele>46.666666666666664</ele><time>2026-05-02T07:48:53.04Z</time></trkpt><trkpt lat="42.3477193" lon="14.1084976"><ele>46.5</ele><time>2026-05-02T07:48:54.04Z</time></trkpt><trkpt lat="42.3476669" lon="14.1083958"><ele>46.333333333333336</ele><time>2026-05-02T07:48:55.041Z</time></trkpt><trkpt lat="42.3476175" lon="14.1082932"><ele>46.16666666666667</ele><time>2026-05-02T07:48:56.04Z</time></trkpt><trkpt lat="42.3475728" lon="14.1082025"><ele>46.0</ele><time>2026-05-02T07:48:57.041Z</time></trkpt><trkpt lat="42.3475198" lon="14.1080856"><ele>46.0</ele><time>2026-05-02T07:48:59.041Z</time></trkpt><trkpt lat="42.3474624" lon="14.1080008"><ele>46.0</ele><time>2026-05-02T07:49:02.041Z</time></trkpt><trkpt lat="42.3474382" lon="14.1079196"><ele>46.0</ele><time>2026-05-02T07:49:04.04Z</time></trkpt><trkpt lat="42.3474194" lon="14.1078299"><ele>46.0</ele><time>2026-05-02T07:49:06.041Z</time></trkpt><trkpt lat="42.3473968" lon="14.1077074"><ele>46.0</ele><time>2026-05-02T07:49:09.04Z</time></trkpt><trkpt lat="42.3473704" lon="14.1076156"><ele>46.0</ele><time>2026-05-02T07:49:11.04Z</time></trkpt><trkpt lat="42.3473379" lon="14.1075205"><ele>46.0</ele><time>2026-05-02T07:49:13.04Z</time></trkpt><trkpt lat="42.3473063" lon="14.1074285"><ele>46.0</ele><time>2026-05-02T07:49:15.04Z</time></trkpt><trkpt lat="42.3472734" lon="14.1073019"><ele>46.0</ele><time>2026-05-02T07:49:17.04Z</time></trkpt><trkpt lat="42.3472306" lon="14.1071646"><ele>46.0</ele><time>2026-05-02T07:49:19.04Z</time></trkpt><trkpt lat="42.3471989" lon="14.1070812"><ele>46.0</ele><time>2026-05-02T07:49:20.04Z</time></trkpt><trkpt lat="42.3471753" lon="14.1069959"><ele>46.0</ele><time>2026-05-02T07:49:21.04Z</time></trkpt><trkpt lat="42.3471809" lon="14.1068433"><ele>46.0</ele><time>2026-05-02T07:49:23.041Z</time></trkpt><trkpt lat="42.3471991" lon="14.1067601"><ele>46.0</ele><time>2026-05-02T07:49:24.04Z</time></trkpt><trkpt lat="42.3472262" lon="14.1066773"><ele>46.0</ele><time>2026-05-02T07:49:25.04Z</time></trkpt><trkpt lat="42.3472651" lon="14.1065986"><ele>46.0</ele><time>2026-05-02T07:49:26.04Z</time></trkpt><trkpt lat="42.3472939" lon="14.106514"><ele>46.0</ele><time>2026-05-02T07:49:27.04Z</time></trkpt><trkpt lat="42.3473137" lon="14.1064213"><ele>46.0</ele><time>2026-05-02T07:49:28.041Z</time></trkpt><trkpt lat="42.3473356" lon="14.1063228"><ele>46.0</ele><time>2026-05-02T07:49:29.04Z</time></trkpt><trkpt lat="42.3473672" lon="14.1062218"><ele>46.0</ele><time>2026-05-02T07:49:30.04Z</time></trkpt><trkpt lat="42.347406" lon="14.1061249"><ele>46.0</ele><time>2026-05-02T07:49:31.04Z</time></trkpt><trkpt lat="42.3474288" lon="14.1060098"><ele>46.0</ele><time>2026-05-02T07:49:32.04Z</time></trkpt><trkpt lat="42.3474484" lon="14.1059126"><ele>46.0</ele><time>2026-05-02T07:49:33.04Z</time></trkpt><trkpt lat="42.3474757" lon="14.1058343"><ele>46.0</ele><time>2026-05-02T07:49:34.04Z</time></trkpt><trkpt lat="42.3475253" lon="14.1057747"><ele>46.0</ele><time>2026-05-02T07:49:35.04Z</time></trkpt><trkpt lat="42.3475857" lon="14.1057"><ele>45.8</ele><time>2026-05-02T07:49:36.04Z</time></trkpt><trkpt lat="42.3476402" lon="14.1056022"><ele>45.599999999999994</ele><time>2026-05-02T07:49:37.04Z</time></trkpt><trkpt lat="42.3476897" lon="14.1054839"><ele>45.4</ele><time>2026-05-02T07:49:38.041Z</time></trkpt><trkpt lat="42.3477475" lon="14.1053734"><ele>45.2</ele><time>2026-05-02T07:49:39.04Z</time></trkpt><trkpt lat="42.3478085" lon="14.105271"><ele>45.0</ele><time>2026-05-02T07:49:40.041Z</time></trkpt><trkpt lat="42.3478685" lon="14.1051778"><ele>45.0</ele><time>2026-05-02T07:49:41.04Z</time></trkpt><trkpt lat="42.3479261" lon="14.1050854"><ele>45.0</ele><time>2026-05-02T07:49:42.04Z</time></trkpt><trkpt lat="42.3479789" lon="14.1049854"><ele>45.0</ele><time>2026-05-02T07:49:43.041Z</time></trkpt><trkpt lat="42.3480322" lon="14.1048961"><ele>45.0</ele><time>2026-05-02T07:49:44.041Z</time></trkpt><trkpt lat="42.3480926" lon="14.1048146"><ele>45.0</ele><time>2026-05-02T07:49:45.041Z</time></trkpt><trkpt lat="42.3481544" lon="14.1047405"><ele>45.0</ele><time>2026-05-02T07:49:46.04Z</time></trkpt><trkpt lat="42.3482066" lon="14.1046404"><ele>45.4</ele><time>2026-05-02T07:49:47.041Z</time></trkpt><trkpt lat="42.3482484" lon="14.1045285"><ele>45.8</ele><time>2026-05-02T07:49:48.041Z</time></trkpt><trkpt lat="42.348283" lon="14.1044178"><ele>46.2</ele><time>2026-05-02T07:49:49.04Z</time></trkpt><trkpt lat="42.3483083" lon="14.1042964"><ele>46.6</ele><time>2026-05-02T07:49:50.04Z</time></trkpt><trkpt lat="42.3483373" lon="14.1041668"><ele>47.0</ele><time>2026-05-02T07:49:51.04Z</time></trkpt><trkpt lat="42.3483812" lon="14.1040412"><ele>47.0</ele><time>2026-05-02T07:49:52.04Z</time></trkpt><trkpt lat="42.3484133" lon="14.1039301"><ele>47.0</ele><time>2026-05-02T07:49:53.04Z</time></trkpt><trkpt lat="42.34844" lon="14.1037997"><ele>47.0</ele><time>2026-05-02T07:49:54.04Z</time></trkpt><trkpt lat="42.3484637" lon="14.1036544"><ele>47.0</ele><time>2026-05-02T07:49:55.04Z</time></trkpt><trkpt lat="42.3484843" lon="14.1034996"><ele>47.0</ele><time>2026-05-02T07:49:56.04Z</time></trkpt><trkpt lat="42.3484983" lon="14.1033484"><ele>47.2</ele><time>2026-05-02T07:49:57.04Z</time></trkpt><trkpt lat="42.3485089" lon="14.1032019"><ele>47.400000000000006</ele><time>2026-05-02T07:49:58.04Z</time></trkpt><trkpt lat="42.3485164" lon="14.1030584"><ele>47.599999999999994</ele><time>2026-05-02T07:49:59.041Z</time></trkpt><trkpt lat="42.3485304" lon="14.102918"><ele>47.8</ele><time>2026-05-02T07:50:00.04Z</time></trkpt><trkpt lat="42.3485433" lon="14.1027759"><ele>48.0</ele><time>2026-05-02T07:50:01.04Z</time></trkpt><trkpt lat="42.348558" lon="14.1026391"><ele>48.0</ele><time>2026-05-02T07:50:02.04Z</time></trkpt><trkpt lat="42.348579" lon="14.1024971"><ele>48.0</ele><time>2026-05-02T07:50:03.04Z</time></trkpt><trkpt lat="42.3486053" lon="14.102341"><ele>48.0</ele><time>2026-05-02T07:50:04.041Z</time></trkpt><trkpt lat="42.3486348" lon="14.1021883"><ele>48.0</ele><time>2026-05-02T07:50:05.041Z</time></trkpt><trkpt lat="42.3486635" lon="14.1020291"><ele>48.0</ele><time>2026-05-02T07:50:06.04Z</time></trkpt><trkpt lat="42.348692" lon="14.1018675"><ele>48.0</ele><time>2026-05-02T07:50:07.04Z</time></trkpt><trkpt lat="42.3487242" lon="14.1017084"><ele>48.0</ele><time>2026-05-02T07:50:08.04Z</time></trkpt><trkpt lat="42.348752" lon="14.1015626"><ele>48.0</ele><time>2026-05-02T07:50:09.04Z</time></trkpt><trkpt lat="42.3487856" lon="14.1014395"><ele>48.285714285714285</ele><time>2026-05-02T07:50:10.041Z</time></trkpt><trkpt lat="42.3488161" lon="14.1013362"><ele>48.57142857142857</ele><time>2026-05-02T07:50:11.04Z</time></trkpt><trkpt lat="42.3488446" lon="14.1012552"><ele>48.85714285714286</ele><time>2026-05-02T07:50:12.04Z</time></trkpt><trkpt lat="42.3488684" lon="14.1011733"><ele>49.14285714285714</ele><time>2026-05-02T07:50:13.041Z</time></trkpt><trkpt lat="42.3489286" lon="14.1010892"><ele>49.42857142857143</ele><time>2026-05-02T07:50:15.04Z</time></trkpt><trkpt lat="42.3489879" lon="14.1010519"><ele>49.714285714285715</ele><time>2026-05-02T07:50:16.04Z</time></trkpt><trkpt lat="42.3490511" lon="14.1009977"><ele>50.0</ele><time>2026-05-02T07:50:17.04Z</time></trkpt><trkpt lat="42.3491022" lon="14.1009277"><ele>50.333333333333336</ele><time>2026-05-02T07:50:18.04Z</time></trkpt><trkpt lat="42.3491304" lon="14.1008452"><ele>50.66666666666667</ele><time>2026-05-02T07:50:19.041Z</time></trkpt><trkpt lat="42.3491748" lon="14.1007328"><ele>51.0</ele><time>2026-05-02T07:50:21.041Z</time></trkpt><trkpt lat="42.3492367" lon="14.1006423"><ele>51.33333333333333</ele><time>2026-05-02T07:50:23.04Z</time></trkpt><trkpt lat="42.3492969" lon="14.1005502"><ele>51.666666666666664</ele><time>2026-05-02T07:50:25.04Z</time></trkpt><trkpt lat="42.3493497" lon="14.1004259"><ele>52.0</ele><time>2026-05-02T07:50:27.04Z</time></trkpt><trkpt lat="42.3494022" lon="14.1003189"><ele>52.0</ele><time>2026-05-02T07:50:29.04Z</time></trkpt><trkpt lat="42.349448" lon="14.1002212"><ele>52.0</ele><time>2026-05-02T07:50:31.041Z</time></trkpt><trkpt lat="42.3494823" lon="14.1000913"><ele>52.0</ele><time>2026-05-02T07:50:33.04Z</time></trkpt><trkpt lat="42.3495166" lon="14.0999603"><ele>52.0</ele><time>2026-05-02T07:50:35.04Z</time></trkpt><trkpt lat="42.3495224" lon="14.0998447"><ele>52.0</ele><time>2026-05-02T07:50:37.04Z</time></trkpt><trkpt lat="42.3495348" lon="14.0997394"><ele>51.2</ele><time>2026-05-02T07:50:39.04Z</time></trkpt><trkpt lat="42.3495293" lon="14.0996276"><ele>50.400000000000006</ele><time>2026-05-02T07:50:41.04Z</time></trkpt><trkpt lat="42.3495136" lon="14.0995317"><ele>49.599999999999994</ele><time>2026-05-02T07:50:43.04Z</time></trkpt><trkpt lat="42.3494671" lon="14.0994173"><ele>48.8</ele><time>2026-05-02T07:50:45.04Z</time></trkpt><trkpt lat="42.3494239" lon="14.0992589"><ele>48.0</ele><time>2026-05-02T07:50:47.04Z</time></trkpt><trkpt lat="42.3494162" lon="14.099105"><ele>48.333333333333336</ele><time>2026-05-02T07:50:49.04Z</time></trkpt><trkpt lat="42.349429" lon="14.0989423"><ele>48.66666666666667</ele><time>2026-05-02T07:50:51.04Z</time></trkpt><trkpt lat="42.3494563" lon="14.0988603"><ele>49.0</ele><time>2026-05-02T07:50:52.04Z</time></trkpt><trkpt lat="42.3494849" lon="14.0987614"><ele>49.333333333333336</ele><time>2026-05-02T07:50:53.04Z</time></trkpt><trkpt lat="42.3495182" lon="14.0986574"><ele>49.66666666666667</ele><time>2026-05-02T07:50:54.04Z</time></trkpt><trkpt lat="42.349558" lon="14.0985403"><ele>50.0</ele><time>2026-05-02T07:50:55.04Z</time></trkpt><trkpt lat="42.3495848" lon="14.098416"><ele>50.0</ele><time>2026-05-02T07:50:56.041Z</time></trkpt><trkpt lat="42.3496075" lon="14.0982848"><ele>50.0</ele><time>2026-05-02T07:50:57.04Z</time></trkpt><trkpt lat="42.3496248" lon="14.0981559"><ele>50.0</ele><time>2026-05-02T07:50:58.04Z</time></trkpt><trkpt lat="42.349647" lon="14.0980393"><ele>50.0</ele><time>2026-05-02T07:50:59.04Z</time></trkpt><trkpt lat="42.3496726" lon="14.0979284"><ele>50.0</ele><time>2026-05-02T07:51:00.041Z</time></trkpt><trkpt lat="42.3497084" lon="14.097804"><ele>50.25</ele><time>2026-05-02T07:51:01.04Z</time></trkpt><trkpt lat="42.3497454" lon="14.0976721"><ele>50.5</ele><time>2026-05-02T07:51:02.04Z</time></trkpt><trkpt lat="42.3497811" lon="14.0975368"><ele>50.75</ele><time>2026-05-02T07:51:03.04Z</time></trkpt><trkpt lat="42.3498205" lon="14.0973886"><ele>51.0</ele><time>2026-05-02T07:51:04.04Z</time></trkpt><trkpt lat="42.3498511" lon="14.097219"><ele>51.0</ele><time>2026-05-02T07:51:05.041Z</time></trkpt><trkpt lat="42.349881" lon="14.0970439"><ele>51.0</ele><time>2026-05-02T07:51:06.04Z</time></trkpt><trkpt lat="42.3499047" lon="14.096872"><ele>51.0</ele><time>2026-05-02T07:51:07.04Z</time></trkpt><trkpt lat="42.3499208" lon="14.0967043"><ele>51.0</ele><time>2026-05-02T07:51:08.041Z</time></trkpt><trkpt lat="42.3499319" lon="14.0965527"><ele>51.25</ele><time>2026-05-02T07:51:09.04Z</time></trkpt><trkpt lat="42.3499392" lon="14.0964004"><ele>51.5</ele><time>2026-05-02T07:51:10.04Z</time></trkpt><trkpt lat="42.3499491" lon="14.0962357"><ele>51.75</ele><time>2026-05-02T07:51:11.04Z</time></trkpt><trkpt lat="42.3499593" lon="14.0960719"><ele>52.0</ele><time>2026-05-02T07:51:12.04Z</time></trkpt><trkpt lat="42.3499729" lon="14.0959085"><ele>52.0</ele><time>2026-05-02T07:51:13.04Z</time></trkpt><trkpt lat="42.3499879" lon="14.0957427"><ele>52.0</ele><time>2026-05-02T07:51:14.04Z</time></trkpt><trkpt lat="42.3500021" lon="14.0955817"><ele>52.0</ele><time>2026-05-02T07:51:15.04Z</time></trkpt><trkpt lat="42.3500149" lon="14.0954224"><ele>52.0</ele><time>2026-05-02T07:51:16.04Z</time></trkpt><trkpt lat="42.350024" lon="14.0952667"><ele>52.0</ele><time>2026-05-02T07:51:17.04Z</time></trkpt><trkpt lat="42.3500217" lon="14.0951108"><ele>52.0</ele><time>2026-05-02T07:51:18.04Z</time></trkpt><trkpt lat="42.3500083" lon="14.0949532"><ele>52.0</ele><time>2026-05-02T07:51:19.041Z</time></trkpt><trkpt lat="42.3499951" lon="14.0947984"><ele>52.0</ele><time>2026-05-02T07:51:20.04Z</time></trkpt><trkpt lat="42.3499731" lon="14.0946445"><ele>52.0</ele><time>2026-05-02T07:51:21.04Z</time></trkpt><trkpt lat="42.3499459" lon="14.0945002"><ele>52.0</ele><time>2026-05-02T07:51:22.04Z</time></trkpt><trkpt lat="42.349915" lon="14.0943577"><ele>52.0</ele><time>2026-05-02T07:51:23.041Z</time></trkpt><trkpt lat="42.3498826" lon="14.0942077"><ele>52.0</ele><time>2026-05-02T07:51:24.04Z</time></trkpt><trkpt lat="42.3498526" lon="14.0940704"><ele>52.0</ele><time>2026-05-02T07:51:25.04Z</time></trkpt><trkpt lat="42.3498297" lon="14.0939385"><ele>51.83333333333333</ele><time>2026-05-02T07:51:26.04Z</time></trkpt><trkpt lat="42.3498059" lon="14.0938175"><ele>51.666666666666664</ele><time>2026-05-02T07:51:27.04Z</time></trkpt><trkpt lat="42.3497801" lon="14.0936992"><ele>51.5</ele><time>2026-05-02T07:51:28.04Z</time></trkpt><trkpt lat="42.3497433" lon="14.0936016"><ele>51.33333333333333</ele><time>2026-05-02T07:51:29.04Z</time></trkpt><trkpt lat="42.3497075" lon="14.0935174"><ele>51.166666666666664</ele><time>2026-05-02T07:51:30.04Z</time></trkpt><trkpt lat="42.3496459" lon="14.0934084"><ele>51.0</ele><time>2026-05-02T07:51:32.041Z</time></trkpt><trkpt lat="42.3496087" lon="14.093274"><ele>51.833333333333336</ele><time>2026-05-02T07:51:34.04Z</time></trkpt><trkpt lat="42.3496206" lon="14.0931193"><ele>52.66666666666667</ele><time>2026-05-02T07:51:36.04Z</time></trkpt><trkpt lat="42.3496223" lon="14.0930297"><ele>53.5</ele><time>2026-05-02T07:51:37.041Z</time></trkpt><trkpt lat="42.3496032" lon="14.0929344"><ele>54.333333333333336</ele><time>2026-05-02T07:51:38.041Z</time></trkpt><trkpt lat="42.349574" lon="14.0928387"><ele>55.16666666666667</ele><time>2026-05-02T07:51:39.04Z</time></trkpt><trkpt lat="42.3495349" lon="14.0927368"><ele>56.0</ele><time>2026-05-02T07:51:40.04Z</time></trkpt><trkpt lat="42.3494931" lon="14.0926511"><ele>56.00000000000001</ele><time>2026-05-02T07:51:41.04Z</time></trkpt><trkpt lat="42.3494413" lon="14.0925807"><ele>56.0</ele><time>2026-05-02T07:51:42.04Z</time></trkpt><trkpt lat="42.3493957" lon="14.0925087"><ele>56.0</ele><time>2026-05-02T07:51:43.04Z</time></trkpt><trkpt lat="42.3493571" lon="14.0924257"><ele>56.0</ele><time>2026-05-02T07:51:44.04Z</time></trkpt><trkpt lat="42.3493223" lon="14.0923299"><ele>56.00000000000001</ele><time>2026-05-02T07:51:45.04Z</time></trkpt><trkpt lat="42.3492969" lon="14.0922247"><ele>56.0</ele><time>2026-05-02T07:51:46.04Z</time></trkpt><trkpt lat="42.3492756" lon="14.0921078"><ele>56.199999999999996</ele><time>2026-05-02T07:51:47.041Z</time></trkpt><trkpt lat="42.349243" lon="14.0919802"><ele>56.39999999999999</ele><time>2026-05-02T07:51:48.04Z</time></trkpt><trkpt lat="42.3492091" lon="14.0918393"><ele>56.6</ele><time>2026-05-02T07:51:49.041Z</time></trkpt><trkpt lat="42.3491827" lon="14.0916974"><ele>56.8</ele><time>2026-05-02T07:51:50.04Z</time></trkpt><trkpt lat="42.3491587" lon="14.0915663"><ele>57.0</ele><time>2026-05-02T07:51:51.041Z</time></trkpt><trkpt lat="42.3491411" lon="14.0914482"><ele>57.0</ele><time>2026-05-02T07:51:52.04Z</time></trkpt><trkpt lat="42.3491264" lon="14.0913334"><ele>57.0</ele><time>2026-05-02T07:51:53.04Z</time></trkpt><trkpt lat="42.3491121" lon="14.0912084"><ele>57.0</ele><time>2026-05-02T07:51:54.04Z</time></trkpt><trkpt lat="42.3491067" lon="14.0910831"><ele>57.0</ele><time>2026-05-02T07:51:55.04Z</time></trkpt><trkpt lat="42.3491082" lon="14.0909768"><ele>57.0</ele><time>2026-05-02T07:51:56.04Z</time></trkpt><trkpt lat="42.3490972" lon="14.090872"><ele>57.0</ele><time>2026-05-02T07:51:57.04Z</time></trkpt><trkpt lat="42.3490755" lon="14.0907593"><ele>56.8</ele><time>2026-05-02T07:51:58.04Z</time></trkpt><trkpt lat="42.3490495" lon="14.0906451"><ele>56.6</ele><time>2026-05-02T07:51:59.041Z</time></trkpt><trkpt lat="42.3490218" lon="14.0905286"><ele>56.39999999999999</ele><time>2026-05-02T07:52:00.04Z</time></trkpt><trkpt lat="42.349" lon="14.0904017"><ele>56.199999999999996</ele><time>2026-05-02T07:52:01.04Z</time></trkpt><trkpt lat="42.3489748" lon="14.0902708"><ele>56.0</ele><time>2026-05-02T07:52:02.04Z</time></trkpt><trkpt lat="42.3489512" lon="14.090141"><ele>56.0</ele><time>2026-05-02T07:52:03.04Z</time></trkpt><trkpt lat="42.3489341" lon="14.090018"><ele>55.99999999999999</ele><time>2026-05-02T07:52:04.04Z</time></trkpt><trkpt lat="42.3489166" lon="14.0898864"><ele>55.99999999999999</ele><time>2026-05-02T07:52:05.04Z</time></trkpt><trkpt lat="42.3489031" lon="14.0897541"><ele>56.0</ele><time>2026-05-02T07:52:06.04Z</time></trkpt><trkpt lat="42.3488853" lon="14.0896333"><ele>56.0</ele><time>2026-05-02T07:52:07.04Z</time></trkpt><trkpt lat="42.3488667" lon="14.0895296"><ele>57.50000000000001</ele><time>2026-05-02T07:52:08.041Z</time></trkpt><trkpt lat="42.3488534" lon="14.0894337"><ele>59.0</ele><time>2026-05-02T07:52:09.04Z</time></trkpt><trkpt lat="42.3488395" lon="14.0893383"><ele>60.5</ele><time>2026-05-02T07:52:10.04Z</time></trkpt><trkpt lat="42.348822" lon="14.08923"><ele>62.0</ele><time>2026-05-02T07:52:11.041Z</time></trkpt><trkpt lat="42.3487993" lon="14.089109"><ele>63.50000000000001</ele><time>2026-05-02T07:52:12.041Z</time></trkpt><trkpt lat="42.3487838" lon="14.0889879"><ele>65.0</ele><time>2026-05-02T07:52:13.04Z</time></trkpt><trkpt lat="42.3487715" lon="14.0888563"><ele>65.0</ele><time>2026-05-02T07:52:14.04Z</time></trkpt><trkpt lat="42.3487702" lon="14.0887186"><ele>65.0</ele><time>2026-05-02T07:52:15.04Z</time></trkpt><trkpt lat="42.3487727" lon="14.0885833"><ele>65.0</ele><time>2026-05-02T07:52:16.04Z</time></trkpt><trkpt lat="42.3487776" lon="14.0884562"><ele>65.0</ele><time>2026-05-02T07:52:17.041Z</time></trkpt><trkpt lat="42.3487686" lon="14.0883355"><ele>65.0</ele><time>2026-05-02T07:52:18.04Z</time></trkpt><trkpt lat="42.3487519" lon="14.0882241"><ele>64.57142857142858</ele><time>2026-05-02T07:52:19.04Z</time></trkpt><trkpt lat="42.3487434" lon="14.0881164"><ele>64.14285714285714</ele><time>2026-05-02T07:52:20.04Z</time></trkpt><trkpt lat="42.3487352" lon="14.0880183"><ele>63.71428571428572</ele><time>2026-05-02T07:52:21.04Z</time></trkpt><trkpt lat="42.3487155" lon="14.0879246"><ele>63.28571428571429</ele><time>2026-05-02T07:52:22.041Z</time></trkpt><trkpt lat="42.3486877" lon="14.0878263"><ele>62.85714285714286</ele><time>2026-05-02T07:52:23.041Z</time></trkpt><trkpt lat="42.3486647" lon="14.0877336"><ele>62.42857142857143</ele><time>2026-05-02T07:52:24.04Z</time></trkpt><trkpt lat="42.348658" lon="14.0876421"><ele>62.0</ele><time>2026-05-02T07:52:25.041Z</time></trkpt><trkpt lat="42.3486546" lon="14.0875381"><ele>62.00000000000001</ele><time>2026-05-02T07:52:26.04Z</time></trkpt><trkpt lat="42.3486511" lon="14.087431"><ele>62.0</ele><time>2026-05-02T07:52:27.04Z</time></trkpt><trkpt lat="42.348644" lon="14.0873387"><ele>62.0</ele><time>2026-05-02T07:52:28.04Z</time></trkpt><trkpt lat="42.3486297" lon="14.0872532"><ele>62.0</ele><time>2026-05-02T07:52:29.041Z</time></trkpt><trkpt lat="42.3486063" lon="14.0871684"><ele>62.00000000000001</ele><time>2026-05-02T07:52:30.041Z</time></trkpt><trkpt lat="42.3485252" lon="14.0870389"><ele>62.0</ele><time>2026-05-02T07:52:32.04Z</time></trkpt><trkpt lat="42.3484292" lon="14.0869401"><ele>62.2</ele><time>2026-05-02T07:52:34.041Z</time></trkpt><trkpt lat="42.3483393" lon="14.0868618"><ele>62.400000000000006</ele><time>2026-05-02T07:52:36.04Z</time></trkpt><trkpt lat="42.3482527" lon="14.086794"><ele>62.599999999999994</ele><time>2026-05-02T07:52:38.04Z</time></trkpt><trkpt lat="42.3482082" lon="14.086717"><ele>62.8</ele><time>2026-05-02T07:52:40.04Z</time></trkpt><trkpt lat="42.3481735" lon="14.0866139"><ele>63.0</ele><time>2026-05-02T07:52:42.041Z</time></trkpt><trkpt lat="42.3481427" lon="14.0864745"><ele>63.0</ele><time>2026-05-02T07:52:44.041Z</time></trkpt><trkpt lat="42.3481144" lon="14.0863624"><ele>63.0</ele><time>2026-05-02T07:52:46.04Z</time></trkpt><trkpt lat="42.3480948" lon="14.0862165"><ele>63.0</ele><time>2026-05-02T07:52:49.04Z</time></trkpt><trkpt lat="42.3480847" lon="14.0860578"><ele>63.0</ele><time>2026-05-02T07:52:51.04Z</time></trkpt><trkpt lat="42.3480583" lon="14.0859502"><ele>63.0</ele><time>2026-05-02T07:52:53.041Z</time></trkpt><trkpt lat="42.34803" lon="14.0858425"><ele>64.0</ele><time>2026-05-02T07:52:57.041Z</time></trkpt><trkpt lat="42.3480182" lon="14.0857535"><ele>65.0</ele><time>2026-05-02T07:53:01.041Z</time></trkpt><trkpt lat="42.3479973" lon="14.0856363"><ele>66.0</ele><time>2026-05-02T07:53:03.04Z</time></trkpt><trkpt lat="42.3479781" lon="14.0854765"><ele>67.0</ele><time>2026-05-02T07:53:05.04Z</time></trkpt><trkpt lat="42.3479639" lon="14.0853859"><ele>68.0</ele><time>2026-05-02T07:53:06.04Z</time></trkpt><trkpt lat="42.3479362" lon="14.0853019"><ele>69.0</ele><time>2026-05-02T07:53:07.04Z</time></trkpt><trkpt lat="42.3479074" lon="14.0852109"><ele>69.0</ele><time>2026-05-02T07:53:08.041Z</time></trkpt><trkpt lat="42.347868" lon="14.0851347"><ele>69.0</ele><time>2026-05-02T07:53:09.041Z</time></trkpt><trkpt lat="42.347813" lon="14.0849841"><ele>69.0</ele><time>2026-05-02T07:53:11.04Z</time></trkpt><trkpt lat="42.3477935" lon="14.0848845"><ele>69.0</ele><time>2026-05-02T07:53:12.04Z</time></trkpt><trkpt lat="42.3477841" lon="14.0847726"><ele>69.0</ele><time>2026-05-02T07:53:13.04Z</time></trkpt><trkpt lat="42.347779" lon="14.0846613"><ele>69.0</ele><time>2026-05-02T07:53:14.04Z</time></trkpt><trkpt lat="42.3477587" lon="14.0845534"><ele>68.8</ele><time>2026-05-02T07:53:15.04Z</time></trkpt><trkpt lat="42.3477202" lon="14.0844358"><ele>68.60000000000001</ele><time>2026-05-02T07:53:16.04Z</time></trkpt><trkpt lat="42.3476808" lon="14.0843056"><ele>68.4</ele><time>2026-05-02T07:53:17.04Z</time></trkpt><trkpt lat="42.3476485" lon="14.0841852"><ele>68.2</ele><time>2026-05-02T07:53:18.04Z</time></trkpt><trkpt lat="42.3476311" lon="14.0840733"><ele>68.0</ele><time>2026-05-02T07:53:19.04Z</time></trkpt><trkpt lat="42.3476148" lon="14.0839513"><ele>68.0</ele><time>2026-05-02T07:53:20.04Z</time></trkpt><trkpt lat="42.3476014" lon="14.0838309"><ele>68.0</ele><time>2026-05-02T07:53:21.041Z</time></trkpt><trkpt lat="42.3475899" lon="14.0837175"><ele>68.0</ele><time>2026-05-02T07:53:22.04Z</time></trkpt><trkpt lat="42.3475784" lon="14.0836058"><ele>68.0</ele><time>2026-05-02T07:53:23.04Z</time></trkpt><trkpt lat="42.3475776" lon="14.0834905"><ele>68.0</ele><time>2026-05-02T07:53:24.04Z</time></trkpt><trkpt lat="42.3475809" lon="14.0833738"><ele>68.0</ele><time>2026-05-02T07:53:25.04Z</time></trkpt><trkpt lat="42.3475958" lon="14.0832611"><ele>68.0</ele><time>2026-05-02T07:53:26.04Z</time></trkpt><trkpt lat="42.3476194" lon="14.0831533"><ele>68.0</ele><time>2026-05-02T07:53:27.041Z</time></trkpt><trkpt lat="42.3476556" lon="14.0830594"><ele>68.0</ele><time>2026-05-02T07:53:28.04Z</time></trkpt><trkpt lat="42.3477005" lon="14.0829935"><ele>68.0</ele><time>2026-05-02T07:53:29.04Z</time></trkpt><trkpt lat="42.3477518" lon="14.0829281"><ele>68.0</ele><time>2026-05-02T07:53:30.04Z</time></trkpt><trkpt lat="42.3478267" lon="14.0828673"><ele>68.0</ele><time>2026-05-02T07:53:31.04Z</time></trkpt><trkpt lat="42.3478997" lon="14.0827917"><ele>68.0</ele><time>2026-05-02T07:53:32.04Z</time></trkpt><trkpt lat="42.3479584" lon="14.0826886"><ele>68.0</ele><time>2026-05-02T07:53:33.041Z</time></trkpt><trkpt lat="42.3480076" lon="14.0825776"><ele>68.0</ele><time>2026-05-02T07:53:34.04Z</time></trkpt><trkpt lat="42.3480493" lon="14.0824671"><ele>68.0</ele><time>2026-05-02T07:53:35.04Z</time></trkpt><trkpt lat="42.348087" lon="14.0823566"><ele>68.0</ele><time>2026-05-02T07:53:36.04Z</time></trkpt><trkpt lat="42.3481393" lon="14.0822563"><ele>67.5</ele><time>2026-05-02T07:53:37.04Z</time></trkpt><trkpt lat="42.3481862" lon="14.0821684"><ele>67.0</ele><time>2026-05-02T07:53:38.04Z</time></trkpt><trkpt lat="42.3482271" lon="14.0820971"><ele>66.5</ele><time>2026-05-02T07:53:39.041Z</time></trkpt><trkpt lat="42.3482724" lon="14.0819917"><ele>66.0</ele><time>2026-05-02T07:53:41.04Z</time></trkpt><trkpt lat="42.3482933" lon="14.081899"><ele>65.5</ele><time>2026-05-02T07:53:45.04Z</time></trkpt><trkpt lat="42.3483594" lon="14.0819402"><ele>65.0</ele><time>2026-05-02T07:54:06.04Z</time></trkpt><trkpt lat="42.348423" lon="14.0819839"><ele>65.0</ele><time>2026-05-02T07:54:08.04Z</time></trkpt><trkpt lat="42.3485037" lon="14.0819919"><ele>65.0</ele><time>2026-05-02T07:54:10.04Z</time></trkpt><trkpt lat="42.3485349" lon="14.081869"><ele>65.0</ele><time>2026-05-02T07:54:12.04Z</time></trkpt><trkpt lat="42.348575" lon="14.0817276"><ele>65.0</ele><time>2026-05-02T07:54:14.041Z</time></trkpt><trkpt lat="42.3485895" lon="14.0816025"><ele>65.0</ele><time>2026-05-02T07:54:16.04Z</time></trkpt><trkpt lat="42.3486832" lon="14.0815079"><ele>65.33333333333334</ele><time>2026-05-02T07:54:18.04Z</time></trkpt><trkpt lat="42.3487526" lon="14.0814527"><ele>65.66666666666667</ele><time>2026-05-02T07:54:19.04Z</time></trkpt><trkpt lat="42.3488337" lon="14.0813833"><ele>66.0</ele><time>2026-05-02T07:54:20.04Z</time></trkpt><trkpt lat="42.3489216" lon="14.0813208"><ele>66.33333333333333</ele><time>2026-05-02T07:54:21.04Z</time></trkpt><trkpt lat="42.3490073" lon="14.0812671"><ele>66.66666666666666</ele><time>2026-05-02T07:54:22.04Z</time></trkpt><trkpt lat="42.3490722" lon="14.0812351"><ele>67.0</ele><time>2026-05-02T07:54:23.041Z</time></trkpt><trkpt lat="42.3491402" lon="14.0812144"><ele>67.0</ele><time>2026-05-02T07:54:24.04Z</time></trkpt><trkpt lat="42.3492276" lon="14.0812222"><ele>67.0</ele><time>2026-05-02T07:54:25.04Z</time></trkpt><trkpt lat="42.3493215" lon="14.0812481"><ele>67.0</ele><time>2026-05-02T07:54:26.04Z</time></trkpt><trkpt lat="42.349412" lon="14.0812725"><ele>67.0</ele><time>2026-05-02T07:54:27.041Z</time></trkpt><trkpt lat="42.3494842" lon="14.0812864"><ele>67.0</ele><time>2026-05-02T07:54:28.041Z</time></trkpt><trkpt lat="42.3495889" lon="14.0812517"><ele>67.0</ele><time>2026-05-02T07:54:30.04Z</time></trkpt><trkpt lat="42.3496615" lon="14.0811667"><ele>67.0</ele><time>2026-05-02T07:54:32.041Z</time></trkpt><trkpt lat="42.3496814" lon="14.0810539"><ele>67.0</ele><time>2026-05-02T07:54:34.04Z</time></trkpt><trkpt lat="42.3496453" lon="14.0809111"><ele>67.0</ele><time>2026-05-02T07:54:36.04Z</time></trkpt><trkpt lat="42.3495813" lon="14.0807826"><ele>67.0</ele><time>2026-05-02T07:54:38.04Z</time></trkpt><trkpt lat="42.3495421" lon="14.0806586"><ele>66.83333333333333</ele><time>2026-05-02T07:54:40.04Z</time></trkpt><trkpt lat="42.3495721" lon="14.0805487"><ele>66.66666666666666</ele><time>2026-05-02T07:54:42.04Z</time></trkpt><trkpt lat="42.3496216" lon="14.0804944"><ele>66.5</ele><time>2026-05-02T07:54:43.04Z</time></trkpt><trkpt lat="42.3496898" lon="14.0804296"><ele>66.33333333333333</ele><time>2026-05-02T07:54:44.04Z</time></trkpt><trkpt lat="42.3497583" lon="14.0803416"><ele>66.16666666666667</ele><time>2026-05-02T07:54:45.04Z</time></trkpt><trkpt lat="42.3498367" lon="14.080254"><ele>66.0</ele><time>2026-05-02T07:54:46.041Z</time></trkpt><trkpt lat="42.3499214" lon="14.0801706"><ele>66.0</ele><time>2026-05-02T07:54:47.041Z</time></trkpt><trkpt lat="42.3500049" lon="14.0801079"><ele>66.0</ele><time>2026-05-02T07:54:48.04Z</time></trkpt><trkpt lat="42.3500827" lon="14.0800557"><ele>66.0</ele><time>2026-05-02T07:54:49.04Z</time></trkpt><trkpt lat="42.3501466" lon="14.0799999"><ele>66.0</ele><time>2026-05-02T07:54:50.041Z</time></trkpt><trkpt lat="42.3501984" lon="14.0799385"><ele>66.0</ele><time>2026-05-02T07:54:51.04Z</time></trkpt><trkpt lat="42.3502367" lon="14.0798601"><ele>66.0</ele><time>2026-05-02T07:54:52.04Z</time></trkpt><trkpt lat="42.3502758" lon="14.0797609"><ele>66.0</ele><time>2026-05-02T07:54:53.04Z</time></trkpt><trkpt lat="42.3503155" lon="14.0796494"><ele>66.0</ele><time>2026-05-02T07:54:54.04Z</time></trkpt><trkpt lat="42.3503462" lon="14.0795359"><ele>66.0</ele><time>2026-05-02T07:54:55.04Z</time></trkpt><trkpt lat="42.3503708" lon="14.0794089"><ele>66.0</ele><time>2026-05-02T07:54:56.04Z</time></trkpt><trkpt lat="42.3503876" lon="14.0792879"><ele>66.0</ele><time>2026-05-02T07:54:57.04Z</time></trkpt><trkpt lat="42.3504042" lon="14.0791766"><ele>66.0</ele><time>2026-05-02T07:54:58.04Z</time></trkpt><trkpt lat="42.3504256" lon="14.0790722"><ele>66.0</ele><time>2026-05-02T07:54:59.04Z</time></trkpt><trkpt lat="42.3504512" lon="14.0789623"><ele>66.0</ele><time>2026-05-02T07:55:00.041Z</time></trkpt><trkpt lat="42.3504877" lon="14.078858"><ele>66.0</ele><time>2026-05-02T07:55:01.04Z</time></trkpt><trkpt lat="42.3505253" lon="14.0787566"><ele>66.0</ele><time>2026-05-02T07:55:02.04Z</time></trkpt><trkpt lat="42.3505524" lon="14.0786589"><ele>66.0</ele><time>2026-05-02T07:55:03.04Z</time></trkpt><trkpt lat="42.3505612" lon="14.0785569"><ele>66.16666666666667</ele><time>2026-05-02T07:55:04.041Z</time></trkpt><trkpt lat="42.3505679" lon="14.0784541"><ele>66.33333333333333</ele><time>2026-05-02T07:55:05.04Z</time></trkpt><trkpt lat="42.3505568" lon="14.0783387"><ele>66.5</ele><time>2026-05-02T07:55:06.04Z</time></trkpt><trkpt lat="42.3505413" lon="14.0782242"><ele>66.66666666666666</ele><time>2026-05-02T07:55:07.04Z</time></trkpt><trkpt lat="42.3505213" lon="14.0781151"><ele>66.83333333333333</ele><time>2026-05-02T07:55:08.041Z</time></trkpt><trkpt lat="42.3505019" lon="14.0780131"><ele>67.0</ele><time>2026-05-02T07:55:09.04Z</time></trkpt><trkpt lat="42.3504893" lon="14.0779105"><ele>67.0</ele><time>2026-05-02T07:55:10.04Z</time></trkpt><trkpt lat="42.3504803" lon="14.0778184"><ele>67.0</ele><time>2026-05-02T07:55:11.04Z</time></trkpt><trkpt lat="42.3504609" lon="14.0777208"><ele>67.0</ele><time>2026-05-02T07:55:12.04Z</time></trkpt><trkpt lat="42.3504488" lon="14.0776165"><ele>67.0</ele><time>2026-05-02T07:55:13.04Z</time></trkpt><trkpt lat="42.3504425" lon="14.0775003"><ele>67.0</ele><time>2026-05-02T07:55:14.041Z</time></trkpt><trkpt lat="42.3504516" lon="14.0773774"><ele>67.0</ele><time>2026-05-02T07:55:15.041Z</time></trkpt><trkpt lat="42.3504516" lon="14.0772607"><ele>67.16666666666666</ele><time>2026-05-02T07:55:16.04Z</time></trkpt><trkpt lat="42.3504512" lon="14.0771358"><ele>67.33333333333333</ele><time>2026-05-02T07:55:17.04Z</time></trkpt><trkpt lat="42.3504489" lon="14.0770245"><ele>67.5</ele><time>2026-05-02T07:55:18.041Z</time></trkpt><trkpt lat="42.3504404" lon="14.0769127"><ele>67.66666666666667</ele><time>2026-05-02T07:55:19.04Z</time></trkpt><trkpt lat="42.3504341" lon="14.0767982"><ele>67.83333333333334</ele><time>2026-05-02T07:55:20.04Z</time></trkpt><trkpt lat="42.3504338" lon="14.0766872"><ele>68.0</ele><time>2026-05-02T07:55:21.04Z</time></trkpt><trkpt lat="42.3504473" lon="14.0765739"><ele>68.33333333333334</ele><time>2026-05-02T07:55:22.04Z</time></trkpt><trkpt lat="42.3504734" lon="14.0764591"><ele>68.66666666666667</ele><time>2026-05-02T07:55:23.04Z</time></trkpt><trkpt lat="42.3504999" lon="14.0763607"><ele>69.0</ele><time>2026-05-02T07:55:24.04Z</time></trkpt><trkpt lat="42.3504986" lon="14.0762648"><ele>69.33333333333333</ele><time>2026-05-02T07:55:25.04Z</time></trkpt><trkpt lat="42.3504811" lon="14.0761623"><ele>69.66666666666666</ele><time>2026-05-02T07:55:26.04Z</time></trkpt><trkpt lat="42.3504442" lon="14.0760385"><ele>70.0</ele><time>2026-05-02T07:55:27.04Z</time></trkpt><trkpt lat="42.3504193" lon="14.0759163"><ele>70.0</ele><time>2026-05-02T07:55:28.041Z</time></trkpt><trkpt lat="42.3504039" lon="14.0757925"><ele>70.0</ele><time>2026-05-02T07:55:29.04Z</time></trkpt><trkpt lat="42.3503957" lon="14.0756734"><ele>70.0</ele><time>2026-05-02T07:55:30.041Z</time></trkpt><trkpt lat="42.3503934" lon="14.0755807"><ele>70.0</ele><time>2026-05-02T07:55:31.04Z</time></trkpt><trkpt lat="42.3504007" lon="14.075464"><ele>70.0</ele><time>2026-05-02T07:55:33.04Z</time></trkpt><trkpt lat="42.3504851" lon="14.0753952"><ele>70.0</ele><time>2026-05-02T07:55:35.04Z</time></trkpt><trkpt lat="42.3506066" lon="14.0753489"><ele>70.2</ele><time>2026-05-02T07:55:37.04Z</time></trkpt><trkpt lat="42.3506937" lon="14.0753122"><ele>70.4</ele><time>2026-05-02T07:55:38.04Z</time></trkpt><trkpt lat="42.3508065" lon="14.0752808"><ele>70.6</ele><time>2026-05-02T07:55:39.041Z</time></trkpt><trkpt lat="42.3509246" lon="14.0752421"><ele>70.8</ele><time>2026-05-02T07:55:40.04Z</time></trkpt><trkpt lat="42.3510377" lon="14.0752082"><ele>71.0</ele><time>2026-05-02T07:55:41.041Z</time></trkpt><trkpt lat="42.3511481" lon="14.0751732"><ele>71.0</ele><time>2026-05-02T07:55:42.041Z</time></trkpt><trkpt lat="42.3512502" lon="14.0751392"><ele>71.0</ele><time>2026-05-02T07:55:43.041Z</time></trkpt><trkpt lat="42.3513372" lon="14.0751097"><ele>71.0</ele><time>2026-05-02T07:55:44.04Z</time></trkpt><trkpt lat="42.3514226" lon="14.0750844"><ele>71.0</ele><time>2026-05-02T07:55:45.041Z</time></trkpt><trkpt lat="42.351518" lon="14.0750718"><ele>71.0</ele><time>2026-05-02T07:55:46.041Z</time></trkpt><trkpt lat="42.3516265" lon="14.075071"><ele>71.5</ele><time>2026-05-02T07:55:47.04Z</time></trkpt><trkpt lat="42.351749" lon="14.0750866"><ele>72.0</ele><time>2026-05-02T07:55:48.04Z</time></trkpt><trkpt lat="42.3518909" lon="14.0751036"><ele>72.5</ele><time>2026-05-02T07:55:49.04Z</time></trkpt><trkpt lat="42.3520275" lon="14.0751173"><ele>73.0</ele><time>2026-05-02T07:55:50.04Z</time></trkpt><trkpt lat="42.3521647" lon="14.0751348"><ele>74.33333333333333</ele><time>2026-05-02T07:55:51.04Z</time></trkpt><trkpt lat="42.3523142" lon="14.075162"><ele>75.66666666666667</ele><time>2026-05-02T07:55:52.04Z</time></trkpt><trkpt lat="42.3524651" lon="14.0751846"><ele>77.0</ele><time>2026-05-02T07:55:53.04Z</time></trkpt><trkpt lat="42.352625" lon="14.0752059"><ele>77.0</ele><time>2026-05-02T07:55:54.04Z</time></trkpt><trkpt lat="42.3527751" lon="14.0752268"><ele>77.0</ele><time>2026-05-02T07:55:55.04Z</time></trkpt><trkpt lat="42.352916" lon="14.0752602"><ele>77.0</ele><time>2026-05-02T07:55:56.04Z</time></trkpt><trkpt lat="42.3530428" lon="14.0753066"><ele>77.0</ele><time>2026-05-02T07:55:57.04Z</time></trkpt><trkpt lat="42.3531565" lon="14.0753507"><ele>79.8</ele><time>2026-05-02T07:55:58.04Z</time></trkpt><trkpt lat="42.3532615" lon="14.0753764"><ele>82.6</ele><time>2026-05-02T07:55:59.04Z</time></trkpt><trkpt lat="42.3533684" lon="14.0753671"><ele>85.39999999999999</ele><time>2026-05-02T07:56:00.04Z</time></trkpt><trkpt lat="42.3534827" lon="14.0753486"><ele>88.2</ele><time>2026-05-02T07:56:01.041Z</time></trkpt><trkpt lat="42.3535965" lon="14.0753259"><ele>91.0</ele><time>2026-05-02T07:56:02.04Z</time></trkpt><trkpt lat="42.3537032" lon="14.0753036"><ele>91.0</ele><time>2026-05-02T07:56:03.04Z</time></trkpt><trkpt lat="42.3538022" lon="14.0752762"><ele>91.0</ele><time>2026-05-02T07:56:04.04Z</time></trkpt><trkpt lat="42.3539072" lon="14.0752529"><ele>91.0</ele><time>2026-05-02T07:56:05.04Z</time></trkpt><trkpt lat="42.3540161" lon="14.0752294"><ele>91.0</ele><time>2026-05-02T07:56:06.04Z</time></trkpt><trkpt lat="42.354134" lon="14.0752048"><ele>91.0</ele><time>2026-05-02T07:56:07.04Z</time></trkpt><trkpt lat="42.3542555" lon="14.0751739"><ele>92.5</ele><time>2026-05-02T07:56:08.041Z</time></trkpt><trkpt lat="42.354379" lon="14.075139"><ele>94.0</ele><time>2026-05-02T07:56:09.041Z</time></trkpt><trkpt lat="42.3545058" lon="14.0751047"><ele>95.5</ele><time>2026-05-02T07:56:10.041Z</time></trkpt><trkpt lat="42.3546381" lon="14.0750689"><ele>97.0</ele><time>2026-05-02T07:56:11.04Z</time></trkpt><trkpt lat="42.3547719" lon="14.075036"><ele>101.33333333333334</ele><time>2026-05-02T07:56:12.04Z</time></trkpt><trkpt lat="42.354919" lon="14.0750011"><ele>105.66666666666666</ele><time>2026-05-02T07:56:13.04Z</time></trkpt><trkpt lat="42.355071" lon="14.0749696"><ele>110.0</ele><time>2026-05-02T07:56:14.041Z</time></trkpt><trkpt lat="42.3552301" lon="14.0749514"><ele>111.0</ele><time>2026-05-02T07:56:15.04Z</time></trkpt><trkpt lat="42.3553918" lon="14.0749234"><ele>112.0</ele><time>2026-05-02T07:56:16.041Z</time></trkpt><trkpt lat="42.355545" lon="14.0748966"><ele>113.0</ele><time>2026-05-02T07:56:17.041Z</time></trkpt><trkpt lat="42.3556845" lon="14.0748789"><ele>114.75</ele><time>2026-05-02T07:56:18.04Z</time></trkpt><trkpt lat="42.355808" lon="14.0748644"><ele>116.5</ele><time>2026-05-02T07:56:19.041Z</time></trkpt><trkpt lat="42.355932" lon="14.0748651"><ele>118.25</ele><time>2026-05-02T07:56:20.04Z</time></trkpt><trkpt lat="42.3560538" lon="14.0748623"><ele>120.0</ele><time>2026-05-02T07:56:21.041Z</time></trkpt><trkpt lat="42.3561817" lon="14.0748691"><ele>120.0</ele><time>2026-05-02T07:56:22.04Z</time></trkpt><trkpt lat="42.3563177" lon="14.0748858"><ele>120.0</ele><time>2026-05-02T07:56:23.04Z</time></trkpt><trkpt lat="42.3564557" lon="14.0749057"><ele>120.0</ele><time>2026-05-02T07:56:24.04Z</time></trkpt><trkpt lat="42.3565976" lon="14.0749308"><ele>120.0</ele><time>2026-05-02T07:56:25.04Z</time></trkpt><trkpt lat="42.3567395" lon="14.0749581"><ele>120.5</ele><time>2026-05-02T07:56:26.04Z</time></trkpt><trkpt lat="42.3568807" lon="14.0749804"><ele>121.0</ele><time>2026-05-02T07:56:27.04Z</time></trkpt><trkpt lat="42.3570243" lon="14.075006"><ele>121.5</ele><time>2026-05-02T07:56:28.041Z</time></trkpt><trkpt lat="42.3571671" lon="14.0750351"><ele>122.0</ele><time>2026-05-02T07:56:29.04Z</time></trkpt><trkpt lat="42.3572999" lon="14.0750627"><ele>122.0</ele><time>2026-05-02T07:56:30.04Z</time></trkpt><trkpt lat="42.3574278" lon="14.075088"><ele>122.0</ele><time>2026-05-02T07:56:31.04Z</time></trkpt><trkpt lat="42.3575526" lon="14.075121"><ele>122.0</ele><time>2026-05-02T07:56:32.04Z</time></trkpt><trkpt lat="42.3576801" lon="14.075154"><ele>122.0</ele><time>2026-05-02T07:56:33.04Z</time></trkpt><trkpt lat="42.3577955" lon="14.0751905"><ele>122.0</ele><time>2026-05-02T07:56:34.041Z</time></trkpt><trkpt lat="42.3579073" lon="14.0752272"><ele>122.0</ele><time>2026-05-02T07:56:35.04Z</time></trkpt><trkpt lat="42.3580199" lon="14.0752624"><ele>122.0</ele><time>2026-05-02T07:56:36.04Z</time></trkpt><trkpt lat="42.3581258" lon="14.0752989"><ele>122.0</ele><time>2026-05-02T07:56:37.04Z</time></trkpt><trkpt lat="42.3582374" lon="14.0753401"><ele>121.8</ele><time>2026-05-02T07:56:38.04Z</time></trkpt><trkpt lat="42.3583404" lon="14.0753792"><ele>121.6</ele><time>2026-05-02T07:56:39.04Z</time></trkpt><trkpt lat="42.3584375" lon="14.075422"><ele>121.39999999999999</ele><time>2026-05-02T07:56:40.04Z</time></trkpt><trkpt lat="42.3585254" lon="14.0754615"><ele>121.19999999999999</ele><time>2026-05-02T07:56:41.04Z</time></trkpt><trkpt lat="42.358607" lon="14.0755002"><ele>121.0</ele><time>2026-05-02T07:56:42.04Z</time></trkpt><trkpt lat="42.3587473" lon="14.0755329"><ele>121.0</ele><time>2026-05-02T07:56:51.04Z</time></trkpt><trkpt lat="42.3588138" lon="14.075509"><ele>121.0</ele><time>2026-05-02T07:56:52.041Z</time></trkpt><trkpt lat="42.358892" lon="14.075477"><ele>121.0</ele><time>2026-05-02T07:56:53.041Z</time></trkpt><trkpt lat="42.3589744" lon="14.0754298"><ele>121.0</ele><time>2026-05-02T07:56:54.04Z</time></trkpt><trkpt lat="42.3590672" lon="14.075369"><ele>121.0</ele><time>2026-05-02T07:56:55.041Z</time></trkpt><trkpt lat="42.3591658" lon="14.0752988"><ele>121.75</ele><time>2026-05-02T07:56:56.04Z</time></trkpt><trkpt lat="42.3592767" lon="14.0752167"><ele>122.5</ele><time>2026-05-02T07:56:57.04Z</time></trkpt><trkpt lat="42.3594006" lon="14.0751268"><ele>123.25</ele><time>2026-05-02T07:56:58.04Z</time></trkpt><trkpt lat="42.3595341" lon="14.0750311"><ele>124.0</ele><time>2026-05-02T07:56:59.04Z</time></trkpt><trkpt lat="42.3596724" lon="14.0749315"><ele>125.33333333333334</ele><time>2026-05-02T07:57:00.041Z</time></trkpt><trkpt lat="42.3598143" lon="14.0748279"><ele>126.66666666666666</ele><time>2026-05-02T07:57:01.04Z</time></trkpt><trkpt lat="42.3599543" lon="14.074729"><ele>128.0</ele><time>2026-05-02T07:57:02.04Z</time></trkpt><trkpt lat="42.3600824" lon="14.0746355"><ele>128.0</ele><time>2026-05-02T07:57:03.04Z</time></trkpt><trkpt lat="42.3602032" lon="14.074554"><ele>128.0</ele><time>2026-05-02T07:57:04.041Z</time></trkpt><trkpt lat="42.3603235" lon="14.0744751"><ele>128.0</ele><time>2026-05-02T07:57:05.04Z</time></trkpt><trkpt lat="42.3604435" lon="14.0743965"><ele>128.0</ele><time>2026-05-02T07:57:06.04Z</time></trkpt><trkpt lat="42.3605687" lon="14.0743119"><ele>128.75</ele><time>2026-05-02T07:57:07.041Z</time></trkpt><trkpt lat="42.3606982" lon="14.0742254"><ele>129.5</ele><time>2026-05-02T07:57:08.041Z</time></trkpt><trkpt lat="42.3608265" lon="14.0741368"><ele>130.25</ele><time>2026-05-02T07:57:09.04Z</time></trkpt><trkpt lat="42.3609461" lon="14.0740554"><ele>131.0</ele><time>2026-05-02T07:57:10.041Z</time></trkpt><trkpt lat="42.3610494" lon="14.0739992"><ele>131.6</ele><time>2026-05-02T07:57:11.04Z</time></trkpt><trkpt lat="42.3611516" lon="14.0739379"><ele>132.2</ele><time>2026-05-02T07:57:12.04Z</time></trkpt><trkpt lat="42.3612462" lon="14.0738685"><ele>132.8</ele><time>2026-05-02T07:57:13.04Z</time></trkpt><trkpt lat="42.3613385" lon="14.0737935"><ele>133.4</ele><time>2026-05-02T07:57:14.04Z</time></trkpt><trkpt lat="42.3614269" lon="14.0737183"><ele>134.0</ele><time>2026-05-02T07:57:15.04Z</time></trkpt><trkpt lat="42.3615086" lon="14.0736554"><ele>134.6</ele><time>2026-05-02T07:57:16.04Z</time></trkpt><trkpt lat="42.3615762" lon="14.0736054"><ele>135.2</ele><time>2026-05-02T07:57:17.04Z</time></trkpt><trkpt lat="42.3616676" lon="14.0735431"><ele>135.79999999999998</ele><time>2026-05-02T07:57:19.04Z</time></trkpt><trkpt lat="42.3617334" lon="14.0735392"><ele>136.4</ele><time>2026-05-02T07:57:23.041Z</time></trkpt><trkpt lat="42.3617582" lon="14.0734353"><ele>137.0</ele><time>2026-05-02T07:57:26.04Z</time></trkpt><trkpt lat="42.3616971" lon="14.0732803"><ele>137.0</ele><time>2026-05-02T07:57:28.04Z</time></trkpt><trkpt lat="42.3616415" lon="14.0732013"><ele>137.0</ele><time>2026-05-02T07:57:29.04Z</time></trkpt><trkpt lat="42.3615771" lon="14.0731189"><ele>137.0</ele><time>2026-05-02T07:57:30.041Z</time></trkpt><trkpt lat="42.3615134" lon="14.0730109"><ele>137.0</ele><time>2026-05-02T07:57:31.04Z</time></trkpt><trkpt lat="42.3614492" lon="14.0729117"><ele>137.0</ele><time>2026-05-02T07:57:32.04Z</time></trkpt><trkpt lat="42.3613832" lon="14.0728088"><ele>136.2</ele><time>2026-05-02T07:57:33.041Z</time></trkpt><trkpt lat="42.361316" lon="14.0727139"><ele>135.39999999999998</ele><time>2026-05-02T07:57:34.04Z</time></trkpt><trkpt lat="42.361262" lon="14.0726198"><ele>134.60000000000002</ele><time>2026-05-02T07:57:35.04Z</time></trkpt><trkpt lat="42.3612038" lon="14.0725211"><ele>133.8</ele><time>2026-05-02T07:57:36.04Z</time></trkpt><trkpt lat="42.3611348" lon="14.0724217"><ele>133.0</ele><time>2026-05-02T07:57:37.041Z</time></trkpt><trkpt lat="42.3610654" lon="14.0723176"><ele>133.0</ele><time>2026-05-02T07:57:38.04Z</time></trkpt><trkpt lat="42.3609875" lon="14.0722012"><ele>133.0</ele><time>2026-05-02T07:57:39.04Z</time></trkpt><trkpt lat="42.3609075" lon="14.0720835"><ele>133.0</ele><time>2026-05-02T07:57:40.04Z</time></trkpt><trkpt lat="42.3608295" lon="14.0719585"><ele>133.0</ele><time>2026-05-02T07:57:41.04Z</time></trkpt><trkpt lat="42.3607484" lon="14.0718205"><ele>133.0</ele><time>2026-05-02T07:57:42.04Z</time></trkpt><trkpt lat="42.3606815" lon="14.0716649"><ele>133.0</ele><time>2026-05-02T07:57:43.04Z</time></trkpt><trkpt lat="42.3606245" lon="14.0714916"><ele>133.0</ele><time>2026-05-02T07:57:44.04Z</time></trkpt><trkpt lat="42.3605788" lon="14.0713079"><ele>133.0</ele><time>2026-05-02T07:57:45.04Z</time></trkpt><trkpt lat="42.3605336" lon="14.0711206"><ele>133.0</ele><time>2026-05-02T07:57:46.04Z</time></trkpt><trkpt lat="42.3604881" lon="14.0709278"><ele>133.0</ele><time>2026-05-02T07:57:47.041Z</time></trkpt><trkpt lat="42.3604425" lon="14.0707149"><ele>133.0</ele><time>2026-05-02T07:57:48.041Z</time></trkpt><trkpt lat="42.3603909" lon="14.0704884"><ele>133.66666666666669</ele><time>2026-05-02T07:57:49.04Z</time></trkpt><trkpt lat="42.3603404" lon="14.0702615"><ele>134.33333333333334</ele><time>2026-05-02T07:57:50.04Z</time></trkpt><trkpt lat="42.3602935" lon="14.0700413"><ele>135.0</ele><time>2026-05-02T07:57:51.04Z</time></trkpt><trkpt lat="42.360249" lon="14.0698244"><ele>136.0</ele><time>2026-05-02T07:57:52.04Z</time></trkpt><trkpt lat="42.3602154" lon="14.0696027"><ele>137.0</ele><time>2026-05-02T07:57:53.041Z</time></trkpt><trkpt lat="42.3601976" lon="14.0693818"><ele>138.0</ele><time>2026-05-02T07:57:54.04Z</time></trkpt><trkpt lat="42.3602081" lon="14.0691634"><ele>138.66666666666666</ele><time>2026-05-02T07:57:55.04Z</time></trkpt><trkpt lat="42.3602457" lon="14.0689565"><ele>139.33333333333331</ele><time>2026-05-02T07:57:56.041Z</time></trkpt><trkpt lat="42.3603073" lon="14.0687604"><ele>140.0</ele><time>2026-05-02T07:57:57.04Z</time></trkpt><trkpt lat="42.3603859" lon="14.0685846"><ele>140.0</ele><time>2026-05-02T07:57:58.041Z</time></trkpt><trkpt lat="42.3604633" lon="14.0684545"><ele>140.0</ele><time>2026-05-02T07:57:59.041Z</time></trkpt><trkpt lat="42.3605146" lon="14.0683647"><ele>140.0</ele><time>2026-05-02T07:58:00.04Z</time></trkpt><trkpt lat="42.3605617" lon="14.0682922"><ele>140.0</ele><time>2026-05-02T07:58:01.04Z</time></trkpt><trkpt lat="42.3605991" lon="14.0682163"><ele>140.0</ele><time>2026-05-02T07:58:02.04Z</time></trkpt><trkpt lat="42.3606372" lon="14.068134"><ele>140.0</ele><time>2026-05-02T07:58:03.04Z</time></trkpt><trkpt lat="42.3606713" lon="14.0680307"><ele>140.0</ele><time>2026-05-02T07:58:04.04Z</time></trkpt><trkpt lat="42.3606974" lon="14.0679058"><ele>140.0</ele><time>2026-05-02T07:58:05.04Z</time></trkpt><trkpt lat="42.3607147" lon="14.0677869"><ele>140.0</ele><time>2026-05-02T07:58:06.04Z</time></trkpt><trkpt lat="42.3607039" lon="14.0676668"><ele>140.0</ele><time>2026-05-02T07:58:07.04Z</time></trkpt><trkpt lat="42.3606691" lon="14.0675443"><ele>140.0</ele><time>2026-05-02T07:58:08.04Z</time></trkpt><trkpt lat="42.3606254" lon="14.0674084"><ele>139.2</ele><time>2026-05-02T07:58:09.04Z</time></trkpt><trkpt lat="42.3605661" lon="14.067294"><ele>138.4</ele><time>2026-05-02T07:58:10.041Z</time></trkpt><trkpt lat="42.3605036" lon="14.0671799"><ele>137.6</ele><time>2026-05-02T07:58:11.041Z</time></trkpt><trkpt lat="42.3604531" lon="14.0670682"><ele>136.8</ele><time>2026-05-02T07:58:12.04Z</time></trkpt><trkpt lat="42.3604138" lon="14.0669597"><ele>136.0</ele><time>2026-05-02T07:58:13.04Z</time></trkpt><trkpt lat="42.3603909" lon="14.0668574"><ele>135.16666666666669</ele><time>2026-05-02T07:58:14.04Z</time></trkpt><trkpt lat="42.3603745" lon="14.0667714"><ele>134.33333333333334</ele><time>2026-05-02T07:58:15.04Z</time></trkpt><trkpt lat="42.3603164" lon="14.0666412"><ele>133.5</ele><time>2026-05-02T07:58:17.04Z</time></trkpt><trkpt lat="42.3602623" lon="14.0665974"><ele>132.66666666666666</ele><time>2026-05-02T07:58:18.041Z</time></trkpt><trkpt lat="42.3601866" lon="14.066566"><ele>131.83333333333331</ele><time>2026-05-02T07:58:19.04Z</time></trkpt><trkpt lat="42.3600927" lon="14.0665285"><ele>131.0</ele><time>2026-05-02T07:58:20.04Z</time></trkpt><trkpt lat="42.3600094" lon="14.066462"><ele>131.0</ele><time>2026-05-02T07:58:21.04Z</time></trkpt><trkpt lat="42.359938" lon="14.0663759"><ele>131.0</ele><time>2026-05-02T07:58:22.04Z</time></trkpt><trkpt lat="42.359869" lon="14.0662791"><ele>131.0</ele><time>2026-05-02T07:58:23.04Z</time></trkpt><trkpt lat="42.3598077" lon="14.0661667"><ele>131.0</ele><time>2026-05-02T07:58:24.04Z</time></trkpt><trkpt lat="42.359755" lon="14.0660533"><ele>131.0</ele><time>2026-05-02T07:58:25.04Z</time></trkpt><trkpt lat="42.3597039" lon="14.0659399"><ele>131.4</ele><time>2026-05-02T07:58:26.04Z</time></trkpt><trkpt lat="42.3596503" lon="14.0658329"><ele>131.8</ele><time>2026-05-02T07:58:27.04Z</time></trkpt><trkpt lat="42.3595946" lon="14.0657285"><ele>132.20000000000002</ele><time>2026-05-02T07:58:28.04Z</time></trkpt><trkpt lat="42.3595423" lon="14.0656306"><ele>132.6</ele><time>2026-05-02T07:58:29.041Z</time></trkpt><trkpt lat="42.3594887" lon="14.0655306"><ele>133.0</ele><time>2026-05-02T07:58:30.041Z</time></trkpt><trkpt lat="42.3594333" lon="14.0654365"><ele>131.20000000000002</ele><time>2026-05-02T07:58:31.04Z</time></trkpt><trkpt lat="42.3593691" lon="14.0653443"><ele>129.4</ele><time>2026-05-02T07:58:32.04Z</time></trkpt><trkpt lat="42.3592993" lon="14.0652501"><ele>127.60000000000001</ele><time>2026-05-02T07:58:33.04Z</time></trkpt><trkpt lat="42.3592199" lon="14.0651645"><ele>125.80000000000001</ele><time>2026-05-02T07:58:34.041Z</time></trkpt><trkpt lat="42.3591313" lon="14.065079"><ele>124.0</ele><time>2026-05-02T07:58:35.04Z</time></trkpt><trkpt lat="42.3590451" lon="14.0649826"><ele>123.5</ele><time>2026-05-02T07:58:36.04Z</time></trkpt><trkpt lat="42.3589639" lon="14.0648719"><ele>123.0</ele><time>2026-05-02T07:58:37.04Z</time></trkpt><trkpt lat="42.3588875" lon="14.0647396"><ele>122.5</ele><time>2026-05-02T07:58:38.041Z</time></trkpt><trkpt lat="42.3588115" lon="14.0645909"><ele>122.0</ele><time>2026-05-02T07:58:39.04Z</time></trkpt><trkpt lat="42.3587375" lon="14.064434"><ele>121.5</ele><time>2026-05-02T07:58:40.04Z</time></trkpt><trkpt lat="42.35866" lon="14.064281"><ele>121.0</ele><time>2026-05-02T07:58:41.041Z</time></trkpt><trkpt lat="42.358579" lon="14.0641439"><ele>120.5</ele><time>2026-05-02T07:58:42.04Z</time></trkpt><trkpt lat="42.3584876" lon="14.0640414"><ele>120.0</ele><time>2026-05-02T07:58:43.04Z</time></trkpt><trkpt lat="42.3583671" lon="14.06398"><ele>117.25</ele><time>2026-05-02T07:58:44.04Z</time></trkpt><trkpt lat="42.3582229" lon="14.0639616"><ele>114.5</ele><time>2026-05-02T07:58:45.041Z</time></trkpt><trkpt lat="42.3580837" lon="14.0639694"><ele>111.75</ele><time>2026-05-02T07:58:46.04Z</time></trkpt><trkpt lat="42.3579408" lon="14.06399"><ele>109.0</ele><time>2026-05-02T07:58:47.04Z</time></trkpt><trkpt lat="42.3578082" lon="14.0639965"><ele>108.0</ele><time>2026-05-02T07:58:48.04Z</time></trkpt><trkpt lat="42.3576827" lon="14.0639625"><ele>107.0</ele><time>2026-05-02T07:58:49.04Z</time></trkpt><trkpt lat="42.3575605" lon="14.0638737"><ele>106.0</ele><time>2026-05-02T07:58:50.04Z</time></trkpt><trkpt lat="42.3574379" lon="14.0637787"><ele>105.0</ele><time>2026-05-02T07:58:51.04Z</time></trkpt><trkpt lat="42.3573019" lon="14.0636856"><ele>103.75</ele><time>2026-05-02T07:58:52.04Z</time></trkpt><trkpt lat="42.3571609" lon="14.0636147"><ele>102.5</ele><time>2026-05-02T07:58:53.04Z</time></trkpt><trkpt lat="42.3570181" lon="14.0635786"><ele>101.25</ele><time>2026-05-02T07:58:54.041Z</time></trkpt><trkpt lat="42.3568782" lon="14.0635523"><ele>100.0</ele><time>2026-05-02T07:58:55.041Z</time></trkpt><trkpt lat="42.3567305" lon="14.063558"><ele>100.0</ele><time>2026-05-02T07:58:56.04Z</time></trkpt><trkpt lat="42.3565812" lon="14.0635975"><ele>100.0</ele><time>2026-05-02T07:58:57.04Z</time></trkpt><trkpt lat="42.3564409" lon="14.0636593"><ele>100.0</ele><time>2026-05-02T07:58:58.04Z</time></trkpt><trkpt lat="42.356307" lon="14.0637445"><ele>100.0</ele><time>2026-05-02T07:58:59.04Z</time></trkpt><trkpt lat="42.3561824" lon="14.063815"><ele>98.0</ele><time>2026-05-02T07:59:00.04Z</time></trkpt><trkpt lat="42.3560669" lon="14.0638677"><ele>96.0</ele><time>2026-05-02T07:59:01.041Z</time></trkpt><trkpt lat="42.3559483" lon="14.0638751"><ele>94.0</ele><time>2026-05-02T07:59:02.04Z</time></trkpt><trkpt lat="42.3558335" lon="14.0638441"><ele>92.0</ele><time>2026-05-02T07:59:03.041Z</time></trkpt><trkpt lat="42.3557373" lon="14.0637585"><ele>92.0</ele><time>2026-05-02T07:59:04.04Z</time></trkpt><trkpt lat="42.3556604" lon="14.0636342"><ele>92.0</ele><time>2026-05-02T07:59:05.04Z</time></trkpt><trkpt lat="42.3556017" lon="14.0634666"><ele>92.0</ele><time>2026-05-02T07:59:06.04Z</time></trkpt><trkpt lat="42.3555607" lon="14.0632681"><ele>92.0</ele><time>2026-05-02T07:59:07.041Z</time></trkpt><trkpt lat="42.3555061" lon="14.0630607"><ele>89.66666666666667</ele><time>2026-05-02T07:59:08.04Z</time></trkpt><trkpt lat="42.3554244" lon="14.0628551"><ele>87.33333333333333</ele><time>2026-05-02T07:59:09.04Z</time></trkpt><trkpt lat="42.3553293" lon="14.062663"><ele>85.0</ele><time>2026-05-02T07:59:10.04Z</time></trkpt><trkpt lat="42.3552169" lon="14.0624827"><ele>86.66666666666666</ele><time>2026-05-02T07:59:11.04Z</time></trkpt><trkpt lat="42.355099" lon="14.0623066"><ele>88.33333333333333</ele><time>2026-05-02T07:59:12.041Z</time></trkpt><trkpt lat="42.3549868" lon="14.0621299"><ele>90.0</ele><time>2026-05-02T07:59:13.04Z</time></trkpt><trkpt lat="42.3548787" lon="14.0619609"><ele>90.0</ele><time>2026-05-02T07:59:14.04Z</time></trkpt><trkpt lat="42.3547679" lon="14.0617946"><ele>90.0</ele><time>2026-05-02T07:59:15.04Z</time></trkpt><trkpt lat="42.3546595" lon="14.0616295"><ele>90.0</ele><time>2026-05-02T07:59:16.041Z</time></trkpt><trkpt lat="42.3545569" lon="14.0614568"><ele>91.33333333333333</ele><time>2026-05-02T07:59:17.04Z</time></trkpt><trkpt lat="42.3544571" lon="14.0612864"><ele>92.66666666666666</ele><time>2026-05-02T07:59:18.041Z</time></trkpt><trkpt lat="42.3543632" lon="14.0611169"><ele>94.0</ele><time>2026-05-02T07:59:19.04Z</time></trkpt><trkpt lat="42.3542686" lon="14.0609459"><ele>95.0</ele><time>2026-05-02T07:59:20.041Z</time></trkpt><trkpt lat="42.3541679" lon="14.0607705"><ele>96.0</ele><time>2026-05-02T07:59:21.041Z</time></trkpt><trkpt lat="42.3540706" lon="14.0605936"><ele>97.0</ele><time>2026-05-02T07:59:22.04Z</time></trkpt><trkpt lat="42.3539679" lon="14.0604191"><ele>96.0</ele><time>2026-05-02T07:59:23.04Z</time></trkpt><trkpt lat="42.3538622" lon="14.0602521"><ele>95.0</ele><time>2026-05-02T07:59:24.04Z</time></trkpt><trkpt lat="42.3537567" lon="14.0600789"><ele>94.0</ele><time>2026-05-02T07:59:25.04Z</time></trkpt><trkpt lat="42.3536533" lon="14.059899"><ele>94.0</ele><time>2026-05-02T07:59:26.04Z</time></trkpt><trkpt lat="42.353563" lon="14.059701"><ele>94.0</ele><time>2026-05-02T07:59:27.04Z</time></trkpt><trkpt lat="42.3534933" lon="14.0594964"><ele>94.0</ele><time>2026-05-02T07:59:28.04Z</time></trkpt><trkpt lat="42.3534508" lon="14.0592805"><ele>93.66666666666666</ele><time>2026-05-02T07:59:29.04Z</time></trkpt><trkpt lat="42.3534268" lon="14.0590523"><ele>93.33333333333333</ele><time>2026-05-02T07:59:30.04Z</time></trkpt><trkpt lat="42.3534113" lon="14.0588202"><ele>93.0</ele><time>2026-05-02T07:59:31.04Z</time></trkpt><trkpt lat="42.3533868" lon="14.0585852"><ele>93.0</ele><time>2026-05-02T07:59:32.04Z</time></trkpt><trkpt lat="42.3533614" lon="14.0583416"><ele>93.0</ele><time>2026-05-02T07:59:33.04Z</time></trkpt><trkpt lat="42.3533407" lon="14.0581039"><ele>93.0</ele><time>2026-05-02T07:59:34.041Z</time></trkpt><trkpt lat="42.3533177" lon="14.0578589"><ele>92.66666666666667</ele><time>2026-05-02T07:59:35.04Z</time></trkpt><trkpt lat="42.3532954" lon="14.0576194"><ele>92.33333333333334</ele><time>2026-05-02T07:59:36.04Z</time></trkpt><trkpt lat="42.3532728" lon="14.0573797"><ele>92.0</ele><time>2026-05-02T07:59:37.041Z</time></trkpt><trkpt lat="42.353248" lon="14.057141"><ele>91.33333333333334</ele><time>2026-05-02T07:59:38.04Z</time></trkpt><trkpt lat="42.3532249" lon="14.056907"><ele>90.66666666666667</ele><time>2026-05-02T07:59:39.041Z</time></trkpt><trkpt lat="42.3531926" lon="14.0566782"><ele>90.0</ele><time>2026-05-02T07:59:40.04Z</time></trkpt><trkpt lat="42.3531682" lon="14.0564525"><ele>89.66666666666667</ele><time>2026-05-02T07:59:41.04Z</time></trkpt><trkpt lat="42.3531495" lon="14.0562236"><ele>89.33333333333334</ele><time>2026-05-02T07:59:42.04Z</time></trkpt><trkpt lat="42.3531315" lon="14.0560004"><ele>89.0</ele><time>2026-05-02T07:59:43.04Z</time></trkpt><trkpt lat="42.3531047" lon="14.0557739"><ele>89.66666666666667</ele><time>2026-05-02T07:59:44.04Z</time></trkpt><trkpt lat="42.3530755" lon="14.0555543"><ele>90.33333333333333</ele><time>2026-05-02T07:59:45.04Z</time></trkpt><trkpt lat="42.3530507" lon="14.0553348"><ele>91.0</ele><time>2026-05-02T07:59:46.04Z</time></trkpt><trkpt lat="42.3530319" lon="14.0551189"><ele>91.33333333333333</ele><time>2026-05-02T07:59:47.04Z</time></trkpt><trkpt lat="42.3530244" lon="14.0548995"><ele>91.66666666666667</ele><time>2026-05-02T07:59:48.04Z</time></trkpt><trkpt lat="42.3530304" lon="14.0546716"><ele>92.0</ele><time>2026-05-02T07:59:49.04Z</time></trkpt><trkpt lat="42.3530533" lon="14.0544483"><ele>92.66666666666667</ele><time>2026-05-02T07:59:50.04Z</time></trkpt><trkpt lat="42.3530884" lon="14.0542204"><ele>93.33333333333333</ele><time>2026-05-02T07:59:51.041Z</time></trkpt><trkpt lat="42.3531325" lon="14.0539939"><ele>94.0</ele><time>2026-05-02T07:59:52.04Z</time></trkpt><trkpt lat="42.3531725" lon="14.0537773"><ele>96.0</ele><time>2026-05-02T07:59:53.04Z</time></trkpt><trkpt lat="42.3531879" lon="14.053569"><ele>98.0</ele><time>2026-05-02T07:59:54.04Z</time></trkpt><trkpt lat="42.3531602" lon="14.053386"><ele>100.0</ele><time>2026-05-02T07:59:55.041Z</time></trkpt><trkpt lat="42.353098" lon="14.0532105"><ele>102.0</ele><time>2026-05-02T07:59:56.041Z</time></trkpt><trkpt lat="42.3530117" lon="14.0530327"><ele>102.0</ele><time>2026-05-02T07:59:57.04Z</time></trkpt><trkpt lat="42.3529317" lon="14.0528521"><ele>102.0</ele><time>2026-05-02T07:59:58.041Z</time></trkpt><trkpt lat="42.3528857" lon="14.0526539"><ele>102.0</ele><time>2026-05-02T07:59:59.04Z</time></trkpt><trkpt lat="42.3528766" lon="14.0524493"><ele>103.25</ele><time>2026-05-02T08:00:00.041Z</time></trkpt><trkpt lat="42.3528938" lon="14.0522545"><ele>104.5</ele><time>2026-05-02T08:00:01.041Z</time></trkpt><trkpt lat="42.3529266" lon="14.0520786"><ele>105.75</ele><time>2026-05-02T08:00:02.041Z</time></trkpt><trkpt lat="42.3529698" lon="14.0519083"><ele>107.0</ele><time>2026-05-02T08:00:03.04Z</time></trkpt><trkpt lat="42.3530115" lon="14.051751"><ele>108.0</ele><time>2026-05-02T08:00:04.04Z</time></trkpt><trkpt lat="42.3530437" lon="14.0516013"><ele>109.0</ele><time>2026-05-02T08:00:05.04Z</time></trkpt><trkpt lat="42.353077" lon="14.0514309"><ele>110.0</ele><time>2026-05-02T08:00:06.04Z</time></trkpt><trkpt lat="42.353095" lon="14.0512512"><ele>111.0</ele><time>2026-05-02T08:00:07.041Z</time></trkpt><trkpt lat="42.3531034" lon="14.0510684"><ele>111.0</ele><time>2026-05-02T08:00:08.04Z</time></trkpt><trkpt lat="42.3531135" lon="14.0508813"><ele>111.0</ele><time>2026-05-02T08:00:09.04Z</time></trkpt><trkpt lat="42.3531375" lon="14.0506903"><ele>111.0</ele><time>2026-05-02T08:00:10.04Z</time></trkpt><trkpt lat="42.353178" lon="14.0505063"><ele>111.0</ele><time>2026-05-02T08:00:11.04Z</time></trkpt><trkpt lat="42.353218" lon="14.0503181"><ele>111.5</ele><time>2026-05-02T08:00:12.04Z</time></trkpt><trkpt lat="42.3532417" lon="14.0501244"><ele>112.0</ele><time>2026-05-02T08:00:13.04Z</time></trkpt><trkpt lat="42.3532343" lon="14.0499192"><ele>112.5</ele><time>2026-05-02T08:00:14.04Z</time></trkpt><trkpt lat="42.353207" lon="14.0497396"><ele>113.0</ele><time>2026-05-02T08:00:15.04Z</time></trkpt><trkpt lat="42.3531728" lon="14.0495779"><ele>114.25</ele><time>2026-05-02T08:00:16.04Z</time></trkpt><trkpt lat="42.3531393" lon="14.0494192"><ele>115.5</ele><time>2026-05-02T08:00:17.04Z</time></trkpt><trkpt lat="42.3531149" lon="14.0492547"><ele>116.75</ele><time>2026-05-02T08:00:18.041Z</time></trkpt><trkpt lat="42.3531021" lon="14.0490811"><ele>118.0</ele><time>2026-05-02T08:00:19.04Z</time></trkpt><trkpt lat="42.3531083" lon="14.0489062"><ele>118.25</ele><time>2026-05-02T08:00:20.04Z</time></trkpt><trkpt lat="42.3531101" lon="14.0487341"><ele>118.5</ele><time>2026-05-02T08:00:21.04Z</time></trkpt><trkpt lat="42.3530951" lon="14.048568"><ele>118.75</ele><time>2026-05-02T08:00:22.041Z</time></trkpt><trkpt lat="42.3530573" lon="14.0484118"><ele>119.0</ele><time>2026-05-02T08:00:23.041Z</time></trkpt><trkpt lat="42.3530148" lon="14.0482676"><ele>119.0</ele><time>2026-05-02T08:00:24.04Z</time></trkpt><trkpt lat="42.3529788" lon="14.0481434"><ele>119.0</ele><time>2026-05-02T08:00:25.04Z</time></trkpt><trkpt lat="42.3529648" lon="14.0480138"><ele>119.0</ele><time>2026-05-02T08:00:26.041Z</time></trkpt><trkpt lat="42.3529622" lon="14.0478924"><ele>119.0</ele><time>2026-05-02T08:00:27.04Z</time></trkpt><trkpt lat="42.3529827" lon="14.0477634"><ele>119.0</ele><time>2026-05-02T08:00:28.04Z</time></trkpt><trkpt lat="42.3530418" lon="14.0476553"><ele>119.0</ele><time>2026-05-02T08:00:29.04Z</time></trkpt><trkpt lat="42.353119" lon="14.0475422"><ele>119.0</ele><time>2026-05-02T08:00:30.041Z</time></trkpt><trkpt lat="42.3531907" lon="14.0474181"><ele>119.0</ele><time>2026-05-02T08:00:31.04Z</time></trkpt><trkpt lat="42.3532613" lon="14.0472769"><ele>119.0</ele><time>2026-05-02T08:00:32.041Z</time></trkpt><trkpt lat="42.3533213" lon="14.0471094"><ele>119.0</ele><time>2026-05-02T08:00:33.04Z</time></trkpt><trkpt lat="42.353382" lon="14.0469191"><ele>119.0</ele><time>2026-05-02T08:00:34.04Z</time></trkpt><trkpt lat="42.3534446" lon="14.0467303"><ele>119.0</ele><time>2026-05-02T08:00:35.04Z</time></trkpt><trkpt lat="42.3535011" lon="14.0465321"><ele>119.25</ele><time>2026-05-02T08:00:36.041Z</time></trkpt><trkpt lat="42.3535471" lon="14.0463367"><ele>119.5</ele><time>2026-05-02T08:00:37.04Z</time></trkpt><trkpt lat="42.35358" lon="14.0461434"><ele>119.75</ele><time>2026-05-02T08:00:38.04Z</time></trkpt><trkpt lat="42.3536101" lon="14.0459498"><ele>120.0</ele><time>2026-05-02T08:00:39.04Z</time></trkpt><trkpt lat="42.3536269" lon="14.0457347"><ele>120.0</ele><time>2026-05-02T08:00:40.04Z</time></trkpt><trkpt lat="42.3536324" lon="14.0455036"><ele>120.0</ele><time>2026-05-02T08:00:41.041Z</time></trkpt><trkpt lat="42.3536223" lon="14.0452377"><ele>120.0</ele><time>2026-05-02T08:00:42.04Z</time></trkpt><trkpt lat="42.3536171" lon="14.0449535"><ele>121.66666666666666</ele><time>2026-05-02T08:00:43.04Z</time></trkpt><trkpt lat="42.3536154" lon="14.0446838"><ele>123.33333333333333</ele><time>2026-05-02T08:00:44.04Z</time></trkpt><trkpt lat="42.3536142" lon="14.044428"><ele>125.0</ele><time>2026-05-02T08:00:45.04Z</time></trkpt><trkpt lat="42.3536445" lon="14.0441839"><ele>126.33333333333333</ele><time>2026-05-02T08:00:46.041Z</time></trkpt><trkpt lat="42.3536989" lon="14.0439226"><ele>127.66666666666666</ele><time>2026-05-02T08:00:47.04Z</time></trkpt><trkpt lat="42.3537623" lon="14.043679"><ele>129.0</ele><time>2026-05-02T08:00:48.04Z</time></trkpt><trkpt lat="42.3538175" lon="14.0434488"><ele>130.0</ele><time>2026-05-02T08:00:49.04Z</time></trkpt><trkpt lat="42.3538736" lon="14.0432329"><ele>131.0</ele><time>2026-05-02T08:00:50.04Z</time></trkpt><trkpt lat="42.3539213" lon="14.0430143"><ele>132.0</ele><time>2026-05-02T08:00:51.04Z</time></trkpt><trkpt lat="42.3539654" lon="14.0427989"><ele>132.0</ele><time>2026-05-02T08:00:52.04Z</time></trkpt><trkpt lat="42.3540055" lon="14.0425772"><ele>132.0</ele><time>2026-05-02T08:00:53.04Z</time></trkpt><trkpt lat="42.3540409" lon="14.0423453"><ele>132.0</ele><time>2026-05-02T08:00:54.04Z</time></trkpt><trkpt lat="42.3540787" lon="14.0421292"><ele>132.0</ele><time>2026-05-02T08:00:55.041Z</time></trkpt><trkpt lat="42.3541173" lon="14.041927"><ele>132.0</ele><time>2026-05-02T08:00:56.04Z</time></trkpt><trkpt lat="42.3541544" lon="14.0417286"><ele>132.0</ele><time>2026-05-02T08:00:57.04Z</time></trkpt><trkpt lat="42.3541851" lon="14.0415375"><ele>132.75</ele><time>2026-05-02T08:00:58.04Z</time></trkpt><trkpt lat="42.3542096" lon="14.0413552"><ele>133.5</ele><time>2026-05-02T08:00:59.04Z</time></trkpt><trkpt lat="42.3542368" lon="14.0411887"><ele>134.25</ele><time>2026-05-02T08:01:00.04Z</time></trkpt><trkpt lat="42.3542634" lon="14.0410194"><ele>135.0</ele><time>2026-05-02T08:01:01.041Z</time></trkpt><trkpt lat="42.354289" lon="14.0408556"><ele>136.0</ele><time>2026-05-02T08:01:02.04Z</time></trkpt><trkpt lat="42.3543151" lon="14.0406961"><ele>137.0</ele><time>2026-05-02T08:01:03.041Z</time></trkpt><trkpt lat="42.354337" lon="14.0405387"><ele>138.0</ele><time>2026-05-02T08:01:04.04Z</time></trkpt><trkpt lat="42.3543548" lon="14.0403992"><ele>139.0</ele><time>2026-05-02T08:01:05.041Z</time></trkpt><trkpt lat="42.3543745" lon="14.0402776"><ele>140.0</ele><time>2026-05-02T08:01:06.04Z</time></trkpt><trkpt lat="42.3543979" lon="14.0401677"><ele>140.0</ele><time>2026-05-02T08:01:07.04Z</time></trkpt><trkpt lat="42.354425" lon="14.0400592"><ele>140.0</ele><time>2026-05-02T08:01:08.041Z</time></trkpt><trkpt lat="42.3544471" lon="14.0399414"><ele>140.0</ele><time>2026-05-02T08:01:09.04Z</time></trkpt><trkpt lat="42.3544672" lon="14.0398169"><ele>140.0</ele><time>2026-05-02T08:01:10.04Z</time></trkpt><trkpt lat="42.3544865" lon="14.039684"><ele>140.0</ele><time>2026-05-02T08:01:11.04Z</time></trkpt><trkpt lat="42.3545078" lon="14.0395385"><ele>140.25</ele><time>2026-05-02T08:01:12.04Z</time></trkpt><trkpt lat="42.3545305" lon="14.039386"><ele>140.5</ele><time>2026-05-02T08:01:13.04Z</time></trkpt><trkpt lat="42.3545528" lon="14.0392402"><ele>140.75</ele><time>2026-05-02T08:01:14.04Z</time></trkpt><trkpt lat="42.3545771" lon="14.0390872"><ele>141.0</ele><time>2026-05-02T08:01:15.04Z</time></trkpt><trkpt lat="42.3546014" lon="14.038919"><ele>140.25</ele><time>2026-05-02T08:01:16.04Z</time></trkpt><trkpt lat="42.3546275" lon="14.0387511"><ele>139.5</ele><time>2026-05-02T08:01:17.041Z</time></trkpt><trkpt lat="42.3546543" lon="14.0385794"><ele>138.75</ele><time>2026-05-02T08:01:18.04Z</time></trkpt><trkpt lat="42.3546841" lon="14.0384072"><ele>138.0</ele><time>2026-05-02T08:01:19.04Z</time></trkpt><trkpt lat="42.3547147" lon="14.0382367"><ele>136.5</ele><time>2026-05-02T08:01:20.04Z</time></trkpt><trkpt lat="42.3547429" lon="14.0380669"><ele>135.0</ele><time>2026-05-02T08:01:21.04Z</time></trkpt><trkpt lat="42.3547632" lon="14.0379068"><ele>133.5</ele><time>2026-05-02T08:01:22.04Z</time></trkpt><trkpt lat="42.3547858" lon="14.0377447"><ele>132.0</ele><time>2026-05-02T08:01:23.041Z</time></trkpt><trkpt lat="42.3548123" lon="14.037576"><ele>132.25</ele><time>2026-05-02T08:01:24.04Z</time></trkpt><trkpt lat="42.3548412" lon="14.0374101"><ele>132.5</ele><time>2026-05-02T08:01:25.04Z</time></trkpt><trkpt lat="42.3548693" lon="14.0372308"><ele>132.75</ele><time>2026-05-02T08:01:26.04Z</time></trkpt><trkpt lat="42.3548894" lon="14.0370509"><ele>133.0</ele><time>2026-05-02T08:01:27.04Z</time></trkpt><trkpt lat="42.3548951" lon="14.0368591"><ele>133.0</ele><time>2026-05-02T08:01:28.04Z</time></trkpt><trkpt lat="42.3548955" lon="14.0366655"><ele>133.0</ele><time>2026-05-02T08:01:29.041Z</time></trkpt><trkpt lat="42.3548948" lon="14.0364744"><ele>133.0</ele><time>2026-05-02T08:01:30.04Z</time></trkpt><trkpt lat="42.3548948" lon="14.0362823"><ele>133.0</ele><time>2026-05-02T08:01:31.04Z</time></trkpt><trkpt lat="42.3548921" lon="14.0360913"><ele>133.25</ele><time>2026-05-02T08:01:32.04Z</time></trkpt><trkpt lat="42.3548889" lon="14.035896"><ele>133.5</ele><time>2026-05-02T08:01:33.04Z</time></trkpt><trkpt lat="42.3548864" lon="14.0357015"><ele>133.75</ele><time>2026-05-02T08:01:34.04Z</time></trkpt><trkpt lat="42.3548868" lon="14.0355015"><ele>134.0</ele><time>2026-05-02T08:01:35.04Z</time></trkpt><trkpt lat="42.354881" lon="14.0352953"><ele>135.0</ele><time>2026-05-02T08:01:36.04Z</time></trkpt><trkpt lat="42.3548798" lon="14.0350833"><ele>136.0</ele><time>2026-05-02T08:01:37.041Z</time></trkpt><trkpt lat="42.3548787" lon="14.0348793"><ele>137.0</ele><time>2026-05-02T08:01:38.041Z</time></trkpt><trkpt lat="42.35488" lon="14.0346721"><ele>137.33333333333331</ele><time>2026-05-02T08:01:39.04Z</time></trkpt><trkpt lat="42.3548799" lon="14.0344565"><ele>137.66666666666666</ele><time>2026-05-02T08:01:40.04Z</time></trkpt><trkpt lat="42.3548789" lon="14.0342444"><ele>138.0</ele><time>2026-05-02T08:01:41.04Z</time></trkpt><trkpt lat="42.3548747" lon="14.0340263"><ele>138.0</ele><time>2026-05-02T08:01:42.041Z</time></trkpt><trkpt lat="42.3548693" lon="14.0338006"><ele>138.0</ele><time>2026-05-02T08:01:43.041Z</time></trkpt><trkpt lat="42.3548667" lon="14.0335694"><ele>138.0</ele><time>2026-05-02T08:01:44.04Z</time></trkpt><trkpt lat="42.3548609" lon="14.0333456"><ele>138.33333333333334</ele><time>2026-05-02T08:01:45.04Z</time></trkpt><trkpt lat="42.3548589" lon="14.0331109"><ele>138.66666666666669</ele><time>2026-05-02T08:01:46.04Z</time></trkpt><trkpt lat="42.3548537" lon="14.0328694"><ele>139.0</ele><time>2026-05-02T08:01:47.04Z</time></trkpt><trkpt lat="42.3548517" lon="14.0326211"><ele>139.0</ele><time>2026-05-02T08:01:48.041Z</time></trkpt><trkpt lat="42.3548502" lon="14.0323751"><ele>139.0</ele><time>2026-05-02T08:01:49.04Z</time></trkpt><trkpt lat="42.3548495" lon="14.0321234"><ele>139.0</ele><time>2026-05-02T08:01:50.04Z</time></trkpt><trkpt lat="42.3548423" lon="14.0318744"><ele>139.0</ele><time>2026-05-02T08:01:51.04Z</time></trkpt><trkpt lat="42.3548392" lon="14.0316212"><ele>139.0</ele><time>2026-05-02T08:01:52.04Z</time></trkpt><trkpt lat="42.3548323" lon="14.0313648"><ele>139.0</ele><time>2026-05-02T08:01:53.04Z</time></trkpt><trkpt lat="42.3548313" lon="14.0311"><ele>139.0</ele><time>2026-05-02T08:01:54.041Z</time></trkpt><trkpt lat="42.3548322" lon="14.0308378"><ele>139.0</ele><time>2026-05-02T08:01:55.04Z</time></trkpt><trkpt lat="42.3548317" lon="14.0305748"><ele>139.0</ele><time>2026-05-02T08:01:56.04Z</time></trkpt><trkpt lat="42.3548287" lon="14.0303134"><ele>139.66666666666669</ele><time>2026-05-02T08:01:57.04Z</time></trkpt><trkpt lat="42.3548251" lon="14.0300627"><ele>140.33333333333334</ele><time>2026-05-02T08:01:58.04Z</time></trkpt><trkpt lat="42.3548243" lon="14.0298081"><ele>141.0</ele><time>2026-05-02T08:01:59.04Z</time></trkpt><trkpt lat="42.3548229" lon="14.0295541"><ele>142.0</ele><time>2026-05-02T08:02:00.04Z</time></trkpt><trkpt lat="42.3548209" lon="14.0293021"><ele>143.0</ele><time>2026-05-02T08:02:01.04Z</time></trkpt><trkpt lat="42.354819" lon="14.0290441"><ele>144.0</ele><time>2026-05-02T08:02:02.04Z</time></trkpt><trkpt lat="42.3548166" lon="14.0287845"><ele>144.0</ele><time>2026-05-02T08:02:03.04Z</time></trkpt><trkpt lat="42.354814" lon="14.0285196"><ele>144.0</ele><time>2026-05-02T08:02:04.041Z</time></trkpt><trkpt lat="42.3548076" lon="14.0282596"><ele>144.0</ele><time>2026-05-02T08:02:05.04Z</time></trkpt><trkpt lat="42.354805" lon="14.0279925"><ele>144.33333333333334</ele><time>2026-05-02T08:02:06.041Z</time></trkpt><trkpt lat="42.3548011" lon="14.0277286"><ele>144.66666666666669</ele><time>2026-05-02T08:02:07.04Z</time></trkpt><trkpt lat="42.3548" lon="14.0274564"><ele>145.0</ele><time>2026-05-02T08:02:08.04Z</time></trkpt><trkpt lat="42.3547997" lon="14.0271887"><ele>145.66666666666669</ele><time>2026-05-02T08:02:09.04Z</time></trkpt><trkpt lat="42.3547959" lon="14.0269323"><ele>146.33333333333334</ele><time>2026-05-02T08:02:10.04Z</time></trkpt><trkpt lat="42.3547872" lon="14.0266643"><ele>147.0</ele><time>2026-05-02T08:02:11.041Z</time></trkpt><trkpt lat="42.3547794" lon="14.02642"><ele>147.0</ele><time>2026-05-02T08:02:12.04Z</time></trkpt><trkpt lat="42.3547774" lon="14.0261982"><ele>147.0</ele><time>2026-05-02T08:02:13.04Z</time></trkpt><trkpt lat="42.3547726" lon="14.0259924"><ele>147.0</ele><time>2026-05-02T08:02:14.04Z</time></trkpt><trkpt lat="42.3547687" lon="14.0258012"><ele>147.5</ele><time>2026-05-02T08:02:15.04Z</time></trkpt><trkpt lat="42.3547683" lon="14.0256207"><ele>148.0</ele><time>2026-05-02T08:02:16.041Z</time></trkpt><trkpt lat="42.3547765" lon="14.0254465"><ele>148.5</ele><time>2026-05-02T08:02:17.04Z</time></trkpt><trkpt lat="42.3547872" lon="14.0252656"><ele>149.0</ele><time>2026-05-02T08:02:18.041Z</time></trkpt><trkpt lat="42.3547944" lon="14.02508"><ele>149.25</ele><time>2026-05-02T08:02:19.041Z</time></trkpt><trkpt lat="42.3548027" lon="14.0248864"><ele>149.5</ele><time>2026-05-02T08:02:20.041Z</time></trkpt><trkpt lat="42.3548125" lon="14.0246875"><ele>149.75</ele><time>2026-05-02T08:02:21.04Z</time></trkpt><trkpt lat="42.3548249" lon="14.0244879"><ele>150.0</ele><time>2026-05-02T08:02:22.041Z</time></trkpt><trkpt lat="42.3548394" lon="14.0243021"><ele>150.4</ele><time>2026-05-02T08:02:23.04Z</time></trkpt><trkpt lat="42.3548546" lon="14.0241431"><ele>150.8</ele><time>2026-05-02T08:02:24.041Z</time></trkpt><trkpt lat="42.3548699" lon="14.0240101"><ele>151.2</ele><time>2026-05-02T08:02:25.04Z</time></trkpt><trkpt lat="42.3548775" lon="14.0238916"><ele>151.6</ele><time>2026-05-02T08:02:26.04Z</time></trkpt><trkpt lat="42.3548854" lon="14.0238044"><ele>152.0</ele><time>2026-05-02T08:02:27.04Z</time></trkpt><trkpt lat="42.3548832" lon="14.0236775"><ele>152.0</ele><time>2026-05-02T08:02:29.04Z</time></trkpt><trkpt lat="42.354854" lon="14.0235972"><ele>152.0</ele><time>2026-05-02T08:02:31.04Z</time></trkpt><trkpt lat="42.3547863" lon="14.0236257"><ele>152.0</ele><time>2026-05-02T08:02:34.04Z</time></trkpt><trkpt lat="42.3547273" lon="14.0236817"><ele>152.0</ele><time>2026-05-02T08:02:57.04Z</time></trkpt><trkpt lat="42.3546349" lon="14.0237746"><ele>152.0</ele><time>2026-05-02T08:02:59.04Z</time></trkpt><trkpt lat="42.354577" lon="14.0238466"><ele>152.0</ele><time>2026-05-02T08:03:00.041Z</time></trkpt><trkpt lat="42.3545089" lon="14.0239396"><ele>152.33333333333331</ele><time>2026-05-02T08:03:01.04Z</time></trkpt><trkpt lat="42.3544269" lon="14.0240359"><ele>152.66666666666666</ele><time>2026-05-02T08:03:02.041Z</time></trkpt><trkpt lat="42.3543446" lon="14.0241233"><ele>153.0</ele><time>2026-05-02T08:03:03.04Z</time></trkpt><trkpt lat="42.3542839" lon="14.0241996"><ele>153.33333333333334</ele><time>2026-05-02T08:03:04.04Z</time></trkpt><trkpt lat="42.3542328" lon="14.0242566"><ele>153.66666666666669</ele><time>2026-05-02T08:03:05.04Z</time></trkpt><trkpt lat="42.3541679" lon="14.0243323"><ele>154.0</ele><time>2026-05-02T08:03:07.04Z</time></trkpt><trkpt lat="42.3540864" lon="14.0243287"><ele>154.0</ele><time>2026-05-02T08:03:10.041Z</time></trkpt><trkpt lat="42.3539992" lon="14.0242858"><ele>154.0</ele><time>2026-05-02T08:03:12.04Z</time></trkpt><trkpt lat="42.3538949" lon="14.0242063"><ele>154.0</ele><time>2026-05-02T08:03:14.04Z</time></trkpt><trkpt lat="42.3538392" lon="14.0241649"><ele>154.0</ele><time>2026-05-02T08:03:15.041Z</time></trkpt><trkpt lat="42.3537763" lon="14.0241283"><ele>154.0</ele><time>2026-05-02T08:03:16.04Z</time></trkpt><trkpt lat="42.3537147" lon="14.024103"><ele>154.0</ele><time>2026-05-02T08:03:17.04Z</time></trkpt><trkpt lat="42.3536499" lon="14.024096"><ele>154.66666666666669</ele><time>2026-05-02T08:03:18.04Z</time></trkpt><trkpt lat="42.3535823" lon="14.0240856"><ele>155.33333333333334</ele><time>2026-05-02T08:03:19.04Z</time></trkpt><trkpt lat="42.3535059" lon="14.0240798"><ele>156.0</ele><time>2026-05-02T08:03:20.04Z</time></trkpt><trkpt lat="42.3534197" lon="14.0240771"><ele>156.66666666666666</ele><time>2026-05-02T08:03:21.04Z</time></trkpt><trkpt lat="42.3533251" lon="14.0240646"><ele>157.33333333333331</ele><time>2026-05-02T08:03:22.04Z</time></trkpt><trkpt lat="42.3532289" lon="14.0240491"><ele>158.0</ele><time>2026-05-02T08:03:23.04Z</time></trkpt><trkpt lat="42.3531311" lon="14.0240279"><ele>159.60000000000002</ele><time>2026-05-02T08:03:24.04Z</time></trkpt><trkpt lat="42.3530325" lon="14.0240025"><ele>161.20000000000002</ele><time>2026-05-02T08:03:25.04Z</time></trkpt><trkpt lat="42.3529267" lon="14.0239865"><ele>162.8</ele><time>2026-05-02T08:03:26.041Z</time></trkpt><trkpt lat="42.3528181" lon="14.0239627"><ele>164.4</ele><time>2026-05-02T08:03:27.04Z</time></trkpt><trkpt lat="42.3527101" lon="14.0239469"><ele>166.0</ele><time>2026-05-02T08:03:28.04Z</time></trkpt><trkpt lat="42.3525979" lon="14.0239298"><ele>166.0</ele><time>2026-05-02T08:03:29.04Z</time></trkpt><trkpt lat="42.3524899" lon="14.023912"><ele>166.0</ele><time>2026-05-02T08:03:30.041Z</time></trkpt><trkpt lat="42.352392" lon="14.0238956"><ele>166.0</ele><time>2026-05-02T08:03:31.04Z</time></trkpt><trkpt lat="42.3523007" lon="14.0238871"><ele>166.0</ele><time>2026-05-02T08:03:32.04Z</time></trkpt><trkpt lat="42.3522097" lon="14.0238826"><ele>166.0</ele><time>2026-05-02T08:03:33.041Z</time></trkpt><trkpt lat="42.3521173" lon="14.0238873"><ele>167.4</ele><time>2026-05-02T08:03:34.04Z</time></trkpt><trkpt lat="42.3520259" lon="14.0239064"><ele>168.8</ele><time>2026-05-02T08:03:35.04Z</time></trkpt><trkpt lat="42.3519425" lon="14.0239287"><ele>170.20000000000002</ele><time>2026-05-02T08:03:36.04Z</time></trkpt><trkpt lat="42.3518565" lon="14.0239614"><ele>171.60000000000002</ele><time>2026-05-02T08:03:37.041Z</time></trkpt><trkpt lat="42.3517626" lon="14.0239941"><ele>173.0</ele><time>2026-05-02T08:03:38.04Z</time></trkpt><trkpt lat="42.3516703" lon="14.0240318"><ele>173.0</ele><time>2026-05-02T08:03:39.04Z</time></trkpt><trkpt lat="42.3515865" lon="14.0240628"><ele>173.0</ele><time>2026-05-02T08:03:40.04Z</time></trkpt><trkpt lat="42.3515069" lon="14.024081"><ele>173.0</ele><time>2026-05-02T08:03:41.04Z</time></trkpt><trkpt lat="42.3514282" lon="14.0240734"><ele>173.0</ele><time>2026-05-02T08:03:42.04Z</time></trkpt><trkpt lat="42.351358" lon="14.0240554"><ele>173.0</ele><time>2026-05-02T08:03:43.04Z</time></trkpt><trkpt lat="42.351291" lon="14.0240093"><ele>173.0</ele><time>2026-05-02T08:03:44.041Z</time></trkpt><trkpt lat="42.3512216" lon="14.0239049"><ele>174.60000000000002</ele><time>2026-05-02T08:03:46.04Z</time></trkpt><trkpt lat="42.351201" lon="14.0238099"><ele>176.20000000000002</ele><time>2026-05-02T08:03:48.041Z</time></trkpt><trkpt lat="42.3511652" lon="14.0236404"><ele>177.8</ele><time>2026-05-02T08:03:50.04Z</time></trkpt><trkpt lat="42.3511375" lon="14.023535"><ele>179.4</ele><time>2026-05-02T08:03:51.04Z</time></trkpt><trkpt lat="42.3510976" lon="14.0234227"><ele>181.0</ele><time>2026-05-02T08:03:52.041Z</time></trkpt><trkpt lat="42.3510433" lon="14.0233205"><ele>182.0</ele><time>2026-05-02T08:03:53.04Z</time></trkpt><trkpt lat="42.3509776" lon="14.0232357"><ele>183.0</ele><time>2026-05-02T08:03:54.04Z</time></trkpt><trkpt lat="42.3509076" lon="14.0231648"><ele>184.0</ele><time>2026-05-02T08:03:55.04Z</time></trkpt><trkpt lat="42.3508304" lon="14.023101"><ele>185.0</ele><time>2026-05-02T08:03:56.041Z</time></trkpt><trkpt lat="42.3507652" lon="14.0230134"><ele>186.0</ele><time>2026-05-02T08:03:57.04Z</time></trkpt><trkpt lat="42.350699" lon="14.0229183"><ele>186.0</ele><time>2026-05-02T08:03:58.041Z</time></trkpt><trkpt lat="42.350631" lon="14.022816"><ele>186.0</ele><time>2026-05-02T08:03:59.04Z</time></trkpt><trkpt lat="42.3505569" lon="14.0227151"><ele>186.0</ele><time>2026-05-02T08:04:00.04Z</time></trkpt><trkpt lat="42.3504778" lon="14.022611"><ele>186.0</ele><time>2026-05-02T08:04:01.04Z</time></trkpt><trkpt lat="42.3504103" lon="14.0225059"><ele>186.0</ele><time>2026-05-02T08:04:02.041Z</time></trkpt><trkpt lat="42.3503528" lon="14.0224143"><ele>186.8</ele><time>2026-05-02T08:04:03.041Z</time></trkpt><trkpt lat="42.3502971" lon="14.0223369"><ele>187.60000000000002</ele><time>2026-05-02T08:04:04.04Z</time></trkpt><trkpt lat="42.3502368" lon="14.0222945"><ele>188.4</ele><time>2026-05-02T08:04:05.041Z</time></trkpt><trkpt lat="42.3501703" lon="14.0222832"><ele>189.2</ele><time>2026-05-02T08:04:06.041Z</time></trkpt><trkpt lat="42.3500451" lon="14.022359"><ele>190.0</ele><time>2026-05-02T08:04:08.04Z</time></trkpt><trkpt lat="42.3499543" lon="14.0224252"><ele>190.0</ele><time>2026-05-02T08:04:09.04Z</time></trkpt><trkpt lat="42.3498638" lon="14.0225198"><ele>190.0</ele><time>2026-05-02T08:04:10.04Z</time></trkpt><trkpt lat="42.3497666" lon="14.0226027"><ele>190.0</ele><time>2026-05-02T08:04:11.041Z</time></trkpt><trkpt lat="42.349671" lon="14.022686"><ele>190.0</ele><time>2026-05-02T08:04:12.04Z</time></trkpt><trkpt lat="42.349574" lon="14.0227738"><ele>190.0</ele><time>2026-05-02T08:04:13.04Z</time></trkpt><trkpt lat="42.3494726" lon="14.0228626"><ele>190.0</ele><time>2026-05-02T08:04:14.04Z</time></trkpt><trkpt lat="42.3493704" lon="14.0229569"><ele>190.0</ele><time>2026-05-02T08:04:15.04Z</time></trkpt><trkpt lat="42.3492713" lon="14.0230504"><ele>190.0</ele><time>2026-05-02T08:04:16.04Z</time></trkpt><trkpt lat="42.3491835" lon="14.0231379"><ele>190.0</ele><time>2026-05-02T08:04:17.04Z</time></trkpt><trkpt lat="42.3491064" lon="14.0232128"><ele>190.0</ele><time>2026-05-02T08:04:18.04Z</time></trkpt><trkpt lat="42.3490375" lon="14.0232787"><ele>190.0</ele><time>2026-05-02T08:04:19.041Z</time></trkpt><trkpt lat="42.3489749" lon="14.023319"><ele>190.0</ele><time>2026-05-02T08:04:20.04Z</time></trkpt><trkpt lat="42.3488725" lon="14.0233129"><ele>190.0</ele><time>2026-05-02T08:04:22.04Z</time></trkpt><trkpt lat="42.3488276" lon="14.0231538"><ele>191.0</ele><time>2026-05-02T08:04:23.04Z</time></trkpt><trkpt lat="42.3487304" lon="14.0230025"><ele>192.0</ele><time>2026-05-02T08:04:25.04Z</time></trkpt><trkpt lat="42.3486749" lon="14.0229122"><ele>193.0</ele><time>2026-05-02T08:04:26.041Z</time></trkpt><trkpt lat="42.348618" lon="14.0228144"><ele>194.0</ele><time>2026-05-02T08:04:27.041Z</time></trkpt><trkpt lat="42.3485677" lon="14.0227036"><ele>195.0</ele><time>2026-05-02T08:04:28.04Z</time></trkpt><trkpt lat="42.3485102" lon="14.0226171"><ele>195.0</ele><time>2026-05-02T08:04:29.04Z</time></trkpt><trkpt lat="42.348442" lon="14.0224931"><ele>195.0</ele><time>2026-05-02T08:04:30.04Z</time></trkpt><trkpt lat="42.3483683" lon="14.0223615"><ele>195.0</ele><time>2026-05-02T08:04:31.04Z</time></trkpt><trkpt lat="42.3482854" lon="14.0222203"><ele>195.0</ele><time>2026-05-02T08:04:32.04Z</time></trkpt><trkpt lat="42.348182" lon="14.022061"><ele>195.0</ele><time>2026-05-02T08:04:33.04Z</time></trkpt><trkpt lat="42.3480815" lon="14.0219041"><ele>195.0</ele><time>2026-05-02T08:04:34.04Z</time></trkpt><trkpt lat="42.3479735" lon="14.0217448"><ele>195.0</ele><time>2026-05-02T08:04:35.04Z</time></trkpt><trkpt lat="42.3478663" lon="14.0215972"><ele>195.33333333333331</ele><time>2026-05-02T08:04:36.041Z</time></trkpt><trkpt lat="42.3477605" lon="14.0214563"><ele>195.66666666666666</ele><time>2026-05-02T08:04:37.041Z</time></trkpt><trkpt lat="42.3476472" lon="14.0213149"><ele>196.0</ele><time>2026-05-02T08:04:38.04Z</time></trkpt><trkpt lat="42.3475285" lon="14.0211677"><ele>196.0</ele><time>2026-05-02T08:04:39.04Z</time></trkpt><trkpt lat="42.3474228" lon="14.0210287"><ele>196.0</ele><time>2026-05-02T08:04:40.041Z</time></trkpt><trkpt lat="42.3473178" lon="14.0208667"><ele>196.0</ele><time>2026-05-02T08:04:41.04Z</time></trkpt><trkpt lat="42.3472215" lon="14.0207024"><ele>196.5</ele><time>2026-05-02T08:04:42.041Z</time></trkpt><trkpt lat="42.3471366" lon="14.0205603"><ele>197.0</ele><time>2026-05-02T08:04:43.04Z</time></trkpt><trkpt lat="42.3470627" lon="14.0204221"><ele>197.5</ele><time>2026-05-02T08:04:44.04Z</time></trkpt><trkpt lat="42.3469948" lon="14.0202887"><ele>198.0</ele><time>2026-05-02T08:04:45.04Z</time></trkpt><trkpt lat="42.3469216" lon="14.020154"><ele>198.0</ele><time>2026-05-02T08:04:46.04Z</time></trkpt><trkpt lat="42.346844" lon="14.0200125"><ele>198.0</ele><time>2026-05-02T08:04:47.04Z</time></trkpt><trkpt lat="42.3467718" lon="14.0198515"><ele>198.0</ele><time>2026-05-02T08:04:48.04Z</time></trkpt><trkpt lat="42.3466953" lon="14.0196914"><ele>198.0</ele><time>2026-05-02T08:04:49.04Z</time></trkpt><trkpt lat="42.3466227" lon="14.0195241"><ele>197.66666666666669</ele><time>2026-05-02T08:04:50.041Z</time></trkpt><trkpt lat="42.346547" lon="14.0193452"><ele>197.33333333333334</ele><time>2026-05-02T08:04:51.04Z</time></trkpt><trkpt lat="42.3464635" lon="14.0191686"><ele>197.0</ele><time>2026-05-02T08:04:52.041Z</time></trkpt><trkpt lat="42.3463898" lon="14.0189857"><ele>198.33333333333334</ele><time>2026-05-02T08:04:53.041Z</time></trkpt><trkpt lat="42.3463108" lon="14.0188066"><ele>199.66666666666669</ele><time>2026-05-02T08:04:54.04Z</time></trkpt><trkpt lat="42.3462276" lon="14.0186311"><ele>201.0</ele><time>2026-05-02T08:04:55.04Z</time></trkpt><trkpt lat="42.3461419" lon="14.0184581"><ele>201.66666666666669</ele><time>2026-05-02T08:04:56.04Z</time></trkpt><trkpt lat="42.3460569" lon="14.0182827"><ele>202.33333333333334</ele><time>2026-05-02T08:04:57.04Z</time></trkpt><trkpt lat="42.3459718" lon="14.0181141"><ele>203.0</ele><time>2026-05-02T08:04:58.04Z</time></trkpt><trkpt lat="42.3458846" lon="14.0179485"><ele>203.0</ele><time>2026-05-02T08:04:59.04Z</time></trkpt><trkpt lat="42.3457969" lon="14.0177877"><ele>203.0</ele><time>2026-05-02T08:05:00.041Z</time></trkpt><trkpt lat="42.3457123" lon="14.0176331"><ele>203.0</ele><time>2026-05-02T08:05:01.04Z</time></trkpt><trkpt lat="42.3456289" lon="14.0174779"><ele>203.0</ele><time>2026-05-02T08:05:02.04Z</time></trkpt><trkpt lat="42.3455421" lon="14.0173284"><ele>203.5</ele><time>2026-05-02T08:05:03.04Z</time></trkpt><trkpt lat="42.3454597" lon="14.0171766"><ele>204.0</ele><time>2026-05-02T08:05:04.041Z</time></trkpt><trkpt lat="42.3453836" lon="14.0170397"><ele>204.5</ele><time>2026-05-02T08:05:05.04Z</time></trkpt><trkpt lat="42.3453201" lon="14.0169063"><ele>205.0</ele><time>2026-05-02T08:05:06.04Z</time></trkpt><trkpt lat="42.3452536" lon="14.0167622"><ele>205.4</ele><time>2026-05-02T08:05:07.041Z</time></trkpt><trkpt lat="42.3451913" lon="14.0166178"><ele>205.8</ele><time>2026-05-02T08:05:08.04Z</time></trkpt><trkpt lat="42.3451395" lon="14.0164766"><ele>206.2</ele><time>2026-05-02T08:05:09.04Z</time></trkpt><trkpt lat="42.3450994" lon="14.016353"><ele>206.6</ele><time>2026-05-02T08:05:10.04Z</time></trkpt><trkpt lat="42.3450657" lon="14.0162533"><ele>207.0</ele><time>2026-05-02T08:05:11.041Z</time></trkpt><trkpt lat="42.345021" lon="14.0161872"><ele>207.0</ele><time>2026-05-02T08:05:12.04Z</time></trkpt><trkpt lat="42.3449058" lon="14.0161645"><ele>207.0</ele><time>2026-05-02T08:05:14.04Z</time></trkpt><trkpt lat="42.3448388" lon="14.0161699"><ele>207.0</ele><time>2026-05-02T08:05:15.04Z</time></trkpt><trkpt lat="42.3447493" lon="14.0161907"><ele>207.0</ele><time>2026-05-02T08:05:16.04Z</time></trkpt><trkpt lat="42.3446585" lon="14.01621"><ele>207.0</ele><time>2026-05-02T08:05:17.04Z</time></trkpt><trkpt lat="42.3445561" lon="14.016231"><ele>207.0</ele><time>2026-05-02T08:05:18.04Z</time></trkpt><trkpt lat="42.344448" lon="14.0162528"><ele>207.0</ele><time>2026-05-02T08:05:19.041Z</time></trkpt><trkpt lat="42.3443441" lon="14.0162716"><ele>207.0</ele><time>2026-05-02T08:05:20.04Z</time></trkpt><trkpt lat="42.3442472" lon="14.016288"><ele>207.0</ele><time>2026-05-02T08:05:21.041Z</time></trkpt><trkpt lat="42.3441472" lon="14.0163208"><ele>207.0</ele><time>2026-05-02T08:05:22.04Z</time></trkpt><trkpt lat="42.3440679" lon="14.0163427"><ele>207.0</ele><time>2026-05-02T08:05:23.041Z</time></trkpt><trkpt lat="42.3439897" lon="14.0163603"><ele>207.0</ele><time>2026-05-02T08:05:24.04Z</time></trkpt><trkpt lat="42.3439158" lon="14.0163693"><ele>207.0</ele><time>2026-05-02T08:05:25.04Z</time></trkpt><trkpt lat="42.3438408" lon="14.0163627"><ele>207.0</ele><time>2026-05-02T08:05:26.04Z</time></trkpt><trkpt lat="42.3437652" lon="14.0163456"><ele>207.0</ele><time>2026-05-02T08:05:27.04Z</time></trkpt><trkpt lat="42.3436934" lon="14.0163319"><ele>207.0</ele><time>2026-05-02T08:05:28.04Z</time></trkpt><trkpt lat="42.343613" lon="14.0163185"><ele>206.39999999999998</ele><time>2026-05-02T08:05:29.04Z</time></trkpt><trkpt lat="42.3435246" lon="14.0162984"><ele>205.79999999999998</ele><time>2026-05-02T08:05:30.041Z</time></trkpt><trkpt lat="42.3434321" lon="14.0162699"><ele>205.2</ele><time>2026-05-02T08:05:31.04Z</time></trkpt><trkpt lat="42.3433412" lon="14.0162352"><ele>204.6</ele><time>2026-05-02T08:05:32.04Z</time></trkpt><trkpt lat="42.3432462" lon="14.0162006"><ele>204.0</ele><time>2026-05-02T08:05:33.04Z</time></trkpt><trkpt lat="42.3431492" lon="14.0161631"><ele>204.0</ele><time>2026-05-02T08:05:34.04Z</time></trkpt><trkpt lat="42.3430555" lon="14.0161265"><ele>204.0</ele><time>2026-05-02T08:05:35.04Z</time></trkpt><trkpt lat="42.342968" lon="14.0160979"><ele>204.0</ele><time>2026-05-02T08:05:36.041Z</time></trkpt><trkpt lat="42.3428918" lon="14.0160707"><ele>204.0</ele><time>2026-05-02T08:05:37.041Z</time></trkpt><trkpt lat="42.3428225" lon="14.0160588"><ele>204.0</ele><time>2026-05-02T08:05:38.04Z</time></trkpt><trkpt lat="42.3427572" lon="14.0160896"><ele>204.0</ele><time>2026-05-02T08:05:39.04Z</time></trkpt><trkpt lat="42.3427015" lon="14.0161679"><ele>202.16666666666666</ele><time>2026-05-02T08:05:40.041Z</time></trkpt><trkpt lat="42.3426561" lon="14.0162746"><ele>200.33333333333331</ele><time>2026-05-02T08:05:41.04Z</time></trkpt><trkpt lat="42.3426184" lon="14.0163884"><ele>198.5</ele><time>2026-05-02T08:05:42.04Z</time></trkpt><trkpt lat="42.3425857" lon="14.0165098"><ele>196.66666666666666</ele><time>2026-05-02T08:05:43.04Z</time></trkpt><trkpt lat="42.3425507" lon="14.0166282"><ele>194.83333333333331</ele><time>2026-05-02T08:05:44.04Z</time></trkpt><trkpt lat="42.3425269" lon="14.0167264"><ele>193.0</ele><time>2026-05-02T08:05:45.04Z</time></trkpt><trkpt lat="42.3425091" lon="14.0168835"><ele>192.66666666666666</ele><time>2026-05-02T08:05:47.04Z</time></trkpt><trkpt lat="42.342444" lon="14.0169816"><ele>192.33333333333331</ele><time>2026-05-02T08:05:49.04Z</time></trkpt><trkpt lat="42.3423267" lon="14.0170407"><ele>192.0</ele><time>2026-05-02T08:05:51.041Z</time></trkpt><trkpt lat="42.3422596" lon="14.0170794"><ele>191.66666666666666</ele><time>2026-05-02T08:05:52.04Z</time></trkpt><trkpt lat="42.3421931" lon="14.0171235"><ele>191.33333333333331</ele><time>2026-05-02T08:05:53.04Z</time></trkpt><trkpt lat="42.3421411" lon="14.0171748"><ele>191.0</ele><time>2026-05-02T08:05:54.04Z</time></trkpt><trkpt lat="42.342087" lon="14.0172279"><ele>189.42857142857144</ele><time>2026-05-02T08:05:55.041Z</time></trkpt><trkpt lat="42.3420353" lon="14.0172808"><ele>187.85714285714283</ele><time>2026-05-02T08:05:56.04Z</time></trkpt><trkpt lat="42.3419838" lon="14.0173361"><ele>186.28571428571428</ele><time>2026-05-02T08:05:57.041Z</time></trkpt><trkpt lat="42.3419272" lon="14.0173953"><ele>184.71428571428572</ele><time>2026-05-02T08:05:58.04Z</time></trkpt><trkpt lat="42.3418657" lon="14.0174559"><ele>183.14285714285717</ele><time>2026-05-02T08:05:59.041Z</time></trkpt><trkpt lat="42.341808" lon="14.0175067"><ele>181.57142857142856</ele><time>2026-05-02T08:06:00.04Z</time></trkpt><trkpt lat="42.341724" lon="14.0175708"><ele>180.0</ele><time>2026-05-02T08:06:02.04Z</time></trkpt><trkpt lat="42.3416551" lon="14.0176322"><ele>180.0</ele><time>2026-05-02T08:06:05.04Z</time></trkpt><trkpt lat="42.3416479" lon="14.0175291"><ele>180.0</ele><time>2026-05-02T08:06:55.04Z</time></trkpt><trkpt lat="42.3417489" lon="14.0174919"><ele>180.0</ele><time>2026-05-02T08:06:58.04Z</time></trkpt><trkpt lat="42.3418537" lon="14.017421"><ele>180.0</ele><time>2026-05-02T08:07:00.041Z</time></trkpt><trkpt lat="42.3419476" lon="14.0173134"><ele>180.0</ele><time>2026-05-02T08:07:03.04Z</time></trkpt><trkpt lat="42.3420162" lon="14.017275"><ele>180.0</ele><time>2026-05-02T08:07:05.04Z</time></trkpt><trkpt lat="42.3420829" lon="14.017241"><ele>180.0</ele><time>2026-05-02T08:07:08.041Z</time></trkpt><trkpt lat="42.3420051" lon="14.0172242"><ele>180.0</ele><time>2026-05-02T08:07:11.04Z</time></trkpt><trkpt lat="42.3419179" lon="14.017189"><ele>180.0</ele><time>2026-05-02T08:07:12.04Z</time></trkpt><trkpt lat="42.3418418" lon="14.0171474"><ele>180.0</ele><time>2026-05-02T08:07:13.041Z</time></trkpt><trkpt lat="42.3417649" lon="14.0170954"><ele>180.0</ele><time>2026-05-02T08:07:14.04Z</time></trkpt><trkpt lat="42.3416948" lon="14.0170379"><ele>180.0</ele><time>2026-05-02T08:07:15.04Z</time></trkpt><trkpt lat="42.341622" lon="14.0169781"><ele>180.0</ele><time>2026-05-02T08:07:16.04Z</time></trkpt><trkpt lat="42.3415426" lon="14.0169133"><ele>180.0</ele><time>2026-05-02T08:07:17.04Z</time></trkpt><trkpt lat="42.3414607" lon="14.0168396"><ele>180.0</ele><time>2026-05-02T08:07:18.04Z</time></trkpt><trkpt lat="42.3413846" lon="14.016759"><ele>180.0</ele><time>2026-05-02T08:07:19.04Z</time></trkpt><trkpt lat="42.3413035" lon="14.0166965"><ele>178.75</ele><time>2026-05-02T08:07:20.041Z</time></trkpt><trkpt lat="42.3412122" lon="14.0166064"><ele>177.5</ele><time>2026-05-02T08:07:21.041Z</time></trkpt><trkpt lat="42.3411147" lon="14.0165197"><ele>176.25</ele><time>2026-05-02T08:07:22.04Z</time></trkpt><trkpt lat="42.3410117" lon="14.0164287"><ele>175.0</ele><time>2026-05-02T08:07:23.04Z</time></trkpt><trkpt lat="42.3409013" lon="14.0163401"><ele>175.0</ele><time>2026-05-02T08:07:24.04Z</time></trkpt><trkpt lat="42.3407942" lon="14.0162519"><ele>175.0</ele><time>2026-05-02T08:07:25.04Z</time></trkpt><trkpt lat="42.340689" lon="14.0161603"><ele>175.0</ele><time>2026-05-02T08:07:26.04Z</time></trkpt><trkpt lat="42.3405828" lon="14.0160584"><ele>175.0</ele><time>2026-05-02T08:07:27.041Z</time></trkpt><trkpt lat="42.3404695" lon="14.0159343"><ele>175.0</ele><time>2026-05-02T08:07:28.041Z</time></trkpt><trkpt lat="42.340365" lon="14.0158124"><ele>175.0</ele><time>2026-05-02T08:07:29.04Z</time></trkpt><trkpt lat="42.3408531" lon="14.0158314"><ele>175.83333333333334</ele><time>2026-05-02T08:07:30.04Z</time></trkpt><trkpt lat="42.3407904" lon="14.0157326"><ele>176.66666666666669</ele><time>2026-05-02T08:07:31.041Z</time></trkpt><trkpt lat="42.3407408" lon="14.0156263"><ele>177.5</ele><time>2026-05-02T08:07:32.04Z</time></trkpt><trkpt lat="42.3406991" lon="14.0155326"><ele>178.33333333333334</ele><time>2026-05-02T08:07:33.04Z</time></trkpt><trkpt lat="42.3406661" lon="14.0154315"><ele>179.16666666666666</ele><time>2026-05-02T08:07:34.04Z</time></trkpt><trkpt lat="42.3406313" lon="14.0153414"><ele>180.0</ele><time>2026-05-02T08:07:35.04Z</time></trkpt><trkpt lat="42.3405495" lon="14.0152155"><ele>180.66666666666666</ele><time>2026-05-02T08:07:37.041Z</time></trkpt><trkpt lat="42.3404875" lon="14.0151949"><ele>181.33333333333334</ele><time>2026-05-02T08:07:38.04Z</time></trkpt><trkpt lat="42.3404156" lon="14.0151962"><ele>182.0</ele><time>2026-05-02T08:07:39.04Z</time></trkpt><trkpt lat="42.3403309" lon="14.0152343"><ele>182.66666666666669</ele><time>2026-05-02T08:07:40.041Z</time></trkpt><trkpt lat="42.3402427" lon="14.0152895"><ele>183.33333333333334</ele><time>2026-05-02T08:07:41.04Z</time></trkpt><trkpt lat="42.3401646" lon="14.0153418"><ele>184.0</ele><time>2026-05-02T08:07:42.04Z</time></trkpt><trkpt lat="42.3401" lon="14.0153863"><ele>184.0</ele><time>2026-05-02T08:07:43.04Z</time></trkpt><trkpt lat="42.3400387" lon="14.0154361"><ele>184.0</ele><time>2026-05-02T08:07:44.04Z</time></trkpt><trkpt lat="42.339935" lon="14.0155181"><ele>184.0</ele><time>2026-05-02T08:07:46.041Z</time></trkpt><trkpt lat="42.3398838" lon="14.0155693"><ele>184.0</ele><time>2026-05-02T08:07:47.04Z</time></trkpt><trkpt lat="42.3397868" lon="14.0156499"><ele>184.0</ele><time>2026-05-02T08:07:49.041Z</time></trkpt><trkpt lat="42.339669" lon="14.0156475"><ele>183.2857142857143</ele><time>2026-05-02T08:07:51.041Z</time></trkpt><trkpt lat="42.3395989" lon="14.0156116"><ele>182.57142857142856</ele><time>2026-05-02T08:07:52.04Z</time></trkpt><trkpt lat="42.3395264" lon="14.015566"><ele>181.85714285714286</ele><time>2026-05-02T08:07:53.04Z</time></trkpt><trkpt lat="42.339452" lon="14.0155227"><ele>181.14285714285717</ele><time>2026-05-02T08:07:54.04Z</time></trkpt><trkpt lat="42.339379" lon="14.0154796"><ele>180.42857142857144</ele><time>2026-05-02T08:07:55.04Z</time></trkpt><trkpt lat="42.339325" lon="14.0154228"><ele>179.71428571428572</ele><time>2026-05-02T08:07:56.04Z</time></trkpt><trkpt lat="42.3392856" lon="14.0153525"><ele>179.0</ele><time>2026-05-02T08:07:57.041Z</time></trkpt><trkpt lat="42.3392567" lon="14.0152541"><ele>179.0</ele><time>2026-05-02T08:07:58.04Z</time></trkpt><trkpt lat="42.3392308" lon="14.0151578"><ele>179.0</ele><time>2026-05-02T08:07:59.04Z</time></trkpt><trkpt lat="42.3391838" lon="14.0150578"><ele>179.0</ele><time>2026-05-02T08:08:00.04Z</time></trkpt><trkpt lat="42.3391381" lon="14.0149388"><ele>179.0</ele><time>2026-05-02T08:08:01.04Z</time></trkpt><trkpt lat="42.3390839" lon="14.0148122"><ele>179.0</ele><time>2026-05-02T08:08:02.04Z</time></trkpt><trkpt lat="42.3390392" lon="14.0146902"><ele>178.39999999999998</ele><time>2026-05-02T08:08:03.04Z</time></trkpt><trkpt lat="42.338991" lon="14.0145672"><ele>177.8</ele><time>2026-05-02T08:08:04.04Z</time></trkpt><trkpt lat="42.3389425" lon="14.0144486"><ele>177.2</ele><time>2026-05-02T08:08:05.04Z</time></trkpt><trkpt lat="42.3388927" lon="14.0143341"><ele>176.60000000000002</ele><time>2026-05-02T08:08:06.04Z</time></trkpt><trkpt lat="42.3388449" lon="14.0142261"><ele>176.0</ele><time>2026-05-02T08:08:07.04Z</time></trkpt><trkpt lat="42.3387947" lon="14.0141151"><ele>178.0</ele><time>2026-05-02T08:08:08.04Z</time></trkpt><trkpt lat="42.3387369" lon="14.0139806"><ele>180.0</ele><time>2026-05-02T08:08:09.04Z</time></trkpt><trkpt lat="42.338689" lon="14.0138358"><ele>182.0</ele><time>2026-05-02T08:08:10.041Z</time></trkpt><trkpt lat="42.3386424" lon="14.0136763"><ele>184.0</ele><time>2026-05-02T08:08:11.04Z</time></trkpt><trkpt lat="42.3385937" lon="14.0135312"><ele>184.0</ele><time>2026-05-02T08:08:12.04Z</time></trkpt><trkpt lat="42.3385403" lon="14.0133931"><ele>184.0</ele><time>2026-05-02T08:08:13.04Z</time></trkpt><trkpt lat="42.3384927" lon="14.0132576"><ele>184.0</ele><time>2026-05-02T08:08:14.04Z</time></trkpt><trkpt lat="42.3384483" lon="14.0131304"><ele>184.0</ele><time>2026-05-02T08:08:15.04Z</time></trkpt><trkpt lat="42.3384129" lon="14.0130226"><ele>184.0</ele><time>2026-05-02T08:08:16.04Z</time></trkpt><trkpt lat="42.338384" lon="14.0129295"><ele>185.16666666666669</ele><time>2026-05-02T08:08:17.04Z</time></trkpt><trkpt lat="42.3383612" lon="14.0128489"><ele>186.33333333333334</ele><time>2026-05-02T08:08:18.04Z</time></trkpt><trkpt lat="42.3383527" lon="14.0127374"><ele>187.5</ele><time>2026-05-02T08:08:20.04Z</time></trkpt><trkpt lat="42.338403" lon="14.0126835"><ele>188.66666666666666</ele><time>2026-05-02T08:08:22.04Z</time></trkpt><trkpt lat="42.3385082" lon="14.0126321"><ele>189.83333333333331</ele><time>2026-05-02T08:08:24.04Z</time></trkpt><trkpt lat="42.3385714" lon="14.012596"><ele>191.0</ele><time>2026-05-02T08:08:25.04Z</time></trkpt><trkpt lat="42.3386411" lon="14.0125615"><ele>191.0</ele><time>2026-05-02T08:08:26.04Z</time></trkpt><trkpt lat="42.338711" lon="14.0125114"><ele>191.0</ele><time>2026-05-02T08:08:27.04Z</time></trkpt><trkpt lat="42.338783" lon="14.0124599"><ele>191.0</ele><time>2026-05-02T08:08:28.041Z</time></trkpt><trkpt lat="42.3388598" lon="14.0123848"><ele>191.0</ele><time>2026-05-02T08:08:30.04Z</time></trkpt><trkpt lat="42.3387654" lon="14.0123261"><ele>191.0</ele><time>2026-05-02T08:08:33.041Z</time></trkpt><trkpt lat="42.3386952" lon="14.0123114"><ele>191.0</ele><time>2026-05-02T08:08:34.04Z</time></trkpt><trkpt lat="42.3386039" lon="14.012263"><ele>192.75</ele><time>2026-05-02T08:08:35.041Z</time></trkpt><trkpt lat="42.3385027" lon="14.0121971"><ele>194.5</ele><time>2026-05-02T08:08:36.04Z</time></trkpt><trkpt lat="42.338388" lon="14.0121407"><ele>196.25</ele><time>2026-05-02T08:08:37.041Z</time></trkpt><trkpt lat="42.3382599" lon="14.0120893"><ele>198.0</ele><time>2026-05-02T08:08:38.04Z</time></trkpt><trkpt lat="42.3381254" lon="14.0120461"><ele>195.5</ele><time>2026-05-02T08:08:39.04Z</time></trkpt><trkpt lat="42.3380032" lon="14.0119982"><ele>193.0</ele><time>2026-05-02T08:08:40.04Z</time></trkpt><trkpt lat="42.3378805" lon="14.0119265"><ele>190.5</ele><time>2026-05-02T08:08:41.04Z</time></trkpt><trkpt lat="42.3377677" lon="14.0118477"><ele>188.0</ele><time>2026-05-02T08:08:42.04Z</time></trkpt><trkpt lat="42.3376576" lon="14.0117563"><ele>188.0</ele><time>2026-05-02T08:08:43.04Z</time></trkpt><trkpt lat="42.3375534" lon="14.0116586"><ele>188.0</ele><time>2026-05-02T08:08:44.041Z</time></trkpt><trkpt lat="42.3374553" lon="14.0115519"><ele>188.0</ele><time>2026-05-02T08:08:45.041Z</time></trkpt><trkpt lat="42.3373647" lon="14.0114311"><ele>188.0</ele><time>2026-05-02T08:08:46.04Z</time></trkpt><trkpt lat="42.3372837" lon="14.0113033"><ele>186.60000000000002</ele><time>2026-05-02T08:08:47.04Z</time></trkpt><trkpt lat="42.3372168" lon="14.0111716"><ele>185.20000000000002</ele><time>2026-05-02T08:08:48.04Z</time></trkpt><trkpt lat="42.3371508" lon="14.011058"><ele>183.8</ele><time>2026-05-02T08:08:49.04Z</time></trkpt><trkpt lat="42.3370743" lon="14.0109654"><ele>182.4</ele><time>2026-05-02T08:08:50.04Z</time></trkpt><trkpt lat="42.336992" lon="14.0109125"><ele>181.0</ele><time>2026-05-02T08:08:51.04Z</time></trkpt><trkpt lat="42.3369009" lon="14.0109128"><ele>181.0</ele><time>2026-05-02T08:08:52.041Z</time></trkpt><trkpt lat="42.336812" lon="14.0109515"><ele>181.0</ele><time>2026-05-02T08:08:53.04Z</time></trkpt><trkpt lat="42.3367162" lon="14.0110081"><ele>181.0</ele><time>2026-05-02T08:08:54.04Z</time></trkpt><trkpt lat="42.3366046" lon="14.0110752"><ele>181.0</ele><time>2026-05-02T08:08:55.041Z</time></trkpt><trkpt lat="42.3364924" lon="14.0111472"><ele>181.0</ele><time>2026-05-02T08:08:56.04Z</time></trkpt><trkpt lat="42.3364057" lon="14.0112446"><ele>183.75</ele><time>2026-05-02T08:08:57.04Z</time></trkpt><trkpt lat="42.3363302" lon="14.0113696"><ele>186.5</ele><time>2026-05-02T08:08:58.04Z</time></trkpt><trkpt lat="42.3362681" lon="14.0115131"><ele>189.25</ele><time>2026-05-02T08:08:59.04Z</time></trkpt><trkpt lat="42.3362063" lon="14.0116763"><ele>192.0</ele><time>2026-05-02T08:09:00.04Z</time></trkpt><trkpt lat="42.3361474" lon="14.0118478"><ele>192.5</ele><time>2026-05-02T08:09:01.04Z</time></trkpt><trkpt lat="42.336083" lon="14.0120201"><ele>193.0</ele><time>2026-05-02T08:09:02.041Z</time></trkpt><trkpt lat="42.3360303" lon="14.0121928"><ele>193.5</ele><time>2026-05-02T08:09:03.04Z</time></trkpt><trkpt lat="42.3360102" lon="14.0123702"><ele>194.0</ele><time>2026-05-02T08:09:04.04Z</time></trkpt><trkpt lat="42.3360178" lon="14.0125642"><ele>195.66666666666669</ele><time>2026-05-02T08:09:05.04Z</time></trkpt><trkpt lat="42.3360265" lon="14.0127635"><ele>197.33333333333331</ele><time>2026-05-02T08:09:06.041Z</time></trkpt><trkpt lat="42.3360363" lon="14.0129724"><ele>199.0</ele><time>2026-05-02T08:09:07.041Z</time></trkpt><trkpt lat="42.3360401" lon="14.0131815"><ele>200.0</ele><time>2026-05-02T08:09:08.04Z</time></trkpt><trkpt lat="42.3360472" lon="14.0133886"><ele>201.0</ele><time>2026-05-02T08:09:09.04Z</time></trkpt><trkpt lat="42.3360497" lon="14.01359"><ele>202.0</ele><time>2026-05-02T08:09:10.04Z</time></trkpt><trkpt lat="42.3360574" lon="14.0137629"><ele>203.0</ele><time>2026-05-02T08:09:11.04Z</time></trkpt><trkpt lat="42.3360599" lon="14.0139234"><ele>203.0</ele><time>2026-05-02T08:09:12.041Z</time></trkpt><trkpt lat="42.3360616" lon="14.0140725"><ele>203.0</ele><time>2026-05-02T08:09:13.04Z</time></trkpt><trkpt lat="42.336055" lon="14.0142357"><ele>203.0</ele><time>2026-05-02T08:09:14.041Z</time></trkpt><trkpt lat="42.3360505" lon="14.0143904"><ele>203.0</ele><time>2026-05-02T08:09:15.04Z</time></trkpt><trkpt lat="42.3360627" lon="14.0145412"><ele>203.16666666666669</ele><time>2026-05-02T08:09:16.041Z</time></trkpt><trkpt lat="42.3360888" lon="14.0146823"><ele>203.33333333333334</ele><time>2026-05-02T08:09:17.04Z</time></trkpt><trkpt lat="42.3361285" lon="14.0147988"><ele>203.5</ele><time>2026-05-02T08:09:18.04Z</time></trkpt><trkpt lat="42.3361717" lon="14.0148932"><ele>203.66666666666669</ele><time>2026-05-02T08:09:19.04Z</time></trkpt><trkpt lat="42.3361886" lon="14.0149802"><ele>203.83333333333334</ele><time>2026-05-02T08:09:20.04Z</time></trkpt><trkpt lat="42.3361746" lon="14.0150716"><ele>204.0</ele><time>2026-05-02T08:09:21.041Z</time></trkpt><trkpt lat="42.3361235" lon="14.0151324"><ele>204.0</ele><time>2026-05-02T08:09:22.04Z</time></trkpt><trkpt lat="42.3360528" lon="14.0151369"><ele>204.0</ele><time>2026-05-02T08:09:23.04Z</time></trkpt><trkpt lat="42.335984" lon="14.0150899"><ele>204.0</ele><time>2026-05-02T08:09:24.041Z</time></trkpt><trkpt lat="42.3359226" lon="14.015029"><ele>204.0</ele><time>2026-05-02T08:09:25.04Z</time></trkpt><trkpt lat="42.3358686" lon="14.0149793"><ele>204.0</ele><time>2026-05-02T08:09:26.041Z</time></trkpt><trkpt lat="42.3357822" lon="14.0148622"><ele>204.0</ele><time>2026-05-02T08:09:28.04Z</time></trkpt><trkpt lat="42.3357046" lon="14.0147299"><ele>204.0</ele><time>2026-05-02T08:09:30.041Z</time></trkpt><trkpt lat="42.3356509" lon="14.0146678"><ele>204.0</ele><time>2026-05-02T08:09:31.04Z</time></trkpt><trkpt lat="42.3355928" lon="14.0146193"><ele>204.0</ele><time>2026-05-02T08:09:32.04Z</time></trkpt><trkpt lat="42.3355064" lon="14.0145873"><ele>204.0</ele><time>2026-05-02T08:09:33.041Z</time></trkpt><trkpt lat="42.3354087" lon="14.0145719"><ele>204.0</ele><time>2026-05-02T08:09:34.04Z</time></trkpt><trkpt lat="42.335295" lon="14.014572"><ele>204.0</ele><time>2026-05-02T08:09:35.04Z</time></trkpt><trkpt lat="42.3351662" lon="14.0145554"><ele>204.75</ele><time>2026-05-02T08:09:36.04Z</time></trkpt><trkpt lat="42.3350237" lon="14.0145338"><ele>205.5</ele><time>2026-05-02T08:09:37.04Z</time></trkpt><trkpt lat="42.3348767" lon="14.0145123"><ele>206.25</ele><time>2026-05-02T08:09:38.041Z</time></trkpt><trkpt lat="42.3347316" lon="14.0144862"><ele>207.0</ele><time>2026-05-02T08:09:39.041Z</time></trkpt><trkpt lat="42.3345853" lon="14.0144689"><ele>205.25</ele><time>2026-05-02T08:09:40.04Z</time></trkpt><trkpt lat="42.3344403" lon="14.014451"><ele>203.5</ele><time>2026-05-02T08:09:41.04Z</time></trkpt><trkpt lat="42.3343005" lon="14.0144428"><ele>201.75</ele><time>2026-05-02T08:09:42.04Z</time></trkpt><trkpt lat="42.3341651" lon="14.0144228"><ele>200.0</ele><time>2026-05-02T08:09:43.041Z</time></trkpt><trkpt lat="42.3340246" lon="14.0144019"><ele>200.0</ele><time>2026-05-02T08:09:44.04Z</time></trkpt><trkpt lat="42.3338909" lon="14.0143761"><ele>200.0</ele><time>2026-05-02T08:09:45.04Z</time></trkpt><trkpt lat="42.3337812" lon="14.0143672"><ele>200.0</ele><time>2026-05-02T08:09:46.04Z</time></trkpt><trkpt lat="42.3336946" lon="14.0143452"><ele>200.0</ele><time>2026-05-02T08:09:47.04Z</time></trkpt><trkpt lat="42.3336219" lon="14.0143194"><ele>200.0</ele><time>2026-05-02T08:09:48.04Z</time></trkpt><trkpt lat="42.3335487" lon="14.0142951"><ele>199.33333333333334</ele><time>2026-05-02T08:09:49.04Z</time></trkpt><trkpt lat="42.3334665" lon="14.0142666"><ele>198.66666666666669</ele><time>2026-05-02T08:09:50.04Z</time></trkpt><trkpt lat="42.3333728" lon="14.0142434"><ele>198.0</ele><time>2026-05-02T08:09:51.04Z</time></trkpt><trkpt lat="42.3332755" lon="14.0142242"><ele>197.33333333333331</ele><time>2026-05-02T08:09:52.04Z</time></trkpt><trkpt lat="42.3331893" lon="14.0142104"><ele>196.66666666666666</ele><time>2026-05-02T08:09:53.04Z</time></trkpt><trkpt lat="42.3331193" lon="14.0142026"><ele>196.0</ele><time>2026-05-02T08:09:54.04Z</time></trkpt><trkpt lat="42.3330474" lon="14.0141866"><ele>195.49999999999997</ele><time>2026-05-02T08:09:55.04Z</time></trkpt><trkpt lat="42.3329691" lon="14.0141772"><ele>195.0</ele><time>2026-05-02T08:09:56.041Z</time></trkpt><trkpt lat="42.3328968" lon="14.0141645"><ele>194.5</ele><time>2026-05-02T08:09:57.04Z</time></trkpt><trkpt lat="42.332828" lon="14.0141508"><ele>194.0</ele><time>2026-05-02T08:09:58.04Z</time></trkpt><trkpt lat="42.3327624" lon="14.0141429"><ele>193.49999999999997</ele><time>2026-05-02T08:09:59.041Z</time></trkpt><trkpt lat="42.3326955" lon="14.0141308"><ele>193.0</ele><time>2026-05-02T08:10:00.04Z</time></trkpt><trkpt lat="42.332582" lon="14.0140834"><ele>192.16666666666666</ele><time>2026-05-02T08:10:02.04Z</time></trkpt><trkpt lat="42.3325274" lon="14.014029"><ele>191.33333333333331</ele><time>2026-05-02T08:10:03.04Z</time></trkpt><trkpt lat="42.3324732" lon="14.0139447"><ele>190.5</ele><time>2026-05-02T08:10:04.041Z</time></trkpt><trkpt lat="42.3324185" lon="14.0138555"><ele>189.66666666666666</ele><time>2026-05-02T08:10:05.04Z</time></trkpt><trkpt lat="42.3323646" lon="14.013768"><ele>188.83333333333331</ele><time>2026-05-02T08:10:06.04Z</time></trkpt><trkpt lat="42.332308" lon="14.0136817"><ele>188.0</ele><time>2026-05-02T08:10:07.041Z</time></trkpt><trkpt lat="42.3322492" lon="14.0135949"><ele>187.0</ele><time>2026-05-02T08:10:08.04Z</time></trkpt><trkpt lat="42.33219" lon="14.0135131"><ele>186.0</ele><time>2026-05-02T08:10:09.04Z</time></trkpt><trkpt lat="42.3321247" lon="14.013438"><ele>185.0</ele><time>2026-05-02T08:10:10.041Z</time></trkpt><trkpt lat="42.3320581" lon="14.0133634"><ele>184.0</ele><time>2026-05-02T08:10:11.04Z</time></trkpt><trkpt lat="42.3319981" lon="14.013282"><ele>183.0</ele><time>2026-05-02T08:10:12.04Z</time></trkpt><trkpt lat="42.3319321" lon="14.0131875"><ele>182.0</ele><time>2026-05-02T08:10:13.04Z</time></trkpt><trkpt lat="42.3318666" lon="14.013095"><ele>182.0</ele><time>2026-05-02T08:10:14.04Z</time></trkpt><trkpt lat="42.3318037" lon="14.0130118"><ele>182.0</ele><time>2026-05-02T08:10:15.04Z</time></trkpt><trkpt lat="42.3317358" lon="14.0129312"><ele>182.0</ele><time>2026-05-02T08:10:16.04Z</time></trkpt><trkpt lat="42.3316581" lon="14.012849"><ele>182.0</ele><time>2026-05-02T08:10:17.04Z</time></trkpt><trkpt lat="42.3315776" lon="14.012764"><ele>182.0</ele><time>2026-05-02T08:10:18.041Z</time></trkpt><trkpt lat="42.3314871" lon="14.012681"><ele>182.0</ele><time>2026-05-02T08:10:19.04Z</time></trkpt><trkpt lat="42.3313985" lon="14.012603"><ele>182.0</ele><time>2026-05-02T08:10:20.04Z</time></trkpt><trkpt lat="42.3313175" lon="14.0125309"><ele>182.0</ele><time>2026-05-02T08:10:21.04Z</time></trkpt><trkpt lat="42.3312379" lon="14.0124627"><ele>182.0</ele><time>2026-05-02T08:10:22.04Z</time></trkpt><trkpt lat="42.3311553" lon="14.0123961"><ele>182.0</ele><time>2026-05-02T08:10:23.04Z</time></trkpt><trkpt lat="42.331074" lon="14.0123232"><ele>180.6</ele><time>2026-05-02T08:10:24.041Z</time></trkpt><trkpt lat="42.3310021" lon="14.0122425"><ele>179.2</ele><time>2026-05-02T08:10:25.04Z</time></trkpt><trkpt lat="42.3309305" lon="14.0121642"><ele>177.8</ele><time>2026-05-02T08:10:26.04Z</time></trkpt><trkpt lat="42.3308558" lon="14.0120874"><ele>176.4</ele><time>2026-05-02T08:10:27.041Z</time></trkpt><trkpt lat="42.3307805" lon="14.0120036"><ele>175.0</ele><time>2026-05-02T08:10:28.04Z</time></trkpt><trkpt lat="42.3307083" lon="14.0119166"><ele>175.0</ele><time>2026-05-02T08:10:29.04Z</time></trkpt><trkpt lat="42.3306387" lon="14.0118351"><ele>175.0</ele><time>2026-05-02T08:10:30.04Z</time></trkpt><trkpt lat="42.3305684" lon="14.0117599"><ele>175.0</ele><time>2026-05-02T08:10:31.04Z</time></trkpt><trkpt lat="42.3304925" lon="14.0116831"><ele>175.0</ele><time>2026-05-02T08:10:32.041Z</time></trkpt><trkpt lat="42.3304183" lon="14.011602"><ele>175.0</ele><time>2026-05-02T08:10:33.04Z</time></trkpt><trkpt lat="42.3303516" lon="14.0115226"><ele>173.16666666666669</ele><time>2026-05-02T08:10:34.04Z</time></trkpt><trkpt lat="42.3302861" lon="14.0114452"><ele>171.33333333333334</ele><time>2026-05-02T08:10:35.04Z</time></trkpt><trkpt lat="42.3302224" lon="14.01136"><ele>169.5</ele><time>2026-05-02T08:10:36.04Z</time></trkpt><trkpt lat="42.3301582" lon="14.0112793"><ele>167.66666666666666</ele><time>2026-05-02T08:10:37.04Z</time></trkpt><trkpt lat="42.3300965" lon="14.0111975"><ele>165.83333333333331</ele><time>2026-05-02T08:10:38.04Z</time></trkpt><trkpt lat="42.3300407" lon="14.0111129"><ele>164.0</ele><time>2026-05-02T08:10:39.04Z</time></trkpt><trkpt lat="42.3299893" lon="14.0110314"><ele>164.0</ele><time>2026-05-02T08:10:40.04Z</time></trkpt><trkpt lat="42.3299326" lon="14.0109436"><ele>164.0</ele><time>2026-05-02T08:10:41.04Z</time></trkpt><trkpt lat="42.3298802" lon="14.0108523"><ele>164.0</ele><time>2026-05-02T08:10:42.04Z</time></trkpt><trkpt lat="42.3298314" lon="14.0107664"><ele>164.0</ele><time>2026-05-02T08:10:43.04Z</time></trkpt><trkpt lat="42.3297673" lon="14.0106974"><ele>164.0</ele><time>2026-05-02T08:10:44.04Z</time></trkpt><trkpt lat="42.3296994" lon="14.0106423"><ele>164.0</ele><time>2026-05-02T08:10:45.041Z</time></trkpt><trkpt lat="42.3296282" lon="14.0105893"><ele>162.33333333333331</ele><time>2026-05-02T08:10:46.04Z</time></trkpt><trkpt lat="42.3295498" lon="14.0105364"><ele>160.66666666666666</ele><time>2026-05-02T08:10:47.041Z</time></trkpt><trkpt lat="42.3294764" lon="14.0104777"><ele>159.0</ele><time>2026-05-02T08:10:48.04Z</time></trkpt><trkpt lat="42.3294011" lon="14.0104232"><ele>157.33333333333334</ele><time>2026-05-02T08:10:49.041Z</time></trkpt><trkpt lat="42.3293283" lon="14.0103669"><ele>155.66666666666669</ele><time>2026-05-02T08:10:50.04Z</time></trkpt><trkpt lat="42.3292545" lon="14.0103157"><ele>154.0</ele><time>2026-05-02T08:10:51.04Z</time></trkpt><trkpt lat="42.329178" lon="14.0102564"><ele>154.0</ele><time>2026-05-02T08:10:52.04Z</time></trkpt><trkpt lat="42.3291027" lon="14.0102023"><ele>154.0</ele><time>2026-05-02T08:10:53.04Z</time></trkpt><trkpt lat="42.3290232" lon="14.0101462"><ele>154.0</ele><time>2026-05-02T08:10:54.04Z</time></trkpt><trkpt lat="42.3289447" lon="14.0100866"><ele>154.0</ele><time>2026-05-02T08:10:55.04Z</time></trkpt><trkpt lat="42.328862" lon="14.0100212"><ele>154.0</ele><time>2026-05-02T08:10:56.04Z</time></trkpt><trkpt lat="42.3287771" lon="14.0099647"><ele>153.0</ele><time>2026-05-02T08:10:57.041Z</time></trkpt><trkpt lat="42.328697" lon="14.0099058"><ele>152.0</ele><time>2026-05-02T08:10:58.04Z</time></trkpt><trkpt lat="42.328623" lon="14.0098487"><ele>151.0</ele><time>2026-05-02T08:10:59.04Z</time></trkpt><trkpt lat="42.3285549" lon="14.0097927"><ele>150.0</ele><time>2026-05-02T08:11:00.041Z</time></trkpt><trkpt lat="42.3284816" lon="14.0097305"><ele>149.0</ele><time>2026-05-02T08:11:01.041Z</time></trkpt><trkpt lat="42.3284048" lon="14.009684"><ele>148.0</ele><time>2026-05-02T08:11:02.04Z</time></trkpt><trkpt lat="42.3283246" lon="14.0096471"><ele>148.0</ele><time>2026-05-02T08:11:03.04Z</time></trkpt><trkpt lat="42.3282396" lon="14.0096283"><ele>148.0</ele><time>2026-05-02T08:11:04.04Z</time></trkpt><trkpt lat="42.328155" lon="14.009618"><ele>148.0</ele><time>2026-05-02T08:11:05.04Z</time></trkpt><trkpt lat="42.3280716" lon="14.0096109"><ele>148.0</ele><time>2026-05-02T08:11:06.04Z</time></trkpt><trkpt lat="42.3279892" lon="14.0096136"><ele>148.0</ele><time>2026-05-02T08:11:07.04Z</time></trkpt><trkpt lat="42.3279149" lon="14.0096145"><ele>148.0</ele><time>2026-05-02T08:11:08.04Z</time></trkpt><trkpt lat="42.3278498" lon="14.0096203"><ele>147.4</ele><time>2026-05-02T08:11:09.04Z</time></trkpt><trkpt lat="42.3277553" lon="14.0096057"><ele>146.8</ele><time>2026-05-02T08:11:11.04Z</time></trkpt><trkpt lat="42.327701" lon="14.0095369"><ele>146.2</ele><time>2026-05-02T08:11:13.041Z</time></trkpt><trkpt lat="42.3276738" lon="14.009415"><ele>145.6</ele><time>2026-05-02T08:11:15.04Z</time></trkpt><trkpt lat="42.3276461" lon="14.0092505"><ele>145.0</ele><time>2026-05-02T08:11:17.04Z</time></trkpt><trkpt lat="42.3276244" lon="14.0091619"><ele>145.66666666666669</ele><time>2026-05-02T08:11:18.041Z</time></trkpt><trkpt lat="42.3276012" lon="14.0090641"><ele>146.33333333333334</ele><time>2026-05-02T08:11:19.04Z</time></trkpt><trkpt lat="42.3275751" lon="14.008965"><ele>147.0</ele><time>2026-05-02T08:11:20.041Z</time></trkpt><trkpt lat="42.3275461" lon="14.008865"><ele>147.66666666666666</ele><time>2026-05-02T08:11:21.04Z</time></trkpt><trkpt lat="42.327521" lon="14.0087666"><ele>148.33333333333331</ele><time>2026-05-02T08:11:22.041Z</time></trkpt><trkpt lat="42.3274971" lon="14.0086777"><ele>149.0</ele><time>2026-05-02T08:11:23.041Z</time></trkpt><trkpt lat="42.3274611" lon="14.0085288"><ele>149.0</ele><time>2026-05-02T08:11:25.04Z</time></trkpt><trkpt lat="42.3274457" lon="14.0084017"><ele>149.0</ele><time>2026-05-02T08:11:27.04Z</time></trkpt><trkpt lat="42.3274496" lon="14.0083016"><ele>149.0</ele><time>2026-05-02T08:11:29.04Z</time></trkpt><trkpt lat="42.3274803" lon="14.0081934"><ele>149.0</ele><time>2026-05-02T08:11:31.041Z</time></trkpt><trkpt lat="42.3275381" lon="14.0080641"><ele>149.0</ele><time>2026-05-02T08:11:33.041Z</time></trkpt><trkpt lat="42.3275766" lon="14.0079879"><ele>149.0</ele><time>2026-05-02T08:11:34.04Z</time></trkpt><trkpt lat="42.3276195" lon="14.007912"><ele>150.14285714285714</ele><time>2026-05-02T08:11:35.041Z</time></trkpt><trkpt lat="42.3276718" lon="14.0078347"><ele>151.28571428571428</ele><time>2026-05-02T08:11:36.04Z</time></trkpt><trkpt lat="42.3277302" lon="14.0077611"><ele>152.42857142857142</ele><time>2026-05-02T08:11:37.041Z</time></trkpt><trkpt lat="42.3277877" lon="14.0076913"><ele>153.57142857142856</ele><time>2026-05-02T08:11:38.04Z</time></trkpt><trkpt lat="42.3278463" lon="14.0076344"><ele>154.71428571428572</ele><time>2026-05-02T08:11:39.041Z</time></trkpt><trkpt lat="42.3279037" lon="14.0075811"><ele>155.85714285714283</ele><time>2026-05-02T08:11:40.04Z</time></trkpt><trkpt lat="42.3279567" lon="14.0075209"><ele>157.0</ele><time>2026-05-02T08:11:41.04Z</time></trkpt><trkpt lat="42.3280026" lon="14.0074515"><ele>158.33333333333334</ele><time>2026-05-02T08:11:42.04Z</time></trkpt><trkpt lat="42.3280488" lon="14.0073808"><ele>159.66666666666669</ele><time>2026-05-02T08:11:43.04Z</time></trkpt><trkpt lat="42.3281015" lon="14.007313"><ele>161.0</ele><time>2026-05-02T08:11:44.04Z</time></trkpt><trkpt lat="42.328166" lon="14.0072514"><ele>162.33333333333334</ele><time>2026-05-02T08:11:45.04Z</time></trkpt><trkpt lat="42.3282287" lon="14.0071974"><ele>163.66666666666666</ele><time>2026-05-02T08:11:46.04Z</time></trkpt><trkpt lat="42.3283029" lon="14.0071496"><ele>165.0</ele><time>2026-05-02T08:11:47.041Z</time></trkpt><trkpt lat="42.3283832" lon="14.007108"><ele>165.0</ele><time>2026-05-02T08:11:48.041Z</time></trkpt><trkpt lat="42.3284671" lon="14.0070654"><ele>165.0</ele><time>2026-05-02T08:11:49.04Z</time></trkpt><trkpt lat="42.328544" lon="14.007024"><ele>165.0</ele><time>2026-05-02T08:11:50.041Z</time></trkpt><trkpt lat="42.32862" lon="14.0069802"><ele>165.0</ele><time>2026-05-02T08:11:51.04Z</time></trkpt><trkpt lat="42.3287003" lon="14.0069292"><ele>165.0</ele><time>2026-05-02T08:11:52.04Z</time></trkpt><trkpt lat="42.3287747" lon="14.0068759"><ele>165.0</ele><time>2026-05-02T08:11:53.04Z</time></trkpt><trkpt lat="42.3288417" lon="14.0068194"><ele>165.4</ele><time>2026-05-02T08:11:54.04Z</time></trkpt><trkpt lat="42.3288963" lon="14.0067721"><ele>165.8</ele><time>2026-05-02T08:11:55.04Z</time></trkpt><trkpt lat="42.3289959" lon="14.006689"><ele>166.2</ele><time>2026-05-02T08:11:57.04Z</time></trkpt><trkpt lat="42.329108" lon="14.0066221"><ele>166.6</ele><time>2026-05-02T08:11:59.04Z</time></trkpt><trkpt lat="42.3292034" lon="14.0065428"><ele>167.0</ele><time>2026-05-02T08:12:01.04Z</time></trkpt><trkpt lat="42.3292746" lon="14.0065151"><ele>167.0</ele><time>2026-05-02T08:12:04.04Z</time></trkpt><trkpt lat="42.3293032" lon="14.0064305"><ele>167.0</ele><time>2026-05-02T08:12:09.04Z</time></trkpt><trkpt lat="42.3293578" lon="14.0063273"><ele>167.0</ele><time>2026-05-02T08:12:12.04Z</time></trkpt><trkpt lat="42.3294494" lon="14.0062854"><ele>167.0</ele><time>2026-05-02T08:12:14.04Z</time></trkpt><trkpt lat="42.3295548" lon="14.0062338"><ele>167.0</ele><time>2026-05-02T08:12:16.04Z</time></trkpt><trkpt lat="42.3296575" lon="14.0061812"><ele>169.16666666666666</ele><time>2026-05-02T08:12:18.04Z</time></trkpt><trkpt lat="42.3297443" lon="14.0061378"><ele>171.33333333333331</ele><time>2026-05-02T08:12:20.04Z</time></trkpt><trkpt lat="42.3298339" lon="14.0060835"><ele>173.5</ele><time>2026-05-02T08:12:22.04Z</time></trkpt><trkpt lat="42.329922" lon="14.0060422"><ele>175.66666666666666</ele><time>2026-05-02T08:12:24.04Z</time></trkpt><trkpt lat="42.3299892" lon="14.0060158"><ele>177.83333333333334</ele><time>2026-05-02T08:12:26.04Z</time></trkpt><trkpt lat="42.330068" lon="14.0059628"><ele>180.0</ele><time>2026-05-02T08:12:28.04Z</time></trkpt><trkpt lat="42.3301561" lon="14.005914"><ele>180.0</ele><time>2026-05-02T08:12:30.04Z</time></trkpt><trkpt lat="42.330251" lon="14.0058635"><ele>180.0</ele><time>2026-05-02T08:12:32.04Z</time></trkpt><trkpt lat="42.3303354" lon="14.0058258"><ele>180.0</ele><time>2026-05-02T08:12:34.04Z</time></trkpt><trkpt lat="42.3303953" lon="14.0057674"><ele>180.0</ele><time>2026-05-02T08:12:36.04Z</time></trkpt><trkpt lat="42.3304669" lon="14.005689"><ele>180.0</ele><time>2026-05-02T08:12:38.041Z</time></trkpt><trkpt lat="42.3305303" lon="14.0056218"><ele>180.0</ele><time>2026-05-02T08:12:40.041Z</time></trkpt><trkpt lat="42.3305884" lon="14.0055445"><ele>184.6</ele><time>2026-05-02T08:12:42.04Z</time></trkpt><trkpt lat="42.3306649" lon="14.005454"><ele>189.2</ele><time>2026-05-02T08:12:44.04Z</time></trkpt><trkpt lat="42.3307385" lon="14.0053628"><ele>193.8</ele><time>2026-05-02T08:12:46.04Z</time></trkpt><trkpt lat="42.3308098" lon="14.0052751"><ele>198.4</ele><time>2026-05-02T08:12:48.04Z</time></trkpt><trkpt lat="42.3308913" lon="14.0051841"><ele>203.0</ele><time>2026-05-02T08:12:50.04Z</time></trkpt><trkpt lat="42.3309699" lon="14.0050871"><ele>203.0</ele><time>2026-05-02T08:12:52.04Z</time></trkpt><trkpt lat="42.3310355" lon="14.0049989"><ele>203.0</ele><time>2026-05-02T08:12:54.04Z</time></trkpt><trkpt lat="42.331091" lon="14.0048908"><ele>203.0</ele><time>2026-05-02T08:12:56.04Z</time></trkpt><trkpt lat="42.3311291" lon="14.0047649"><ele>203.0</ele><time>2026-05-02T08:12:58.04Z</time></trkpt><trkpt lat="42.3311656" lon="14.0046442"><ele>203.0</ele><time>2026-05-02T08:13:00.04Z</time></trkpt><trkpt lat="42.3311838" lon="14.0045007"><ele>204.4</ele><time>2026-05-02T08:13:02.04Z</time></trkpt><trkpt lat="42.3311793" lon="14.0043622"><ele>205.8</ele><time>2026-05-02T08:13:04.04Z</time></trkpt><trkpt lat="42.3311607" lon="14.004221"><ele>207.2</ele><time>2026-05-02T08:13:06.04Z</time></trkpt><trkpt lat="42.3311407" lon="14.0040988"><ele>208.6</ele><time>2026-05-02T08:13:08.041Z</time></trkpt><trkpt lat="42.3311045" lon="14.0040046"><ele>210.0</ele><time>2026-05-02T08:13:10.04Z</time></trkpt><trkpt lat="42.3310714" lon="14.0039146"><ele>210.85714285714286</ele><time>2026-05-02T08:13:12.04Z</time></trkpt><trkpt lat="42.3310011" lon="14.0039074"><ele>211.71428571428572</ele><time>2026-05-02T08:13:16.04Z</time></trkpt><trkpt lat="42.3309667" lon="14.0040003"><ele>212.57142857142856</ele><time>2026-05-02T08:13:19.04Z</time></trkpt><trkpt lat="42.3309196" lon="14.0040757"><ele>213.42857142857144</ele><time>2026-05-02T08:13:22.04Z</time></trkpt><trkpt lat="42.3308577" lon="14.004106"><ele>214.28571428571428</ele><time>2026-05-02T08:13:26.04Z</time></trkpt><trkpt lat="42.3307848" lon="14.0041143"><ele>215.14285714285714</ele><time>2026-05-02T08:13:30.04Z</time></trkpt><trkpt lat="42.3307052" lon="14.0040979"><ele>216.0</ele><time>2026-05-02T08:13:33.04Z</time></trkpt><trkpt lat="42.3306266" lon="14.0040921"><ele>212.66666666666666</ele><time>2026-05-02T08:13:36.041Z</time></trkpt><trkpt lat="42.330532" lon="14.0040821"><ele>209.33333333333331</ele><time>2026-05-02T08:13:39.041Z</time></trkpt><trkpt lat="42.3304478" lon="14.0040837"><ele>206.0</ele><time>2026-05-02T08:13:42.04Z</time></trkpt><trkpt lat="42.3303656" lon="14.0041126"><ele>202.66666666666666</ele><time>2026-05-02T08:13:45.04Z</time></trkpt><trkpt lat="42.3302959" lon="14.0041503"><ele>199.33333333333331</ele><time>2026-05-02T08:13:48.04Z</time></trkpt><trkpt lat="42.330213" lon="14.004198"><ele>196.0</ele><time>2026-05-02T08:13:51.04Z</time></trkpt><trkpt lat="42.3301341" lon="14.0042499"><ele>194.99999999999997</ele><time>2026-05-02T08:13:54.04Z</time></trkpt><trkpt lat="42.3300438" lon="14.0043073"><ele>194.0</ele><time>2026-05-02T08:13:57.04Z</time></trkpt><trkpt lat="42.3299797" lon="14.0043619"><ele>193.0</ele><time>2026-05-02T08:13:59.04Z</time></trkpt><trkpt lat="42.3299098" lon="14.0043986"><ele>192.0</ele><time>2026-05-02T08:14:01.041Z</time></trkpt><trkpt lat="42.3298425" lon="14.0044381"><ele>191.0</ele><time>2026-05-02T08:14:03.04Z</time></trkpt><trkpt lat="42.3297714" lon="14.0044725"><ele>190.0</ele><time>2026-05-02T08:14:05.04Z</time></trkpt><trkpt lat="42.3296978" lon="14.0045033"><ele>186.83333333333334</ele><time>2026-05-02T08:14:07.04Z</time></trkpt><trkpt lat="42.3296158" lon="14.0045199"><ele>183.66666666666669</ele><time>2026-05-02T08:14:10.04Z</time></trkpt><trkpt lat="42.3295155" lon="14.0045344"><ele>180.5</ele><time>2026-05-02T08:14:13.04Z</time></trkpt><trkpt lat="42.3294421" lon="14.0045451"><ele>177.33333333333334</ele><time>2026-05-02T08:14:15.04Z</time></trkpt><trkpt lat="42.3293575" lon="14.0045219"><ele>174.16666666666666</ele><time>2026-05-02T08:14:18.041Z</time></trkpt><trkpt lat="42.3292827" lon="14.0044965"><ele>171.0</ele><time>2026-05-02T08:14:21.04Z</time></trkpt><trkpt lat="42.3291995" lon="14.0044529"><ele>171.0</ele><time>2026-05-02T08:14:24.04Z</time></trkpt><trkpt lat="42.3291216" lon="14.0044005"><ele>171.0</ele><time>2026-05-02T08:14:27.04Z</time></trkpt><trkpt lat="42.3290404" lon="14.0043428"><ele>171.0</ele><time>2026-05-02T08:14:30.04Z</time></trkpt><trkpt lat="42.3289584" lon="14.0042904"><ele>171.0</ele><time>2026-05-02T08:14:33.04Z</time></trkpt><trkpt lat="42.3288766" lon="14.0042371"><ele>171.0</ele><time>2026-05-02T08:14:36.041Z</time></trkpt><trkpt lat="42.328816" lon="14.0041956"><ele>171.0</ele><time>2026-05-02T08:14:38.04Z</time></trkpt><trkpt lat="42.3287414" lon="14.0041516"><ele>169.5</ele><time>2026-05-02T08:14:40.04Z</time></trkpt><trkpt lat="42.3286762" lon="14.004119"><ele>168.0</ele><time>2026-05-02T08:14:42.04Z</time></trkpt><trkpt lat="42.328618" lon="14.0040732"><ele>166.5</ele><time>2026-05-02T08:14:44.041Z</time></trkpt><trkpt lat="42.3285722" lon="14.0040049"><ele>165.0</ele><time>2026-05-02T08:14:46.04Z</time></trkpt><trkpt lat="42.3285331" lon="14.0039211"><ele>163.5</ele><time>2026-05-02T08:14:48.04Z</time></trkpt><trkpt lat="42.3285029" lon="14.0038132"><ele>162.0</ele><time>2026-05-02T08:14:50.04Z</time></trkpt><trkpt lat="42.3284575" lon="14.0036991"><ele>162.0</ele><time>2026-05-02T08:14:52.041Z</time></trkpt><trkpt lat="42.3284103" lon="14.0035896"><ele>162.0</ele><time>2026-05-02T08:14:54.04Z</time></trkpt><trkpt lat="42.3283537" lon="14.0034807"><ele>162.0</ele><time>2026-05-02T08:14:56.04Z</time></trkpt><trkpt lat="42.328282" lon="14.0033591"><ele>162.0</ele><time>2026-05-02T08:14:58.04Z</time></trkpt><trkpt lat="42.3282374" lon="14.0032884"><ele>162.0</ele><time>2026-05-02T08:14:59.04Z</time></trkpt><trkpt lat="42.3281848" lon="14.0032118"><ele>162.83333333333334</ele><time>2026-05-02T08:15:00.041Z</time></trkpt><trkpt lat="42.3281348" lon="14.0031396"><ele>163.66666666666666</ele><time>2026-05-02T08:15:01.04Z</time></trkpt><trkpt lat="42.3280832" lon="14.003068"><ele>164.5</ele><time>2026-05-02T08:15:02.04Z</time></trkpt><trkpt lat="42.3280366" lon="14.0030034"><ele>165.33333333333331</ele><time>2026-05-02T08:15:03.04Z</time></trkpt><trkpt lat="42.3279555" lon="14.0028936"><ele>166.16666666666666</ele><time>2026-05-02T08:15:05.041Z</time></trkpt><trkpt lat="42.327881" lon="14.0027779"><ele>167.0</ele><time>2026-05-02T08:15:07.04Z</time></trkpt><trkpt lat="42.3278071" lon="14.0026474"><ele>166.16666666666666</ele><time>2026-05-02T08:15:09.041Z</time></trkpt><trkpt lat="42.3277647" lon="14.0025741"><ele>165.33333333333331</ele><time>2026-05-02T08:15:10.041Z</time></trkpt><trkpt lat="42.3277169" lon="14.0024917"><ele>164.5</ele><time>2026-05-02T08:15:11.04Z</time></trkpt><trkpt lat="42.3276732" lon="14.0024221"><ele>163.66666666666666</ele><time>2026-05-02T08:15:12.04Z</time></trkpt><trkpt lat="42.3275913" lon="14.0023046"><ele>162.83333333333334</ele><time>2026-05-02T08:15:14.041Z</time></trkpt><trkpt lat="42.3275152" lon="14.0021937"><ele>162.0</ele><time>2026-05-02T08:15:16.041Z</time></trkpt><trkpt lat="42.3274588" lon="14.0020993"><ele>162.0</ele><time>2026-05-02T08:15:18.04Z</time></trkpt><trkpt lat="42.3274037" lon="14.0019975"><ele>162.0</ele><time>2026-05-02T08:15:21.04Z</time></trkpt><trkpt lat="42.3273542" lon="14.0018629"><ele>162.0</ele><time>2026-05-02T08:15:23.04Z</time></trkpt><trkpt lat="42.3273344" lon="14.0017762"><ele>162.0</ele><time>2026-05-02T08:15:24.04Z</time></trkpt><trkpt lat="42.3273223" lon="14.0016816"><ele>162.0</ele><time>2026-05-02T08:15:25.04Z</time></trkpt><trkpt lat="42.3273163" lon="14.0015859"><ele>162.0</ele><time>2026-05-02T08:15:26.04Z</time></trkpt><trkpt lat="42.3273106" lon="14.0014823"><ele>162.5</ele><time>2026-05-02T08:15:27.041Z</time></trkpt><trkpt lat="42.3273055" lon="14.00138"><ele>163.0</ele><time>2026-05-02T08:15:28.041Z</time></trkpt><trkpt lat="42.3272982" lon="14.001272"><ele>163.5</ele><time>2026-05-02T08:15:29.04Z</time></trkpt><trkpt lat="42.3272915" lon="14.0011607"><ele>164.0</ele><time>2026-05-02T08:15:30.04Z</time></trkpt><trkpt lat="42.3272901" lon="14.0010636"><ele>164.5</ele><time>2026-05-02T08:15:31.04Z</time></trkpt><trkpt lat="42.3273029" lon="14.0009123"><ele>165.0</ele><time>2026-05-02T08:15:33.04Z</time></trkpt><trkpt lat="42.327275" lon="14.0008245"><ele>163.83333333333334</ele><time>2026-05-02T08:15:35.041Z</time></trkpt><trkpt lat="42.3271876" lon="14.0007887"><ele>162.66666666666666</ele><time>2026-05-02T08:15:37.04Z</time></trkpt><trkpt lat="42.3270929" lon="14.0007521"><ele>161.5</ele><time>2026-05-02T08:15:39.04Z</time></trkpt><trkpt lat="42.3269859" lon="14.0007158"><ele>160.33333333333331</ele><time>2026-05-02T08:15:41.041Z</time></trkpt><trkpt lat="42.3269215" lon="14.0007003"><ele>159.16666666666666</ele><time>2026-05-02T08:15:42.04Z</time></trkpt><trkpt lat="42.3268538" lon="14.0006859"><ele>158.0</ele><time>2026-05-02T08:15:43.041Z</time></trkpt><trkpt lat="42.3267805" lon="14.0006617"><ele>158.0</ele><time>2026-05-02T08:15:44.041Z</time></trkpt><trkpt lat="42.3267105" lon="14.0006347"><ele>158.0</ele><time>2026-05-02T08:15:45.041Z</time></trkpt><trkpt lat="42.3266341" lon="14.0005996"><ele>158.0</ele><time>2026-05-02T08:15:46.04Z</time></trkpt><trkpt lat="42.3265595" lon="14.0005535"><ele>158.0</ele><time>2026-05-02T08:15:47.04Z</time></trkpt><trkpt lat="42.3264908" lon="14.0004971"><ele>158.0</ele><time>2026-05-02T08:15:48.04Z</time></trkpt><trkpt lat="42.3264176" lon="14.0004294"><ele>158.0</ele><time>2026-05-02T08:15:49.04Z</time></trkpt><trkpt lat="42.3263427" lon="14.0003536"><ele>156.20000000000002</ele><time>2026-05-02T08:15:50.04Z</time></trkpt><trkpt lat="42.3262605" lon="14.0002832"><ele>154.4</ele><time>2026-05-02T08:15:51.04Z</time></trkpt><trkpt lat="42.3261738" lon="14.0002282"><ele>152.60000000000002</ele><time>2026-05-02T08:15:52.04Z</time></trkpt><trkpt lat="42.3260977" lon="14.0001714"><ele>150.8</ele><time>2026-05-02T08:15:53.04Z</time></trkpt><trkpt lat="42.3260207" lon="14.0001202"><ele>149.0</ele><time>2026-05-02T08:15:54.04Z</time></trkpt><trkpt lat="42.3259435" lon="14.0000603"><ele>149.0</ele><time>2026-05-02T08:15:55.04Z</time></trkpt><trkpt lat="42.3258687" lon="13.9999966"><ele>149.0</ele><time>2026-05-02T08:15:56.04Z</time></trkpt><trkpt lat="42.3258026" lon="13.9999157"><ele>149.0</ele><time>2026-05-02T08:15:57.041Z</time></trkpt><trkpt lat="42.3257395" lon="13.9998304"><ele>149.0</ele><time>2026-05-02T08:15:58.04Z</time></trkpt><trkpt lat="42.3256808" lon="13.9997485"><ele>149.0</ele><time>2026-05-02T08:15:59.04Z</time></trkpt><trkpt lat="42.3256218" lon="13.9996679"><ele>149.0</ele><time>2026-05-02T08:16:00.04Z</time></trkpt><trkpt lat="42.3255648" lon="13.9995892"><ele>148.0</ele><time>2026-05-02T08:16:01.04Z</time></trkpt><trkpt lat="42.3254999" lon="13.9995126"><ele>147.0</ele><time>2026-05-02T08:16:02.041Z</time></trkpt><trkpt lat="42.3254215" lon="13.9994482"><ele>146.0</ele><time>2026-05-02T08:16:03.041Z</time></trkpt><trkpt lat="42.3253353" lon="13.9993836"><ele>145.0</ele><time>2026-05-02T08:16:04.04Z</time></trkpt><trkpt lat="42.3252558" lon="13.9993191"><ele>144.0</ele><time>2026-05-02T08:16:05.04Z</time></trkpt><trkpt lat="42.3251783" lon="13.9992619"><ele>144.0</ele><time>2026-05-02T08:16:06.04Z</time></trkpt><trkpt lat="42.3251029" lon="13.9992183"><ele>144.0</ele><time>2026-05-02T08:16:07.04Z</time></trkpt><trkpt lat="42.3250428" lon="13.9991832"><ele>144.0</ele><time>2026-05-02T08:16:08.04Z</time></trkpt><trkpt lat="42.3249384" lon="13.9991973"><ele>144.0</ele><time>2026-05-02T08:16:10.041Z</time></trkpt><trkpt lat="42.3248828" lon="13.99926"><ele>144.0</ele><time>2026-05-02T08:16:11.04Z</time></trkpt><trkpt lat="42.3248186" lon="13.9993303"><ele>144.0</ele><time>2026-05-02T08:16:12.04Z</time></trkpt><trkpt lat="42.3247481" lon="13.9994089"><ele>144.16666666666666</ele><time>2026-05-02T08:16:13.04Z</time></trkpt><trkpt lat="42.3246716" lon="13.9994808"><ele>144.33333333333334</ele><time>2026-05-02T08:16:14.041Z</time></trkpt><trkpt lat="42.3246002" lon="13.9995496"><ele>144.5</ele><time>2026-05-02T08:16:15.04Z</time></trkpt><trkpt lat="42.3245347" lon="13.9996123"><ele>144.66666666666669</ele><time>2026-05-02T08:16:16.04Z</time></trkpt><trkpt lat="42.3244717" lon="13.9996766"><ele>144.83333333333334</ele><time>2026-05-02T08:16:17.04Z</time></trkpt><trkpt lat="42.3243986" lon="13.999729"><ele>145.0</ele><time>2026-05-02T08:16:18.04Z</time></trkpt><trkpt lat="42.3243124" lon="13.9997747"><ele>145.0</ele><time>2026-05-02T08:16:19.04Z</time></trkpt><trkpt lat="42.3242078" lon="13.9998199"><ele>145.0</ele><time>2026-05-02T08:16:20.04Z</time></trkpt><trkpt lat="42.3240947" lon="13.9998715"><ele>145.0</ele><time>2026-05-02T08:16:21.04Z</time></trkpt><trkpt lat="42.3239754" lon="13.9999349"><ele>145.0</ele><time>2026-05-02T08:16:22.04Z</time></trkpt><trkpt lat="42.3238521" lon="14.0000015"><ele>145.0</ele><time>2026-05-02T08:16:23.04Z</time></trkpt><trkpt lat="42.3237454" lon="14.0000703"><ele>145.0</ele><time>2026-05-02T08:16:24.04Z</time></trkpt><trkpt lat="42.323644" lon="14.0001411"><ele>145.0</ele><time>2026-05-02T08:16:25.04Z</time></trkpt><trkpt lat="42.3235424" lon="14.0002087"><ele>145.0</ele><time>2026-05-02T08:16:26.04Z</time></trkpt><trkpt lat="42.3234514" lon="14.0002792"><ele>145.0</ele><time>2026-05-02T08:16:27.041Z</time></trkpt><trkpt lat="42.3233611" lon="14.0003427"><ele>145.0</ele><time>2026-05-02T08:16:28.041Z</time></trkpt><trkpt lat="42.3232873" lon="14.000399"><ele>145.0</ele><time>2026-05-02T08:16:29.04Z</time></trkpt><trkpt lat="42.3232247" lon="14.0004442"><ele>145.0</ele><time>2026-05-02T08:16:30.04Z</time></trkpt><trkpt lat="42.3231645" lon="14.0004882"><ele>145.0</ele><time>2026-05-02T08:16:31.04Z</time></trkpt><trkpt lat="42.3230854" lon="14.0005558"><ele>145.0</ele><time>2026-05-02T08:16:33.04Z</time></trkpt><trkpt lat="42.3230174" lon="14.0005578"><ele>143.0</ele><time>2026-05-02T08:16:36.04Z</time></trkpt><trkpt lat="42.3229661" lon="14.0004234"><ele>141.0</ele><time>2026-05-02T08:16:38.04Z</time></trkpt><trkpt lat="42.3229407" lon="14.0003054"><ele>139.0</ele><time>2026-05-02T08:16:39.041Z</time></trkpt><trkpt lat="42.3229018" lon="14.0001843"><ele>137.0</ele><time>2026-05-02T08:16:40.04Z</time></trkpt><trkpt lat="42.322855" lon="14.0000379"><ele>135.0</ele><time>2026-05-02T08:16:41.04Z</time></trkpt><trkpt lat="42.322798" lon="13.9998807"><ele>135.0</ele><time>2026-05-02T08:16:42.04Z</time></trkpt><trkpt lat="42.3227423" lon="13.9997008"><ele>135.0</ele><time>2026-05-02T08:16:43.04Z</time></trkpt><trkpt lat="42.3226851" lon="13.9995052"><ele>135.0</ele><time>2026-05-02T08:16:44.04Z</time></trkpt><trkpt lat="42.3226203" lon="13.9993004"><ele>136.33333333333334</ele><time>2026-05-02T08:16:45.041Z</time></trkpt><trkpt lat="42.3225519" lon="13.9990829"><ele>137.66666666666669</ele><time>2026-05-02T08:16:46.04Z</time></trkpt><trkpt lat="42.3224793" lon="13.9988565"><ele>139.0</ele><time>2026-05-02T08:16:47.04Z</time></trkpt><trkpt lat="42.3224065" lon="13.9986367"><ele>139.0</ele><time>2026-05-02T08:16:48.04Z</time></trkpt><trkpt lat="42.3223303" lon="13.9984004"><ele>139.0</ele><time>2026-05-02T08:16:49.04Z</time></trkpt><trkpt lat="42.3222544" lon="13.9981584"><ele>139.0</ele><time>2026-05-02T08:16:50.04Z</time></trkpt><trkpt lat="42.3221735" lon="13.9979034"><ele>137.33333333333334</ele><time>2026-05-02T08:16:51.04Z</time></trkpt><trkpt lat="42.3220976" lon="13.9976408"><ele>135.66666666666666</ele><time>2026-05-02T08:16:52.04Z</time></trkpt><trkpt lat="42.3220179" lon="13.9973771"><ele>134.0</ele><time>2026-05-02T08:16:53.04Z</time></trkpt><trkpt lat="42.3219338" lon="13.997105"><ele>134.0</ele><time>2026-05-02T08:16:54.04Z</time></trkpt><trkpt lat="42.3218486" lon="13.9968358"><ele>134.0</ele><time>2026-05-02T08:16:55.041Z</time></trkpt><trkpt lat="42.3217654" lon="13.9965743"><ele>134.0</ele><time>2026-05-02T08:16:56.04Z</time></trkpt><trkpt lat="42.321683" lon="13.996314"><ele>134.0</ele><time>2026-05-02T08:16:57.04Z</time></trkpt><trkpt lat="42.3215986" lon="13.9960598"><ele>134.0</ele><time>2026-05-02T08:16:58.04Z</time></trkpt><trkpt lat="42.3215128" lon="13.9958066"><ele>134.0</ele><time>2026-05-02T08:16:59.04Z</time></trkpt><trkpt lat="42.3214281" lon="13.995552"><ele>133.66666666666666</ele><time>2026-05-02T08:17:00.04Z</time></trkpt><trkpt lat="42.321339" lon="13.9953076"><ele>133.33333333333334</ele><time>2026-05-02T08:17:01.04Z</time></trkpt><trkpt lat="42.3212485" lon="13.9950641"><ele>133.0</ele><time>2026-05-02T08:17:02.04Z</time></trkpt><trkpt lat="42.3211603" lon="13.9948272"><ele>133.0</ele><time>2026-05-02T08:17:03.04Z</time></trkpt><trkpt lat="42.3210748" lon="13.994589"><ele>133.0</ele><time>2026-05-02T08:17:04.04Z</time></trkpt><trkpt lat="42.3209886" lon="13.9943599"><ele>133.0</ele><time>2026-05-02T08:17:05.04Z</time></trkpt><trkpt lat="42.3209065" lon="13.9941596"><ele>133.20000000000002</ele><time>2026-05-02T08:17:06.04Z</time></trkpt><trkpt lat="42.320834" lon="13.9939991"><ele>133.4</ele><time>2026-05-02T08:17:07.041Z</time></trkpt><trkpt lat="42.3207715" lon="13.9938818"><ele>133.60000000000002</ele><time>2026-05-02T08:17:08.04Z</time></trkpt><trkpt lat="42.3207272" lon="13.9937778"><ele>133.8</ele><time>2026-05-02T08:17:09.04Z</time></trkpt><trkpt lat="42.3206889" lon="13.9937059"><ele>134.0</ele><time>2026-05-02T08:17:10.04Z</time></trkpt><trkpt lat="42.3206043" lon="13.9936185"><ele>134.83333333333331</ele><time>2026-05-02T08:17:12.04Z</time></trkpt><trkpt lat="42.3205124" lon="13.9936457"><ele>135.66666666666666</ele><time>2026-05-02T08:17:14.04Z</time></trkpt><trkpt lat="42.320404" lon="13.9937333"><ele>136.5</ele><time>2026-05-02T08:17:16.04Z</time></trkpt><trkpt lat="42.3203465" lon="13.993786"><ele>137.33333333333334</ele><time>2026-05-02T08:17:17.04Z</time></trkpt><trkpt lat="42.3202853" lon="13.9938386"><ele>138.16666666666669</ele><time>2026-05-02T08:17:18.04Z</time></trkpt><trkpt lat="42.3202185" lon="13.9938956"><ele>139.0</ele><time>2026-05-02T08:17:19.04Z</time></trkpt><trkpt lat="42.3201529" lon="13.9939607"><ele>139.0</ele><time>2026-05-02T08:17:20.041Z</time></trkpt><trkpt lat="42.3200906" lon="13.9940498"><ele>139.0</ele><time>2026-05-02T08:17:21.04Z</time></trkpt><trkpt lat="42.3200356" lon="13.9941503"><ele>139.0</ele><time>2026-05-02T08:17:22.04Z</time></trkpt><trkpt lat="42.3199759" lon="13.9942653"><ele>139.0</ele><time>2026-05-02T08:17:23.04Z</time></trkpt><trkpt lat="42.3199104" lon="13.9943782"><ele>139.0</ele><time>2026-05-02T08:17:24.04Z</time></trkpt><trkpt lat="42.3198358" lon="13.9945032"><ele>138.75</ele><time>2026-05-02T08:17:25.04Z</time></trkpt><trkpt lat="42.3197547" lon="13.9946194"><ele>138.5</ele><time>2026-05-02T08:17:26.041Z</time></trkpt><trkpt lat="42.3196765" lon="13.9947398"><ele>138.25</ele><time>2026-05-02T08:17:27.04Z</time></trkpt><trkpt lat="42.3195928" lon="13.9948647"><ele>138.0</ele><time>2026-05-02T08:17:28.04Z</time></trkpt><trkpt lat="42.3195222" lon="13.9950041"><ele>138.75</ele><time>2026-05-02T08:17:29.04Z</time></trkpt><trkpt lat="42.3194553" lon="13.9951431"><ele>139.5</ele><time>2026-05-02T08:17:30.04Z</time></trkpt><trkpt lat="42.319392" lon="13.9952834"><ele>140.25</ele><time>2026-05-02T08:17:31.04Z</time></trkpt><trkpt lat="42.3193244" lon="13.9954277"><ele>141.0</ele><time>2026-05-02T08:17:32.04Z</time></trkpt><trkpt lat="42.3192584" lon="13.9955696"><ele>141.0</ele><time>2026-05-02T08:17:33.04Z</time></trkpt><trkpt lat="42.3191937" lon="13.9957097"><ele>141.0</ele><time>2026-05-02T08:17:34.041Z</time></trkpt><trkpt lat="42.3191257" lon="13.9958518"><ele>141.0</ele><time>2026-05-02T08:17:35.04Z</time></trkpt><trkpt lat="42.3190626" lon="13.9959965"><ele>141.0</ele><time>2026-05-02T08:17:36.04Z</time></trkpt><trkpt lat="42.3190024" lon="13.9961442"><ele>140.75</ele><time>2026-05-02T08:17:37.04Z</time></trkpt><trkpt lat="42.3189359" lon="13.9962737"><ele>140.5</ele><time>2026-05-02T08:17:38.04Z</time></trkpt><trkpt lat="42.3188719" lon="13.996408"><ele>140.25</ele><time>2026-05-02T08:17:39.04Z</time></trkpt><trkpt lat="42.3188108" lon="13.9965432"><ele>140.0</ele><time>2026-05-02T08:17:40.04Z</time></trkpt><trkpt lat="42.318751" lon="13.9966778"><ele>142.0</ele><time>2026-05-02T08:17:41.041Z</time></trkpt><trkpt lat="42.3187029" lon="13.9968211"><ele>144.0</ele><time>2026-05-02T08:17:42.04Z</time></trkpt><trkpt lat="42.3186601" lon="13.996968"><ele>146.0</ele><time>2026-05-02T08:17:43.04Z</time></trkpt><trkpt lat="42.3186285" lon="13.9971178"><ele>148.0</ele><time>2026-05-02T08:17:44.041Z</time></trkpt><trkpt lat="42.3186082" lon="13.997279"><ele>148.0</ele><time>2026-05-02T08:17:45.041Z</time></trkpt><trkpt lat="42.318588" lon="13.9974391"><ele>148.0</ele><time>2026-05-02T08:17:46.04Z</time></trkpt><trkpt lat="42.3185672" lon="13.9975957"><ele>148.0</ele><time>2026-05-02T08:17:47.041Z</time></trkpt><trkpt lat="42.3185473" lon="13.9977355"><ele>148.0</ele><time>2026-05-02T08:17:48.04Z</time></trkpt><trkpt lat="42.3185296" lon="13.99789"><ele>147.75</ele><time>2026-05-02T08:17:49.04Z</time></trkpt><trkpt lat="42.3185144" lon="13.9980375"><ele>147.5</ele><time>2026-05-02T08:17:50.04Z</time></trkpt><trkpt lat="42.3184959" lon="13.9981935"><ele>147.25</ele><time>2026-05-02T08:17:51.041Z</time></trkpt><trkpt lat="42.3184767" lon="13.9983549"><ele>147.0</ele><time>2026-05-02T08:17:52.04Z</time></trkpt><trkpt lat="42.3184617" lon="13.9985116"><ele>146.5</ele><time>2026-05-02T08:17:53.04Z</time></trkpt><trkpt lat="42.3184496" lon="13.9986759"><ele>146.0</ele><time>2026-05-02T08:17:54.04Z</time></trkpt><trkpt lat="42.31844" lon="13.9988317"><ele>145.5</ele><time>2026-05-02T08:17:55.041Z</time></trkpt><trkpt lat="42.318427" lon="13.9989943"><ele>145.0</ele><time>2026-05-02T08:17:56.04Z</time></trkpt><trkpt lat="42.3184204" lon="13.999161"><ele>143.5</ele><time>2026-05-02T08:17:57.041Z</time></trkpt><trkpt lat="42.3184093" lon="13.9993346"><ele>142.0</ele><time>2026-05-02T08:17:58.04Z</time></trkpt><trkpt lat="42.3183967" lon="13.9995042"><ele>140.5</ele><time>2026-05-02T08:17:59.04Z</time></trkpt><trkpt lat="42.318387" lon="13.9996776"><ele>139.0</ele><time>2026-05-02T08:18:00.04Z</time></trkpt><trkpt lat="42.3183806" lon="13.9998495"><ele>139.0</ele><time>2026-05-02T08:18:01.04Z</time></trkpt><trkpt lat="42.3183722" lon="14.0000117"><ele>139.0</ele><time>2026-05-02T08:18:02.04Z</time></trkpt><trkpt lat="42.318368" lon="14.0001698"><ele>139.0</ele><time>2026-05-02T08:18:03.04Z</time></trkpt><trkpt lat="42.3183588" lon="14.0003241"><ele>139.0</ele><time>2026-05-02T08:18:04.04Z</time></trkpt><trkpt lat="42.3183462" lon="14.0004823"><ele>139.0</ele><time>2026-05-02T08:18:05.041Z</time></trkpt><trkpt lat="42.318334" lon="14.0006417"><ele>139.0</ele><time>2026-05-02T08:18:06.04Z</time></trkpt><trkpt lat="42.3183233" lon="14.0008016"><ele>139.0</ele><time>2026-05-02T08:18:07.04Z</time></trkpt><trkpt lat="42.3183117" lon="14.0009568"><ele>139.0</ele><time>2026-05-02T08:18:08.04Z</time></trkpt><trkpt lat="42.3183019" lon="14.0011031"><ele>138.2</ele><time>2026-05-02T08:18:09.041Z</time></trkpt><trkpt lat="42.318282" lon="14.0012529"><ele>137.4</ele><time>2026-05-02T08:18:10.04Z</time></trkpt><trkpt lat="42.3182505" lon="14.0013891"><ele>136.6</ele><time>2026-05-02T08:18:11.04Z</time></trkpt><trkpt lat="42.3182165" lon="14.0015113"><ele>135.8</ele><time>2026-05-02T08:18:12.04Z</time></trkpt><trkpt lat="42.3181924" lon="14.0016254"><ele>135.0</ele><time>2026-05-02T08:18:13.04Z</time></trkpt><trkpt lat="42.3181848" lon="14.0017357"><ele>134.33333333333334</ele><time>2026-05-02T08:18:14.04Z</time></trkpt><trkpt lat="42.318188" lon="14.0018463"><ele>133.66666666666666</ele><time>2026-05-02T08:18:15.04Z</time></trkpt><trkpt lat="42.3182152" lon="14.0019503"><ele>133.0</ele><time>2026-05-02T08:18:16.04Z</time></trkpt><trkpt lat="42.3182477" lon="14.0020548"><ele>132.33333333333331</ele><time>2026-05-02T08:18:17.04Z</time></trkpt><trkpt lat="42.3182825" lon="14.0021547"><ele>131.66666666666666</ele><time>2026-05-02T08:18:18.04Z</time></trkpt><trkpt lat="42.3183106" lon="14.0022685"><ele>131.0</ele><time>2026-05-02T08:18:19.04Z</time></trkpt><trkpt lat="42.3183292" lon="14.0023907"><ele>129.6</ele><time>2026-05-02T08:18:20.04Z</time></trkpt><trkpt lat="42.3183502" lon="14.0025263"><ele>128.2</ele><time>2026-05-02T08:18:21.041Z</time></trkpt><trkpt lat="42.3183729" lon="14.0026696"><ele>126.80000000000001</ele><time>2026-05-02T08:18:22.04Z</time></trkpt><trkpt lat="42.3183899" lon="14.0028279"><ele>125.4</ele><time>2026-05-02T08:18:23.041Z</time></trkpt><trkpt lat="42.3183996" lon="14.0029778"><ele>124.0</ele><time>2026-05-02T08:18:24.04Z</time></trkpt><trkpt lat="42.3184062" lon="14.0031276"><ele>124.0</ele><time>2026-05-02T08:18:25.041Z</time></trkpt><trkpt lat="42.3184134" lon="14.003271"><ele>124.0</ele><time>2026-05-02T08:18:26.04Z</time></trkpt><trkpt lat="42.3184157" lon="14.0034175"><ele>124.0</ele><time>2026-05-02T08:18:27.04Z</time></trkpt><trkpt lat="42.3184092" lon="14.0035522"><ele>124.0</ele><time>2026-05-02T08:18:28.04Z</time></trkpt><trkpt lat="42.318395" lon="14.0036787"><ele>124.0</ele><time>2026-05-02T08:18:29.041Z</time></trkpt><trkpt lat="42.3183731" lon="14.0037926"><ele>123.2</ele><time>2026-05-02T08:18:30.04Z</time></trkpt><trkpt lat="42.3183409" lon="14.0039018"><ele>122.4</ele><time>2026-05-02T08:18:31.041Z</time></trkpt><trkpt lat="42.3183" lon="14.0040106"><ele>121.6</ele><time>2026-05-02T08:18:32.04Z</time></trkpt><trkpt lat="42.3182555" lon="14.004134"><ele>120.8</ele><time>2026-05-02T08:18:33.041Z</time></trkpt><trkpt lat="42.3182076" lon="14.0042656"><ele>120.0</ele><time>2026-05-02T08:18:34.04Z</time></trkpt><trkpt lat="42.3181636" lon="14.0044074"><ele>119.25</ele><time>2026-05-02T08:18:35.041Z</time></trkpt><trkpt lat="42.3181139" lon="14.0045443"><ele>118.5</ele><time>2026-05-02T08:18:36.04Z</time></trkpt><trkpt lat="42.3180649" lon="14.0046854"><ele>117.75</ele><time>2026-05-02T08:18:37.04Z</time></trkpt><trkpt lat="42.3180089" lon="14.0048239"><ele>117.0</ele><time>2026-05-02T08:18:38.04Z</time></trkpt><trkpt lat="42.3179536" lon="14.0049744"><ele>117.0</ele><time>2026-05-02T08:18:39.04Z</time></trkpt><trkpt lat="42.3179012" lon="14.0051295"><ele>117.0</ele><time>2026-05-02T08:18:40.04Z</time></trkpt><trkpt lat="42.3178546" lon="14.0052794"><ele>117.0</ele><time>2026-05-02T08:18:41.041Z</time></trkpt><trkpt lat="42.3178055" lon="14.0054319"><ele>117.0</ele><time>2026-05-02T08:18:42.04Z</time></trkpt><trkpt lat="42.3177598" lon="14.0055737"><ele>117.0</ele><time>2026-05-02T08:18:43.04Z</time></trkpt><trkpt lat="42.3177138" lon="14.0056985"><ele>116.99999999999999</ele><time>2026-05-02T08:18:44.04Z</time></trkpt><trkpt lat="42.3176618" lon="14.0058103"><ele>116.99999999999999</ele><time>2026-05-02T08:18:45.04Z</time></trkpt><trkpt lat="42.3176061" lon="14.0059328"><ele>117.0</ele><time>2026-05-02T08:18:46.041Z</time></trkpt><trkpt lat="42.3175596" lon="14.0060566"><ele>117.0</ele><time>2026-05-02T08:18:47.04Z</time></trkpt><trkpt lat="42.3175188" lon="14.0061951"><ele>117.75</ele><time>2026-05-02T08:18:48.04Z</time></trkpt><trkpt lat="42.3174832" lon="14.0063322"><ele>118.5</ele><time>2026-05-02T08:18:49.04Z</time></trkpt><trkpt lat="42.3174494" lon="14.006476"><ele>119.25</ele><time>2026-05-02T08:18:50.04Z</time></trkpt><trkpt lat="42.3174068" lon="14.0066176"><ele>120.0</ele><time>2026-05-02T08:18:51.04Z</time></trkpt><trkpt lat="42.3173559" lon="14.0067621"><ele>120.0</ele><time>2026-05-02T08:18:52.04Z</time></trkpt><trkpt lat="42.3173024" lon="14.0069087"><ele>120.0</ele><time>2026-05-02T08:18:53.041Z</time></trkpt><trkpt lat="42.3172501" lon="14.0070502"><ele>120.0</ele><time>2026-05-02T08:18:54.041Z</time></trkpt><trkpt lat="42.3172037" lon="14.0071753"><ele>120.0</ele><time>2026-05-02T08:18:55.04Z</time></trkpt><trkpt lat="42.3171701" lon="14.0072953"><ele>120.0</ele><time>2026-05-02T08:18:56.04Z</time></trkpt><trkpt lat="42.3171385" lon="14.0074135"><ele>120.0</ele><time>2026-05-02T08:18:57.041Z</time></trkpt><trkpt lat="42.3171123" lon="14.0075385"><ele>120.0</ele><time>2026-05-02T08:18:58.04Z</time></trkpt><trkpt lat="42.3170703" lon="14.0076655"><ele>120.0</ele><time>2026-05-02T08:18:59.04Z</time></trkpt><trkpt lat="42.3170158" lon="14.0077953"><ele>120.0</ele><time>2026-05-02T08:19:00.04Z</time></trkpt><trkpt lat="42.3169454" lon="14.0079179"><ele>120.0</ele><time>2026-05-02T08:19:01.04Z</time></trkpt><trkpt lat="42.316852" lon="14.0080289"><ele>120.0</ele><time>2026-05-02T08:19:02.04Z</time></trkpt><trkpt lat="42.3167461" lon="14.008131"><ele>120.0</ele><time>2026-05-02T08:19:03.04Z</time></trkpt><trkpt lat="42.3166389" lon="14.0082351"><ele>120.0</ele><time>2026-05-02T08:19:04.04Z</time></trkpt><trkpt lat="42.3165386" lon="14.0083358"><ele>120.0</ele><time>2026-05-02T08:19:05.041Z</time></trkpt><trkpt lat="42.3164506" lon="14.0084286"><ele>118.5</ele><time>2026-05-02T08:19:06.04Z</time></trkpt><trkpt lat="42.3163748" lon="14.0085108"><ele>117.0</ele><time>2026-05-02T08:19:07.04Z</time></trkpt><trkpt lat="42.3163195" lon="14.0085896"><ele>115.5</ele><time>2026-05-02T08:19:08.04Z</time></trkpt><trkpt lat="42.3162805" lon="14.0086655"><ele>114.0</ele><time>2026-05-02T08:19:09.04Z</time></trkpt><trkpt lat="42.3162119" lon="14.0087872"><ele>112.5</ele><time>2026-05-02T08:19:11.04Z</time></trkpt><trkpt lat="42.3161453" lon="14.0088143"><ele>111.0</ele><time>2026-05-02T08:19:12.04Z</time></trkpt><trkpt lat="42.3160602" lon="14.0088601"><ele>111.0</ele><time>2026-05-02T08:19:13.04Z</time></trkpt><trkpt lat="42.315962" lon="14.0089142"><ele>111.0</ele><time>2026-05-02T08:19:14.04Z</time></trkpt><trkpt lat="42.3158494" lon="14.0089966"><ele>111.0</ele><time>2026-05-02T08:19:15.04Z</time></trkpt><trkpt lat="42.3157296" lon="14.0090847"><ele>111.0</ele><time>2026-05-02T08:19:16.04Z</time></trkpt><trkpt lat="42.3155961" lon="14.0091836"><ele>109.66666666666666</ele><time>2026-05-02T08:19:17.04Z</time></trkpt><trkpt lat="42.3154617" lon="14.0092887"><ele>108.33333333333333</ele><time>2026-05-02T08:19:18.04Z</time></trkpt><trkpt lat="42.3153269" lon="14.009408"><ele>107.0</ele><time>2026-05-02T08:19:19.04Z</time></trkpt><trkpt lat="42.3151786" lon="14.0095293"><ele>107.0</ele><time>2026-05-02T08:19:20.04Z</time></trkpt><trkpt lat="42.3150297" lon="14.0096583"><ele>107.0</ele><time>2026-05-02T08:19:21.04Z</time></trkpt><trkpt lat="42.3148801" lon="14.0097857"><ele>107.0</ele><time>2026-05-02T08:19:22.04Z</time></trkpt><trkpt lat="42.3147192" lon="14.009914"><ele>106.0</ele><time>2026-05-02T08:19:23.04Z</time></trkpt><trkpt lat="42.3145562" lon="14.0100462"><ele>105.0</ele><time>2026-05-02T08:19:24.04Z</time></trkpt><trkpt lat="42.3143935" lon="14.0101746"><ele>104.0</ele><time>2026-05-02T08:19:25.04Z</time></trkpt><trkpt lat="42.3142345" lon="14.0102989"><ele>104.0</ele><time>2026-05-02T08:19:26.041Z</time></trkpt><trkpt lat="42.3140868" lon="14.0104245"><ele>104.0</ele><time>2026-05-02T08:19:27.041Z</time></trkpt><trkpt lat="42.3139383" lon="14.0105541"><ele>104.0</ele><time>2026-05-02T08:19:28.04Z</time></trkpt><trkpt lat="42.3137925" lon="14.0106749"><ele>104.0</ele><time>2026-05-02T08:19:29.04Z</time></trkpt><trkpt lat="42.3136464" lon="14.010784"><ele>104.0</ele><time>2026-05-02T08:19:30.04Z</time></trkpt><trkpt lat="42.3134917" lon="14.0108798"><ele>104.0</ele><time>2026-05-02T08:19:31.04Z</time></trkpt><trkpt lat="42.3133281" lon="14.01097"><ele>103.33333333333333</ele><time>2026-05-02T08:19:32.04Z</time></trkpt><trkpt lat="42.3131601" lon="14.0110254"><ele>102.66666666666666</ele><time>2026-05-02T08:19:33.04Z</time></trkpt><trkpt lat="42.3129887" lon="14.0110685"><ele>102.0</ele><time>2026-05-02T08:19:34.041Z</time></trkpt><trkpt lat="42.3128153" lon="14.011103"><ele>102.0</ele><time>2026-05-02T08:19:35.04Z</time></trkpt><trkpt lat="42.3126362" lon="14.0111282"><ele>102.0</ele><time>2026-05-02T08:19:36.04Z</time></trkpt><trkpt lat="42.3124528" lon="14.0111443"><ele>102.0</ele><time>2026-05-02T08:19:37.04Z</time></trkpt><trkpt lat="42.3122694" lon="14.0111458"><ele>102.33333333333334</ele><time>2026-05-02T08:19:38.041Z</time></trkpt><trkpt lat="42.3120827" lon="14.0111365"><ele>102.66666666666667</ele><time>2026-05-02T08:19:39.041Z</time></trkpt><trkpt lat="42.3118975" lon="14.0111108"><ele>103.0</ele><time>2026-05-02T08:19:40.04Z</time></trkpt><trkpt lat="42.3117052" lon="14.0110798"><ele>103.0</ele><time>2026-05-02T08:19:41.04Z</time></trkpt><trkpt lat="42.3115186" lon="14.0110425"><ele>103.0</ele><time>2026-05-02T08:19:42.04Z</time></trkpt><trkpt lat="42.3113397" lon="14.0110132"><ele>103.0</ele><time>2026-05-02T08:19:43.04Z</time></trkpt><trkpt lat="42.311163" lon="14.0109861"><ele>102.33333333333334</ele><time>2026-05-02T08:19:44.04Z</time></trkpt><trkpt lat="42.3109907" lon="14.0109545"><ele>101.66666666666666</ele><time>2026-05-02T08:19:45.04Z</time></trkpt><trkpt lat="42.3108209" lon="14.0109225"><ele>101.0</ele><time>2026-05-02T08:19:46.04Z</time></trkpt><trkpt lat="42.3106516" lon="14.0108853"><ele>101.0</ele><time>2026-05-02T08:19:47.04Z</time></trkpt><trkpt lat="42.3104765" lon="14.01085"><ele>101.0</ele><time>2026-05-02T08:19:48.041Z</time></trkpt><trkpt lat="42.3103012" lon="14.0108165"><ele>101.0</ele><time>2026-05-02T08:19:49.04Z</time></trkpt><trkpt lat="42.3101271" lon="14.010776"><ele>101.33333333333333</ele><time>2026-05-02T08:19:50.04Z</time></trkpt><trkpt lat="42.3099508" lon="14.0107434"><ele>101.66666666666666</ele><time>2026-05-02T08:19:51.04Z</time></trkpt><trkpt lat="42.3097762" lon="14.0107165"><ele>102.0</ele><time>2026-05-02T08:19:52.04Z</time></trkpt><trkpt lat="42.309602" lon="14.0106877"><ele>102.33333333333334</ele><time>2026-05-02T08:19:53.041Z</time></trkpt><trkpt lat="42.3094293" lon="14.0106461"><ele>102.66666666666667</ele><time>2026-05-02T08:19:54.04Z</time></trkpt><trkpt lat="42.3092556" lon="14.0106066"><ele>103.0</ele><time>2026-05-02T08:19:55.04Z</time></trkpt><trkpt lat="42.3090785" lon="14.0105704"><ele>105.33333333333334</ele><time>2026-05-02T08:19:56.04Z</time></trkpt><trkpt lat="42.3089025" lon="14.0105368"><ele>107.66666666666666</ele><time>2026-05-02T08:19:57.04Z</time></trkpt><trkpt lat="42.3087275" lon="14.0105093"><ele>110.0</ele><time>2026-05-02T08:19:58.04Z</time></trkpt><trkpt lat="42.3085619" lon="14.0104833"><ele>110.0</ele><time>2026-05-02T08:19:59.041Z</time></trkpt><trkpt lat="42.3084163" lon="14.0104956"><ele>110.0</ele><time>2026-05-02T08:20:00.041Z</time></trkpt><trkpt lat="42.3082769" lon="14.0105566"><ele>110.0</ele><time>2026-05-02T08:20:01.04Z</time></trkpt><trkpt lat="42.3081514" lon="14.0106632"><ele>110.0</ele><time>2026-05-02T08:20:02.04Z</time></trkpt><trkpt lat="42.3080169" lon="14.0107816"><ele>111.0</ele><time>2026-05-02T08:20:03.04Z</time></trkpt><trkpt lat="42.3078754" lon="14.0108781"><ele>112.0</ele><time>2026-05-02T08:20:04.04Z</time></trkpt><trkpt lat="42.3077354" lon="14.0109296"><ele>113.0</ele><time>2026-05-02T08:20:05.041Z</time></trkpt><trkpt lat="42.3075904" lon="14.0109071"><ele>114.0</ele><time>2026-05-02T08:20:06.04Z</time></trkpt><trkpt lat="42.3074528" lon="14.010844"><ele>115.25</ele><time>2026-05-02T08:20:07.04Z</time></trkpt><trkpt lat="42.3073233" lon="14.0107886"><ele>116.5</ele><time>2026-05-02T08:20:08.04Z</time></trkpt><trkpt lat="42.3072049" lon="14.0107349"><ele>117.75</ele><time>2026-05-02T08:20:09.041Z</time></trkpt><trkpt lat="42.3070961" lon="14.0106616"><ele>119.0</ele><time>2026-05-02T08:20:10.04Z</time></trkpt><trkpt lat="42.3069949" lon="14.0105672"><ele>120.5</ele><time>2026-05-02T08:20:11.04Z</time></trkpt><trkpt lat="42.3069083" lon="14.0104399"><ele>122.0</ele><time>2026-05-02T08:20:12.041Z</time></trkpt><trkpt lat="42.3068479" lon="14.0102911"><ele>123.5</ele><time>2026-05-02T08:20:13.04Z</time></trkpt><trkpt lat="42.3068051" lon="14.0101243"><ele>125.0</ele><time>2026-05-02T08:20:14.04Z</time></trkpt><trkpt lat="42.3067599" lon="14.0099523"><ele>125.75</ele><time>2026-05-02T08:20:15.041Z</time></trkpt><trkpt lat="42.3067088" lon="14.0097772"><ele>126.5</ele><time>2026-05-02T08:20:16.04Z</time></trkpt><trkpt lat="42.306663" lon="14.0095916"><ele>127.25</ele><time>2026-05-02T08:20:17.04Z</time></trkpt><trkpt lat="42.3066164" lon="14.0094151"><ele>128.0</ele><time>2026-05-02T08:20:18.041Z</time></trkpt><trkpt lat="42.3065665" lon="14.0092296"><ele>129.66666666666666</ele><time>2026-05-02T08:20:19.04Z</time></trkpt><trkpt lat="42.3065125" lon="14.0090395"><ele>131.33333333333334</ele><time>2026-05-02T08:20:20.04Z</time></trkpt><trkpt lat="42.3064592" lon="14.0088395"><ele>133.0</ele><time>2026-05-02T08:20:21.04Z</time></trkpt><trkpt lat="42.3063991" lon="14.0086323"><ele>136.66666666666669</ele><time>2026-05-02T08:20:22.041Z</time></trkpt><trkpt lat="42.3063437" lon="14.0084229"><ele>140.33333333333334</ele><time>2026-05-02T08:20:23.04Z</time></trkpt><trkpt lat="42.3062827" lon="14.0082125"><ele>144.0</ele><time>2026-05-02T08:20:24.04Z</time></trkpt><trkpt lat="42.3062291" lon="14.0079985"><ele>144.66666666666666</ele><time>2026-05-02T08:20:25.041Z</time></trkpt><trkpt lat="42.306178" lon="14.0077838"><ele>145.33333333333331</ele><time>2026-05-02T08:20:26.04Z</time></trkpt><trkpt lat="42.30612" lon="14.0075672"><ele>146.0</ele><time>2026-05-02T08:20:27.04Z</time></trkpt><trkpt lat="42.3060632" lon="14.0073552"><ele>147.0</ele><time>2026-05-02T08:20:28.04Z</time></trkpt><trkpt lat="42.3059994" lon="14.0071487"><ele>148.0</ele><time>2026-05-02T08:20:29.04Z</time></trkpt><trkpt lat="42.3059238" lon="14.0069468"><ele>149.0</ele><time>2026-05-02T08:20:30.04Z</time></trkpt><trkpt lat="42.3058429" lon="14.0067507"><ele>148.66666666666666</ele><time>2026-05-02T08:20:31.04Z</time></trkpt><trkpt lat="42.305756" lon="14.0065661"><ele>148.33333333333334</ele><time>2026-05-02T08:20:32.04Z</time></trkpt><trkpt lat="42.3056604" lon="14.0063883"><ele>148.0</ele><time>2026-05-02T08:20:33.04Z</time></trkpt><trkpt lat="42.305563" lon="14.0062117"><ele>153.0</ele><time>2026-05-02T08:20:34.04Z</time></trkpt><trkpt lat="42.3054599" lon="14.0060433"><ele>158.0</ele><time>2026-05-02T08:20:35.041Z</time></trkpt><trkpt lat="42.3053558" lon="14.0058693"><ele>163.0</ele><time>2026-05-02T08:20:36.04Z</time></trkpt><trkpt lat="42.305252" lon="14.0056877"><ele>163.0</ele><time>2026-05-02T08:20:37.04Z</time></trkpt><trkpt lat="42.3051521" lon="14.0054947"><ele>163.0</ele><time>2026-05-02T08:20:38.04Z</time></trkpt><trkpt lat="42.3050605" lon="14.0053019"><ele>163.0</ele><time>2026-05-02T08:20:39.041Z</time></trkpt><trkpt lat="42.3049754" lon="14.0051034"><ele>162.66666666666669</ele><time>2026-05-02T08:20:40.04Z</time></trkpt><trkpt lat="42.3048907" lon="14.0048999"><ele>162.33333333333334</ele><time>2026-05-02T08:20:41.04Z</time></trkpt><trkpt lat="42.3048049" lon="14.0046999"><ele>162.0</ele><time>2026-05-02T08:20:42.041Z</time></trkpt><trkpt lat="42.3047223" lon="14.0045062"><ele>164.0</ele><time>2026-05-02T08:20:43.041Z</time></trkpt><trkpt lat="42.3046419" lon="14.0043282"><ele>166.0</ele><time>2026-05-02T08:20:44.04Z</time></trkpt><trkpt lat="42.3045669" lon="14.0041702"><ele>168.0</ele><time>2026-05-02T08:20:45.04Z</time></trkpt><trkpt lat="42.3044808" lon="14.0040426"><ele>170.0</ele><time>2026-05-02T08:20:46.04Z</time></trkpt><trkpt lat="42.3043875" lon="14.0039415"><ele>170.0</ele><time>2026-05-02T08:20:47.04Z</time></trkpt><trkpt lat="42.3042758" lon="14.0038736"><ele>170.0</ele><time>2026-05-02T08:20:48.04Z</time></trkpt><trkpt lat="42.3041547" lon="14.003819"><ele>170.0</ele><time>2026-05-02T08:20:49.041Z</time></trkpt><trkpt lat="42.3040273" lon="14.0037673"><ele>170.0</ele><time>2026-05-02T08:20:50.041Z</time></trkpt><trkpt lat="42.303898" lon="14.0037039"><ele>169.0</ele><time>2026-05-02T08:20:51.04Z</time></trkpt><trkpt lat="42.303762" lon="14.0036375"><ele>168.0</ele><time>2026-05-02T08:20:52.04Z</time></trkpt><trkpt lat="42.3036381" lon="14.0035461"><ele>167.0</ele><time>2026-05-02T08:20:53.04Z</time></trkpt><trkpt lat="42.3035184" lon="14.003452"><ele>166.0</ele><time>2026-05-02T08:20:54.04Z</time></trkpt><trkpt lat="42.3033989" lon="14.0033653"><ele>166.75</ele><time>2026-05-02T08:20:55.04Z</time></trkpt><trkpt lat="42.303276" lon="14.0032914"><ele>167.5</ele><time>2026-05-02T08:20:56.04Z</time></trkpt><trkpt lat="42.3031473" lon="14.0032275"><ele>168.25</ele><time>2026-05-02T08:20:57.04Z</time></trkpt><trkpt lat="42.3030115" lon="14.0031681"><ele>169.0</ele><time>2026-05-02T08:20:58.04Z</time></trkpt><trkpt lat="42.3028651" lon="14.0031199"><ele>169.0</ele><time>2026-05-02T08:20:59.041Z</time></trkpt><trkpt lat="42.3027172" lon="14.0030959"><ele>169.0</ele><time>2026-05-02T08:21:00.04Z</time></trkpt><trkpt lat="42.3025684" lon="14.0030812"><ele>169.0</ele><time>2026-05-02T08:21:01.041Z</time></trkpt><trkpt lat="42.3024245" lon="14.0030687"><ele>169.0</ele><time>2026-05-02T08:21:02.04Z</time></trkpt><trkpt lat="42.3022768" lon="14.0030607"><ele>166.5</ele><time>2026-05-02T08:21:03.04Z</time></trkpt><trkpt lat="42.3021329" lon="14.0030574"><ele>164.0</ele><time>2026-05-02T08:21:04.04Z</time></trkpt><trkpt lat="42.3019991" lon="14.003046"><ele>161.5</ele><time>2026-05-02T08:21:05.04Z</time></trkpt><trkpt lat="42.3018728" lon="14.0030068"><ele>159.0</ele><time>2026-05-02T08:21:06.04Z</time></trkpt><trkpt lat="42.3017571" lon="14.0029349"><ele>159.0</ele><time>2026-05-02T08:21:07.04Z</time></trkpt><trkpt lat="42.3016682" lon="14.0028602"><ele>159.0</ele><time>2026-05-02T08:21:08.04Z</time></trkpt><trkpt lat="42.3015965" lon="14.0027997"><ele>159.0</ele><time>2026-05-02T08:21:09.04Z</time></trkpt><trkpt lat="42.3015413" lon="14.002736"><ele>159.0</ele><time>2026-05-02T08:21:10.04Z</time></trkpt><trkpt lat="42.3014987" lon="14.0026649"><ele>159.0</ele><time>2026-05-02T08:21:11.04Z</time></trkpt><trkpt lat="42.3014617" lon="14.0025841"><ele>159.0</ele><time>2026-05-02T08:21:12.041Z</time></trkpt><trkpt lat="42.3014324" lon="14.002489"><ele>158.2</ele><time>2026-05-02T08:21:13.041Z</time></trkpt><trkpt lat="42.3014045" lon="14.0023784"><ele>157.4</ele><time>2026-05-02T08:21:14.041Z</time></trkpt><trkpt lat="42.301383" lon="14.0022566"><ele>156.6</ele><time>2026-05-02T08:21:15.04Z</time></trkpt><trkpt lat="42.3013691" lon="14.0021295"><ele>155.8</ele><time>2026-05-02T08:21:16.04Z</time></trkpt><trkpt lat="42.3013531" lon="14.0019947"><ele>155.0</ele><time>2026-05-02T08:21:17.04Z</time></trkpt><trkpt lat="42.30132" lon="14.0018607"><ele>155.0</ele><time>2026-05-02T08:21:18.04Z</time></trkpt><trkpt lat="42.3012748" lon="14.0017216"><ele>155.0</ele><time>2026-05-02T08:21:19.04Z</time></trkpt><trkpt lat="42.3012313" lon="14.0015823"><ele>155.0</ele><time>2026-05-02T08:21:20.04Z</time></trkpt><trkpt lat="42.301183" lon="14.0014236"><ele>155.0</ele><time>2026-05-02T08:21:21.041Z</time></trkpt><trkpt lat="42.301128" lon="14.0012763"><ele>156.5</ele><time>2026-05-02T08:21:22.041Z</time></trkpt><trkpt lat="42.301067" lon="14.0011249"><ele>158.0</ele><time>2026-05-02T08:21:23.04Z</time></trkpt><trkpt lat="42.3009998" lon="14.0009671"><ele>159.5</ele><time>2026-05-02T08:21:24.04Z</time></trkpt><trkpt lat="42.3009225" lon="14.0008144"><ele>161.0</ele><time>2026-05-02T08:21:25.041Z</time></trkpt><trkpt lat="42.3008476" lon="14.0006657"><ele>160.25</ele><time>2026-05-02T08:21:26.04Z</time></trkpt><trkpt lat="42.3007695" lon="14.0005219"><ele>159.5</ele><time>2026-05-02T08:21:27.04Z</time></trkpt><trkpt lat="42.3006746" lon="14.0003949"><ele>158.75</ele><time>2026-05-02T08:21:28.041Z</time></trkpt><trkpt lat="42.3005791" lon="14.0002738"><ele>158.0</ele><time>2026-05-02T08:21:29.041Z</time></trkpt><trkpt lat="42.3004843" lon="14.000157"><ele>158.0</ele><time>2026-05-02T08:21:30.04Z</time></trkpt><trkpt lat="42.3003994" lon="14.0000278"><ele>158.0</ele><time>2026-05-02T08:21:31.04Z</time></trkpt><trkpt lat="42.3003177" lon="13.9998948"><ele>158.0</ele><time>2026-05-02T08:21:32.041Z</time></trkpt><trkpt lat="42.3002461" lon="13.9997491"><ele>158.0</ele><time>2026-05-02T08:21:33.04Z</time></trkpt><trkpt lat="42.3001828" lon="13.999604"><ele>158.0</ele><time>2026-05-02T08:21:34.04Z</time></trkpt><trkpt lat="42.3001203" lon="13.9994631"><ele>158.0</ele><time>2026-05-02T08:21:35.04Z</time></trkpt><trkpt lat="42.3000493" lon="13.9993182"><ele>158.0</ele><time>2026-05-02T08:21:36.041Z</time></trkpt><trkpt lat="42.299977" lon="13.9991715"><ele>158.0</ele><time>2026-05-02T08:21:37.041Z</time></trkpt><trkpt lat="42.299893" lon="13.9990212"><ele>158.5</ele><time>2026-05-02T08:21:38.04Z</time></trkpt><trkpt lat="42.2998118" lon="13.9988581"><ele>159.0</ele><time>2026-05-02T08:21:39.04Z</time></trkpt><trkpt lat="42.2997371" lon="13.9986965"><ele>159.5</ele><time>2026-05-02T08:21:40.041Z</time></trkpt><trkpt lat="42.2996587" lon="13.9985389"><ele>160.0</ele><time>2026-05-02T08:21:41.04Z</time></trkpt><trkpt lat="42.2995802" lon="13.9983893"><ele>159.5</ele><time>2026-05-02T08:21:42.04Z</time></trkpt><trkpt lat="42.299496" lon="13.9982457"><ele>159.0</ele><time>2026-05-02T08:21:43.041Z</time></trkpt><trkpt lat="42.2994109" lon="13.998106"><ele>158.5</ele><time>2026-05-02T08:21:44.04Z</time></trkpt><trkpt lat="42.2993318" lon="13.9979654"><ele>158.0</ele><time>2026-05-02T08:21:45.04Z</time></trkpt><trkpt lat="42.2992677" lon="13.9978151"><ele>158.0</ele><time>2026-05-02T08:21:46.04Z</time></trkpt><trkpt lat="42.2992257" lon="13.9976529"><ele>158.0</ele><time>2026-05-02T08:21:47.041Z</time></trkpt><trkpt lat="42.2991962" lon="13.9974788"><ele>158.0</ele><time>2026-05-02T08:21:48.04Z</time></trkpt><trkpt lat="42.2991725" lon="13.9973004"><ele>158.0</ele><time>2026-05-02T08:21:49.04Z</time></trkpt><trkpt lat="42.2991679" lon="13.9971221"><ele>158.0</ele><time>2026-05-02T08:21:50.04Z</time></trkpt><trkpt lat="42.2991674" lon="13.9969499"><ele>158.0</ele><time>2026-05-02T08:21:51.041Z</time></trkpt><trkpt lat="42.2991526" lon="13.9967766"><ele>158.0</ele><time>2026-05-02T08:21:52.04Z</time></trkpt><trkpt lat="42.2991119" lon="13.9966223"><ele>158.0</ele><time>2026-05-02T08:21:53.04Z</time></trkpt><trkpt lat="42.2990447" lon="13.9964732"><ele>157.5</ele><time>2026-05-02T08:21:54.041Z</time></trkpt><trkpt lat="42.2989554" lon="13.9963298"><ele>157.0</ele><time>2026-05-02T08:21:55.04Z</time></trkpt><trkpt lat="42.2988446" lon="13.9962103"><ele>156.5</ele><time>2026-05-02T08:21:56.04Z</time></trkpt><trkpt lat="42.2987468" lon="13.9960855"><ele>156.0</ele><time>2026-05-02T08:21:57.04Z</time></trkpt><trkpt lat="42.298675" lon="13.9959567"><ele>154.8</ele><time>2026-05-02T08:21:58.041Z</time></trkpt><trkpt lat="42.2986209" lon="13.995826"><ele>153.6</ele><time>2026-05-02T08:21:59.04Z</time></trkpt><trkpt lat="42.2985728" lon="13.9956956"><ele>152.4</ele><time>2026-05-02T08:22:00.04Z</time></trkpt><trkpt lat="42.2985213" lon="13.9955621"><ele>151.2</ele><time>2026-05-02T08:22:01.04Z</time></trkpt><trkpt lat="42.2984521" lon="13.995432"><ele>150.0</ele><time>2026-05-02T08:22:02.041Z</time></trkpt><trkpt lat="42.2983795" lon="13.9952953"><ele>150.0</ele><time>2026-05-02T08:22:03.041Z</time></trkpt><trkpt lat="42.298317" lon="13.9951621"><ele>150.0</ele><time>2026-05-02T08:22:04.04Z</time></trkpt><trkpt lat="42.2982536" lon="13.9950224"><ele>150.0</ele><time>2026-05-02T08:22:05.04Z</time></trkpt><trkpt lat="42.2981826" lon="13.9948856"><ele>150.0</ele><time>2026-05-02T08:22:06.04Z</time></trkpt><trkpt lat="42.2981004" lon="13.9947636"><ele>147.5</ele><time>2026-05-02T08:22:07.04Z</time></trkpt><trkpt lat="42.2980173" lon="13.9946555"><ele>145.0</ele><time>2026-05-02T08:22:08.041Z</time></trkpt><trkpt lat="42.2979499" lon="13.9945336"><ele>142.5</ele><time>2026-05-02T08:22:09.041Z</time></trkpt><trkpt lat="42.2978887" lon="13.9944038"><ele>140.0</ele><time>2026-05-02T08:22:10.04Z</time></trkpt><trkpt lat="42.297833" lon="13.9942665"><ele>140.25</ele><time>2026-05-02T08:22:11.04Z</time></trkpt><trkpt lat="42.2977761" lon="13.994121"><ele>140.5</ele><time>2026-05-02T08:22:12.04Z</time></trkpt><trkpt lat="42.2977185" lon="13.9939744"><ele>140.75</ele><time>2026-05-02T08:22:13.041Z</time></trkpt><trkpt lat="42.2976576" lon="13.9938337"><ele>141.0</ele><time>2026-05-02T08:22:14.041Z</time></trkpt><trkpt lat="42.2975934" lon="13.993698"><ele>141.0</ele><time>2026-05-02T08:22:15.041Z</time></trkpt><trkpt lat="42.2975247" lon="13.9935591"><ele>141.0</ele><time>2026-05-02T08:22:16.041Z</time></trkpt><trkpt lat="42.2974506" lon="13.9934176"><ele>141.0</ele><time>2026-05-02T08:22:17.041Z</time></trkpt><trkpt lat="42.2973704" lon="13.9932796"><ele>141.0</ele><time>2026-05-02T08:22:18.042Z</time></trkpt><trkpt lat="42.2972918" lon="13.9931344"><ele>139.25</ele><time>2026-05-02T08:22:19.041Z</time></trkpt><trkpt lat="42.2972214" lon="13.9929877"><ele>137.5</ele><time>2026-05-02T08:22:20.041Z</time></trkpt><trkpt lat="42.2971549" lon="13.9928434"><ele>135.75</ele><time>2026-05-02T08:22:21.041Z</time></trkpt><trkpt lat="42.2970809" lon="13.9927032"><ele>134.0</ele><time>2026-05-02T08:22:22.041Z</time></trkpt><trkpt lat="42.2970101" lon="13.992561"><ele>134.75</ele><time>2026-05-02T08:22:23.041Z</time></trkpt><trkpt lat="42.2969484" lon="13.9924184"><ele>135.5</ele><time>2026-05-02T08:22:24.042Z</time></trkpt><trkpt lat="42.2968997" lon="13.9922715"><ele>136.25</ele><time>2026-05-02T08:22:25.041Z</time></trkpt><trkpt lat="42.296859" lon="13.9921298"><ele>137.0</ele><time>2026-05-02T08:22:26.041Z</time></trkpt><trkpt lat="42.2968143" lon="13.9919937"><ele>137.0</ele><time>2026-05-02T08:22:27.042Z</time></trkpt><trkpt lat="42.296776" lon="13.9918599"><ele>137.0</ele><time>2026-05-02T08:22:28.041Z</time></trkpt><trkpt lat="42.2967377" lon="13.991735"><ele>137.0</ele><time>2026-05-02T08:22:29.041Z</time></trkpt><trkpt lat="42.2967099" lon="13.9916129"><ele>137.0</ele><time>2026-05-02T08:22:30.041Z</time></trkpt><trkpt lat="42.2966854" lon="13.9914873"><ele>137.0</ele><time>2026-05-02T08:22:31.041Z</time></trkpt><trkpt lat="42.2966699" lon="13.9913472"><ele>137.25</ele><time>2026-05-02T08:22:32.041Z</time></trkpt><trkpt lat="42.296655" lon="13.9911889"><ele>137.5</ele><time>2026-05-02T08:22:33.041Z</time></trkpt><trkpt lat="42.2966492" lon="13.9910233"><ele>137.75</ele><time>2026-05-02T08:22:34.042Z</time></trkpt><trkpt lat="42.2966434" lon="13.990854"><ele>138.0</ele><time>2026-05-02T08:22:35.041Z</time></trkpt><trkpt lat="42.296637" lon="13.9906951"><ele>138.0</ele><time>2026-05-02T08:22:36.041Z</time></trkpt><trkpt lat="42.2966264" lon="13.9905445"><ele>138.0</ele><time>2026-05-02T08:22:37.041Z</time></trkpt><trkpt lat="42.2966069" lon="13.9904027"><ele>138.0</ele><time>2026-05-02T08:22:38.041Z</time></trkpt><trkpt lat="42.2965663" lon="13.9902719"><ele>138.0</ele><time>2026-05-02T08:22:39.041Z</time></trkpt><trkpt lat="42.2965102" lon="13.9901497"><ele>138.0</ele><time>2026-05-02T08:22:40.041Z</time></trkpt><trkpt lat="42.2964378" lon="13.9900423"><ele>136.0</ele><time>2026-05-02T08:22:41.041Z</time></trkpt><trkpt lat="42.2963494" lon="13.9899573"><ele>134.0</ele><time>2026-05-02T08:22:42.041Z</time></trkpt><trkpt lat="42.2962581" lon="13.9899103"><ele>132.0</ele><time>2026-05-02T08:22:43.041Z</time></trkpt><trkpt lat="42.2961582" lon="13.9898803"><ele>130.0</ele><time>2026-05-02T08:22:44.041Z</time></trkpt><trkpt lat="42.2960607" lon="13.9898383"><ele>128.0</ele><time>2026-05-02T08:22:45.041Z</time></trkpt><trkpt lat="42.2959602" lon="13.989798"><ele>128.0</ele><time>2026-05-02T08:22:46.041Z</time></trkpt><trkpt lat="42.295876" lon="13.9897373"><ele>128.0</ele><time>2026-05-02T08:22:47.041Z</time></trkpt><trkpt lat="42.2957932" lon="13.9896672"><ele>128.0</ele><time>2026-05-02T08:22:48.042Z</time></trkpt><trkpt lat="42.2957143" lon="13.9895984"><ele>128.0</ele><time>2026-05-02T08:22:49.042Z</time></trkpt><trkpt lat="42.2956365" lon="13.9895343"><ele>128.0</ele><time>2026-05-02T08:22:50.041Z</time></trkpt><trkpt lat="42.2955618" lon="13.9894753"><ele>127.66666666666666</ele><time>2026-05-02T08:22:51.041Z</time></trkpt><trkpt lat="42.2954911" lon="13.9894233"><ele>127.33333333333333</ele><time>2026-05-02T08:22:52.042Z</time></trkpt><trkpt lat="42.2954259" lon="13.9893824"><ele>127.0</ele><time>2026-05-02T08:22:53.041Z</time></trkpt><trkpt lat="42.2953254" lon="13.9893291"><ele>126.66666666666666</ele><time>2026-05-02T08:22:55.041Z</time></trkpt><trkpt lat="42.2952529" lon="13.9892659"><ele>126.33333333333333</ele><time>2026-05-02T08:22:58.041Z</time></trkpt><trkpt lat="42.2951735" lon="13.9892689"><ele>126.0</ele><time>2026-05-02T08:23:01.041Z</time></trkpt><trkpt lat="42.2951161" lon="13.9893122"><ele>126.0</ele><time>2026-05-02T08:23:02.042Z</time></trkpt><trkpt lat="42.2950441" lon="13.989337"><ele>126.0</ele><time>2026-05-02T08:23:03.041Z</time></trkpt><trkpt lat="42.2949685" lon="13.9892567"><ele>126.0</ele><time>2026-05-02T08:23:05.041Z</time></trkpt><trkpt lat="42.2949529" lon="13.9891045"><ele>126.0</ele><time>2026-05-02T08:23:07.041Z</time></trkpt><trkpt lat="42.2949386" lon="13.9889876"><ele>126.0</ele><time>2026-05-02T08:23:08.041Z</time></trkpt><trkpt lat="42.2949102" lon="13.9888579"><ele>127.0</ele><time>2026-05-02T08:23:09.041Z</time></trkpt><trkpt lat="42.2948744" lon="13.9887118"><ele>128.0</ele><time>2026-05-02T08:23:10.042Z</time></trkpt><trkpt lat="42.2948302" lon="13.9885464"><ele>129.0</ele><time>2026-05-02T08:23:11.041Z</time></trkpt><trkpt lat="42.2947921" lon="13.9883776"><ele>130.0</ele><time>2026-05-02T08:23:12.041Z</time></trkpt><trkpt lat="42.2947493" lon="13.9882062"><ele>130.75</ele><time>2026-05-02T08:23:13.041Z</time></trkpt><trkpt lat="42.294702" lon="13.9880389"><ele>131.5</ele><time>2026-05-02T08:23:14.041Z</time></trkpt><trkpt lat="42.2946492" lon="13.9878576"><ele>132.25</ele><time>2026-05-02T08:23:15.041Z</time></trkpt><trkpt lat="42.2945937" lon="13.9876718"><ele>133.0</ele><time>2026-05-02T08:23:16.042Z</time></trkpt><trkpt lat="42.29454" lon="13.9874858"><ele>133.4</ele><time>2026-05-02T08:23:17.042Z</time></trkpt><trkpt lat="42.2944885" lon="13.9873223"><ele>133.8</ele><time>2026-05-02T08:23:18.041Z</time></trkpt><trkpt lat="42.2944511" lon="13.9871775"><ele>134.2</ele><time>2026-05-02T08:23:19.041Z</time></trkpt><trkpt lat="42.2944165" lon="13.9870588"><ele>134.6</ele><time>2026-05-02T08:23:20.041Z</time></trkpt><trkpt lat="42.2943881" lon="13.9869671"><ele>135.0</ele><time>2026-05-02T08:23:21.041Z</time></trkpt><trkpt lat="42.2943923" lon="13.9868001"><ele>135.0</ele><time>2026-05-02T08:23:23.041Z</time></trkpt><trkpt lat="42.2944079" lon="13.9866954"><ele>135.0</ele><time>2026-05-02T08:23:25.041Z</time></trkpt><trkpt lat="42.2943688" lon="13.9865776"><ele>135.0</ele><time>2026-05-02T08:23:28.041Z</time></trkpt><trkpt lat="42.2943226" lon="13.9864654"><ele>135.0</ele><time>2026-05-02T08:23:30.041Z</time></trkpt><trkpt lat="42.2942621" lon="13.9863054"><ele>135.0</ele><time>2026-05-02T08:23:32.041Z</time></trkpt><trkpt lat="42.2942304" lon="13.986193"><ele>135.6</ele><time>2026-05-02T08:23:33.041Z</time></trkpt><trkpt lat="42.2941971" lon="13.9860739"><ele>136.2</ele><time>2026-05-02T08:23:34.041Z</time></trkpt><trkpt lat="42.2941629" lon="13.9859436"><ele>136.8</ele><time>2026-05-02T08:23:35.041Z</time></trkpt><trkpt lat="42.2941228" lon="13.9858024"><ele>137.4</ele><time>2026-05-02T08:23:36.041Z</time></trkpt><trkpt lat="42.294081" lon="13.9856442"><ele>138.0</ele><time>2026-05-02T08:23:37.041Z</time></trkpt><trkpt lat="42.29403" lon="13.9854651"><ele>138.75</ele><time>2026-05-02T08:23:38.041Z</time></trkpt><trkpt lat="42.2939784" lon="13.9852863"><ele>139.5</ele><time>2026-05-02T08:23:39.041Z</time></trkpt><trkpt lat="42.2939342" lon="13.9851151"><ele>140.25</ele><time>2026-05-02T08:23:40.041Z</time></trkpt><trkpt lat="42.2938977" lon="13.9849674"><ele>141.0</ele><time>2026-05-02T08:23:41.041Z</time></trkpt><trkpt lat="42.293852" lon="13.9848415"><ele>142.4</ele><time>2026-05-02T08:23:42.041Z</time></trkpt><trkpt lat="42.2938021" lon="13.9847169"><ele>143.8</ele><time>2026-05-02T08:23:43.041Z</time></trkpt><trkpt lat="42.2937432" lon="13.9846016"><ele>145.20000000000002</ele><time>2026-05-02T08:23:44.041Z</time></trkpt><trkpt lat="42.2936772" lon="13.9844812"><ele>146.6</ele><time>2026-05-02T08:23:45.041Z</time></trkpt><trkpt lat="42.2936012" lon="13.9843687"><ele>148.0</ele><time>2026-05-02T08:23:46.041Z</time></trkpt><trkpt lat="42.2935327" lon="13.9842554"><ele>148.4</ele><time>2026-05-02T08:23:47.042Z</time></trkpt><trkpt lat="42.2934588" lon="13.9841421"><ele>148.8</ele><time>2026-05-02T08:23:48.042Z</time></trkpt><trkpt lat="42.2933807" lon="13.9840402"><ele>149.2</ele><time>2026-05-02T08:23:49.041Z</time></trkpt><trkpt lat="42.2932966" lon="13.983955"><ele>149.6</ele><time>2026-05-02T08:23:50.042Z</time></trkpt><trkpt lat="42.2932056" lon="13.9838755"><ele>150.0</ele><time>2026-05-02T08:23:51.041Z</time></trkpt><trkpt lat="42.2931176" lon="13.9837957"><ele>152.0</ele><time>2026-05-02T08:23:52.042Z</time></trkpt><trkpt lat="42.2930382" lon="13.9837076"><ele>154.0</ele><time>2026-05-02T08:23:53.041Z</time></trkpt><trkpt lat="42.2929656" lon="13.9835976"><ele>156.0</ele><time>2026-05-02T08:23:54.041Z</time></trkpt><trkpt lat="42.2928977" lon="13.9834858"><ele>158.0</ele><time>2026-05-02T08:23:55.041Z</time></trkpt><trkpt lat="42.2928316" lon="13.983355"><ele>160.0</ele><time>2026-05-02T08:23:56.041Z</time></trkpt><trkpt lat="42.2927672" lon="13.9832128"><ele>160.0</ele><time>2026-05-02T08:23:57.041Z</time></trkpt><trkpt lat="42.2926915" lon="13.9830727"><ele>160.0</ele><time>2026-05-02T08:23:58.041Z</time></trkpt><trkpt lat="42.2926214" lon="13.9829429"><ele>160.0</ele><time>2026-05-02T08:23:59.042Z</time></trkpt><trkpt lat="42.2925493" lon="13.9828148"><ele>160.0</ele><time>2026-05-02T08:24:00.041Z</time></trkpt><trkpt lat="42.2924756" lon="13.9826896"><ele>160.0</ele><time>2026-05-02T08:24:01.041Z</time></trkpt><trkpt lat="42.292404" lon="13.9825552"><ele>160.0</ele><time>2026-05-02T08:24:02.041Z</time></trkpt><trkpt lat="42.2923245" lon="13.9824195"><ele>160.0</ele><time>2026-05-02T08:24:03.041Z</time></trkpt><trkpt lat="42.2922491" lon="13.9822942"><ele>160.0</ele><time>2026-05-02T08:24:04.041Z</time></trkpt><trkpt lat="42.292173" lon="13.9821719"><ele>161.4</ele><time>2026-05-02T08:24:05.041Z</time></trkpt><trkpt lat="42.2921063" lon="13.9820617"><ele>162.8</ele><time>2026-05-02T08:24:06.041Z</time></trkpt><trkpt lat="42.2920417" lon="13.9819593"><ele>164.2</ele><time>2026-05-02T08:24:07.041Z</time></trkpt><trkpt lat="42.291974" lon="13.9818676"><ele>165.6</ele><time>2026-05-02T08:24:08.041Z</time></trkpt><trkpt lat="42.2919062" lon="13.9817628"><ele>167.0</ele><time>2026-05-02T08:24:09.041Z</time></trkpt><trkpt lat="42.2918316" lon="13.9816574"><ele>167.0</ele><time>2026-05-02T08:24:10.041Z</time></trkpt><trkpt lat="42.2917555" lon="13.9815539"><ele>167.0</ele><time>2026-05-02T08:24:11.041Z</time></trkpt><trkpt lat="42.2916902" lon="13.9814627"><ele>167.0</ele><time>2026-05-02T08:24:12.042Z</time></trkpt><trkpt lat="42.2916328" lon="13.9813799"><ele>167.0</ele><time>2026-05-02T08:24:13.041Z</time></trkpt><trkpt lat="42.2915785" lon="13.9813039"><ele>167.0</ele><time>2026-05-02T08:24:14.041Z</time></trkpt><trkpt lat="42.2915309" lon="13.9812321"><ele>167.0</ele><time>2026-05-02T08:24:15.041Z</time></trkpt><trkpt lat="42.2914815" lon="13.9811681"><ele>168.8</ele><time>2026-05-02T08:24:16.041Z</time></trkpt><trkpt lat="42.2913867" lon="13.9810932"><ele>170.6</ele><time>2026-05-02T08:24:18.041Z</time></trkpt><trkpt lat="42.291279" lon="13.9810877"><ele>172.4</ele><time>2026-05-02T08:24:20.041Z</time></trkpt><trkpt lat="42.2911727" lon="13.9810691"><ele>174.20000000000002</ele><time>2026-05-02T08:24:22.041Z</time></trkpt><trkpt lat="42.2910543" lon="13.9810558"><ele>176.0</ele><time>2026-05-02T08:24:24.042Z</time></trkpt><trkpt lat="42.2909829" lon="13.9810114"><ele>176.0</ele><time>2026-05-02T08:24:25.042Z</time></trkpt><trkpt lat="42.2909266" lon="13.9809214"><ele>176.0</ele><time>2026-05-02T08:24:26.041Z</time></trkpt><trkpt lat="42.2908948" lon="13.9807883"><ele>176.0</ele><time>2026-05-02T08:24:27.041Z</time></trkpt><trkpt lat="42.2908848" lon="13.9806417"><ele>176.0</ele><time>2026-05-02T08:24:28.042Z</time></trkpt><trkpt lat="42.2908796" lon="13.9804827"><ele>176.0</ele><time>2026-05-02T08:24:29.041Z</time></trkpt><trkpt lat="42.2908717" lon="13.9803265"><ele>174.75</ele><time>2026-05-02T08:24:30.042Z</time></trkpt><trkpt lat="42.2908415" lon="13.9801672"><ele>173.5</ele><time>2026-05-02T08:24:31.041Z</time></trkpt><trkpt lat="42.2907865" lon="13.980012"><ele>172.25</ele><time>2026-05-02T08:24:32.041Z</time></trkpt><trkpt lat="42.2907093" lon="13.9798704"><ele>171.0</ele><time>2026-05-02T08:24:33.042Z</time></trkpt><trkpt lat="42.2906125" lon="13.9797426"><ele>173.8</ele><time>2026-05-02T08:24:34.042Z</time></trkpt><trkpt lat="42.2905087" lon="13.979642"><ele>176.60000000000002</ele><time>2026-05-02T08:24:35.041Z</time></trkpt><trkpt lat="42.2904149" lon="13.9795604"><ele>179.4</ele><time>2026-05-02T08:24:36.041Z</time></trkpt><trkpt lat="42.2903387" lon="13.9794866"><ele>182.2</ele><time>2026-05-02T08:24:37.041Z</time></trkpt><trkpt lat="42.2903012" lon="13.9793902"><ele>185.0</ele><time>2026-05-02T08:24:38.041Z</time></trkpt><trkpt lat="42.2902857" lon="13.9792838"><ele>185.0</ele><time>2026-05-02T08:24:39.041Z</time></trkpt><trkpt lat="42.2903073" lon="13.979168"><ele>185.0</ele><time>2026-05-02T08:24:40.041Z</time></trkpt><trkpt lat="42.2903527" lon="13.9790267"><ele>185.0</ele><time>2026-05-02T08:24:41.041Z</time></trkpt><trkpt lat="42.2903984" lon="13.9788945"><ele>185.0</ele><time>2026-05-02T08:24:42.042Z</time></trkpt><trkpt lat="42.2904135" lon="13.9787783"><ele>185.0</ele><time>2026-05-02T08:24:43.042Z</time></trkpt><trkpt lat="42.2903963" lon="13.9786736"><ele>184.99999999999997</ele><time>2026-05-02T08:24:44.041Z</time></trkpt><trkpt lat="42.2903513" lon="13.9786106"><ele>185.0</ele><time>2026-05-02T08:24:45.041Z</time></trkpt><trkpt lat="42.2902868" lon="13.9786015"><ele>185.0</ele><time>2026-05-02T08:24:46.041Z</time></trkpt><trkpt lat="42.2902182" lon="13.9786323"><ele>185.0</ele><time>2026-05-02T08:24:47.042Z</time></trkpt><trkpt lat="42.2901547" lon="13.9786818"><ele>185.0</ele><time>2026-05-02T08:24:48.041Z</time></trkpt><trkpt lat="42.290085" lon="13.9787356"><ele>184.99999999999997</ele><time>2026-05-02T08:24:49.041Z</time></trkpt><trkpt lat="42.2900024" lon="13.9787862"><ele>185.0</ele><time>2026-05-02T08:24:50.041Z</time></trkpt><trkpt lat="42.289918" lon="13.9788344"><ele>185.0</ele><time>2026-05-02T08:24:51.042Z</time></trkpt><trkpt lat="42.2898316" lon="13.9788728"><ele>185.0</ele><time>2026-05-02T08:24:52.042Z</time></trkpt><trkpt lat="42.2897616" lon="13.9789036"><ele>185.0</ele><time>2026-05-02T08:24:53.041Z</time></trkpt><trkpt lat="42.2896963" lon="13.9789051"><ele>185.0</ele><time>2026-05-02T08:24:54.041Z</time></trkpt><trkpt lat="42.2896367" lon="13.9788612"><ele>185.0</ele><time>2026-05-02T08:24:55.042Z</time></trkpt><trkpt lat="42.2895911" lon="13.9787793"><ele>185.0</ele><time>2026-05-02T08:24:56.041Z</time></trkpt><trkpt lat="42.2895454" lon="13.9786681"><ele>187.16666666666666</ele><time>2026-05-02T08:24:57.042Z</time></trkpt><trkpt lat="42.2895173" lon="13.9785385"><ele>189.33333333333331</ele><time>2026-05-02T08:24:58.042Z</time></trkpt><trkpt lat="42.289493" lon="13.9784187"><ele>191.5</ele><time>2026-05-02T08:24:59.041Z</time></trkpt><trkpt lat="42.2894791" lon="13.9783157"><ele>193.66666666666666</ele><time>2026-05-02T08:25:00.042Z</time></trkpt><trkpt lat="42.2894689" lon="13.9782217"><ele>195.83333333333334</ele><time>2026-05-02T08:25:01.041Z</time></trkpt><trkpt lat="42.289455" lon="13.9781235"><ele>198.0</ele><time>2026-05-02T08:25:02.041Z</time></trkpt><trkpt lat="42.289416" lon="13.9779986"><ele>198.5</ele><time>2026-05-02T08:25:04.041Z</time></trkpt><trkpt lat="42.289369" lon="13.9779188"><ele>199.0</ele><time>2026-05-02T08:25:06.041Z</time></trkpt><trkpt lat="42.2893023" lon="13.977873"><ele>199.5</ele><time>2026-05-02T08:25:08.041Z</time></trkpt><trkpt lat="42.2892026" lon="13.97787"><ele>200.0</ele><time>2026-05-02T08:25:10.041Z</time></trkpt><trkpt lat="42.2890943" lon="13.9779307"><ele>200.5</ele><time>2026-05-02T08:25:12.041Z</time></trkpt><trkpt lat="42.2890229" lon="13.9779771"><ele>201.0</ele><time>2026-05-02T08:25:13.041Z</time></trkpt><trkpt lat="42.288944" lon="13.978026"><ele>203.16666666666666</ele><time>2026-05-02T08:25:14.041Z</time></trkpt><trkpt lat="42.2888699" lon="13.9780902"><ele>205.33333333333331</ele><time>2026-05-02T08:25:15.041Z</time></trkpt><trkpt lat="42.2888153" lon="13.9781703"><ele>207.5</ele><time>2026-05-02T08:25:16.041Z</time></trkpt><trkpt lat="42.2887699" lon="13.9782682"><ele>209.66666666666666</ele><time>2026-05-02T08:25:17.042Z</time></trkpt><trkpt lat="42.2887358" lon="13.978374"><ele>211.83333333333331</ele><time>2026-05-02T08:25:18.041Z</time></trkpt><trkpt lat="42.2886982" lon="13.9784766"><ele>214.0</ele><time>2026-05-02T08:25:19.041Z</time></trkpt><trkpt lat="42.2886558" lon="13.9785777"><ele>213.99999999999997</ele><time>2026-05-02T08:25:20.041Z</time></trkpt><trkpt lat="42.2886038" lon="13.9786778"><ele>214.0</ele><time>2026-05-02T08:25:21.041Z</time></trkpt><trkpt lat="42.2885443" lon="13.9787782"><ele>214.0</ele><time>2026-05-02T08:25:22.042Z</time></trkpt><trkpt lat="42.2884913" lon="13.9788772"><ele>214.0</ele><time>2026-05-02T08:25:23.041Z</time></trkpt><trkpt lat="42.2884432" lon="13.9789668"><ele>213.99999999999997</ele><time>2026-05-02T08:25:24.041Z</time></trkpt><trkpt lat="42.2884121" lon="13.9790508"><ele>214.0</ele><time>2026-05-02T08:25:25.041Z</time></trkpt><trkpt lat="42.2884057" lon="13.9791798"><ele>214.79999999999998</ele><time>2026-05-02T08:25:27.041Z</time></trkpt><trkpt lat="42.2883988" lon="13.979345"><ele>215.59999999999997</ele><time>2026-05-02T08:25:29.041Z</time></trkpt><trkpt lat="42.2883882" lon="13.9794432"><ele>216.4</ele><time>2026-05-02T08:25:30.042Z</time></trkpt><trkpt lat="42.2883773" lon="13.9795581"><ele>217.2</ele><time>2026-05-02T08:25:31.041Z</time></trkpt><trkpt lat="42.2883651" lon="13.9796864"><ele>218.0</ele><time>2026-05-02T08:25:32.041Z</time></trkpt><trkpt lat="42.2883538" lon="13.9798169"><ele>218.00000000000003</ele><time>2026-05-02T08:25:33.041Z</time></trkpt><trkpt lat="42.2883413" lon="13.9799383"><ele>218.0</ele><time>2026-05-02T08:25:34.041Z</time></trkpt><trkpt lat="42.2883392" lon="13.980046"><ele>218.0</ele><time>2026-05-02T08:25:35.041Z</time></trkpt><trkpt lat="42.2883502" lon="13.980136"><ele>218.0</ele><time>2026-05-02T08:25:36.041Z</time></trkpt><trkpt lat="42.2884032" lon="13.9802995"><ele>218.00000000000003</ele><time>2026-05-02T08:25:38.042Z</time></trkpt><trkpt lat="42.2884417" lon="13.9803843"><ele>218.0</ele><time>2026-05-02T08:25:39.041Z</time></trkpt><trkpt lat="42.2884748" lon="13.9804727"><ele>218.50000000000003</ele><time>2026-05-02T08:25:40.042Z</time></trkpt><trkpt lat="42.2884947" lon="13.9805594"><ele>219.0</ele><time>2026-05-02T08:25:41.042Z</time></trkpt><trkpt lat="42.2884632" lon="13.9807236"><ele>219.5</ele><time>2026-05-02T08:25:43.041Z</time></trkpt><trkpt lat="42.2884159" lon="13.9807805"><ele>220.0</ele><time>2026-05-02T08:25:44.041Z</time></trkpt><trkpt lat="42.2883052" lon="13.9808248"><ele>220.50000000000003</ele><time>2026-05-02T08:25:46.041Z</time></trkpt><trkpt lat="42.2882442" lon="13.9807994"><ele>221.0</ele><time>2026-05-02T08:25:47.041Z</time></trkpt><trkpt lat="42.2881622" lon="13.9806757"><ele>221.0</ele><time>2026-05-02T08:25:49.041Z</time></trkpt><trkpt lat="42.2881292" lon="13.980592"><ele>221.00000000000003</ele><time>2026-05-02T08:25:50.041Z</time></trkpt><trkpt lat="42.2880479" lon="13.9805222"><ele>221.00000000000003</ele><time>2026-05-02T08:25:52.042Z</time></trkpt><trkpt lat="42.2879536" lon="13.9805524"><ele>221.0</ele><time>2026-05-02T08:25:54.041Z</time></trkpt><trkpt lat="42.2879179" lon="13.9806834"><ele>221.0</ele><time>2026-05-02T08:25:56.041Z</time></trkpt><trkpt lat="42.2879462" lon="13.9808552"><ele>226.33333333333334</ele><time>2026-05-02T08:25:58.041Z</time></trkpt><trkpt lat="42.2879612" lon="13.9809623"><ele>231.66666666666669</ele><time>2026-05-02T08:25:59.041Z</time></trkpt><trkpt lat="42.287975" lon="13.9810669"><ele>237.0</ele><time>2026-05-02T08:26:00.041Z</time></trkpt><trkpt lat="42.287988" lon="13.9811666"><ele>242.33333333333331</ele><time>2026-05-02T08:26:01.042Z</time></trkpt><trkpt lat="42.2880053" lon="13.9812608"><ele>247.66666666666666</ele><time>2026-05-02T08:26:02.042Z</time></trkpt><trkpt lat="42.2879963" lon="13.9814089"><ele>253.0</ele><time>2026-05-02T08:26:04.041Z</time></trkpt><trkpt lat="42.2879353" lon="13.9814648"><ele>252.99999999999997</ele><time>2026-05-02T08:26:06.042Z</time></trkpt><trkpt lat="42.2878417" lon="13.9814264"><ele>253.0</ele><time>2026-05-02T08:26:08.041Z</time></trkpt><trkpt lat="42.2877847" lon="13.9813013"><ele>253.0</ele><time>2026-05-02T08:26:10.041Z</time></trkpt><trkpt lat="42.28777" lon="13.9812152"><ele>253.0</ele><time>2026-05-02T08:26:11.041Z</time></trkpt><trkpt lat="42.2877365" lon="13.9811368"><ele>252.99999999999997</ele><time>2026-05-02T08:26:12.041Z</time></trkpt><trkpt lat="42.2876523" lon="13.9810897"><ele>253.0</ele><time>2026-05-02T08:26:14.041Z</time></trkpt><trkpt lat="42.2875573" lon="13.9810459"><ele>252.99999999999997</ele><time>2026-05-02T08:26:16.041Z</time></trkpt><trkpt lat="42.2874809" lon="13.981022"><ele>253.0</ele><time>2026-05-02T08:26:18.041Z</time></trkpt><trkpt lat="42.287395" lon="13.9809843"><ele>253.0</ele><time>2026-05-02T08:26:20.042Z</time></trkpt><trkpt lat="42.2873306" lon="13.9809522"><ele>253.0</ele><time>2026-05-02T08:26:22.042Z</time></trkpt><trkpt lat="42.2872358" lon="13.9809375"><ele>252.99999999999997</ele><time>2026-05-02T08:26:24.042Z</time></trkpt><trkpt lat="42.2871723" lon="13.980924"><ele>253.0</ele><time>2026-05-02T08:26:25.042Z</time></trkpt><trkpt lat="42.2871057" lon="13.9808994"><ele>253.66666666666666</ele><time>2026-05-02T08:26:26.041Z</time></trkpt><trkpt lat="42.2870467" lon="13.9808687"><ele>254.33333333333331</ele><time>2026-05-02T08:26:27.042Z</time></trkpt><trkpt lat="42.2869777" lon="13.9807732"><ele>255.0</ele><time>2026-05-02T08:26:29.041Z</time></trkpt><trkpt lat="42.2869541" lon="13.9805987"><ele>255.66666666666669</ele><time>2026-05-02T08:26:31.042Z</time></trkpt><trkpt lat="42.2869544" lon="13.9804936"><ele>256.33333333333337</ele><time>2026-05-02T08:26:32.042Z</time></trkpt><trkpt lat="42.2869632" lon="13.9803947"><ele>257.0</ele><time>2026-05-02T08:26:33.041Z</time></trkpt><trkpt lat="42.2869662" lon="13.9802828"><ele>257.0</ele><time>2026-05-02T08:26:34.042Z</time></trkpt><trkpt lat="42.2869673" lon="13.9801629"><ele>257.0</ele><time>2026-05-02T08:26:35.042Z</time></trkpt><trkpt lat="42.2869652" lon="13.9800442"><ele>257.0</ele><time>2026-05-02T08:26:36.041Z</time></trkpt><trkpt lat="42.2869546" lon="13.9799293"><ele>257.0</ele><time>2026-05-02T08:26:37.041Z</time></trkpt><trkpt lat="42.286932" lon="13.9798244"><ele>257.0</ele><time>2026-05-02T08:26:38.041Z</time></trkpt><trkpt lat="42.2869017" lon="13.9797201"><ele>257.0</ele><time>2026-05-02T08:26:39.041Z</time></trkpt><trkpt lat="42.2868703" lon="13.9796099"><ele>257.2</ele><time>2026-05-02T08:26:40.041Z</time></trkpt><trkpt lat="42.286851" lon="13.9794987"><ele>257.4</ele><time>2026-05-02T08:26:41.042Z</time></trkpt><trkpt lat="42.2868425" lon="13.9793794"><ele>257.6</ele><time>2026-05-02T08:26:42.042Z</time></trkpt><trkpt lat="42.2868389" lon="13.9792571"><ele>257.8</ele><time>2026-05-02T08:26:43.041Z</time></trkpt><trkpt lat="42.2868319" lon="13.9791358"><ele>258.0</ele><time>2026-05-02T08:26:44.041Z</time></trkpt><trkpt lat="42.2868148" lon="13.9790069"><ele>257.6</ele><time>2026-05-02T08:26:45.041Z</time></trkpt><trkpt lat="42.286793" lon="13.9788757"><ele>257.20000000000005</ele><time>2026-05-02T08:26:46.041Z</time></trkpt><trkpt lat="42.2867641" lon="13.978739"><ele>256.8</ele><time>2026-05-02T08:26:47.042Z</time></trkpt><trkpt lat="42.2867256" lon="13.9786037"><ele>256.40000000000003</ele><time>2026-05-02T08:26:48.041Z</time></trkpt><trkpt lat="42.2866805" lon="13.9784809"><ele>256.0</ele><time>2026-05-02T08:26:49.041Z</time></trkpt><trkpt lat="42.2866266" lon="13.9783532"><ele>256.25</ele><time>2026-05-02T08:26:50.041Z</time></trkpt><trkpt lat="42.2865531" lon="13.9782325"><ele>256.5</ele><time>2026-05-02T08:26:51.041Z</time></trkpt><trkpt lat="42.286466" lon="13.978129"><ele>256.75</ele><time>2026-05-02T08:26:52.041Z</time></trkpt><trkpt lat="42.2863712" lon="13.9780332"><ele>257.0</ele><time>2026-05-02T08:26:53.041Z</time></trkpt><trkpt lat="42.28628" lon="13.9779293"><ele>258.4</ele><time>2026-05-02T08:26:54.041Z</time></trkpt><trkpt lat="42.2861986" lon="13.9778214"><ele>259.79999999999995</ele><time>2026-05-02T08:26:55.042Z</time></trkpt><trkpt lat="42.2861303" lon="13.9777088"><ele>261.2</ele><time>2026-05-02T08:26:56.041Z</time></trkpt><trkpt lat="42.2860614" lon="13.9775874"><ele>262.59999999999997</ele><time>2026-05-02T08:26:57.041Z</time></trkpt><trkpt lat="42.2860031" lon="13.9774678"><ele>264.0</ele><time>2026-05-02T08:26:58.041Z</time></trkpt><trkpt lat="42.2859382" lon="13.9773526"><ele>264.0</ele><time>2026-05-02T08:26:59.041Z</time></trkpt><trkpt lat="42.2858623" lon="13.9772516"><ele>264.0</ele><time>2026-05-02T08:27:00.041Z</time></trkpt><trkpt lat="42.2857689" lon="13.9771478"><ele>264.0</ele><time>2026-05-02T08:27:01.042Z</time></trkpt><trkpt lat="42.2856653" lon="13.9770641"><ele>264.0</ele><time>2026-05-02T08:27:02.041Z</time></trkpt><trkpt lat="42.2855705" lon="13.9769804"><ele>264.8333333333333</ele><time>2026-05-02T08:27:03.041Z</time></trkpt><trkpt lat="42.2854887" lon="13.9769081"><ele>265.6666666666667</ele><time>2026-05-02T08:27:04.041Z</time></trkpt><trkpt lat="42.2854294" lon="13.9768432"><ele>266.5</ele><time>2026-05-02T08:27:05.041Z</time></trkpt><trkpt lat="42.2853899" lon="13.9767655"><ele>267.33333333333337</ele><time>2026-05-02T08:27:06.041Z</time></trkpt><trkpt lat="42.2853638" lon="13.9766805"><ele>268.1666666666667</ele><time>2026-05-02T08:27:07.041Z</time></trkpt><trkpt lat="42.2853596" lon="13.976562"><ele>269.0</ele><time>2026-05-02T08:27:08.041Z</time></trkpt><trkpt lat="42.285373" lon="13.9764405"><ele>269.0</ele><time>2026-05-02T08:27:09.041Z</time></trkpt><trkpt lat="42.285387" lon="13.9763115"><ele>269.0</ele><time>2026-05-02T08:27:10.041Z</time></trkpt><trkpt lat="42.2854151" lon="13.9761773"><ele>269.0</ele><time>2026-05-02T08:27:11.041Z</time></trkpt><trkpt lat="42.2854269" lon="13.9760454"><ele>269.0</ele><time>2026-05-02T08:27:12.041Z</time></trkpt><trkpt lat="42.2854307" lon="13.9759102"><ele>269.0</ele><time>2026-05-02T08:27:13.041Z</time></trkpt><trkpt lat="42.2854179" lon="13.9757707"><ele>270.25</ele><time>2026-05-02T08:27:14.041Z</time></trkpt><trkpt lat="42.2853951" lon="13.9756134"><ele>271.5</ele><time>2026-05-02T08:27:15.041Z</time></trkpt><trkpt lat="42.2853685" lon="13.9754261"><ele>272.75</ele><time>2026-05-02T08:27:16.041Z</time></trkpt><trkpt lat="42.2853415" lon="13.9752399"><ele>274.0</ele><time>2026-05-02T08:27:17.042Z</time></trkpt><trkpt lat="42.2853053" lon="13.9750697"><ele>274.5</ele><time>2026-05-02T08:27:18.041Z</time></trkpt><trkpt lat="42.2852535" lon="13.9749062"><ele>275.0</ele><time>2026-05-02T08:27:19.041Z</time></trkpt><trkpt lat="42.2851834" lon="13.9747545"><ele>275.5</ele><time>2026-05-02T08:27:20.041Z</time></trkpt><trkpt lat="42.2851045" lon="13.9745805"><ele>276.0</ele><time>2026-05-02T08:27:21.041Z</time></trkpt><trkpt lat="42.2850155" lon="13.9744055"><ele>276.0</ele><time>2026-05-02T08:27:22.041Z</time></trkpt><trkpt lat="42.2849251" lon="13.9742216"><ele>276.0</ele><time>2026-05-02T08:27:23.041Z</time></trkpt><trkpt lat="42.2848412" lon="13.9740436"><ele>276.0</ele><time>2026-05-02T08:27:24.041Z</time></trkpt><trkpt lat="42.2847639" lon="13.9738554"><ele>279.0</ele><time>2026-05-02T08:27:25.041Z</time></trkpt><trkpt lat="42.2846907" lon="13.9736682"><ele>282.0</ele><time>2026-05-02T08:27:26.041Z</time></trkpt><trkpt lat="42.2846257" lon="13.973507"><ele>285.0</ele><time>2026-05-02T08:27:27.042Z</time></trkpt><trkpt lat="42.2845626" lon="13.9733661"><ele>288.0</ele><time>2026-05-02T08:27:28.041Z</time></trkpt><trkpt lat="42.2844912" lon="13.9732345"><ele>288.75</ele><time>2026-05-02T08:27:29.042Z</time></trkpt><trkpt lat="42.2844024" lon="13.9731131"><ele>289.5</ele><time>2026-05-02T08:27:30.041Z</time></trkpt><trkpt lat="42.2842973" lon="13.9730207"><ele>290.25</ele><time>2026-05-02T08:27:31.041Z</time></trkpt><trkpt lat="42.2841723" lon="13.9729238"><ele>291.0</ele><time>2026-05-02T08:27:32.041Z</time></trkpt><trkpt lat="42.2840358" lon="13.9728417"><ele>292.5</ele><time>2026-05-02T08:27:33.041Z</time></trkpt><trkpt lat="42.2839055" lon="13.9727607"><ele>294.0</ele><time>2026-05-02T08:27:34.041Z</time></trkpt><trkpt lat="42.2837766" lon="13.9726962"><ele>295.5</ele><time>2026-05-02T08:27:35.041Z</time></trkpt><trkpt lat="42.2836541" lon="13.9726284"><ele>297.0</ele><time>2026-05-02T08:27:36.041Z</time></trkpt><trkpt lat="42.2835336" lon="13.9725737"><ele>297.0</ele><time>2026-05-02T08:27:37.041Z</time></trkpt><trkpt lat="42.2834145" lon="13.972539"><ele>297.0</ele><time>2026-05-02T08:27:38.041Z</time></trkpt><trkpt lat="42.2833049" lon="13.9725257"><ele>297.0</ele><time>2026-05-02T08:27:39.041Z</time></trkpt><trkpt lat="42.2832006" lon="13.9724937"><ele>297.0</ele><time>2026-05-02T08:27:40.041Z</time></trkpt><trkpt lat="42.2831282" lon="13.9724237"><ele>297.0</ele><time>2026-05-02T08:27:41.041Z</time></trkpt><trkpt lat="42.2830741" lon="13.9723367"><ele>297.6666666666667</ele><time>2026-05-02T08:27:42.041Z</time></trkpt><trkpt lat="42.2830091" lon="13.972245"><ele>298.3333333333333</ele><time>2026-05-02T08:27:43.041Z</time></trkpt><trkpt lat="42.2829593" lon="13.9721713"><ele>299.0</ele><time>2026-05-02T08:27:44.041Z</time></trkpt><trkpt lat="42.2829125" lon="13.9720904"><ele>299.66666666666663</ele><time>2026-05-02T08:27:46.042Z</time></trkpt><trkpt lat="42.2829017" lon="13.9719804"><ele>300.3333333333333</ele><time>2026-05-02T08:27:50.042Z</time></trkpt><trkpt lat="42.2829516" lon="13.9718809"><ele>301.0</ele><time>2026-05-02T08:27:53.042Z</time></trkpt><trkpt lat="42.2830152" lon="13.971766"><ele>301.0</ele><time>2026-05-02T08:27:55.041Z</time></trkpt><trkpt lat="42.2830534" lon="13.9716946"><ele>301.0</ele><time>2026-05-02T08:27:56.041Z</time></trkpt><trkpt lat="42.2830822" lon="13.9716126"><ele>301.0</ele><time>2026-05-02T08:27:57.042Z</time></trkpt><trkpt lat="42.2831075" lon="13.9715175"><ele>301.0</ele><time>2026-05-02T08:27:58.041Z</time></trkpt><trkpt lat="42.2831279" lon="13.9714168"><ele>301.0</ele><time>2026-05-02T08:27:59.041Z</time></trkpt><trkpt lat="42.283163" lon="13.9713076"><ele>301.0</ele><time>2026-05-02T08:28:00.041Z</time></trkpt><trkpt lat="42.283209" lon="13.971199"><ele>299.0</ele><time>2026-05-02T08:28:01.041Z</time></trkpt><trkpt lat="42.2832719" lon="13.9711026"><ele>297.0</ele><time>2026-05-02T08:28:02.041Z</time></trkpt><trkpt lat="42.2833497" lon="13.9710104"><ele>295.0</ele><time>2026-05-02T08:28:03.041Z</time></trkpt><trkpt lat="42.2834249" lon="13.9709264"><ele>293.0</ele><time>2026-05-02T08:28:04.041Z</time></trkpt><trkpt lat="42.2834947" lon="13.9708396"><ele>291.0</ele><time>2026-05-02T08:28:05.042Z</time></trkpt><trkpt lat="42.2835666" lon="13.9707471"><ele>290.8</ele><time>2026-05-02T08:28:06.041Z</time></trkpt><trkpt lat="42.2836406" lon="13.970657"><ele>290.6</ele><time>2026-05-02T08:28:07.041Z</time></trkpt><trkpt lat="42.2837219" lon="13.9705865"><ele>290.4</ele><time>2026-05-02T08:28:08.041Z</time></trkpt><trkpt lat="42.2838104" lon="13.9705493"><ele>290.2</ele><time>2026-05-02T08:28:09.041Z</time></trkpt><trkpt lat="42.2839098" lon="13.9705442"><ele>290.0</ele><time>2026-05-02T08:28:10.041Z</time></trkpt><trkpt lat="42.2840135" lon="13.9705364"><ele>289.4</ele><time>2026-05-02T08:28:11.041Z</time></trkpt><trkpt lat="42.2841244" lon="13.9705354"><ele>288.8</ele><time>2026-05-02T08:28:12.041Z</time></trkpt><trkpt lat="42.2842374" lon="13.9705322"><ele>288.2</ele><time>2026-05-02T08:28:13.041Z</time></trkpt><trkpt lat="42.2843389" lon="13.9705081"><ele>287.6</ele><time>2026-05-02T08:28:14.041Z</time></trkpt><trkpt lat="42.2844459" lon="13.9704794"><ele>287.0</ele><time>2026-05-02T08:28:15.041Z</time></trkpt><trkpt lat="42.2845582" lon="13.9704484"><ele>287.0</ele><time>2026-05-02T08:28:16.041Z</time></trkpt><trkpt lat="42.2846715" lon="13.9704155"><ele>287.0</ele><time>2026-05-02T08:28:17.041Z</time></trkpt><trkpt lat="42.2847825" lon="13.9703768"><ele>287.0</ele><time>2026-05-02T08:28:18.041Z</time></trkpt><trkpt lat="42.2848943" lon="13.9703325"><ele>287.0</ele><time>2026-05-02T08:28:19.041Z</time></trkpt><trkpt lat="42.2850027" lon="13.9702992"><ele>287.2</ele><time>2026-05-02T08:28:20.041Z</time></trkpt><trkpt lat="42.2850849" lon="13.9702748"><ele>287.4</ele><time>2026-05-02T08:28:21.041Z</time></trkpt><trkpt lat="42.2851483" lon="13.9702594"><ele>287.6</ele><time>2026-05-02T08:28:22.041Z</time></trkpt><trkpt lat="42.2852522" lon="13.9701859"><ele>287.8</ele><time>2026-05-02T08:29:11.042Z</time></trkpt><trkpt lat="42.2853177" lon="13.9701346"><ele>288.0</ele><time>2026-05-02T08:29:13.041Z</time></trkpt><trkpt lat="42.285397" lon="13.9699834"><ele>288.0</ele><time>2026-05-02T08:29:41.042Z</time></trkpt><trkpt lat="42.285443" lon="13.9698934"><ele>288.0</ele><time>2026-05-02T08:29:43.042Z</time></trkpt><trkpt lat="42.285493" lon="13.9697561"><ele>288.0</ele><time>2026-05-02T08:29:45.041Z</time></trkpt><trkpt lat="42.285523" lon="13.9696778"><ele>288.0</ele><time>2026-05-02T08:29:46.041Z</time></trkpt><trkpt lat="42.2855647" lon="13.969573"><ele>288.0</ele><time>2026-05-02T08:29:47.041Z</time></trkpt><trkpt lat="42.2856106" lon="13.9694613"><ele>288.0</ele><time>2026-05-02T08:29:48.042Z</time></trkpt><trkpt lat="42.2856546" lon="13.9693475"><ele>288.0</ele><time>2026-05-02T08:29:49.041Z</time></trkpt><trkpt lat="42.2856987" lon="13.9692383"><ele>288.0</ele><time>2026-05-02T08:29:50.041Z</time></trkpt><trkpt lat="42.2857421" lon="13.9691325"><ele>288.0</ele><time>2026-05-02T08:29:51.041Z</time></trkpt><trkpt lat="42.2857718" lon="13.9690487"><ele>288.0</ele><time>2026-05-02T08:29:52.041Z</time></trkpt><trkpt lat="42.2857969" lon="13.9689542"><ele>288.0</ele><time>2026-05-02T08:29:53.041Z</time></trkpt><trkpt lat="42.2858228" lon="13.9688613"><ele>288.0</ele><time>2026-05-02T08:29:54.041Z</time></trkpt><trkpt lat="42.2858646" lon="13.968771"><ele>289.3333333333333</ele><time>2026-05-02T08:29:55.042Z</time></trkpt><trkpt lat="42.2859096" lon="13.9686892"><ele>290.6666666666667</ele><time>2026-05-02T08:29:56.041Z</time></trkpt><trkpt lat="42.2859646" lon="13.9686211"><ele>292.0</ele><time>2026-05-02T08:29:57.041Z</time></trkpt><trkpt lat="42.2860266" lon="13.968556"><ele>293.33333333333337</ele><time>2026-05-02T08:29:58.042Z</time></trkpt><trkpt lat="42.286084" lon="13.9684811"><ele>294.6666666666667</ele><time>2026-05-02T08:29:59.041Z</time></trkpt><trkpt lat="42.2861412" lon="13.9683943"><ele>296.0</ele><time>2026-05-02T08:30:00.041Z</time></trkpt><trkpt lat="42.2861953" lon="13.9683027"><ele>297.2</ele><time>2026-05-02T08:30:01.041Z</time></trkpt><trkpt lat="42.2862493" lon="13.9682122"><ele>298.40000000000003</ele><time>2026-05-02T08:30:02.042Z</time></trkpt><trkpt lat="42.2863031" lon="13.9681279"><ele>299.6</ele><time>2026-05-02T08:30:03.042Z</time></trkpt><trkpt lat="42.2863571" lon="13.9680299"><ele>300.8</ele><time>2026-05-02T08:30:04.041Z</time></trkpt><trkpt lat="42.2864092" lon="13.967924"><ele>302.0</ele><time>2026-05-02T08:30:05.042Z</time></trkpt><trkpt lat="42.2864575" lon="13.9678086"><ele>300.8</ele><time>2026-05-02T08:30:06.041Z</time></trkpt><trkpt lat="42.2865119" lon="13.9677036"><ele>299.6</ele><time>2026-05-02T08:30:07.041Z</time></trkpt><trkpt lat="42.2865681" lon="13.9675992"><ele>298.40000000000003</ele><time>2026-05-02T08:30:08.041Z</time></trkpt><trkpt lat="42.2866324" lon="13.9674979"><ele>297.2</ele><time>2026-05-02T08:30:09.042Z</time></trkpt><trkpt lat="42.2866937" lon="13.9673993"><ele>296.0</ele><time>2026-05-02T08:30:10.042Z</time></trkpt><trkpt lat="42.2867493" lon="13.9673123"><ele>296.0</ele><time>2026-05-02T08:30:11.041Z</time></trkpt><trkpt lat="42.286806" lon="13.9672306"><ele>296.0</ele><time>2026-05-02T08:30:12.042Z</time></trkpt><trkpt lat="42.2868582" lon="13.9671393"><ele>296.0</ele><time>2026-05-02T08:30:13.042Z</time></trkpt><trkpt lat="42.2869095" lon="13.9670305"><ele>296.0</ele><time>2026-05-02T08:30:14.041Z</time></trkpt><trkpt lat="42.2869516" lon="13.9669321"><ele>296.0</ele><time>2026-05-02T08:30:15.041Z</time></trkpt><trkpt lat="42.2869773" lon="13.9668258"><ele>296.0</ele><time>2026-05-02T08:30:16.041Z</time></trkpt><trkpt lat="42.2869835" lon="13.9667027"><ele>298.75</ele><time>2026-05-02T08:30:17.041Z</time></trkpt><trkpt lat="42.2869671" lon="13.9665755"><ele>301.5</ele><time>2026-05-02T08:30:18.041Z</time></trkpt><trkpt lat="42.2869262" lon="13.966435"><ele>304.25</ele><time>2026-05-02T08:30:19.041Z</time></trkpt><trkpt lat="42.2868792" lon="13.9662828"><ele>307.0</ele><time>2026-05-02T08:30:20.042Z</time></trkpt><trkpt lat="42.2868309" lon="13.9661114"><ele>307.0</ele><time>2026-05-02T08:30:21.041Z</time></trkpt><trkpt lat="42.2867774" lon="13.9659238"><ele>307.0</ele><time>2026-05-02T08:30:22.041Z</time></trkpt><trkpt lat="42.2867223" lon="13.9657455"><ele>307.0</ele><time>2026-05-02T08:30:23.041Z</time></trkpt><trkpt lat="42.286672" lon="13.9655741"><ele>307.0</ele><time>2026-05-02T08:30:24.041Z</time></trkpt><trkpt lat="42.2866267" lon="13.9654133"><ele>308.25</ele><time>2026-05-02T08:30:25.042Z</time></trkpt><trkpt lat="42.2865854" lon="13.9652671"><ele>309.5</ele><time>2026-05-02T08:30:26.041Z</time></trkpt><trkpt lat="42.2865549" lon="13.9651225"><ele>310.75</ele><time>2026-05-02T08:30:27.041Z</time></trkpt><trkpt lat="42.2865384" lon="13.9649667"><ele>312.0</ele><time>2026-05-02T08:30:28.042Z</time></trkpt><trkpt lat="42.2865422" lon="13.9648036"><ele>312.2</ele><time>2026-05-02T08:30:29.042Z</time></trkpt><trkpt lat="42.2865463" lon="13.9646399"><ele>312.4</ele><time>2026-05-02T08:30:30.041Z</time></trkpt><trkpt lat="42.2865622" lon="13.9645004"><ele>312.6</ele><time>2026-05-02T08:30:31.042Z</time></trkpt><trkpt lat="42.2865827" lon="13.9643664"><ele>312.8</ele><time>2026-05-02T08:30:32.041Z</time></trkpt><trkpt lat="42.2866168" lon="13.9642463"><ele>313.0</ele><time>2026-05-02T08:30:33.041Z</time></trkpt><trkpt lat="42.2866638" lon="13.9641291"><ele>313.4</ele><time>2026-05-02T08:30:34.042Z</time></trkpt><trkpt lat="42.2867276" lon="13.9640114"><ele>313.8</ele><time>2026-05-02T08:30:35.041Z</time></trkpt><trkpt lat="42.2867963" lon="13.963923"><ele>314.2</ele><time>2026-05-02T08:30:36.042Z</time></trkpt><trkpt lat="42.2868562" lon="13.9638342"><ele>314.6</ele><time>2026-05-02T08:30:37.041Z</time></trkpt><trkpt lat="42.2868933" lon="13.9637292"><ele>315.0</ele><time>2026-05-02T08:30:38.041Z</time></trkpt><trkpt lat="42.2869087" lon="13.9636053"><ele>315.0</ele><time>2026-05-02T08:30:39.041Z</time></trkpt><trkpt lat="42.2868908" lon="13.9634778"><ele>315.0</ele><time>2026-05-02T08:30:40.042Z</time></trkpt><trkpt lat="42.286852" lon="13.9633573"><ele>315.0</ele><time>2026-05-02T08:30:41.041Z</time></trkpt><trkpt lat="42.286797" lon="13.9632376"><ele>315.0</ele><time>2026-05-02T08:30:42.041Z</time></trkpt><trkpt lat="42.2867446" lon="13.9631052"><ele>315.0</ele><time>2026-05-02T08:30:43.041Z</time></trkpt><trkpt lat="42.2866922" lon="13.9629538"><ele>313.75</ele><time>2026-05-02T08:30:44.041Z</time></trkpt><trkpt lat="42.2866425" lon="13.9627968"><ele>312.5</ele><time>2026-05-02T08:30:45.041Z</time></trkpt><trkpt lat="42.286587" lon="13.9626425"><ele>311.25</ele><time>2026-05-02T08:30:46.041Z</time></trkpt><trkpt lat="42.2865346" lon="13.9624834"><ele>310.0</ele><time>2026-05-02T08:30:47.042Z</time></trkpt><trkpt lat="42.2864812" lon="13.9623142"><ele>310.0</ele><time>2026-05-02T08:30:48.041Z</time></trkpt><trkpt lat="42.2864255" lon="13.962149"><ele>310.0</ele><time>2026-05-02T08:30:49.041Z</time></trkpt><trkpt lat="42.2863715" lon="13.9619917"><ele>310.0</ele><time>2026-05-02T08:30:50.041Z</time></trkpt><trkpt lat="42.2863211" lon="13.9618378"><ele>310.0</ele><time>2026-05-02T08:30:51.041Z</time></trkpt><trkpt lat="42.2862719" lon="13.9616922"><ele>309.2</ele><time>2026-05-02T08:30:52.042Z</time></trkpt><trkpt lat="42.2862239" lon="13.9615554"><ele>308.4</ele><time>2026-05-02T08:30:53.041Z</time></trkpt><trkpt lat="42.2861849" lon="13.9614311"><ele>307.6</ele><time>2026-05-02T08:30:54.041Z</time></trkpt><trkpt lat="42.2861534" lon="13.961303"><ele>306.8</ele><time>2026-05-02T08:30:55.041Z</time></trkpt><trkpt lat="42.2861312" lon="13.9611734"><ele>306.0</ele><time>2026-05-02T08:30:56.041Z</time></trkpt><trkpt lat="42.2861238" lon="13.9610349"><ele>306.0</ele><time>2026-05-02T08:30:57.041Z</time></trkpt><trkpt lat="42.2861208" lon="13.9608973"><ele>306.0</ele><time>2026-05-02T08:30:58.042Z</time></trkpt><trkpt lat="42.2861197" lon="13.9607556"><ele>306.0</ele><time>2026-05-02T08:30:59.041Z</time></trkpt><trkpt lat="42.2861322" lon="13.9606163"><ele>306.0</ele><time>2026-05-02T08:31:00.041Z</time></trkpt><trkpt lat="42.2861493" lon="13.9604688"><ele>306.0</ele><time>2026-05-02T08:31:01.042Z</time></trkpt><trkpt lat="42.2861759" lon="13.9603352"><ele>305.6</ele><time>2026-05-02T08:31:02.041Z</time></trkpt><trkpt lat="42.286198" lon="13.9602011"><ele>305.20000000000005</ele><time>2026-05-02T08:31:03.041Z</time></trkpt><trkpt lat="42.2862213" lon="13.9600691"><ele>304.79999999999995</ele><time>2026-05-02T08:31:04.041Z</time></trkpt><trkpt lat="42.2862297" lon="13.9599402"><ele>304.4</ele><time>2026-05-02T08:31:05.041Z</time></trkpt><trkpt lat="42.2862402" lon="13.9598313"><ele>304.0</ele><time>2026-05-02T08:31:06.041Z</time></trkpt><trkpt lat="42.2862558" lon="13.9597293"><ele>304.0</ele><time>2026-05-02T08:31:07.042Z</time></trkpt><trkpt lat="42.2862636" lon="13.9596175"><ele>304.0</ele><time>2026-05-02T08:31:08.042Z</time></trkpt><trkpt lat="42.2862607" lon="13.9594989"><ele>304.0</ele><time>2026-05-02T08:31:09.042Z</time></trkpt><trkpt lat="42.2862411" lon="13.9593717"><ele>304.0</ele><time>2026-05-02T08:31:10.041Z</time></trkpt><trkpt lat="42.2862115" lon="13.9592457"><ele>304.0</ele><time>2026-05-02T08:31:11.041Z</time></trkpt><trkpt lat="42.2861635" lon="13.9591311"><ele>302.4</ele><time>2026-05-02T08:31:12.041Z</time></trkpt><trkpt lat="42.2860947" lon="13.9590228"><ele>300.79999999999995</ele><time>2026-05-02T08:31:13.042Z</time></trkpt><trkpt lat="42.2860206" lon="13.9589245"><ele>299.20000000000005</ele><time>2026-05-02T08:31:14.041Z</time></trkpt><trkpt lat="42.2859455" lon="13.9588351"><ele>297.6</ele><time>2026-05-02T08:31:15.042Z</time></trkpt><trkpt lat="42.2858737" lon="13.9587555"><ele>296.0</ele><time>2026-05-02T08:31:16.041Z</time></trkpt><trkpt lat="42.2858093" lon="13.9586809"><ele>296.0</ele><time>2026-05-02T08:31:17.041Z</time></trkpt><trkpt lat="42.2857615" lon="13.9585978"><ele>296.0</ele><time>2026-05-02T08:31:18.042Z</time></trkpt><trkpt lat="42.2857168" lon="13.9585325"><ele>296.0</ele><time>2026-05-02T08:31:19.042Z</time></trkpt><trkpt lat="42.2856643" lon="13.9584296"><ele>296.0</ele><time>2026-05-02T08:31:21.042Z</time></trkpt><trkpt lat="42.2856504" lon="13.9583464"><ele>296.0</ele><time>2026-05-02T08:31:23.041Z</time></trkpt><trkpt lat="42.2856043" lon="13.9582546"><ele>296.0</ele><time>2026-05-02T08:31:25.041Z</time></trkpt><trkpt lat="42.2855003" lon="13.9581555"><ele>295.5</ele><time>2026-05-02T08:31:27.042Z</time></trkpt><trkpt lat="42.2854378" lon="13.9580952"><ele>295.0</ele><time>2026-05-02T08:31:28.042Z</time></trkpt><trkpt lat="42.2853685" lon="13.9580576"><ele>294.5</ele><time>2026-05-02T08:31:29.041Z</time></trkpt><trkpt lat="42.2852992" lon="13.9580346"><ele>294.0</ele><time>2026-05-02T08:31:30.041Z</time></trkpt><trkpt lat="42.2852361" lon="13.9580095"><ele>293.5</ele><time>2026-05-02T08:31:31.042Z</time></trkpt><trkpt lat="42.2851532" lon="13.9579647"><ele>293.0</ele><time>2026-05-02T08:31:33.041Z</time></trkpt><trkpt lat="42.2850765" lon="13.9579162"><ele>293.0</ele><time>2026-05-02T08:31:35.041Z</time></trkpt><trkpt lat="42.2850125" lon="13.9578779"><ele>293.0</ele><time>2026-05-02T08:31:36.042Z</time></trkpt><trkpt lat="42.284937" lon="13.9578315"><ele>293.0</ele><time>2026-05-02T08:31:37.042Z</time></trkpt><trkpt lat="42.2848605" lon="13.9577908"><ele>293.0</ele><time>2026-05-02T08:31:38.041Z</time></trkpt><trkpt lat="42.2847826" lon="13.957746"><ele>293.0</ele><time>2026-05-02T08:31:39.041Z</time></trkpt><trkpt lat="42.2847025" lon="13.9576949"><ele>293.0</ele><time>2026-05-02T08:31:40.041Z</time></trkpt><trkpt lat="42.2846195" lon="13.9576321"><ele>292.0</ele><time>2026-05-02T08:31:41.042Z</time></trkpt><trkpt lat="42.2845287" lon="13.9575731"><ele>291.0</ele><time>2026-05-02T08:31:42.042Z</time></trkpt><trkpt lat="42.2844428" lon="13.9575097"><ele>290.0</ele><time>2026-05-02T08:31:43.041Z</time></trkpt><trkpt lat="42.2843536" lon="13.9574452"><ele>289.0</ele><time>2026-05-02T08:31:44.042Z</time></trkpt><trkpt lat="42.2842684" lon="13.9573833"><ele>288.0</ele><time>2026-05-02T08:31:45.041Z</time></trkpt><trkpt lat="42.2841892" lon="13.957308"><ele>287.4</ele><time>2026-05-02T08:31:46.042Z</time></trkpt><trkpt lat="42.2841189" lon="13.9572232"><ele>286.8</ele><time>2026-05-02T08:31:47.041Z</time></trkpt><trkpt lat="42.2840501" lon="13.9571321"><ele>286.2</ele><time>2026-05-02T08:31:48.041Z</time></trkpt><trkpt lat="42.2839826" lon="13.9570467"><ele>285.6</ele><time>2026-05-02T08:31:49.042Z</time></trkpt><trkpt lat="42.2839153" lon="13.9569565"><ele>285.0</ele><time>2026-05-02T08:31:50.041Z</time></trkpt><trkpt lat="42.2838477" lon="13.9568636"><ele>285.0</ele><time>2026-05-02T08:31:51.042Z</time></trkpt><trkpt lat="42.2837796" lon="13.9567729"><ele>285.0</ele><time>2026-05-02T08:31:52.041Z</time></trkpt><trkpt lat="42.283713" lon="13.9566926"><ele>285.0</ele><time>2026-05-02T08:31:53.041Z</time></trkpt><trkpt lat="42.2836473" lon="13.9566102"><ele>285.0</ele><time>2026-05-02T08:31:54.041Z</time></trkpt><trkpt lat="42.2835898" lon="13.9565217"><ele>285.0</ele><time>2026-05-02T08:31:55.041Z</time></trkpt><trkpt lat="42.2835319" lon="13.9564349"><ele>285.0</ele><time>2026-05-02T08:31:56.041Z</time></trkpt><trkpt lat="42.2834783" lon="13.9563536"><ele>283.8333333333333</ele><time>2026-05-02T08:31:57.042Z</time></trkpt><trkpt lat="42.2834275" lon="13.9562659"><ele>282.6666666666667</ele><time>2026-05-02T08:31:58.041Z</time></trkpt><trkpt lat="42.2833759" lon="13.9561777"><ele>281.5</ele><time>2026-05-02T08:31:59.041Z</time></trkpt><trkpt lat="42.2833194" lon="13.9560892"><ele>280.33333333333337</ele><time>2026-05-02T08:32:00.041Z</time></trkpt><trkpt lat="42.2832525" lon="13.9560088"><ele>279.1666666666667</ele><time>2026-05-02T08:32:01.041Z</time></trkpt><trkpt lat="42.2831843" lon="13.9559254"><ele>278.0</ele><time>2026-05-02T08:32:02.041Z</time></trkpt><trkpt lat="42.2831108" lon="13.9558376"><ele>276.2</ele><time>2026-05-02T08:32:03.041Z</time></trkpt><trkpt lat="42.2830309" lon="13.955749"><ele>274.4</ele><time>2026-05-02T08:32:04.041Z</time></trkpt><trkpt lat="42.2829502" lon="13.9556607"><ele>272.59999999999997</ele><time>2026-05-02T08:32:05.041Z</time></trkpt><trkpt lat="42.2828687" lon="13.9555646"><ele>270.8</ele><time>2026-05-02T08:32:06.042Z</time></trkpt><trkpt lat="42.2827861" lon="13.9554674"><ele>269.0</ele><time>2026-05-02T08:32:07.041Z</time></trkpt><trkpt lat="42.2827012" lon="13.9553618"><ele>269.0</ele><time>2026-05-02T08:32:08.041Z</time></trkpt><trkpt lat="42.2826167" lon="13.9552671"><ele>269.0</ele><time>2026-05-02T08:32:09.041Z</time></trkpt><trkpt lat="42.2825367" lon="13.9551662"><ele>269.0</ele><time>2026-05-02T08:32:10.041Z</time></trkpt><trkpt lat="42.2824518" lon="13.955071"><ele>269.0</ele><time>2026-05-02T08:32:11.041Z</time></trkpt><trkpt lat="42.282357" lon="13.954994"><ele>269.0</ele><time>2026-05-02T08:32:12.041Z</time></trkpt><trkpt lat="42.2822531" lon="13.9549473"><ele>267.4</ele><time>2026-05-02T08:32:13.041Z</time></trkpt><trkpt lat="42.2821461" lon="13.9549231"><ele>265.79999999999995</ele><time>2026-05-02T08:32:14.041Z</time></trkpt><trkpt lat="42.2820357" lon="13.9549178"><ele>264.20000000000005</ele><time>2026-05-02T08:32:15.041Z</time></trkpt><trkpt lat="42.2819262" lon="13.9549246"><ele>262.6</ele><time>2026-05-02T08:32:16.042Z</time></trkpt><trkpt lat="42.2818172" lon="13.9549307"><ele>261.0</ele><time>2026-05-02T08:32:17.041Z</time></trkpt><trkpt lat="42.2817133" lon="13.9549334"><ele>261.0</ele><time>2026-05-02T08:32:18.042Z</time></trkpt><trkpt lat="42.2816097" lon="13.9549188"><ele>261.0</ele><time>2026-05-02T08:32:19.041Z</time></trkpt><trkpt lat="42.2815075" lon="13.9548881"><ele>261.0</ele><time>2026-05-02T08:32:20.041Z</time></trkpt><trkpt lat="42.2814188" lon="13.9548232"><ele>261.0</ele><time>2026-05-02T08:32:21.041Z</time></trkpt><trkpt lat="42.2813308" lon="13.9547447"><ele>261.0</ele><time>2026-05-02T08:32:22.041Z</time></trkpt><trkpt lat="42.2812505" lon="13.9546601"><ele>260.40000000000003</ele><time>2026-05-02T08:32:23.041Z</time></trkpt><trkpt lat="42.2811732" lon="13.9545713"><ele>259.8</ele><time>2026-05-02T08:32:24.042Z</time></trkpt><trkpt lat="42.281086" lon="13.9544922"><ele>259.20000000000005</ele><time>2026-05-02T08:32:25.041Z</time></trkpt><trkpt lat="42.2810018" lon="13.9544254"><ele>258.6</ele><time>2026-05-02T08:32:26.041Z</time></trkpt><trkpt lat="42.2809148" lon="13.954379"><ele>258.0</ele><time>2026-05-02T08:32:27.041Z</time></trkpt><trkpt lat="42.2808247" lon="13.9543406"><ele>258.0</ele><time>2026-05-02T08:32:28.041Z</time></trkpt><trkpt lat="42.2807306" lon="13.9542944"><ele>258.0</ele><time>2026-05-02T08:32:29.041Z</time></trkpt><trkpt lat="42.2806454" lon="13.9542385"><ele>258.0</ele><time>2026-05-02T08:32:30.041Z</time></trkpt><trkpt lat="42.2805615" lon="13.9541748"><ele>258.0</ele><time>2026-05-02T08:32:31.041Z</time></trkpt><trkpt lat="42.2804856" lon="13.954116"><ele>258.0</ele><time>2026-05-02T08:32:32.041Z</time></trkpt><trkpt lat="42.2804144" lon="13.9540603"><ele>255.66666666666666</ele><time>2026-05-02T08:32:33.042Z</time></trkpt><trkpt lat="42.2803428" lon="13.9540164"><ele>253.33333333333331</ele><time>2026-05-02T08:32:34.041Z</time></trkpt><trkpt lat="42.2802709" lon="13.9539821"><ele>251.0</ele><time>2026-05-02T08:32:35.041Z</time></trkpt><trkpt lat="42.2801969" lon="13.9539549"><ele>248.66666666666666</ele><time>2026-05-02T08:32:36.042Z</time></trkpt><trkpt lat="42.2801261" lon="13.9539294"><ele>246.33333333333331</ele><time>2026-05-02T08:32:37.041Z</time></trkpt><trkpt lat="42.2800413" lon="13.9539166"><ele>244.0</ele><time>2026-05-02T08:32:38.041Z</time></trkpt><trkpt lat="42.279942" lon="13.9539124"><ele>244.0</ele><time>2026-05-02T08:32:39.041Z</time></trkpt><trkpt lat="42.2798428" lon="13.9539055"><ele>243.99999999999997</ele><time>2026-05-02T08:32:40.041Z</time></trkpt><trkpt lat="42.2797353" lon="13.9538796"><ele>243.99999999999997</ele><time>2026-05-02T08:32:41.042Z</time></trkpt><trkpt lat="42.279626" lon="13.9538365"><ele>244.0</ele><time>2026-05-02T08:32:42.041Z</time></trkpt><trkpt lat="42.2795203" lon="13.9537726"><ele>244.0</ele><time>2026-05-02T08:32:43.042Z</time></trkpt><trkpt lat="42.2794088" lon="13.9537184"><ele>243.75</ele><time>2026-05-02T08:32:44.041Z</time></trkpt><trkpt lat="42.2792911" lon="13.9536755"><ele>243.5</ele><time>2026-05-02T08:32:45.041Z</time></trkpt><trkpt lat="42.2791642" lon="13.953636"><ele>243.25</ele><time>2026-05-02T08:32:46.041Z</time></trkpt><trkpt lat="42.2790269" lon="13.9535928"><ele>243.0</ele><time>2026-05-02T08:32:47.042Z</time></trkpt><trkpt lat="42.2788832" lon="13.9535522"><ele>244.25</ele><time>2026-05-02T08:32:48.042Z</time></trkpt><trkpt lat="42.2787379" lon="13.9535066"><ele>245.5</ele><time>2026-05-02T08:32:49.041Z</time></trkpt><trkpt lat="42.2785937" lon="13.953459"><ele>246.75</ele><time>2026-05-02T08:32:50.042Z</time></trkpt><trkpt lat="42.2784502" lon="13.9534086"><ele>248.0</ele><time>2026-05-02T08:32:51.042Z</time></trkpt><trkpt lat="42.2783075" lon="13.9533674"><ele>245.25</ele><time>2026-05-02T08:32:52.041Z</time></trkpt><trkpt lat="42.2781632" lon="13.9533271"><ele>242.5</ele><time>2026-05-02T08:32:53.041Z</time></trkpt><trkpt lat="42.2780241" lon="13.9532877"><ele>239.75</ele><time>2026-05-02T08:32:54.041Z</time></trkpt><trkpt lat="42.2778946" lon="13.9532526"><ele>237.0</ele><time>2026-05-02T08:32:55.042Z</time></trkpt><trkpt lat="42.2777689" lon="13.9532248"><ele>237.0</ele><time>2026-05-02T08:32:56.041Z</time></trkpt><trkpt lat="42.2776432" lon="13.9531913"><ele>237.0</ele><time>2026-05-02T08:32:57.041Z</time></trkpt><trkpt lat="42.277529" lon="13.9531575"><ele>237.0</ele><time>2026-05-02T08:32:58.042Z</time></trkpt><trkpt lat="42.2774206" lon="13.9531222"><ele>237.0</ele><time>2026-05-02T08:32:59.041Z</time></trkpt><trkpt lat="42.2773321" lon="13.9530912"><ele>237.0</ele><time>2026-05-02T08:33:00.041Z</time></trkpt><trkpt lat="42.2772685" lon="13.9530612"><ele>237.0</ele><time>2026-05-02T08:33:01.042Z</time></trkpt><trkpt lat="42.2772096" lon="13.953012"><ele>237.0</ele><time>2026-05-02T08:33:03.041Z</time></trkpt><trkpt lat="42.2772517" lon="13.952938"><ele>237.0</ele><time>2026-05-02T08:33:07.041Z</time></trkpt><trkpt lat="42.27732" lon="13.9529473"><ele>237.0</ele><time>2026-05-02T08:33:09.042Z</time></trkpt><trkpt lat="42.2773813" lon="13.9529689"><ele>237.0</ele><time>2026-05-02T08:33:10.041Z</time></trkpt><trkpt lat="42.2775019" lon="13.9529964"><ele>237.0</ele><time>2026-05-02T08:33:12.041Z</time></trkpt><trkpt lat="42.2775658" lon="13.9529998"><ele>237.0</ele><time>2026-05-02T08:33:13.041Z</time></trkpt><trkpt lat="42.2776787" lon="13.9529712"><ele>237.0</ele><time>2026-05-02T08:33:15.041Z</time></trkpt><trkpt lat="42.2777655" lon="13.9529058"><ele>237.0</ele><time>2026-05-02T08:33:17.041Z</time></trkpt><trkpt lat="42.2778217" lon="13.952799"><ele>237.0</ele><time>2026-05-02T08:33:19.042Z</time></trkpt><trkpt lat="42.2778376" lon="13.952654"><ele>237.0</ele><time>2026-05-02T08:33:21.041Z</time></trkpt><trkpt lat="42.2778191" lon="13.9525006"><ele>235.0</ele><time>2026-05-02T08:33:23.041Z</time></trkpt><trkpt lat="42.2777536" lon="13.9523775"><ele>233.0</ele><time>2026-05-02T08:33:25.041Z</time></trkpt><trkpt lat="42.2776779" lon="13.952303"><ele>231.0</ele><time>2026-05-02T08:33:27.041Z</time></trkpt><trkpt lat="42.2776064" lon="13.9522697"><ele>229.0</ele><time>2026-05-02T08:34:58.041Z</time></trkpt><trkpt lat="42.2775397" lon="13.9522249"><ele>227.0</ele><time>2026-05-02T08:35:00.041Z</time></trkpt><trkpt lat="42.277478" lon="13.9521851"><ele>225.0</ele><time>2026-05-02T08:35:02.042Z</time></trkpt><trkpt lat="42.2774159" lon="13.9521467"><ele>225.0</ele><time>2026-05-02T08:35:04.041Z</time></trkpt><trkpt lat="42.27736" lon="13.9520838"><ele>225.0</ele><time>2026-05-02T08:35:06.041Z</time></trkpt><trkpt lat="42.277334" lon="13.9519778"><ele>225.0</ele><time>2026-05-02T08:35:08.041Z</time></trkpt><trkpt lat="42.2773339" lon="13.9518734"><ele>225.0</ele><time>2026-05-02T08:35:10.042Z</time></trkpt><trkpt lat="42.2773485" lon="13.9517702"><ele>225.0</ele><time>2026-05-02T08:35:12.042Z</time></trkpt><trkpt lat="42.2773669" lon="13.9516733"><ele>225.0</ele><time>2026-05-02T08:35:14.041Z</time></trkpt><trkpt lat="42.2773989" lon="13.9515809"><ele>223.0</ele><time>2026-05-02T08:35:16.042Z</time></trkpt><trkpt lat="42.2774351" lon="13.9515024"><ele>221.0</ele><time>2026-05-02T08:35:18.041Z</time></trkpt><trkpt lat="42.2774986" lon="13.951471"><ele>219.0</ele><time>2026-05-02T08:35:20.041Z</time></trkpt><trkpt lat="42.2776001" lon="13.9514777"><ele>217.0</ele><time>2026-05-02T08:35:22.041Z</time></trkpt><trkpt lat="42.2777099" lon="13.951524"><ele>215.0</ele><time>2026-05-02T08:35:24.041Z</time></trkpt><trkpt lat="42.2777689" lon="13.9514424"><ele>213.0</ele><time>2026-05-02T08:35:26.041Z</time></trkpt><trkpt lat="42.2777511" lon="13.9513203"><ele>213.0</ele><time>2026-05-02T08:35:28.041Z</time></trkpt><trkpt lat="42.2776916" lon="13.9512338"><ele>213.0</ele><time>2026-05-02T08:35:30.041Z</time></trkpt><trkpt lat="42.277598" lon="13.9510984"><ele>213.0</ele><time>2026-05-02T08:35:32.041Z</time></trkpt><trkpt lat="42.2775578" lon="13.9510081"><ele>213.0</ele><time>2026-05-02T08:35:33.042Z</time></trkpt><trkpt lat="42.2775266" lon="13.9509207"><ele>213.0</ele><time>2026-05-02T08:35:34.042Z</time></trkpt><trkpt lat="42.2774837" lon="13.9508319"><ele>211.0</ele><time>2026-05-02T08:35:35.041Z</time></trkpt><trkpt lat="42.2774394" lon="13.9507404"><ele>209.0</ele><time>2026-05-02T08:35:36.041Z</time></trkpt><trkpt lat="42.2773895" lon="13.9506386"><ele>207.0</ele><time>2026-05-02T08:35:37.041Z</time></trkpt><trkpt lat="42.2773437" lon="13.950543"><ele>205.0</ele><time>2026-05-02T08:35:38.041Z</time></trkpt><trkpt lat="42.2772958" lon="13.9504495"><ele>203.0</ele><time>2026-05-02T08:35:39.041Z</time></trkpt><trkpt lat="42.2772481" lon="13.9503552"><ele>201.0</ele><time>2026-05-02T08:35:40.041Z</time></trkpt><trkpt lat="42.2771953" lon="13.9502688"><ele>201.0</ele><time>2026-05-02T08:35:41.041Z</time></trkpt><trkpt lat="42.2771355" lon="13.9501872"><ele>201.0</ele><time>2026-05-02T08:35:42.041Z</time></trkpt><trkpt lat="42.2770762" lon="13.9501263"><ele>201.0</ele><time>2026-05-02T08:35:43.041Z</time></trkpt><trkpt lat="42.2770184" lon="13.9500816"><ele>201.0</ele><time>2026-05-02T08:35:44.041Z</time></trkpt><trkpt lat="42.2769364" lon="13.9500062"><ele>201.0</ele><time>2026-05-02T08:35:46.041Z</time></trkpt><trkpt lat="42.2768997" lon="13.9499217"><ele>201.0</ele><time>2026-05-02T08:35:48.041Z</time></trkpt><trkpt lat="42.2769602" lon="13.9498491"><ele>199.66666666666666</ele><time>2026-05-02T08:35:50.041Z</time></trkpt><trkpt lat="42.2770732" lon="13.9498585"><ele>198.33333333333331</ele><time>2026-05-02T08:35:52.042Z</time></trkpt><trkpt lat="42.2771423" lon="13.9498605"><ele>197.0</ele><time>2026-05-02T08:35:53.042Z</time></trkpt><trkpt lat="42.2772144" lon="13.9498546"><ele>195.66666666666666</ele><time>2026-05-02T08:35:54.042Z</time></trkpt><trkpt lat="42.2772832" lon="13.9498336"><ele>194.33333333333331</ele><time>2026-05-02T08:35:55.041Z</time></trkpt><trkpt lat="42.2773391" lon="13.9497917"><ele>193.0</ele><time>2026-05-02T08:35:56.041Z</time></trkpt><trkpt lat="42.2773952" lon="13.9496365"><ele>193.00000000000003</ele><time>2026-05-02T08:35:58.041Z</time></trkpt><trkpt lat="42.2774048" lon="13.949538"><ele>193.0</ele><time>2026-05-02T08:35:59.041Z</time></trkpt><trkpt lat="42.2773889" lon="13.9494435"><ele>193.0</ele><time>2026-05-02T08:36:00.041Z</time></trkpt><trkpt lat="42.2773389" lon="13.9493839"><ele>193.0</ele><time>2026-05-02T08:36:01.041Z</time></trkpt><trkpt lat="42.2772709" lon="13.9493407"><ele>193.0</ele><time>2026-05-02T08:36:02.041Z</time></trkpt><trkpt lat="42.2771958" lon="13.9493177"><ele>193.00000000000003</ele><time>2026-05-02T08:36:03.041Z</time></trkpt><trkpt lat="42.2771173" lon="13.9493016"><ele>193.0</ele><time>2026-05-02T08:36:04.041Z</time></trkpt><trkpt lat="42.2770499" lon="13.9492679"><ele>192.99999999999997</ele><time>2026-05-02T08:36:05.041Z</time></trkpt><trkpt lat="42.2769972" lon="13.9492156"><ele>193.0</ele><time>2026-05-02T08:36:06.042Z</time></trkpt><trkpt lat="42.2769397" lon="13.9491421"><ele>193.0</ele><time>2026-05-02T08:36:07.041Z</time></trkpt><trkpt lat="42.276864" lon="13.9490509"><ele>193.0</ele><time>2026-05-02T08:36:08.041Z</time></trkpt><trkpt lat="42.2767814" lon="13.9489655"><ele>192.99999999999997</ele><time>2026-05-02T08:36:09.041Z</time></trkpt><trkpt lat="42.2767111" lon="13.9488879"><ele>193.0</ele><time>2026-05-02T08:36:10.042Z</time></trkpt><trkpt lat="42.2766657" lon="13.9487884"><ele>192.60000000000002</ele><time>2026-05-02T08:36:11.041Z</time></trkpt><trkpt lat="42.2766296" lon="13.9486749"><ele>192.20000000000002</ele><time>2026-05-02T08:36:12.041Z</time></trkpt><trkpt lat="42.2766" lon="13.9485498"><ele>191.8</ele><time>2026-05-02T08:36:13.041Z</time></trkpt><trkpt lat="42.2765705" lon="13.9484132"><ele>191.4</ele><time>2026-05-02T08:36:14.041Z</time></trkpt><trkpt lat="42.2765432" lon="13.948278"><ele>191.0</ele><time>2026-05-02T08:36:15.041Z</time></trkpt><trkpt lat="42.2765241" lon="13.9481312"><ele>191.0</ele><time>2026-05-02T08:36:16.041Z</time></trkpt><trkpt lat="42.2764999" lon="13.9479832"><ele>191.0</ele><time>2026-05-02T08:36:17.041Z</time></trkpt><trkpt lat="42.2764771" lon="13.9478227"><ele>191.0</ele><time>2026-05-02T08:36:18.041Z</time></trkpt><trkpt lat="42.2764586" lon="13.9476726"><ele>191.0</ele><time>2026-05-02T08:36:19.042Z</time></trkpt><trkpt lat="42.2764322" lon="13.9475265"><ele>188.25</ele><time>2026-05-02T08:36:20.041Z</time></trkpt><trkpt lat="42.276411" lon="13.947377"><ele>185.5</ele><time>2026-05-02T08:36:21.041Z</time></trkpt><trkpt lat="42.276393" lon="13.9472258"><ele>182.75</ele><time>2026-05-02T08:36:22.041Z</time></trkpt><trkpt lat="42.2763743" lon="13.9470708"><ele>180.0</ele><time>2026-05-02T08:36:23.041Z</time></trkpt><trkpt lat="42.276354" lon="13.9469173"><ele>180.0</ele><time>2026-05-02T08:36:24.042Z</time></trkpt><trkpt lat="42.2763279" lon="13.9467711"><ele>180.0</ele><time>2026-05-02T08:36:25.041Z</time></trkpt><trkpt lat="42.2762962" lon="13.9466393"><ele>180.0</ele><time>2026-05-02T08:36:26.041Z</time></trkpt><trkpt lat="42.2762661" lon="13.9465069"><ele>180.0</ele><time>2026-05-02T08:36:27.041Z</time></trkpt><trkpt lat="42.2762363" lon="13.9463903"><ele>180.0</ele><time>2026-05-02T08:36:28.041Z</time></trkpt><trkpt lat="42.2762078" lon="13.9462905"><ele>182.33333333333334</ele><time>2026-05-02T08:36:29.041Z</time></trkpt><trkpt lat="42.2761656" lon="13.9462162"><ele>184.66666666666669</ele><time>2026-05-02T08:36:30.042Z</time></trkpt><trkpt lat="42.2761123" lon="13.9461599"><ele>187.0</ele><time>2026-05-02T08:36:31.041Z</time></trkpt><trkpt lat="42.276054" lon="13.9461159"><ele>189.33333333333334</ele><time>2026-05-02T08:36:32.041Z</time></trkpt><trkpt lat="42.2759816" lon="13.9460565"><ele>191.66666666666669</ele><time>2026-05-02T08:36:33.041Z</time></trkpt><trkpt lat="42.2758902" lon="13.9459948"><ele>194.0</ele><time>2026-05-02T08:36:34.041Z</time></trkpt><trkpt lat="42.2757908" lon="13.9459263"><ele>193.79999999999998</ele><time>2026-05-02T08:36:35.041Z</time></trkpt><trkpt lat="42.2757034" lon="13.9458636"><ele>193.6</ele><time>2026-05-02T08:36:36.042Z</time></trkpt><trkpt lat="42.2756235" lon="13.9458046"><ele>193.4</ele><time>2026-05-02T08:36:37.041Z</time></trkpt><trkpt lat="42.2755504" lon="13.9457414"><ele>193.2</ele><time>2026-05-02T08:36:38.041Z</time></trkpt><trkpt lat="42.2754795" lon="13.945635"><ele>193.0</ele><time>2026-05-02T08:36:40.041Z</time></trkpt><trkpt lat="42.2754643" lon="13.9454996"><ele>192.99999999999997</ele><time>2026-05-02T08:36:42.041Z</time></trkpt><trkpt lat="42.2755168" lon="13.9453841"><ele>193.0</ele><time>2026-05-02T08:36:44.041Z</time></trkpt><trkpt lat="42.2756115" lon="13.9453453"><ele>193.0</ele><time>2026-05-02T08:36:46.041Z</time></trkpt><trkpt lat="42.2756747" lon="13.9453326"><ele>193.0</ele><time>2026-05-02T08:36:47.041Z</time></trkpt><trkpt lat="42.2757516" lon="13.9453184"><ele>192.99999999999997</ele><time>2026-05-02T08:36:48.042Z</time></trkpt><trkpt lat="42.2758515" lon="13.9452942"><ele>193.0</ele><time>2026-05-02T08:36:49.041Z</time></trkpt><trkpt lat="42.2759614" lon="13.9452711"><ele>197.0</ele><time>2026-05-02T08:36:50.042Z</time></trkpt><trkpt lat="42.2760779" lon="13.9452479"><ele>201.0</ele><time>2026-05-02T08:36:51.041Z</time></trkpt><trkpt lat="42.2762006" lon="13.9452197"><ele>205.0</ele><time>2026-05-02T08:36:52.041Z</time></trkpt><trkpt lat="42.2763224" lon="13.9451946"><ele>209.0</ele><time>2026-05-02T08:36:53.041Z</time></trkpt><trkpt lat="42.2764402" lon="13.9451738"><ele>211.0</ele><time>2026-05-02T08:36:54.041Z</time></trkpt><trkpt lat="42.276559" lon="13.9451482"><ele>213.0</ele><time>2026-05-02T08:36:55.041Z</time></trkpt><trkpt lat="42.2766771" lon="13.9451233"><ele>215.0</ele><time>2026-05-02T08:36:56.042Z</time></trkpt><trkpt lat="42.2767915" lon="13.9450952"><ele>217.0</ele><time>2026-05-02T08:36:57.042Z</time></trkpt><trkpt lat="42.2768882" lon="13.9450456"><ele>218.0</ele><time>2026-05-02T08:36:58.041Z</time></trkpt><trkpt lat="42.2769547" lon="13.9449704"><ele>219.0</ele><time>2026-05-02T08:36:59.041Z</time></trkpt><trkpt lat="42.2769989" lon="13.9448908"><ele>220.0</ele><time>2026-05-02T08:37:00.041Z</time></trkpt><trkpt lat="42.2770314" lon="13.9447843"><ele>221.0</ele><time>2026-05-02T08:37:01.041Z</time></trkpt><trkpt lat="42.2770627" lon="13.9446446"><ele>222.0</ele><time>2026-05-02T08:37:02.041Z</time></trkpt><trkpt lat="42.2770874" lon="13.9445056"><ele>222.0</ele><time>2026-05-02T08:37:03.041Z</time></trkpt><trkpt lat="42.2771148" lon="13.9443849"><ele>222.0</ele><time>2026-05-02T08:37:04.041Z</time></trkpt><trkpt lat="42.2771406" lon="13.9442724"><ele>222.0</ele><time>2026-05-02T08:37:05.041Z</time></trkpt><trkpt lat="42.2771562" lon="13.9441635"><ele>222.0</ele><time>2026-05-02T08:37:06.041Z</time></trkpt><trkpt lat="42.2771683" lon="13.9440505"><ele>222.0</ele><time>2026-05-02T08:37:07.041Z</time></trkpt><trkpt lat="42.2771803" lon="13.9439191"><ele>222.0</ele><time>2026-05-02T08:37:08.041Z</time></trkpt><trkpt lat="42.2771876" lon="13.9437929"><ele>222.16666666666666</ele><time>2026-05-02T08:37:09.041Z</time></trkpt><trkpt lat="42.2771898" lon="13.9436714"><ele>222.33333333333331</ele><time>2026-05-02T08:37:10.041Z</time></trkpt><trkpt lat="42.2771747" lon="13.9435489"><ele>222.5</ele><time>2026-05-02T08:37:11.041Z</time></trkpt><trkpt lat="42.2771539" lon="13.9434326"><ele>222.66666666666666</ele><time>2026-05-02T08:37:12.041Z</time></trkpt><trkpt lat="42.2771203" lon="13.9433194"><ele>222.83333333333331</ele><time>2026-05-02T08:37:13.041Z</time></trkpt><trkpt lat="42.2770719" lon="13.943229"><ele>223.0</ele><time>2026-05-02T08:37:14.041Z</time></trkpt><trkpt lat="42.27701" lon="13.9431432"><ele>223.99999999999997</ele><time>2026-05-02T08:37:15.041Z</time></trkpt><trkpt lat="42.276943" lon="13.9430713"><ele>225.0</ele><time>2026-05-02T08:37:16.041Z</time></trkpt><trkpt lat="42.2768683" lon="13.9430223"><ele>226.0</ele><time>2026-05-02T08:37:17.041Z</time></trkpt><trkpt lat="42.2768041" lon="13.9429938"><ele>227.0</ele><time>2026-05-02T08:37:18.041Z</time></trkpt><trkpt lat="42.2767043" lon="13.9429736"><ele>227.99999999999997</ele><time>2026-05-02T08:37:20.041Z</time></trkpt><trkpt lat="42.2766193" lon="13.9429484"><ele>229.0</ele><time>2026-05-02T08:37:22.041Z</time></trkpt><trkpt lat="42.2765172" lon="13.942924"><ele>228.99999999999997</ele><time>2026-05-02T08:37:24.041Z</time></trkpt><trkpt lat="42.2764534" lon="13.9429171"><ele>229.0</ele><time>2026-05-02T08:37:25.041Z</time></trkpt><trkpt lat="42.2763794" lon="13.9429031"><ele>229.0</ele><time>2026-05-02T08:37:26.041Z</time></trkpt><trkpt lat="42.2763007" lon="13.9428786"><ele>229.0</ele><time>2026-05-02T08:37:27.041Z</time></trkpt><trkpt lat="42.2762308" lon="13.9428536"><ele>228.99999999999997</ele><time>2026-05-02T08:37:28.041Z</time></trkpt><trkpt lat="42.2761355" lon="13.9427577"><ele>229.0</ele><time>2026-05-02T08:37:30.041Z</time></trkpt><trkpt lat="42.2760951" lon="13.942686"><ele>229.49999999999997</ele><time>2026-05-02T08:37:31.042Z</time></trkpt><trkpt lat="42.2760672" lon="13.9426036"><ele>230.0</ele><time>2026-05-02T08:37:32.042Z</time></trkpt><trkpt lat="42.2760381" lon="13.9425187"><ele>230.5</ele><time>2026-05-02T08:37:33.041Z</time></trkpt><trkpt lat="42.2760087" lon="13.9424188"><ele>231.0</ele><time>2026-05-02T08:37:34.041Z</time></trkpt><trkpt lat="42.2759713" lon="13.9423061"><ele>231.49999999999997</ele><time>2026-05-02T08:37:35.041Z</time></trkpt><trkpt lat="42.2759277" lon="13.9421872"><ele>232.0</ele><time>2026-05-02T08:37:36.041Z</time></trkpt><trkpt lat="42.2758794" lon="13.9420505"><ele>232.0</ele><time>2026-05-02T08:37:37.041Z</time></trkpt><trkpt lat="42.2758316" lon="13.9419049"><ele>232.0</ele><time>2026-05-02T08:37:38.042Z</time></trkpt><trkpt lat="42.275793" lon="13.9417783"><ele>232.0</ele><time>2026-05-02T08:37:39.041Z</time></trkpt><trkpt lat="42.2757601" lon="13.9416825"><ele>232.0</ele><time>2026-05-02T08:37:40.041Z</time></trkpt><trkpt lat="42.2757168" lon="13.9415434"><ele>232.0</ele><time>2026-05-02T08:37:42.041Z</time></trkpt><trkpt lat="42.275694" lon="13.9413573"><ele>232.0</ele><time>2026-05-02T08:37:44.041Z</time></trkpt><trkpt lat="42.27567" lon="13.941231"><ele>232.0</ele><time>2026-05-02T08:37:45.041Z</time></trkpt><trkpt lat="42.2756455" lon="13.9411078"><ele>232.0</ele><time>2026-05-02T08:37:46.041Z</time></trkpt><trkpt lat="42.2756183" lon="13.9409862"><ele>232.0</ele><time>2026-05-02T08:37:47.041Z</time></trkpt><trkpt lat="42.2755981" lon="13.9408718"><ele>232.0</ele><time>2026-05-02T08:37:48.041Z</time></trkpt><trkpt lat="42.2755845" lon="13.9407591"><ele>231.99999999999997</ele><time>2026-05-02T08:37:49.042Z</time></trkpt><trkpt lat="42.2755816" lon="13.9406476"><ele>232.0</ele><time>2026-05-02T08:37:50.042Z</time></trkpt><trkpt lat="42.2755908" lon="13.9405411"><ele>232.0</ele><time>2026-05-02T08:37:51.041Z</time></trkpt><trkpt lat="42.2755974" lon="13.9404428"><ele>232.0</ele><time>2026-05-02T08:37:52.042Z</time></trkpt><trkpt lat="42.2756064" lon="13.9403487"><ele>231.99999999999997</ele><time>2026-05-02T08:37:53.041Z</time></trkpt><trkpt lat="42.2756165" lon="13.9402618"><ele>232.0</ele><time>2026-05-02T08:37:54.041Z</time></trkpt><trkpt lat="42.2756381" lon="13.9401333"><ele>231.99999999999997</ele><time>2026-05-02T08:37:56.041Z</time></trkpt><trkpt lat="42.2755772" lon="13.9400845"><ele>232.0</ele><time>2026-05-02T08:37:59.041Z</time></trkpt><trkpt lat="42.2754742" lon="13.9401015"><ele>232.0</ele><time>2026-05-02T08:38:01.042Z</time></trkpt><trkpt lat="42.2753517" lon="13.9401629"><ele>232.0</ele><time>2026-05-02T08:38:03.042Z</time></trkpt><trkpt lat="42.2752896" lon="13.9402009"><ele>231.99999999999997</ele><time>2026-05-02T08:38:04.041Z</time></trkpt><trkpt lat="42.2752237" lon="13.9402499"><ele>232.0</ele><time>2026-05-02T08:38:05.041Z</time></trkpt><trkpt lat="42.2751488" lon="13.9403048"><ele>231.99999999999997</ele><time>2026-05-02T08:38:06.041Z</time></trkpt><trkpt lat="42.2750745" lon="13.9403623"><ele>232.0</ele><time>2026-05-02T08:38:07.041Z</time></trkpt><trkpt lat="42.2750019" lon="13.9404224"><ele>232.0</ele><time>2026-05-02T08:38:08.042Z</time></trkpt><trkpt lat="42.2749244" lon="13.9404732"><ele>232.0</ele><time>2026-05-02T08:38:09.041Z</time></trkpt><trkpt lat="42.2748459" lon="13.9405296"><ele>231.99999999999997</ele><time>2026-05-02T08:38:10.041Z</time></trkpt><trkpt lat="42.274762" lon="13.9405789"><ele>232.0</ele><time>2026-05-02T08:38:11.042Z</time></trkpt><trkpt lat="42.274683" lon="13.940622"><ele>230.33333333333331</ele><time>2026-05-02T08:38:12.042Z</time></trkpt><trkpt lat="42.2746046" lon="13.9406611"><ele>228.66666666666666</ele><time>2026-05-02T08:38:13.041Z</time></trkpt><trkpt lat="42.2745209" lon="13.9406997"><ele>227.0</ele><time>2026-05-02T08:38:14.041Z</time></trkpt><trkpt lat="42.2744357" lon="13.9407333"><ele>225.33333333333331</ele><time>2026-05-02T08:38:15.041Z</time></trkpt><trkpt lat="42.2743508" lon="13.9407641"><ele>223.66666666666666</ele><time>2026-05-02T08:38:16.041Z</time></trkpt><trkpt lat="42.2742721" lon="13.9407872"><ele>222.0</ele><time>2026-05-02T08:38:17.042Z</time></trkpt><trkpt lat="42.2741937" lon="13.9408061"><ele>222.0</ele><time>2026-05-02T08:38:18.041Z</time></trkpt><trkpt lat="42.2741167" lon="13.9408165"><ele>222.0</ele><time>2026-05-02T08:38:19.041Z</time></trkpt><trkpt lat="42.2740413" lon="13.9408129"><ele>222.0</ele><time>2026-05-02T08:38:20.041Z</time></trkpt><trkpt lat="42.2739613" lon="13.9407989"><ele>222.0</ele><time>2026-05-02T08:38:21.041Z</time></trkpt><trkpt lat="42.2738797" lon="13.9407778"><ele>222.0</ele><time>2026-05-02T08:38:22.041Z</time></trkpt><trkpt lat="42.273792" lon="13.9407511"><ele>222.0</ele><time>2026-05-02T08:38:23.041Z</time></trkpt><trkpt lat="42.2737002" lon="13.9407273"><ele>219.66666666666666</ele><time>2026-05-02T08:38:24.041Z</time></trkpt><trkpt lat="42.2736092" lon="13.9407041"><ele>217.33333333333331</ele><time>2026-05-02T08:38:25.041Z</time></trkpt><trkpt lat="42.2735202" lon="13.9406797"><ele>215.0</ele><time>2026-05-02T08:38:26.041Z</time></trkpt><trkpt lat="42.2734356" lon="13.9406587"><ele>212.66666666666666</ele><time>2026-05-02T08:38:27.041Z</time></trkpt><trkpt lat="42.273353" lon="13.9406426"><ele>210.33333333333331</ele><time>2026-05-02T08:38:28.041Z</time></trkpt><trkpt lat="42.2732659" lon="13.9406239"><ele>208.0</ele><time>2026-05-02T08:38:29.042Z</time></trkpt><trkpt lat="42.2731789" lon="13.9406039"><ele>206.16666666666666</ele><time>2026-05-02T08:38:30.041Z</time></trkpt><trkpt lat="42.2730895" lon="13.9405811"><ele>204.33333333333331</ele><time>2026-05-02T08:38:31.042Z</time></trkpt><trkpt lat="42.2729989" lon="13.9405604"><ele>202.5</ele><time>2026-05-02T08:38:32.041Z</time></trkpt><trkpt lat="42.2729097" lon="13.9405396"><ele>200.66666666666669</ele><time>2026-05-02T08:38:33.041Z</time></trkpt><trkpt lat="42.272822" lon="13.9405252"><ele>198.83333333333334</ele><time>2026-05-02T08:38:34.041Z</time></trkpt><trkpt lat="42.2727349" lon="13.9405123"><ele>197.0</ele><time>2026-05-02T08:38:35.042Z</time></trkpt><trkpt lat="42.2726457" lon="13.9405004"><ele>197.0</ele><time>2026-05-02T08:38:36.041Z</time></trkpt><trkpt lat="42.2725647" lon="13.9404851"><ele>197.0</ele><time>2026-05-02T08:38:37.041Z</time></trkpt><trkpt lat="42.2724937" lon="13.9404744"><ele>197.0</ele><time>2026-05-02T08:38:38.041Z</time></trkpt><trkpt lat="42.2724063" lon="13.9404293"><ele>197.0</ele><time>2026-05-02T08:38:40.041Z</time></trkpt><trkpt lat="42.2723926" lon="13.9403182"><ele>197.0</ele><time>2026-05-02T08:38:42.041Z</time></trkpt><trkpt lat="42.2724638" lon="13.9401789"><ele>197.0</ele><time>2026-05-02T08:38:44.041Z</time></trkpt><trkpt lat="42.2725307" lon="13.9400931"><ele>197.0</ele><time>2026-05-02T08:38:45.041Z</time></trkpt><trkpt lat="42.2725979" lon="13.9400039"><ele>197.0</ele><time>2026-05-02T08:38:46.041Z</time></trkpt><trkpt lat="42.2726704" lon="13.939913"><ele>197.0</ele><time>2026-05-02T08:38:47.041Z</time></trkpt><trkpt lat="42.2727443" lon="13.9398268"><ele>197.0</ele><time>2026-05-02T08:38:48.042Z</time></trkpt><trkpt lat="42.2728132" lon="13.9397473"><ele>196.85714285714286</ele><time>2026-05-02T08:38:49.042Z</time></trkpt><trkpt lat="42.2728726" lon="13.9396692"><ele>196.71428571428572</ele><time>2026-05-02T08:38:50.041Z</time></trkpt><trkpt lat="42.2729201" lon="13.9395891"><ele>196.57142857142856</ele><time>2026-05-02T08:38:51.041Z</time></trkpt><trkpt lat="42.2729477" lon="13.9395075"><ele>196.42857142857144</ele><time>2026-05-02T08:38:52.041Z</time></trkpt><trkpt lat="42.2729583" lon="13.9394202"><ele>196.28571428571428</ele><time>2026-05-02T08:38:53.041Z</time></trkpt><trkpt lat="42.2729503" lon="13.9393279"><ele>196.14285714285714</ele><time>2026-05-02T08:38:54.042Z</time></trkpt><trkpt lat="42.2729286" lon="13.9392405"><ele>196.0</ele><time>2026-05-02T08:38:55.041Z</time></trkpt><trkpt lat="42.2728936" lon="13.9391549"><ele>194.83333333333331</ele><time>2026-05-02T08:38:56.041Z</time></trkpt><trkpt lat="42.2728472" lon="13.9390747"><ele>193.66666666666666</ele><time>2026-05-02T08:38:57.041Z</time></trkpt><trkpt lat="42.2727942" lon="13.9389981"><ele>192.5</ele><time>2026-05-02T08:38:58.041Z</time></trkpt><trkpt lat="42.2727404" lon="13.9389189"><ele>191.33333333333331</ele><time>2026-05-02T08:38:59.041Z</time></trkpt><trkpt lat="42.2726868" lon="13.938846"><ele>190.16666666666666</ele><time>2026-05-02T08:39:00.042Z</time></trkpt><trkpt lat="42.2726314" lon="13.9387742"><ele>189.0</ele><time>2026-05-02T08:39:01.041Z</time></trkpt><trkpt lat="42.272575" lon="13.9387021"><ele>189.0</ele><time>2026-05-02T08:39:02.041Z</time></trkpt><trkpt lat="42.2725173" lon="13.9386391"><ele>189.0</ele><time>2026-05-02T08:39:03.041Z</time></trkpt><trkpt lat="42.2724579" lon="13.9385907"><ele>189.0</ele><time>2026-05-02T08:39:04.041Z</time></trkpt><trkpt lat="42.2723925" lon="13.9385483"><ele>189.0</ele><time>2026-05-02T08:39:05.041Z</time></trkpt><trkpt lat="42.2723226" lon="13.9385102"><ele>189.0</ele><time>2026-05-02T08:39:06.041Z</time></trkpt><trkpt lat="42.2722515" lon="13.9384775"><ele>189.0</ele><time>2026-05-02T08:39:07.041Z</time></trkpt><trkpt lat="42.2721811" lon="13.9384476"><ele>189.0</ele><time>2026-05-02T08:39:08.041Z</time></trkpt><trkpt lat="42.2721088" lon="13.9384201"><ele>187.79999999999998</ele><time>2026-05-02T08:39:09.041Z</time></trkpt><trkpt lat="42.2720353" lon="13.9383971"><ele>186.6</ele><time>2026-05-02T08:39:10.041Z</time></trkpt><trkpt lat="42.2719646" lon="13.9383854"><ele>185.4</ele><time>2026-05-02T08:39:11.041Z</time></trkpt><trkpt lat="42.2718525" lon="13.9383755"><ele>184.2</ele><time>2026-05-02T08:39:13.041Z</time></trkpt><trkpt lat="42.2717749" lon="13.9383038"><ele>183.0</ele><time>2026-05-02T08:39:15.041Z</time></trkpt><trkpt lat="42.2717321" lon="13.9381494"><ele>181.71428571428572</ele><time>2026-05-02T08:39:17.042Z</time></trkpt><trkpt lat="42.2717197" lon="13.9380555"><ele>180.42857142857144</ele><time>2026-05-02T08:39:18.041Z</time></trkpt><trkpt lat="42.2716919" lon="13.9379629"><ele>179.14285714285714</ele><time>2026-05-02T08:39:19.041Z</time></trkpt><trkpt lat="42.2716486" lon="13.9378984"><ele>177.85714285714286</ele><time>2026-05-02T08:39:20.041Z</time></trkpt><trkpt lat="42.2715847" lon="13.9378532"><ele>176.57142857142858</ele><time>2026-05-02T08:39:21.041Z</time></trkpt><trkpt lat="42.2715138" lon="13.9378326"><ele>175.28571428571428</ele><time>2026-05-02T08:39:22.041Z</time></trkpt><trkpt lat="42.2714362" lon="13.9378321"><ele>174.0</ele><time>2026-05-02T08:39:23.042Z</time></trkpt><trkpt lat="42.2713521" lon="13.9378387"><ele>173.16666666666666</ele><time>2026-05-02T08:39:24.041Z</time></trkpt><trkpt lat="42.2712679" lon="13.9378506"><ele>172.33333333333334</ele><time>2026-05-02T08:39:25.041Z</time></trkpt><trkpt lat="42.2711882" lon="13.9378795"><ele>171.5</ele><time>2026-05-02T08:39:26.041Z</time></trkpt><trkpt lat="42.2711155" lon="13.9379336"><ele>170.66666666666669</ele><time>2026-05-02T08:39:27.041Z</time></trkpt><trkpt lat="42.2710576" lon="13.9380051"><ele>169.83333333333334</ele><time>2026-05-02T08:39:28.042Z</time></trkpt><trkpt lat="42.2710068" lon="13.9380835"><ele>169.0</ele><time>2026-05-02T08:39:29.041Z</time></trkpt><trkpt lat="42.270961" lon="13.9381765"><ele>169.0</ele><time>2026-05-02T08:39:30.041Z</time></trkpt><trkpt lat="42.2709182" lon="13.9382782"><ele>169.0</ele><time>2026-05-02T08:39:31.041Z</time></trkpt><trkpt lat="42.2708831" lon="13.9383898"><ele>169.0</ele><time>2026-05-02T08:39:32.041Z</time></trkpt><trkpt lat="42.2708519" lon="13.938506"><ele>169.0</ele><time>2026-05-02T08:39:33.041Z</time></trkpt><trkpt lat="42.2708317" lon="13.9386161"><ele>169.0</ele><time>2026-05-02T08:39:34.042Z</time></trkpt><trkpt lat="42.2708197" lon="13.9387214"><ele>169.0</ele><time>2026-05-02T08:39:35.041Z</time></trkpt><trkpt lat="42.2708018" lon="13.9388287"><ele>169.39999999999998</ele><time>2026-05-02T08:39:36.042Z</time></trkpt><trkpt lat="42.2707711" lon="13.9389415"><ele>169.8</ele><time>2026-05-02T08:39:37.041Z</time></trkpt><trkpt lat="42.2707364" lon="13.9390748"><ele>170.2</ele><time>2026-05-02T08:39:38.042Z</time></trkpt><trkpt lat="42.2707054" lon="13.9392306"><ele>170.60000000000002</ele><time>2026-05-02T08:39:39.041Z</time></trkpt><trkpt lat="42.2706791" lon="13.9394003"><ele>171.0</ele><time>2026-05-02T08:39:40.041Z</time></trkpt><trkpt lat="42.2706616" lon="13.9395684"><ele>171.25</ele><time>2026-05-02T08:39:41.041Z</time></trkpt><trkpt lat="42.2706315" lon="13.9397144"><ele>171.5</ele><time>2026-05-02T08:39:42.042Z</time></trkpt><trkpt lat="42.2705839" lon="13.9398465"><ele>171.75</ele><time>2026-05-02T08:39:43.041Z</time></trkpt><trkpt lat="42.2705295" lon="13.9399904"><ele>172.0</ele><time>2026-05-02T08:39:44.041Z</time></trkpt><trkpt lat="42.2704734" lon="13.9401269"><ele>169.0</ele><time>2026-05-02T08:39:45.041Z</time></trkpt><trkpt lat="42.2704254" lon="13.9402482"><ele>166.0</ele><time>2026-05-02T08:39:46.041Z</time></trkpt><trkpt lat="42.2703814" lon="13.9403727"><ele>163.0</ele><time>2026-05-02T08:39:47.042Z</time></trkpt><trkpt lat="42.2703372" lon="13.9404948"><ele>160.0</ele><time>2026-05-02T08:39:48.041Z</time></trkpt><trkpt lat="42.270299" lon="13.9406087"><ele>157.0</ele><time>2026-05-02T08:39:49.041Z</time></trkpt><trkpt lat="42.2702642" lon="13.9407178"><ele>157.0</ele><time>2026-05-02T08:39:50.041Z</time></trkpt><trkpt lat="42.2702299" lon="13.9408197"><ele>157.0</ele><time>2026-05-02T08:39:51.041Z</time></trkpt><trkpt lat="42.2701965" lon="13.9409205"><ele>157.0</ele><time>2026-05-02T08:39:52.041Z</time></trkpt><trkpt lat="42.2701668" lon="13.9410121"><ele>157.0</ele><time>2026-05-02T08:39:53.041Z</time></trkpt><trkpt lat="42.2701376" lon="13.941109"><ele>157.0</ele><time>2026-05-02T08:39:54.041Z</time></trkpt><trkpt lat="42.270099" lon="13.9411891"><ele>157.0</ele><time>2026-05-02T08:39:55.041Z</time></trkpt><trkpt lat="42.2700502" lon="13.9412563"><ele>157.0</ele><time>2026-05-02T08:39:56.041Z</time></trkpt><trkpt lat="42.2699958" lon="13.9413279"><ele>157.0</ele><time>2026-05-02T08:39:57.041Z</time></trkpt><trkpt lat="42.2699368" lon="13.9413973"><ele>157.0</ele><time>2026-05-02T08:39:58.042Z</time></trkpt><trkpt lat="42.269911" lon="13.9414802"><ele>157.0</ele><time>2026-05-02T08:39:59.041Z</time></trkpt><trkpt lat="42.2699027" lon="13.9415798"><ele>157.0</ele><time>2026-05-02T08:40:00.041Z</time></trkpt><trkpt lat="42.2699123" lon="13.9416858"><ele>157.0</ele><time>2026-05-02T08:40:01.041Z</time></trkpt><trkpt lat="42.2699256" lon="13.9418052"><ele>156.33333333333334</ele><time>2026-05-02T08:40:02.041Z</time></trkpt><trkpt lat="42.2699302" lon="13.9419125"><ele>155.66666666666669</ele><time>2026-05-02T08:40:03.041Z</time></trkpt><trkpt lat="42.2699296" lon="13.9420054"><ele>155.0</ele><time>2026-05-02T08:40:04.041Z</time></trkpt><trkpt lat="42.2699219" lon="13.942099"><ele>154.33333333333334</ele><time>2026-05-02T08:40:05.041Z</time></trkpt><trkpt lat="42.2698434" lon="13.9422364"><ele>153.66666666666666</ele><time>2026-05-02T08:40:07.042Z</time></trkpt><trkpt lat="42.2697821" lon="13.9422915"><ele>153.0</ele><time>2026-05-02T08:40:08.041Z</time></trkpt><trkpt lat="42.2697207" lon="13.9423304"><ele>152.0</ele><time>2026-05-02T08:40:09.041Z</time></trkpt><trkpt lat="42.2696484" lon="13.9423623"><ele>151.0</ele><time>2026-05-02T08:40:10.042Z</time></trkpt><trkpt lat="42.2695635" lon="13.942397"><ele>150.0</ele><time>2026-05-02T08:40:11.041Z</time></trkpt><trkpt lat="42.2694668" lon="13.9424319"><ele>149.0</ele><time>2026-05-02T08:40:12.041Z</time></trkpt><trkpt lat="42.2693563" lon="13.942467"><ele>148.0</ele><time>2026-05-02T08:40:13.041Z</time></trkpt><trkpt lat="42.2692424" lon="13.9425028"><ele>148.0</ele><time>2026-05-02T08:40:14.041Z</time></trkpt><trkpt lat="42.2691213" lon="13.9425407"><ele>148.0</ele><time>2026-05-02T08:40:15.042Z</time></trkpt><trkpt lat="42.2690073" lon="13.9425774"><ele>148.0</ele><time>2026-05-02T08:40:16.041Z</time></trkpt><trkpt lat="42.2689033" lon="13.9426122"><ele>148.0</ele><time>2026-05-02T08:40:17.041Z</time></trkpt><trkpt lat="42.2688118" lon="13.9426392"><ele>148.0</ele><time>2026-05-02T08:40:18.041Z</time></trkpt><trkpt lat="42.2687412" lon="13.9426671"><ele>148.0</ele><time>2026-05-02T08:40:19.041Z</time></trkpt><trkpt lat="42.2686764" lon="13.9426773"><ele>148.0</ele><time>2026-05-02T08:40:20.041Z</time></trkpt><trkpt lat="42.2686057" lon="13.9426718"><ele>148.0</ele><time>2026-05-02T08:40:21.042Z</time></trkpt><trkpt lat="42.2685412" lon="13.9426541"><ele>148.0</ele><time>2026-05-02T08:40:22.041Z</time></trkpt><trkpt lat="42.2684264" lon="13.9426155"><ele>148.0</ele><time>2026-05-02T08:40:24.041Z</time></trkpt><trkpt lat="42.2683561" lon="13.9425743"><ele>148.0</ele><time>2026-05-02T08:40:25.042Z</time></trkpt><trkpt lat="42.2682872" lon="13.9425071"><ele>148.0</ele><time>2026-05-02T08:40:26.041Z</time></trkpt><trkpt lat="42.2682166" lon="13.9424341"><ele>148.0</ele><time>2026-05-02T08:40:27.041Z</time></trkpt><trkpt lat="42.2681591" lon="13.9423719"><ele>148.0</ele><time>2026-05-02T08:40:28.041Z</time></trkpt><trkpt lat="42.2681015" lon="13.942326"><ele>148.0</ele><time>2026-05-02T08:40:29.041Z</time></trkpt><trkpt lat="42.2680398" lon="13.942305"><ele>148.0</ele><time>2026-05-02T08:40:30.041Z</time></trkpt><trkpt lat="42.2679258" lon="13.9423306"><ele>148.0</ele><time>2026-05-02T08:40:32.041Z</time></trkpt><trkpt lat="42.2678258" lon="13.9423202"><ele>150.20000000000002</ele><time>2026-05-02T08:40:34.041Z</time></trkpt><trkpt lat="42.2677648" lon="13.9422805"><ele>152.4</ele><time>2026-05-02T08:40:36.042Z</time></trkpt><trkpt lat="42.2677114" lon="13.9421678"><ele>154.60000000000002</ele><time>2026-05-02T08:40:38.041Z</time></trkpt><trkpt lat="42.2676856" lon="13.9420438"><ele>156.8</ele><time>2026-05-02T08:40:40.041Z</time></trkpt><trkpt lat="42.2676789" lon="13.9419295"><ele>159.0</ele><time>2026-05-02T08:40:42.042Z</time></trkpt><trkpt lat="42.2676547" lon="13.9417934"><ele>158.83333333333334</ele><time>2026-05-02T08:40:44.041Z</time></trkpt><trkpt lat="42.2676168" lon="13.941642"><ele>158.66666666666666</ele><time>2026-05-02T08:40:46.041Z</time></trkpt><trkpt lat="42.2675924" lon="13.9415621"><ele>158.5</ele><time>2026-05-02T08:40:47.041Z</time></trkpt><trkpt lat="42.2675624" lon="13.941485"><ele>158.33333333333331</ele><time>2026-05-02T08:40:48.042Z</time></trkpt><trkpt lat="42.267525" lon="13.9414094"><ele>158.16666666666666</ele><time>2026-05-02T08:40:49.041Z</time></trkpt><trkpt lat="42.2674838" lon="13.9413284"><ele>158.0</ele><time>2026-05-02T08:40:50.041Z</time></trkpt><trkpt lat="42.2674363" lon="13.9412561"><ele>158.0</ele><time>2026-05-02T08:40:51.041Z</time></trkpt><trkpt lat="42.2673867" lon="13.9411828"><ele>158.0</ele><time>2026-05-02T08:40:52.041Z</time></trkpt><trkpt lat="42.2673359" lon="13.9410989"><ele>158.0</ele><time>2026-05-02T08:40:53.041Z</time></trkpt><trkpt lat="42.2672844" lon="13.9410045"><ele>158.0</ele><time>2026-05-02T08:40:54.041Z</time></trkpt><trkpt lat="42.2672252" lon="13.9409062"><ele>158.0</ele><time>2026-05-02T08:40:55.042Z</time></trkpt><trkpt lat="42.26717" lon="13.9408123"><ele>158.0</ele><time>2026-05-02T08:40:56.041Z</time></trkpt><trkpt lat="42.2671154" lon="13.9407171"><ele>160.66666666666666</ele><time>2026-05-02T08:40:57.041Z</time></trkpt><trkpt lat="42.2670725" lon="13.9406161"><ele>163.33333333333331</ele><time>2026-05-02T08:40:58.042Z</time></trkpt><trkpt lat="42.2670244" lon="13.9405295"><ele>166.0</ele><time>2026-05-02T08:40:59.041Z</time></trkpt><trkpt lat="42.26698" lon="13.9404469"><ele>168.66666666666666</ele><time>2026-05-02T08:41:00.042Z</time></trkpt><trkpt lat="42.2669404" lon="13.9403584"><ele>171.33333333333334</ele><time>2026-05-02T08:41:01.042Z</time></trkpt><trkpt lat="42.2669153" lon="13.9402709"><ele>174.0</ele><time>2026-05-02T08:41:02.041Z</time></trkpt><trkpt lat="42.2668745" lon="13.9401579"><ele>174.0</ele><time>2026-05-02T08:41:04.041Z</time></trkpt><trkpt lat="42.2668037" lon="13.9401435"><ele>174.0</ele><time>2026-05-02T08:41:06.042Z</time></trkpt><trkpt lat="42.2667281" lon="13.9402261"><ele>174.0</ele><time>2026-05-02T08:41:08.042Z</time></trkpt><trkpt lat="42.2666891" lon="13.940354"><ele>174.0</ele><time>2026-05-02T08:41:10.041Z</time></trkpt><trkpt lat="42.2666675" lon="13.9404343"><ele>174.0</ele><time>2026-05-02T08:41:11.042Z</time></trkpt><trkpt lat="42.2666403" lon="13.940515"><ele>174.0</ele><time>2026-05-02T08:41:12.041Z</time></trkpt><trkpt lat="42.2666065" lon="13.9406083"><ele>174.0</ele><time>2026-05-02T08:41:13.041Z</time></trkpt><trkpt lat="42.2665613" lon="13.9407203"><ele>174.0</ele><time>2026-05-02T08:41:14.042Z</time></trkpt><trkpt lat="42.2665186" lon="13.9408473"><ele>174.0</ele><time>2026-05-02T08:41:15.041Z</time></trkpt><trkpt lat="42.2664818" lon="13.9409731"><ele>174.0</ele><time>2026-05-02T08:41:16.042Z</time></trkpt><trkpt lat="42.266446" lon="13.9411056"><ele>174.0</ele><time>2026-05-02T08:41:17.041Z</time></trkpt><trkpt lat="42.2664071" lon="13.9412368"><ele>177.79999999999998</ele><time>2026-05-02T08:41:18.041Z</time></trkpt><trkpt lat="42.2663624" lon="13.9413623"><ele>181.6</ele><time>2026-05-02T08:41:19.041Z</time></trkpt><trkpt lat="42.2663353" lon="13.941483"><ele>185.4</ele><time>2026-05-02T08:41:20.041Z</time></trkpt><trkpt lat="42.2663241" lon="13.9416007"><ele>189.2</ele><time>2026-05-02T08:41:21.041Z</time></trkpt><trkpt lat="42.266334" lon="13.941717"><ele>193.0</ele><time>2026-05-02T08:41:22.041Z</time></trkpt><trkpt lat="42.2663562" lon="13.9418529"><ele>194.0</ele><time>2026-05-02T08:41:23.041Z</time></trkpt><trkpt lat="42.2663788" lon="13.9419976"><ele>195.0</ele><time>2026-05-02T08:41:24.041Z</time></trkpt><trkpt lat="42.2663962" lon="13.9421407"><ele>196.0</ele><time>2026-05-02T08:41:25.041Z</time></trkpt><trkpt lat="42.2664143" lon="13.942293"><ele>197.0</ele><time>2026-05-02T08:41:26.041Z</time></trkpt><trkpt lat="42.2664333" lon="13.9424525"><ele>193.39999999999998</ele><time>2026-05-02T08:41:27.041Z</time></trkpt><trkpt lat="42.266453" lon="13.9426115"><ele>189.79999999999998</ele><time>2026-05-02T08:41:28.042Z</time></trkpt><trkpt lat="42.2664737" lon="13.9427626"><ele>186.2</ele><time>2026-05-02T08:41:29.041Z</time></trkpt><trkpt lat="42.2664936" lon="13.9429037"><ele>182.6</ele><time>2026-05-02T08:41:30.042Z</time></trkpt><trkpt lat="42.2665093" lon="13.9430326"><ele>179.0</ele><time>2026-05-02T08:41:31.041Z</time></trkpt><trkpt lat="42.2665218" lon="13.9431238"><ele>179.0</ele><time>2026-05-02T08:41:32.042Z</time></trkpt><trkpt lat="42.2664708" lon="13.9432856"><ele>179.0</ele><time>2026-05-02T08:41:44.041Z</time></trkpt><trkpt lat="42.2663973" lon="13.9432863"><ele>179.0</ele><time>2026-05-02T08:41:46.041Z</time></trkpt><trkpt lat="42.2662647" lon="13.9432867"><ele>179.0</ele><time>2026-05-02T08:41:48.041Z</time></trkpt><trkpt lat="42.266185" lon="13.9432936"><ele>179.0</ele><time>2026-05-02T08:41:49.041Z</time></trkpt><trkpt lat="42.2660916" lon="13.9433052"><ele>181.16666666666666</ele><time>2026-05-02T08:41:50.042Z</time></trkpt><trkpt lat="42.2659904" lon="13.9433153"><ele>183.33333333333331</ele><time>2026-05-02T08:41:51.041Z</time></trkpt><trkpt lat="42.2658988" lon="13.9433239"><ele>185.5</ele><time>2026-05-02T08:41:52.041Z</time></trkpt><trkpt lat="42.2658166" lon="13.9433288"><ele>187.66666666666666</ele><time>2026-05-02T08:41:53.041Z</time></trkpt><trkpt lat="42.265738" lon="13.9433099"><ele>189.83333333333334</ele><time>2026-05-02T08:41:54.041Z</time></trkpt><trkpt lat="42.2656707" lon="13.9432806"><ele>192.0</ele><time>2026-05-02T08:41:55.041Z</time></trkpt><trkpt lat="42.2655899" lon="13.9432124"><ele>192.0</ele><time>2026-05-02T08:41:56.041Z</time></trkpt><trkpt lat="42.2655096" lon="13.9431337"><ele>192.0</ele><time>2026-05-02T08:41:57.041Z</time></trkpt><trkpt lat="42.2654339" lon="13.9430526"><ele>192.0</ele><time>2026-05-02T08:41:58.041Z</time></trkpt><trkpt lat="42.2653699" lon="13.9429723"><ele>192.0</ele><time>2026-05-02T08:41:59.041Z</time></trkpt><trkpt lat="42.2653309" lon="13.9428992"><ele>192.0</ele><time>2026-05-02T08:42:00.041Z</time></trkpt><trkpt lat="42.2652759" lon="13.9427521"><ele>192.0</ele><time>2026-05-02T08:42:02.041Z</time></trkpt><trkpt lat="42.2652195" lon="13.9426032"><ele>192.0</ele><time>2026-05-02T08:42:04.041Z</time></trkpt><trkpt lat="42.2651849" lon="13.9425278"><ele>192.0</ele><time>2026-05-02T08:42:05.041Z</time></trkpt><trkpt lat="42.2651472" lon="13.9424496"><ele>192.0</ele><time>2026-05-02T08:42:06.041Z</time></trkpt><trkpt lat="42.2651156" lon="13.9423652"><ele>192.0</ele><time>2026-05-02T08:42:07.041Z</time></trkpt><trkpt lat="42.2650817" lon="13.9422794"><ele>192.0</ele><time>2026-05-02T08:42:08.041Z</time></trkpt><trkpt lat="42.265042" lon="13.9421864"><ele>195.0</ele><time>2026-05-02T08:42:09.041Z</time></trkpt><trkpt lat="42.2650026" lon="13.9420823"><ele>198.0</ele><time>2026-05-02T08:42:10.041Z</time></trkpt><trkpt lat="42.2649568" lon="13.9419707"><ele>201.0</ele><time>2026-05-02T08:42:11.041Z</time></trkpt><trkpt lat="42.2649055" lon="13.9418516"><ele>204.0</ele><time>2026-05-02T08:42:12.041Z</time></trkpt><trkpt lat="42.2648468" lon="13.9417333"><ele>207.0</ele><time>2026-05-02T08:42:13.042Z</time></trkpt><trkpt lat="42.2648022" lon="13.941623"><ele>207.6</ele><time>2026-05-02T08:42:14.041Z</time></trkpt><trkpt lat="42.2647664" lon="13.9415064"><ele>208.2</ele><time>2026-05-02T08:42:15.041Z</time></trkpt><trkpt lat="42.2647381" lon="13.9413864"><ele>208.8</ele><time>2026-05-02T08:42:16.041Z</time></trkpt><trkpt lat="42.2647221" lon="13.9412608"><ele>209.4</ele><time>2026-05-02T08:42:17.041Z</time></trkpt><trkpt lat="42.2647187" lon="13.9411313"><ele>210.0</ele><time>2026-05-02T08:42:18.041Z</time></trkpt><trkpt lat="42.2647136" lon="13.9410054"><ele>210.0</ele><time>2026-05-02T08:42:19.041Z</time></trkpt><trkpt lat="42.264707" lon="13.9408839"><ele>210.0</ele><time>2026-05-02T08:42:20.042Z</time></trkpt><trkpt lat="42.2646942" lon="13.9407615"><ele>210.0</ele><time>2026-05-02T08:42:21.041Z</time></trkpt><trkpt lat="42.2646769" lon="13.9406491"><ele>210.0</ele><time>2026-05-02T08:42:22.041Z</time></trkpt><trkpt lat="42.2646578" lon="13.9405386"><ele>210.0</ele><time>2026-05-02T08:42:23.042Z</time></trkpt><trkpt lat="42.2646353" lon="13.9404263"><ele>210.0</ele><time>2026-05-02T08:42:24.041Z</time></trkpt><trkpt lat="42.2646144" lon="13.9403053"><ele>212.4</ele><time>2026-05-02T08:42:25.041Z</time></trkpt><trkpt lat="42.2645913" lon="13.9401808"><ele>214.8</ele><time>2026-05-02T08:42:26.041Z</time></trkpt><trkpt lat="42.2645705" lon="13.940052"><ele>217.2</ele><time>2026-05-02T08:42:27.041Z</time></trkpt><trkpt lat="42.2645514" lon="13.9399175"><ele>219.6</ele><time>2026-05-02T08:42:28.042Z</time></trkpt><trkpt lat="42.2645345" lon="13.9397837"><ele>222.0</ele><time>2026-05-02T08:42:29.041Z</time></trkpt><trkpt lat="42.2645167" lon="13.9396461"><ele>222.83333333333334</ele><time>2026-05-02T08:42:30.041Z</time></trkpt><trkpt lat="42.2644985" lon="13.9395307"><ele>223.66666666666669</ele><time>2026-05-02T08:42:31.041Z</time></trkpt><trkpt lat="42.2644702" lon="13.9394507"><ele>224.5</ele><time>2026-05-02T08:42:32.042Z</time></trkpt><trkpt lat="42.2644108" lon="13.9393231"><ele>225.33333333333334</ele><time>2026-05-02T08:42:34.041Z</time></trkpt><trkpt lat="42.264385" lon="13.9392436"><ele>226.16666666666669</ele><time>2026-05-02T08:42:35.042Z</time></trkpt><trkpt lat="42.2643709" lon="13.9391524"><ele>227.0</ele><time>2026-05-02T08:42:36.041Z</time></trkpt><trkpt lat="42.2643373" lon="13.9390789"><ele>228.66666666666669</ele><time>2026-05-02T08:42:37.041Z</time></trkpt><trkpt lat="42.2642934" lon="13.9390022"><ele>230.33333333333334</ele><time>2026-05-02T08:42:38.041Z</time></trkpt><trkpt lat="42.2642405" lon="13.9389185"><ele>232.0</ele><time>2026-05-02T08:42:39.041Z</time></trkpt><trkpt lat="42.2641803" lon="13.9388385"><ele>233.66666666666669</ele><time>2026-05-02T08:42:40.042Z</time></trkpt><trkpt lat="42.2641209" lon="13.9387553"><ele>235.33333333333334</ele><time>2026-05-02T08:42:41.041Z</time></trkpt><trkpt lat="42.2640543" lon="13.9386548"><ele>237.0</ele><time>2026-05-02T08:42:42.041Z</time></trkpt><trkpt lat="42.2639805" lon="13.9385618"><ele>237.33333333333334</ele><time>2026-05-02T08:42:43.041Z</time></trkpt><trkpt lat="42.2639048" lon="13.9384642"><ele>237.66666666666669</ele><time>2026-05-02T08:42:44.041Z</time></trkpt><trkpt lat="42.2638355" lon="13.9383748"><ele>238.0</ele><time>2026-05-02T08:42:45.042Z</time></trkpt><trkpt lat="42.2637771" lon="13.9383101"><ele>238.33333333333334</ele><time>2026-05-02T08:42:46.041Z</time></trkpt><trkpt lat="42.2637318" lon="13.9382393"><ele>238.66666666666669</ele><time>2026-05-02T08:42:47.041Z</time></trkpt><trkpt lat="42.2636843" lon="13.9381768"><ele>239.0</ele><time>2026-05-02T08:42:48.041Z</time></trkpt><trkpt lat="42.2636452" lon="13.9381054"><ele>239.0</ele><time>2026-05-02T08:42:49.041Z</time></trkpt><trkpt lat="42.2635979" lon="13.9380135"><ele>238.99999999999997</ele><time>2026-05-02T08:42:50.041Z</time></trkpt><trkpt lat="42.2635517" lon="13.9379099"><ele>238.99999999999997</ele><time>2026-05-02T08:42:51.041Z</time></trkpt><trkpt lat="42.2635023" lon="13.937796"><ele>239.0</ele><time>2026-05-02T08:42:52.041Z</time></trkpt><trkpt lat="42.2634548" lon="13.9376811"><ele>239.0</ele><time>2026-05-02T08:42:53.041Z</time></trkpt><trkpt lat="42.2634126" lon="13.9375552"><ele>242.79999999999998</ele><time>2026-05-02T08:42:54.041Z</time></trkpt><trkpt lat="42.2633727" lon="13.9374247"><ele>246.59999999999997</ele><time>2026-05-02T08:42:55.041Z</time></trkpt><trkpt lat="42.2633416" lon="13.9372993"><ele>250.4</ele><time>2026-05-02T08:42:56.041Z</time></trkpt><trkpt lat="42.2633202" lon="13.937174"><ele>254.2</ele><time>2026-05-02T08:42:57.041Z</time></trkpt><trkpt lat="42.2633025" lon="13.9370497"><ele>258.0</ele><time>2026-05-02T08:42:58.042Z</time></trkpt><trkpt lat="42.2632856" lon="13.9369212"><ele>258.0</ele><time>2026-05-02T08:42:59.041Z</time></trkpt><trkpt lat="42.2632677" lon="13.9368022"><ele>258.0</ele><time>2026-05-02T08:43:00.041Z</time></trkpt><trkpt lat="42.2632366" lon="13.9367021"><ele>258.0</ele><time>2026-05-02T08:43:01.041Z</time></trkpt><trkpt lat="42.2631957" lon="13.9366174"><ele>258.0</ele><time>2026-05-02T08:43:02.041Z</time></trkpt><trkpt lat="42.263151" lon="13.9365491"><ele>258.0</ele><time>2026-05-02T08:43:03.041Z</time></trkpt><trkpt lat="42.2630456" lon="13.9364709"><ele>258.0</ele><time>2026-05-02T08:43:05.041Z</time></trkpt><trkpt lat="42.2629805" lon="13.9364495"><ele>259.4</ele><time>2026-05-02T08:43:06.041Z</time></trkpt><trkpt lat="42.2629016" lon="13.9364355"><ele>260.8</ele><time>2026-05-02T08:43:07.042Z</time></trkpt><trkpt lat="42.262815" lon="13.9364207"><ele>262.2</ele><time>2026-05-02T08:43:08.041Z</time></trkpt><trkpt lat="42.2627415" lon="13.9363871"><ele>263.6</ele><time>2026-05-02T08:43:09.041Z</time></trkpt><trkpt lat="42.2626437" lon="13.9363125"><ele>265.0</ele><time>2026-05-02T08:43:11.041Z</time></trkpt><trkpt lat="42.2625475" lon="13.9361961"><ele>265.0</ele><time>2026-05-02T08:43:13.041Z</time></trkpt><trkpt lat="42.2624989" lon="13.9361135"><ele>265.0</ele><time>2026-05-02T08:43:14.041Z</time></trkpt><trkpt lat="42.2624391" lon="13.9360288"><ele>265.0</ele><time>2026-05-02T08:43:15.041Z</time></trkpt><trkpt lat="42.262373" lon="13.9359406"><ele>265.0</ele><time>2026-05-02T08:43:16.041Z</time></trkpt><trkpt lat="42.2623056" lon="13.9358547"><ele>265.0</ele><time>2026-05-02T08:43:17.042Z</time></trkpt><trkpt lat="42.2622355" lon="13.9357722"><ele>265.0</ele><time>2026-05-02T08:43:18.041Z</time></trkpt><trkpt lat="42.2621744" lon="13.9356977"><ele>267.0</ele><time>2026-05-02T08:43:19.041Z</time></trkpt><trkpt lat="42.262123" lon="13.9356263"><ele>269.0</ele><time>2026-05-02T08:43:20.041Z</time></trkpt><trkpt lat="42.2620908" lon="13.9355448"><ele>271.0</ele><time>2026-05-02T08:43:21.041Z</time></trkpt><trkpt lat="42.262096" lon="13.9353701"><ele>273.0</ele><time>2026-05-02T08:43:23.041Z</time></trkpt><trkpt lat="42.262097" lon="13.9352506"><ele>275.0</ele><time>2026-05-02T08:43:24.042Z</time></trkpt><trkpt lat="42.2620997" lon="13.9351152"><ele>276.4</ele><time>2026-05-02T08:43:25.041Z</time></trkpt><trkpt lat="42.2621048" lon="13.9349798"><ele>277.8</ele><time>2026-05-02T08:43:26.041Z</time></trkpt><trkpt lat="42.2621078" lon="13.9348417"><ele>279.2</ele><time>2026-05-02T08:43:27.041Z</time></trkpt><trkpt lat="42.2621115" lon="13.9347031"><ele>280.6</ele><time>2026-05-02T08:43:28.041Z</time></trkpt><trkpt lat="42.262107" lon="13.934582"><ele>282.0</ele><time>2026-05-02T08:43:29.041Z</time></trkpt><trkpt lat="42.2621041" lon="13.9344803"><ele>282.0</ele><time>2026-05-02T08:43:30.041Z</time></trkpt><trkpt lat="42.2621037" lon="13.9343888"><ele>282.0</ele><time>2026-05-02T08:43:31.041Z</time></trkpt><trkpt lat="42.2620975" lon="13.934298"><ele>282.0</ele><time>2026-05-02T08:43:32.041Z</time></trkpt><trkpt lat="42.2620745" lon="13.9341589"><ele>282.0</ele><time>2026-05-02T08:43:34.042Z</time></trkpt><trkpt lat="42.2619901" lon="13.9340971"><ele>282.0</ele><time>2026-05-02T08:43:37.041Z</time></trkpt><trkpt lat="42.2618849" lon="13.9341143"><ele>282.0</ele><time>2026-05-02T08:43:39.041Z</time></trkpt><trkpt lat="42.2617977" lon="13.934114"><ele>282.0</ele><time>2026-05-02T08:43:41.041Z</time></trkpt><trkpt lat="42.2616992" lon="13.9340962"><ele>282.0</ele><time>2026-05-02T08:43:43.041Z</time></trkpt><trkpt lat="42.2616347" lon="13.9340716"><ele>282.0</ele><time>2026-05-02T08:43:44.041Z</time></trkpt><trkpt lat="42.2615598" lon="13.9340295"><ele>282.0</ele><time>2026-05-02T08:43:45.042Z</time></trkpt><trkpt lat="42.2614679" lon="13.9339886"><ele>282.0</ele><time>2026-05-02T08:43:46.041Z</time></trkpt><trkpt lat="42.2613597" lon="13.9339438"><ele>282.0</ele><time>2026-05-02T08:43:47.042Z</time></trkpt><trkpt lat="42.2612436" lon="13.9338943"><ele>282.0</ele><time>2026-05-02T08:43:48.042Z</time></trkpt><trkpt lat="42.2611289" lon="13.9338411"><ele>282.0</ele><time>2026-05-02T08:43:49.041Z</time></trkpt><trkpt lat="42.2610139" lon="13.9337904"><ele>282.0</ele><time>2026-05-02T08:43:50.041Z</time></trkpt><trkpt lat="42.2609025" lon="13.9337332"><ele>282.0</ele><time>2026-05-02T08:43:51.041Z</time></trkpt><trkpt lat="42.2607942" lon="13.9336824"><ele>282.0</ele><time>2026-05-02T08:43:52.041Z</time></trkpt><trkpt lat="42.2606898" lon="13.933628"><ele>282.0</ele><time>2026-05-02T08:43:53.041Z</time></trkpt><trkpt lat="42.260591" lon="13.9335779"><ele>282.0</ele><time>2026-05-02T08:43:54.042Z</time></trkpt><trkpt lat="42.2604954" lon="13.9335422"><ele>282.0</ele><time>2026-05-02T08:43:55.041Z</time></trkpt><trkpt lat="42.2604046" lon="13.933523"><ele>282.4</ele><time>2026-05-02T08:43:56.041Z</time></trkpt><trkpt lat="42.260305" lon="13.9335192"><ele>282.79999999999995</ele><time>2026-05-02T08:43:57.041Z</time></trkpt><trkpt lat="42.2602034" lon="13.9335292"><ele>283.2</ele><time>2026-05-02T08:43:58.041Z</time></trkpt><trkpt lat="42.2600972" lon="13.9335463"><ele>283.59999999999997</ele><time>2026-05-02T08:43:59.042Z</time></trkpt><trkpt lat="42.2599873" lon="13.9335571"><ele>284.0</ele><time>2026-05-02T08:44:00.042Z</time></trkpt><trkpt lat="42.2598775" lon="13.9335538"><ele>283.0</ele><time>2026-05-02T08:44:01.042Z</time></trkpt><trkpt lat="42.2597703" lon="13.9335556"><ele>282.0</ele><time>2026-05-02T08:44:02.041Z</time></trkpt><trkpt lat="42.2596678" lon="13.9335535"><ele>281.0</ele><time>2026-05-02T08:44:03.041Z</time></trkpt><trkpt lat="42.2595681" lon="13.9335344"><ele>280.0</ele><time>2026-05-02T08:44:04.041Z</time></trkpt><trkpt lat="42.259473" lon="13.9334912"><ele>279.0</ele><time>2026-05-02T08:44:05.041Z</time></trkpt><trkpt lat="42.2593853" lon="13.9334366"><ele>282.0</ele><time>2026-05-02T08:44:06.041Z</time></trkpt><trkpt lat="42.2593002" lon="13.9333778"><ele>285.0</ele><time>2026-05-02T08:44:07.041Z</time></trkpt><trkpt lat="42.2592112" lon="13.933314"><ele>288.0</ele><time>2026-05-02T08:44:08.042Z</time></trkpt><trkpt lat="42.2591148" lon="13.9332441"><ele>291.0</ele><time>2026-05-02T08:44:09.042Z</time></trkpt><trkpt lat="42.2590239" lon="13.9331879"><ele>294.0</ele><time>2026-05-02T08:44:10.041Z</time></trkpt><trkpt lat="42.2589306" lon="13.9331433"><ele>294.0</ele><time>2026-05-02T08:44:11.041Z</time></trkpt><trkpt lat="42.2588359" lon="13.933106"><ele>294.0</ele><time>2026-05-02T08:44:12.042Z</time></trkpt><trkpt lat="42.258737" lon="13.9330887"><ele>294.0</ele><time>2026-05-02T08:44:13.041Z</time></trkpt><trkpt lat="42.2586328" lon="13.933086"><ele>294.0</ele><time>2026-05-02T08:44:14.041Z</time></trkpt><trkpt lat="42.258529" lon="13.9330841"><ele>294.0</ele><time>2026-05-02T08:44:15.041Z</time></trkpt><trkpt lat="42.2584241" lon="13.9330951"><ele>294.0</ele><time>2026-05-02T08:44:16.041Z</time></trkpt><trkpt lat="42.2583308" lon="13.9331068"><ele>294.0</ele><time>2026-05-02T08:44:17.041Z</time></trkpt><trkpt lat="42.2582431" lon="13.9331159"><ele>294.0</ele><time>2026-05-02T08:44:18.041Z</time></trkpt><trkpt lat="42.2581505" lon="13.9331249"><ele>294.0</ele><time>2026-05-02T08:44:19.041Z</time></trkpt><trkpt lat="42.2580532" lon="13.9331287"><ele>294.0</ele><time>2026-05-02T08:44:20.042Z</time></trkpt><trkpt lat="42.257943" lon="13.9331219"><ele>295.0</ele><time>2026-05-02T08:44:21.041Z</time></trkpt><trkpt lat="42.2578307" lon="13.9331056"><ele>296.0</ele><time>2026-05-02T08:44:22.041Z</time></trkpt><trkpt lat="42.2577193" lon="13.9330939"><ele>297.0</ele><time>2026-05-02T08:44:23.041Z</time></trkpt><trkpt lat="42.2576206" lon="13.9331055"><ele>298.0</ele><time>2026-05-02T08:44:24.041Z</time></trkpt><trkpt lat="42.2575207" lon="13.9331371"><ele>299.0</ele><time>2026-05-02T08:44:25.042Z</time></trkpt><trkpt lat="42.2574176" lon="13.9331652"><ele>299.0</ele><time>2026-05-02T08:44:26.041Z</time></trkpt><trkpt lat="42.2573126" lon="13.9331834"><ele>299.0</ele><time>2026-05-02T08:44:27.041Z</time></trkpt><trkpt lat="42.2572076" lon="13.9332073"><ele>299.0</ele><time>2026-05-02T08:44:28.041Z</time></trkpt><trkpt lat="42.257105" lon="13.9332293"><ele>299.0</ele><time>2026-05-02T08:44:29.041Z</time></trkpt><trkpt lat="42.2570117" lon="13.9332651"><ele>299.0</ele><time>2026-05-02T08:44:30.041Z</time></trkpt><trkpt lat="42.2569139" lon="13.9333129"><ele>299.8</ele><time>2026-05-02T08:44:31.041Z</time></trkpt><trkpt lat="42.2568149" lon="13.9333368"><ele>300.59999999999997</ele><time>2026-05-02T08:44:32.041Z</time></trkpt><trkpt lat="42.2567145" lon="13.9333433"><ele>301.4</ele><time>2026-05-02T08:44:33.041Z</time></trkpt><trkpt lat="42.2566115" lon="13.9333293"><ele>302.2</ele><time>2026-05-02T08:44:34.041Z</time></trkpt><trkpt lat="42.2565178" lon="13.9333111"><ele>303.0</ele><time>2026-05-02T08:44:35.041Z</time></trkpt><trkpt lat="42.256422" lon="13.9332873"><ele>303.0</ele><time>2026-05-02T08:44:36.041Z</time></trkpt><trkpt lat="42.2563249" lon="13.9332464"><ele>303.0</ele><time>2026-05-02T08:44:37.041Z</time></trkpt><trkpt lat="42.2562235" lon="13.9332033"><ele>303.0</ele><time>2026-05-02T08:44:38.041Z</time></trkpt><trkpt lat="42.2561175" lon="13.9331542"><ele>303.0</ele><time>2026-05-02T08:44:39.042Z</time></trkpt><trkpt lat="42.256011" lon="13.933115"><ele>303.0</ele><time>2026-05-02T08:44:40.041Z</time></trkpt><trkpt lat="42.2559136" lon="13.9330828"><ele>303.0</ele><time>2026-05-02T08:44:41.041Z</time></trkpt><trkpt lat="42.2558222" lon="13.9330462"><ele>303.0</ele><time>2026-05-02T08:44:42.041Z</time></trkpt><trkpt lat="42.2557403" lon="13.9330031"><ele>303.0</ele><time>2026-05-02T08:44:43.041Z</time></trkpt><trkpt lat="42.2556851" lon="13.9329276"><ele>303.0</ele><time>2026-05-02T08:44:44.041Z</time></trkpt><trkpt lat="42.2556602" lon="13.9328272"><ele>303.0</ele><time>2026-05-02T08:44:45.041Z</time></trkpt><trkpt lat="42.2556529" lon="13.9326947"><ele>303.0</ele><time>2026-05-02T08:44:46.041Z</time></trkpt><trkpt lat="42.2556506" lon="13.9325555"><ele>303.5</ele><time>2026-05-02T08:44:47.041Z</time></trkpt><trkpt lat="42.2556309" lon="13.9324101"><ele>304.0</ele><time>2026-05-02T08:44:48.041Z</time></trkpt><trkpt lat="42.2555968" lon="13.9322695"><ele>304.5</ele><time>2026-05-02T08:44:49.041Z</time></trkpt><trkpt lat="42.2555402" lon="13.9321348"><ele>305.0</ele><time>2026-05-02T08:44:50.041Z</time></trkpt><trkpt lat="42.255468" lon="13.9320084"><ele>300.75</ele><time>2026-05-02T08:44:51.041Z</time></trkpt><trkpt lat="42.2553849" lon="13.9319006"><ele>296.5</ele><time>2026-05-02T08:44:52.041Z</time></trkpt><trkpt lat="42.255294" lon="13.9318126"><ele>292.25</ele><time>2026-05-02T08:44:53.041Z</time></trkpt><trkpt lat="42.2551893" lon="13.9317525"><ele>288.0</ele><time>2026-05-02T08:44:54.042Z</time></trkpt><trkpt lat="42.2550796" lon="13.931724"><ele>288.6</ele><time>2026-05-02T08:44:55.041Z</time></trkpt><trkpt lat="42.2549748" lon="13.9316949"><ele>289.20000000000005</ele><time>2026-05-02T08:44:56.041Z</time></trkpt><trkpt lat="42.2548871" lon="13.9316302"><ele>289.8</ele><time>2026-05-02T08:44:57.041Z</time></trkpt><trkpt lat="42.254816" lon="13.9315521"><ele>290.40000000000003</ele><time>2026-05-02T08:44:58.041Z</time></trkpt><trkpt lat="42.2547469" lon="13.931485"><ele>291.0</ele><time>2026-05-02T08:44:59.041Z</time></trkpt><trkpt lat="42.2546727" lon="13.9314535"><ele>291.0</ele><time>2026-05-02T08:45:00.041Z</time></trkpt><trkpt lat="42.254588" lon="13.9314579"><ele>291.0</ele><time>2026-05-02T08:45:01.042Z</time></trkpt><trkpt lat="42.2545058" lon="13.9314872"><ele>291.0</ele><time>2026-05-02T08:45:02.041Z</time></trkpt><trkpt lat="42.2544066" lon="13.9315239"><ele>291.0</ele><time>2026-05-02T08:45:03.041Z</time></trkpt><trkpt lat="42.2542984" lon="13.9315616"><ele>291.0</ele><time>2026-05-02T08:45:04.041Z</time></trkpt><trkpt lat="42.254176" lon="13.9315908"><ele>291.0</ele><time>2026-05-02T08:45:05.042Z</time></trkpt><trkpt lat="42.25406" lon="13.9316142"><ele>291.0</ele><time>2026-05-02T08:45:06.042Z</time></trkpt><trkpt lat="42.2539532" lon="13.9316233"><ele>291.0</ele><time>2026-05-02T08:45:07.042Z</time></trkpt><trkpt lat="42.2538523" lon="13.9316249"><ele>291.0</ele><time>2026-05-02T08:45:08.041Z</time></trkpt><trkpt lat="42.2537499" lon="13.9316107"><ele>291.0</ele><time>2026-05-02T08:45:09.041Z</time></trkpt><trkpt lat="42.253654" lon="13.9315836"><ele>290.40000000000003</ele><time>2026-05-02T08:45:10.041Z</time></trkpt><trkpt lat="42.2535713" lon="13.9315321"><ele>289.8</ele><time>2026-05-02T08:45:11.041Z</time></trkpt><trkpt lat="42.2534838" lon="13.9314626"><ele>289.20000000000005</ele><time>2026-05-02T08:45:12.041Z</time></trkpt><trkpt lat="42.2533852" lon="13.9313954"><ele>288.6</ele><time>2026-05-02T08:45:13.042Z</time></trkpt><trkpt lat="42.2532787" lon="13.9313318"><ele>288.0</ele><time>2026-05-02T08:45:14.042Z</time></trkpt><trkpt lat="42.2531659" lon="13.9312737"><ele>286.8</ele><time>2026-05-02T08:45:15.041Z</time></trkpt><trkpt lat="42.2530574" lon="13.9312334"><ele>285.6</ele><time>2026-05-02T08:45:16.042Z</time></trkpt><trkpt lat="42.2529526" lon="13.9312044"><ele>284.4</ele><time>2026-05-02T08:45:17.041Z</time></trkpt><trkpt lat="42.2528597" lon="13.9311801"><ele>283.2</ele><time>2026-05-02T08:45:18.041Z</time></trkpt><trkpt lat="42.2527742" lon="13.9311565"><ele>282.0</ele><time>2026-05-02T08:45:19.041Z</time></trkpt><trkpt lat="42.2526948" lon="13.9311406"><ele>282.0</ele><time>2026-05-02T08:45:20.041Z</time></trkpt><trkpt lat="42.2526275" lon="13.9311297"><ele>282.0</ele><time>2026-05-02T08:45:21.041Z</time></trkpt><trkpt lat="42.2525509" lon="13.9311118"><ele>282.0</ele><time>2026-05-02T08:45:23.041Z</time></trkpt><trkpt lat="42.2524928" lon="13.9311524"><ele>282.0</ele><time>2026-05-02T08:45:25.041Z</time></trkpt><trkpt lat="42.2524088" lon="13.9312184"><ele>282.0</ele><time>2026-05-02T08:45:27.041Z</time></trkpt><trkpt lat="42.2523112" lon="13.9312381"><ele>282.0</ele><time>2026-05-02T08:45:29.041Z</time></trkpt><trkpt lat="42.2521936" lon="13.9312873"><ele>281.0</ele><time>2026-05-02T08:45:31.041Z</time></trkpt><trkpt lat="42.25213" lon="13.9313233"><ele>280.0</ele><time>2026-05-02T08:45:32.041Z</time></trkpt><trkpt lat="42.2520651" lon="13.931365"><ele>279.0</ele><time>2026-05-02T08:45:33.041Z</time></trkpt><trkpt lat="42.2520033" lon="13.9314137"><ele>278.0</ele><time>2026-05-02T08:45:34.041Z</time></trkpt><trkpt lat="42.2519414" lon="13.9314595"><ele>277.0</ele><time>2026-05-02T08:45:35.041Z</time></trkpt><trkpt lat="42.2518848" lon="13.9315169"><ele>276.0</ele><time>2026-05-02T08:45:36.041Z</time></trkpt><trkpt lat="42.2518286" lon="13.9315721"><ele>275.0</ele><time>2026-05-02T08:45:37.042Z</time></trkpt><trkpt lat="42.2517768" lon="13.9316346"><ele>275.0</ele><time>2026-05-02T08:45:38.042Z</time></trkpt><trkpt lat="42.2517283" lon="13.9317007"><ele>275.0</ele><time>2026-05-02T08:45:39.042Z</time></trkpt><trkpt lat="42.2516823" lon="13.9317654"><ele>275.0</ele><time>2026-05-02T08:45:40.041Z</time></trkpt><trkpt lat="42.2515981" lon="13.9318746"><ele>275.0</ele><time>2026-05-02T08:45:42.041Z</time></trkpt><trkpt lat="42.2515154" lon="13.9319737"><ele>275.0</ele><time>2026-05-02T08:45:44.041Z</time></trkpt><trkpt lat="42.251437" lon="13.9320831"><ele>269.8</ele><time>2026-05-02T08:45:46.042Z</time></trkpt><trkpt lat="42.2513619" lon="13.9322026"><ele>264.6</ele><time>2026-05-02T08:45:48.041Z</time></trkpt><trkpt lat="42.2513121" lon="13.9323025"><ele>259.4</ele><time>2026-05-02T08:45:50.042Z</time></trkpt><trkpt lat="42.2512663" lon="13.9323886"><ele>254.2</ele><time>2026-05-02T08:45:52.041Z</time></trkpt><trkpt lat="42.251214" lon="13.9324746"><ele>249.0</ele><time>2026-05-02T08:45:54.041Z</time></trkpt><trkpt lat="42.2511619" lon="13.9325647"><ele>246.5</ele><time>2026-05-02T08:45:56.041Z</time></trkpt><trkpt lat="42.2511241" lon="13.932649"><ele>244.0</ele><time>2026-05-02T08:45:58.041Z</time></trkpt><trkpt lat="42.2510408" lon="13.9326494"><ele>241.5</ele><time>2026-05-02T08:46:01.042Z</time></trkpt><trkpt lat="42.2509673" lon="13.9326129"><ele>239.0</ele><time>2026-05-02T08:46:03.041Z</time></trkpt><trkpt lat="42.2508924" lon="13.9325928"><ele>236.5</ele><time>2026-05-02T08:46:05.041Z</time></trkpt><trkpt lat="42.2508182" lon="13.9326112"><ele>234.0</ele><time>2026-05-02T08:46:07.041Z</time></trkpt><trkpt lat="42.2507402" lon="13.9326298"><ele>234.0</ele><time>2026-05-02T08:46:09.042Z</time></trkpt><trkpt lat="42.2506727" lon="13.9326661"><ele>234.00000000000003</ele><time>2026-05-02T08:46:11.041Z</time></trkpt><trkpt lat="42.2506193" lon="13.9327678"><ele>234.0</ele><time>2026-05-02T08:46:14.041Z</time></trkpt><trkpt lat="42.2505812" lon="13.9328436"><ele>234.0</ele><time>2026-05-02T08:46:16.041Z</time></trkpt><trkpt lat="42.2505157" lon="13.9328937"><ele>234.00000000000003</ele><time>2026-05-02T08:46:18.041Z</time></trkpt><trkpt lat="42.2504411" lon="13.9328938"><ele>234.0</ele><time>2026-05-02T08:46:21.042Z</time></trkpt><trkpt lat="42.2503766" lon="13.9329086"><ele>234.0</ele><time>2026-05-02T08:46:24.041Z</time></trkpt><trkpt lat="42.2503965" lon="13.9330042"><ele>234.0</ele><time>2026-05-02T08:46:27.041Z</time></trkpt><trkpt lat="42.2504884" lon="13.9330912"><ele>233.99999999999997</ele><time>2026-05-02T08:46:29.041Z</time></trkpt><trkpt lat="42.250551" lon="13.9331433"><ele>233.99999999999997</ele><time>2026-05-02T08:46:30.041Z</time></trkpt><trkpt lat="42.2506143" lon="13.9331889"><ele>234.0</ele><time>2026-05-02T08:46:31.041Z</time></trkpt><trkpt lat="42.2507143" lon="13.9332647"><ele>234.0</ele><time>2026-05-02T08:46:33.041Z</time></trkpt><trkpt lat="42.2508165" lon="13.9333239"><ele>234.0</ele><time>2026-05-02T08:46:35.041Z</time></trkpt><trkpt lat="42.2508848" lon="13.9333604"><ele>234.0</ele><time>2026-05-02T08:46:36.041Z</time></trkpt><trkpt lat="42.2509565" lon="13.933401"><ele>234.0</ele><time>2026-05-02T08:46:37.041Z</time></trkpt><trkpt lat="42.2510356" lon="13.9334418"><ele>234.0</ele><time>2026-05-02T08:46:38.041Z</time></trkpt><trkpt lat="42.2511215" lon="13.9334796"><ele>234.0</ele><time>2026-05-02T08:46:39.042Z</time></trkpt><trkpt lat="42.2512238" lon="13.9335225"><ele>234.0</ele><time>2026-05-02T08:46:40.041Z</time></trkpt><trkpt lat="42.2513295" lon="13.933586"><ele>232.79999999999998</ele><time>2026-05-02T08:46:41.041Z</time></trkpt><trkpt lat="42.251433" lon="13.9336514"><ele>231.59999999999997</ele><time>2026-05-02T08:46:42.041Z</time></trkpt><trkpt lat="42.2515267" lon="13.9337072"><ele>230.4</ele><time>2026-05-02T08:46:43.042Z</time></trkpt><trkpt lat="42.2516168" lon="13.933768"><ele>229.2</ele><time>2026-05-02T08:46:44.042Z</time></trkpt><trkpt lat="42.251708" lon="13.9338192"><ele>228.0</ele><time>2026-05-02T08:46:45.042Z</time></trkpt><trkpt lat="42.2518036" lon="13.9338722"><ele>228.0</ele><time>2026-05-02T08:46:46.042Z</time></trkpt><trkpt lat="42.2518949" lon="13.9339312"><ele>228.0</ele><time>2026-05-02T08:46:47.041Z</time></trkpt><trkpt lat="42.2519967" lon="13.9339872"><ele>228.0</ele><time>2026-05-02T08:46:48.041Z</time></trkpt><trkpt lat="42.252092" lon="13.9340371"><ele>228.0</ele><time>2026-05-02T08:46:49.041Z</time></trkpt><trkpt lat="42.2521784" lon="13.9340823"><ele>228.0</ele><time>2026-05-02T08:46:50.041Z</time></trkpt><trkpt lat="42.2522551" lon="13.9341281"><ele>230.66666666666666</ele><time>2026-05-02T08:46:51.041Z</time></trkpt><trkpt lat="42.2523249" lon="13.9341622"><ele>233.33333333333331</ele><time>2026-05-02T08:46:52.042Z</time></trkpt><trkpt lat="42.2523822" lon="13.9342083"><ele>236.0</ele><time>2026-05-02T08:46:53.041Z</time></trkpt><trkpt lat="42.2524322" lon="13.9342624"><ele>238.66666666666666</ele><time>2026-05-02T08:46:54.042Z</time></trkpt><trkpt lat="42.2524833" lon="13.9344161"><ele>241.33333333333331</ele><time>2026-05-02T08:46:56.041Z</time></trkpt><trkpt lat="42.2524755" lon="13.9345138"><ele>244.0</ele><time>2026-05-02T08:46:57.041Z</time></trkpt><trkpt lat="42.2524528" lon="13.9346538"><ele>244.1428571428571</ele><time>2026-05-02T08:46:59.041Z</time></trkpt><trkpt lat="42.2524329" lon="13.9347354"><ele>244.28571428571428</ele><time>2026-05-02T08:47:02.042Z</time></trkpt><trkpt lat="42.2523683" lon="13.9347393"><ele>244.42857142857142</ele><time>2026-05-02T08:47:04.041Z</time></trkpt><trkpt lat="42.2522987" lon="13.9347322"><ele>244.57142857142856</ele><time>2026-05-02T08:47:06.041Z</time></trkpt><trkpt lat="42.2522284" lon="13.9347353"><ele>244.71428571428572</ele><time>2026-05-02T08:47:08.041Z</time></trkpt><trkpt lat="42.2521497" lon="13.9347511"><ele>244.85714285714286</ele><time>2026-05-02T08:47:10.041Z</time></trkpt><trkpt lat="42.2520717" lon="13.9347678"><ele>245.0</ele><time>2026-05-02T08:47:12.041Z</time></trkpt><trkpt lat="42.2519894" lon="13.9347787"><ele>241.83333333333334</ele><time>2026-05-02T08:47:14.041Z</time></trkpt><trkpt lat="42.2519138" lon="13.9347852"><ele>238.66666666666669</ele><time>2026-05-02T08:47:16.041Z</time></trkpt><trkpt lat="42.2518381" lon="13.9347911"><ele>235.5</ele><time>2026-05-02T08:47:18.041Z</time></trkpt><trkpt lat="42.2517509" lon="13.9347985"><ele>232.33333333333331</ele><time>2026-05-02T08:47:20.041Z</time></trkpt><trkpt lat="42.251662" lon="13.9347896"><ele>229.16666666666666</ele><time>2026-05-02T08:47:22.041Z</time></trkpt><trkpt lat="42.2515596" lon="13.9347998"><ele>226.0</ele><time>2026-05-02T08:47:24.042Z</time></trkpt><trkpt lat="42.2514561" lon="13.9348113"><ele>222.20000000000002</ele><time>2026-05-02T08:47:26.041Z</time></trkpt><trkpt lat="42.2513645" lon="13.9348118"><ele>218.40000000000003</ele><time>2026-05-02T08:47:28.041Z</time></trkpt><trkpt lat="42.2512697" lon="13.9348175"><ele>214.6</ele><time>2026-05-02T08:47:30.041Z</time></trkpt><trkpt lat="42.2511766" lon="13.9348504"><ele>210.8</ele><time>2026-05-02T08:47:32.041Z</time></trkpt><trkpt lat="42.2510742" lon="13.934888"><ele>207.0</ele><time>2026-05-02T08:47:34.041Z</time></trkpt><trkpt lat="42.2509763" lon="13.9349238"><ele>207.0</ele><time>2026-05-02T08:47:36.041Z</time></trkpt><trkpt lat="42.250869" lon="13.9349329"><ele>207.0</ele><time>2026-05-02T08:47:38.041Z</time></trkpt><trkpt lat="42.2507565" lon="13.93493"><ele>207.0</ele><time>2026-05-02T08:47:40.041Z</time></trkpt><trkpt lat="42.250636" lon="13.9349223"><ele>207.0</ele><time>2026-05-02T08:47:42.042Z</time></trkpt><trkpt lat="42.2505201" lon="13.9348992"><ele>204.2</ele><time>2026-05-02T08:47:44.041Z</time></trkpt><trkpt lat="42.2504175" lon="13.9348909"><ele>201.39999999999998</ele><time>2026-05-02T08:47:46.042Z</time></trkpt><trkpt lat="42.2503123" lon="13.9349098"><ele>198.60000000000002</ele><time>2026-05-02T08:47:48.041Z</time></trkpt><trkpt lat="42.2502133" lon="13.9349478"><ele>195.8</ele><time>2026-05-02T08:47:50.041Z</time></trkpt><trkpt lat="42.2500989" lon="13.9349799"><ele>193.0</ele><time>2026-05-02T08:47:52.041Z</time></trkpt><trkpt lat="42.2499938" lon="13.934969"><ele>193.0</ele><time>2026-05-02T08:47:54.041Z</time></trkpt><trkpt lat="42.249888" lon="13.9349315"><ele>193.0</ele><time>2026-05-02T08:47:56.041Z</time></trkpt><trkpt lat="42.2497904" lon="13.9348911"><ele>193.0</ele><time>2026-05-02T08:47:58.042Z</time></trkpt><trkpt lat="42.2496997" lon="13.9348713"><ele>193.0</ele><time>2026-05-02T08:48:00.042Z</time></trkpt><trkpt lat="42.2496023" lon="13.9348958"><ele>193.0</ele><time>2026-05-02T08:48:02.041Z</time></trkpt><trkpt lat="42.249505" lon="13.9349399"><ele>190.4</ele><time>2026-05-02T08:48:04.042Z</time></trkpt><trkpt lat="42.2494139" lon="13.9349774"><ele>187.8</ele><time>2026-05-02T08:48:06.041Z</time></trkpt><trkpt lat="42.2493092" lon="13.9350012"><ele>185.2</ele><time>2026-05-02T08:48:08.041Z</time></trkpt><trkpt lat="42.2492026" lon="13.9350122"><ele>182.6</ele><time>2026-05-02T08:48:10.041Z</time></trkpt><trkpt lat="42.2491124" lon="13.9350125"><ele>180.0</ele><time>2026-05-02T08:48:12.042Z</time></trkpt><trkpt lat="42.2490405" lon="13.9349818"><ele>180.0</ele><time>2026-05-02T08:48:14.041Z</time></trkpt><trkpt lat="42.2489693" lon="13.9349382"><ele>180.0</ele><time>2026-05-02T08:48:16.041Z</time></trkpt><trkpt lat="42.2488933" lon="13.9349484"><ele>180.0</ele><time>2026-05-02T08:48:18.041Z</time></trkpt><trkpt lat="42.2487928" lon="13.9349735"><ele>180.0</ele><time>2026-05-02T08:48:20.041Z</time></trkpt><trkpt lat="42.2486987" lon="13.9350232"><ele>180.0</ele><time>2026-05-02T08:48:22.041Z</time></trkpt><trkpt lat="42.2486205" lon="13.9351107"><ele>176.0</ele><time>2026-05-02T08:48:24.041Z</time></trkpt><trkpt lat="42.2485829" lon="13.9351825"><ele>172.0</ele><time>2026-05-02T08:48:25.042Z</time></trkpt><trkpt lat="42.2485161" lon="13.9352938"><ele>168.0</ele><time>2026-05-02T08:48:27.041Z</time></trkpt><trkpt lat="42.2484325" lon="13.9353887"><ele>164.0</ele><time>2026-05-02T08:48:29.041Z</time></trkpt><trkpt lat="42.2483285" lon="13.9354494"><ele>160.0</ele><time>2026-05-02T08:48:31.041Z</time></trkpt><trkpt lat="42.2482194" lon="13.9354857"><ele>160.0</ele><time>2026-05-02T08:48:33.041Z</time></trkpt><trkpt lat="42.2481536" lon="13.9356099"><ele>160.0</ele><time>2026-05-02T08:48:35.042Z</time></trkpt><trkpt lat="42.2481583" lon="13.9357705"><ele>160.0</ele><time>2026-05-02T08:48:37.041Z</time></trkpt><trkpt lat="42.2481765" lon="13.9358592"><ele>160.0</ele><time>2026-05-02T08:48:38.041Z</time></trkpt><trkpt lat="42.2481967" lon="13.9359509"><ele>160.0</ele><time>2026-05-02T08:48:39.041Z</time></trkpt><trkpt lat="42.2482023" lon="13.9360419"><ele>160.0</ele><time>2026-05-02T08:48:40.041Z</time></trkpt><trkpt lat="42.2482136" lon="13.9361266"><ele>159.4</ele><time>2026-05-02T08:48:41.041Z</time></trkpt><trkpt lat="42.2482191" lon="13.9362876"><ele>158.8</ele><time>2026-05-02T08:48:43.041Z</time></trkpt><trkpt lat="42.2481932" lon="13.9364314"><ele>158.2</ele><time>2026-05-02T08:48:45.041Z</time></trkpt><trkpt lat="42.2481515" lon="13.936588"><ele>157.6</ele><time>2026-05-02T08:48:47.041Z</time></trkpt><trkpt lat="42.2481247" lon="13.9366679"><ele>157.0</ele><time>2026-05-02T08:48:48.041Z</time></trkpt><trkpt lat="42.2480621" lon="13.9367954"><ele>153.79999999999998</ele><time>2026-05-02T08:48:50.041Z</time></trkpt><trkpt lat="42.247996" lon="13.9368815"><ele>150.6</ele><time>2026-05-02T08:48:52.041Z</time></trkpt><trkpt lat="42.2479296" lon="13.9369637"><ele>147.39999999999998</ele><time>2026-05-02T08:48:54.041Z</time></trkpt><trkpt lat="42.2478515" lon="13.9370325"><ele>144.2</ele><time>2026-05-02T08:48:56.042Z</time></trkpt><trkpt lat="42.2477563" lon="13.9371104"><ele>141.0</ele><time>2026-05-02T08:48:58.041Z</time></trkpt><trkpt lat="42.2476883" lon="13.9371555"><ele>141.0</ele><time>2026-05-02T08:48:59.041Z</time></trkpt><trkpt lat="42.2476194" lon="13.9372027"><ele>141.0</ele><time>2026-05-02T08:49:00.042Z</time></trkpt><trkpt lat="42.247561" lon="13.9372501"><ele>141.0</ele><time>2026-05-02T08:49:01.041Z</time></trkpt><trkpt lat="42.2474505" lon="13.9373046"><ele>141.0</ele><time>2026-05-02T08:49:03.041Z</time></trkpt><trkpt lat="42.2473813" lon="13.9372968"><ele>141.0</ele><time>2026-05-02T08:49:04.041Z</time></trkpt><trkpt lat="42.2473104" lon="13.9372768"><ele>141.0</ele><time>2026-05-02T08:49:05.041Z</time></trkpt><trkpt lat="42.2472513" lon="13.937242"><ele>141.33333333333334</ele><time>2026-05-02T08:49:06.042Z</time></trkpt><trkpt lat="42.2471939" lon="13.9371978"><ele>141.66666666666666</ele><time>2026-05-02T08:49:07.041Z</time></trkpt><trkpt lat="42.24713" lon="13.937113"><ele>142.0</ele><time>2026-05-02T08:49:09.041Z</time></trkpt><trkpt lat="42.247063" lon="13.937077"><ele>142.33333333333331</ele><time>2026-05-02T08:49:36.041Z</time></trkpt><trkpt lat="42.246993" lon="13.9370501"><ele>142.66666666666666</ele><time>2026-05-02T08:49:43.041Z</time></trkpt><trkpt lat="42.2469137" lon="13.9369802"><ele>143.0</ele><time>2026-05-02T08:49:47.041Z</time></trkpt><trkpt lat="42.2468461" lon="13.9369578"><ele>143.0</ele><time>2026-05-02T08:49:49.041Z</time></trkpt><trkpt lat="42.2468187" lon="13.9368673"><ele>143.0</ele><time>2026-05-02T08:49:53.041Z</time></trkpt><trkpt lat="42.2467748" lon="13.9367458"><ele>143.0</ele><time>2026-05-02T08:49:56.042Z</time></trkpt><trkpt lat="42.2467486" lon="13.9366238"><ele>143.0</ele><time>2026-05-02T08:49:58.041Z</time></trkpt><trkpt lat="42.2467247" lon="13.936541"><ele>143.0</ele><time>2026-05-02T08:49:59.041Z</time></trkpt><trkpt lat="42.2466979" lon="13.9364601"><ele>143.0</ele><time>2026-05-02T08:50:00.042Z</time></trkpt><trkpt lat="42.2466635" lon="13.9363886"><ele>142.8</ele><time>2026-05-02T08:50:01.041Z</time></trkpt><trkpt lat="42.2466236" lon="13.9363177"><ele>142.60000000000002</ele><time>2026-05-02T08:50:02.041Z</time></trkpt><trkpt lat="42.2465406" lon="13.9362283"><ele>142.39999999999998</ele><time>2026-05-02T08:50:04.041Z</time></trkpt><trkpt lat="42.2464675" lon="13.9362453"><ele>142.2</ele><time>2026-05-02T08:50:06.041Z</time></trkpt><trkpt lat="42.2463894" lon="13.9363844"><ele>142.0</ele><time>2026-05-02T08:50:08.041Z</time></trkpt><trkpt lat="42.2463446" lon="13.9364863"><ele>143.66666666666669</ele><time>2026-05-02T08:50:09.041Z</time></trkpt><trkpt lat="42.2463025" lon="13.9365586"><ele>145.33333333333334</ele><time>2026-05-02T08:50:10.041Z</time></trkpt><trkpt lat="42.2462341" lon="13.9366619"><ele>147.0</ele><time>2026-05-02T08:50:12.041Z</time></trkpt><trkpt lat="42.2462144" lon="13.9367479"><ele>148.66666666666666</ele><time>2026-05-02T08:50:13.041Z</time></trkpt><trkpt lat="42.2462183" lon="13.9368653"><ele>150.33333333333331</ele><time>2026-05-02T08:50:14.042Z</time></trkpt><trkpt lat="42.2462339" lon="13.9369906"><ele>152.0</ele><time>2026-05-02T08:50:15.042Z</time></trkpt><trkpt lat="42.246243" lon="13.9370911"><ele>152.4</ele><time>2026-05-02T08:50:16.041Z</time></trkpt><trkpt lat="42.2462377" lon="13.9371816"><ele>152.79999999999998</ele><time>2026-05-02T08:50:17.041Z</time></trkpt><trkpt lat="42.2462086" lon="13.9372887"><ele>153.2</ele><time>2026-05-02T08:50:18.041Z</time></trkpt><trkpt lat="42.2461645" lon="13.9373922"><ele>153.6</ele><time>2026-05-02T08:50:19.041Z</time></trkpt><trkpt lat="42.2460961" lon="13.9375054"><ele>154.0</ele><time>2026-05-02T08:50:20.041Z</time></trkpt><trkpt lat="42.2460258" lon="13.9376044"><ele>154.0</ele><time>2026-05-02T08:50:21.041Z</time></trkpt><trkpt lat="42.2459618" lon="13.9376829"><ele>154.0</ele><time>2026-05-02T08:50:22.041Z</time></trkpt><trkpt lat="42.2459168" lon="13.9377577"><ele>154.0</ele><time>2026-05-02T08:50:24.041Z</time></trkpt><trkpt lat="42.2458485" lon="13.937814"><ele>154.0</ele><time>2026-05-02T08:50:30.041Z</time></trkpt><trkpt lat="42.2457926" lon="13.9377245"><ele>154.0</ele><time>2026-05-02T08:50:32.041Z</time></trkpt><trkpt lat="42.2457683" lon="13.937635"><ele>154.0</ele><time>2026-05-02T08:50:33.041Z</time></trkpt><trkpt lat="42.2457404" lon="13.9375297"><ele>154.0</ele><time>2026-05-02T08:50:34.041Z</time></trkpt><trkpt lat="42.2457006" lon="13.9374023"><ele>154.0</ele><time>2026-05-02T08:50:35.042Z</time></trkpt><trkpt lat="42.245657" lon="13.9372663"><ele>154.0</ele><time>2026-05-02T08:50:36.041Z</time></trkpt><trkpt lat="42.2456132" lon="13.9371264"><ele>154.0</ele><time>2026-05-02T08:50:37.042Z</time></trkpt><trkpt lat="42.2455631" lon="13.9369719"><ele>154.0</ele><time>2026-05-02T08:50:38.041Z</time></trkpt><trkpt lat="42.2455102" lon="13.9368194"><ele>154.6</ele><time>2026-05-02T08:50:39.042Z</time></trkpt><trkpt lat="42.2454589" lon="13.9366804"><ele>155.2</ele><time>2026-05-02T08:50:40.041Z</time></trkpt><trkpt lat="42.2454155" lon="13.9365472"><ele>155.79999999999998</ele><time>2026-05-02T08:50:41.041Z</time></trkpt><trkpt lat="42.2453786" lon="13.9364235"><ele>156.4</ele><time>2026-05-02T08:50:42.041Z</time></trkpt><trkpt lat="42.2453424" lon="13.9363182"><ele>157.0</ele><time>2026-05-02T08:50:43.041Z</time></trkpt><trkpt lat="42.2453145" lon="13.9362141"><ele>156.99999999999997</ele><time>2026-05-02T08:50:44.042Z</time></trkpt><trkpt lat="42.2452833" lon="13.9361247"><ele>157.0</ele><time>2026-05-02T08:50:45.041Z</time></trkpt><trkpt lat="42.245252" lon="13.9360465"><ele>157.0</ele><time>2026-05-02T08:50:46.042Z</time></trkpt><trkpt lat="42.2452246" lon="13.9359593"><ele>157.0</ele><time>2026-05-02T08:50:47.042Z</time></trkpt><trkpt lat="42.2451914" lon="13.9358672"><ele>157.0</ele><time>2026-05-02T08:50:48.041Z</time></trkpt><trkpt lat="42.2451577" lon="13.9357695"><ele>156.99999999999997</ele><time>2026-05-02T08:50:49.041Z</time></trkpt><trkpt lat="42.2451212" lon="13.93567"><ele>157.0</ele><time>2026-05-02T08:50:50.042Z</time></trkpt><trkpt lat="42.2450901" lon="13.9355701"><ele>157.6</ele><time>2026-05-02T08:50:51.041Z</time></trkpt><trkpt lat="42.2450634" lon="13.9354902"><ele>158.2</ele><time>2026-05-02T08:50:52.041Z</time></trkpt><trkpt lat="42.2450206" lon="13.9353768"><ele>158.8</ele><time>2026-05-02T08:50:54.041Z</time></trkpt><trkpt lat="42.244984" lon="13.9352254"><ele>159.4</ele><time>2026-05-02T08:50:56.041Z</time></trkpt><trkpt lat="42.2449053" lon="13.9351184"><ele>160.0</ele><time>2026-05-02T08:50:58.041Z</time></trkpt><trkpt lat="42.24478" lon="13.935115"><ele>162.0</ele><time>2026-05-02T08:51:00.041Z</time></trkpt><trkpt lat="42.2446414" lon="13.9351682"><ele>164.0</ele><time>2026-05-02T08:51:02.041Z</time></trkpt><trkpt lat="42.244546" lon="13.9354894"><ele>166.0</ele><time>2026-05-02T08:51:05.041Z</time></trkpt><trkpt lat="42.2445583" lon="13.935588"><ele>166.0</ele><time>2026-05-02T08:51:06.042Z</time></trkpt><trkpt lat="42.2445461" lon="13.9356828"><ele>166.0</ele><time>2026-05-02T08:51:07.041Z</time></trkpt><trkpt lat="42.2445132" lon="13.9358288"><ele>166.0</ele><time>2026-05-02T08:51:09.041Z</time></trkpt><trkpt lat="42.2444666" lon="13.9359846"><ele>166.0</ele><time>2026-05-02T08:51:11.041Z</time></trkpt><trkpt lat="42.2444342" lon="13.9360595"><ele>166.0</ele><time>2026-05-02T08:51:12.042Z</time></trkpt><trkpt lat="42.2444025" lon="13.9361383"><ele>166.0</ele><time>2026-05-02T08:51:13.042Z</time></trkpt><trkpt lat="42.2443453" lon="13.9362821"><ele>165.42857142857142</ele><time>2026-05-02T08:51:15.041Z</time></trkpt><trkpt lat="42.244317" lon="13.9363605"><ele>164.85714285714286</ele><time>2026-05-02T08:51:16.041Z</time></trkpt><trkpt lat="42.2442846" lon="13.9364384"><ele>164.28571428571428</ele><time>2026-05-02T08:51:17.042Z</time></trkpt><trkpt lat="42.2442511" lon="13.9365173"><ele>163.71428571428572</ele><time>2026-05-02T08:51:18.041Z</time></trkpt><trkpt lat="42.2442129" lon="13.9366018"><ele>163.14285714285714</ele><time>2026-05-02T08:51:19.041Z</time></trkpt><trkpt lat="42.2441705" lon="13.9366895"><ele>162.57142857142858</ele><time>2026-05-02T08:51:20.042Z</time></trkpt><trkpt lat="42.2441277" lon="13.9367787"><ele>162.0</ele><time>2026-05-02T08:51:21.041Z</time></trkpt><trkpt lat="42.2440835" lon="13.9368564"><ele>161.66666666666666</ele><time>2026-05-02T08:51:22.041Z</time></trkpt><trkpt lat="42.2439848" lon="13.9369266"><ele>161.33333333333334</ele><time>2026-05-02T08:51:24.041Z</time></trkpt><trkpt lat="42.2438916" lon="13.9368984"><ele>161.0</ele><time>2026-05-02T08:51:26.041Z</time></trkpt><trkpt lat="42.2438641" lon="13.9368201"><ele>160.66666666666669</ele><time>2026-05-02T08:51:27.042Z</time></trkpt><trkpt lat="42.2438397" lon="13.9367287"><ele>160.33333333333334</ele><time>2026-05-02T08:51:28.041Z</time></trkpt><trkpt lat="42.2438187" lon="13.9366352"><ele>160.0</ele><time>2026-05-02T08:51:29.041Z</time></trkpt><trkpt lat="42.2437879" lon="13.9365374"><ele>160.83333333333334</ele><time>2026-05-02T08:51:30.041Z</time></trkpt><trkpt lat="42.2437616" lon="13.9364266"><ele>161.66666666666669</ele><time>2026-05-02T08:51:31.042Z</time></trkpt><trkpt lat="42.2437363" lon="13.9363133"><ele>162.5</ele><time>2026-05-02T08:51:32.041Z</time></trkpt><trkpt lat="42.2437057" lon="13.9362095"><ele>163.33333333333334</ele><time>2026-05-02T08:51:33.042Z</time></trkpt><trkpt lat="42.2436768" lon="13.9361043"><ele>164.16666666666666</ele><time>2026-05-02T08:51:34.042Z</time></trkpt><trkpt lat="42.2436494" lon="13.9359915"><ele>165.0</ele><time>2026-05-02T08:51:35.041Z</time></trkpt><trkpt lat="42.2436263" lon="13.9358868"><ele>165.33333333333334</ele><time>2026-05-02T08:51:36.041Z</time></trkpt><trkpt lat="42.2436051" lon="13.9357902"><ele>165.66666666666666</ele><time>2026-05-02T08:51:37.042Z</time></trkpt><trkpt lat="42.2435753" lon="13.935627"><ele>166.0</ele><time>2026-05-02T08:51:39.041Z</time></trkpt><trkpt lat="42.2435517" lon="13.9355453"><ele>166.33333333333331</ele><time>2026-05-02T08:51:40.041Z</time></trkpt><trkpt lat="42.2435244" lon="13.9354563"><ele>166.66666666666666</ele><time>2026-05-02T08:51:41.041Z</time></trkpt><trkpt lat="42.2434972" lon="13.9353602"><ele>167.0</ele><time>2026-05-02T08:51:42.041Z</time></trkpt><trkpt lat="42.2434759" lon="13.9352525"><ele>167.0</ele><time>2026-05-02T08:51:43.042Z</time></trkpt><trkpt lat="42.2434519" lon="13.9351384"><ele>167.0</ele><time>2026-05-02T08:51:44.041Z</time></trkpt><trkpt lat="42.2434211" lon="13.9350372"><ele>167.0</ele><time>2026-05-02T08:51:45.041Z</time></trkpt><trkpt lat="42.2433974" lon="13.9349403"><ele>167.0</ele><time>2026-05-02T08:51:46.041Z</time></trkpt><trkpt lat="42.2433729" lon="13.9348517"><ele>167.0</ele><time>2026-05-02T08:51:47.041Z</time></trkpt><trkpt lat="42.2433486" lon="13.9347613"><ele>167.0</ele><time>2026-05-02T08:51:48.041Z</time></trkpt><trkpt lat="42.2433279" lon="13.9346735"><ele>167.28571428571428</ele><time>2026-05-02T08:51:49.042Z</time></trkpt><trkpt lat="42.2433051" lon="13.9345865"><ele>167.57142857142858</ele><time>2026-05-02T08:51:50.041Z</time></trkpt><trkpt lat="42.2432788" lon="13.9344911"><ele>167.85714285714286</ele><time>2026-05-02T08:51:51.042Z</time></trkpt><trkpt lat="42.2432544" lon="13.9343922"><ele>168.14285714285714</ele><time>2026-05-02T08:51:52.041Z</time></trkpt><trkpt lat="42.243234" lon="13.934295"><ele>168.42857142857142</ele><time>2026-05-02T08:51:53.042Z</time></trkpt><trkpt lat="42.2432115" lon="13.9341948"><ele>168.71428571428572</ele><time>2026-05-02T08:51:54.041Z</time></trkpt><trkpt lat="42.2431863" lon="13.9341012"><ele>169.0</ele><time>2026-05-02T08:51:55.042Z</time></trkpt><trkpt lat="42.243169" lon="13.9340193"><ele>169.2</ele><time>2026-05-02T08:51:56.042Z</time></trkpt><trkpt lat="42.243134" lon="13.9338801"><ele>169.39999999999998</ele><time>2026-05-02T08:51:58.041Z</time></trkpt><trkpt lat="42.2431003" lon="13.9337344"><ele>169.6</ele><time>2026-05-02T08:52:00.041Z</time></trkpt><trkpt lat="42.2430487" lon="13.933566"><ele>169.8</ele><time>2026-05-02T08:52:02.042Z</time></trkpt><trkpt lat="42.2430218" lon="13.9334644"><ele>170.0</ele><time>2026-05-02T08:52:03.041Z</time></trkpt><trkpt lat="42.242996" lon="13.9333469"><ele>171.4</ele><time>2026-05-02T08:52:04.041Z</time></trkpt><trkpt lat="42.2429743" lon="13.9332443"><ele>172.8</ele><time>2026-05-02T08:52:05.041Z</time></trkpt><trkpt lat="42.2429478" lon="13.9331551"><ele>174.2</ele><time>2026-05-02T08:52:06.041Z</time></trkpt><trkpt lat="42.2429058" lon="13.9329885"><ele>175.6</ele><time>2026-05-02T08:52:08.041Z</time></trkpt><trkpt lat="42.2428763" lon="13.9328842"><ele>177.0</ele><time>2026-05-02T08:52:09.041Z</time></trkpt><trkpt lat="42.2428456" lon="13.9327716"><ele>177.0</ele><time>2026-05-02T08:52:10.041Z</time></trkpt><trkpt lat="42.2428117" lon="13.9326663"><ele>177.0</ele><time>2026-05-02T08:52:11.041Z</time></trkpt><trkpt lat="42.2427817" lon="13.9325539"><ele>177.0</ele><time>2026-05-02T08:52:12.041Z</time></trkpt><trkpt lat="42.2427548" lon="13.932447"><ele>177.0</ele><time>2026-05-02T08:52:13.041Z</time></trkpt><trkpt lat="42.2427377" lon="13.9323514"><ele>177.0</ele><time>2026-05-02T08:52:14.041Z</time></trkpt><trkpt lat="42.2427118" lon="13.9322194"><ele>177.0</ele><time>2026-05-02T08:52:16.041Z</time></trkpt><trkpt lat="42.2426959" lon="13.932116"><ele>177.33333333333334</ele><time>2026-05-02T08:52:19.041Z</time></trkpt><trkpt lat="42.2426582" lon="13.9320436"><ele>177.66666666666666</ele><time>2026-05-02T09:05:46.04Z</time></trkpt><trkpt lat="42.242623" lon="13.9319038"><ele>178.0</ele><time>2026-05-02T09:05:48.039Z</time></trkpt><trkpt lat="42.2426009" lon="13.9318241"><ele>178.33333333333331</ele><time>2026-05-02T09:05:49.04Z</time></trkpt><trkpt lat="42.2425766" lon="13.9317295"><ele>178.66666666666666</ele><time>2026-05-02T09:05:50.039Z</time></trkpt><trkpt lat="42.2425463" lon="13.9316208"><ele>179.0</ele><time>2026-05-02T09:05:51.04Z</time></trkpt><trkpt lat="42.2425171" lon="13.9315024"><ele>179.39999999999998</ele><time>2026-05-02T09:05:52.04Z</time></trkpt><trkpt lat="42.2424829" lon="13.9313879"><ele>179.8</ele><time>2026-05-02T09:05:53.039Z</time></trkpt><trkpt lat="42.2424495" lon="13.9312705"><ele>180.2</ele><time>2026-05-02T09:05:54.04Z</time></trkpt><trkpt lat="42.2424268" lon="13.9311383"><ele>180.60000000000002</ele><time>2026-05-02T09:05:55.039Z</time></trkpt><trkpt lat="42.2423968" lon="13.9310407"><ele>181.0</ele><time>2026-05-02T09:05:56.04Z</time></trkpt><trkpt lat="42.2423473" lon="13.9308861"><ele>181.16666666666669</ele><time>2026-05-02T09:05:58.039Z</time></trkpt><trkpt lat="42.2423223" lon="13.9307745"><ele>181.33333333333334</ele><time>2026-05-02T09:05:59.039Z</time></trkpt><trkpt lat="42.2422953" lon="13.9306502"><ele>181.5</ele><time>2026-05-02T09:06:00.039Z</time></trkpt><trkpt lat="42.242265" lon="13.9305194"><ele>181.66666666666666</ele><time>2026-05-02T09:06:01.039Z</time></trkpt><trkpt lat="42.2422402" lon="13.9304075"><ele>181.83333333333331</ele><time>2026-05-02T09:06:02.04Z</time></trkpt><trkpt lat="42.242213" lon="13.9303197"><ele>182.0</ele><time>2026-05-02T09:06:03.039Z</time></trkpt><trkpt lat="42.2421845" lon="13.9302012"><ele>182.0</ele><time>2026-05-02T09:06:04.04Z</time></trkpt><trkpt lat="42.2421556" lon="13.9300697"><ele>182.0</ele><time>2026-05-02T09:06:05.039Z</time></trkpt><trkpt lat="42.2421282" lon="13.9299541"><ele>182.0</ele><time>2026-05-02T09:06:06.039Z</time></trkpt><trkpt lat="42.2420986" lon="13.9298544"><ele>182.0</ele><time>2026-05-02T09:06:07.04Z</time></trkpt><trkpt lat="42.2420737" lon="13.9297547"><ele>182.0</ele><time>2026-05-02T09:06:08.039Z</time></trkpt><trkpt lat="42.2420539" lon="13.9296455"><ele>182.0</ele><time>2026-05-02T09:06:09.039Z</time></trkpt><trkpt lat="42.2420285" lon="13.9295525"><ele>182.0</ele><time>2026-05-02T09:06:10.039Z</time></trkpt><trkpt lat="42.24199" lon="13.92941"><ele>182.0</ele><time>2026-05-02T09:06:12.039Z</time></trkpt><trkpt lat="42.2419589" lon="13.92929"><ele>182.0</ele><time>2026-05-02T09:06:14.039Z</time></trkpt><trkpt lat="42.2419182" lon="13.9291441"><ele>182.0</ele><time>2026-05-02T09:06:16.039Z</time></trkpt><trkpt lat="42.2418952" lon="13.9290551"><ele>182.0</ele><time>2026-05-02T09:06:17.039Z</time></trkpt><trkpt lat="42.2418725" lon="13.928949"><ele>182.0</ele><time>2026-05-02T09:06:18.04Z</time></trkpt><trkpt lat="42.2418458" lon="13.9288397"><ele>182.0</ele><time>2026-05-02T09:06:19.039Z</time></trkpt><trkpt lat="42.2418182" lon="13.9287309"><ele>182.0</ele><time>2026-05-02T09:06:20.04Z</time></trkpt><trkpt lat="42.2417891" lon="13.9286154"><ele>182.0</ele><time>2026-05-02T09:06:21.039Z</time></trkpt><trkpt lat="42.2417556" lon="13.9284939"><ele>182.0</ele><time>2026-05-02T09:06:22.04Z</time></trkpt><trkpt lat="42.2417177" lon="13.9283637"><ele>182.8</ele><time>2026-05-02T09:06:23.039Z</time></trkpt><trkpt lat="42.2416821" lon="13.9282268"><ele>183.6</ele><time>2026-05-02T09:06:24.04Z</time></trkpt><trkpt lat="42.2416489" lon="13.9280906"><ele>184.4</ele><time>2026-05-02T09:06:25.039Z</time></trkpt><trkpt lat="42.2416142" lon="13.9279467"><ele>185.20000000000002</ele><time>2026-05-02T09:06:26.039Z</time></trkpt><trkpt lat="42.2415786" lon="13.9278016"><ele>186.0</ele><time>2026-05-02T09:06:27.039Z</time></trkpt><trkpt lat="42.2415419" lon="13.9276639"><ele>186.0</ele><time>2026-05-02T09:06:28.039Z</time></trkpt><trkpt lat="42.2415097" lon="13.9275312"><ele>186.0</ele><time>2026-05-02T09:06:29.039Z</time></trkpt><trkpt lat="42.2414787" lon="13.9274065"><ele>186.0</ele><time>2026-05-02T09:06:30.039Z</time></trkpt><trkpt lat="42.2414526" lon="13.9272823"><ele>186.0</ele><time>2026-05-02T09:06:31.039Z</time></trkpt><trkpt lat="42.2414264" lon="13.9271764"><ele>186.0</ele><time>2026-05-02T09:06:32.039Z</time></trkpt><trkpt lat="42.2414044" lon="13.9270766"><ele>186.0</ele><time>2026-05-02T09:06:33.038Z</time></trkpt><trkpt lat="42.2413793" lon="13.9269827"><ele>186.0</ele><time>2026-05-02T09:06:34.038Z</time></trkpt><trkpt lat="42.2413585" lon="13.926893"><ele>186.0</ele><time>2026-05-02T09:06:35.038Z</time></trkpt><trkpt lat="42.2413361" lon="13.9268081"><ele>186.0</ele><time>2026-05-02T09:06:36.039Z</time></trkpt><trkpt lat="42.2413103" lon="13.9266939"><ele>186.0</ele><time>2026-05-02T09:06:38.038Z</time></trkpt><trkpt lat="42.2412805" lon="13.9265852"><ele>186.0</ele><time>2026-05-02T09:07:07.038Z</time></trkpt><trkpt lat="42.2412696" lon="13.9264367"><ele>186.16666666666666</ele><time>2026-05-02T09:07:09.038Z</time></trkpt><trkpt lat="42.2413168" lon="13.9263493"><ele>186.33333333333334</ele><time>2026-05-02T09:07:11.038Z</time></trkpt><trkpt lat="42.2414081" lon="13.9263532"><ele>186.5</ele><time>2026-05-02T09:07:13.038Z</time></trkpt><trkpt lat="42.2414741" lon="13.926359"><ele>186.66666666666669</ele><time>2026-05-02T09:07:14.038Z</time></trkpt><trkpt lat="42.2415556" lon="13.9263641"><ele>186.83333333333334</ele><time>2026-05-02T09:07:15.038Z</time></trkpt><trkpt lat="42.2416444" lon="13.9263755"><ele>187.0</ele><time>2026-05-02T09:07:16.038Z</time></trkpt><trkpt lat="42.2417409" lon="13.9263885"><ele>187.0</ele><time>2026-05-02T09:07:17.038Z</time></trkpt><trkpt lat="42.2418452" lon="13.9264113"><ele>187.0</ele><time>2026-05-02T09:07:18.038Z</time></trkpt><trkpt lat="42.2419524" lon="13.9264486"><ele>187.0</ele><time>2026-05-02T09:07:19.039Z</time></trkpt><trkpt lat="42.2420474" lon="13.9264873"><ele>187.0</ele><time>2026-05-02T09:07:20.039Z</time></trkpt><trkpt lat="42.2421357" lon="13.9265411"><ele>187.0</ele><time>2026-05-02T09:07:21.039Z</time></trkpt><trkpt lat="42.2422208" lon="13.9266086"><ele>186.6</ele><time>2026-05-02T09:07:22.038Z</time></trkpt><trkpt lat="42.2423029" lon="13.9266868"><ele>186.2</ele><time>2026-05-02T09:07:23.039Z</time></trkpt><trkpt lat="42.24239" lon="13.9267778"><ele>185.8</ele><time>2026-05-02T09:07:24.038Z</time></trkpt><trkpt lat="42.2424776" lon="13.9268702"><ele>185.4</ele><time>2026-05-02T09:07:25.038Z</time></trkpt><trkpt lat="42.2425615" lon="13.9269667"><ele>185.0</ele><time>2026-05-02T09:07:26.038Z</time></trkpt><trkpt lat="42.242635" lon="13.9270707"><ele>185.0</ele><time>2026-05-02T09:07:27.038Z</time></trkpt><trkpt lat="42.2427051" lon="13.9271703"><ele>185.0</ele><time>2026-05-02T09:07:28.038Z</time></trkpt><trkpt lat="42.2427755" lon="13.9272619"><ele>185.0</ele><time>2026-05-02T09:07:29.038Z</time></trkpt><trkpt lat="42.2428448" lon="13.9273645"><ele>185.0</ele><time>2026-05-02T09:07:30.039Z</time></trkpt><trkpt lat="42.2429169" lon="13.9274674"><ele>185.0</ele><time>2026-05-02T09:07:31.038Z</time></trkpt><trkpt lat="42.2429909" lon="13.9275801"><ele>184.6</ele><time>2026-05-02T09:07:32.039Z</time></trkpt><trkpt lat="42.2430661" lon="13.927684"><ele>184.2</ele><time>2026-05-02T09:07:33.038Z</time></trkpt><trkpt lat="42.2431449" lon="13.9277831"><ele>183.8</ele><time>2026-05-02T09:07:34.039Z</time></trkpt><trkpt lat="42.2432152" lon="13.9278759"><ele>183.4</ele><time>2026-05-02T09:07:35.038Z</time></trkpt><trkpt lat="42.2432792" lon="13.9279626"><ele>183.0</ele><time>2026-05-02T09:07:36.038Z</time></trkpt><trkpt lat="42.2433416" lon="13.9280487"><ele>182.66666666666666</ele><time>2026-05-02T09:07:37.039Z</time></trkpt><trkpt lat="42.2434029" lon="13.928129"><ele>182.33333333333334</ele><time>2026-05-02T09:07:38.039Z</time></trkpt><trkpt lat="42.2434593" lon="13.9282134"><ele>182.0</ele><time>2026-05-02T09:07:39.038Z</time></trkpt><trkpt lat="42.2435162" lon="13.9282927"><ele>181.66666666666669</ele><time>2026-05-02T09:07:40.038Z</time></trkpt><trkpt lat="42.243582" lon="13.9283552"><ele>181.33333333333334</ele><time>2026-05-02T09:07:41.038Z</time></trkpt><trkpt lat="42.2436613" lon="13.9283953"><ele>181.0</ele><time>2026-05-02T09:07:42.038Z</time></trkpt><trkpt lat="42.2437422" lon="13.9284255"><ele>180.83333333333334</ele><time>2026-05-02T09:07:43.038Z</time></trkpt><trkpt lat="42.2438291" lon="13.9284315"><ele>180.66666666666669</ele><time>2026-05-02T09:07:44.038Z</time></trkpt><trkpt lat="42.2439097" lon="13.9284157"><ele>180.5</ele><time>2026-05-02T09:07:45.039Z</time></trkpt><trkpt lat="42.2439852" lon="13.9283878"><ele>180.33333333333334</ele><time>2026-05-02T09:07:46.038Z</time></trkpt><trkpt lat="42.2440569" lon="13.9283635"><ele>180.16666666666666</ele><time>2026-05-02T09:07:47.038Z</time></trkpt><trkpt lat="42.2441354" lon="13.9283253"><ele>180.0</ele><time>2026-05-02T09:07:48.038Z</time></trkpt><trkpt lat="42.2442055" lon="13.9282732"><ele>179.7142857142857</ele><time>2026-05-02T09:07:49.038Z</time></trkpt><trkpt lat="42.2442654" lon="13.9282056"><ele>179.42857142857144</ele><time>2026-05-02T09:07:50.038Z</time></trkpt><trkpt lat="42.2443138" lon="13.9281305"><ele>179.14285714285714</ele><time>2026-05-02T09:07:51.038Z</time></trkpt><trkpt lat="42.2443564" lon="13.9280542"><ele>178.85714285714283</ele><time>2026-05-02T09:07:52.038Z</time></trkpt><trkpt lat="42.2443942" lon="13.9279833"><ele>178.57142857142856</ele><time>2026-05-02T09:07:53.039Z</time></trkpt><trkpt lat="42.2444231" lon="13.9279051"><ele>178.28571428571428</ele><time>2026-05-02T09:07:54.038Z</time></trkpt><trkpt lat="42.2444424" lon="13.9278206"><ele>178.0</ele><time>2026-05-02T09:07:55.038Z</time></trkpt><trkpt lat="42.2444621" lon="13.9276577"><ele>178.0</ele><time>2026-05-02T09:07:57.039Z</time></trkpt><trkpt lat="42.2444724" lon="13.9275658"><ele>178.0</ele><time>2026-05-02T09:07:58.038Z</time></trkpt><trkpt lat="42.2444842" lon="13.9274739"><ele>178.0</ele><time>2026-05-02T09:07:59.039Z</time></trkpt><trkpt lat="42.2444966" lon="13.9273835"><ele>178.0</ele><time>2026-05-02T09:08:00.038Z</time></trkpt><trkpt lat="42.2445144" lon="13.927236"><ele>178.0</ele><time>2026-05-02T09:08:02.039Z</time></trkpt><trkpt lat="42.2445282" lon="13.9271366"><ele>178.0</ele><time>2026-05-02T09:08:04.038Z</time></trkpt><trkpt lat="42.244541" lon="13.9270313"><ele>179.16666666666669</ele><time>2026-05-02T09:08:06.038Z</time></trkpt><trkpt lat="42.2445733" lon="13.9269054"><ele>180.33333333333334</ele><time>2026-05-02T09:08:08.038Z</time></trkpt><trkpt lat="42.2446022" lon="13.926807"><ele>181.5</ele><time>2026-05-02T09:08:10.038Z</time></trkpt><trkpt lat="42.2446718" lon="13.9267078"><ele>182.66666666666666</ele><time>2026-05-02T09:08:33.038Z</time></trkpt><trkpt lat="42.2446074" lon="13.9267478"><ele>183.83333333333331</ele><time>2026-05-02T09:08:40.038Z</time></trkpt><trkpt lat="42.2445852" lon="13.9268277"><ele>185.0</ele><time>2026-05-02T09:08:41.038Z</time></trkpt><trkpt lat="42.2445703" lon="13.9269468"><ele>185.0</ele><time>2026-05-02T09:08:43.038Z</time></trkpt><trkpt lat="42.2446498" lon="13.9269863"><ele>185.0</ele><time>2026-05-02T09:08:45.038Z</time></trkpt><trkpt lat="42.2447242" lon="13.9269691"><ele>185.0</ele><time>2026-05-02T09:08:46.039Z</time></trkpt><trkpt lat="42.2448261" lon="13.9269391"><ele>185.0</ele><time>2026-05-02T09:08:47.038Z</time></trkpt><trkpt lat="42.2449338" lon="13.9269075"><ele>185.0</ele><time>2026-05-02T09:08:48.038Z</time></trkpt><trkpt lat="42.2450562" lon="13.92688"><ele>180.5</ele><time>2026-05-02T09:08:49.038Z</time></trkpt><trkpt lat="42.2451821" lon="13.926859"><ele>176.0</ele><time>2026-05-02T09:08:50.038Z</time></trkpt><trkpt lat="42.2453112" lon="13.9268549"><ele>171.5</ele><time>2026-05-02T09:08:51.038Z</time></trkpt><trkpt lat="42.2454407" lon="13.9268505"><ele>167.0</ele><time>2026-05-02T09:08:52.038Z</time></trkpt><trkpt lat="42.2455521" lon="13.9268457"><ele>166.0</ele><time>2026-05-02T09:08:53.039Z</time></trkpt><trkpt lat="42.2456538" lon="13.9268484"><ele>165.0</ele><time>2026-05-02T09:08:54.038Z</time></trkpt><trkpt lat="42.2457448" lon="13.9268426"><ele>164.0</ele><time>2026-05-02T09:08:55.039Z</time></trkpt><trkpt lat="42.2458279" lon="13.9268374"><ele>163.0</ele><time>2026-05-02T09:08:56.038Z</time></trkpt><trkpt lat="42.2459017" lon="13.9268375"><ele>162.0</ele><time>2026-05-02T09:08:57.038Z</time></trkpt><trkpt lat="42.2459686" lon="13.926843"><ele>161.0</ele><time>2026-05-02T09:08:58.038Z</time></trkpt><trkpt lat="42.246071" lon="13.9268366"><ele>161.0</ele><time>2026-05-02T09:09:00.038Z</time></trkpt><trkpt lat="42.2461414" lon="13.9267581"><ele>161.0</ele><time>2026-05-02T09:09:02.038Z</time></trkpt><trkpt lat="42.2461672" lon="13.9266714"><ele>161.0</ele><time>2026-05-02T09:09:04.038Z</time></trkpt><trkpt lat="42.2461054" lon="13.9266031"><ele>161.0</ele><time>2026-05-02T09:09:06.038Z</time></trkpt><trkpt lat="42.2459804" lon="13.9266081"><ele>161.0</ele><time>2026-05-02T09:09:08.038Z</time></trkpt><trkpt lat="42.2459105" lon="13.9266126"><ele>161.0</ele><time>2026-05-02T09:09:09.038Z</time></trkpt><trkpt lat="42.2458406" lon="13.9266062"><ele>160.8</ele><time>2026-05-02T09:09:10.038Z</time></trkpt><trkpt lat="42.2457743" lon="13.9265926"><ele>160.60000000000002</ele><time>2026-05-02T09:09:11.039Z</time></trkpt><trkpt lat="42.2456923" lon="13.9265371"><ele>160.4</ele><time>2026-05-02T09:09:13.038Z</time></trkpt><trkpt lat="42.2456546" lon="13.9264273"><ele>160.2</ele><time>2026-05-02T09:09:15.039Z</time></trkpt><trkpt lat="42.245635" lon="13.9262445"><ele>160.0</ele><time>2026-05-02T09:09:17.039Z</time></trkpt><trkpt lat="42.2456282" lon="13.9261229"><ele>161.2</ele><time>2026-05-02T09:09:18.038Z</time></trkpt><trkpt lat="42.2456212" lon="13.9259971"><ele>162.4</ele><time>2026-05-02T09:09:19.038Z</time></trkpt><trkpt lat="42.2456098" lon="13.9258639"><ele>163.60000000000002</ele><time>2026-05-02T09:09:20.038Z</time></trkpt><trkpt lat="42.2455974" lon="13.9257258"><ele>164.8</ele><time>2026-05-02T09:09:21.038Z</time></trkpt><trkpt lat="42.2455908" lon="13.9255918"><ele>166.0</ele><time>2026-05-02T09:09:22.038Z</time></trkpt><trkpt lat="42.2455798" lon="13.9254568"><ele>165.60000000000002</ele><time>2026-05-02T09:09:23.039Z</time></trkpt><trkpt lat="42.2455773" lon="13.9253294"><ele>165.2</ele><time>2026-05-02T09:09:24.038Z</time></trkpt><trkpt lat="42.2455899" lon="13.9252014"><ele>164.8</ele><time>2026-05-02T09:09:25.039Z</time></trkpt><trkpt lat="42.2456149" lon="13.9250625"><ele>164.39999999999998</ele><time>2026-05-02T09:09:26.038Z</time></trkpt><trkpt lat="42.2456444" lon="13.9249175"><ele>164.0</ele><time>2026-05-02T09:09:27.038Z</time></trkpt><trkpt lat="42.245677" lon="13.9247769"><ele>164.0</ele><time>2026-05-02T09:09:28.038Z</time></trkpt><trkpt lat="42.2457098" lon="13.9246512"><ele>164.0</ele><time>2026-05-02T09:09:29.038Z</time></trkpt><trkpt lat="42.2457454" lon="13.9245333"><ele>164.0</ele><time>2026-05-02T09:09:30.038Z</time></trkpt><trkpt lat="42.24578" lon="13.9244337"><ele>164.0</ele><time>2026-05-02T09:09:31.039Z</time></trkpt><trkpt lat="42.2458273" lon="13.924343"><ele>164.0</ele><time>2026-05-02T09:09:32.038Z</time></trkpt><trkpt lat="42.2458839" lon="13.9242636"><ele>164.0</ele><time>2026-05-02T09:09:33.038Z</time></trkpt><trkpt lat="42.2459429" lon="13.9241825"><ele>164.0</ele><time>2026-05-02T09:09:34.038Z</time></trkpt><trkpt lat="42.2459994" lon="13.9240893"><ele>164.0</ele><time>2026-05-02T09:09:35.038Z</time></trkpt><trkpt lat="42.2460493" lon="13.9239866"><ele>164.0</ele><time>2026-05-02T09:09:36.038Z</time></trkpt><trkpt lat="42.2460921" lon="13.9238868"><ele>164.0</ele><time>2026-05-02T09:09:37.038Z</time></trkpt><trkpt lat="42.246125" lon="13.9237834"><ele>164.0</ele><time>2026-05-02T09:09:38.038Z</time></trkpt><trkpt lat="42.2461403" lon="13.9236852"><ele>164.0</ele><time>2026-05-02T09:09:39.038Z</time></trkpt><trkpt lat="42.2461469" lon="13.923597"><ele>164.0</ele><time>2026-05-02T09:09:40.038Z</time></trkpt><trkpt lat="42.2461477" lon="13.9234336"><ele>164.0</ele><time>2026-05-02T09:09:42.038Z</time></trkpt><trkpt lat="42.2461479" lon="13.9232796"><ele>164.0</ele><time>2026-05-02T09:09:44.038Z</time></trkpt><trkpt lat="42.2461478" lon="13.923136"><ele>164.0</ele><time>2026-05-02T09:09:46.038Z</time></trkpt><trkpt lat="42.2461405" lon="13.9229869"><ele>164.39999999999998</ele><time>2026-05-02T09:09:48.038Z</time></trkpt><trkpt lat="42.2461322" lon="13.9228322"><ele>164.8</ele><time>2026-05-02T09:09:50.038Z</time></trkpt><trkpt lat="42.246121" lon="13.9226989"><ele>165.2</ele><time>2026-05-02T09:09:52.038Z</time></trkpt><trkpt lat="42.246116" lon="13.9225656"><ele>165.60000000000002</ele><time>2026-05-02T09:09:54.039Z</time></trkpt><trkpt lat="42.246107" lon="13.9224193"><ele>166.0</ele><time>2026-05-02T09:09:56.038Z</time></trkpt><trkpt lat="42.2460991" lon="13.9222547"><ele>166.14285714285714</ele><time>2026-05-02T09:09:58.038Z</time></trkpt><trkpt lat="42.2461004" lon="13.9221641"><ele>166.2857142857143</ele><time>2026-05-02T09:09:59.038Z</time></trkpt><trkpt lat="42.2460933" lon="13.9220723"><ele>166.42857142857144</ele><time>2026-05-02T09:10:00.039Z</time></trkpt><trkpt lat="42.2460842" lon="13.9219755"><ele>166.57142857142856</ele><time>2026-05-02T09:10:01.038Z</time></trkpt><trkpt lat="42.246067" lon="13.9218755"><ele>166.71428571428572</ele><time>2026-05-02T09:10:02.038Z</time></trkpt><trkpt lat="42.2460461" lon="13.9217761"><ele>166.85714285714286</ele><time>2026-05-02T09:10:03.038Z</time></trkpt><trkpt lat="42.2460169" lon="13.9216755"><ele>167.0</ele><time>2026-05-02T09:10:04.038Z</time></trkpt><trkpt lat="42.2459878" lon="13.9215662"><ele>167.39999999999998</ele><time>2026-05-02T09:10:05.039Z</time></trkpt><trkpt lat="42.2459594" lon="13.9214496"><ele>167.79999999999998</ele><time>2026-05-02T09:10:06.039Z</time></trkpt><trkpt lat="42.2459296" lon="13.9213237"><ele>168.2</ele><time>2026-05-02T09:10:07.038Z</time></trkpt><trkpt lat="42.2458978" lon="13.9211966"><ele>168.6</ele><time>2026-05-02T09:10:08.038Z</time></trkpt><trkpt lat="42.2458676" lon="13.9210756"><ele>169.0</ele><time>2026-05-02T09:10:09.038Z</time></trkpt><trkpt lat="42.245831" lon="13.9209631"><ele>169.2</ele><time>2026-05-02T09:10:10.039Z</time></trkpt><trkpt lat="42.2457853" lon="13.9208507"><ele>169.39999999999998</ele><time>2026-05-02T09:10:11.038Z</time></trkpt><trkpt lat="42.24573" lon="13.9207302"><ele>169.6</ele><time>2026-05-02T09:10:12.038Z</time></trkpt><trkpt lat="42.2456718" lon="13.9206153"><ele>169.8</ele><time>2026-05-02T09:10:13.038Z</time></trkpt><trkpt lat="42.2456135" lon="13.9205094"><ele>170.0</ele><time>2026-05-02T09:10:14.039Z</time></trkpt><trkpt lat="42.2455634" lon="13.9204092"><ele>171.16666666666666</ele><time>2026-05-02T09:10:15.038Z</time></trkpt><trkpt lat="42.2455255" lon="13.9203112"><ele>172.33333333333331</ele><time>2026-05-02T09:10:16.038Z</time></trkpt><trkpt lat="42.2455065" lon="13.9202055"><ele>173.5</ele><time>2026-05-02T09:10:17.039Z</time></trkpt><trkpt lat="42.245493" lon="13.9200928"><ele>174.66666666666666</ele><time>2026-05-02T09:10:18.038Z</time></trkpt><trkpt lat="42.2454799" lon="13.9199828"><ele>175.83333333333334</ele><time>2026-05-02T09:10:19.039Z</time></trkpt><trkpt lat="42.2454537" lon="13.9198775"><ele>177.0</ele><time>2026-05-02T09:10:20.039Z</time></trkpt><trkpt lat="42.245415" lon="13.9197808"><ele>177.0</ele><time>2026-05-02T09:10:21.039Z</time></trkpt><trkpt lat="42.2453668" lon="13.9196835"><ele>177.0</ele><time>2026-05-02T09:10:22.039Z</time></trkpt><trkpt lat="42.2453184" lon="13.9195792"><ele>177.0</ele><time>2026-05-02T09:10:23.038Z</time></trkpt><trkpt lat="42.2452806" lon="13.9194716"><ele>177.0</ele><time>2026-05-02T09:10:24.039Z</time></trkpt><trkpt lat="42.2452545" lon="13.919349"><ele>177.0</ele><time>2026-05-02T09:10:25.038Z</time></trkpt><trkpt lat="42.2452406" lon="13.9192239"><ele>176.6</ele><time>2026-05-02T09:10:26.038Z</time></trkpt><trkpt lat="42.2452389" lon="13.919101"><ele>176.2</ele><time>2026-05-02T09:10:27.039Z</time></trkpt><trkpt lat="42.2452556" lon="13.9189762"><ele>175.8</ele><time>2026-05-02T09:10:28.038Z</time></trkpt><trkpt lat="42.24527" lon="13.9188496"><ele>175.4</ele><time>2026-05-02T09:10:29.038Z</time></trkpt><trkpt lat="42.2452859" lon="13.9187182"><ele>175.0</ele><time>2026-05-02T09:10:30.039Z</time></trkpt><trkpt lat="42.2453097" lon="13.9185715"><ele>175.0</ele><time>2026-05-02T09:10:31.038Z</time></trkpt><trkpt lat="42.2453433" lon="13.9184261"><ele>175.0</ele><time>2026-05-02T09:10:32.038Z</time></trkpt><trkpt lat="42.2453764" lon="13.9182848"><ele>175.0</ele><time>2026-05-02T09:10:33.038Z</time></trkpt><trkpt lat="42.2454019" lon="13.9181537"><ele>175.0</ele><time>2026-05-02T09:10:34.038Z</time></trkpt><trkpt lat="42.2454174" lon="13.918027"><ele>175.0</ele><time>2026-05-02T09:10:35.038Z</time></trkpt><trkpt lat="42.2454306" lon="13.9179048"><ele>174.83333333333334</ele><time>2026-05-02T09:10:36.038Z</time></trkpt><trkpt lat="42.2454337" lon="13.9177977"><ele>174.66666666666669</ele><time>2026-05-02T09:10:37.038Z</time></trkpt><trkpt lat="42.245426" lon="13.9176988"><ele>174.5</ele><time>2026-05-02T09:10:38.039Z</time></trkpt><trkpt lat="42.2453822" lon="13.9175483"><ele>174.33333333333334</ele><time>2026-05-02T09:10:40.038Z</time></trkpt><trkpt lat="42.2453356" lon="13.9174445"><ele>174.16666666666666</ele><time>2026-05-02T09:10:42.038Z</time></trkpt><trkpt lat="42.2452962" lon="13.9173685"><ele>174.0</ele><time>2026-05-02T09:10:44.039Z</time></trkpt><trkpt lat="42.2452371" lon="13.9172808"><ele>174.0</ele><time>2026-05-02T09:10:46.039Z</time></trkpt><trkpt lat="42.2451417" lon="13.9171645"><ele>174.0</ele><time>2026-05-02T09:10:48.038Z</time></trkpt><trkpt lat="42.2450915" lon="13.9170877"><ele>174.0</ele><time>2026-05-02T09:10:49.038Z</time></trkpt><trkpt lat="42.245039" lon="13.9170027"><ele>174.0</ele><time>2026-05-02T09:10:50.038Z</time></trkpt><trkpt lat="42.2449854" lon="13.9169141"><ele>174.0</ele><time>2026-05-02T09:10:51.038Z</time></trkpt><trkpt lat="42.244933" lon="13.9168196"><ele>174.83333333333334</ele><time>2026-05-02T09:10:52.038Z</time></trkpt><trkpt lat="42.2448881" lon="13.91672"><ele>175.66666666666666</ele><time>2026-05-02T09:10:53.039Z</time></trkpt><trkpt lat="42.2448465" lon="13.9166104"><ele>176.5</ele><time>2026-05-02T09:10:54.038Z</time></trkpt><trkpt lat="42.2448069" lon="13.916512"><ele>177.33333333333331</ele><time>2026-05-02T09:10:55.039Z</time></trkpt><trkpt lat="42.2447705" lon="13.9164393"><ele>178.16666666666666</ele><time>2026-05-02T09:10:56.038Z</time></trkpt><trkpt lat="42.244668" lon="13.9163707"><ele>179.0</ele><time>2026-05-02T09:10:58.039Z</time></trkpt><trkpt lat="42.2445976" lon="13.9163609"><ele>179.0</ele><time>2026-05-02T09:10:59.038Z</time></trkpt><trkpt lat="42.2445231" lon="13.9163447"><ele>179.0</ele><time>2026-05-02T09:11:00.038Z</time></trkpt><trkpt lat="42.2444598" lon="13.9163132"><ele>179.0</ele><time>2026-05-02T09:11:01.039Z</time></trkpt><trkpt lat="42.2443536" lon="13.9162385"><ele>179.0</ele><time>2026-05-02T09:11:03.039Z</time></trkpt><trkpt lat="42.2442798" lon="13.9160984"><ele>179.0</ele><time>2026-05-02T09:11:05.039Z</time></trkpt><trkpt lat="42.2442543" lon="13.9159924"><ele>179.2</ele><time>2026-05-02T09:11:06.039Z</time></trkpt><trkpt lat="42.2442336" lon="13.9158708"><ele>179.39999999999998</ele><time>2026-05-02T09:11:07.038Z</time></trkpt><trkpt lat="42.2442061" lon="13.9157508"><ele>179.6</ele><time>2026-05-02T09:11:08.038Z</time></trkpt><trkpt lat="42.2441721" lon="13.9156409"><ele>179.8</ele><time>2026-05-02T09:11:09.039Z</time></trkpt><trkpt lat="42.2441207" lon="13.9155253"><ele>180.0</ele><time>2026-05-02T09:11:10.038Z</time></trkpt><trkpt lat="42.2440652" lon="13.9154181"><ele>180.0</ele><time>2026-05-02T09:11:11.038Z</time></trkpt><trkpt lat="42.244012" lon="13.9153202"><ele>180.0</ele><time>2026-05-02T09:11:12.038Z</time></trkpt><trkpt lat="42.2439608" lon="13.9152493"><ele>180.0</ele><time>2026-05-02T09:11:13.038Z</time></trkpt><trkpt lat="42.2438856" lon="13.9151934"><ele>180.0</ele><time>2026-05-02T09:11:14.038Z</time></trkpt><trkpt lat="42.2437979" lon="13.9151456"><ele>180.0</ele><time>2026-05-02T09:11:15.038Z</time></trkpt><trkpt lat="42.2437176" lon="13.9150959"><ele>180.0</ele><time>2026-05-02T09:11:16.038Z</time></trkpt><trkpt lat="42.2436497" lon="13.9150225"><ele>181.0</ele><time>2026-05-02T09:11:17.038Z</time></trkpt><trkpt lat="42.243588" lon="13.914939"><ele>182.0</ele><time>2026-05-02T09:11:18.038Z</time></trkpt><trkpt lat="42.2435293" lon="13.9148455"><ele>183.0</ele><time>2026-05-02T09:11:19.038Z</time></trkpt><trkpt lat="42.2434737" lon="13.9147529"><ele>184.0</ele><time>2026-05-02T09:11:20.038Z</time></trkpt><trkpt lat="42.2434131" lon="13.914683"><ele>185.0</ele><time>2026-05-02T09:11:21.038Z</time></trkpt><trkpt lat="42.2433403" lon="13.9145952"><ele>186.0</ele><time>2026-05-02T09:11:23.038Z</time></trkpt><trkpt lat="42.2432881" lon="13.9145188"><ele>186.0</ele><time>2026-05-02T09:11:25.038Z</time></trkpt><trkpt lat="42.2432594" lon="13.9143731"><ele>186.0</ele><time>2026-05-02T09:11:27.038Z</time></trkpt><trkpt lat="42.2432511" lon="13.9142873"><ele>186.0</ele><time>2026-05-02T09:11:28.038Z</time></trkpt><trkpt lat="42.2432403" lon="13.9141899"><ele>186.0</ele><time>2026-05-02T09:11:29.039Z</time></trkpt><trkpt lat="42.2432228" lon="13.9140717"><ele>186.0</ele><time>2026-05-02T09:11:30.038Z</time></trkpt><trkpt lat="42.243202" lon="13.9139368"><ele>186.0</ele><time>2026-05-02T09:11:31.039Z</time></trkpt><trkpt lat="42.2431895" lon="13.9137992"><ele>187.0</ele><time>2026-05-02T09:11:32.038Z</time></trkpt><trkpt lat="42.2431806" lon="13.913663"><ele>188.0</ele><time>2026-05-02T09:11:33.038Z</time></trkpt><trkpt lat="42.24316" lon="13.9135293"><ele>189.0</ele><time>2026-05-02T09:11:34.038Z</time></trkpt><trkpt lat="42.2431348" lon="13.9134079"><ele>190.0</ele><time>2026-05-02T09:11:35.038Z</time></trkpt><trkpt lat="42.2431075" lon="13.9132984"><ele>191.0</ele><time>2026-05-02T09:11:36.038Z</time></trkpt><trkpt lat="42.2430794" lon="13.9131938"><ele>191.0</ele><time>2026-05-02T09:11:37.038Z</time></trkpt><trkpt lat="42.2430346" lon="13.9130906"><ele>191.0</ele><time>2026-05-02T09:11:38.038Z</time></trkpt><trkpt lat="42.2429747" lon="13.9129822"><ele>191.0</ele><time>2026-05-02T09:11:39.038Z</time></trkpt><trkpt lat="42.2429114" lon="13.9128812"><ele>191.0</ele><time>2026-05-02T09:11:40.038Z</time></trkpt><trkpt lat="42.2428577" lon="13.9127857"><ele>191.0</ele><time>2026-05-02T09:11:41.038Z</time></trkpt><trkpt lat="42.2428062" lon="13.9126913"><ele>191.0</ele><time>2026-05-02T09:11:42.039Z</time></trkpt><trkpt lat="42.2427732" lon="13.9125878"><ele>191.0</ele><time>2026-05-02T09:11:43.039Z</time></trkpt><trkpt lat="42.2427419" lon="13.9124822"><ele>191.0</ele><time>2026-05-02T09:11:44.038Z</time></trkpt><trkpt lat="42.2427074" lon="13.9123754"><ele>191.0</ele><time>2026-05-02T09:11:45.039Z</time></trkpt><trkpt lat="42.2426627" lon="13.9122844"><ele>191.0</ele><time>2026-05-02T09:11:46.038Z</time></trkpt><trkpt lat="42.2426313" lon="13.9122079"><ele>191.0</ele><time>2026-05-02T09:11:47.038Z</time></trkpt><trkpt lat="42.2425901" lon="13.9121242"><ele>191.16666666666666</ele><time>2026-05-02T09:11:49.038Z</time></trkpt><trkpt lat="42.2425051" lon="13.9121265"><ele>191.33333333333331</ele><time>2026-05-02T09:11:52.038Z</time></trkpt><trkpt lat="42.2424498" lon="13.9121674"><ele>191.5</ele><time>2026-05-02T09:11:53.039Z</time></trkpt><trkpt lat="42.2423765" lon="13.9122356"><ele>191.66666666666666</ele><time>2026-05-02T09:11:54.039Z</time></trkpt><trkpt lat="42.2423004" lon="13.9123261"><ele>191.83333333333334</ele><time>2026-05-02T09:11:55.039Z</time></trkpt><trkpt lat="42.242233" lon="13.9124162"><ele>192.0</ele><time>2026-05-02T09:11:56.038Z</time></trkpt><trkpt lat="42.2421757" lon="13.9124941"><ele>193.66666666666666</ele><time>2026-05-02T09:11:57.039Z</time></trkpt><trkpt lat="42.2421336" lon="13.9125592"><ele>195.33333333333331</ele><time>2026-05-02T09:11:58.038Z</time></trkpt><trkpt lat="42.2420766" lon="13.9126047"><ele>197.0</ele><time>2026-05-02T09:12:01.038Z</time></trkpt><trkpt lat="42.242089" lon="13.9124608"><ele>198.66666666666666</ele><time>2026-05-02T09:12:04.038Z</time></trkpt><trkpt lat="42.242105" lon="13.9123719"><ele>200.33333333333331</ele><time>2026-05-02T09:12:06.038Z</time></trkpt><trkpt lat="42.2420758" lon="13.912269"><ele>202.0</ele><time>2026-05-02T09:12:08.038Z</time></trkpt><trkpt lat="42.2420397" lon="13.9121486"><ele>202.0</ele><time>2026-05-02T09:12:10.038Z</time></trkpt><trkpt lat="42.2420009" lon="13.9120147"><ele>202.0</ele><time>2026-05-02T09:12:12.038Z</time></trkpt><trkpt lat="42.2419322" lon="13.9118955"><ele>202.0</ele><time>2026-05-02T09:12:14.039Z</time></trkpt><trkpt lat="42.2418607" lon="13.9117749"><ele>202.0</ele><time>2026-05-02T09:12:16.038Z</time></trkpt><trkpt lat="42.2417765" lon="13.9116863"><ele>202.0</ele><time>2026-05-02T09:12:18.038Z</time></trkpt><trkpt lat="42.2416749" lon="13.9116439"><ele>201.33333333333331</ele><time>2026-05-02T09:12:20.038Z</time></trkpt><trkpt lat="42.2416103" lon="13.9115564"><ele>200.66666666666666</ele><time>2026-05-02T09:12:22.038Z</time></trkpt><trkpt lat="42.241518" lon="13.9114869"><ele>200.0</ele><time>2026-05-02T09:12:24.038Z</time></trkpt><trkpt lat="42.2414592" lon="13.9114402"><ele>199.33333333333331</ele><time>2026-05-02T09:12:25.038Z</time></trkpt><trkpt lat="42.2414" lon="13.9113967"><ele>198.66666666666666</ele><time>2026-05-02T09:12:26.039Z</time></trkpt><trkpt lat="42.2413478" lon="13.911349"><ele>198.0</ele><time>2026-05-02T09:12:27.038Z</time></trkpt><trkpt lat="42.2412507" lon="13.9112322"><ele>199.85714285714286</ele><time>2026-05-02T09:12:29.038Z</time></trkpt><trkpt lat="42.2412081" lon="13.9111497"><ele>201.7142857142857</ele><time>2026-05-02T09:12:30.039Z</time></trkpt><trkpt lat="42.2411728" lon="13.911073"><ele>203.57142857142856</ele><time>2026-05-02T09:12:31.038Z</time></trkpt><trkpt lat="42.241151" lon="13.9109904"><ele>205.42857142857144</ele><time>2026-05-02T09:12:32.038Z</time></trkpt><trkpt lat="42.2411315" lon="13.9108935"><ele>207.28571428571428</ele><time>2026-05-02T09:12:33.039Z</time></trkpt><trkpt lat="42.2411096" lon="13.9107959"><ele>209.14285714285714</ele><time>2026-05-02T09:12:34.039Z</time></trkpt><trkpt lat="42.241089" lon="13.9107005"><ele>211.0</ele><time>2026-05-02T09:12:35.038Z</time></trkpt><trkpt lat="42.2410654" lon="13.9106128"><ele>210.99999999999997</ele><time>2026-05-02T09:12:36.038Z</time></trkpt><trkpt lat="42.2410119" lon="13.9104522"><ele>211.0</ele><time>2026-05-02T09:12:38.039Z</time></trkpt><trkpt lat="42.240978" lon="13.9103692"><ele>211.0</ele><time>2026-05-02T09:12:39.038Z</time></trkpt><trkpt lat="42.2409333" lon="13.9102895"><ele>211.0</ele><time>2026-05-02T09:12:40.039Z</time></trkpt><trkpt lat="42.2408566" lon="13.910187"><ele>210.99999999999997</ele><time>2026-05-02T09:12:42.038Z</time></trkpt><trkpt lat="42.2407961" lon="13.9101597"><ele>211.0</ele><time>2026-05-02T09:12:44.038Z</time></trkpt><trkpt lat="42.2407231" lon="13.9101799"><ele>211.0</ele><time>2026-05-02T09:12:46.039Z</time></trkpt><trkpt lat="42.2406809" lon="13.9102867"><ele>211.0</ele><time>2026-05-02T09:12:49.038Z</time></trkpt><trkpt lat="42.2406823" lon="13.910431"><ele>211.0</ele><time>2026-05-02T09:12:51.038Z</time></trkpt><trkpt lat="42.2407048" lon="13.9105839"><ele>211.0</ele><time>2026-05-02T09:12:53.038Z</time></trkpt><trkpt lat="42.2407372" lon="13.910699"><ele>211.0</ele><time>2026-05-02T09:12:55.038Z</time></trkpt><trkpt lat="42.2407304" lon="13.9107918"><ele>213.0</ele><time>2026-05-02T09:12:57.038Z</time></trkpt><trkpt lat="42.2406646" lon="13.9109326"><ele>215.0</ele><time>2026-05-02T09:12:59.039Z</time></trkpt><trkpt lat="42.2406284" lon="13.9110154"><ele>217.00000000000003</ele><time>2026-05-02T09:13:00.038Z</time></trkpt><trkpt lat="42.240568" lon="13.9111508"><ele>219.0</ele><time>2026-05-02T09:13:02.039Z</time></trkpt><trkpt lat="42.2405213" lon="13.9112658"><ele>221.0</ele><time>2026-05-02T09:13:04.038Z</time></trkpt><trkpt lat="42.2405141" lon="13.9113663"><ele>224.33333333333334</ele><time>2026-05-02T09:13:06.039Z</time></trkpt><trkpt lat="42.240536" lon="13.9114656"><ele>227.66666666666669</ele><time>2026-05-02T09:13:08.038Z</time></trkpt><trkpt lat="42.2405833" lon="13.9115711"><ele>231.0</ele><time>2026-05-02T09:13:10.039Z</time></trkpt><trkpt lat="42.2406001" lon="13.9116569"><ele>234.33333333333331</ele><time>2026-05-02T09:13:13.038Z</time></trkpt><trkpt lat="42.2404963" lon="13.9116549"><ele>237.66666666666666</ele><time>2026-05-02T09:13:16.038Z</time></trkpt><trkpt lat="42.2403997" lon="13.911689"><ele>241.0</ele><time>2026-05-02T09:13:18.038Z</time></trkpt><trkpt lat="42.2403362" lon="13.9117071"><ele>240.99999999999997</ele><time>2026-05-02T09:13:19.038Z</time></trkpt><trkpt lat="42.240221" lon="13.9117284"><ele>241.0</ele><time>2026-05-02T09:13:21.038Z</time></trkpt><trkpt lat="42.2401001" lon="13.9117553"><ele>241.0</ele><time>2026-05-02T09:13:23.039Z</time></trkpt><trkpt lat="42.2400359" lon="13.9117768"><ele>241.0</ele><time>2026-05-02T09:13:24.038Z</time></trkpt><trkpt lat="42.2399694" lon="13.9117936"><ele>240.99999999999997</ele><time>2026-05-02T09:13:25.038Z</time></trkpt><trkpt lat="42.2399063" lon="13.9118122"><ele>241.0</ele><time>2026-05-02T09:13:26.038Z</time></trkpt><trkpt lat="42.2398433" lon="13.9118119"><ele>240.99999999999997</ele><time>2026-05-02T09:13:28.038Z</time></trkpt><trkpt lat="42.2398083" lon="13.911719"><ele>241.0</ele><time>2026-05-02T09:13:33.038Z</time></trkpt><trkpt lat="42.2397615" lon="13.9115583"><ele>241.0</ele><time>2026-05-02T09:13:35.038Z</time></trkpt><trkpt lat="42.2397367" lon="13.9114724"><ele>241.0</ele><time>2026-05-02T09:13:36.038Z</time></trkpt><trkpt lat="42.2397118" lon="13.9113846"><ele>240.99999999999997</ele><time>2026-05-02T09:13:37.039Z</time></trkpt><trkpt lat="42.2396809" lon="13.9112869"><ele>241.0</ele><time>2026-05-02T09:13:38.038Z</time></trkpt><trkpt lat="42.2396422" lon="13.9111821"><ele>242.33333333333331</ele><time>2026-05-02T09:13:39.039Z</time></trkpt><trkpt lat="42.2396019" lon="13.9110776"><ele>243.66666666666666</ele><time>2026-05-02T09:13:40.038Z</time></trkpt><trkpt lat="42.2395648" lon="13.9109814"><ele>245.0</ele><time>2026-05-02T09:13:41.038Z</time></trkpt><trkpt lat="42.2395252" lon="13.9108889"><ele>246.33333333333331</ele><time>2026-05-02T09:13:42.038Z</time></trkpt><trkpt lat="42.2394885" lon="13.9107973"><ele>247.66666666666666</ele><time>2026-05-02T09:13:43.038Z</time></trkpt><trkpt lat="42.239448" lon="13.910719"><ele>249.0</ele><time>2026-05-02T09:13:44.039Z</time></trkpt><trkpt lat="42.2393972" lon="13.9106472"><ele>249.16666666666666</ele><time>2026-05-02T09:13:45.038Z</time></trkpt><trkpt lat="42.2393318" lon="13.9105845"><ele>249.33333333333331</ele><time>2026-05-02T09:13:46.039Z</time></trkpt><trkpt lat="42.2392718" lon="13.9105208"><ele>249.5</ele><time>2026-05-02T09:13:47.039Z</time></trkpt><trkpt lat="42.2392194" lon="13.9104431"><ele>249.66666666666666</ele><time>2026-05-02T09:13:48.038Z</time></trkpt><trkpt lat="42.239166" lon="13.910357"><ele>249.83333333333331</ele><time>2026-05-02T09:13:49.039Z</time></trkpt><trkpt lat="42.239106" lon="13.9102615"><ele>250.0</ele><time>2026-05-02T09:13:50.038Z</time></trkpt><trkpt lat="42.2390495" lon="13.9101731"><ele>249.99999999999997</ele><time>2026-05-02T09:13:51.039Z</time></trkpt><trkpt lat="42.2389926" lon="13.9100888"><ele>250.0</ele><time>2026-05-02T09:13:52.038Z</time></trkpt><trkpt lat="42.2389362" lon="13.9100103"><ele>250.0</ele><time>2026-05-02T09:13:53.038Z</time></trkpt><trkpt lat="42.2388768" lon="13.9099299"><ele>250.0</ele><time>2026-05-02T09:13:54.039Z</time></trkpt><trkpt lat="42.238819" lon="13.9098591"><ele>249.99999999999997</ele><time>2026-05-02T09:13:55.038Z</time></trkpt><trkpt lat="42.2387581" lon="13.9098013"><ele>250.0</ele><time>2026-05-02T09:13:56.039Z</time></trkpt><trkpt lat="42.23869" lon="13.9097524"><ele>252.49999999999997</ele><time>2026-05-02T09:13:57.038Z</time></trkpt><trkpt lat="42.2386126" lon="13.9097048"><ele>255.0</ele><time>2026-05-02T09:13:58.038Z</time></trkpt><trkpt lat="42.2385413" lon="13.9096593"><ele>257.5</ele><time>2026-05-02T09:13:59.038Z</time></trkpt><trkpt lat="42.2384747" lon="13.9096008"><ele>260.0</ele><time>2026-05-02T09:14:00.039Z</time></trkpt><trkpt lat="42.2384065" lon="13.9095319"><ele>262.5</ele><time>2026-05-02T09:14:01.038Z</time></trkpt><trkpt lat="42.2383386" lon="13.9094578"><ele>265.0</ele><time>2026-05-02T09:14:02.038Z</time></trkpt><trkpt lat="42.23828" lon="13.9093771"><ele>265.0</ele><time>2026-05-02T09:14:03.039Z</time></trkpt><trkpt lat="42.2382228" lon="13.909299"><ele>265.0</ele><time>2026-05-02T09:14:04.038Z</time></trkpt><trkpt lat="42.2381593" lon="13.9092307"><ele>265.0</ele><time>2026-05-02T09:14:05.039Z</time></trkpt><trkpt lat="42.2380932" lon="13.9091827"><ele>265.0</ele><time>2026-05-02T09:14:06.038Z</time></trkpt><trkpt lat="42.2380257" lon="13.9091464"><ele>265.0</ele><time>2026-05-02T09:14:07.038Z</time></trkpt><trkpt lat="42.2379565" lon="13.9091309"><ele>265.0</ele><time>2026-05-02T09:14:08.038Z</time></trkpt><trkpt lat="42.2378858" lon="13.9091351"><ele>267.2</ele><time>2026-05-02T09:14:09.038Z</time></trkpt><trkpt lat="42.2378143" lon="13.9091451"><ele>269.4</ele><time>2026-05-02T09:14:10.038Z</time></trkpt><trkpt lat="42.2377125" lon="13.909162"><ele>271.6</ele><time>2026-05-02T09:14:12.038Z</time></trkpt><trkpt lat="42.237653" lon="13.90913"><ele>273.8</ele><time>2026-05-02T09:14:14.038Z</time></trkpt><trkpt lat="42.2376034" lon="13.9089717"><ele>276.0</ele><time>2026-05-02T09:14:16.038Z</time></trkpt><trkpt lat="42.2375724" lon="13.9088612"><ele>276.0</ele><time>2026-05-02T09:14:17.038Z</time></trkpt><trkpt lat="42.2375248" lon="13.9087334"><ele>276.0</ele><time>2026-05-02T09:14:18.039Z</time></trkpt><trkpt lat="42.2374732" lon="13.9086059"><ele>276.0</ele><time>2026-05-02T09:14:19.038Z</time></trkpt><trkpt lat="42.2374336" lon="13.9084796"><ele>276.0</ele><time>2026-05-02T09:14:20.038Z</time></trkpt><trkpt lat="42.2373944" lon="13.9083672"><ele>276.0</ele><time>2026-05-02T09:14:21.039Z</time></trkpt><trkpt lat="42.2373452" lon="13.9082596"><ele>275.2</ele><time>2026-05-02T09:14:22.038Z</time></trkpt><trkpt lat="42.2372981" lon="13.9081588"><ele>274.40000000000003</ele><time>2026-05-02T09:14:23.039Z</time></trkpt><trkpt lat="42.2372516" lon="13.9080531"><ele>273.6</ele><time>2026-05-02T09:14:24.038Z</time></trkpt><trkpt lat="42.237194" lon="13.9079381"><ele>272.8</ele><time>2026-05-02T09:14:25.039Z</time></trkpt><trkpt lat="42.2371343" lon="13.9078214"><ele>272.0</ele><time>2026-05-02T09:14:26.038Z</time></trkpt><trkpt lat="42.2370787" lon="13.907706"><ele>272.0</ele><time>2026-05-02T09:14:27.038Z</time></trkpt><trkpt lat="42.2370241" lon="13.9075899"><ele>272.0</ele><time>2026-05-02T09:14:28.039Z</time></trkpt><trkpt lat="42.236968" lon="13.9074772"><ele>272.0</ele><time>2026-05-02T09:14:29.038Z</time></trkpt><trkpt lat="42.2369198" lon="13.9073723"><ele>272.0</ele><time>2026-05-02T09:14:30.038Z</time></trkpt><trkpt lat="42.2368736" lon="13.9072702"><ele>272.0</ele><time>2026-05-02T09:14:31.038Z</time></trkpt><trkpt lat="42.2368315" lon="13.9071688"><ele>273.1666666666667</ele><time>2026-05-02T09:14:32.038Z</time></trkpt><trkpt lat="42.2367924" lon="13.9070743"><ele>274.33333333333337</ele><time>2026-05-02T09:14:33.039Z</time></trkpt><trkpt lat="42.2367511" lon="13.906975"><ele>275.5</ele><time>2026-05-02T09:14:34.039Z</time></trkpt><trkpt lat="42.2367067" lon="13.9068774"><ele>276.6666666666667</ele><time>2026-05-02T09:14:35.038Z</time></trkpt><trkpt lat="42.236664" lon="13.9067854"><ele>277.8333333333333</ele><time>2026-05-02T09:14:36.039Z</time></trkpt><trkpt lat="42.2366198" lon="13.9067076"><ele>279.0</ele><time>2026-05-02T09:14:37.038Z</time></trkpt><trkpt lat="42.2365679" lon="13.9066286"><ele>278.5</ele><time>2026-05-02T09:14:38.038Z</time></trkpt><trkpt lat="42.2365054" lon="13.9065508"><ele>278.0</ele><time>2026-05-02T09:14:39.038Z</time></trkpt><trkpt lat="42.2364419" lon="13.9064743"><ele>277.5</ele><time>2026-05-02T09:14:40.038Z</time></trkpt><trkpt lat="42.2363887" lon="13.906412"><ele>277.0</ele><time>2026-05-02T09:14:41.038Z</time></trkpt><trkpt lat="42.2363145" lon="13.9063253"><ele>276.5</ele><time>2026-05-02T09:14:43.038Z</time></trkpt><trkpt lat="42.2362764" lon="13.9061961"><ele>276.0</ele><time>2026-05-02T09:14:45.038Z</time></trkpt><trkpt lat="42.2362481" lon="13.9061039"><ele>276.0</ele><time>2026-05-02T09:14:46.038Z</time></trkpt><trkpt lat="42.2362111" lon="13.9059951"><ele>276.0</ele><time>2026-05-02T09:14:47.038Z</time></trkpt><trkpt lat="42.2361799" lon="13.9058675"><ele>276.0</ele><time>2026-05-02T09:14:48.038Z</time></trkpt><trkpt lat="42.2361549" lon="13.9057174"><ele>276.0</ele><time>2026-05-02T09:14:49.038Z</time></trkpt><trkpt lat="42.2361146" lon="13.9055628"><ele>276.0</ele><time>2026-05-02T09:14:50.038Z</time></trkpt><trkpt lat="42.2360598" lon="13.9054076"><ele>279.0</ele><time>2026-05-02T09:14:51.038Z</time></trkpt><trkpt lat="42.2360001" lon="13.9052616"><ele>282.0</ele><time>2026-05-02T09:14:52.038Z</time></trkpt><trkpt lat="42.235941" lon="13.9051192"><ele>285.0</ele><time>2026-05-02T09:14:53.038Z</time></trkpt><trkpt lat="42.2358779" lon="13.904986"><ele>288.0</ele><time>2026-05-02T09:14:54.038Z</time></trkpt><trkpt lat="42.2358169" lon="13.904844"><ele>287.5</ele><time>2026-05-02T09:14:55.039Z</time></trkpt><trkpt lat="42.2357539" lon="13.9047009"><ele>287.0</ele><time>2026-05-02T09:14:56.038Z</time></trkpt><trkpt lat="42.2356912" lon="13.9045497"><ele>286.5</ele><time>2026-05-02T09:14:57.039Z</time></trkpt><trkpt lat="42.2356208" lon="13.9043991"><ele>286.0</ele><time>2026-05-02T09:14:58.038Z</time></trkpt><trkpt lat="42.2355465" lon="13.904243"><ele>287.75</ele><time>2026-05-02T09:14:59.038Z</time></trkpt><trkpt lat="42.2354728" lon="13.9040884"><ele>289.5</ele><time>2026-05-02T09:15:00.038Z</time></trkpt><trkpt lat="42.2354156" lon="13.9039199"><ele>291.25</ele><time>2026-05-02T09:15:01.038Z</time></trkpt><trkpt lat="42.2353761" lon="13.9037338"><ele>293.0</ele><time>2026-05-02T09:15:02.039Z</time></trkpt><trkpt lat="42.2353481" lon="13.9035457"><ele>293.4</ele><time>2026-05-02T09:15:03.038Z</time></trkpt><trkpt lat="42.2353253" lon="13.9033691"><ele>293.8</ele><time>2026-05-02T09:15:04.038Z</time></trkpt><trkpt lat="42.235299" lon="13.9032147"><ele>294.2</ele><time>2026-05-02T09:15:05.039Z</time></trkpt><trkpt lat="42.2352726" lon="13.9030754"><ele>294.6</ele><time>2026-05-02T09:15:06.039Z</time></trkpt><trkpt lat="42.2352553" lon="13.9029537"><ele>295.0</ele><time>2026-05-02T09:15:07.038Z</time></trkpt><trkpt lat="42.2352456" lon="13.9028584"><ele>295.0</ele><time>2026-05-02T09:15:08.038Z</time></trkpt><trkpt lat="42.2352902" lon="13.9027556"><ele>295.0</ele><time>2026-05-02T09:15:10.039Z</time></trkpt><trkpt lat="42.2353685" lon="13.9028345"><ele>295.0</ele><time>2026-05-02T09:15:12.038Z</time></trkpt><trkpt lat="42.2353904" lon="13.9029195"><ele>295.0</ele><time>2026-05-02T09:15:13.038Z</time></trkpt><trkpt lat="42.2354108" lon="13.9030295"><ele>295.0</ele><time>2026-05-02T09:15:14.038Z</time></trkpt><trkpt lat="42.2354351" lon="13.9031516"><ele>295.0</ele><time>2026-05-02T09:15:15.038Z</time></trkpt><trkpt lat="42.2354697" lon="13.9032815"><ele>294.6</ele><time>2026-05-02T09:15:16.038Z</time></trkpt><trkpt lat="42.2355097" lon="13.9034222"><ele>294.2</ele><time>2026-05-02T09:15:17.038Z</time></trkpt><trkpt lat="42.2355557" lon="13.9035567"><ele>293.8</ele><time>2026-05-02T09:15:18.038Z</time></trkpt><trkpt lat="42.235602" lon="13.9036828"><ele>293.4</ele><time>2026-05-02T09:15:19.038Z</time></trkpt><trkpt lat="42.2356513" lon="13.9037815"><ele>293.0</ele><time>2026-05-02T09:15:20.038Z</time></trkpt><trkpt lat="42.2357086" lon="13.903855"><ele>294.5</ele><time>2026-05-02T09:15:21.038Z</time></trkpt><trkpt lat="42.2357754" lon="13.9038845"><ele>296.0</ele><time>2026-05-02T09:15:22.038Z</time></trkpt><trkpt lat="42.2358395" lon="13.903862"><ele>297.5</ele><time>2026-05-02T09:15:23.038Z</time></trkpt><trkpt lat="42.2358775" lon="13.9037939"><ele>299.0</ele><time>2026-05-02T09:15:24.038Z</time></trkpt><trkpt lat="42.2358992" lon="13.9037014"><ele>300.5</ele><time>2026-05-02T09:15:25.038Z</time></trkpt><trkpt lat="42.2358977" lon="13.9035837"><ele>302.0</ele><time>2026-05-02T09:15:26.038Z</time></trkpt><trkpt lat="42.2358845" lon="13.9034481"><ele>303.5</ele><time>2026-05-02T09:15:27.038Z</time></trkpt><trkpt lat="42.2358749" lon="13.9032939"><ele>305.0</ele><time>2026-05-02T09:15:28.038Z</time></trkpt><trkpt lat="42.2358628" lon="13.9031309"><ele>306.5</ele><time>2026-05-02T09:15:29.038Z</time></trkpt><trkpt lat="42.2358478" lon="13.9029629"><ele>308.0</ele><time>2026-05-02T09:15:30.038Z</time></trkpt><trkpt lat="42.2358393" lon="13.9027921"><ele>308.0</ele><time>2026-05-02T09:15:31.038Z</time></trkpt><trkpt lat="42.2358325" lon="13.9026169"><ele>308.0</ele><time>2026-05-02T09:15:32.038Z</time></trkpt><trkpt lat="42.2358241" lon="13.9024463"><ele>308.0</ele><time>2026-05-02T09:15:33.038Z</time></trkpt><trkpt lat="42.2358101" lon="13.9022851"><ele>308.0</ele><time>2026-05-02T09:15:34.038Z</time></trkpt><trkpt lat="42.2358019" lon="13.9021297"><ele>309.6</ele><time>2026-05-02T09:15:35.039Z</time></trkpt><trkpt lat="42.2357915" lon="13.9019856"><ele>311.20000000000005</ele><time>2026-05-02T09:15:36.038Z</time></trkpt><trkpt lat="42.2357734" lon="13.9018575"><ele>312.8</ele><time>2026-05-02T09:15:37.038Z</time></trkpt><trkpt lat="42.2357557" lon="13.9017388"><ele>314.40000000000003</ele><time>2026-05-02T09:15:38.038Z</time></trkpt><trkpt lat="42.2357457" lon="13.9016243"><ele>316.0</ele><time>2026-05-02T09:15:39.039Z</time></trkpt><trkpt lat="42.2357431" lon="13.9015243"><ele>317.0</ele><time>2026-05-02T09:15:40.038Z</time></trkpt><trkpt lat="42.235735" lon="13.9014387"><ele>318.0</ele><time>2026-05-02T09:15:41.038Z</time></trkpt><trkpt lat="42.2357247" lon="13.9013152"><ele>319.0</ele><time>2026-05-02T09:15:43.039Z</time></trkpt><trkpt lat="42.2357155" lon="13.9011971"><ele>320.0</ele><time>2026-05-02T09:15:45.039Z</time></trkpt><trkpt lat="42.235712" lon="13.9010977"><ele>321.0</ele><time>2026-05-02T09:15:46.038Z</time></trkpt><trkpt lat="42.2357002" lon="13.9009894"><ele>322.0</ele><time>2026-05-02T09:15:47.038Z</time></trkpt><trkpt lat="42.2356897" lon="13.9008781"><ele>323.40000000000003</ele><time>2026-05-02T09:15:48.038Z</time></trkpt><trkpt lat="42.2356767" lon="13.9007709"><ele>324.8</ele><time>2026-05-02T09:15:49.038Z</time></trkpt><trkpt lat="42.2356713" lon="13.9006767"><ele>326.2</ele><time>2026-05-02T09:15:50.038Z</time></trkpt><trkpt lat="42.2356599" lon="13.9005237"><ele>327.6</ele><time>2026-05-02T09:15:52.039Z</time></trkpt><trkpt lat="42.2356537" lon="13.9003771"><ele>329.0</ele><time>2026-05-02T09:15:54.038Z</time></trkpt><trkpt lat="42.235656" lon="13.9002354"><ele>329.0</ele><time>2026-05-02T09:15:56.038Z</time></trkpt><trkpt lat="42.2356502" lon="13.9001282"><ele>329.0</ele><time>2026-05-02T09:15:58.038Z</time></trkpt><trkpt lat="42.2356483" lon="13.9000316"><ele>329.0</ele><time>2026-05-02T09:16:01.038Z</time></trkpt><trkpt lat="42.2356604" lon="13.8999332"><ele>329.0</ele><time>2026-05-02T09:16:04.038Z</time></trkpt><trkpt lat="42.2356673" lon="13.8998369"><ele>329.0</ele><time>2026-05-02T09:16:08.038Z</time></trkpt><trkpt lat="42.2356845" lon="13.8997528"><ele>329.0</ele><time>2026-05-02T09:16:20.038Z</time></trkpt><trkpt lat="42.2357014" lon="13.8996593"><ele>329.0</ele><time>2026-05-02T09:16:22.038Z</time></trkpt><trkpt lat="42.2357152" lon="13.8995721"><ele>329.5</ele><time>2026-05-02T09:16:25.038Z</time></trkpt><trkpt lat="42.2357317" lon="13.8994877"><ele>330.0</ele><time>2026-05-02T09:16:41.038Z</time></trkpt><trkpt lat="42.2357399" lon="13.8993762"><ele>330.5</ele><time>2026-05-02T09:16:43.038Z</time></trkpt><trkpt lat="42.2357499" lon="13.8992751"><ele>331.0</ele><time>2026-05-02T09:16:46.038Z</time></trkpt><trkpt lat="42.2357402" lon="13.8991759"><ele>331.5</ele><time>2026-05-02T09:16:50.038Z</time></trkpt><trkpt lat="42.2357342" lon="13.8990613"><ele>332.0</ele><time>2026-05-02T09:17:00.038Z</time></trkpt><trkpt lat="42.2357306" lon="13.8989671"><ele>333.1428571428571</ele><time>2026-05-02T09:17:19.038Z</time></trkpt><trkpt lat="42.2357278" lon="13.8988767"><ele>334.28571428571433</ele><time>2026-05-02T09:17:21.038Z</time></trkpt><trkpt lat="42.2357185" lon="13.8987914"><ele>335.42857142857144</ele><time>2026-05-02T09:17:26.038Z</time></trkpt><trkpt lat="42.2357125" lon="13.8986967"><ele>336.57142857142856</ele><time>2026-05-02T09:17:31.038Z</time></trkpt><trkpt lat="42.2357263" lon="13.8985849"><ele>337.71428571428567</ele><time>2026-05-02T09:17:50.038Z</time></trkpt><trkpt lat="42.2357319" lon="13.8984901"><ele>338.8571428571429</ele><time>2026-05-02T09:17:53.038Z</time></trkpt><trkpt lat="42.2357254" lon="13.8983994"><ele>340.0</ele><time>2026-05-02T09:17:56.038Z</time></trkpt><trkpt lat="42.2357088" lon="13.8983028"><ele>341.3333333333333</ele><time>2026-05-02T09:18:05.038Z</time></trkpt><trkpt lat="42.2356838" lon="13.8982161"><ele>342.66666666666663</ele><time>2026-05-02T09:18:08.038Z</time></trkpt><trkpt lat="42.2356759" lon="13.8981287"><ele>344.0</ele><time>2026-05-02T09:18:13.038Z</time></trkpt><trkpt lat="42.2356625" lon="13.8980424"><ele>345.3333333333333</ele><time>2026-05-02T09:18:25.038Z</time></trkpt><trkpt lat="42.2356523" lon="13.897946"><ele>346.6666666666667</ele><time>2026-05-02T09:18:30.038Z</time></trkpt><trkpt lat="42.2356588" lon="13.8978104"><ele>348.0</ele><time>2026-05-02T09:18:55.038Z</time></trkpt><trkpt lat="42.2356612" lon="13.897699"><ele>348.8333333333333</ele><time>2026-05-02T09:18:58.038Z</time></trkpt><trkpt lat="42.2356344" lon="13.8976153"><ele>349.6666666666667</ele><time>2026-05-02T09:20:33.038Z</time></trkpt><trkpt lat="42.2356433" lon="13.897494"><ele>350.5</ele><time>2026-05-02T09:23:13.041Z</time></trkpt><trkpt lat="42.2356619" lon="13.8974013"><ele>351.33333333333337</ele><time>2026-05-02T09:23:14.041Z</time></trkpt><trkpt lat="42.2356859" lon="13.8972382"><ele>352.1666666666667</ele><time>2026-05-02T09:23:16.041Z</time></trkpt><trkpt lat="42.2357003" lon="13.897147"><ele>353.0</ele><time>2026-05-02T09:23:17.041Z</time></trkpt><trkpt lat="42.2357213" lon="13.8970403"><ele>353.0</ele><time>2026-05-02T09:23:18.041Z</time></trkpt><trkpt lat="42.2357451" lon="13.8969225"><ele>353.0</ele><time>2026-05-02T09:23:19.042Z</time></trkpt><trkpt lat="42.2358048" lon="13.8968092"><ele>353.0</ele><time>2026-05-02T09:23:20.041Z</time></trkpt><trkpt lat="42.2358389" lon="13.8966801"><ele>353.0</ele><time>2026-05-02T09:23:21.041Z</time></trkpt><trkpt lat="42.2358683" lon="13.8965542"><ele>353.0</ele><time>2026-05-02T09:23:22.041Z</time></trkpt><trkpt lat="42.2358868" lon="13.8964427"><ele>353.0</ele><time>2026-05-02T09:23:23.042Z</time></trkpt><trkpt lat="42.2359015" lon="13.8963327"><ele>353.0</ele><time>2026-05-02T09:23:24.042Z</time></trkpt><trkpt lat="42.2359204" lon="13.8962179"><ele>353.0</ele><time>2026-05-02T09:23:25.041Z</time></trkpt><trkpt lat="42.2359316" lon="13.8960913"><ele>353.0</ele><time>2026-05-02T09:23:26.041Z</time></trkpt><trkpt lat="42.2359408" lon="13.8959703"><ele>353.0</ele><time>2026-05-02T09:23:27.041Z</time></trkpt><trkpt lat="42.2359542" lon="13.8958461"><ele>353.0</ele><time>2026-05-02T09:23:28.042Z</time></trkpt><trkpt lat="42.2359707" lon="13.8957311"><ele>352.33333333333337</ele><time>2026-05-02T09:23:29.041Z</time></trkpt><trkpt lat="42.2359944" lon="13.8956213"><ele>351.6666666666667</ele><time>2026-05-02T09:23:30.042Z</time></trkpt><trkpt lat="42.2360143" lon="13.8955208"><ele>351.0</ele><time>2026-05-02T09:23:31.041Z</time></trkpt><trkpt lat="42.2360315" lon="13.8954153"><ele>350.3333333333333</ele><time>2026-05-02T09:23:32.041Z</time></trkpt><trkpt lat="42.2360454" lon="13.8953042"><ele>349.66666666666663</ele><time>2026-05-02T09:23:33.042Z</time></trkpt><trkpt lat="42.2360544" lon="13.8951907"><ele>349.0</ele><time>2026-05-02T09:23:34.041Z</time></trkpt><trkpt lat="42.2360646" lon="13.8950818"><ele>348.66666666666663</ele><time>2026-05-02T09:23:35.041Z</time></trkpt><trkpt lat="42.2360748" lon="13.8949788"><ele>348.3333333333333</ele><time>2026-05-02T09:23:36.041Z</time></trkpt><trkpt lat="42.2360811" lon="13.8948839"><ele>348.0</ele><time>2026-05-02T09:23:37.042Z</time></trkpt><trkpt lat="42.2360872" lon="13.8947949"><ele>347.6666666666667</ele><time>2026-05-02T09:23:38.041Z</time></trkpt><trkpt lat="42.2360998" lon="13.8947069"><ele>347.33333333333337</ele><time>2026-05-02T09:23:39.042Z</time></trkpt><trkpt lat="42.2361172" lon="13.8945684"><ele>347.0</ele><time>2026-05-02T09:23:41.041Z</time></trkpt><trkpt lat="42.2361357" lon="13.8944552"><ele>347.0</ele><time>2026-05-02T09:23:43.041Z</time></trkpt><trkpt lat="42.2361631" lon="13.8943447"><ele>347.0</ele><time>2026-05-02T09:23:45.041Z</time></trkpt><trkpt lat="42.2361874" lon="13.8942273"><ele>347.0</ele><time>2026-05-02T09:23:47.041Z</time></trkpt><trkpt lat="42.236219" lon="13.8940886"><ele>347.0</ele><time>2026-05-02T09:23:49.041Z</time></trkpt><trkpt lat="42.23623" lon="13.8939213"><ele>347.0</ele><time>2026-05-02T09:23:51.042Z</time></trkpt><trkpt lat="42.2362361" lon="13.8937481"><ele>346.83333333333337</ele><time>2026-05-02T09:23:53.041Z</time></trkpt><trkpt lat="42.2362355" lon="13.8936492"><ele>346.6666666666667</ele><time>2026-05-02T09:23:54.042Z</time></trkpt><trkpt lat="42.2362352" lon="13.8935511"><ele>346.5</ele><time>2026-05-02T09:23:55.041Z</time></trkpt><trkpt lat="42.2362322" lon="13.8934661"><ele>346.3333333333333</ele><time>2026-05-02T09:23:56.04Z</time></trkpt><trkpt lat="42.2362323" lon="13.8932882"><ele>346.16666666666663</ele><time>2026-05-02T09:23:58.04Z</time></trkpt><trkpt lat="42.2362357" lon="13.8931884"><ele>346.0</ele><time>2026-05-02T09:23:59.041Z</time></trkpt><trkpt lat="42.2362351" lon="13.8930785"><ele>346.0</ele><time>2026-05-02T09:24:00.04Z</time></trkpt><trkpt lat="42.2362366" lon="13.8929612"><ele>346.0</ele><time>2026-05-02T09:24:01.04Z</time></trkpt><trkpt lat="42.2362382" lon="13.8928372"><ele>346.0</ele><time>2026-05-02T09:24:02.04Z</time></trkpt><trkpt lat="42.2362394" lon="13.8927104"><ele>346.0</ele><time>2026-05-02T09:24:03.041Z</time></trkpt><trkpt lat="42.2362302" lon="13.892578"><ele>346.0</ele><time>2026-05-02T09:24:04.041Z</time></trkpt><trkpt lat="42.2362192" lon="13.892445"><ele>347.20000000000005</ele><time>2026-05-02T09:24:05.04Z</time></trkpt><trkpt lat="42.2362085" lon="13.8923091"><ele>348.40000000000003</ele><time>2026-05-02T09:24:06.04Z</time></trkpt><trkpt lat="42.2361902" lon="13.8921653"><ele>349.6</ele><time>2026-05-02T09:24:07.04Z</time></trkpt><trkpt lat="42.2361615" lon="13.892017"><ele>350.8</ele><time>2026-05-02T09:24:08.04Z</time></trkpt><trkpt lat="42.2361211" lon="13.8918745"><ele>352.0</ele><time>2026-05-02T09:24:09.04Z</time></trkpt><trkpt lat="42.2360741" lon="13.8917264"><ele>354.0</ele><time>2026-05-02T09:24:10.04Z</time></trkpt><trkpt lat="42.2360179" lon="13.8915773"><ele>356.0</ele><time>2026-05-02T09:24:11.04Z</time></trkpt><trkpt lat="42.2359498" lon="13.8914284"><ele>358.0</ele><time>2026-05-02T09:24:12.04Z</time></trkpt><trkpt lat="42.2358778" lon="13.8912809"><ele>360.0</ele><time>2026-05-02T09:24:13.04Z</time></trkpt><trkpt lat="42.2358144" lon="13.8911266"><ele>360.0</ele><time>2026-05-02T09:24:14.041Z</time></trkpt><trkpt lat="42.2357721" lon="13.8909558"><ele>360.0</ele><time>2026-05-02T09:24:15.041Z</time></trkpt><trkpt lat="42.2357417" lon="13.8907768"><ele>360.0</ele><time>2026-05-02T09:24:16.041Z</time></trkpt><trkpt lat="42.2357138" lon="13.8905993"><ele>360.0</ele><time>2026-05-02T09:24:17.041Z</time></trkpt><trkpt lat="42.2356868" lon="13.8904166"><ele>361.5</ele><time>2026-05-02T09:24:18.04Z</time></trkpt><trkpt lat="42.2356647" lon="13.8902339"><ele>363.0</ele><time>2026-05-02T09:24:19.041Z</time></trkpt><trkpt lat="42.2356275" lon="13.8900528"><ele>364.5</ele><time>2026-05-02T09:24:20.04Z</time></trkpt><trkpt lat="42.2355648" lon="13.8898812"><ele>366.0</ele><time>2026-05-02T09:24:21.041Z</time></trkpt><trkpt lat="42.2354834" lon="13.8897201"><ele>366.0</ele><time>2026-05-02T09:24:22.04Z</time></trkpt><trkpt lat="42.2353986" lon="13.8895487"><ele>366.0</ele><time>2026-05-02T09:24:23.041Z</time></trkpt><trkpt lat="42.2353152" lon="13.88937"><ele>366.0</ele><time>2026-05-02T09:24:24.041Z</time></trkpt><trkpt lat="42.2352373" lon="13.8891821"><ele>369.3333333333333</ele><time>2026-05-02T09:24:25.041Z</time></trkpt><trkpt lat="42.2351579" lon="13.8889876"><ele>372.66666666666663</ele><time>2026-05-02T09:24:26.04Z</time></trkpt><trkpt lat="42.2350717" lon="13.8888012"><ele>376.0</ele><time>2026-05-02T09:24:27.04Z</time></trkpt><trkpt lat="42.2349744" lon="13.8886232"><ele>376.0</ele><time>2026-05-02T09:24:28.04Z</time></trkpt><trkpt lat="42.2348701" lon="13.8884532"><ele>376.0</ele><time>2026-05-02T09:24:29.04Z</time></trkpt><trkpt lat="42.2347615" lon="13.8882877"><ele>376.0</ele><time>2026-05-02T09:24:30.04Z</time></trkpt><trkpt lat="42.2346596" lon="13.8881205"><ele>378.0</ele><time>2026-05-02T09:24:31.04Z</time></trkpt><trkpt lat="42.234558" lon="13.887956"><ele>380.0</ele><time>2026-05-02T09:24:32.041Z</time></trkpt><trkpt lat="42.2344586" lon="13.887793"><ele>382.0</ele><time>2026-05-02T09:24:33.04Z</time></trkpt><trkpt lat="42.2343611" lon="13.8876293"><ele>388.3333333333333</ele><time>2026-05-02T09:24:34.04Z</time></trkpt><trkpt lat="42.2342657" lon="13.8874689"><ele>394.66666666666663</ele><time>2026-05-02T09:24:35.04Z</time></trkpt><trkpt lat="42.234173" lon="13.8873074"><ele>401.0</ele><time>2026-05-02T09:24:36.04Z</time></trkpt><trkpt lat="42.2340836" lon="13.8871419"><ele>401.0</ele><time>2026-05-02T09:24:37.04Z</time></trkpt><trkpt lat="42.2339843" lon="13.8869845"><ele>401.0</ele><time>2026-05-02T09:24:38.04Z</time></trkpt><trkpt lat="42.2338805" lon="13.8868431"><ele>401.0</ele><time>2026-05-02T09:24:39.041Z</time></trkpt><trkpt lat="42.2337697" lon="13.8867278"><ele>401.0</ele><time>2026-05-02T09:24:40.04Z</time></trkpt><trkpt lat="42.2336527" lon="13.8866557"><ele>401.20000000000005</ele><time>2026-05-02T09:24:41.04Z</time></trkpt><trkpt lat="42.233549" lon="13.8865729"><ele>401.40000000000003</ele><time>2026-05-02T09:24:42.04Z</time></trkpt><trkpt lat="42.2334818" lon="13.8864679"><ele>401.6</ele><time>2026-05-02T09:24:43.04Z</time></trkpt><trkpt lat="42.2334703" lon="13.8863551"><ele>401.8</ele><time>2026-05-02T09:24:44.04Z</time></trkpt><trkpt lat="42.2335013" lon="13.8862704"><ele>402.0</ele><time>2026-05-02T09:24:45.04Z</time></trkpt><trkpt lat="42.2335748" lon="13.8862427"><ele>402.0</ele><time>2026-05-02T09:24:46.04Z</time></trkpt><trkpt lat="42.2336694" lon="13.8862514"><ele>402.0</ele><time>2026-05-02T09:24:47.041Z</time></trkpt><trkpt lat="42.2337791" lon="13.8863097"><ele>402.0</ele><time>2026-05-02T09:24:48.04Z</time></trkpt><trkpt lat="42.2338938" lon="13.8864052"><ele>402.0</ele><time>2026-05-02T09:24:49.041Z</time></trkpt><trkpt lat="42.2340189" lon="13.8865153"><ele>401.75</ele><time>2026-05-02T09:24:50.04Z</time></trkpt><trkpt lat="42.2341405" lon="13.8866528"><ele>401.5</ele><time>2026-05-02T09:24:51.04Z</time></trkpt><trkpt lat="42.2342508" lon="13.8867913"><ele>401.25</ele><time>2026-05-02T09:24:52.04Z</time></trkpt><trkpt lat="42.2343449" lon="13.8869098"><ele>401.0</ele><time>2026-05-02T09:24:53.04Z</time></trkpt><trkpt lat="42.2344394" lon="13.8869954"><ele>400.99999999999994</ele><time>2026-05-02T09:24:54.04Z</time></trkpt><trkpt lat="42.2345319" lon="13.8870266"><ele>401.0</ele><time>2026-05-02T09:24:55.04Z</time></trkpt><trkpt lat="42.2346089" lon="13.8870047"><ele>401.0</ele><time>2026-05-02T09:24:56.04Z</time></trkpt><trkpt lat="42.2346713" lon="13.8869355"><ele>401.0</ele><time>2026-05-02T09:24:57.04Z</time></trkpt><trkpt lat="42.2346932" lon="13.8868393"><ele>400.99999999999994</ele><time>2026-05-02T09:24:58.04Z</time></trkpt><trkpt lat="42.2346654" lon="13.8867296"><ele>401.0</ele><time>2026-05-02T09:24:59.04Z</time></trkpt><trkpt lat="42.2345975" lon="13.8866104"><ele>405.0</ele><time>2026-05-02T09:25:00.04Z</time></trkpt><trkpt lat="42.234499" lon="13.886504"><ele>409.0</ele><time>2026-05-02T09:25:01.04Z</time></trkpt><trkpt lat="42.2343919" lon="13.8863877"><ele>413.0</ele><time>2026-05-02T09:25:02.04Z</time></trkpt><trkpt lat="42.2343019" lon="13.8862397"><ele>417.0</ele><time>2026-05-02T09:25:03.04Z</time></trkpt><trkpt lat="42.2342267" lon="13.8860768"><ele>420.25</ele><time>2026-05-02T09:25:04.04Z</time></trkpt><trkpt lat="42.2341587" lon="13.8859145"><ele>423.5</ele><time>2026-05-02T09:25:05.04Z</time></trkpt><trkpt lat="42.2340924" lon="13.885751"><ele>426.75</ele><time>2026-05-02T09:25:06.041Z</time></trkpt><trkpt lat="42.2340364" lon="13.8855861"><ele>430.0</ele><time>2026-05-02T09:25:07.04Z</time></trkpt><trkpt lat="42.2339965" lon="13.885407"><ele>429.5</ele><time>2026-05-02T09:25:08.04Z</time></trkpt><trkpt lat="42.2339646" lon="13.8852213"><ele>429.0</ele><time>2026-05-02T09:25:09.041Z</time></trkpt><trkpt lat="42.2339404" lon="13.885028"><ele>428.5</ele><time>2026-05-02T09:25:10.041Z</time></trkpt><trkpt lat="42.2339142" lon="13.8848332"><ele>428.0</ele><time>2026-05-02T09:25:11.04Z</time></trkpt><trkpt lat="42.2338824" lon="13.8846375"><ele>428.0</ele><time>2026-05-02T09:25:12.04Z</time></trkpt><trkpt lat="42.2338532" lon="13.8844387"><ele>428.0</ele><time>2026-05-02T09:25:13.04Z</time></trkpt><trkpt lat="42.2338212" lon="13.8842373"><ele>428.0</ele><time>2026-05-02T09:25:14.04Z</time></trkpt><trkpt lat="42.2337832" lon="13.8840396"><ele>433.66666666666663</ele><time>2026-05-02T09:25:15.041Z</time></trkpt><trkpt lat="42.2337404" lon="13.8838446"><ele>439.33333333333337</ele><time>2026-05-02T09:25:16.041Z</time></trkpt><trkpt lat="42.2336942" lon="13.8836497"><ele>445.0</ele><time>2026-05-02T09:25:17.04Z</time></trkpt><trkpt lat="42.2336467" lon="13.8834609"><ele>449.0</ele><time>2026-05-02T09:25:18.04Z</time></trkpt><trkpt lat="42.2336038" lon="13.8832755"><ele>453.0</ele><time>2026-05-02T09:25:19.041Z</time></trkpt><trkpt lat="42.233571" lon="13.88309"><ele>457.0</ele><time>2026-05-02T09:25:20.04Z</time></trkpt><trkpt lat="42.233548" lon="13.8829119"><ele>461.0</ele><time>2026-05-02T09:25:21.04Z</time></trkpt><trkpt lat="42.2335441" lon="13.8827162"><ele>465.66666666666663</ele><time>2026-05-02T09:25:22.04Z</time></trkpt><trkpt lat="42.2335564" lon="13.8825112"><ele>470.33333333333337</ele><time>2026-05-02T09:25:23.04Z</time></trkpt><trkpt lat="42.2335798" lon="13.8823088"><ele>475.0</ele><time>2026-05-02T09:25:24.04Z</time></trkpt><trkpt lat="42.2336013" lon="13.8820975"><ele>475.0</ele><time>2026-05-02T09:25:25.041Z</time></trkpt><trkpt lat="42.233624" lon="13.8818855"><ele>475.0</ele><time>2026-05-02T09:25:26.04Z</time></trkpt><trkpt lat="42.2336469" lon="13.8816697"><ele>475.0</ele><time>2026-05-02T09:25:27.04Z</time></trkpt><trkpt lat="42.2336731" lon="13.881461"><ele>475.75</ele><time>2026-05-02T09:25:28.04Z</time></trkpt><trkpt lat="42.2337066" lon="13.8812661"><ele>476.5</ele><time>2026-05-02T09:25:29.04Z</time></trkpt><trkpt lat="42.2337454" lon="13.8810831"><ele>477.25</ele><time>2026-05-02T09:25:30.04Z</time></trkpt><trkpt lat="42.2337812" lon="13.8809096"><ele>478.0</ele><time>2026-05-02T09:25:31.041Z</time></trkpt><trkpt lat="42.2338165" lon="13.8807278"><ele>478.0</ele><time>2026-05-02T09:25:32.04Z</time></trkpt><trkpt lat="42.2338333" lon="13.8805414"><ele>478.0</ele><time>2026-05-02T09:25:33.04Z</time></trkpt><trkpt lat="42.2338238" lon="13.8803406"><ele>478.0</ele><time>2026-05-02T09:25:34.04Z</time></trkpt><trkpt lat="42.2337909" lon="13.8801329"><ele>478.0</ele><time>2026-05-02T09:25:35.04Z</time></trkpt><trkpt lat="42.2337456" lon="13.8799323"><ele>477.5</ele><time>2026-05-02T09:25:36.04Z</time></trkpt><trkpt lat="42.2337085" lon="13.8797414"><ele>477.0</ele><time>2026-05-02T09:25:37.04Z</time></trkpt><trkpt lat="42.2336924" lon="13.8795505"><ele>476.5</ele><time>2026-05-02T09:25:38.04Z</time></trkpt><trkpt lat="42.2337034" lon="13.8793485"><ele>476.0</ele><time>2026-05-02T09:25:39.04Z</time></trkpt><trkpt lat="42.2337403" lon="13.8791401"><ele>475.66666666666663</ele><time>2026-05-02T09:25:40.04Z</time></trkpt><trkpt lat="42.233793" lon="13.8789329"><ele>475.33333333333337</ele><time>2026-05-02T09:25:41.04Z</time></trkpt><trkpt lat="42.2338498" lon="13.8787239"><ele>475.0</ele><time>2026-05-02T09:25:42.04Z</time></trkpt><trkpt lat="42.2339013" lon="13.8784977"><ele>474.6666666666667</ele><time>2026-05-02T09:25:43.04Z</time></trkpt><trkpt lat="42.2339503" lon="13.8782651"><ele>474.33333333333337</ele><time>2026-05-02T09:25:44.04Z</time></trkpt><trkpt lat="42.2339926" lon="13.8780314"><ele>474.0</ele><time>2026-05-02T09:25:45.04Z</time></trkpt><trkpt lat="42.2340309" lon="13.8778041"><ele>470.66666666666663</ele><time>2026-05-02T09:25:46.04Z</time></trkpt><trkpt lat="42.2340657" lon="13.8775852"><ele>467.3333333333333</ele><time>2026-05-02T09:25:47.04Z</time></trkpt><trkpt lat="42.2340888" lon="13.8773713"><ele>464.0</ele><time>2026-05-02T09:25:48.04Z</time></trkpt><trkpt lat="42.2341048" lon="13.8771596"><ele>464.0</ele><time>2026-05-02T09:25:49.04Z</time></trkpt><trkpt lat="42.2341153" lon="13.8769639"><ele>464.0</ele><time>2026-05-02T09:25:50.04Z</time></trkpt><trkpt lat="42.2341293" lon="13.8767777"><ele>464.0</ele><time>2026-05-02T09:25:51.041Z</time></trkpt><trkpt lat="42.2341552" lon="13.876593"><ele>464.0</ele><time>2026-05-02T09:25:52.04Z</time></trkpt><trkpt lat="42.2342034" lon="13.8764054"><ele>464.66666666666663</ele><time>2026-05-02T09:25:53.04Z</time></trkpt><trkpt lat="42.2342774" lon="13.8762332"><ele>465.33333333333337</ele><time>2026-05-02T09:25:54.041Z</time></trkpt><trkpt lat="42.2343609" lon="13.8760607"><ele>466.0</ele><time>2026-05-02T09:25:55.041Z</time></trkpt><trkpt lat="42.2344561" lon="13.8758879"><ele>469.33333333333337</ele><time>2026-05-02T09:25:56.04Z</time></trkpt><trkpt lat="42.2345602" lon="13.8757215"><ele>472.66666666666663</ele><time>2026-05-02T09:25:57.041Z</time></trkpt><trkpt lat="42.2346762" lon="13.8755515"><ele>476.0</ele><time>2026-05-02T09:25:58.04Z</time></trkpt><trkpt lat="42.2347977" lon="13.8753909"><ele>473.0</ele><time>2026-05-02T09:25:59.041Z</time></trkpt><trkpt lat="42.2349212" lon="13.8752379"><ele>470.0</ele><time>2026-05-02T09:26:00.04Z</time></trkpt><trkpt lat="42.2350529" lon="13.8751002"><ele>467.0</ele><time>2026-05-02T09:26:01.041Z</time></trkpt><trkpt lat="42.2351894" lon="13.8749781"><ele>467.0</ele><time>2026-05-02T09:26:02.04Z</time></trkpt><trkpt lat="42.2353188" lon="13.8748707"><ele>467.0</ele><time>2026-05-02T09:26:03.04Z</time></trkpt><trkpt lat="42.2354395" lon="13.8747662"><ele>467.0</ele><time>2026-05-02T09:26:04.041Z</time></trkpt><trkpt lat="42.2355404" lon="13.8746603"><ele>467.0</ele><time>2026-05-02T09:26:05.041Z</time></trkpt><trkpt lat="42.23562" lon="13.8745564"><ele>465.49999999999994</ele><time>2026-05-02T09:26:06.04Z</time></trkpt><trkpt lat="42.2356809" lon="13.8744561"><ele>464.0</ele><time>2026-05-02T09:26:07.04Z</time></trkpt><trkpt lat="42.2357113" lon="13.8743552"><ele>462.5</ele><time>2026-05-02T09:26:08.04Z</time></trkpt><trkpt lat="42.2357082" lon="13.8742587"><ele>461.0</ele><time>2026-05-02T09:26:09.041Z</time></trkpt><trkpt lat="42.235666" lon="13.8741604"><ele>459.49999999999994</ele><time>2026-05-02T09:26:10.04Z</time></trkpt><trkpt lat="42.2355966" lon="13.8740581"><ele>458.0</ele><time>2026-05-02T09:26:11.04Z</time></trkpt><trkpt lat="42.2355054" lon="13.8739684"><ele>462.79999999999995</ele><time>2026-05-02T09:26:12.04Z</time></trkpt><trkpt lat="42.2354232" lon="13.8738696"><ele>467.59999999999997</ele><time>2026-05-02T09:26:13.041Z</time></trkpt><trkpt lat="42.2353631" lon="13.8737599"><ele>472.40000000000003</ele><time>2026-05-02T09:26:14.04Z</time></trkpt><trkpt lat="42.2353481" lon="13.8736463"><ele>477.20000000000005</ele><time>2026-05-02T09:26:15.04Z</time></trkpt><trkpt lat="42.2353679" lon="13.8735391"><ele>482.0</ele><time>2026-05-02T09:26:16.04Z</time></trkpt><trkpt lat="42.2354137" lon="13.8734518"><ele>481.0</ele><time>2026-05-02T09:26:17.04Z</time></trkpt><trkpt lat="42.2354748" lon="13.8733567"><ele>480.00000000000006</ele><time>2026-05-02T09:26:18.04Z</time></trkpt><trkpt lat="42.2355459" lon="13.8732603"><ele>479.00000000000006</ele><time>2026-05-02T09:26:19.04Z</time></trkpt><trkpt lat="42.2356314" lon="13.8731982"><ele>478.0</ele><time>2026-05-02T09:26:20.04Z</time></trkpt><trkpt lat="42.2357367" lon="13.8731929"><ele>477.0</ele><time>2026-05-02T09:26:21.04Z</time></trkpt><trkpt lat="42.2358594" lon="13.8732143"><ele>473.0</ele><time>2026-05-02T09:26:22.04Z</time></trkpt><trkpt lat="42.235985" lon="13.8732427"><ele>469.0</ele><time>2026-05-02T09:26:23.04Z</time></trkpt><trkpt lat="42.2361087" lon="13.8732843"><ele>465.0</ele><time>2026-05-02T09:26:24.04Z</time></trkpt><trkpt lat="42.2362352" lon="13.8733312"><ele>461.0</ele><time>2026-05-02T09:26:25.04Z</time></trkpt><trkpt lat="42.2363612" lon="13.8733738"><ele>461.25</ele><time>2026-05-02T09:26:26.04Z</time></trkpt><trkpt lat="42.2364955" lon="13.8733933"><ele>461.5</ele><time>2026-05-02T09:26:27.04Z</time></trkpt><trkpt lat="42.2366314" lon="13.873402"><ele>461.75</ele><time>2026-05-02T09:26:28.041Z</time></trkpt><trkpt lat="42.2367646" lon="13.8734012"><ele>462.0</ele><time>2026-05-02T09:26:29.04Z</time></trkpt><trkpt lat="42.2368925" lon="13.8733757"><ele>462.0</ele><time>2026-05-02T09:26:30.04Z</time></trkpt><trkpt lat="42.2370087" lon="13.8733349"><ele>462.0</ele><time>2026-05-02T09:26:31.041Z</time></trkpt><trkpt lat="42.2371204" lon="13.8732759"><ele>462.0</ele><time>2026-05-02T09:26:32.04Z</time></trkpt><trkpt lat="42.2372265" lon="13.8732097"><ele>462.0</ele><time>2026-05-02T09:26:33.04Z</time></trkpt><trkpt lat="42.2373244" lon="13.8731474"><ele>461.0</ele><time>2026-05-02T09:26:34.04Z</time></trkpt><trkpt lat="42.2374162" lon="13.8730816"><ele>460.00000000000006</ele><time>2026-05-02T09:26:35.04Z</time></trkpt><trkpt lat="42.2375045" lon="13.8730122"><ele>459.00000000000006</ele><time>2026-05-02T09:26:36.04Z</time></trkpt><trkpt lat="42.2375911" lon="13.872935"><ele>458.0</ele><time>2026-05-02T09:26:37.04Z</time></trkpt><trkpt lat="42.2376715" lon="13.8728437"><ele>457.0</ele><time>2026-05-02T09:26:38.04Z</time></trkpt><trkpt lat="42.2377386" lon="13.8727366"><ele>457.0</ele><time>2026-05-02T09:26:39.041Z</time></trkpt><trkpt lat="42.2377926" lon="13.8726118"><ele>457.00000000000006</ele><time>2026-05-02T09:26:40.04Z</time></trkpt><trkpt lat="42.2378381" lon="13.8724701"><ele>457.00000000000006</ele><time>2026-05-02T09:26:41.04Z</time></trkpt><trkpt lat="42.2378773" lon="13.8723269"><ele>457.0</ele><time>2026-05-02T09:26:42.041Z</time></trkpt><trkpt lat="42.2379161" lon="13.872186"><ele>457.0</ele><time>2026-05-02T09:26:43.04Z</time></trkpt><trkpt lat="42.2379609" lon="13.8720403"><ele>461.0</ele><time>2026-05-02T09:26:44.04Z</time></trkpt><trkpt lat="42.2380172" lon="13.8719"><ele>465.0</ele><time>2026-05-02T09:26:45.041Z</time></trkpt><trkpt lat="42.238072" lon="13.8717652"><ele>469.0</ele><time>2026-05-02T09:26:46.04Z</time></trkpt><trkpt lat="42.2381282" lon="13.8716342"><ele>473.0</ele><time>2026-05-02T09:26:47.04Z</time></trkpt><trkpt lat="42.2381905" lon="13.8715102"><ele>473.25</ele><time>2026-05-02T09:26:48.04Z</time></trkpt><trkpt lat="42.2382636" lon="13.8713827"><ele>473.5</ele><time>2026-05-02T09:26:49.041Z</time></trkpt><trkpt lat="42.2383425" lon="13.8712567"><ele>473.75</ele><time>2026-05-02T09:26:50.04Z</time></trkpt><trkpt lat="42.2384244" lon="13.8711363"><ele>474.0</ele><time>2026-05-02T09:26:51.041Z</time></trkpt><trkpt lat="42.2385025" lon="13.8710185"><ele>477.2</ele><time>2026-05-02T09:26:52.04Z</time></trkpt><trkpt lat="42.2385776" lon="13.8709145"><ele>480.4</ele><time>2026-05-02T09:26:53.04Z</time></trkpt><trkpt lat="42.2386356" lon="13.8708219"><ele>483.6</ele><time>2026-05-02T09:26:54.041Z</time></trkpt><trkpt lat="42.2386846" lon="13.8707512"><ele>486.8</ele><time>2026-05-02T09:26:55.04Z</time></trkpt><trkpt lat="42.2387121" lon="13.8706338"><ele>490.0</ele><time>2026-05-02T09:26:57.04Z</time></trkpt><trkpt lat="42.2386188" lon="13.8706014"><ele>490.0</ele><time>2026-05-02T09:26:59.041Z</time></trkpt><trkpt lat="42.2385385" lon="13.8706318"><ele>490.0</ele><time>2026-05-02T09:27:00.04Z</time></trkpt><trkpt lat="42.2384511" lon="13.8706486"><ele>490.0</ele><time>2026-05-02T09:27:01.04Z</time></trkpt><trkpt lat="42.2383551" lon="13.8706682"><ele>490.0</ele><time>2026-05-02T09:27:02.04Z</time></trkpt><trkpt lat="42.2382422" lon="13.8706849"><ele>490.0</ele><time>2026-05-02T09:27:03.04Z</time></trkpt><trkpt lat="42.2381266" lon="13.8707078"><ele>489.2</ele><time>2026-05-02T09:27:04.04Z</time></trkpt><trkpt lat="42.2380222" lon="13.8707316"><ele>488.4</ele><time>2026-05-02T09:27:05.04Z</time></trkpt><trkpt lat="42.2379293" lon="13.8707914"><ele>487.6</ele><time>2026-05-02T09:27:06.04Z</time></trkpt><trkpt lat="42.2378357" lon="13.8708667"><ele>486.8</ele><time>2026-05-02T09:27:07.04Z</time></trkpt><trkpt lat="42.2377481" lon="13.8709351"><ele>486.0</ele><time>2026-05-02T09:27:08.04Z</time></trkpt><trkpt lat="42.2376586" lon="13.8709759"><ele>486.0</ele><time>2026-05-02T09:27:09.04Z</time></trkpt><trkpt lat="42.2375808" lon="13.8709873"><ele>486.0</ele><time>2026-05-02T09:27:10.04Z</time></trkpt><trkpt lat="42.2375062" lon="13.8709155"><ele>486.0</ele><time>2026-05-02T09:27:12.04Z</time></trkpt><trkpt lat="42.2375411" lon="13.8707564"><ele>486.0</ele><time>2026-05-02T09:27:14.04Z</time></trkpt><trkpt lat="42.2375962" lon="13.8706557"><ele>486.0</ele><time>2026-05-02T09:27:15.04Z</time></trkpt><trkpt lat="42.2376649" lon="13.8705486"><ele>488.8</ele><time>2026-05-02T09:27:16.04Z</time></trkpt><trkpt lat="42.237741" lon="13.8704434"><ele>491.6</ele><time>2026-05-02T09:27:17.04Z</time></trkpt><trkpt lat="42.2378195" lon="13.8703396"><ele>494.4</ele><time>2026-05-02T09:27:18.04Z</time></trkpt><trkpt lat="42.2378866" lon="13.8702403"><ele>497.2</ele><time>2026-05-02T09:27:19.041Z</time></trkpt><trkpt lat="42.2379424" lon="13.8701481"><ele>500.0</ele><time>2026-05-02T09:27:20.04Z</time></trkpt><trkpt lat="42.2379862" lon="13.8700623"><ele>503.0</ele><time>2026-05-02T09:27:21.04Z</time></trkpt><trkpt lat="42.2379969" lon="13.8699062"><ele>506.0</ele><time>2026-05-02T09:27:23.04Z</time></trkpt><trkpt lat="42.2379474" lon="13.8698322"><ele>509.0</ele><time>2026-05-02T09:27:24.04Z</time></trkpt><trkpt lat="42.2378695" lon="13.86976"><ele>512.0</ele><time>2026-05-02T09:27:25.04Z</time></trkpt><trkpt lat="42.2377617" lon="13.8697219"><ele>515.0</ele><time>2026-05-02T09:27:26.04Z</time></trkpt><trkpt lat="42.2376473" lon="13.8696792"><ele>515.0</ele><time>2026-05-02T09:27:27.041Z</time></trkpt><trkpt lat="42.2375372" lon="13.8696299"><ele>515.0</ele><time>2026-05-02T09:27:28.04Z</time></trkpt><trkpt lat="42.2374338" lon="13.8695551"><ele>515.0</ele><time>2026-05-02T09:27:29.041Z</time></trkpt><trkpt lat="42.2373313" lon="13.8694767"><ele>515.0</ele><time>2026-05-02T09:27:30.041Z</time></trkpt><trkpt lat="42.2372269" lon="13.8694167"><ele>514.8</ele><time>2026-05-02T09:27:31.04Z</time></trkpt><trkpt lat="42.2371208" lon="13.8693624"><ele>514.6</ele><time>2026-05-02T09:27:32.04Z</time></trkpt><trkpt lat="42.2370217" lon="13.8693095"><ele>514.4</ele><time>2026-05-02T09:27:33.041Z</time></trkpt><trkpt lat="42.2369315" lon="13.8692608"><ele>514.2</ele><time>2026-05-02T09:27:34.041Z</time></trkpt><trkpt lat="42.2368574" lon="13.8692207"><ele>514.0</ele><time>2026-05-02T09:27:35.04Z</time></trkpt><trkpt lat="42.2367985" lon="13.8691857"><ele>516.8</ele><time>2026-05-02T09:27:36.04Z</time></trkpt><trkpt lat="42.2366981" lon="13.8691115"><ele>519.5999999999999</ele><time>2026-05-02T09:27:38.041Z</time></trkpt><trkpt lat="42.2365923" lon="13.8690137"><ele>522.4</ele><time>2026-05-02T09:27:40.04Z</time></trkpt><trkpt lat="42.2365284" lon="13.8689523"><ele>525.1999999999999</ele><time>2026-05-02T09:27:41.04Z</time></trkpt><trkpt lat="42.2364505" lon="13.8688891"><ele>528.0</ele><time>2026-05-02T09:27:42.04Z</time></trkpt><trkpt lat="42.236362" lon="13.8688316"><ele>528.0</ele><time>2026-05-02T09:27:43.04Z</time></trkpt><trkpt lat="42.2362904" lon="13.8687753"><ele>528.0</ele><time>2026-05-02T09:27:44.04Z</time></trkpt><trkpt lat="42.2362393" lon="13.8687031"><ele>528.0</ele><time>2026-05-02T09:27:45.04Z</time></trkpt><trkpt lat="42.2362055" lon="13.8686219"><ele>528.0</ele><time>2026-05-02T09:27:46.041Z</time></trkpt><trkpt lat="42.2362537" lon="13.8684761"><ele>528.0</ele><time>2026-05-02T09:27:48.04Z</time></trkpt><trkpt lat="42.2363276" lon="13.8684401"><ele>528.0</ele><time>2026-05-02T09:27:49.04Z</time></trkpt><trkpt lat="42.2364174" lon="13.8683909"><ele>532.4</ele><time>2026-05-02T09:27:50.041Z</time></trkpt><trkpt lat="42.2365189" lon="13.8683369"><ele>536.8</ele><time>2026-05-02T09:27:51.041Z</time></trkpt><trkpt lat="42.2366253" lon="13.868289"><ele>541.2</ele><time>2026-05-02T09:27:52.04Z</time></trkpt><trkpt lat="42.2367266" lon="13.8682359"><ele>545.6</ele><time>2026-05-02T09:27:53.04Z</time></trkpt><trkpt lat="42.2368215" lon="13.8681824"><ele>550.0</ele><time>2026-05-02T09:27:54.04Z</time></trkpt><trkpt lat="42.2369019" lon="13.8681386"><ele>550.0</ele><time>2026-05-02T09:27:55.041Z</time></trkpt><trkpt lat="42.2369694" lon="13.8681119"><ele>550.0</ele><time>2026-05-02T09:27:56.04Z</time></trkpt><trkpt lat="42.2370504" lon="13.8680331"><ele>550.0</ele><time>2026-05-02T09:27:58.04Z</time></trkpt><trkpt lat="42.237023" lon="13.867905"><ele>550.0</ele><time>2026-05-02T09:28:00.041Z</time></trkpt><trkpt lat="42.2369539" lon="13.8678495"><ele>550.0</ele><time>2026-05-02T09:28:01.04Z</time></trkpt><trkpt lat="42.2368575" lon="13.8678043"><ele>550.0</ele><time>2026-05-02T09:28:02.04Z</time></trkpt><trkpt lat="42.2367658" lon="13.8677519"><ele>550.0</ele><time>2026-05-02T09:28:03.04Z</time></trkpt><trkpt lat="42.2366815" lon="13.8676903"><ele>550.0</ele><time>2026-05-02T09:28:04.04Z</time></trkpt><trkpt lat="42.2366015" lon="13.8676192"><ele>550.0</ele><time>2026-05-02T09:28:05.04Z</time></trkpt><trkpt lat="42.2365206" lon="13.8675289"><ele>550.0</ele><time>2026-05-02T09:28:06.04Z</time></trkpt><trkpt lat="42.2364468" lon="13.8674222"><ele>551.4</ele><time>2026-05-02T09:28:07.041Z</time></trkpt><trkpt lat="42.2363863" lon="13.8672887"><ele>552.8</ele><time>2026-05-02T09:28:08.04Z</time></trkpt><trkpt lat="42.2363339" lon="13.8671581"><ele>554.2</ele><time>2026-05-02T09:28:09.04Z</time></trkpt><trkpt lat="42.2362863" lon="13.8670383"><ele>555.6</ele><time>2026-05-02T09:28:10.04Z</time></trkpt><trkpt lat="42.2362302" lon="13.8669328"><ele>557.0</ele><time>2026-05-02T09:28:11.04Z</time></trkpt><trkpt lat="42.2361574" lon="13.8668428"><ele>557.0</ele><time>2026-05-02T09:28:12.04Z</time></trkpt><trkpt lat="42.236069" lon="13.866791"><ele>557.0</ele><time>2026-05-02T09:28:13.041Z</time></trkpt><trkpt lat="42.2359736" lon="13.8667663"><ele>557.0</ele><time>2026-05-02T09:28:14.04Z</time></trkpt><trkpt lat="42.2358598" lon="13.8667823"><ele>557.0</ele><time>2026-05-02T09:28:15.04Z</time></trkpt><trkpt lat="42.2357522" lon="13.8668264"><ele>557.0</ele><time>2026-05-02T09:28:16.04Z</time></trkpt><trkpt lat="42.2356539" lon="13.8668557"><ele>556.0</ele><time>2026-05-02T09:28:17.04Z</time></trkpt><trkpt lat="42.2355669" lon="13.8668779"><ele>555.0</ele><time>2026-05-02T09:28:18.041Z</time></trkpt><trkpt lat="42.2354958" lon="13.8668816"><ele>554.0</ele><time>2026-05-02T09:28:19.041Z</time></trkpt><trkpt lat="42.2354071" lon="13.866798"><ele>553.0</ele><time>2026-05-02T09:28:21.04Z</time></trkpt><trkpt lat="42.2354322" lon="13.8666763"><ele>552.0</ele><time>2026-05-02T09:28:23.04Z</time></trkpt><trkpt lat="42.235556" lon="13.8666162"><ele>556.8000000000001</ele><time>2026-05-02T09:28:25.04Z</time></trkpt><trkpt lat="42.2356223" lon="13.8665566"><ele>561.6</ele><time>2026-05-02T09:28:27.041Z</time></trkpt><trkpt lat="42.2356808" lon="13.8665112"><ele>566.4000000000001</ele><time>2026-05-02T09:28:29.04Z</time></trkpt><trkpt lat="42.2357591" lon="13.8664482"><ele>571.2</ele><time>2026-05-02T09:28:31.04Z</time></trkpt><trkpt lat="42.2358492" lon="13.8663713"><ele>576.0</ele><time>2026-05-02T09:28:33.04Z</time></trkpt><trkpt lat="42.2359666" lon="13.8662812"><ele>576.3333333333334</ele><time>2026-05-02T09:28:35.04Z</time></trkpt><trkpt lat="42.2360358" lon="13.8662222"><ele>576.6666666666666</ele><time>2026-05-02T09:28:36.04Z</time></trkpt><trkpt lat="42.2360956" lon="13.866177"><ele>577.0</ele><time>2026-05-02T09:28:37.04Z</time></trkpt><trkpt lat="42.2361686" lon="13.8660811"><ele>577.3333333333333</ele><time>2026-05-02T09:28:39.04Z</time></trkpt><trkpt lat="42.2362034" lon="13.8659526"><ele>577.6666666666666</ele><time>2026-05-02T09:28:41.04Z</time></trkpt><trkpt lat="42.2362424" lon="13.8658349"><ele>578.0</ele><time>2026-05-02T09:28:43.04Z</time></trkpt><trkpt lat="42.2363259" lon="13.8658046"><ele>578.0</ele><time>2026-05-02T09:28:46.04Z</time></trkpt><trkpt lat="42.2363872" lon="13.8658853"><ele>578.0</ele><time>2026-05-02T09:28:48.04Z</time></trkpt><trkpt lat="42.2364621" lon="13.8659745"><ele>578.0</ele><time>2026-05-02T09:28:50.04Z</time></trkpt><trkpt lat="42.2365242" lon="13.8660124"><ele>578.0</ele><time>2026-05-02T09:28:51.04Z</time></trkpt><trkpt lat="42.2365855" lon="13.8660405"><ele>578.0</ele><time>2026-05-02T09:28:52.04Z</time></trkpt><trkpt lat="42.2366498" lon="13.8660512"><ele>578.0</ele><time>2026-05-02T09:28:53.041Z</time></trkpt><trkpt lat="42.236719" lon="13.8660415"><ele>580.1666666666666</ele><time>2026-05-02T09:28:54.04Z</time></trkpt><trkpt lat="42.2367878" lon="13.8660331"><ele>582.3333333333333</ele><time>2026-05-02T09:28:55.04Z</time></trkpt><trkpt lat="42.2368581" lon="13.8660297"><ele>584.5</ele><time>2026-05-02T09:28:56.04Z</time></trkpt><trkpt lat="42.2369657" lon="13.8660321"><ele>586.6666666666666</ele><time>2026-05-02T09:28:58.04Z</time></trkpt><trkpt lat="42.2370642" lon="13.8661112"><ele>588.8333333333334</ele><time>2026-05-02T09:29:00.038Z</time></trkpt><trkpt lat="42.237136" lon="13.8661672"><ele>591.0</ele><time>2026-05-02T09:29:01.037Z</time></trkpt><trkpt lat="42.23721" lon="13.8662292"><ele>591.0</ele><time>2026-05-02T09:29:02.037Z</time></trkpt><trkpt lat="42.2372825" lon="13.8662879"><ele>591.0</ele><time>2026-05-02T09:29:03.037Z</time></trkpt><trkpt lat="42.2373528" lon="13.8663453"><ele>591.0</ele><time>2026-05-02T09:29:04.037Z</time></trkpt><trkpt lat="42.2374163" lon="13.866396"><ele>591.0</ele><time>2026-05-02T09:29:05.037Z</time></trkpt><trkpt lat="42.2374792" lon="13.8664265"><ele>591.0</ele><time>2026-05-02T09:29:06.037Z</time></trkpt><trkpt lat="42.2375476" lon="13.8664502"><ele>591.0</ele><time>2026-05-02T09:29:07.037Z</time></trkpt><trkpt lat="42.2376134" lon="13.8664484"><ele>591.0</ele><time>2026-05-02T09:29:08.037Z</time></trkpt><trkpt lat="42.2376819" lon="13.8664278"><ele>592.5714285714286</ele><time>2026-05-02T09:29:09.038Z</time></trkpt><trkpt lat="42.2377573" lon="13.8663884"><ele>594.1428571428571</ele><time>2026-05-02T09:29:10.037Z</time></trkpt><trkpt lat="42.2378229" lon="13.8663374"><ele>595.7142857142858</ele><time>2026-05-02T09:29:11.037Z</time></trkpt><trkpt lat="42.2378791" lon="13.8662827"><ele>597.2857142857142</ele><time>2026-05-02T09:29:12.037Z</time></trkpt><trkpt lat="42.2379269" lon="13.8662235"><ele>598.8571428571429</ele><time>2026-05-02T09:29:13.037Z</time></trkpt><trkpt lat="42.2379701" lon="13.8661444"><ele>600.4285714285714</ele><time>2026-05-02T09:29:14.037Z</time></trkpt><trkpt lat="42.2380065" lon="13.8660538"><ele>602.0</ele><time>2026-05-02T09:29:15.037Z</time></trkpt><trkpt lat="42.2380285" lon="13.8659691"><ele>605.0</ele><time>2026-05-02T09:29:16.038Z</time></trkpt><trkpt lat="42.2380392" lon="13.8658765"><ele>608.0</ele><time>2026-05-02T09:29:17.037Z</time></trkpt><trkpt lat="42.2380393" lon="13.8657689"><ele>611.0</ele><time>2026-05-02T09:29:18.037Z</time></trkpt><trkpt lat="42.2380337" lon="13.86566"><ele>614.0</ele><time>2026-05-02T09:29:19.037Z</time></trkpt><trkpt lat="42.2380215" lon="13.8655515"><ele>617.0</ele><time>2026-05-02T09:29:20.037Z</time></trkpt><trkpt lat="42.238002" lon="13.8654499"><ele>620.0</ele><time>2026-05-02T09:29:21.037Z</time></trkpt><trkpt lat="42.2379788" lon="13.8653591"><ele>620.0</ele><time>2026-05-02T09:29:22.038Z</time></trkpt><trkpt lat="42.2379655" lon="13.8652716"><ele>620.0</ele><time>2026-05-02T09:29:23.038Z</time></trkpt><trkpt lat="42.2379586" lon="13.8651746"><ele>620.0</ele><time>2026-05-02T09:29:24.037Z</time></trkpt><trkpt lat="42.2379528" lon="13.8650704"><ele>620.0</ele><time>2026-05-02T09:29:25.037Z</time></trkpt><trkpt lat="42.2379488" lon="13.8649718"><ele>620.0</ele><time>2026-05-02T09:29:26.038Z</time></trkpt><trkpt lat="42.2379487" lon="13.8648765"><ele>620.0</ele><time>2026-05-02T09:29:27.037Z</time></trkpt><trkpt lat="42.2379468" lon="13.8647762"><ele>620.0</ele><time>2026-05-02T09:29:28.037Z</time></trkpt><trkpt lat="42.2379439" lon="13.8646739"><ele>622.8333333333333</ele><time>2026-05-02T09:29:29.037Z</time></trkpt><trkpt lat="42.2379381" lon="13.8645659"><ele>625.6666666666666</ele><time>2026-05-02T09:29:30.038Z</time></trkpt><trkpt lat="42.2379323" lon="13.8644588"><ele>628.5</ele><time>2026-05-02T09:29:31.037Z</time></trkpt><trkpt lat="42.2379215" lon="13.8643743"><ele>631.3333333333334</ele><time>2026-05-02T09:29:32.038Z</time></trkpt><trkpt lat="42.2378802" lon="13.864272"><ele>634.1666666666667</ele><time>2026-05-02T09:29:34.038Z</time></trkpt><trkpt lat="42.2377927" lon="13.8642014"><ele>637.0</ele><time>2026-05-02T09:29:36.037Z</time></trkpt><trkpt lat="42.2377314" lon="13.8641575"><ele>639.1428571428571</ele><time>2026-05-02T09:29:37.037Z</time></trkpt><trkpt lat="42.2376755" lon="13.8641059"><ele>641.2857142857142</ele><time>2026-05-02T09:29:38.037Z</time></trkpt><trkpt lat="42.2376218" lon="13.8640489"><ele>643.4285714285714</ele><time>2026-05-02T09:29:39.038Z</time></trkpt><trkpt lat="42.2375733" lon="13.8639812"><ele>645.5714285714286</ele><time>2026-05-02T09:29:40.037Z</time></trkpt><trkpt lat="42.2375298" lon="13.8639141"><ele>647.7142857142857</ele><time>2026-05-02T09:29:41.037Z</time></trkpt><trkpt lat="42.23749" lon="13.8638336"><ele>649.8571428571429</ele><time>2026-05-02T09:29:42.037Z</time></trkpt><trkpt lat="42.237458" lon="13.8637498"><ele>652.0</ele><time>2026-05-02T09:29:43.037Z</time></trkpt><trkpt lat="42.2374349" lon="13.8636641"><ele>652.0</ele><time>2026-05-02T09:29:44.037Z</time></trkpt><trkpt lat="42.2374224" lon="13.8635689"><ele>652.0</ele><time>2026-05-02T09:29:45.037Z</time></trkpt><trkpt lat="42.2374172" lon="13.8634709"><ele>652.0</ele><time>2026-05-02T09:29:46.037Z</time></trkpt><trkpt lat="42.2374202" lon="13.8633715"><ele>652.0</ele><time>2026-05-02T09:29:47.037Z</time></trkpt><trkpt lat="42.2374242" lon="13.863284"><ele>652.0</ele><time>2026-05-02T09:29:48.038Z</time></trkpt><trkpt lat="42.2374152" lon="13.8631385"><ele>652.0</ele><time>2026-05-02T09:29:50.037Z</time></trkpt><trkpt lat="42.2373702" lon="13.8630611"><ele>655.2</ele><time>2026-05-02T09:29:52.037Z</time></trkpt><trkpt lat="42.2373271" lon="13.8629535"><ele>658.4000000000001</ele><time>2026-05-02T09:29:54.037Z</time></trkpt><trkpt lat="42.2373101" lon="13.8628317"><ele>661.5999999999999</ele><time>2026-05-02T09:29:56.038Z</time></trkpt><trkpt lat="42.2372868" lon="13.8627011"><ele>664.8</ele><time>2026-05-02T09:29:58.037Z</time></trkpt><trkpt lat="42.2372649" lon="13.8625725"><ele>668.0</ele><time>2026-05-02T09:30:00.037Z</time></trkpt><trkpt lat="42.2372398" lon="13.8624312"><ele>672.2</ele><time>2026-05-02T09:30:02.037Z</time></trkpt><trkpt lat="42.2372045" lon="13.8622961"><ele>676.4</ele><time>2026-05-02T09:30:04.037Z</time></trkpt><trkpt lat="42.2371775" lon="13.8621532"><ele>680.6</ele><time>2026-05-02T09:30:06.038Z</time></trkpt><trkpt lat="42.2371602" lon="13.8619999"><ele>684.8000000000001</ele><time>2026-05-02T09:30:08.037Z</time></trkpt><trkpt lat="42.2371464" lon="13.8618611"><ele>689.0</ele><time>2026-05-02T09:30:10.038Z</time></trkpt><trkpt lat="42.2371043" lon="13.8617213"><ele>694.0</ele><time>2026-05-02T09:30:12.037Z</time></trkpt><trkpt lat="42.2370879" lon="13.8615683"><ele>699.0</ele><time>2026-05-02T09:30:14.037Z</time></trkpt><trkpt lat="42.2370988" lon="13.8614269"><ele>704.0</ele><time>2026-05-02T09:30:16.037Z</time></trkpt><trkpt lat="42.2370971" lon="13.8612756"><ele>709.0</ele><time>2026-05-02T09:30:18.037Z</time></trkpt><trkpt lat="42.237093" lon="13.8611114"><ele>709.0</ele><time>2026-05-02T09:30:20.038Z</time></trkpt><trkpt lat="42.2370849" lon="13.8609524"><ele>709.0</ele><time>2026-05-02T09:30:22.037Z</time></trkpt><trkpt lat="42.2370462" lon="13.8608141"><ele>709.0</ele><time>2026-05-02T09:30:24.038Z</time></trkpt><trkpt lat="42.2370016" lon="13.8606848"><ele>709.0</ele><time>2026-05-02T09:30:26.038Z</time></trkpt><trkpt lat="42.2369832" lon="13.8605629"><ele>709.0</ele><time>2026-05-02T09:30:28.037Z</time></trkpt><trkpt lat="42.2370014" lon="13.8604675"><ele>712.1666666666667</ele><time>2026-05-02T09:30:30.038Z</time></trkpt><trkpt lat="42.2370369" lon="13.8603753"><ele>715.3333333333334</ele><time>2026-05-02T09:30:32.037Z</time></trkpt><trkpt lat="42.2370569" lon="13.8602928"><ele>718.5</ele><time>2026-05-02T09:30:34.037Z</time></trkpt><trkpt lat="42.2370868" lon="13.8601929"><ele>721.6666666666666</ele><time>2026-05-02T09:30:37.037Z</time></trkpt><trkpt lat="42.2371013" lon="13.8600786"><ele>724.8333333333333</ele><time>2026-05-02T09:30:39.037Z</time></trkpt><trkpt lat="42.2371324" lon="13.8599413"><ele>728.0</ele><time>2026-05-02T09:30:41.037Z</time></trkpt><trkpt lat="42.2371525" lon="13.8597869"><ele>732.0</ele><time>2026-05-02T09:30:43.037Z</time></trkpt><trkpt lat="42.2371822" lon="13.8596305"><ele>736.0</ele><time>2026-05-02T09:30:45.038Z</time></trkpt><trkpt lat="42.2372123" lon="13.8594703"><ele>740.0</ele><time>2026-05-02T09:30:47.037Z</time></trkpt><trkpt lat="42.237226" lon="13.8593335"><ele>744.0</ele><time>2026-05-02T09:30:49.037Z</time></trkpt><trkpt lat="42.2372194" lon="13.8591749"><ele>746.0</ele><time>2026-05-02T09:30:51.037Z</time></trkpt><trkpt lat="42.2371965" lon="13.859013"><ele>748.0</ele><time>2026-05-02T09:30:53.037Z</time></trkpt><trkpt lat="42.2371893" lon="13.8589275"><ele>750.0</ele><time>2026-05-02T09:30:54.038Z</time></trkpt><trkpt lat="42.2371853" lon="13.8588322"><ele>752.0</ele><time>2026-05-02T09:30:55.037Z</time></trkpt><trkpt lat="42.2371821" lon="13.8587329"><ele>754.0</ele><time>2026-05-02T09:30:56.038Z</time></trkpt><trkpt lat="42.2371765" lon="13.8586246"><ele>756.0</ele><time>2026-05-02T09:30:57.037Z</time></trkpt><trkpt lat="42.2371759" lon="13.8585178"><ele>758.4</ele><time>2026-05-02T09:30:58.037Z</time></trkpt><trkpt lat="42.2371855" lon="13.8584074"><ele>760.8</ele><time>2026-05-02T09:30:59.037Z</time></trkpt><trkpt lat="42.2372081" lon="13.8582878"><ele>763.1999999999999</ele><time>2026-05-02T09:31:00.037Z</time></trkpt><trkpt lat="42.2372332" lon="13.8581612"><ele>765.5999999999999</ele><time>2026-05-02T09:31:01.037Z</time></trkpt><trkpt lat="42.2372603" lon="13.8580248"><ele>768.0</ele><time>2026-05-02T09:31:02.037Z</time></trkpt><trkpt lat="42.2372867" lon="13.8578874"><ele>770.4</ele><time>2026-05-02T09:31:03.037Z</time></trkpt><trkpt lat="42.2373171" lon="13.8577622"><ele>772.8</ele><time>2026-05-02T09:31:04.037Z</time></trkpt><trkpt lat="42.2373499" lon="13.8576418"><ele>775.2</ele><time>2026-05-02T09:31:05.038Z</time></trkpt><trkpt lat="42.2373924" lon="13.8575279"><ele>777.6</ele><time>2026-05-02T09:31:06.037Z</time></trkpt><trkpt lat="42.2374413" lon="13.8574087"><ele>780.0</ele><time>2026-05-02T09:31:07.038Z</time></trkpt><trkpt lat="42.2374931" lon="13.8572845"><ele>781.5</ele><time>2026-05-02T09:31:08.038Z</time></trkpt><trkpt lat="42.2375397" lon="13.8571681"><ele>783.0</ele><time>2026-05-02T09:31:09.037Z</time></trkpt><trkpt lat="42.2375838" lon="13.8570811"><ele>784.5</ele><time>2026-05-02T09:31:10.038Z</time></trkpt><trkpt lat="42.2376316" lon="13.8569908"><ele>786.0</ele><time>2026-05-02T09:31:12.037Z</time></trkpt><trkpt lat="42.2376863" lon="13.8568917"><ele>787.5</ele><time>2026-05-02T09:31:50.037Z</time></trkpt><trkpt lat="42.2377261" lon="13.856778"><ele>789.0</ele><time>2026-05-02T09:31:52.037Z</time></trkpt><trkpt lat="42.237756" lon="13.8566849"><ele>789.4000000000001</ele><time>2026-05-02T09:31:53.038Z</time></trkpt><trkpt lat="42.2377922" lon="13.8565839"><ele>789.8</ele><time>2026-05-02T09:31:54.037Z</time></trkpt><trkpt lat="42.2378288" lon="13.8564898"><ele>790.2</ele><time>2026-05-02T09:31:55.037Z</time></trkpt><trkpt lat="42.2378909" lon="13.8563759"><ele>790.5999999999999</ele><time>2026-05-02T09:32:48.967Z</time></trkpt><trkpt lat="42.2378291" lon="13.8564935"><ele>791.0</ele><time>2026-05-02T09:32:59.037Z</time></trkpt><trkpt lat="42.237786" lon="13.8566178"><ele>791.0000000000001</ele><time>2026-05-02T09:33:01.037Z</time></trkpt><trkpt lat="42.2377573" lon="13.8567016"><ele>791.0</ele><time>2026-05-02T09:33:02.037Z</time></trkpt><trkpt lat="42.2377258" lon="13.8567921"><ele>791.0</ele><time>2026-05-02T09:33:03.037Z</time></trkpt><trkpt lat="42.2376965" lon="13.8568803"><ele>791.0</ele><time>2026-05-02T09:33:04.037Z</time></trkpt><trkpt lat="42.2376484" lon="13.857006"><ele>791.0000000000001</ele><time>2026-05-02T09:33:06.037Z</time></trkpt><trkpt lat="42.2375694" lon="13.8570197"><ele>791.0</ele><time>2026-05-02T09:33:09.037Z</time></trkpt><trkpt lat="42.2375275" lon="13.8569486"><ele>791.0000000000001</ele><time>2026-05-02T09:33:11.037Z</time></trkpt><trkpt lat="42.2375014" lon="13.8567885"><ele>791.0</ele><time>2026-05-02T09:33:13.037Z</time></trkpt><trkpt lat="42.2374846" lon="13.8566922"><ele>791.0</ele><time>2026-05-02T09:33:14.038Z</time></trkpt><trkpt lat="42.2374686" lon="13.8565937"><ele>791.0</ele><time>2026-05-02T09:33:15.037Z</time></trkpt><trkpt lat="42.2374536" lon="13.8564902"><ele>791.0000000000001</ele><time>2026-05-02T09:33:16.037Z</time></trkpt><trkpt lat="42.2374367" lon="13.8563885"><ele>791.0</ele><time>2026-05-02T09:33:17.037Z</time></trkpt><trkpt lat="42.2374197" lon="13.8562922"><ele>791.0000000000001</ele><time>2026-05-02T09:33:18.037Z</time></trkpt><trkpt lat="42.2373962" lon="13.8562012"><ele>791.0</ele><time>2026-05-02T09:33:19.037Z</time></trkpt><trkpt lat="42.237366" lon="13.8560629"><ele>791.0</ele><time>2026-05-02T09:33:21.038Z</time></trkpt><trkpt lat="42.2373474" lon="13.8559788"><ele>791.0</ele><time>2026-05-02T09:33:26.037Z</time></trkpt><trkpt lat="42.2373453" lon="13.8558858"><ele>791.0000000000001</ele><time>2026-05-02T09:33:35.038Z</time></trkpt><trkpt lat="42.2373332" lon="13.8558017"><ele>791.0</ele><time>2026-05-02T09:33:36.037Z</time></trkpt><trkpt lat="42.2372906" lon="13.855658"><ele>787.1999999999999</ele><time>2026-05-02T09:33:38.037Z</time></trkpt><trkpt lat="42.2372352" lon="13.8555103"><ele>783.4</ele><time>2026-05-02T09:33:40.037Z</time></trkpt><trkpt lat="42.2371955" lon="13.8554259"><ele>779.6</ele><time>2026-05-02T09:33:41.038Z</time></trkpt><trkpt lat="42.2371487" lon="13.855331"><ele>775.8</ele><time>2026-05-02T09:33:42.037Z</time></trkpt><trkpt lat="42.2370997" lon="13.8552306"><ele>772.0</ele><time>2026-05-02T09:33:43.037Z</time></trkpt><trkpt lat="42.2370506" lon="13.8551261"><ele>773.1666666666666</ele><time>2026-05-02T09:33:44.037Z</time></trkpt><trkpt lat="42.2370052" lon="13.8550295"><ele>774.3333333333333</ele><time>2026-05-02T09:33:45.037Z</time></trkpt><trkpt lat="42.2369717" lon="13.8549402"><ele>775.5</ele><time>2026-05-02T09:33:46.038Z</time></trkpt><trkpt lat="42.2369403" lon="13.8548487"><ele>776.6666666666667</ele><time>2026-05-02T09:33:47.037Z</time></trkpt><trkpt lat="42.2369051" lon="13.8547466"><ele>777.8333333333334</ele><time>2026-05-02T09:33:48.037Z</time></trkpt><trkpt lat="42.2368704" lon="13.8546455"><ele>779.0</ele><time>2026-05-02T09:33:49.038Z</time></trkpt><trkpt lat="42.2368398" lon="13.8545436"><ele>779.0</ele><time>2026-05-02T09:33:50.037Z</time></trkpt><trkpt lat="42.2367992" lon="13.8544286"><ele>779.0</ele><time>2026-05-02T09:33:52.037Z</time></trkpt><trkpt lat="42.2367622" lon="13.8543216"><ele>779.0</ele><time>2026-05-02T09:33:58.038Z</time></trkpt><trkpt lat="42.2367337" lon="13.8542064"><ele>779.0</ele><time>2026-05-02T09:34:00.037Z</time></trkpt><trkpt lat="42.2366985" lon="13.8540548"><ele>779.0</ele><time>2026-05-02T09:34:02.037Z</time></trkpt><trkpt lat="42.2366561" lon="13.8539123"><ele>778.3333333333334</ele><time>2026-05-02T09:34:04.037Z</time></trkpt><trkpt lat="42.2366235" lon="13.8538084"><ele>777.6666666666667</ele><time>2026-05-02T09:34:06.037Z</time></trkpt><trkpt lat="42.2365961" lon="13.8537108"><ele>777.0</ele><time>2026-05-02T09:34:09.037Z</time></trkpt><trkpt lat="42.2365377" lon="13.8536336"><ele>776.3333333333333</ele><time>2026-05-02T09:34:12.037Z</time></trkpt><trkpt lat="42.2364584" lon="13.8536477"><ele>775.6666666666666</ele><time>2026-05-02T09:34:14.037Z</time></trkpt><trkpt lat="42.2363654" lon="13.8537044"><ele>775.0</ele><time>2026-05-02T09:34:16.038Z</time></trkpt><trkpt lat="42.2362706" lon="13.8537926"><ele>774.9999999999999</ele><time>2026-05-02T09:34:18.037Z</time></trkpt><trkpt lat="42.2361756" lon="13.8538816"><ele>775.0</ele><time>2026-05-02T09:34:20.038Z</time></trkpt><trkpt lat="42.2360981" lon="13.853943"><ele>775.0</ele><time>2026-05-02T09:34:23.037Z</time></trkpt><trkpt lat="42.2360408" lon="13.8540032"><ele>775.0</ele><time>2026-05-02T09:34:25.037Z</time></trkpt><trkpt lat="42.235994" lon="13.8540605"><ele>774.9999999999999</ele><time>2026-05-02T09:34:27.038Z</time></trkpt><trkpt lat="42.235926" lon="13.8541044"><ele>775.0</ele><time>2026-05-02T09:34:29.037Z</time></trkpt><trkpt lat="42.2358299" lon="13.8541406"><ele>775.0</ele><time>2026-05-02T09:34:31.037Z</time></trkpt><trkpt lat="42.2357267" lon="13.8541934"><ele>775.0</ele><time>2026-05-02T09:34:33.037Z</time></trkpt><trkpt lat="42.2356298" lon="13.8542765"><ele>775.0</ele><time>2026-05-02T09:34:35.038Z</time></trkpt><trkpt lat="42.2355793" lon="13.8543305"><ele>775.0</ele><time>2026-05-02T09:34:36.037Z</time></trkpt><trkpt lat="42.2355185" lon="13.854395"><ele>775.0</ele><time>2026-05-02T09:34:38.038Z</time></trkpt><trkpt lat="42.2354454" lon="13.8544533"><ele>771.6666666666666</ele><time>2026-05-02T09:34:41.037Z</time></trkpt><trkpt lat="42.2353545" lon="13.8545045"><ele>768.3333333333333</ele><time>2026-05-02T09:34:43.037Z</time></trkpt><trkpt lat="42.235273" lon="13.8545654"><ele>765.0</ele><time>2026-05-02T09:34:45.037Z</time></trkpt><trkpt lat="42.2352181" lon="13.8546092"><ele>761.6666666666666</ele><time>2026-05-02T09:34:47.037Z</time></trkpt><trkpt lat="42.2351341" lon="13.8546525"><ele>758.3333333333333</ele><time>2026-05-02T09:34:50.037Z</time></trkpt><trkpt lat="42.2350725" lon="13.8546765"><ele>755.0</ele><time>2026-05-02T09:34:52.038Z</time></trkpt><trkpt lat="42.2350064" lon="13.8546999"><ele>755.0</ele><time>2026-05-02T09:34:54.037Z</time></trkpt><trkpt lat="42.2349335" lon="13.8547436"><ele>755.0</ele><time>2026-05-02T09:34:56.037Z</time></trkpt><trkpt lat="42.234855" lon="13.8547669"><ele>755.0</ele><time>2026-05-02T09:34:58.038Z</time></trkpt><trkpt lat="42.2347922" lon="13.8548156"><ele>755.0</ele><time>2026-05-02T09:35:00.037Z</time></trkpt><trkpt lat="42.2347258" lon="13.8549455"><ele>755.0</ele><time>2026-05-02T09:35:22.038Z</time></trkpt><trkpt lat="42.2346318" lon="13.8549975"><ele>754.1666666666666</ele><time>2026-05-02T09:35:24.038Z</time></trkpt><trkpt lat="42.2345509" lon="13.8550471"><ele>753.3333333333333</ele><time>2026-05-02T09:35:26.037Z</time></trkpt><trkpt lat="42.2344907" lon="13.8550797"><ele>752.5</ele><time>2026-05-02T09:35:29.037Z</time></trkpt><trkpt lat="42.2344125" lon="13.8551257"><ele>751.6666666666666</ele><time>2026-05-02T09:35:32.037Z</time></trkpt><trkpt lat="42.2343269" lon="13.8551906"><ele>750.8333333333334</ele><time>2026-05-02T09:35:35.037Z</time></trkpt><trkpt lat="42.2342591" lon="13.8552443"><ele>750.0</ele><time>2026-05-02T09:35:38.038Z</time></trkpt><trkpt lat="42.2341953" lon="13.8552974"><ele>749.2</ele><time>2026-05-02T09:35:41.037Z</time></trkpt><trkpt lat="42.234117" lon="13.8553561"><ele>748.4</ele><time>2026-05-02T09:35:44.037Z</time></trkpt><trkpt lat="42.2340453" lon="13.8553812"><ele>747.5999999999999</ele><time>2026-05-02T09:35:46.038Z</time></trkpt><trkpt lat="42.2339611" lon="13.8552975"><ele>746.8</ele><time>2026-05-02T09:35:49.037Z</time></trkpt><trkpt lat="42.2339373" lon="13.8551776"><ele>746.0</ele><time>2026-05-02T09:35:51.038Z</time></trkpt><trkpt lat="42.2339002" lon="13.8550597"><ele>746.0</ele><time>2026-05-02T09:35:53.037Z</time></trkpt><trkpt lat="42.2338087" lon="13.8550165"><ele>746.0</ele><time>2026-05-02T09:35:55.037Z</time></trkpt><trkpt lat="42.2337024" lon="13.8550144"><ele>746.0</ele><time>2026-05-02T09:35:57.037Z</time></trkpt><trkpt lat="42.2336344" lon="13.8549445"><ele>746.0</ele><time>2026-05-02T09:35:59.037Z</time></trkpt><trkpt lat="42.2335716" lon="13.8548818"><ele>746.0</ele><time>2026-05-02T09:36:01.037Z</time></trkpt><trkpt lat="42.2334847" lon="13.8549283"><ele>746.0</ele><time>2026-05-02T09:36:03.038Z</time></trkpt><trkpt lat="42.2334244" lon="13.8549835"><ele>746.0</ele><time>2026-05-02T09:36:04.037Z</time></trkpt><trkpt lat="42.2333625" lon="13.8550355"><ele>746.0</ele><time>2026-05-02T09:36:05.037Z</time></trkpt><trkpt lat="42.2332999" lon="13.8550815"><ele>746.0</ele><time>2026-05-02T09:36:06.037Z</time></trkpt><trkpt lat="42.233213" lon="13.8551212"><ele>746.0</ele><time>2026-05-02T09:36:08.037Z</time></trkpt><trkpt lat="42.2331307" lon="13.8551258"><ele>746.0</ele><time>2026-05-02T09:36:11.037Z</time></trkpt><trkpt lat="42.2330546" lon="13.8550927"><ele>746.3333333333333</ele><time>2026-05-02T09:36:15.037Z</time></trkpt><trkpt lat="42.2329989" lon="13.8550334"><ele>746.6666666666666</ele><time>2026-05-02T09:36:17.037Z</time></trkpt><trkpt lat="42.2329349" lon="13.8549577"><ele>747.0</ele><time>2026-05-02T09:36:20.037Z</time></trkpt><trkpt lat="42.2328818" lon="13.8549098"><ele>747.3333333333334</ele><time>2026-05-02T09:36:22.037Z</time></trkpt><trkpt lat="42.2328204" lon="13.8548716"><ele>747.6666666666667</ele><time>2026-05-02T09:36:24.037Z</time></trkpt><trkpt lat="42.2327269" lon="13.8548082"><ele>748.0</ele><time>2026-05-02T09:36:26.037Z</time></trkpt><trkpt lat="42.2326384" lon="13.8547661"><ele>748.0</ele><time>2026-05-02T09:36:28.037Z</time></trkpt><trkpt lat="42.2325376" lon="13.854817"><ele>748.0</ele><time>2026-05-02T09:36:30.038Z</time></trkpt><trkpt lat="42.2324718" lon="13.8548638"><ele>748.0</ele><time>2026-05-02T09:36:31.037Z</time></trkpt><trkpt lat="42.232399" lon="13.8549098"><ele>748.0</ele><time>2026-05-02T09:36:32.037Z</time></trkpt><trkpt lat="42.232334" lon="13.8549503"><ele>748.0</ele><time>2026-05-02T09:36:33.037Z</time></trkpt><trkpt lat="42.2322443" lon="13.8550608"><ele>745.0</ele><time>2026-05-02T09:36:35.037Z</time></trkpt><trkpt lat="42.2321561" lon="13.855153"><ele>742.0</ele><time>2026-05-02T09:36:37.037Z</time></trkpt><trkpt lat="42.2320544" lon="13.8552484"><ele>739.0</ele><time>2026-05-02T09:36:39.037Z</time></trkpt><trkpt lat="42.2320026" lon="13.8553174"><ele>736.0</ele><time>2026-05-02T09:36:40.037Z</time></trkpt><trkpt lat="42.2319525" lon="13.8553869"><ele>733.0</ele><time>2026-05-02T09:36:41.037Z</time></trkpt><trkpt lat="42.2319005" lon="13.8554481"><ele>730.0</ele><time>2026-05-02T09:36:42.037Z</time></trkpt><trkpt lat="42.2318512" lon="13.8555039"><ele>730.0</ele><time>2026-05-02T09:36:43.037Z</time></trkpt><trkpt lat="42.2317714" lon="13.8555879"><ele>730.0</ele><time>2026-05-02T09:36:45.037Z</time></trkpt><trkpt lat="42.231703" lon="13.8556463"><ele>730.0</ele><time>2026-05-02T09:36:47.037Z</time></trkpt><trkpt lat="42.231614" lon="13.8557172"><ele>730.0</ele><time>2026-05-02T09:36:49.037Z</time></trkpt><trkpt lat="42.2315379" lon="13.8558309"><ele>730.0</ele><time>2026-05-02T09:36:51.037Z</time></trkpt><trkpt lat="42.2314961" lon="13.8559007"><ele>728.0000000000001</ele><time>2026-05-02T09:36:52.037Z</time></trkpt><trkpt lat="42.2314474" lon="13.8559666"><ele>726.0</ele><time>2026-05-02T09:36:53.037Z</time></trkpt><trkpt lat="42.2313957" lon="13.8560311"><ele>724.0</ele><time>2026-05-02T09:36:54.037Z</time></trkpt><trkpt lat="42.2313482" lon="13.8560984"><ele>722.0</ele><time>2026-05-02T09:36:55.038Z</time></trkpt><trkpt lat="42.2313097" lon="13.8561691"><ele>720.0</ele><time>2026-05-02T09:36:56.037Z</time></trkpt><trkpt lat="42.2312706" lon="13.8562449"><ele>718.0000000000001</ele><time>2026-05-02T09:36:57.037Z</time></trkpt><trkpt lat="42.2312415" lon="13.8563245"><ele>716.0</ele><time>2026-05-02T09:36:58.038Z</time></trkpt><trkpt lat="42.2312105" lon="13.8563985"><ele>716.0</ele><time>2026-05-02T09:36:59.037Z</time></trkpt><trkpt lat="42.2311349" lon="13.8565036"><ele>716.0</ele><time>2026-05-02T09:37:01.037Z</time></trkpt><trkpt lat="42.2310453" lon="13.8565959"><ele>716.0</ele><time>2026-05-02T09:37:03.037Z</time></trkpt><trkpt lat="42.2309843" lon="13.8566467"><ele>716.0</ele><time>2026-05-02T09:37:04.037Z</time></trkpt><trkpt lat="42.230915" lon="13.8566968"><ele>716.0</ele><time>2026-05-02T09:37:05.037Z</time></trkpt><trkpt lat="42.230849" lon="13.856741"><ele>716.0</ele><time>2026-05-02T09:37:06.037Z</time></trkpt><trkpt lat="42.230785" lon="13.8567793"><ele>713.5</ele><time>2026-05-02T09:37:07.037Z</time></trkpt><trkpt lat="42.2307215" lon="13.8568116"><ele>711.0</ele><time>2026-05-02T09:37:08.037Z</time></trkpt><trkpt lat="42.2306627" lon="13.8568489"><ele>708.5</ele><time>2026-05-02T09:37:09.038Z</time></trkpt><trkpt lat="42.2306052" lon="13.8569445"><ele>706.0</ele><time>2026-05-02T09:37:11.038Z</time></trkpt><trkpt lat="42.2305985" lon="13.8570911"><ele>703.5</ele><time>2026-05-02T09:37:13.037Z</time></trkpt><trkpt lat="42.2306031" lon="13.857235"><ele>701.0</ele><time>2026-05-02T09:37:15.037Z</time></trkpt><trkpt lat="42.2306153" lon="13.8573748"><ele>699.8</ele><time>2026-05-02T09:37:17.037Z</time></trkpt><trkpt lat="42.2306264" lon="13.8575151"><ele>698.5999999999999</ele><time>2026-05-02T09:37:19.037Z</time></trkpt><trkpt lat="42.2306398" lon="13.8576619"><ele>697.4</ele><time>2026-05-02T09:37:21.037Z</time></trkpt><trkpt lat="42.2306626" lon="13.8577995"><ele>696.2</ele><time>2026-05-02T09:37:23.038Z</time></trkpt><trkpt lat="42.2306597" lon="13.8579115"><ele>695.0</ele><time>2026-05-02T09:37:25.037Z</time></trkpt><trkpt lat="42.230671" lon="13.8580531"><ele>693.1666666666666</ele><time>2026-05-02T09:37:27.037Z</time></trkpt><trkpt lat="42.2306707" lon="13.8581626"><ele>691.3333333333333</ele><time>2026-05-02T09:37:29.038Z</time></trkpt><trkpt lat="42.2306742" lon="13.8582804"><ele>689.5</ele><time>2026-05-02T09:37:31.037Z</time></trkpt><trkpt lat="42.230687" lon="13.8583909"><ele>687.6666666666666</ele><time>2026-05-02T09:37:33.037Z</time></trkpt><trkpt lat="42.2306844" lon="13.8584975"><ele>685.8333333333334</ele><time>2026-05-02T09:37:35.037Z</time></trkpt><trkpt lat="42.2306917" lon="13.858611"><ele>684.0</ele><time>2026-05-02T09:37:37.037Z</time></trkpt><trkpt lat="42.2307036" lon="13.8587336"><ele>680.6666666666666</ele><time>2026-05-02T09:37:40.037Z</time></trkpt><trkpt lat="42.2307106" lon="13.8588183"><ele>677.3333333333334</ele><time>2026-05-02T09:37:42.037Z</time></trkpt><trkpt lat="42.2307251" lon="13.8589305"><ele>674.0</ele><time>2026-05-02T09:37:45.037Z</time></trkpt><trkpt lat="42.2307276" lon="13.8590382"><ele>670.6666666666667</ele><time>2026-05-02T09:37:48.038Z</time></trkpt><trkpt lat="42.2307212" lon="13.8591679"><ele>667.3333333333334</ele><time>2026-05-02T09:37:51.038Z</time></trkpt><trkpt lat="42.2307255" lon="13.8593015"><ele>664.0</ele><time>2026-05-02T09:37:54.038Z</time></trkpt><trkpt lat="42.2307307" lon="13.8594108"><ele>660.6</ele><time>2026-05-02T09:37:56.037Z</time></trkpt><trkpt lat="42.2307311" lon="13.859509"><ele>657.2</ele><time>2026-05-02T09:37:58.037Z</time></trkpt><trkpt lat="42.2306583" lon="13.859531"><ele>653.8000000000001</ele><time>2026-05-02T09:38:02.037Z</time></trkpt><trkpt lat="42.2305539" lon="13.8594637"><ele>650.4000000000001</ele><time>2026-05-02T09:38:04.037Z</time></trkpt><trkpt lat="42.2304941" lon="13.8594358"><ele>647.0</ele><time>2026-05-02T09:38:05.037Z</time></trkpt><trkpt lat="42.23039" lon="13.859343"><ele>649.5</ele><time>2026-05-02T09:38:07.037Z</time></trkpt><trkpt lat="42.230325" lon="13.859276"><ele>652.0</ele><time>2026-05-02T09:38:08.037Z</time></trkpt><trkpt lat="42.2302503" lon="13.8592155"><ele>654.5</ele><time>2026-05-02T09:38:09.037Z</time></trkpt><trkpt lat="42.230177" lon="13.85916"><ele>657.0</ele><time>2026-05-02T09:38:10.037Z</time></trkpt><trkpt lat="42.2301185" lon="13.8591088"><ele>659.5</ele><time>2026-05-02T09:38:11.037Z</time></trkpt><trkpt lat="42.2300521" lon="13.8590552"><ele>662.0</ele><time>2026-05-02T09:38:26.037Z</time></trkpt><trkpt lat="42.229981" lon="13.8590314"><ele>662.0</ele><time>2026-05-02T09:38:28.037Z</time></trkpt><trkpt lat="42.2298957" lon="13.8589579"><ele>662.0</ele><time>2026-05-02T09:38:30.037Z</time></trkpt><trkpt lat="42.229808" lon="13.8589301"><ele>662.0</ele><time>2026-05-02T09:38:32.037Z</time></trkpt><trkpt lat="42.2296983" lon="13.8589338"><ele>662.0</ele><time>2026-05-02T09:38:34.037Z</time></trkpt><trkpt lat="42.2295813" lon="13.8588845"><ele>662.0</ele><time>2026-05-02T09:38:36.037Z</time></trkpt><trkpt lat="42.2295132" lon="13.8588547"><ele>663.8333333333333</ele><time>2026-05-02T09:38:37.037Z</time></trkpt><trkpt lat="42.229443" lon="13.8588229"><ele>665.6666666666666</ele><time>2026-05-02T09:38:38.038Z</time></trkpt><trkpt lat="42.2293816" lon="13.8587942"><ele>667.5</ele><time>2026-05-02T09:38:39.037Z</time></trkpt><trkpt lat="42.2293047" lon="13.8587159"><ele>669.3333333333334</ele><time>2026-05-02T09:38:41.037Z</time></trkpt><trkpt lat="42.2292387" lon="13.8586192"><ele>671.1666666666667</ele><time>2026-05-02T09:38:43.037Z</time></trkpt><trkpt lat="42.2291909" lon="13.8585148"><ele>673.0</ele><time>2026-05-02T09:38:45.037Z</time></trkpt><trkpt lat="42.2291317" lon="13.8583734"><ele>676.0</ele><time>2026-05-02T09:38:47.037Z</time></trkpt><trkpt lat="42.2290556" lon="13.8582323"><ele>679.0</ele><time>2026-05-02T09:38:49.037Z</time></trkpt><trkpt lat="42.2290032" lon="13.8581441"><ele>682.0</ele><time>2026-05-02T09:38:50.037Z</time></trkpt><trkpt lat="42.2289481" lon="13.8580541"><ele>685.0</ele><time>2026-05-02T09:38:51.037Z</time></trkpt><trkpt lat="42.2288819" lon="13.8579579"><ele>688.0</ele><time>2026-05-02T09:38:52.038Z</time></trkpt><trkpt lat="42.2288157" lon="13.8578824"><ele>689.0</ele><time>2026-05-02T09:38:53.037Z</time></trkpt><trkpt lat="42.2287337" lon="13.8578161"><ele>690.0</ele><time>2026-05-02T09:38:54.037Z</time></trkpt><trkpt lat="42.2286366" lon="13.8577535"><ele>691.0</ele><time>2026-05-02T09:38:55.037Z</time></trkpt><trkpt lat="42.2285525" lon="13.8576933"><ele>692.0</ele><time>2026-05-02T09:38:56.038Z</time></trkpt><trkpt lat="42.2284878" lon="13.8576561"><ele>693.0</ele><time>2026-05-02T09:38:57.038Z</time></trkpt><trkpt lat="42.2284184" lon="13.8576621"><ele>694.0</ele><time>2026-05-02T09:38:58.037Z</time></trkpt><trkpt lat="42.2283437" lon="13.8576972"><ele>694.0</ele><time>2026-05-02T09:38:59.037Z</time></trkpt><trkpt lat="42.2282789" lon="13.8577258"><ele>694.0</ele><time>2026-05-02T09:39:00.037Z</time></trkpt><trkpt lat="42.2281801" lon="13.8577117"><ele>694.0</ele><time>2026-05-02T09:39:02.037Z</time></trkpt><trkpt lat="42.2281199" lon="13.8576672"><ele>694.0</ele><time>2026-05-02T09:39:03.037Z</time></trkpt><trkpt lat="42.2280477" lon="13.8576118"><ele>694.0</ele><time>2026-05-02T09:39:04.037Z</time></trkpt><trkpt lat="42.2279781" lon="13.8575611"><ele>694.0</ele><time>2026-05-02T09:39:05.037Z</time></trkpt><trkpt lat="42.2279102" lon="13.8575075"><ele>700.6</ele><time>2026-05-02T09:39:06.037Z</time></trkpt><trkpt lat="42.2278374" lon="13.8574192"><ele>707.2</ele><time>2026-05-02T09:39:08.038Z</time></trkpt><trkpt lat="42.2277626" lon="13.8573257"><ele>713.8000000000001</ele><time>2026-05-02T09:39:10.037Z</time></trkpt><trkpt lat="42.2276844" lon="13.8571916"><ele>720.4000000000001</ele><time>2026-05-02T09:39:12.037Z</time></trkpt><trkpt lat="42.2276387" lon="13.857103"><ele>727.0</ele><time>2026-05-02T09:39:13.037Z</time></trkpt><trkpt lat="42.227602" lon="13.8570083"><ele>727.0</ele><time>2026-05-02T09:39:14.038Z</time></trkpt><trkpt lat="42.2275771" lon="13.856912"><ele>727.0</ele><time>2026-05-02T09:39:15.037Z</time></trkpt><trkpt lat="42.2275482" lon="13.8568288"><ele>727.0</ele><time>2026-05-02T09:39:16.037Z</time></trkpt><trkpt lat="42.2274508" lon="13.8567345"><ele>727.0</ele><time>2026-05-02T09:39:18.037Z</time></trkpt><trkpt lat="42.2273792" lon="13.8567208"><ele>727.0</ele><time>2026-05-02T09:39:19.037Z</time></trkpt><trkpt lat="42.2272976" lon="13.8567159"><ele>727.0</ele><time>2026-05-02T09:39:20.037Z</time></trkpt><trkpt lat="42.2272099" lon="13.8567174"><ele>731.3333333333334</ele><time>2026-05-02T09:39:21.037Z</time></trkpt><trkpt lat="42.2271252" lon="13.8567246"><ele>735.6666666666667</ele><time>2026-05-02T09:39:22.037Z</time></trkpt><trkpt lat="42.2270593" lon="13.8567146"><ele>740.0</ele><time>2026-05-02T09:39:23.037Z</time></trkpt><trkpt lat="42.2269453" lon="13.8566513"><ele>744.3333333333334</ele><time>2026-05-02T09:39:25.038Z</time></trkpt><trkpt lat="42.2268874" lon="13.856609"><ele>748.6666666666666</ele><time>2026-05-02T09:39:26.037Z</time></trkpt><trkpt lat="42.2268275" lon="13.8565583"><ele>753.0</ele><time>2026-05-02T09:39:27.037Z</time></trkpt><trkpt lat="42.2267643" lon="13.8565002"><ele>753.0</ele><time>2026-05-02T09:39:28.037Z</time></trkpt><trkpt lat="42.2267013" lon="13.8564396"><ele>753.0</ele><time>2026-05-02T09:39:29.037Z</time></trkpt><trkpt lat="42.2266474" lon="13.8563736"><ele>753.0</ele><time>2026-05-02T09:39:30.037Z</time></trkpt><trkpt lat="42.2266003" lon="13.856292"><ele>753.0</ele><time>2026-05-02T09:39:31.037Z</time></trkpt><trkpt lat="42.2265569" lon="13.8562047"><ele>753.0</ele><time>2026-05-02T09:39:32.037Z</time></trkpt><trkpt lat="42.2265132" lon="13.8560976"><ele>753.0</ele><time>2026-05-02T09:39:33.037Z</time></trkpt><trkpt lat="42.2264564" lon="13.8559873"><ele>757.0</ele><time>2026-05-02T09:39:34.038Z</time></trkpt><trkpt lat="42.2263841" lon="13.8558758"><ele>761.0</ele><time>2026-05-02T09:39:35.038Z</time></trkpt><trkpt lat="42.2263071" lon="13.8557617"><ele>765.0</ele><time>2026-05-02T09:39:36.037Z</time></trkpt><trkpt lat="42.2262264" lon="13.8556452"><ele>769.0</ele><time>2026-05-02T09:39:37.037Z</time></trkpt><trkpt lat="42.22615" lon="13.8555402"><ele>769.0</ele><time>2026-05-02T09:39:38.037Z</time></trkpt><trkpt lat="42.2260688" lon="13.8554545"><ele>769.0</ele><time>2026-05-02T09:39:39.038Z</time></trkpt><trkpt lat="42.2259791" lon="13.8553808"><ele>769.0</ele><time>2026-05-02T09:39:40.037Z</time></trkpt><trkpt lat="42.2258891" lon="13.8553235"><ele>769.0</ele><time>2026-05-02T09:39:41.037Z</time></trkpt><trkpt lat="42.2257887" lon="13.855289"><ele>769.0</ele><time>2026-05-02T09:39:42.038Z</time></trkpt><trkpt lat="42.2256817" lon="13.8552604"><ele>771.8000000000001</ele><time>2026-05-02T09:39:43.037Z</time></trkpt><trkpt lat="42.2255909" lon="13.855239"><ele>774.6</ele><time>2026-05-02T09:39:44.038Z</time></trkpt><trkpt lat="42.2255229" lon="13.8552284"><ele>777.4</ele><time>2026-05-02T09:39:45.037Z</time></trkpt><trkpt lat="42.2254422" lon="13.8551748"><ele>780.2</ele><time>2026-05-02T09:39:47.038Z</time></trkpt><trkpt lat="42.2253956" lon="13.8550741"><ele>783.0</ele><time>2026-05-02T09:39:49.038Z</time></trkpt><trkpt lat="42.225345" lon="13.8549406"><ele>783.0</ele><time>2026-05-02T09:39:51.037Z</time></trkpt><trkpt lat="42.2252936" lon="13.8548032"><ele>783.0</ele><time>2026-05-02T09:39:53.037Z</time></trkpt><trkpt lat="42.2252493" lon="13.854656"><ele>783.0</ele><time>2026-05-02T09:39:55.037Z</time></trkpt><trkpt lat="42.2252099" lon="13.8545317"><ele>783.0</ele><time>2026-05-02T09:39:57.038Z</time></trkpt><trkpt lat="42.2251762" lon="13.8544543"><ele>783.0</ele><time>2026-05-02T09:39:59.038Z</time></trkpt><trkpt lat="42.2251227" lon="13.8543048"><ele>784.0</ele><time>2026-05-02T09:40:11.038Z</time></trkpt><trkpt lat="42.2250819" lon="13.8541647"><ele>785.0</ele><time>2026-05-02T09:40:13.038Z</time></trkpt><trkpt lat="42.2250554" lon="13.8540791"><ele>786.0</ele><time>2026-05-02T09:40:14.037Z</time></trkpt><trkpt lat="42.2250312" lon="13.8539872"><ele>787.0</ele><time>2026-05-02T09:40:15.037Z</time></trkpt><trkpt lat="42.2250143" lon="13.8539026"><ele>788.0</ele><time>2026-05-02T09:40:16.037Z</time></trkpt><trkpt lat="42.2250044" lon="13.8538052"><ele>789.0</ele><time>2026-05-02T09:40:17.038Z</time></trkpt><trkpt lat="42.2249956" lon="13.8536893"><ele>789.0</ele><time>2026-05-02T09:40:18.037Z</time></trkpt><trkpt lat="42.2249863" lon="13.8535727"><ele>789.0</ele><time>2026-05-02T09:40:19.037Z</time></trkpt><trkpt lat="42.2249894" lon="13.8534639"><ele>789.0</ele><time>2026-05-02T09:40:20.037Z</time></trkpt><trkpt lat="42.225005" lon="13.8533599"><ele>789.0</ele><time>2026-05-02T09:40:21.037Z</time></trkpt><trkpt lat="42.2250303" lon="13.8532528"><ele>789.0</ele><time>2026-05-02T09:40:22.037Z</time></trkpt><trkpt lat="42.2250645" lon="13.8531435"><ele>789.0</ele><time>2026-05-02T09:40:23.037Z</time></trkpt><trkpt lat="42.2251066" lon="13.8530398"><ele>789.1666666666666</ele><time>2026-05-02T09:40:24.037Z</time></trkpt><trkpt lat="42.22515" lon="13.8529336"><ele>789.3333333333333</ele><time>2026-05-02T09:40:25.037Z</time></trkpt><trkpt lat="42.2252008" lon="13.8528283"><ele>789.5</ele><time>2026-05-02T09:40:26.037Z</time></trkpt><trkpt lat="42.225255" lon="13.852733"><ele>789.6666666666666</ele><time>2026-05-02T09:40:27.038Z</time></trkpt><trkpt lat="42.2253122" lon="13.852651"><ele>789.8333333333333</ele><time>2026-05-02T09:40:28.038Z</time></trkpt><trkpt lat="42.2253704" lon="13.8525778"><ele>790.0</ele><time>2026-05-02T09:40:29.037Z</time></trkpt><trkpt lat="42.2254284" lon="13.8524963"><ele>790.3333333333333</ele><time>2026-05-02T09:40:30.037Z</time></trkpt><trkpt lat="42.2254782" lon="13.8524095"><ele>790.6666666666666</ele><time>2026-05-02T09:40:31.037Z</time></trkpt><trkpt lat="42.2255085" lon="13.8523308"><ele>791.0</ele><time>2026-05-02T09:40:32.038Z</time></trkpt><trkpt lat="42.2255317" lon="13.8522442"><ele>791.3333333333333</ele><time>2026-05-02T09:40:33.038Z</time></trkpt><trkpt lat="42.2255651" lon="13.8520771"><ele>791.6666666666666</ele><time>2026-05-02T09:40:35.037Z</time></trkpt><trkpt lat="42.2255766" lon="13.8519907"><ele>792.0</ele><time>2026-05-02T09:40:36.037Z</time></trkpt><trkpt lat="42.2255896" lon="13.8518992"><ele>792.0</ele><time>2026-05-02T09:40:37.037Z</time></trkpt><trkpt lat="42.2255977" lon="13.8518054"><ele>792.0</ele><time>2026-05-02T09:40:38.037Z</time></trkpt><trkpt lat="42.2256056" lon="13.8517013"><ele>792.0</ele><time>2026-05-02T09:40:39.038Z</time></trkpt><trkpt lat="42.2256188" lon="13.8515974"><ele>792.0</ele><time>2026-05-02T09:40:40.037Z</time></trkpt><trkpt lat="42.2256292" lon="13.851498"><ele>792.0</ele><time>2026-05-02T09:40:41.037Z</time></trkpt><trkpt lat="42.2256374" lon="13.8513977"><ele>792.0</ele><time>2026-05-02T09:40:42.037Z</time></trkpt><trkpt lat="42.225645" lon="13.8512957"><ele>795.6666666666666</ele><time>2026-05-02T09:40:43.037Z</time></trkpt><trkpt lat="42.2256487" lon="13.8511973"><ele>799.3333333333333</ele><time>2026-05-02T09:40:44.037Z</time></trkpt><trkpt lat="42.2256494" lon="13.8510982"><ele>803.0</ele><time>2026-05-02T09:40:45.037Z</time></trkpt><trkpt lat="42.2256468" lon="13.8509917"><ele>806.6666666666666</ele><time>2026-05-02T09:40:46.038Z</time></trkpt><trkpt lat="42.2256378" lon="13.8508802"><ele>810.3333333333333</ele><time>2026-05-02T09:40:47.037Z</time></trkpt><trkpt lat="42.2256233" lon="13.850768"><ele>814.0</ele><time>2026-05-02T09:40:48.037Z</time></trkpt><trkpt lat="42.2256119" lon="13.8506559"><ele>815.4000000000001</ele><time>2026-05-02T09:40:49.037Z</time></trkpt><trkpt lat="42.2255972" lon="13.8505373"><ele>816.8</ele><time>2026-05-02T09:40:50.037Z</time></trkpt><trkpt lat="42.225586" lon="13.8504171"><ele>818.2</ele><time>2026-05-02T09:40:51.037Z</time></trkpt><trkpt lat="42.2255744" lon="13.8502902"><ele>819.5999999999999</ele><time>2026-05-02T09:40:52.037Z</time></trkpt><trkpt lat="42.2255666" lon="13.8501608"><ele>821.0</ele><time>2026-05-02T09:40:53.038Z</time></trkpt><trkpt lat="42.2255586" lon="13.8500414"><ele>823.8333333333334</ele><time>2026-05-02T09:40:54.037Z</time></trkpt><trkpt lat="42.2255441" lon="13.8499301"><ele>826.6666666666667</ele><time>2026-05-02T09:40:55.037Z</time></trkpt><trkpt lat="42.2255214" lon="13.849824"><ele>829.5</ele><time>2026-05-02T09:40:56.037Z</time></trkpt><trkpt lat="42.2254943" lon="13.8497132"><ele>832.3333333333333</ele><time>2026-05-02T09:40:57.037Z</time></trkpt><trkpt lat="42.2254747" lon="13.8496085"><ele>835.1666666666666</ele><time>2026-05-02T09:40:58.037Z</time></trkpt><trkpt lat="42.2254775" lon="13.8495209"><ele>838.0</ele><time>2026-05-02T09:40:59.037Z</time></trkpt><trkpt lat="42.2255224" lon="13.849395"><ele>838.0</ele><time>2026-05-02T09:41:01.037Z</time></trkpt><trkpt lat="42.2256357" lon="13.8493332"><ele>838.0</ele><time>2026-05-02T09:41:03.037Z</time></trkpt><trkpt lat="42.2257146" lon="13.8493163"><ele>838.0</ele><time>2026-05-02T09:41:04.037Z</time></trkpt><trkpt lat="42.2258044" lon="13.8492837"><ele>838.0</ele><time>2026-05-02T09:41:05.037Z</time></trkpt><trkpt lat="42.225897" lon="13.8492402"><ele>838.0</ele><time>2026-05-02T09:41:06.038Z</time></trkpt><trkpt lat="42.2259946" lon="13.8491861"><ele>844.4</ele><time>2026-05-02T09:41:07.037Z</time></trkpt><trkpt lat="42.2260971" lon="13.849143"><ele>850.8</ele><time>2026-05-02T09:41:08.037Z</time></trkpt><trkpt lat="42.2262013" lon="13.8491145"><ele>857.2</ele><time>2026-05-02T09:41:09.037Z</time></trkpt><trkpt lat="42.2263158" lon="13.8490933"><ele>863.6</ele><time>2026-05-02T09:41:10.037Z</time></trkpt><trkpt lat="42.2264324" lon="13.8490726"><ele>870.0</ele><time>2026-05-02T09:41:11.038Z</time></trkpt><trkpt lat="42.226546" lon="13.8490424"><ele>870.0</ele><time>2026-05-02T09:41:12.037Z</time></trkpt><trkpt lat="42.226666" lon="13.8490166"><ele>870.0</ele><time>2026-05-02T09:41:13.038Z</time></trkpt><trkpt lat="42.2267769" lon="13.8490014"><ele>870.0</ele><time>2026-05-02T09:41:14.037Z</time></trkpt><trkpt lat="42.2268742" lon="13.848983"><ele>870.0</ele><time>2026-05-02T09:41:15.037Z</time></trkpt><trkpt lat="42.2269674" lon="13.848961"><ele>870.0</ele><time>2026-05-02T09:41:16.038Z</time></trkpt><trkpt lat="42.2270716" lon="13.8489397"><ele>870.0</ele><time>2026-05-02T09:41:17.037Z</time></trkpt><trkpt lat="42.2271757" lon="13.8489118"><ele>870.0</ele><time>2026-05-02T09:41:18.037Z</time></trkpt><trkpt lat="42.2272683" lon="13.8488802"><ele>870.0</ele><time>2026-05-02T09:41:19.037Z</time></trkpt><trkpt lat="42.2273513" lon="13.848855"><ele>870.0</ele><time>2026-05-02T09:41:20.037Z</time></trkpt><trkpt lat="42.2274324" lon="13.8488306"><ele>870.0</ele><time>2026-05-02T09:41:21.037Z</time></trkpt><trkpt lat="42.2275097" lon="13.8488126"><ele>870.0</ele><time>2026-05-02T09:41:22.037Z</time></trkpt><trkpt lat="42.2275804" lon="13.848819"><ele>868.2</ele><time>2026-05-02T09:41:23.037Z</time></trkpt><trkpt lat="42.2276761" lon="13.8488331"><ele>866.4</ele><time>2026-05-02T09:41:24.037Z</time></trkpt><trkpt lat="42.2277737" lon="13.848863"><ele>864.5999999999999</ele><time>2026-05-02T09:41:25.037Z</time></trkpt><trkpt lat="42.2278715" lon="13.8488967"><ele>862.8</ele><time>2026-05-02T09:41:26.037Z</time></trkpt><trkpt lat="42.227972" lon="13.8489241"><ele>861.0</ele><time>2026-05-02T09:41:27.038Z</time></trkpt><trkpt lat="42.228076" lon="13.8489395"><ele>862.6666666666666</ele><time>2026-05-02T09:41:28.037Z</time></trkpt><trkpt lat="42.2281778" lon="13.8489523"><ele>864.3333333333333</ele><time>2026-05-02T09:41:29.037Z</time></trkpt><trkpt lat="42.2282761" lon="13.8489651"><ele>866.0</ele><time>2026-05-02T09:41:30.037Z</time></trkpt><trkpt lat="42.2283659" lon="13.8489806"><ele>867.6666666666666</ele><time>2026-05-02T09:41:31.038Z</time></trkpt><trkpt lat="42.2284449" lon="13.848982"><ele>869.3333333333333</ele><time>2026-05-02T09:41:32.037Z</time></trkpt><trkpt lat="42.2285162" lon="13.8489589"><ele>871.0</ele><time>2026-05-02T09:41:33.038Z</time></trkpt><trkpt lat="42.2285931" lon="13.848919"><ele>870.9999999999999</ele><time>2026-05-02T09:41:34.038Z</time></trkpt><trkpt lat="42.2286755" lon="13.8488875"><ele>871.0</ele><time>2026-05-02T09:41:35.037Z</time></trkpt><trkpt lat="42.2287639" lon="13.8488802"><ele>871.0</ele><time>2026-05-02T09:41:36.037Z</time></trkpt><trkpt lat="42.2288494" lon="13.8489013"><ele>871.0</ele><time>2026-05-02T09:41:37.037Z</time></trkpt><trkpt lat="42.2289306" lon="13.8489452"><ele>870.9999999999999</ele><time>2026-05-02T09:41:38.038Z</time></trkpt><trkpt lat="42.2290172" lon="13.8490095"><ele>871.0</ele><time>2026-05-02T09:41:39.037Z</time></trkpt><trkpt lat="42.2291133" lon="13.8490827"><ele>873.1999999999999</ele><time>2026-05-02T09:41:40.038Z</time></trkpt><trkpt lat="42.2292211" lon="13.8491557"><ele>875.3999999999999</ele><time>2026-05-02T09:41:41.037Z</time></trkpt><trkpt lat="42.2293122" lon="13.8492383"><ele>877.6</ele><time>2026-05-02T09:41:42.037Z</time></trkpt><trkpt lat="42.2293891" lon="13.8493103"><ele>879.8</ele><time>2026-05-02T09:41:43.037Z</time></trkpt><trkpt lat="42.2294575" lon="13.8493476"><ele>882.0</ele><time>2026-05-02T09:41:44.037Z</time></trkpt><trkpt lat="42.2295219" lon="13.849362"><ele>882.0</ele><time>2026-05-02T09:41:45.037Z</time></trkpt><trkpt lat="42.2295823" lon="13.8493324"><ele>882.0</ele><time>2026-05-02T09:41:46.037Z</time></trkpt><trkpt lat="42.2296519" lon="13.8492889"><ele>882.0</ele><time>2026-05-02T09:41:47.038Z</time></trkpt><trkpt lat="42.2297449" lon="13.8492378"><ele>882.0</ele><time>2026-05-02T09:41:48.038Z</time></trkpt><trkpt lat="42.2298435" lon="13.8491722"><ele>882.0</ele><time>2026-05-02T09:41:49.037Z</time></trkpt><trkpt lat="42.2299382" lon="13.8491055"><ele>882.8</ele><time>2026-05-02T09:41:50.037Z</time></trkpt><trkpt lat="42.2300307" lon="13.8490538"><ele>883.6</ele><time>2026-05-02T09:41:51.037Z</time></trkpt><trkpt lat="42.2301227" lon="13.8490062"><ele>884.3999999999999</ele><time>2026-05-02T09:41:52.037Z</time></trkpt><trkpt lat="42.2302192" lon="13.8489597"><ele>885.1999999999999</ele><time>2026-05-02T09:41:53.037Z</time></trkpt><trkpt lat="42.2303194" lon="13.8489133"><ele>886.0</ele><time>2026-05-02T09:41:54.037Z</time></trkpt><trkpt lat="42.2304192" lon="13.8488632"><ele>886.0</ele><time>2026-05-02T09:41:55.037Z</time></trkpt><trkpt lat="42.2305244" lon="13.8488153"><ele>886.0</ele><time>2026-05-02T09:41:56.037Z</time></trkpt><trkpt lat="42.2306316" lon="13.8487664"><ele>886.0</ele><time>2026-05-02T09:41:57.037Z</time></trkpt><trkpt lat="42.2307483" lon="13.8487232"><ele>886.0</ele><time>2026-05-02T09:41:58.037Z</time></trkpt><trkpt lat="42.2308704" lon="13.8486742"><ele>886.0</ele><time>2026-05-02T09:41:59.037Z</time></trkpt><trkpt lat="42.2309873" lon="13.8486167"><ele>886.0</ele><time>2026-05-02T09:42:00.037Z</time></trkpt><trkpt lat="42.2311071" lon="13.8485519"><ele>886.0</ele><time>2026-05-02T09:42:01.037Z</time></trkpt><trkpt lat="42.2312232" lon="13.8484963"><ele>886.0</ele><time>2026-05-02T09:42:02.037Z</time></trkpt><trkpt lat="42.2313231" lon="13.8484495"><ele>890.0</ele><time>2026-05-02T09:42:03.037Z</time></trkpt><trkpt lat="42.2314178" lon="13.8483992"><ele>893.9999999999999</ele><time>2026-05-02T09:42:04.037Z</time></trkpt><trkpt lat="42.2315122" lon="13.8483732"><ele>897.9999999999999</ele><time>2026-05-02T09:42:05.037Z</time></trkpt><trkpt lat="42.2316067" lon="13.848361"><ele>902.0</ele><time>2026-05-02T09:42:06.037Z</time></trkpt><trkpt lat="42.2316989" lon="13.848358"><ele>906.0</ele><time>2026-05-02T09:42:07.037Z</time></trkpt><trkpt lat="42.2317944" lon="13.8483529"><ele>906.0</ele><time>2026-05-02T09:42:08.037Z</time></trkpt><trkpt lat="42.2318893" lon="13.8483423"><ele>906.0</ele><time>2026-05-02T09:42:09.037Z</time></trkpt><trkpt lat="42.2319671" lon="13.8483264"><ele>906.0</ele><time>2026-05-02T09:42:10.037Z</time></trkpt><trkpt lat="42.2320272" lon="13.8482903"><ele>906.0</ele><time>2026-05-02T09:42:11.037Z</time></trkpt><trkpt lat="42.2321121" lon="13.8481715"><ele>906.0</ele><time>2026-05-02T09:42:13.037Z</time></trkpt><trkpt lat="42.232165" lon="13.8481027"><ele>906.0</ele><time>2026-05-02T09:42:14.037Z</time></trkpt><trkpt lat="42.2322201" lon="13.8480523"><ele>906.0</ele><time>2026-05-02T09:42:15.037Z</time></trkpt><trkpt lat="42.2322824" lon="13.8480227"><ele>906.0</ele><time>2026-05-02T09:42:16.037Z</time></trkpt><trkpt lat="42.2324157" lon="13.8480205"><ele>906.0</ele><time>2026-05-02T09:42:18.038Z</time></trkpt><trkpt lat="42.2324992" lon="13.8480226"><ele>906.0</ele><time>2026-05-02T09:42:19.037Z</time></trkpt><trkpt lat="42.2325738" lon="13.8480227"><ele>906.0</ele><time>2026-05-02T09:42:21.037Z</time></trkpt><trkpt lat="42.2325367" lon="13.8479463"><ele>906.0</ele><time>2026-05-02T09:42:25.038Z</time></trkpt><trkpt lat="42.2324169" lon="13.8478471"><ele>906.0</ele><time>2026-05-02T09:42:27.037Z</time></trkpt><trkpt lat="42.2323336" lon="13.8477712"><ele>906.0</ele><time>2026-05-02T09:42:28.037Z</time></trkpt><trkpt lat="42.2322241" lon="13.8476955"><ele>906.0</ele><time>2026-05-02T09:42:29.037Z</time></trkpt><trkpt lat="42.2321116" lon="13.847611"><ele>906.0</ele><time>2026-05-02T09:42:30.038Z</time></trkpt><trkpt lat="42.231998" lon="13.8475122"><ele>911.0</ele><time>2026-05-02T09:42:31.037Z</time></trkpt><trkpt lat="42.2318899" lon="13.8474206"><ele>915.9999999999999</ele><time>2026-05-02T09:42:32.037Z</time></trkpt><trkpt lat="42.2317855" lon="13.8473509"><ele>920.9999999999999</ele><time>2026-05-02T09:42:33.037Z</time></trkpt><trkpt lat="42.2316828" lon="13.8473168"><ele>926.0</ele><time>2026-05-02T09:42:34.037Z</time></trkpt><trkpt lat="42.2315874" lon="13.847305"><ele>931.0</ele><time>2026-05-02T09:42:35.037Z</time></trkpt><trkpt lat="42.2314901" lon="13.8473013"><ele>931.0</ele><time>2026-05-02T09:42:36.037Z</time></trkpt><trkpt lat="42.2314014" lon="13.8472819"><ele>930.9999999999999</ele><time>2026-05-02T09:42:37.037Z</time></trkpt><trkpt lat="42.2313169" lon="13.8472303"><ele>930.9999999999999</ele><time>2026-05-02T09:42:38.038Z</time></trkpt><trkpt lat="42.2312203" lon="13.8471576"><ele>931.0</ele><time>2026-05-02T09:42:39.037Z</time></trkpt><trkpt lat="42.2311304" lon="13.8470682"><ele>931.0</ele><time>2026-05-02T09:42:40.037Z</time></trkpt><trkpt lat="42.2310503" lon="13.8469929"><ele>931.0</ele><time>2026-05-02T09:42:41.037Z</time></trkpt><trkpt lat="42.2309737" lon="13.8469445"><ele>930.9999999999999</ele><time>2026-05-02T09:42:42.037Z</time></trkpt><trkpt lat="42.230893" lon="13.8469481"><ele>930.9999999999999</ele><time>2026-05-02T09:42:43.037Z</time></trkpt><trkpt lat="42.230805" lon="13.8469729"><ele>931.0</ele><time>2026-05-02T09:42:44.037Z</time></trkpt><trkpt lat="42.2306978" lon="13.847012"><ele>931.0</ele><time>2026-05-02T09:42:45.037Z</time></trkpt><trkpt lat="42.2305721" lon="13.8470583"><ele>932.0</ele><time>2026-05-02T09:42:46.037Z</time></trkpt><trkpt lat="42.2304264" lon="13.8471035"><ele>933.0</ele><time>2026-05-02T09:42:47.037Z</time></trkpt><trkpt lat="42.2302691" lon="13.8471615"><ele>934.0</ele><time>2026-05-02T09:42:48.038Z</time></trkpt><trkpt lat="42.2301081" lon="13.8472137"><ele>934.0</ele><time>2026-05-02T09:42:49.037Z</time></trkpt><trkpt lat="42.2299519" lon="13.8472754"><ele>934.0</ele><time>2026-05-02T09:42:50.038Z</time></trkpt><trkpt lat="42.229803" lon="13.8473379"><ele>934.0</ele><time>2026-05-02T09:42:51.037Z</time></trkpt><trkpt lat="42.2296606" lon="13.8474032"><ele>935.5</ele><time>2026-05-02T09:42:52.037Z</time></trkpt><trkpt lat="42.2295276" lon="13.8474655"><ele>937.0</ele><time>2026-05-02T09:42:53.037Z</time></trkpt><trkpt lat="42.2294055" lon="13.8475226"><ele>938.5</ele><time>2026-05-02T09:42:54.038Z</time></trkpt><trkpt lat="42.2292927" lon="13.8475658"><ele>940.0</ele><time>2026-05-02T09:42:55.037Z</time></trkpt><trkpt lat="42.2291789" lon="13.8476"><ele>940.0</ele><time>2026-05-02T09:42:56.037Z</time></trkpt><trkpt lat="42.2290562" lon="13.8476239"><ele>940.0</ele><time>2026-05-02T09:42:57.037Z</time></trkpt><trkpt lat="42.2289346" lon="13.8476473"><ele>940.0</ele><time>2026-05-02T09:42:58.037Z</time></trkpt><trkpt lat="42.228816" lon="13.8476697"><ele>940.0</ele><time>2026-05-02T09:42:59.037Z</time></trkpt><trkpt lat="42.2287032" lon="13.8476996"><ele>933.2</ele><time>2026-05-02T09:43:00.037Z</time></trkpt><trkpt lat="42.2285938" lon="13.847735"><ele>926.4</ele><time>2026-05-02T09:43:01.037Z</time></trkpt><trkpt lat="42.2284927" lon="13.8477631"><ele>919.5999999999999</ele><time>2026-05-02T09:43:02.037Z</time></trkpt><trkpt lat="42.2283849" lon="13.8477856"><ele>912.8</ele><time>2026-05-02T09:43:03.037Z</time></trkpt><trkpt lat="42.2282715" lon="13.8477977"><ele>906.0</ele><time>2026-05-02T09:43:04.037Z</time></trkpt><trkpt lat="42.2281553" lon="13.8478095"><ele>904.8</ele><time>2026-05-02T09:43:05.038Z</time></trkpt><trkpt lat="42.2280413" lon="13.8478164"><ele>903.5999999999999</ele><time>2026-05-02T09:43:06.037Z</time></trkpt><trkpt lat="42.2279315" lon="13.84782"><ele>902.4</ele><time>2026-05-02T09:43:07.038Z</time></trkpt><trkpt lat="42.2278219" lon="13.8478255"><ele>901.2</ele><time>2026-05-02T09:43:08.038Z</time></trkpt><trkpt lat="42.2277145" lon="13.8478236"><ele>900.0</ele><time>2026-05-02T09:43:09.037Z</time></trkpt><trkpt lat="42.2276022" lon="13.8478113"><ele>900.0</ele><time>2026-05-02T09:43:10.038Z</time></trkpt><trkpt lat="42.2274816" lon="13.8477981"><ele>900.0</ele><time>2026-05-02T09:43:11.037Z</time></trkpt><trkpt lat="42.2273617" lon="13.8477928"><ele>900.0</ele><time>2026-05-02T09:43:12.038Z</time></trkpt><trkpt lat="42.227242" lon="13.8477877"><ele>900.0</ele><time>2026-05-02T09:43:13.037Z</time></trkpt><trkpt lat="42.2271197" lon="13.8477843"><ele>900.75</ele><time>2026-05-02T09:43:14.037Z</time></trkpt><trkpt lat="42.2269968" lon="13.847783"><ele>901.5</ele><time>2026-05-02T09:43:15.037Z</time></trkpt><trkpt lat="42.2268645" lon="13.8477882"><ele>902.25</ele><time>2026-05-02T09:43:16.037Z</time></trkpt><trkpt lat="42.2267337" lon="13.8477895"><ele>903.0</ele><time>2026-05-02T09:43:17.037Z</time></trkpt><trkpt lat="42.2266013" lon="13.8477964"><ele>903.5</ele><time>2026-05-02T09:43:18.038Z</time></trkpt><trkpt lat="42.2264688" lon="13.8478006"><ele>904.0</ele><time>2026-05-02T09:43:19.037Z</time></trkpt><trkpt lat="42.2263353" lon="13.847798"><ele>904.5</ele><time>2026-05-02T09:43:20.037Z</time></trkpt><trkpt lat="42.2261997" lon="13.8477963"><ele>905.0</ele><time>2026-05-02T09:43:21.037Z</time></trkpt><trkpt lat="42.2260664" lon="13.8478013"><ele>905.0</ele><time>2026-05-02T09:43:22.037Z</time></trkpt><trkpt lat="42.2259384" lon="13.8478007"><ele>905.0</ele><time>2026-05-02T09:43:23.037Z</time></trkpt><trkpt lat="42.2258193" lon="13.8477946"><ele>905.0</ele><time>2026-05-02T09:43:24.038Z</time></trkpt><trkpt lat="42.22571" lon="13.8477789"><ele>905.0</ele><time>2026-05-02T09:43:25.037Z</time></trkpt><trkpt lat="42.2256076" lon="13.8477562"><ele>902.4</ele><time>2026-05-02T09:43:26.037Z</time></trkpt><trkpt lat="42.2255135" lon="13.8477206"><ele>899.8</ele><time>2026-05-02T09:43:27.037Z</time></trkpt><trkpt lat="42.2254176" lon="13.8476704"><ele>897.2</ele><time>2026-05-02T09:43:28.037Z</time></trkpt><trkpt lat="42.2253167" lon="13.8476127"><ele>894.6</ele><time>2026-05-02T09:43:29.037Z</time></trkpt><trkpt lat="42.2252115" lon="13.8475603"><ele>892.0</ele><time>2026-05-02T09:43:30.037Z</time></trkpt><trkpt lat="42.225099" lon="13.847508"><ele>893.8</ele><time>2026-05-02T09:43:31.038Z</time></trkpt><trkpt lat="42.2249827" lon="13.8474551"><ele>895.6</ele><time>2026-05-02T09:43:32.037Z</time></trkpt><trkpt lat="42.2248783" lon="13.8474076"><ele>897.3999999999999</ele><time>2026-05-02T09:43:33.037Z</time></trkpt><trkpt lat="42.2247869" lon="13.8473625"><ele>899.1999999999999</ele><time>2026-05-02T09:43:34.038Z</time></trkpt><trkpt lat="42.2247167" lon="13.8473054"><ele>901.0</ele><time>2026-05-02T09:43:35.037Z</time></trkpt><trkpt lat="42.2246467" lon="13.8471737"><ele>900.9999999999999</ele><time>2026-05-02T09:43:37.037Z</time></trkpt><trkpt lat="42.2246317" lon="13.8470822"><ele>901.0</ele><time>2026-05-02T09:43:38.038Z</time></trkpt><trkpt lat="42.2246202" lon="13.8469745"><ele>901.0</ele><time>2026-05-02T09:43:39.038Z</time></trkpt><trkpt lat="42.2246196" lon="13.8468662"><ele>901.0</ele><time>2026-05-02T09:43:40.037Z</time></trkpt><trkpt lat="42.2246432" lon="13.8467626"><ele>900.9999999999999</ele><time>2026-05-02T09:43:41.038Z</time></trkpt><trkpt lat="42.2246927" lon="13.8466768"><ele>901.0</ele><time>2026-05-02T09:43:42.038Z</time></trkpt><trkpt lat="42.2247589" lon="13.8465716"><ele>910.0</ele><time>2026-05-02T09:43:43.037Z</time></trkpt><trkpt lat="42.2248355" lon="13.8464584"><ele>919.0</ele><time>2026-05-02T09:43:44.037Z</time></trkpt><trkpt lat="42.2249093" lon="13.8463398"><ele>928.0</ele><time>2026-05-02T09:43:45.038Z</time></trkpt><trkpt lat="42.2249888" lon="13.8462234"><ele>937.0</ele><time>2026-05-02T09:43:46.037Z</time></trkpt><trkpt lat="42.2250755" lon="13.8461262"><ele>937.0</ele><time>2026-05-02T09:43:47.037Z</time></trkpt><trkpt lat="42.2251664" lon="13.8460425"><ele>937.0</ele><time>2026-05-02T09:43:48.037Z</time></trkpt><trkpt lat="42.225269" lon="13.8459644"><ele>937.0</ele><time>2026-05-02T09:43:49.038Z</time></trkpt><trkpt lat="42.2253753" lon="13.8458908"><ele>937.0</ele><time>2026-05-02T09:43:50.038Z</time></trkpt><trkpt lat="42.2254808" lon="13.8458193"><ele>939.75</ele><time>2026-05-02T09:43:51.037Z</time></trkpt><trkpt lat="42.225588" lon="13.8457454"><ele>942.5</ele><time>2026-05-02T09:43:52.038Z</time></trkpt><trkpt lat="42.2256912" lon="13.8456697"><ele>945.25</ele><time>2026-05-02T09:43:53.037Z</time></trkpt><trkpt lat="42.2257918" lon="13.845599"><ele>948.0</ele><time>2026-05-02T09:43:54.037Z</time></trkpt><trkpt lat="42.2258913" lon="13.8455204"><ele>948.5</ele><time>2026-05-02T09:43:55.037Z</time></trkpt><trkpt lat="42.2259938" lon="13.845436"><ele>949.0</ele><time>2026-05-02T09:43:56.037Z</time></trkpt><trkpt lat="42.226098" lon="13.8453363"><ele>949.5</ele><time>2026-05-02T09:43:57.037Z</time></trkpt><trkpt lat="42.2262032" lon="13.8452377"><ele>950.0</ele><time>2026-05-02T09:43:58.037Z</time></trkpt><trkpt lat="42.2263084" lon="13.8451423"><ele>953.5</ele><time>2026-05-02T09:43:59.037Z</time></trkpt><trkpt lat="42.2264093" lon="13.8450452"><ele>957.0</ele><time>2026-05-02T09:44:00.037Z</time></trkpt><trkpt lat="42.2265078" lon="13.8449462"><ele>960.5</ele><time>2026-05-02T09:44:01.037Z</time></trkpt><trkpt lat="42.2266045" lon="13.844846"><ele>964.0</ele><time>2026-05-02T09:44:02.037Z</time></trkpt><trkpt lat="42.2267105" lon="13.8447555"><ele>964.0</ele><time>2026-05-02T09:44:03.038Z</time></trkpt><trkpt lat="42.2268181" lon="13.8446676"><ele>964.0</ele><time>2026-05-02T09:44:04.037Z</time></trkpt><trkpt lat="42.2269342" lon="13.8445695"><ele>964.0</ele><time>2026-05-02T09:44:05.037Z</time></trkpt><trkpt lat="42.2270595" lon="13.8444688"><ele>964.0</ele><time>2026-05-02T09:44:06.037Z</time></trkpt><trkpt lat="42.2271876" lon="13.8443725"><ele>967.0</ele><time>2026-05-02T09:44:07.037Z</time></trkpt><trkpt lat="42.2273066" lon="13.8442866"><ele>970.0000000000001</ele><time>2026-05-02T09:44:08.037Z</time></trkpt><trkpt lat="42.2274019" lon="13.8442114"><ele>973.0000000000001</ele><time>2026-05-02T09:44:09.037Z</time></trkpt><trkpt lat="42.2274854" lon="13.8441523"><ele>976.0</ele><time>2026-05-02T09:44:10.038Z</time></trkpt><trkpt lat="42.2275562" lon="13.8440972"><ele>979.0</ele><time>2026-05-02T09:44:11.037Z</time></trkpt><trkpt lat="42.2276095" lon="13.8440418"><ele>979.0</ele><time>2026-05-02T09:44:12.037Z</time></trkpt><trkpt lat="42.2276573" lon="13.8439152"><ele>979.0000000000001</ele><time>2026-05-02T09:44:14.037Z</time></trkpt><trkpt lat="42.2276125" lon="13.8438144"><ele>979.0000000000001</ele><time>2026-05-02T09:44:16.038Z</time></trkpt><trkpt lat="42.2275033" lon="13.8437729"><ele>979.0</ele><time>2026-05-02T09:44:18.037Z</time></trkpt><trkpt lat="42.2273974" lon="13.8438058"><ele>979.0</ele><time>2026-05-02T09:44:20.037Z</time></trkpt><trkpt lat="42.2272834" lon="13.8438286"><ele>980.2</ele><time>2026-05-02T09:44:22.038Z</time></trkpt><trkpt lat="42.2271564" lon="13.8438437"><ele>981.4000000000001</ele><time>2026-05-02T09:44:24.037Z</time></trkpt><trkpt lat="42.2270751" lon="13.8438477"><ele>982.6</ele><time>2026-05-02T09:44:25.037Z</time></trkpt><trkpt lat="42.2269891" lon="13.8438442"><ele>983.8</ele><time>2026-05-02T09:44:26.038Z</time></trkpt><trkpt lat="42.2269021" lon="13.8438363"><ele>985.0</ele><time>2026-05-02T09:44:27.037Z</time></trkpt><trkpt lat="42.226817" lon="13.8438286"><ele>984.9999999999999</ele><time>2026-05-02T09:44:28.037Z</time></trkpt><trkpt lat="42.2267497" lon="13.8438159"><ele>985.0</ele><time>2026-05-02T09:44:29.037Z</time></trkpt><trkpt lat="42.2266362" lon="13.8437866"><ele>985.0</ele><time>2026-05-02T09:44:31.037Z</time></trkpt><trkpt lat="42.2265745" lon="13.8437544"><ele>985.0</ele><time>2026-05-02T09:44:32.037Z</time></trkpt><trkpt lat="42.2264923" lon="13.8437029"><ele>984.9999999999999</ele><time>2026-05-02T09:44:33.037Z</time></trkpt><trkpt lat="42.2263914" lon="13.8436498"><ele>985.0</ele><time>2026-05-02T09:44:34.037Z</time></trkpt><trkpt lat="42.2262841" lon="13.8436008"><ele>986.0</ele><time>2026-05-02T09:44:35.037Z</time></trkpt><trkpt lat="42.2261988" lon="13.8435629"><ele>987.0</ele><time>2026-05-02T09:44:36.037Z</time></trkpt><trkpt lat="42.2260821" lon="13.8435328"><ele>988.0</ele><time>2026-05-02T09:44:38.038Z</time></trkpt><trkpt lat="42.225965" lon="13.8435657"><ele>989.0</ele><time>2026-05-02T09:44:40.037Z</time></trkpt><trkpt lat="42.2258866" lon="13.8435962"><ele>990.0</ele><time>2026-05-02T09:44:41.037Z</time></trkpt><trkpt lat="42.225811" lon="13.8436322"><ele>990.0</ele><time>2026-05-02T09:44:42.037Z</time></trkpt><trkpt lat="42.2257443" lon="13.8436737"><ele>990.0</ele><time>2026-05-02T09:44:43.037Z</time></trkpt><trkpt lat="42.2257016" lon="13.8437364"><ele>990.0</ele><time>2026-05-02T09:44:44.037Z</time></trkpt><trkpt lat="42.2256494" lon="13.8438255"><ele>990.0</ele><time>2026-05-02T09:44:46.037Z</time></trkpt><trkpt lat="42.2255608" lon="13.8438663"><ele>990.0</ele><time>2026-05-02T09:44:48.038Z</time></trkpt><trkpt lat="42.2254528" lon="13.8438972"><ele>990.0</ele><time>2026-05-02T09:44:50.038Z</time></trkpt><trkpt lat="42.2253732" lon="13.8439146"><ele>988.8333333333334</ele><time>2026-05-02T09:44:52.038Z</time></trkpt><trkpt lat="42.225286" lon="13.8438798"><ele>987.6666666666667</ele><time>2026-05-02T09:45:04.037Z</time></trkpt><trkpt lat="42.2253741" lon="13.8439032"><ele>986.5</ele><time>2026-05-02T09:45:18.037Z</time></trkpt><trkpt lat="42.2253277" lon="13.8440043"><ele>985.3333333333334</ele><time>2026-05-02T09:45:23.037Z</time></trkpt><trkpt lat="42.2252663" lon="13.8440268"><ele>984.1666666666667</ele><time>2026-05-02T09:45:25.037Z</time></trkpt><trkpt lat="42.2251844" lon="13.844043"><ele>983.0</ele><time>2026-05-02T09:45:40.037Z</time></trkpt><trkpt lat="42.2252703" lon="13.8440081"><ele>983.0000000000001</ele><time>2026-05-02T09:45:50.037Z</time></trkpt><trkpt lat="42.2253519" lon="13.8439565"><ele>983.0</ele><time>2026-05-02T09:45:52.037Z</time></trkpt><trkpt lat="42.2254055" lon="13.8439086"><ele>983.0</ele><time>2026-05-02T09:45:54.038Z</time></trkpt><trkpt lat="42.2254948" lon="13.8438743"><ele>983.0</ele><time>2026-05-02T09:45:56.037Z</time></trkpt><trkpt lat="42.2255575" lon="13.8438553"><ele>983.0000000000001</ele><time>2026-05-02T09:45:57.037Z</time></trkpt><trkpt lat="42.2256214" lon="13.8438242"><ele>983.0</ele><time>2026-05-02T09:45:58.037Z</time></trkpt><trkpt lat="42.2257114" lon="13.8437356"><ele>984.4</ele><time>2026-05-02T09:46:00.037Z</time></trkpt><trkpt lat="42.2257911" lon="13.8436281"><ele>985.8</ele><time>2026-05-02T09:46:02.037Z</time></trkpt><trkpt lat="42.2259142" lon="13.8435629"><ele>987.2</ele><time>2026-05-02T09:46:04.037Z</time></trkpt><trkpt lat="42.2259861" lon="13.8435409"><ele>988.6</ele><time>2026-05-02T09:46:05.038Z</time></trkpt><trkpt lat="42.2260477" lon="13.8435198"><ele>990.0</ele><time>2026-05-02T09:46:06.037Z</time></trkpt><trkpt lat="42.2261597" lon="13.8435314"><ele>990.0</ele><time>2026-05-02T09:46:08.037Z</time></trkpt><trkpt lat="42.2262254" lon="13.8435654"><ele>990.0</ele><time>2026-05-02T09:46:09.037Z</time></trkpt><trkpt lat="42.2263047" lon="13.843615"><ele>990.0</ele><time>2026-05-02T09:46:10.038Z</time></trkpt><trkpt lat="42.2263699" lon="13.8436499"><ele>990.0</ele><time>2026-05-02T09:46:11.037Z</time></trkpt><trkpt lat="42.2264363" lon="13.8436871"><ele>990.0</ele><time>2026-05-02T09:46:12.037Z</time></trkpt><trkpt lat="42.2265415" lon="13.8437244"><ele>990.0</ele><time>2026-05-02T09:46:14.037Z</time></trkpt><trkpt lat="42.2265975" lon="13.843791"><ele>990.0</ele><time>2026-05-02T09:46:16.038Z</time></trkpt><trkpt lat="42.2265181" lon="13.8439057"><ele>990.0</ele><time>2026-05-02T09:46:19.038Z</time></trkpt><trkpt lat="42.2264507" lon="13.8439487"><ele>990.0</ele><time>2026-05-02T09:46:20.038Z</time></trkpt><trkpt lat="42.2263611" lon="13.8439795"><ele>990.0</ele><time>2026-05-02T09:46:21.037Z</time></trkpt><trkpt lat="42.226255" lon="13.8440178"><ele>990.0</ele><time>2026-05-02T09:46:22.037Z</time></trkpt><trkpt lat="42.2261423" lon="13.8440733"><ele>990.0</ele><time>2026-05-02T09:46:23.037Z</time></trkpt><trkpt lat="42.2260256" lon="13.844133"><ele>990.0</ele><time>2026-05-02T09:46:24.037Z</time></trkpt><trkpt lat="42.2259076" lon="13.8441751"><ele>990.0</ele><time>2026-05-02T09:46:25.037Z</time></trkpt><trkpt lat="42.2257922" lon="13.8442218"><ele>990.0</ele><time>2026-05-02T09:46:26.037Z</time></trkpt><trkpt lat="42.2256773" lon="13.8442663"><ele>986.4</ele><time>2026-05-02T09:46:27.037Z</time></trkpt><trkpt lat="42.2255693" lon="13.8443176"><ele>982.8</ele><time>2026-05-02T09:46:28.037Z</time></trkpt><trkpt lat="42.2254731" lon="13.8443803"><ele>979.2</ele><time>2026-05-02T09:46:29.037Z</time></trkpt><trkpt lat="42.2253888" lon="13.8444434"><ele>975.6</ele><time>2026-05-02T09:46:30.038Z</time></trkpt><trkpt lat="42.2253163" lon="13.8445075"><ele>972.0</ele><time>2026-05-02T09:46:31.038Z</time></trkpt><trkpt lat="42.225234" lon="13.844546"><ele>972.0</ele><time>2026-05-02T09:46:32.037Z</time></trkpt><trkpt lat="42.2251373" lon="13.8445758"><ele>972.0</ele><time>2026-05-02T09:46:33.038Z</time></trkpt><trkpt lat="42.2250319" lon="13.8445869"><ele>972.0</ele><time>2026-05-02T09:46:34.037Z</time></trkpt><trkpt lat="42.2249262" lon="13.8445885"><ele>972.0</ele><time>2026-05-02T09:46:35.038Z</time></trkpt><trkpt lat="42.224827" lon="13.8445932"><ele>972.0</ele><time>2026-05-02T09:46:36.037Z</time></trkpt><trkpt lat="42.2247444" lon="13.8445888"><ele>970.4285714285713</ele><time>2026-05-02T09:46:37.037Z</time></trkpt><trkpt lat="42.2246783" lon="13.8445584"><ele>968.8571428571429</ele><time>2026-05-02T09:46:38.038Z</time></trkpt><trkpt lat="42.2246234" lon="13.8445043"><ele>967.2857142857142</ele><time>2026-05-02T09:46:39.037Z</time></trkpt><trkpt lat="42.2245957" lon="13.8444185"><ele>965.7142857142857</ele><time>2026-05-02T09:46:40.037Z</time></trkpt><trkpt lat="42.2245875" lon="13.8443238"><ele>964.1428571428571</ele><time>2026-05-02T09:46:41.037Z</time></trkpt><trkpt lat="42.224605" lon="13.8442358"><ele>962.5714285714286</ele><time>2026-05-02T09:46:42.037Z</time></trkpt><trkpt lat="42.2246414" lon="13.8441415"><ele>961.0</ele><time>2026-05-02T09:46:43.038Z</time></trkpt><trkpt lat="42.2246775" lon="13.8440441"><ele>960.1666666666666</ele><time>2026-05-02T09:46:44.037Z</time></trkpt><trkpt lat="42.2247159" lon="13.843938"><ele>959.3333333333333</ele><time>2026-05-02T09:46:45.037Z</time></trkpt><trkpt lat="42.224757" lon="13.8438324"><ele>958.5</ele><time>2026-05-02T09:46:46.037Z</time></trkpt><trkpt lat="42.224797" lon="13.8437348"><ele>957.6666666666667</ele><time>2026-05-02T09:46:47.037Z</time></trkpt><trkpt lat="42.2248316" lon="13.8436384"><ele>956.8333333333334</ele><time>2026-05-02T09:46:48.037Z</time></trkpt><trkpt lat="42.2248674" lon="13.8435391"><ele>956.0</ele><time>2026-05-02T09:46:49.037Z</time></trkpt><trkpt lat="42.2249131" lon="13.843441"><ele>959.0</ele><time>2026-05-02T09:46:50.038Z</time></trkpt><trkpt lat="42.2249687" lon="13.8433386"><ele>961.9999999999999</ele><time>2026-05-02T09:46:51.037Z</time></trkpt><trkpt lat="42.2250342" lon="13.8432437"><ele>964.9999999999999</ele><time>2026-05-02T09:46:52.037Z</time></trkpt><trkpt lat="42.2251062" lon="13.8431479"><ele>968.0</ele><time>2026-05-02T09:46:53.037Z</time></trkpt><trkpt lat="42.2251798" lon="13.8430545"><ele>971.0</ele><time>2026-05-02T09:46:54.038Z</time></trkpt><trkpt lat="42.2252508" lon="13.8429573"><ele>971.0</ele><time>2026-05-02T09:46:55.037Z</time></trkpt><trkpt lat="42.2253215" lon="13.8428632"><ele>970.9999999999999</ele><time>2026-05-02T09:46:56.037Z</time></trkpt><trkpt lat="42.2253883" lon="13.8427641"><ele>970.9999999999999</ele><time>2026-05-02T09:46:57.037Z</time></trkpt><trkpt lat="42.2254578" lon="13.8426676"><ele>971.0</ele><time>2026-05-02T09:46:58.037Z</time></trkpt><trkpt lat="42.2255283" lon="13.8425683"><ele>971.0</ele><time>2026-05-02T09:46:59.038Z</time></trkpt><trkpt lat="42.2256024" lon="13.8424688"><ele>970.4</ele><time>2026-05-02T09:47:00.037Z</time></trkpt><trkpt lat="42.2256797" lon="13.8423699"><ele>969.8</ele><time>2026-05-02T09:47:01.038Z</time></trkpt><trkpt lat="42.2257625" lon="13.8422813"><ele>969.1999999999999</ele><time>2026-05-02T09:47:02.037Z</time></trkpt><trkpt lat="42.2258547" lon="13.8422042"><ele>968.5999999999999</ele><time>2026-05-02T09:47:03.038Z</time></trkpt><trkpt lat="42.2259523" lon="13.8421438"><ele>968.0</ele><time>2026-05-02T09:47:04.038Z</time></trkpt><trkpt lat="42.2260479" lon="13.8421045"><ele>968.0</ele><time>2026-05-02T09:47:05.038Z</time></trkpt><trkpt lat="42.2261381" lon="13.8420707"><ele>968.0</ele><time>2026-05-02T09:47:06.037Z</time></trkpt><trkpt lat="42.2262259" lon="13.8420659"><ele>968.0</ele><time>2026-05-02T09:47:07.037Z</time></trkpt><trkpt lat="42.2263194" lon="13.8420743"><ele>968.0</ele><time>2026-05-02T09:47:08.037Z</time></trkpt><trkpt lat="42.2264137" lon="13.8420811"><ele>968.0</ele><time>2026-05-02T09:47:09.037Z</time></trkpt><trkpt lat="42.2265139" lon="13.8420809"><ele>968.8</ele><time>2026-05-02T09:47:10.037Z</time></trkpt><trkpt lat="42.2266174" lon="13.8420703"><ele>969.5999999999999</ele><time>2026-05-02T09:47:11.037Z</time></trkpt><trkpt lat="42.2267253" lon="13.8420549"><ele>970.4000000000001</ele><time>2026-05-02T09:47:12.037Z</time></trkpt><trkpt lat="42.2268365" lon="13.842044"><ele>971.2</ele><time>2026-05-02T09:47:13.037Z</time></trkpt><trkpt lat="42.2269497" lon="13.8420395"><ele>972.0</ele><time>2026-05-02T09:47:14.038Z</time></trkpt><trkpt lat="42.2270629" lon="13.842037"><ele>972.0</ele><time>2026-05-02T09:47:15.037Z</time></trkpt><trkpt lat="42.2271835" lon="13.8420318"><ele>972.0</ele><time>2026-05-02T09:47:16.037Z</time></trkpt><trkpt lat="42.2273055" lon="13.8420217"><ele>972.0</ele><time>2026-05-02T09:47:17.037Z</time></trkpt><trkpt lat="42.2274187" lon="13.8420052"><ele>972.0</ele><time>2026-05-02T09:47:18.037Z</time></trkpt><trkpt lat="42.2275257" lon="13.8419917"><ele>970.4000000000001</ele><time>2026-05-02T09:47:19.037Z</time></trkpt><trkpt lat="42.2276294" lon="13.8419779"><ele>968.8000000000001</ele><time>2026-05-02T09:47:20.038Z</time></trkpt><trkpt lat="42.2277326" lon="13.8419633"><ele>967.2</ele><time>2026-05-02T09:47:21.037Z</time></trkpt><trkpt lat="42.2278358" lon="13.841941"><ele>965.6</ele><time>2026-05-02T09:47:22.038Z</time></trkpt><trkpt lat="42.2279456" lon="13.8419127"><ele>964.0</ele><time>2026-05-02T09:47:23.037Z</time></trkpt><trkpt lat="42.2280535" lon="13.8418719"><ele>965.0</ele><time>2026-05-02T09:47:24.038Z</time></trkpt><trkpt lat="42.2281616" lon="13.8418284"><ele>966.0000000000001</ele><time>2026-05-02T09:47:25.037Z</time></trkpt><trkpt lat="42.2282663" lon="13.8417925"><ele>967.0000000000001</ele><time>2026-05-02T09:47:26.037Z</time></trkpt><trkpt lat="42.2283661" lon="13.8417462"><ele>968.0</ele><time>2026-05-02T09:47:27.037Z</time></trkpt><trkpt lat="42.2284565" lon="13.8416944"><ele>969.0</ele><time>2026-05-02T09:47:28.037Z</time></trkpt><trkpt lat="42.2285364" lon="13.8416273"><ele>961.6</ele><time>2026-05-02T09:47:29.038Z</time></trkpt><trkpt lat="42.2286001" lon="13.8415468"><ele>954.2</ele><time>2026-05-02T09:47:30.038Z</time></trkpt><trkpt lat="42.2286526" lon="13.8414381"><ele>946.8000000000001</ele><time>2026-05-02T09:47:31.037Z</time></trkpt><trkpt lat="42.2287036" lon="13.8413245"><ele>939.4000000000001</ele><time>2026-05-02T09:47:32.037Z</time></trkpt><trkpt lat="42.2287536" lon="13.8412074"><ele>932.0</ele><time>2026-05-02T09:47:33.037Z</time></trkpt><trkpt lat="42.2288069" lon="13.8410828"><ele>933.0</ele><time>2026-05-02T09:47:34.037Z</time></trkpt><trkpt lat="42.2288561" lon="13.8409537"><ele>934.0</ele><time>2026-05-02T09:47:35.037Z</time></trkpt><trkpt lat="42.2289055" lon="13.8408194"><ele>935.0</ele><time>2026-05-02T09:47:36.038Z</time></trkpt><trkpt lat="42.2289525" lon="13.8406832"><ele>936.0</ele><time>2026-05-02T09:47:37.038Z</time></trkpt><trkpt lat="42.2289963" lon="13.8405391"><ele>937.0</ele><time>2026-05-02T09:47:38.037Z</time></trkpt><trkpt lat="42.229045" lon="13.8404047"><ele>937.0</ele><time>2026-05-02T09:47:39.037Z</time></trkpt><trkpt lat="42.2290946" lon="13.8402699"><ele>937.0</ele><time>2026-05-02T09:47:40.037Z</time></trkpt><trkpt lat="42.2291478" lon="13.8401391"><ele>937.0</ele><time>2026-05-02T09:47:41.037Z</time></trkpt><trkpt lat="42.2292045" lon="13.8400026"><ele>937.0</ele><time>2026-05-02T09:47:42.037Z</time></trkpt><trkpt lat="42.2292604" lon="13.8398611"><ele>931.25</ele><time>2026-05-02T09:47:43.037Z</time></trkpt><trkpt lat="42.2293169" lon="13.8397223"><ele>925.5</ele><time>2026-05-02T09:47:44.037Z</time></trkpt><trkpt lat="42.2293827" lon="13.8395873"><ele>919.75</ele><time>2026-05-02T09:47:45.038Z</time></trkpt><trkpt lat="42.2294565" lon="13.8394585"><ele>914.0</ele><time>2026-05-02T09:47:46.037Z</time></trkpt><trkpt lat="42.2295364" lon="13.8393337"><ele>918.0</ele><time>2026-05-02T09:47:47.037Z</time></trkpt><trkpt lat="42.2296161" lon="13.8392071"><ele>922.0</ele><time>2026-05-02T09:47:48.037Z</time></trkpt><trkpt lat="42.2297038" lon="13.8390779"><ele>926.0</ele><time>2026-05-02T09:47:49.038Z</time></trkpt><trkpt lat="42.2297828" lon="13.8389414"><ele>930.0</ele><time>2026-05-02T09:47:50.037Z</time></trkpt><trkpt lat="42.2298658" lon="13.8388008"><ele>930.0</ele><time>2026-05-02T09:47:51.037Z</time></trkpt><trkpt lat="42.2299478" lon="13.8386571"><ele>930.0</ele><time>2026-05-02T09:47:52.037Z</time></trkpt><trkpt lat="42.2300249" lon="13.838507"><ele>930.0</ele><time>2026-05-02T09:47:53.038Z</time></trkpt><trkpt lat="42.2300949" lon="13.838361"><ele>930.0</ele><time>2026-05-02T09:47:54.037Z</time></trkpt><trkpt lat="42.2301563" lon="13.8382208"><ele>921.5</ele><time>2026-05-02T09:47:55.038Z</time></trkpt><trkpt lat="42.2302216" lon="13.8380905"><ele>913.0</ele><time>2026-05-02T09:47:56.038Z</time></trkpt><trkpt lat="42.2302887" lon="13.8379728"><ele>904.5</ele><time>2026-05-02T09:47:57.038Z</time></trkpt><trkpt lat="42.2303689" lon="13.8378694"><ele>896.0</ele><time>2026-05-02T09:47:58.037Z</time></trkpt><trkpt lat="42.2304579" lon="13.8377716"><ele>896.0</ele><time>2026-05-02T09:47:59.037Z</time></trkpt><trkpt lat="42.2305557" lon="13.837685"><ele>896.0</ele><time>2026-05-02T09:48:00.037Z</time></trkpt><trkpt lat="42.2306572" lon="13.8376027"><ele>896.0</ele><time>2026-05-02T09:48:01.038Z</time></trkpt><trkpt lat="42.2307582" lon="13.8375295"><ele>896.0</ele><time>2026-05-02T09:48:02.037Z</time></trkpt><trkpt lat="42.230852" lon="13.8374607"><ele>894.5</ele><time>2026-05-02T09:48:03.037Z</time></trkpt><trkpt lat="42.2309483" lon="13.837401"><ele>893.0</ele><time>2026-05-02T09:48:04.037Z</time></trkpt><trkpt lat="42.2310502" lon="13.8373511"><ele>891.5</ele><time>2026-05-02T09:48:05.038Z</time></trkpt><trkpt lat="42.2311612" lon="13.8373104"><ele>890.0</ele><time>2026-05-02T09:48:06.037Z</time></trkpt><trkpt lat="42.2312817" lon="13.8372723"><ele>890.0</ele><time>2026-05-02T09:48:07.037Z</time></trkpt><trkpt lat="42.2314066" lon="13.8372413"><ele>890.0</ele><time>2026-05-02T09:48:08.037Z</time></trkpt><trkpt lat="42.2315341" lon="13.8372043"><ele>890.0</ele><time>2026-05-02T09:48:09.037Z</time></trkpt><trkpt lat="42.2316661" lon="13.8371758"><ele>890.0</ele><time>2026-05-02T09:48:10.037Z</time></trkpt><trkpt lat="42.2317978" lon="13.8371414"><ele>892.5</ele><time>2026-05-02T09:48:11.037Z</time></trkpt><trkpt lat="42.2319284" lon="13.8371133"><ele>895.0</ele><time>2026-05-02T09:48:12.038Z</time></trkpt><trkpt lat="42.2320574" lon="13.8370917"><ele>897.5</ele><time>2026-05-02T09:48:13.037Z</time></trkpt><trkpt lat="42.2321843" lon="13.8370892"><ele>900.0</ele><time>2026-05-02T09:48:14.037Z</time></trkpt><trkpt lat="42.2322983" lon="13.8371027"><ele>900.0</ele><time>2026-05-02T09:48:15.038Z</time></trkpt><trkpt lat="42.2323913" lon="13.8371247"><ele>900.0</ele><time>2026-05-02T09:48:16.037Z</time></trkpt><trkpt lat="42.2324556" lon="13.8371352"><ele>900.0</ele><time>2026-05-02T09:48:17.037Z</time></trkpt><trkpt lat="42.2325114" lon="13.8370667"><ele>900.0</ele><time>2026-05-02T09:48:19.037Z</time></trkpt><trkpt lat="42.2324627" lon="13.8369918"><ele>900.0</ele><time>2026-05-02T09:48:21.037Z</time></trkpt><trkpt lat="42.232357" lon="13.8369587"><ele>900.0</ele><time>2026-05-02T09:48:23.037Z</time></trkpt><trkpt lat="42.2322797" lon="13.8369338"><ele>900.0</ele><time>2026-05-02T09:48:24.037Z</time></trkpt><trkpt lat="42.2321868" lon="13.8369026"><ele>900.0</ele><time>2026-05-02T09:48:25.037Z</time></trkpt><trkpt lat="42.23209" lon="13.8368761"><ele>900.0</ele><time>2026-05-02T09:48:26.037Z</time></trkpt><trkpt lat="42.2319881" lon="13.8368533"><ele>900.0</ele><time>2026-05-02T09:48:27.037Z</time></trkpt><trkpt lat="42.2318834" lon="13.8368307"><ele>900.0</ele><time>2026-05-02T09:48:28.037Z</time></trkpt><trkpt lat="42.2317782" lon="13.8367982"><ele>892.4</ele><time>2026-05-02T09:48:29.037Z</time></trkpt><trkpt lat="42.2316733" lon="13.8367657"><ele>884.8</ele><time>2026-05-02T09:48:30.038Z</time></trkpt><trkpt lat="42.2315693" lon="13.8367336"><ele>877.2</ele><time>2026-05-02T09:48:31.037Z</time></trkpt><trkpt lat="42.2314581" lon="13.8367056"><ele>869.6</ele><time>2026-05-02T09:48:32.038Z</time></trkpt><trkpt lat="42.2313429" lon="13.836678"><ele>862.0</ele><time>2026-05-02T09:48:33.037Z</time></trkpt><trkpt lat="42.2312211" lon="13.8366588"><ele>859.75</ele><time>2026-05-02T09:48:34.037Z</time></trkpt><trkpt lat="42.2311011" lon="13.8366489"><ele>857.5</ele><time>2026-05-02T09:48:35.037Z</time></trkpt><trkpt lat="42.2309807" lon="13.8366455"><ele>855.25</ele><time>2026-05-02T09:48:36.037Z</time></trkpt><trkpt lat="42.2308622" lon="13.8366617"><ele>853.0</ele><time>2026-05-02T09:48:37.038Z</time></trkpt><trkpt lat="42.2307481" lon="13.8367034"><ele>855.5</ele><time>2026-05-02T09:48:38.037Z</time></trkpt><trkpt lat="42.2306314" lon="13.8367605"><ele>858.0</ele><time>2026-05-02T09:48:39.037Z</time></trkpt><trkpt lat="42.2305167" lon="13.8368145"><ele>860.5</ele><time>2026-05-02T09:48:40.037Z</time></trkpt><trkpt lat="42.2303972" lon="13.8368771"><ele>863.0</ele><time>2026-05-02T09:48:41.038Z</time></trkpt><trkpt lat="42.2302742" lon="13.8369467"><ele>863.0</ele><time>2026-05-02T09:48:42.037Z</time></trkpt><trkpt lat="42.2301488" lon="13.8370168"><ele>863.0</ele><time>2026-05-02T09:48:43.038Z</time></trkpt><trkpt lat="42.2300162" lon="13.8370799"><ele>863.0</ele><time>2026-05-02T09:48:44.038Z</time></trkpt><trkpt lat="42.2298861" lon="13.8371431"><ele>863.0</ele><time>2026-05-02T09:48:45.038Z</time></trkpt><trkpt lat="42.2297572" lon="13.8372115"><ele>856.75</ele><time>2026-05-02T09:48:46.037Z</time></trkpt><trkpt lat="42.2296298" lon="13.8372823"><ele>850.5</ele><time>2026-05-02T09:48:47.037Z</time></trkpt><trkpt lat="42.2295017" lon="13.8373467"><ele>844.25</ele><time>2026-05-02T09:48:48.037Z</time></trkpt><trkpt lat="42.2293726" lon="13.8374059"><ele>838.0</ele><time>2026-05-02T09:48:49.037Z</time></trkpt><trkpt lat="42.2292435" lon="13.8374638"><ele>838.0</ele><time>2026-05-02T09:48:50.037Z</time></trkpt><trkpt lat="42.2291206" lon="13.8375297"><ele>838.0</ele><time>2026-05-02T09:48:51.037Z</time></trkpt><trkpt lat="42.2289993" lon="13.8375971"><ele>838.0</ele><time>2026-05-02T09:48:52.037Z</time></trkpt><trkpt lat="42.2288861" lon="13.8376621"><ele>838.0</ele><time>2026-05-02T09:48:53.038Z</time></trkpt><trkpt lat="42.2287797" lon="13.8377227"><ele>836.5999999999999</ele><time>2026-05-02T09:48:54.037Z</time></trkpt><trkpt lat="42.2286851" lon="13.8377824"><ele>835.1999999999999</ele><time>2026-05-02T09:48:55.037Z</time></trkpt><trkpt lat="42.2286128" lon="13.8378227"><ele>833.8</ele><time>2026-05-02T09:48:56.037Z</time></trkpt><trkpt lat="42.2285233" lon="13.8378276"><ele>832.4</ele><time>2026-05-02T09:48:58.037Z</time></trkpt><trkpt lat="42.2285123" lon="13.8377221"><ele>831.0</ele><time>2026-05-02T09:49:00.037Z</time></trkpt><trkpt lat="42.2286232" lon="13.8376212"><ele>831.0</ele><time>2026-05-02T09:49:02.037Z</time></trkpt><trkpt lat="42.2286995" lon="13.8375675"><ele>831.0</ele><time>2026-05-02T09:49:03.037Z</time></trkpt><trkpt lat="42.2287823" lon="13.8375041"><ele>831.0</ele><time>2026-05-02T09:49:04.037Z</time></trkpt><trkpt lat="42.2288636" lon="13.8374236"><ele>831.0</ele><time>2026-05-02T09:49:05.038Z</time></trkpt><trkpt lat="42.2289462" lon="13.8373403"><ele>831.0</ele><time>2026-05-02T09:49:06.037Z</time></trkpt><trkpt lat="42.2290337" lon="13.8372555"><ele>832.4</ele><time>2026-05-02T09:49:07.037Z</time></trkpt><trkpt lat="42.2291278" lon="13.837173"><ele>833.8</ele><time>2026-05-02T09:49:08.038Z</time></trkpt><trkpt lat="42.2292172" lon="13.8370939"><ele>835.1999999999999</ele><time>2026-05-02T09:49:09.037Z</time></trkpt><trkpt lat="42.2293086" lon="13.8370155"><ele>836.5999999999999</ele><time>2026-05-02T09:49:10.037Z</time></trkpt><trkpt lat="42.2294038" lon="13.8369312"><ele>838.0</ele><time>2026-05-02T09:49:11.037Z</time></trkpt><trkpt lat="42.229503" lon="13.8368337"><ele>836.0</ele><time>2026-05-02T09:49:12.038Z</time></trkpt><trkpt lat="42.2295993" lon="13.8367271"><ele>834.0</ele><time>2026-05-02T09:49:13.038Z</time></trkpt><trkpt lat="42.2296941" lon="13.8366103"><ele>832.0</ele><time>2026-05-02T09:49:14.038Z</time></trkpt><trkpt lat="42.2297853" lon="13.83649"><ele>830.0</ele><time>2026-05-02T09:49:15.038Z</time></trkpt><trkpt lat="42.2298797" lon="13.836375"><ele>830.0</ele><time>2026-05-02T09:49:16.037Z</time></trkpt><trkpt lat="42.2299768" lon="13.836257"><ele>830.0</ele><time>2026-05-02T09:49:17.037Z</time></trkpt><trkpt lat="42.2300787" lon="13.8361505"><ele>830.0</ele><time>2026-05-02T09:49:18.037Z</time></trkpt><trkpt lat="42.230179" lon="13.8360435"><ele>830.0</ele><time>2026-05-02T09:49:19.038Z</time></trkpt><trkpt lat="42.2302762" lon="13.8359409"><ele>827.75</ele><time>2026-05-02T09:49:20.037Z</time></trkpt><trkpt lat="42.2303708" lon="13.8358426"><ele>825.5</ele><time>2026-05-02T09:49:21.037Z</time></trkpt><trkpt lat="42.230469" lon="13.835744"><ele>823.25</ele><time>2026-05-02T09:49:22.037Z</time></trkpt><trkpt lat="42.2305706" lon="13.835651"><ele>821.0</ele><time>2026-05-02T09:49:23.037Z</time></trkpt><trkpt lat="42.2306704" lon="13.835565"><ele>821.0</ele><time>2026-05-02T09:49:24.037Z</time></trkpt><trkpt lat="42.2307782" lon="13.8354925"><ele>821.0</ele><time>2026-05-02T09:49:25.037Z</time></trkpt><trkpt lat="42.2308872" lon="13.8354217"><ele>821.0</ele><time>2026-05-02T09:49:26.037Z</time></trkpt><trkpt lat="42.2310001" lon="13.835357"><ele>821.0</ele><time>2026-05-02T09:49:27.037Z</time></trkpt><trkpt lat="42.2311195" lon="13.8353063"><ele>821.0</ele><time>2026-05-02T09:49:28.037Z</time></trkpt><trkpt lat="42.2312423" lon="13.8352687"><ele>821.0</ele><time>2026-05-02T09:49:29.038Z</time></trkpt><trkpt lat="42.2313626" lon="13.8352428"><ele>821.0</ele><time>2026-05-02T09:49:30.037Z</time></trkpt><trkpt lat="42.231481" lon="13.8352185"><ele>821.0</ele><time>2026-05-02T09:49:31.037Z</time></trkpt><trkpt lat="42.2315916" lon="13.8351943"><ele>822.6666666666667</ele><time>2026-05-02T09:49:32.038Z</time></trkpt><trkpt lat="42.2316953" lon="13.8351779"><ele>824.3333333333334</ele><time>2026-05-02T09:49:33.037Z</time></trkpt><trkpt lat="42.2317834" lon="13.8351631"><ele>826.0</ele><time>2026-05-02T09:49:34.037Z</time></trkpt><trkpt lat="42.2318523" lon="13.8351509"><ele>827.6666666666667</ele><time>2026-05-02T09:49:35.037Z</time></trkpt><trkpt lat="42.2319221" lon="13.8350895"><ele>829.3333333333334</ele><time>2026-05-02T09:49:37.038Z</time></trkpt><trkpt lat="42.2318874" lon="13.834999"><ele>831.0</ele><time>2026-05-02T09:49:39.037Z</time></trkpt><trkpt lat="42.2317712" lon="13.8349924"><ele>826.3333333333334</ele><time>2026-05-02T09:49:41.037Z</time></trkpt><trkpt lat="42.2316962" lon="13.8349995"><ele>821.6666666666667</ele><time>2026-05-02T09:49:42.037Z</time></trkpt><trkpt lat="42.2316155" lon="13.8349988"><ele>817.0</ele><time>2026-05-02T09:49:43.038Z</time></trkpt><trkpt lat="42.2315287" lon="13.8349887"><ele>812.3333333333334</ele><time>2026-05-02T09:49:44.037Z</time></trkpt><trkpt lat="42.2314407" lon="13.8349705"><ele>807.6666666666667</ele><time>2026-05-02T09:49:45.037Z</time></trkpt><trkpt lat="42.2313477" lon="13.8349497"><ele>803.0</ele><time>2026-05-02T09:49:46.037Z</time></trkpt><trkpt lat="42.2312532" lon="13.8349266"><ele>800.8</ele><time>2026-05-02T09:49:47.038Z</time></trkpt><trkpt lat="42.2311487" lon="13.8348995"><ele>798.5999999999999</ele><time>2026-05-02T09:49:48.037Z</time></trkpt><trkpt lat="42.2310369" lon="13.8348863"><ele>796.4000000000001</ele><time>2026-05-02T09:49:49.038Z</time></trkpt><trkpt lat="42.2309248" lon="13.8348955"><ele>794.2</ele><time>2026-05-02T09:49:50.037Z</time></trkpt><trkpt lat="42.2308083" lon="13.8349206"><ele>792.0</ele><time>2026-05-02T09:49:51.037Z</time></trkpt><trkpt lat="42.2306772" lon="13.8349539"><ele>788.75</ele><time>2026-05-02T09:49:52.038Z</time></trkpt><trkpt lat="42.2305452" lon="13.8349883"><ele>785.5</ele><time>2026-05-02T09:49:53.037Z</time></trkpt><trkpt lat="42.2304193" lon="13.8350234"><ele>782.25</ele><time>2026-05-02T09:49:54.037Z</time></trkpt><trkpt lat="42.2303016" lon="13.8350583"><ele>779.0</ele><time>2026-05-02T09:49:55.038Z</time></trkpt><trkpt lat="42.2301815" lon="13.8350981"><ele>779.25</ele><time>2026-05-02T09:49:56.038Z</time></trkpt><trkpt lat="42.2300625" lon="13.8351402"><ele>779.5</ele><time>2026-05-02T09:49:57.037Z</time></trkpt><trkpt lat="42.2299409" lon="13.8351884"><ele>779.75</ele><time>2026-05-02T09:49:58.037Z</time></trkpt><trkpt lat="42.2298124" lon="13.8352298"><ele>780.0</ele><time>2026-05-02T09:49:59.037Z</time></trkpt><trkpt lat="42.229682" lon="13.8352788"><ele>780.0</ele><time>2026-05-02T09:50:00.037Z</time></trkpt><trkpt lat="42.229543" lon="13.8353446"><ele>780.0</ele><time>2026-05-02T09:50:01.037Z</time></trkpt><trkpt lat="42.2293963" lon="13.8354171"><ele>780.0</ele><time>2026-05-02T09:50:02.037Z</time></trkpt><trkpt lat="42.2292533" lon="13.8354931"><ele>780.0</ele><time>2026-05-02T09:50:03.037Z</time></trkpt><trkpt lat="42.2291222" lon="13.8355842"><ele>780.0</ele><time>2026-05-02T09:50:04.037Z</time></trkpt><trkpt lat="42.2290024" lon="13.8356805"><ele>780.0</ele><time>2026-05-02T09:50:05.037Z</time></trkpt><trkpt lat="42.2288851" lon="13.8357708"><ele>780.0</ele><time>2026-05-02T09:50:06.037Z</time></trkpt><trkpt lat="42.2287723" lon="13.835844"><ele>777.8</ele><time>2026-05-02T09:50:07.037Z</time></trkpt><trkpt lat="42.2286566" lon="13.8359037"><ele>775.6</ele><time>2026-05-02T09:50:08.037Z</time></trkpt><trkpt lat="42.2285497" lon="13.8359599"><ele>773.4000000000001</ele><time>2026-05-02T09:50:09.037Z</time></trkpt><trkpt lat="42.2284505" lon="13.8360095"><ele>771.2</ele><time>2026-05-02T09:50:10.037Z</time></trkpt><trkpt lat="42.2283649" lon="13.8360505"><ele>769.0</ele><time>2026-05-02T09:50:11.038Z</time></trkpt><trkpt lat="42.2282893" lon="13.8360654"><ele>769.8000000000001</ele><time>2026-05-02T09:50:12.037Z</time></trkpt><trkpt lat="42.2282151" lon="13.8360372"><ele>770.6</ele><time>2026-05-02T09:50:13.038Z</time></trkpt><trkpt lat="42.2281374" lon="13.8359803"><ele>771.4</ele><time>2026-05-02T09:50:14.037Z</time></trkpt><trkpt lat="42.2280455" lon="13.8359188"><ele>772.2</ele><time>2026-05-02T09:50:15.037Z</time></trkpt><trkpt lat="42.2279441" lon="13.8358548"><ele>773.0</ele><time>2026-05-02T09:50:16.037Z</time></trkpt><trkpt lat="42.2278327" lon="13.8357839"><ele>773.0</ele><time>2026-05-02T09:50:17.038Z</time></trkpt><trkpt lat="42.2277198" lon="13.8357119"><ele>773.0</ele><time>2026-05-02T09:50:18.037Z</time></trkpt><trkpt lat="42.2276036" lon="13.835637"><ele>773.0</ele><time>2026-05-02T09:50:19.038Z</time></trkpt><trkpt lat="42.2274952" lon="13.8355689"><ele>773.0</ele><time>2026-05-02T09:50:20.037Z</time></trkpt><trkpt lat="42.2273909" lon="13.835505"><ele>772.0</ele><time>2026-05-02T09:50:21.037Z</time></trkpt><trkpt lat="42.2272939" lon="13.8354551"><ele>771.0</ele><time>2026-05-02T09:50:22.037Z</time></trkpt><trkpt lat="42.2272061" lon="13.8354084"><ele>770.0</ele><time>2026-05-02T09:50:23.037Z</time></trkpt><trkpt lat="42.2271158" lon="13.8353788"><ele>769.0</ele><time>2026-05-02T09:50:24.037Z</time></trkpt><trkpt lat="42.2270334" lon="13.8353592"><ele>768.0</ele><time>2026-05-02T09:50:25.037Z</time></trkpt><trkpt lat="42.2269584" lon="13.8353498"><ele>768.0</ele><time>2026-05-02T09:50:26.038Z</time></trkpt><trkpt lat="42.2268717" lon="13.835362"><ele>768.0</ele><time>2026-05-02T09:50:27.037Z</time></trkpt><trkpt lat="42.2267765" lon="13.8353812"><ele>768.0</ele><time>2026-05-02T09:50:28.037Z</time></trkpt><trkpt lat="42.226674" lon="13.8354068"><ele>768.0</ele><time>2026-05-02T09:50:29.038Z</time></trkpt><trkpt lat="42.2265688" lon="13.8354373"><ele>768.0</ele><time>2026-05-02T09:50:30.037Z</time></trkpt><trkpt lat="42.2264578" lon="13.8354751"><ele>763.5</ele><time>2026-05-02T09:50:31.037Z</time></trkpt><trkpt lat="42.2263445" lon="13.835513"><ele>759.0</ele><time>2026-05-02T09:50:32.037Z</time></trkpt><trkpt lat="42.2262326" lon="13.8355543"><ele>754.5</ele><time>2026-05-02T09:50:33.037Z</time></trkpt><trkpt lat="42.2261268" lon="13.8355947"><ele>750.0</ele><time>2026-05-02T09:50:34.037Z</time></trkpt><trkpt lat="42.2260165" lon="13.8356348"><ele>750.0</ele><time>2026-05-02T09:50:35.037Z</time></trkpt><trkpt lat="42.2259104" lon="13.8356836"><ele>750.0</ele><time>2026-05-02T09:50:36.037Z</time></trkpt><trkpt lat="42.2258079" lon="13.8357347"><ele>750.0</ele><time>2026-05-02T09:50:37.037Z</time></trkpt><trkpt lat="42.2257021" lon="13.8357941"><ele>750.0</ele><time>2026-05-02T09:50:38.037Z</time></trkpt><trkpt lat="42.2256017" lon="13.8358545"><ele>750.0</ele><time>2026-05-02T09:50:39.037Z</time></trkpt><trkpt lat="42.2255015" lon="13.8359177"><ele>748.0</ele><time>2026-05-02T09:50:40.037Z</time></trkpt><trkpt lat="42.2254054" lon="13.8359922"><ele>746.0</ele><time>2026-05-02T09:50:41.037Z</time></trkpt><trkpt lat="42.2253106" lon="13.8360738"><ele>744.0</ele><time>2026-05-02T09:50:42.037Z</time></trkpt><trkpt lat="42.2252146" lon="13.8361682"><ele>742.0</ele><time>2026-05-02T09:50:43.037Z</time></trkpt><trkpt lat="42.2251145" lon="13.836261"><ele>742.0</ele><time>2026-05-02T09:50:44.037Z</time></trkpt><trkpt lat="42.2250108" lon="13.8363468"><ele>742.0</ele><time>2026-05-02T09:50:45.037Z</time></trkpt><trkpt lat="42.2249037" lon="13.8364303"><ele>742.0</ele><time>2026-05-02T09:50:46.037Z</time></trkpt><trkpt lat="42.2248003" lon="13.8365172"><ele>742.0</ele><time>2026-05-02T09:50:47.037Z</time></trkpt><trkpt lat="42.2247001" lon="13.8366192"><ele>737.5</ele><time>2026-05-02T09:50:48.038Z</time></trkpt><trkpt lat="42.2246122" lon="13.8367292"><ele>733.0</ele><time>2026-05-02T09:50:49.037Z</time></trkpt><trkpt lat="42.2245377" lon="13.8368581"><ele>728.5</ele><time>2026-05-02T09:50:50.037Z</time></trkpt><trkpt lat="42.2244724" lon="13.8369905"><ele>724.0</ele><time>2026-05-02T09:50:51.037Z</time></trkpt><trkpt lat="42.2244061" lon="13.8371251"><ele>724.0</ele><time>2026-05-02T09:50:52.038Z</time></trkpt><trkpt lat="42.2243315" lon="13.8372518"><ele>724.0</ele><time>2026-05-02T09:50:53.037Z</time></trkpt><trkpt lat="42.2242549" lon="13.8373683"><ele>724.0</ele><time>2026-05-02T09:50:54.037Z</time></trkpt><trkpt lat="42.2241847" lon="13.8374879"><ele>724.0</ele><time>2026-05-02T09:50:55.037Z</time></trkpt><trkpt lat="42.2241186" lon="13.8376188"><ele>726.6</ele><time>2026-05-02T09:50:56.037Z</time></trkpt><trkpt lat="42.2240557" lon="13.8377499"><ele>729.2</ele><time>2026-05-02T09:50:57.037Z</time></trkpt><trkpt lat="42.2239961" lon="13.8378758"><ele>731.8000000000001</ele><time>2026-05-02T09:50:58.037Z</time></trkpt><trkpt lat="42.2239321" lon="13.8379904"><ele>734.4000000000001</ele><time>2026-05-02T09:50:59.038Z</time></trkpt><trkpt lat="42.2238694" lon="13.8380931"><ele>737.0</ele><time>2026-05-02T09:51:00.037Z</time></trkpt><trkpt lat="42.2237981" lon="13.8381848"><ele>736.0</ele><time>2026-05-02T09:51:01.037Z</time></trkpt><trkpt lat="42.2237226" lon="13.8382641"><ele>735.0</ele><time>2026-05-02T09:51:02.037Z</time></trkpt><trkpt lat="42.2236396" lon="13.8383397"><ele>734.0</ele><time>2026-05-02T09:51:03.037Z</time></trkpt><trkpt lat="42.2235531" lon="13.8384092"><ele>733.0</ele><time>2026-05-02T09:51:04.037Z</time></trkpt><trkpt lat="42.2234596" lon="13.8384728"><ele>732.0</ele><time>2026-05-02T09:51:05.038Z</time></trkpt><trkpt lat="42.2233643" lon="13.8385302"><ele>732.0</ele><time>2026-05-02T09:51:06.037Z</time></trkpt><trkpt lat="42.2232688" lon="13.8385801"><ele>732.0</ele><time>2026-05-02T09:51:07.037Z</time></trkpt><trkpt lat="42.2231699" lon="13.8386187"><ele>732.0</ele><time>2026-05-02T09:51:08.038Z</time></trkpt><trkpt lat="42.2230625" lon="13.8386562"><ele>732.0</ele><time>2026-05-02T09:51:09.038Z</time></trkpt><trkpt lat="42.222951" lon="13.8386968"><ele>732.0</ele><time>2026-05-02T09:51:10.037Z</time></trkpt><trkpt lat="42.2228391" lon="13.8387324"><ele>726.5</ele><time>2026-05-02T09:51:11.038Z</time></trkpt><trkpt lat="42.2227274" lon="13.8387807"><ele>721.0</ele><time>2026-05-02T09:51:12.037Z</time></trkpt><trkpt lat="42.2226188" lon="13.8388271"><ele>715.5</ele><time>2026-05-02T09:51:13.037Z</time></trkpt><trkpt lat="42.2225133" lon="13.8388825"><ele>710.0</ele><time>2026-05-02T09:51:14.038Z</time></trkpt><trkpt lat="42.2224093" lon="13.8389453"><ele>708.4</ele><time>2026-05-02T09:51:15.037Z</time></trkpt><trkpt lat="42.2223074" lon="13.8390229"><ele>706.8</ele><time>2026-05-02T09:51:16.037Z</time></trkpt><trkpt lat="42.2222174" lon="13.8391142"><ele>705.2</ele><time>2026-05-02T09:51:17.038Z</time></trkpt><trkpt lat="42.2221465" lon="13.8392012"><ele>703.6</ele><time>2026-05-02T09:51:18.037Z</time></trkpt><trkpt lat="42.2220879" lon="13.8392725"><ele>702.0</ele><time>2026-05-02T09:51:19.037Z</time></trkpt><trkpt lat="42.2219893" lon="13.8393191"><ele>698.6</ele><time>2026-05-02T09:51:21.037Z</time></trkpt><trkpt lat="42.2219505" lon="13.8391955"><ele>695.2</ele><time>2026-05-02T09:51:23.037Z</time></trkpt><trkpt lat="42.221992" lon="13.8390153"><ele>691.8</ele><time>2026-05-02T09:51:25.037Z</time></trkpt><trkpt lat="42.2220357" lon="13.8389042"><ele>688.4</ele><time>2026-05-02T09:51:26.038Z</time></trkpt><trkpt lat="42.222086" lon="13.8387766"><ele>685.0</ele><time>2026-05-02T09:51:27.037Z</time></trkpt><trkpt lat="42.2221373" lon="13.8386529"><ele>685.0</ele><time>2026-05-02T09:51:28.037Z</time></trkpt><trkpt lat="42.222195" lon="13.8385321"><ele>685.0</ele><time>2026-05-02T09:51:29.037Z</time></trkpt><trkpt lat="42.2222554" lon="13.8384143"><ele>685.0</ele><time>2026-05-02T09:51:30.038Z</time></trkpt><trkpt lat="42.222322" lon="13.8383074"><ele>685.0</ele><time>2026-05-02T09:51:31.037Z</time></trkpt><trkpt lat="42.2223918" lon="13.8382061"><ele>685.0</ele><time>2026-05-02T09:51:32.038Z</time></trkpt><trkpt lat="42.2224659" lon="13.8381013"><ele>686.8</ele><time>2026-05-02T09:51:33.038Z</time></trkpt><trkpt lat="42.2225429" lon="13.8379934"><ele>688.6</ele><time>2026-05-02T09:51:34.037Z</time></trkpt><trkpt lat="42.2226242" lon="13.8378882"><ele>690.4000000000001</ele><time>2026-05-02T09:51:35.037Z</time></trkpt><trkpt lat="42.2227021" lon="13.8377893"><ele>692.2</ele><time>2026-05-02T09:51:36.037Z</time></trkpt><trkpt lat="42.222777" lon="13.8376831"><ele>694.0</ele><time>2026-05-02T09:51:37.037Z</time></trkpt><trkpt lat="42.2228415" lon="13.8375767"><ele>689.2</ele><time>2026-05-02T09:51:38.037Z</time></trkpt><trkpt lat="42.2228973" lon="13.8374617"><ele>684.4000000000001</ele><time>2026-05-02T09:51:39.038Z</time></trkpt><trkpt lat="42.2229454" lon="13.8373435"><ele>679.6</ele><time>2026-05-02T09:51:40.037Z</time></trkpt><trkpt lat="42.2229804" lon="13.8372164"><ele>674.8</ele><time>2026-05-02T09:51:41.037Z</time></trkpt><trkpt lat="42.2230059" lon="13.8370846"><ele>670.0</ele><time>2026-05-02T09:51:42.037Z</time></trkpt><trkpt lat="42.2230302" lon="13.8369478"><ele>670.0</ele><time>2026-05-02T09:51:43.037Z</time></trkpt><trkpt lat="42.2230487" lon="13.8368085"><ele>670.0</ele><time>2026-05-02T09:51:44.037Z</time></trkpt><trkpt lat="42.2230592" lon="13.8366626"><ele>670.0</ele><time>2026-05-02T09:51:45.038Z</time></trkpt><trkpt lat="42.2230664" lon="13.8365215"><ele>670.0</ele><time>2026-05-02T09:51:46.038Z</time></trkpt><trkpt lat="42.223065" lon="13.8363925"><ele>670.0</ele><time>2026-05-02T09:51:47.038Z</time></trkpt><trkpt lat="42.223067" lon="13.8362723"><ele>668.0</ele><time>2026-05-02T09:51:48.037Z</time></trkpt><trkpt lat="42.2230707" lon="13.8361707"><ele>666.0</ele><time>2026-05-02T09:51:49.038Z</time></trkpt><trkpt lat="42.223048" lon="13.8360296"><ele>664.0</ele><time>2026-05-02T09:51:51.037Z</time></trkpt><trkpt lat="42.2229569" lon="13.8360285"><ele>662.0</ele><time>2026-05-02T09:51:53.037Z</time></trkpt><trkpt lat="42.2229055" lon="13.836088"><ele>660.0</ele><time>2026-05-02T09:51:54.038Z</time></trkpt><trkpt lat="42.2228573" lon="13.8361777"><ele>658.0</ele><time>2026-05-02T09:51:55.037Z</time></trkpt><trkpt lat="42.2228096" lon="13.836281"><ele>658.0</ele><time>2026-05-02T09:51:56.037Z</time></trkpt><trkpt lat="42.2227554" lon="13.83639"><ele>658.0</ele><time>2026-05-02T09:51:57.037Z</time></trkpt><trkpt lat="42.2227051" lon="13.8365009"><ele>658.0</ele><time>2026-05-02T09:51:58.037Z</time></trkpt><trkpt lat="42.2226527" lon="13.8365978"><ele>658.0</ele><time>2026-05-02T09:51:59.037Z</time></trkpt><trkpt lat="42.2225882" lon="13.8366836"><ele>658.0</ele><time>2026-05-02T09:52:00.037Z</time></trkpt><trkpt lat="42.2225164" lon="13.8367529"><ele>657.8</ele><time>2026-05-02T09:52:01.037Z</time></trkpt><trkpt lat="42.2224385" lon="13.8368103"><ele>657.5999999999999</ele><time>2026-05-02T09:52:02.037Z</time></trkpt><trkpt lat="42.2223527" lon="13.8368725"><ele>657.4000000000001</ele><time>2026-05-02T09:52:03.038Z</time></trkpt><trkpt lat="42.2222591" lon="13.8369316"><ele>657.2</ele><time>2026-05-02T09:52:04.037Z</time></trkpt><trkpt lat="42.2221609" lon="13.8369902"><ele>657.0</ele><time>2026-05-02T09:52:05.037Z</time></trkpt><trkpt lat="42.2220558" lon="13.8370529"><ele>657.0</ele><time>2026-05-02T09:52:06.037Z</time></trkpt><trkpt lat="42.221946" lon="13.8371222"><ele>657.0</ele><time>2026-05-02T09:52:07.037Z</time></trkpt><trkpt lat="42.2218297" lon="13.8371887"><ele>657.0</ele><time>2026-05-02T09:52:08.037Z</time></trkpt><trkpt lat="42.2217104" lon="13.8372561"><ele>657.0</ele><time>2026-05-02T09:52:09.037Z</time></trkpt><trkpt lat="42.2215983" lon="13.8373228"><ele>657.0</ele><time>2026-05-02T09:52:10.037Z</time></trkpt><trkpt lat="42.221497" lon="13.8373835"><ele>657.0</ele><time>2026-05-02T09:52:11.037Z</time></trkpt><trkpt lat="42.2214123" lon="13.8374317"><ele>657.0</ele><time>2026-05-02T09:52:12.037Z</time></trkpt><trkpt lat="42.2213418" lon="13.8374715"><ele>657.0</ele><time>2026-05-02T09:52:13.038Z</time></trkpt><trkpt lat="42.2212801" lon="13.8374991"><ele>657.0</ele><time>2026-05-02T09:52:14.037Z</time></trkpt><trkpt lat="42.2211938" lon="13.8374794"><ele>657.0</ele><time>2026-05-02T09:52:16.037Z</time></trkpt><trkpt lat="42.2212266" lon="13.8373613"><ele>657.0</ele><time>2026-05-02T09:52:18.037Z</time></trkpt><trkpt lat="42.2212789" lon="13.8372923"><ele>657.0</ele><time>2026-05-02T09:52:19.037Z</time></trkpt><trkpt lat="42.2213576" lon="13.8372073"><ele>657.0</ele><time>2026-05-02T09:52:20.037Z</time></trkpt><trkpt lat="42.2214473" lon="13.8371044"><ele>657.0</ele><time>2026-05-02T09:52:21.037Z</time></trkpt><trkpt lat="42.2215409" lon="13.8369891"><ele>657.0</ele><time>2026-05-02T09:52:22.037Z</time></trkpt><trkpt lat="42.2216355" lon="13.836866"><ele>653.0</ele><time>2026-05-02T09:52:23.038Z</time></trkpt><trkpt lat="42.2217293" lon="13.8367443"><ele>649.0</ele><time>2026-05-02T09:52:24.038Z</time></trkpt><trkpt lat="42.2218118" lon="13.8366146"><ele>645.0</ele><time>2026-05-02T09:52:25.037Z</time></trkpt><trkpt lat="42.2218862" lon="13.8364746"><ele>641.0</ele><time>2026-05-02T09:52:26.038Z</time></trkpt><trkpt lat="42.2219513" lon="13.8363411"><ele>641.0</ele><time>2026-05-02T09:52:27.037Z</time></trkpt><trkpt lat="42.222009" lon="13.8362318"><ele>641.0</ele><time>2026-05-02T09:52:28.037Z</time></trkpt><trkpt lat="42.2220622" lon="13.8361401"><ele>641.0</ele><time>2026-05-02T09:52:29.037Z</time></trkpt><trkpt lat="42.222093" lon="13.8360645"><ele>641.0</ele><time>2026-05-02T09:52:30.038Z</time></trkpt><trkpt lat="42.2220539" lon="13.8359593"><ele>641.0</ele><time>2026-05-02T09:52:32.037Z</time></trkpt><trkpt lat="42.2219381" lon="13.8360263"><ele>641.0</ele><time>2026-05-02T09:52:34.037Z</time></trkpt><trkpt lat="42.2218652" lon="13.836121"><ele>641.0</ele><time>2026-05-02T09:52:35.037Z</time></trkpt><trkpt lat="42.2217733" lon="13.8362184"><ele>641.0</ele><time>2026-05-02T09:52:36.038Z</time></trkpt><trkpt lat="42.221683" lon="13.8363143"><ele>641.0</ele><time>2026-05-02T09:52:37.037Z</time></trkpt><trkpt lat="42.2215886" lon="13.8364057"><ele>641.0</ele><time>2026-05-02T09:52:38.037Z</time></trkpt><trkpt lat="42.2214917" lon="13.8364951"><ele>633.75</ele><time>2026-05-02T09:52:39.037Z</time></trkpt><trkpt lat="42.2213889" lon="13.8365776"><ele>626.5</ele><time>2026-05-02T09:52:40.037Z</time></trkpt><trkpt lat="42.2212841" lon="13.8366531"><ele>619.25</ele><time>2026-05-02T09:52:41.037Z</time></trkpt><trkpt lat="42.2211871" lon="13.8367281"><ele>612.0</ele><time>2026-05-02T09:52:42.037Z</time></trkpt><trkpt lat="42.2210893" lon="13.8368002"><ele>615.4</ele><time>2026-05-02T09:52:43.037Z</time></trkpt><trkpt lat="42.2209907" lon="13.8368781"><ele>618.8000000000001</ele><time>2026-05-02T09:52:44.037Z</time></trkpt><trkpt lat="42.2209054" lon="13.8369699"><ele>622.2</ele><time>2026-05-02T09:52:45.038Z</time></trkpt><trkpt lat="42.2208255" lon="13.8370732"><ele>625.6</ele><time>2026-05-02T09:52:46.037Z</time></trkpt><trkpt lat="42.2207521" lon="13.8371868"><ele>629.0</ele><time>2026-05-02T09:52:47.037Z</time></trkpt><trkpt lat="42.2206767" lon="13.8372988"><ele>618.25</ele><time>2026-05-02T09:52:48.038Z</time></trkpt><trkpt lat="42.2206079" lon="13.8374214"><ele>607.5</ele><time>2026-05-02T09:52:49.037Z</time></trkpt><trkpt lat="42.2205457" lon="13.8375581"><ele>596.75</ele><time>2026-05-02T09:52:50.037Z</time></trkpt><trkpt lat="42.2204923" lon="13.8377042"><ele>586.0</ele><time>2026-05-02T09:52:51.037Z</time></trkpt><trkpt lat="42.2204402" lon="13.8378522"><ele>586.0</ele><time>2026-05-02T09:52:52.037Z</time></trkpt><trkpt lat="42.2203929" lon="13.8380075"><ele>586.0</ele><time>2026-05-02T09:52:53.038Z</time></trkpt><trkpt lat="42.2203521" lon="13.8381579"><ele>586.0</ele><time>2026-05-02T09:52:54.038Z</time></trkpt><trkpt lat="42.2203175" lon="13.8383068"><ele>586.0</ele><time>2026-05-02T09:52:55.037Z</time></trkpt><trkpt lat="42.220289" lon="13.8384422"><ele>588.1666666666667</ele><time>2026-05-02T09:52:56.037Z</time></trkpt><trkpt lat="42.2202777" lon="13.8385662"><ele>590.3333333333334</ele><time>2026-05-02T09:52:57.038Z</time></trkpt><trkpt lat="42.2202877" lon="13.8386807"><ele>592.5</ele><time>2026-05-02T09:52:58.037Z</time></trkpt><trkpt lat="42.220296" lon="13.8387906"><ele>594.6666666666666</ele><time>2026-05-02T09:52:59.037Z</time></trkpt><trkpt lat="42.2202755" lon="13.8388859"><ele>596.8333333333333</ele><time>2026-05-02T09:53:00.037Z</time></trkpt><trkpt lat="42.2202299" lon="13.8389784"><ele>599.0</ele><time>2026-05-02T09:53:01.037Z</time></trkpt><trkpt lat="42.2201687" lon="13.8390863"><ele>599.0</ele><time>2026-05-02T09:53:02.038Z</time></trkpt><trkpt lat="42.2201087" lon="13.8392042"><ele>599.0</ele><time>2026-05-02T09:53:03.037Z</time></trkpt><trkpt lat="42.2200453" lon="13.8393265"><ele>599.0</ele><time>2026-05-02T09:53:04.037Z</time></trkpt><trkpt lat="42.2199766" lon="13.8394482"><ele>599.0</ele><time>2026-05-02T09:53:05.037Z</time></trkpt><trkpt lat="42.2199003" lon="13.8395617"><ele>599.0</ele><time>2026-05-02T09:53:06.037Z</time></trkpt><trkpt lat="42.2198139" lon="13.8396767"><ele>599.75</ele><time>2026-05-02T09:53:07.037Z</time></trkpt><trkpt lat="42.2197259" lon="13.8397974"><ele>600.5</ele><time>2026-05-02T09:53:08.037Z</time></trkpt><trkpt lat="42.2196353" lon="13.8399168"><ele>601.25</ele><time>2026-05-02T09:53:09.037Z</time></trkpt><trkpt lat="42.2195471" lon="13.840034"><ele>602.0</ele><time>2026-05-02T09:53:10.038Z</time></trkpt><trkpt lat="42.2194578" lon="13.8401505"><ele>602.0</ele><time>2026-05-02T09:53:11.038Z</time></trkpt><trkpt lat="42.2193732" lon="13.8402671"><ele>602.0</ele><time>2026-05-02T09:53:12.038Z</time></trkpt><trkpt lat="42.2192996" lon="13.8403783"><ele>602.0</ele><time>2026-05-02T09:53:13.037Z</time></trkpt><trkpt lat="42.2192423" lon="13.8404736"><ele>602.0</ele><time>2026-05-02T09:53:14.038Z</time></trkpt><trkpt lat="42.2191921" lon="13.8405537"><ele>602.0</ele><time>2026-05-02T09:53:15.037Z</time></trkpt><trkpt lat="42.2191043" lon="13.8406521"><ele>602.0</ele><time>2026-05-02T09:53:17.037Z</time></trkpt><trkpt lat="42.2190344" lon="13.8406044"><ele>602.0</ele><time>2026-05-02T09:53:19.037Z</time></trkpt><trkpt lat="42.219067" lon="13.8404578"><ele>602.0</ele><time>2026-05-02T09:53:21.038Z</time></trkpt><trkpt lat="42.2191315" lon="13.8403508"><ele>602.0</ele><time>2026-05-02T09:53:22.037Z</time></trkpt><trkpt lat="42.2191938" lon="13.8402298"><ele>602.0</ele><time>2026-05-02T09:53:23.037Z</time></trkpt><trkpt lat="42.21926" lon="13.8400843"><ele>594.75</ele><time>2026-05-02T09:53:24.037Z</time></trkpt><trkpt lat="42.2193206" lon="13.839923"><ele>587.5</ele><time>2026-05-02T09:53:25.037Z</time></trkpt><trkpt lat="42.2193858" lon="13.8397574"><ele>580.25</ele><time>2026-05-02T09:53:26.038Z</time></trkpt><trkpt lat="42.2194499" lon="13.8395947"><ele>573.0</ele><time>2026-05-02T09:53:27.038Z</time></trkpt><trkpt lat="42.2195067" lon="13.8394347"><ele>569.0</ele><time>2026-05-02T09:53:28.037Z</time></trkpt><trkpt lat="42.2195599" lon="13.8392906"><ele>565.0</ele><time>2026-05-02T09:53:29.037Z</time></trkpt><trkpt lat="42.2196138" lon="13.8391637"><ele>561.0</ele><time>2026-05-02T09:53:30.038Z</time></trkpt><trkpt lat="42.2196651" lon="13.839044"><ele>557.0</ele><time>2026-05-02T09:53:31.037Z</time></trkpt><trkpt lat="42.2197105" lon="13.8389302"><ele>553.0</ele><time>2026-05-02T09:53:32.037Z</time></trkpt><trkpt lat="42.2197463" lon="13.8388205"><ele>553.0</ele><time>2026-05-02T09:53:33.037Z</time></trkpt><trkpt lat="42.2197569" lon="13.8387016"><ele>553.0</ele><time>2026-05-02T09:53:34.037Z</time></trkpt><trkpt lat="42.219744" lon="13.8385862"><ele>553.0</ele><time>2026-05-02T09:53:35.037Z</time></trkpt><trkpt lat="42.2197169" lon="13.8384548"><ele>553.0</ele><time>2026-05-02T09:53:36.037Z</time></trkpt><trkpt lat="42.219692" lon="13.8383097"><ele>553.0</ele><time>2026-05-02T09:53:37.037Z</time></trkpt><trkpt lat="42.2196795" lon="13.8381517"><ele>548.25</ele><time>2026-05-02T09:53:38.037Z</time></trkpt><trkpt lat="42.219677" lon="13.837986"><ele>543.5</ele><time>2026-05-02T09:53:39.037Z</time></trkpt><trkpt lat="42.2196675" lon="13.8378203"><ele>538.75</ele><time>2026-05-02T09:53:40.037Z</time></trkpt><trkpt lat="42.2196595" lon="13.8376635"><ele>534.0</ele><time>2026-05-02T09:53:41.038Z</time></trkpt><trkpt lat="42.2196573" lon="13.8375065"><ele>532.2</ele><time>2026-05-02T09:53:42.037Z</time></trkpt><trkpt lat="42.2196678" lon="13.8373498"><ele>530.4</ele><time>2026-05-02T09:53:43.037Z</time></trkpt><trkpt lat="42.2196887" lon="13.8372017"><ele>528.6</ele><time>2026-05-02T09:53:44.038Z</time></trkpt><trkpt lat="42.2197142" lon="13.8370595"><ele>526.8</ele><time>2026-05-02T09:53:45.038Z</time></trkpt><trkpt lat="42.2197373" lon="13.836917"><ele>525.0</ele><time>2026-05-02T09:53:46.038Z</time></trkpt><trkpt lat="42.2197638" lon="13.8367759"><ele>522.2</ele><time>2026-05-02T09:53:47.037Z</time></trkpt><trkpt lat="42.2197966" lon="13.8366464"><ele>519.4</ele><time>2026-05-02T09:53:48.037Z</time></trkpt><trkpt lat="42.2198365" lon="13.8365148"><ele>516.6</ele><time>2026-05-02T09:53:49.038Z</time></trkpt><trkpt lat="42.2198845" lon="13.8363878"><ele>513.8</ele><time>2026-05-02T09:53:50.037Z</time></trkpt><trkpt lat="42.2199344" lon="13.8362592"><ele>511.0</ele><time>2026-05-02T09:53:51.037Z</time></trkpt><trkpt lat="42.2199866" lon="13.8361385"><ele>515.1666666666667</ele><time>2026-05-02T09:53:52.037Z</time></trkpt><trkpt lat="42.2200401" lon="13.8360415"><ele>519.3333333333334</ele><time>2026-05-02T09:53:53.037Z</time></trkpt><trkpt lat="42.2200976" lon="13.8359638"><ele>523.5</ele><time>2026-05-02T09:53:54.038Z</time></trkpt><trkpt lat="42.2201345" lon="13.8358554"><ele>527.6666666666666</ele><time>2026-05-02T09:53:56.038Z</time></trkpt><trkpt lat="42.2200669" lon="13.835832"><ele>531.8333333333333</ele><time>2026-05-02T09:53:58.037Z</time></trkpt><trkpt lat="42.2199686" lon="13.8359013"><ele>536.0</ele><time>2026-05-02T09:54:00.038Z</time></trkpt><trkpt lat="42.2199164" lon="13.8359563"><ele>541.0</ele><time>2026-05-02T09:54:01.037Z</time></trkpt><trkpt lat="42.2198619" lon="13.836024"><ele>546.0</ele><time>2026-05-02T09:54:02.037Z</time></trkpt><trkpt lat="42.2198006" lon="13.8361082"><ele>551.0</ele><time>2026-05-02T09:54:03.037Z</time></trkpt><trkpt lat="42.2197385" lon="13.8362113"><ele>556.0</ele><time>2026-05-02T09:54:04.037Z</time></trkpt><trkpt lat="42.2196669" lon="13.8363285"><ele>561.0</ele><time>2026-05-02T09:54:05.037Z</time></trkpt><trkpt lat="42.2195951" lon="13.8364562"><ele>552.0</ele><time>2026-05-02T09:54:06.038Z</time></trkpt><trkpt lat="42.2195228" lon="13.8365842"><ele>543.0</ele><time>2026-05-02T09:54:07.037Z</time></trkpt><trkpt lat="42.2194549" lon="13.8367239"><ele>534.0</ele><time>2026-05-02T09:54:08.037Z</time></trkpt><trkpt lat="42.2193852" lon="13.8368637"><ele>525.0</ele><time>2026-05-02T09:54:09.038Z</time></trkpt><trkpt lat="42.2193155" lon="13.837009"><ele>525.0</ele><time>2026-05-02T09:54:10.037Z</time></trkpt><trkpt lat="42.219249" lon="13.8371554"><ele>525.0</ele><time>2026-05-02T09:54:11.037Z</time></trkpt><trkpt lat="42.2191871" lon="13.8372983"><ele>525.0</ele><time>2026-05-02T09:54:12.037Z</time></trkpt><trkpt lat="42.2191321" lon="13.8374503"><ele>525.0</ele><time>2026-05-02T09:54:13.037Z</time></trkpt><trkpt lat="42.2190847" lon="13.837609"><ele>527.25</ele><time>2026-05-02T09:54:14.037Z</time></trkpt><trkpt lat="42.2190527" lon="13.8377668"><ele>529.5</ele><time>2026-05-02T09:54:15.037Z</time></trkpt><trkpt lat="42.2190302" lon="13.8379275"><ele>531.75</ele><time>2026-05-02T09:54:16.037Z</time></trkpt><trkpt lat="42.2190159" lon="13.8380766"><ele>534.0</ele><time>2026-05-02T09:54:17.037Z</time></trkpt><trkpt lat="42.2190042" lon="13.838216"><ele>528.2</ele><time>2026-05-02T09:54:18.037Z</time></trkpt><trkpt lat="42.2189784" lon="13.838342"><ele>522.4</ele><time>2026-05-02T09:54:19.037Z</time></trkpt><trkpt lat="42.2189298" lon="13.8384471"><ele>516.6</ele><time>2026-05-02T09:54:20.037Z</time></trkpt><trkpt lat="42.2188699" lon="13.8385294"><ele>510.8</ele><time>2026-05-02T09:54:21.037Z</time></trkpt><trkpt lat="42.2187959" lon="13.8386059"><ele>505.0</ele><time>2026-05-02T09:54:22.037Z</time></trkpt><trkpt lat="42.2187103" lon="13.8386903"><ele>505.0</ele><time>2026-05-02T09:54:23.037Z</time></trkpt><trkpt lat="42.2186192" lon="13.8387861"><ele>505.0</ele><time>2026-05-02T09:54:24.037Z</time></trkpt><trkpt lat="42.2185298" lon="13.8388936"><ele>505.0</ele><time>2026-05-02T09:54:25.038Z</time></trkpt><trkpt lat="42.2184386" lon="13.8390078"><ele>505.0</ele><time>2026-05-02T09:54:26.038Z</time></trkpt><trkpt lat="42.2183405" lon="13.8391246"><ele>505.0</ele><time>2026-05-02T09:54:27.037Z</time></trkpt><trkpt lat="42.2182455" lon="13.8392466"><ele>505.0</ele><time>2026-05-02T09:54:28.037Z</time></trkpt><trkpt lat="42.2181511" lon="13.8393669"><ele>505.0</ele><time>2026-05-02T09:54:29.037Z</time></trkpt><trkpt lat="42.2180572" lon="13.839488"><ele>505.0</ele><time>2026-05-02T09:54:30.037Z</time></trkpt><trkpt lat="42.2179641" lon="13.8396043"><ele>501.5</ele><time>2026-05-02T09:54:31.037Z</time></trkpt><trkpt lat="42.2178654" lon="13.8397207"><ele>498.0</ele><time>2026-05-02T09:54:32.038Z</time></trkpt><trkpt lat="42.2177661" lon="13.8398316"><ele>494.5</ele><time>2026-05-02T09:54:33.037Z</time></trkpt><trkpt lat="42.2176661" lon="13.8399388"><ele>491.0</ele><time>2026-05-02T09:54:34.037Z</time></trkpt><trkpt lat="42.217563" lon="13.8400405"><ele>488.25</ele><time>2026-05-02T09:54:35.037Z</time></trkpt><trkpt lat="42.2174559" lon="13.8401467"><ele>485.5</ele><time>2026-05-02T09:54:36.038Z</time></trkpt><trkpt lat="42.2173431" lon="13.8402532"><ele>482.75</ele><time>2026-05-02T09:54:37.037Z</time></trkpt><trkpt lat="42.2172352" lon="13.8403599"><ele>480.0</ele><time>2026-05-02T09:54:38.038Z</time></trkpt><trkpt lat="42.2171218" lon="13.840462"><ele>480.0</ele><time>2026-05-02T09:54:39.037Z</time></trkpt><trkpt lat="42.2170068" lon="13.8405521"><ele>480.0</ele><time>2026-05-02T09:54:40.037Z</time></trkpt><trkpt lat="42.2168862" lon="13.840634"><ele>480.0</ele><time>2026-05-02T09:54:41.038Z</time></trkpt><trkpt lat="42.2167759" lon="13.8407114"><ele>480.0</ele><time>2026-05-02T09:54:42.037Z</time></trkpt><trkpt lat="42.216666" lon="13.8407809"><ele>480.0</ele><time>2026-05-02T09:54:43.038Z</time></trkpt><trkpt lat="42.2165557" lon="13.84085"><ele>480.0</ele><time>2026-05-02T09:54:44.037Z</time></trkpt><trkpt lat="42.2164432" lon="13.8409152"><ele>480.0</ele><time>2026-05-02T09:54:45.037Z</time></trkpt><trkpt lat="42.216333" lon="13.8409802"><ele>480.0</ele><time>2026-05-02T09:54:46.037Z</time></trkpt><trkpt lat="42.216226" lon="13.8410463"><ele>477.5</ele><time>2026-05-02T09:54:47.038Z</time></trkpt><trkpt lat="42.2161177" lon="13.8411067"><ele>475.0</ele><time>2026-05-02T09:54:48.037Z</time></trkpt><trkpt lat="42.2160127" lon="13.8411582"><ele>472.5</ele><time>2026-05-02T09:54:49.037Z</time></trkpt><trkpt lat="42.215904" lon="13.8412085"><ele>470.0</ele><time>2026-05-02T09:54:50.038Z</time></trkpt><trkpt lat="42.2157927" lon="13.8412463"><ele>470.0</ele><time>2026-05-02T09:54:51.037Z</time></trkpt><trkpt lat="42.215685" lon="13.8412727"><ele>470.0</ele><time>2026-05-02T09:54:52.037Z</time></trkpt><trkpt lat="42.2155898" lon="13.8412765"><ele>470.0</ele><time>2026-05-02T09:54:53.037Z</time></trkpt><trkpt lat="42.2155068" lon="13.8412673"><ele>470.0</ele><time>2026-05-02T09:54:54.038Z</time></trkpt><trkpt lat="42.2154337" lon="13.8412216"><ele>470.0</ele><time>2026-05-02T09:54:55.037Z</time></trkpt><trkpt lat="42.2153728" lon="13.8411354"><ele>465.6</ele><time>2026-05-02T09:54:56.037Z</time></trkpt><trkpt lat="42.2153167" lon="13.8410108"><ele>461.2</ele><time>2026-05-02T09:54:57.038Z</time></trkpt><trkpt lat="42.2152619" lon="13.8408684"><ele>456.79999999999995</ele><time>2026-05-02T09:54:58.037Z</time></trkpt><trkpt lat="42.2152059" lon="13.8407274"><ele>452.4</ele><time>2026-05-02T09:54:59.037Z</time></trkpt><trkpt lat="42.2151654" lon="13.8406001"><ele>448.0</ele><time>2026-05-02T09:55:00.037Z</time></trkpt><trkpt lat="42.2151467" lon="13.8404962"><ele>446.83333333333337</ele><time>2026-05-02T09:55:01.037Z</time></trkpt><trkpt lat="42.2151484" lon="13.8403967"><ele>445.6666666666667</ele><time>2026-05-02T09:55:02.037Z</time></trkpt><trkpt lat="42.2151758" lon="13.8403092"><ele>444.5</ele><time>2026-05-02T09:55:03.037Z</time></trkpt><trkpt lat="42.2152335" lon="13.8402261"><ele>443.33333333333337</ele><time>2026-05-02T09:55:04.038Z</time></trkpt><trkpt lat="42.215317" lon="13.8401386"><ele>442.1666666666667</ele><time>2026-05-02T09:55:05.037Z</time></trkpt><trkpt lat="42.2154088" lon="13.8400546"><ele>441.0</ele><time>2026-05-02T09:55:06.037Z</time></trkpt><trkpt lat="42.2154999" lon="13.8399774"><ele>440.6666666666667</ele><time>2026-05-02T09:55:07.038Z</time></trkpt><trkpt lat="42.2155737" lon="13.8399147"><ele>440.33333333333337</ele><time>2026-05-02T09:55:08.037Z</time></trkpt><trkpt lat="42.2156285" lon="13.8398641"><ele>440.0</ele><time>2026-05-02T09:55:09.037Z</time></trkpt><trkpt lat="42.2157093" lon="13.8397808"><ele>439.6666666666667</ele><time>2026-05-02T09:55:11.037Z</time></trkpt><trkpt lat="42.2157635" lon="13.8397078"><ele>439.33333333333337</ele><time>2026-05-02T09:55:15.038Z</time></trkpt><trkpt lat="42.215817" lon="13.8396609"><ele>439.0</ele><time>2026-05-02T09:55:18.038Z</time></trkpt><trkpt lat="42.2158958" lon="13.8394908"><ele>438.0</ele><time>2026-05-02T10:00:00.037Z</time></trkpt><trkpt lat="42.2159485" lon="13.8393677"><ele>437.0</ele><time>2026-05-02T10:00:02.037Z</time></trkpt><trkpt lat="42.2160038" lon="13.8392284"><ele>436.0</ele><time>2026-05-02T10:00:04.037Z</time></trkpt><trkpt lat="42.2160383" lon="13.8391453"><ele>435.0</ele><time>2026-05-02T10:00:05.038Z</time></trkpt><trkpt lat="42.2160791" lon="13.8390502"><ele>434.0</ele><time>2026-05-02T10:00:06.037Z</time></trkpt><trkpt lat="42.216118" lon="13.8389528"><ele>433.99999999999994</ele><time>2026-05-02T10:00:07.037Z</time></trkpt><trkpt lat="42.2161565" lon="13.8388494"><ele>434.0</ele><time>2026-05-02T10:00:08.037Z</time></trkpt><trkpt lat="42.2161944" lon="13.8387434"><ele>434.0</ele><time>2026-05-02T10:00:09.037Z</time></trkpt><trkpt lat="42.2162321" lon="13.8386324"><ele>434.0</ele><time>2026-05-02T10:00:10.038Z</time></trkpt><trkpt lat="42.2162673" lon="13.8385181"><ele>433.99999999999994</ele><time>2026-05-02T10:00:11.037Z</time></trkpt><trkpt lat="42.2162982" lon="13.8384008"><ele>434.0</ele><time>2026-05-02T10:00:12.037Z</time></trkpt><trkpt lat="42.216326" lon="13.8382815"><ele>431.79999999999995</ele><time>2026-05-02T10:00:13.037Z</time></trkpt><trkpt lat="42.216356" lon="13.838162"><ele>429.59999999999997</ele><time>2026-05-02T10:00:14.037Z</time></trkpt><trkpt lat="42.2163841" lon="13.8380439"><ele>427.4</ele><time>2026-05-02T10:00:15.038Z</time></trkpt><trkpt lat="42.2164174" lon="13.8379175"><ele>425.2</ele><time>2026-05-02T10:00:16.038Z</time></trkpt><trkpt lat="42.2164486" lon="13.8377911"><ele>423.0</ele><time>2026-05-02T10:00:17.037Z</time></trkpt><trkpt lat="42.2164858" lon="13.8376454"><ele>423.0</ele><time>2026-05-02T10:00:18.037Z</time></trkpt><trkpt lat="42.2165202" lon="13.8374818"><ele>423.0</ele><time>2026-05-02T10:00:19.037Z</time></trkpt><trkpt lat="42.216559" lon="13.8373115"><ele>423.0</ele><time>2026-05-02T10:00:20.037Z</time></trkpt><trkpt lat="42.2166026" lon="13.8371419"><ele>423.0</ele><time>2026-05-02T10:00:21.037Z</time></trkpt><trkpt lat="42.2166427" lon="13.836964"><ele>420.0</ele><time>2026-05-02T10:00:22.037Z</time></trkpt><trkpt lat="42.2166834" lon="13.8367929"><ele>417.0</ele><time>2026-05-02T10:00:23.038Z</time></trkpt><trkpt lat="42.2167295" lon="13.8366263"><ele>414.0</ele><time>2026-05-02T10:00:24.037Z</time></trkpt><trkpt lat="42.2167852" lon="13.8364625"><ele>411.0</ele><time>2026-05-02T10:00:25.037Z</time></trkpt><trkpt lat="42.2168514" lon="13.8362944"><ele>411.0</ele><time>2026-05-02T10:00:26.037Z</time></trkpt><trkpt lat="42.2169293" lon="13.836122"><ele>411.0</ele><time>2026-05-02T10:00:27.037Z</time></trkpt><trkpt lat="42.2170132" lon="13.8359462"><ele>411.0</ele><time>2026-05-02T10:00:28.037Z</time></trkpt><trkpt lat="42.2171049" lon="13.835775"><ele>411.0</ele><time>2026-05-02T10:00:29.037Z</time></trkpt><trkpt lat="42.2171992" lon="13.8356082"><ele>411.0</ele><time>2026-05-02T10:00:30.037Z</time></trkpt><trkpt lat="42.2172938" lon="13.8354479"><ele>411.0</ele><time>2026-05-02T10:00:31.038Z</time></trkpt><trkpt lat="42.2173807" lon="13.8353"><ele>411.0</ele><time>2026-05-02T10:00:32.037Z</time></trkpt><trkpt lat="42.2174592" lon="13.8351643"><ele>408.0</ele><time>2026-05-02T10:00:33.038Z</time></trkpt><trkpt lat="42.2175208" lon="13.8350408"><ele>405.0</ele><time>2026-05-02T10:00:34.037Z</time></trkpt><trkpt lat="42.2175517" lon="13.8349126"><ele>402.0</ele><time>2026-05-02T10:00:35.037Z</time></trkpt><trkpt lat="42.2175593" lon="13.8347539"><ele>399.0</ele><time>2026-05-02T10:00:36.038Z</time></trkpt><trkpt lat="42.2175441" lon="13.8345696"><ele>399.0</ele><time>2026-05-02T10:00:37.037Z</time></trkpt><trkpt lat="42.217522" lon="13.8343645"><ele>399.0</ele><time>2026-05-02T10:00:38.037Z</time></trkpt><trkpt lat="42.217498" lon="13.8341407"><ele>399.0</ele><time>2026-05-02T10:00:39.037Z</time></trkpt><trkpt lat="42.2174723" lon="13.8339128"><ele>396.33333333333337</ele><time>2026-05-02T10:00:40.037Z</time></trkpt><trkpt lat="42.2174488" lon="13.8336895"><ele>393.6666666666667</ele><time>2026-05-02T10:00:41.037Z</time></trkpt><trkpt lat="42.2174249" lon="13.8334735"><ele>391.0</ele><time>2026-05-02T10:00:42.037Z</time></trkpt><trkpt lat="42.2174089" lon="13.8332697"><ele>389.0</ele><time>2026-05-02T10:00:43.038Z</time></trkpt><trkpt lat="42.2174006" lon="13.8330737"><ele>387.0</ele><time>2026-05-02T10:00:44.038Z</time></trkpt><trkpt lat="42.2174017" lon="13.8328737"><ele>385.0</ele><time>2026-05-02T10:00:45.037Z</time></trkpt><trkpt lat="42.2174126" lon="13.8326639"><ele>383.0</ele><time>2026-05-02T10:00:46.037Z</time></trkpt><trkpt lat="42.2174304" lon="13.8324443"><ele>380.6666666666667</ele><time>2026-05-02T10:00:47.038Z</time></trkpt><trkpt lat="42.2174477" lon="13.8322225"><ele>378.3333333333333</ele><time>2026-05-02T10:00:48.037Z</time></trkpt><trkpt lat="42.2174653" lon="13.8320033"><ele>376.0</ele><time>2026-05-02T10:00:49.037Z</time></trkpt><trkpt lat="42.2174816" lon="13.8317941"><ele>375.0</ele><time>2026-05-02T10:00:50.037Z</time></trkpt><trkpt lat="42.2174977" lon="13.8315942"><ele>374.0</ele><time>2026-05-02T10:00:51.037Z</time></trkpt><trkpt lat="42.2175221" lon="13.8314078"><ele>373.0</ele><time>2026-05-02T10:00:52.037Z</time></trkpt><trkpt lat="42.2175541" lon="13.8312142"><ele>372.0</ele><time>2026-05-02T10:00:53.037Z</time></trkpt><trkpt lat="42.2175976" lon="13.8310359"><ele>371.25</ele><time>2026-05-02T10:00:54.037Z</time></trkpt><trkpt lat="42.2176459" lon="13.8308693"><ele>370.5</ele><time>2026-05-02T10:00:55.037Z</time></trkpt><trkpt lat="42.2176992" lon="13.8307105"><ele>369.75</ele><time>2026-05-02T10:00:56.037Z</time></trkpt><trkpt lat="42.2177528" lon="13.8305597"><ele>369.0</ele><time>2026-05-02T10:00:57.037Z</time></trkpt><trkpt lat="42.217808" lon="13.830414"><ele>369.0</ele><time>2026-05-02T10:00:58.037Z</time></trkpt><trkpt lat="42.2178606" lon="13.8302704"><ele>369.0</ele><time>2026-05-02T10:00:59.037Z</time></trkpt><trkpt lat="42.2179175" lon="13.8301227"><ele>369.0</ele><time>2026-05-02T10:01:00.037Z</time></trkpt><trkpt lat="42.2179635" lon="13.8299644"><ele>369.0</ele><time>2026-05-02T10:01:01.037Z</time></trkpt><trkpt lat="42.2179979" lon="13.8297846"><ele>367.3333333333333</ele><time>2026-05-02T10:01:02.037Z</time></trkpt><trkpt lat="42.218011" lon="13.8295809"><ele>365.66666666666663</ele><time>2026-05-02T10:01:03.038Z</time></trkpt><trkpt lat="42.2180035" lon="13.8293688"><ele>364.0</ele><time>2026-05-02T10:01:04.038Z</time></trkpt><trkpt lat="42.2179867" lon="13.8291374"><ele>363.0</ele><time>2026-05-02T10:01:05.037Z</time></trkpt><trkpt lat="42.2179655" lon="13.8289003"><ele>362.0</ele><time>2026-05-02T10:01:06.038Z</time></trkpt><trkpt lat="42.2179488" lon="13.8286688"><ele>361.0</ele><time>2026-05-02T10:01:07.037Z</time></trkpt><trkpt lat="42.2179297" lon="13.8284479"><ele>359.3333333333333</ele><time>2026-05-02T10:01:08.037Z</time></trkpt><trkpt lat="42.2179114" lon="13.8282314"><ele>357.6666666666667</ele><time>2026-05-02T10:01:09.037Z</time></trkpt><trkpt lat="42.2178951" lon="13.8280135"><ele>356.0</ele><time>2026-05-02T10:01:10.037Z</time></trkpt><trkpt lat="42.2178813" lon="13.8277962"><ele>354.25</ele><time>2026-05-02T10:01:11.037Z</time></trkpt><trkpt lat="42.2178702" lon="13.8275873"><ele>352.5</ele><time>2026-05-02T10:01:12.038Z</time></trkpt><trkpt lat="42.217865" lon="13.8273871"><ele>350.75</ele><time>2026-05-02T10:01:13.037Z</time></trkpt><trkpt lat="42.2178613" lon="13.8272117"><ele>349.0</ele><time>2026-05-02T10:01:14.037Z</time></trkpt><trkpt lat="42.2178583" lon="13.8270607"><ele>349.0</ele><time>2026-05-02T10:01:15.037Z</time></trkpt><trkpt lat="42.2178412" lon="13.8269304"><ele>349.0</ele><time>2026-05-02T10:01:16.037Z</time></trkpt><trkpt lat="42.2177907" lon="13.8268229"><ele>349.0</ele><time>2026-05-02T10:01:17.037Z</time></trkpt><trkpt lat="42.2177105" lon="13.826729"><ele>349.0</ele><time>2026-05-02T10:01:18.038Z</time></trkpt><trkpt lat="42.2176086" lon="13.8266608"><ele>349.0</ele><time>2026-05-02T10:01:19.037Z</time></trkpt><trkpt lat="42.2175138" lon="13.8265939"><ele>347.8333333333333</ele><time>2026-05-02T10:01:20.037Z</time></trkpt><trkpt lat="42.2174344" lon="13.8265376"><ele>346.66666666666663</ele><time>2026-05-02T10:01:21.037Z</time></trkpt><trkpt lat="42.217377" lon="13.8264813"><ele>345.5</ele><time>2026-05-02T10:01:22.038Z</time></trkpt><trkpt lat="42.2173436" lon="13.8263645"><ele>344.3333333333333</ele><time>2026-05-02T10:01:24.037Z</time></trkpt><trkpt lat="42.2173656" lon="13.8262806"><ele>343.1666666666667</ele><time>2026-05-02T10:01:25.037Z</time></trkpt><trkpt lat="42.2174216" lon="13.8261585"><ele>342.0</ele><time>2026-05-02T10:01:26.037Z</time></trkpt><trkpt lat="42.217503" lon="13.8260429"><ele>339.8</ele><time>2026-05-02T10:01:27.037Z</time></trkpt><trkpt lat="42.2175913" lon="13.825922"><ele>337.6</ele><time>2026-05-02T10:01:28.037Z</time></trkpt><trkpt lat="42.2176641" lon="13.8258034"><ele>335.40000000000003</ele><time>2026-05-02T10:01:29.038Z</time></trkpt><trkpt lat="42.2177173" lon="13.8256933"><ele>333.20000000000005</ele><time>2026-05-02T10:01:30.037Z</time></trkpt><trkpt lat="42.2177489" lon="13.8255814"><ele>331.0</ele><time>2026-05-02T10:01:31.038Z</time></trkpt><trkpt lat="42.2177507" lon="13.8254579"><ele>331.0</ele><time>2026-05-02T10:01:32.037Z</time></trkpt><trkpt lat="42.2177191" lon="13.8253393"><ele>331.0</ele><time>2026-05-02T10:01:33.037Z</time></trkpt><trkpt lat="42.217664" lon="13.8252515"><ele>331.0</ele><time>2026-05-02T10:01:34.038Z</time></trkpt><trkpt lat="42.2175949" lon="13.8251883"><ele>331.0</ele><time>2026-05-02T10:01:35.037Z</time></trkpt><trkpt lat="42.2175049" lon="13.825163"><ele>331.0</ele><time>2026-05-02T10:01:36.038Z</time></trkpt><trkpt lat="42.2174026" lon="13.8251573"><ele>329.20000000000005</ele><time>2026-05-02T10:01:37.037Z</time></trkpt><trkpt lat="42.2173009" lon="13.8251443"><ele>327.40000000000003</ele><time>2026-05-02T10:01:38.037Z</time></trkpt><trkpt lat="42.2172214" lon="13.8251103"><ele>325.6</ele><time>2026-05-02T10:01:39.038Z</time></trkpt><trkpt lat="42.2171518" lon="13.8250518"><ele>323.8</ele><time>2026-05-02T10:01:40.037Z</time></trkpt><trkpt lat="42.2170822" lon="13.8249743"><ele>322.0</ele><time>2026-05-02T10:01:41.037Z</time></trkpt><trkpt lat="42.2170092" lon="13.824864"><ele>322.0</ele><time>2026-05-02T10:01:42.037Z</time></trkpt><trkpt lat="42.2169345" lon="13.8247165"><ele>322.0</ele><time>2026-05-02T10:01:43.037Z</time></trkpt><trkpt lat="42.2168631" lon="13.8245539"><ele>322.0</ele><time>2026-05-02T10:01:44.037Z</time></trkpt><trkpt lat="42.2167952" lon="13.8243842"><ele>322.0</ele><time>2026-05-02T10:01:45.037Z</time></trkpt><trkpt lat="42.2167225" lon="13.8242125"><ele>321.25</ele><time>2026-05-02T10:01:46.037Z</time></trkpt><trkpt lat="42.2166533" lon="13.8240461"><ele>320.5</ele><time>2026-05-02T10:01:47.037Z</time></trkpt><trkpt lat="42.2165857" lon="13.8238862"><ele>319.75</ele><time>2026-05-02T10:01:48.038Z</time></trkpt><trkpt lat="42.2165216" lon="13.8237307"><ele>319.0</ele><time>2026-05-02T10:01:49.037Z</time></trkpt><trkpt lat="42.216458" lon="13.8235828"><ele>317.5</ele><time>2026-05-02T10:01:50.037Z</time></trkpt><trkpt lat="42.2163962" lon="13.8234425"><ele>316.0</ele><time>2026-05-02T10:01:51.037Z</time></trkpt><trkpt lat="42.2163358" lon="13.8232994"><ele>314.5</ele><time>2026-05-02T10:01:52.037Z</time></trkpt><trkpt lat="42.2162777" lon="13.8231545"><ele>313.0</ele><time>2026-05-02T10:01:53.037Z</time></trkpt><trkpt lat="42.2162268" lon="13.8230242"><ele>313.0</ele><time>2026-05-02T10:01:54.037Z</time></trkpt><trkpt lat="42.2161791" lon="13.8229067"><ele>313.0</ele><time>2026-05-02T10:01:55.037Z</time></trkpt><trkpt lat="42.2161353" lon="13.822801"><ele>313.0</ele><time>2026-05-02T10:01:56.037Z</time></trkpt><trkpt lat="42.2160883" lon="13.8226947"><ele>313.0</ele><time>2026-05-02T10:01:57.038Z</time></trkpt><trkpt lat="42.2160418" lon="13.8225839"><ele>313.0</ele><time>2026-05-02T10:01:58.037Z</time></trkpt><trkpt lat="42.2159934" lon="13.8224836"><ele>313.3333333333333</ele><time>2026-05-02T10:01:59.037Z</time></trkpt><trkpt lat="42.2159347" lon="13.8224024"><ele>313.66666666666663</ele><time>2026-05-02T10:02:00.037Z</time></trkpt><trkpt lat="42.2158534" lon="13.8223585"><ele>314.0</ele><time>2026-05-02T10:02:01.038Z</time></trkpt><trkpt lat="42.2157712" lon="13.8223239"><ele>314.3333333333333</ele><time>2026-05-02T10:02:02.037Z</time></trkpt><trkpt lat="42.2156889" lon="13.8222983"><ele>314.6666666666667</ele><time>2026-05-02T10:02:03.037Z</time></trkpt><trkpt lat="42.2155998" lon="13.8222933"><ele>315.0</ele><time>2026-05-02T10:02:04.037Z</time></trkpt><trkpt lat="42.2155161" lon="13.8222965"><ele>315.3333333333333</ele><time>2026-05-02T10:02:05.038Z</time></trkpt><trkpt lat="42.2154314" lon="13.8223202"><ele>315.6666666666667</ele><time>2026-05-02T10:02:06.037Z</time></trkpt><trkpt lat="42.2153542" lon="13.8223545"><ele>316.0</ele><time>2026-05-02T10:02:07.037Z</time></trkpt><trkpt lat="42.2152819" lon="13.8223958"><ele>316.33333333333337</ele><time>2026-05-02T10:02:08.037Z</time></trkpt><trkpt lat="42.2152049" lon="13.822442"><ele>316.6666666666667</ele><time>2026-05-02T10:02:09.037Z</time></trkpt><trkpt lat="42.2151206" lon="13.8224911"><ele>317.0</ele><time>2026-05-02T10:02:10.038Z</time></trkpt><trkpt lat="42.2150345" lon="13.8225444"><ele>317.0</ele><time>2026-05-02T10:02:11.038Z</time></trkpt><trkpt lat="42.2149478" lon="13.8225982"><ele>317.0</ele><time>2026-05-02T10:02:12.037Z</time></trkpt><trkpt lat="42.2148632" lon="13.8226514"><ele>317.0</ele><time>2026-05-02T10:02:13.037Z</time></trkpt><trkpt lat="42.2147771" lon="13.8226983"><ele>317.0</ele><time>2026-05-02T10:02:14.037Z</time></trkpt><trkpt lat="42.2146945" lon="13.8227414"><ele>317.0</ele><time>2026-05-02T10:02:15.038Z</time></trkpt><trkpt lat="42.2146243" lon="13.822774"><ele>317.0</ele><time>2026-05-02T10:02:16.037Z</time></trkpt><trkpt lat="42.2145058" lon="13.8227795"><ele>317.0</ele><time>2026-05-02T10:02:18.038Z</time></trkpt><trkpt lat="42.2143804" lon="13.8227261"><ele>317.0</ele><time>2026-05-02T10:02:20.038Z</time></trkpt><trkpt lat="42.2143219" lon="13.8226795"><ele>317.0</ele><time>2026-05-02T10:02:21.037Z</time></trkpt><trkpt lat="42.2142667" lon="13.8226306"><ele>317.0</ele><time>2026-05-02T10:02:22.037Z</time></trkpt><trkpt lat="42.2142106" lon="13.8225661"><ele>317.0</ele><time>2026-05-02T10:02:23.036Z</time></trkpt><trkpt lat="42.2141608" lon="13.8224927"><ele>317.0</ele><time>2026-05-02T10:02:24.036Z</time></trkpt><trkpt lat="42.2141172" lon="13.8224146"><ele>317.0</ele><time>2026-05-02T10:02:25.037Z</time></trkpt><trkpt lat="42.2140779" lon="13.8223408"><ele>317.0</ele><time>2026-05-02T10:02:26.036Z</time></trkpt><trkpt lat="42.2140374" lon="13.8222274"><ele>317.0</ele><time>2026-05-02T10:02:28.037Z</time></trkpt><trkpt lat="42.2140294" lon="13.8221219"><ele>317.0</ele><time>2026-05-02T10:02:30.036Z</time></trkpt><trkpt lat="42.214076" lon="13.822011"><ele>317.0</ele><time>2026-05-02T10:02:32.036Z</time></trkpt><trkpt lat="42.2141338" lon="13.8219478"><ele>317.0</ele><time>2026-05-02T10:02:33.036Z</time></trkpt><trkpt lat="42.2141988" lon="13.8218758"><ele>317.4</ele><time>2026-05-02T10:02:34.036Z</time></trkpt><trkpt lat="42.2142718" lon="13.8218023"><ele>317.79999999999995</ele><time>2026-05-02T10:02:35.037Z</time></trkpt><trkpt lat="42.2143409" lon="13.8217209"><ele>318.2</ele><time>2026-05-02T10:02:36.037Z</time></trkpt><trkpt lat="42.2144095" lon="13.8216349"><ele>318.59999999999997</ele><time>2026-05-02T10:02:37.036Z</time></trkpt><trkpt lat="42.2144782" lon="13.82155"><ele>319.0</ele><time>2026-05-02T10:02:38.036Z</time></trkpt><trkpt lat="42.2145377" lon="13.8214594"><ele>319.0</ele><time>2026-05-02T10:02:39.036Z</time></trkpt><trkpt lat="42.2145942" lon="13.8213661"><ele>319.0</ele><time>2026-05-02T10:02:40.036Z</time></trkpt><trkpt lat="42.2146515" lon="13.8212714"><ele>319.0</ele><time>2026-05-02T10:02:41.036Z</time></trkpt><trkpt lat="42.2147137" lon="13.8211779"><ele>319.0</ele><time>2026-05-02T10:02:42.036Z</time></trkpt><trkpt lat="42.2147794" lon="13.8210812"><ele>319.0</ele><time>2026-05-02T10:02:43.036Z</time></trkpt><trkpt lat="42.2148465" lon="13.8209846"><ele>319.0</ele><time>2026-05-02T10:02:44.037Z</time></trkpt><trkpt lat="42.2149077" lon="13.8209018"><ele>319.0</ele><time>2026-05-02T10:02:45.036Z</time></trkpt><trkpt lat="42.214968" lon="13.820795"><ele>319.0</ele><time>2026-05-02T10:02:47.037Z</time></trkpt><trkpt lat="42.2149736" lon="13.8207059"><ele>319.0</ele><time>2026-05-02T10:02:49.036Z</time></trkpt><trkpt lat="42.2149535" lon="13.8206057"><ele>319.0</ele><time>2026-05-02T10:02:51.036Z</time></trkpt><trkpt lat="42.2149269" lon="13.8205254"><ele>319.0</ele><time>2026-05-02T10:02:53.036Z</time></trkpt><trkpt lat="42.2148973" lon="13.8204275"><ele>319.0</ele><time>2026-05-02T10:02:56.037Z</time></trkpt><trkpt lat="42.214873" lon="13.8202986"><ele>319.0</ele><time>2026-05-02T10:03:33.036Z</time></trkpt><trkpt lat="42.2149234" lon="13.8202397"><ele>319.0</ele><time>2026-05-02T10:03:35.036Z</time></trkpt><trkpt lat="42.2149871" lon="13.8202643"><ele>319.0</ele><time>2026-05-02T10:03:37.036Z</time></trkpt><trkpt lat="42.2149949" lon="13.8203944"><ele>319.0</ele><time>2026-05-02T10:03:46.036Z</time></trkpt><trkpt lat="42.2148736" lon="13.8204519"><ele>319.0</ele><time>2026-05-02T10:10:52.036Z</time></trkpt><trkpt lat="42.2149244" lon="13.8205223"><ele>319.0</ele><time>2026-05-02T10:10:56.036Z</time></trkpt><trkpt lat="42.2149334" lon="13.820626"><ele>319.0</ele><time>2026-05-02T10:11:00.036Z</time></trkpt><trkpt lat="42.2149921" lon="13.8206933"><ele>319.0</ele><time>2026-05-02T10:11:03.036Z</time></trkpt><trkpt lat="42.2150661" lon="13.8206512"><ele>319.0</ele><time>2026-05-02T10:11:05.036Z</time></trkpt><trkpt lat="42.2151526" lon="13.8205461"><ele>319.0</ele><time>2026-05-02T10:11:07.036Z</time></trkpt><trkpt lat="42.2151964" lon="13.8204715"><ele>319.0</ele><time>2026-05-02T10:11:08.037Z</time></trkpt><trkpt lat="42.2152428" lon="13.8203995"><ele>319.0</ele><time>2026-05-02T10:11:09.036Z</time></trkpt><trkpt lat="42.2152957" lon="13.8203274"><ele>319.0</ele><time>2026-05-02T10:11:10.036Z</time></trkpt><trkpt lat="42.2153502" lon="13.8202515"><ele>319.0</ele><time>2026-05-02T10:11:11.037Z</time></trkpt><trkpt lat="42.2154052" lon="13.8201622"><ele>319.0</ele><time>2026-05-02T10:11:12.036Z</time></trkpt><trkpt lat="42.215472" lon="13.820068"><ele>319.0</ele><time>2026-05-02T10:11:13.036Z</time></trkpt><trkpt lat="42.2155357" lon="13.8199653"><ele>319.0</ele><time>2026-05-02T10:11:14.036Z</time></trkpt><trkpt lat="42.2156039" lon="13.8198658"><ele>319.0</ele><time>2026-05-02T10:11:15.036Z</time></trkpt><trkpt lat="42.2156687" lon="13.8197666"><ele>319.0</ele><time>2026-05-02T10:11:16.036Z</time></trkpt><trkpt lat="42.2157369" lon="13.8196666"><ele>319.0</ele><time>2026-05-02T10:11:17.036Z</time></trkpt><trkpt lat="42.215803" lon="13.8195664"><ele>319.0</ele><time>2026-05-02T10:11:18.036Z</time></trkpt><trkpt lat="42.2158706" lon="13.819475"><ele>319.0</ele><time>2026-05-02T10:11:19.037Z</time></trkpt><trkpt lat="42.215939" lon="13.8193685"><ele>319.0</ele><time>2026-05-02T10:11:20.036Z</time></trkpt><trkpt lat="42.2160047" lon="13.8192658"><ele>319.0</ele><time>2026-05-02T10:11:21.036Z</time></trkpt><trkpt lat="42.2160734" lon="13.8191646"><ele>319.0</ele><time>2026-05-02T10:11:22.036Z</time></trkpt><trkpt lat="42.216136" lon="13.819073"><ele>319.0</ele><time>2026-05-02T10:11:23.036Z</time></trkpt><trkpt lat="42.2161858" lon="13.8189853"><ele>319.16666666666663</ele><time>2026-05-02T10:11:24.036Z</time></trkpt><trkpt lat="42.2162187" lon="13.8188834"><ele>319.3333333333333</ele><time>2026-05-02T10:11:25.036Z</time></trkpt><trkpt lat="42.2162251" lon="13.8187726"><ele>319.5</ele><time>2026-05-02T10:11:26.036Z</time></trkpt><trkpt lat="42.2162119" lon="13.8186485"><ele>319.6666666666667</ele><time>2026-05-02T10:11:27.037Z</time></trkpt><trkpt lat="42.216201" lon="13.8185314"><ele>319.83333333333337</ele><time>2026-05-02T10:11:28.036Z</time></trkpt><trkpt lat="42.2162045" lon="13.8184382"><ele>320.0</ele><time>2026-05-02T10:11:29.036Z</time></trkpt><trkpt lat="42.2162295" lon="13.8183575"><ele>319.6</ele><time>2026-05-02T10:11:30.036Z</time></trkpt><trkpt lat="42.2162873" lon="13.8182748"><ele>319.2</ele><time>2026-05-02T10:11:31.036Z</time></trkpt><trkpt lat="42.2163612" lon="13.8181817"><ele>318.8</ele><time>2026-05-02T10:11:32.036Z</time></trkpt><trkpt lat="42.2164493" lon="13.8180845"><ele>318.4</ele><time>2026-05-02T10:11:33.036Z</time></trkpt><trkpt lat="42.216543" lon="13.8179918"><ele>318.0</ele><time>2026-05-02T10:11:34.037Z</time></trkpt><trkpt lat="42.2166355" lon="13.8179022"><ele>318.0</ele><time>2026-05-02T10:11:35.036Z</time></trkpt><trkpt lat="42.2167422" lon="13.8178127"><ele>318.0</ele><time>2026-05-02T10:11:36.037Z</time></trkpt><trkpt lat="42.2168599" lon="13.8177245"><ele>318.0</ele><time>2026-05-02T10:11:37.036Z</time></trkpt><trkpt lat="42.2169828" lon="13.8176485"><ele>318.0</ele><time>2026-05-02T10:11:38.036Z</time></trkpt><trkpt lat="42.2171178" lon="13.8175814"><ele>318.3333333333333</ele><time>2026-05-02T10:11:39.036Z</time></trkpt><trkpt lat="42.217259" lon="13.8175127"><ele>318.66666666666663</ele><time>2026-05-02T10:11:40.036Z</time></trkpt><trkpt lat="42.2174083" lon="13.8174562"><ele>319.0</ele><time>2026-05-02T10:11:41.036Z</time></trkpt><trkpt lat="42.2175604" lon="13.8174137"><ele>319.0</ele><time>2026-05-02T10:11:42.036Z</time></trkpt><trkpt lat="42.217716" lon="13.817382"><ele>319.0</ele><time>2026-05-02T10:11:43.036Z</time></trkpt><trkpt lat="42.2178779" lon="13.8173559"><ele>319.0</ele><time>2026-05-02T10:11:44.036Z</time></trkpt><trkpt lat="42.2180445" lon="13.8173269"><ele>318.66666666666663</ele><time>2026-05-02T10:11:45.037Z</time></trkpt><trkpt lat="42.2182149" lon="13.8172911"><ele>318.3333333333333</ele><time>2026-05-02T10:11:46.037Z</time></trkpt><trkpt lat="42.2183856" lon="13.8172509"><ele>318.0</ele><time>2026-05-02T10:11:47.037Z</time></trkpt><trkpt lat="42.2185593" lon="13.8172158"><ele>318.0</ele><time>2026-05-02T10:11:48.037Z</time></trkpt><trkpt lat="42.2187241" lon="13.8171859"><ele>318.0</ele><time>2026-05-02T10:11:49.036Z</time></trkpt><trkpt lat="42.2188875" lon="13.8171599"><ele>318.0</ele><time>2026-05-02T10:11:50.037Z</time></trkpt><trkpt lat="42.2190567" lon="13.8171288"><ele>318.3333333333333</ele><time>2026-05-02T10:11:51.036Z</time></trkpt><trkpt lat="42.219225" lon="13.817094"><ele>318.66666666666663</ele><time>2026-05-02T10:11:52.037Z</time></trkpt><trkpt lat="42.2194025" lon="13.8170666"><ele>319.0</ele><time>2026-05-02T10:11:53.036Z</time></trkpt><trkpt lat="42.2195919" lon="13.8170537"><ele>319.0</ele><time>2026-05-02T10:11:54.036Z</time></trkpt><trkpt lat="42.2197829" lon="13.8170516"><ele>319.0</ele><time>2026-05-02T10:11:55.036Z</time></trkpt><trkpt lat="42.2199808" lon="13.8170753"><ele>319.0</ele><time>2026-05-02T10:11:56.037Z</time></trkpt><trkpt lat="42.2201625" lon="13.8170374"><ele>318.66666666666663</ele><time>2026-05-02T10:11:57.036Z</time></trkpt><trkpt lat="42.2203482" lon="13.8170637"><ele>318.3333333333333</ele><time>2026-05-02T10:11:58.036Z</time></trkpt><trkpt lat="42.220566" lon="13.8171743"><ele>318.0</ele><time>2026-05-02T10:11:59.036Z</time></trkpt><trkpt lat="42.2207797" lon="13.8172571"><ele>317.6666666666667</ele><time>2026-05-02T10:12:00.036Z</time></trkpt><trkpt lat="42.2209836" lon="13.817331"><ele>317.33333333333337</ele><time>2026-05-02T10:12:01.036Z</time></trkpt><trkpt lat="42.2211881" lon="13.8173936"><ele>317.0</ele><time>2026-05-02T10:12:02.037Z</time></trkpt><trkpt lat="42.2213906" lon="13.8174448"><ele>317.0</ele><time>2026-05-02T10:12:03.036Z</time></trkpt><trkpt lat="42.2215907" lon="13.817476"><ele>317.0</ele><time>2026-05-02T10:12:04.036Z</time></trkpt><trkpt lat="42.2217974" lon="13.8174872"><ele>317.0</ele><time>2026-05-02T10:12:05.036Z</time></trkpt><trkpt lat="42.2219983" lon="13.8174723"><ele>317.0</ele><time>2026-05-02T10:12:06.037Z</time></trkpt><trkpt lat="42.2221989" lon="13.8174432"><ele>317.0</ele><time>2026-05-02T10:12:07.036Z</time></trkpt><trkpt lat="42.2223985" lon="13.8173941"><ele>317.0</ele><time>2026-05-02T10:12:08.036Z</time></trkpt><trkpt lat="42.2225978" lon="13.817322"><ele>317.0</ele><time>2026-05-02T10:12:09.036Z</time></trkpt><trkpt lat="42.2227872" lon="13.8172304"><ele>317.0</ele><time>2026-05-02T10:12:10.036Z</time></trkpt><trkpt lat="42.2229776" lon="13.8171236"><ele>317.0</ele><time>2026-05-02T10:12:11.036Z</time></trkpt><trkpt lat="42.2231677" lon="13.817003"><ele>317.0</ele><time>2026-05-02T10:12:12.036Z</time></trkpt><trkpt lat="42.2233543" lon="13.8168627"><ele>317.0</ele><time>2026-05-02T10:12:13.036Z</time></trkpt><trkpt lat="42.2235453" lon="13.8167125"><ele>317.0</ele><time>2026-05-02T10:12:14.036Z</time></trkpt><trkpt lat="42.2237444" lon="13.816552"><ele>316.5</ele><time>2026-05-02T10:12:15.036Z</time></trkpt><trkpt lat="42.2239409" lon="13.8163836"><ele>316.0</ele><time>2026-05-02T10:12:16.036Z</time></trkpt><trkpt lat="42.2241492" lon="13.8162093"><ele>316.0</ele><time>2026-05-02T10:12:17.036Z</time></trkpt><trkpt lat="42.2243643" lon="13.8160334"><ele>316.0</ele><time>2026-05-02T10:12:18.037Z</time></trkpt><trkpt lat="42.2245886" lon="13.8158582"><ele>316.5</ele><time>2026-05-02T10:12:19.036Z</time></trkpt><trkpt lat="42.224818" lon="13.815699"><ele>317.0</ele><time>2026-05-02T10:12:20.036Z</time></trkpt><trkpt lat="42.2250501" lon="13.8155618"><ele>317.0</ele><time>2026-05-02T10:12:21.036Z</time></trkpt><trkpt lat="42.2252932" lon="13.8154623"><ele>317.0</ele><time>2026-05-02T10:12:22.036Z</time></trkpt><trkpt lat="42.2255417" lon="13.8153951"><ele>317.0</ele><time>2026-05-02T10:12:23.036Z</time></trkpt><trkpt lat="42.225785" lon="13.8153339"><ele>317.0</ele><time>2026-05-02T10:12:24.036Z</time></trkpt><trkpt lat="42.2260135" lon="13.8152757"><ele>317.0</ele><time>2026-05-02T10:12:25.036Z</time></trkpt><trkpt lat="42.2262235" lon="13.8152194"><ele>317.0</ele><time>2026-05-02T10:12:26.036Z</time></trkpt><trkpt lat="42.2264269" lon="13.8151716"><ele>317.0</ele><time>2026-05-02T10:12:27.036Z</time></trkpt><trkpt lat="42.2266139" lon="13.8151018"><ele>319.0</ele><time>2026-05-02T10:12:28.037Z</time></trkpt><trkpt lat="42.226785" lon="13.8150237"><ele>321.0</ele><time>2026-05-02T10:12:29.036Z</time></trkpt><trkpt lat="42.2269596" lon="13.8149848"><ele>323.0</ele><time>2026-05-02T10:12:30.037Z</time></trkpt><trkpt lat="42.2271211" lon="13.8149321"><ele>323.0</ele><time>2026-05-02T10:12:31.036Z</time></trkpt><trkpt lat="42.2272738" lon="13.8148917"><ele>323.0</ele><time>2026-05-02T10:12:32.036Z</time></trkpt><trkpt lat="42.2274209" lon="13.8148589"><ele>323.0</ele><time>2026-05-02T10:12:33.036Z</time></trkpt><trkpt lat="42.2275622" lon="13.8148591"><ele>323.0</ele><time>2026-05-02T10:12:34.036Z</time></trkpt><trkpt lat="42.2276963" lon="13.8148326"><ele>322.0</ele><time>2026-05-02T10:12:35.036Z</time></trkpt><trkpt lat="42.2278369" lon="13.8148332"><ele>321.0</ele><time>2026-05-02T10:12:36.036Z</time></trkpt><trkpt lat="42.2279687" lon="13.8147974"><ele>320.0</ele><time>2026-05-02T10:12:37.036Z</time></trkpt><trkpt lat="42.2281122" lon="13.8147924"><ele>319.0</ele><time>2026-05-02T10:12:38.036Z</time></trkpt><trkpt lat="42.2282589" lon="13.8147879"><ele>319.0</ele><time>2026-05-02T10:12:39.036Z</time></trkpt><trkpt lat="42.2283865" lon="13.814786"><ele>319.0</ele><time>2026-05-02T10:12:40.037Z</time></trkpt><trkpt lat="42.2284975" lon="13.8147816"><ele>319.0</ele><time>2026-05-02T10:12:41.036Z</time></trkpt><trkpt lat="42.2285971" lon="13.8147991"><ele>319.0</ele><time>2026-05-02T10:12:42.036Z</time></trkpt><trkpt lat="42.2286956" lon="13.8148133"><ele>319.0</ele><time>2026-05-02T10:12:43.036Z</time></trkpt><trkpt lat="42.2287922" lon="13.8148361"><ele>319.0</ele><time>2026-05-02T10:12:44.036Z</time></trkpt><trkpt lat="42.2288826" lon="13.8148601"><ele>319.0</ele><time>2026-05-02T10:12:45.036Z</time></trkpt><trkpt lat="42.2289681" lon="13.8148991"><ele>319.0</ele><time>2026-05-02T10:12:46.036Z</time></trkpt><trkpt lat="42.229047" lon="13.8149403"><ele>319.0</ele><time>2026-05-02T10:12:47.036Z</time></trkpt><trkpt lat="42.2291169" lon="13.8149824"><ele>319.0</ele><time>2026-05-02T10:12:48.036Z</time></trkpt><trkpt lat="42.2291791" lon="13.815017"><ele>319.0</ele><time>2026-05-02T10:12:49.036Z</time></trkpt><trkpt lat="42.2292734" lon="13.8150893"><ele>318.8</ele><time>2026-05-02T10:12:51.037Z</time></trkpt><trkpt lat="42.2293718" lon="13.8151472"><ele>318.59999999999997</ele><time>2026-05-02T10:12:53.036Z</time></trkpt><trkpt lat="42.2294891" lon="13.8151668"><ele>318.4</ele><time>2026-05-02T10:12:55.036Z</time></trkpt><trkpt lat="42.2295554" lon="13.8151543"><ele>318.2</ele><time>2026-05-02T10:12:56.037Z</time></trkpt><trkpt lat="42.2296215" lon="13.8151189"><ele>318.0</ele><time>2026-05-02T10:12:57.036Z</time></trkpt><trkpt lat="42.2297171" lon="13.8150536"><ele>318.0</ele><time>2026-05-02T10:12:59.036Z</time></trkpt><trkpt lat="42.2297802" lon="13.8150448"><ele>318.0</ele><time>2026-05-02T10:13:02.036Z</time></trkpt><trkpt lat="42.2296859" lon="13.8150456"><ele>318.0</ele><time>2026-05-02T10:13:09.036Z</time></trkpt><trkpt lat="42.2296176" lon="13.8150942"><ele>318.0</ele><time>2026-05-02T10:13:10.037Z</time></trkpt><trkpt lat="42.2295476" lon="13.8151238"><ele>318.0</ele><time>2026-05-02T10:13:11.036Z</time></trkpt><trkpt lat="42.2294762" lon="13.8151977"><ele>318.0</ele><time>2026-05-02T10:13:13.036Z</time></trkpt><trkpt lat="42.2295549" lon="13.8153126"><ele>318.0</ele><time>2026-05-02T10:13:16.037Z</time></trkpt><trkpt lat="42.2296147" lon="13.815395"><ele>318.0</ele><time>2026-05-02T10:13:17.037Z</time></trkpt><trkpt lat="42.2296734" lon="13.8154893"><ele>318.0</ele><time>2026-05-02T10:13:18.036Z</time></trkpt><trkpt lat="42.2297297" lon="13.8155913"><ele>318.0</ele><time>2026-05-02T10:13:19.037Z</time></trkpt><trkpt lat="42.2297797" lon="13.8156857"><ele>318.0</ele><time>2026-05-02T10:13:20.036Z</time></trkpt><trkpt lat="42.2298232" lon="13.8157691"><ele>318.0</ele><time>2026-05-02T10:13:21.037Z</time></trkpt><trkpt lat="42.2298641" lon="13.8158394"><ele>318.0</ele><time>2026-05-02T10:13:22.036Z</time></trkpt><trkpt lat="42.2299141" lon="13.8159576"><ele>318.0</ele><time>2026-05-02T10:13:24.036Z</time></trkpt><trkpt lat="42.2299297" lon="13.8160875"><ele>318.0</ele><time>2026-05-02T10:13:26.036Z</time></trkpt><trkpt lat="42.2299121" lon="13.8162479"><ele>318.0</ele><time>2026-05-02T10:13:28.036Z</time></trkpt><trkpt lat="42.2298895" lon="13.8164161"><ele>318.0</ele><time>2026-05-02T10:13:30.036Z</time></trkpt><trkpt lat="42.2298852" lon="13.816513"><ele>317.6</ele><time>2026-05-02T10:13:31.036Z</time></trkpt><trkpt lat="42.2298911" lon="13.8166018"><ele>317.20000000000005</ele><time>2026-05-02T10:13:32.037Z</time></trkpt><trkpt lat="42.2299117" lon="13.8167397"><ele>316.8</ele><time>2026-05-02T10:13:34.037Z</time></trkpt><trkpt lat="42.2299331" lon="13.8169052"><ele>316.40000000000003</ele><time>2026-05-02T10:13:36.036Z</time></trkpt><trkpt lat="42.2299521" lon="13.8170205"><ele>316.0</ele><time>2026-05-02T10:13:37.036Z</time></trkpt><trkpt lat="42.2299732" lon="13.8171747"><ele>315.75</ele><time>2026-05-02T10:13:38.036Z</time></trkpt><trkpt lat="42.2299887" lon="13.8173388"><ele>315.5</ele><time>2026-05-02T10:13:39.036Z</time></trkpt><trkpt lat="42.2300041" lon="13.8175214"><ele>315.25</ele><time>2026-05-02T10:13:40.037Z</time></trkpt><trkpt lat="42.2300206" lon="13.8177031"><ele>315.0</ele><time>2026-05-02T10:13:41.037Z</time></trkpt><trkpt lat="42.2300323" lon="13.8178818"><ele>315.0</ele><time>2026-05-02T10:13:42.036Z</time></trkpt><trkpt lat="42.2300503" lon="13.8180574"><ele>315.0</ele><time>2026-05-02T10:13:43.036Z</time></trkpt><trkpt lat="42.2300676" lon="13.8182387"><ele>315.0</ele><time>2026-05-02T10:13:44.036Z</time></trkpt><trkpt lat="42.2300813" lon="13.8184222"><ele>315.0</ele><time>2026-05-02T10:13:45.036Z</time></trkpt><trkpt lat="42.2300876" lon="13.8186049"><ele>315.0</ele><time>2026-05-02T10:13:46.036Z</time></trkpt><trkpt lat="42.2300877" lon="13.8187753"><ele>315.0</ele><time>2026-05-02T10:13:47.036Z</time></trkpt><trkpt lat="42.2300869" lon="13.818948"><ele>315.0</ele><time>2026-05-02T10:13:48.036Z</time></trkpt><trkpt lat="42.2300895" lon="13.8191089"><ele>315.0</ele><time>2026-05-02T10:13:49.037Z</time></trkpt><trkpt lat="42.2300966" lon="13.8192564"><ele>315.6</ele><time>2026-05-02T10:13:50.037Z</time></trkpt><trkpt lat="42.2301045" lon="13.8193853"><ele>316.2</ele><time>2026-05-02T10:13:51.036Z</time></trkpt><trkpt lat="42.2301142" lon="13.8194893"><ele>316.8</ele><time>2026-05-02T10:13:52.036Z</time></trkpt><trkpt lat="42.2301315" lon="13.8196121"><ele>317.4</ele><time>2026-05-02T10:13:54.036Z</time></trkpt><trkpt lat="42.2302469" lon="13.8196336"><ele>318.0</ele><time>2026-05-02T10:13:57.036Z</time></trkpt><trkpt lat="42.2303313" lon="13.8196389"><ele>318.0</ele><time>2026-05-02T10:13:58.036Z</time></trkpt><trkpt lat="42.2304246" lon="13.8196333"><ele>318.0</ele><time>2026-05-02T10:13:59.036Z</time></trkpt><trkpt lat="42.230532" lon="13.8196225"><ele>318.0</ele><time>2026-05-02T10:14:00.036Z</time></trkpt><trkpt lat="42.2306541" lon="13.8196029"><ele>318.0</ele><time>2026-05-02T10:14:01.036Z</time></trkpt><trkpt lat="42.2307919" lon="13.8195935"><ele>319.75</ele><time>2026-05-02T10:14:02.036Z</time></trkpt><trkpt lat="42.2309286" lon="13.81957"><ele>321.5</ele><time>2026-05-02T10:14:03.036Z</time></trkpt><trkpt lat="42.2310694" lon="13.8195142"><ele>323.25</ele><time>2026-05-02T10:14:04.036Z</time></trkpt><trkpt lat="42.2312018" lon="13.8194336"><ele>325.0</ele><time>2026-05-02T10:14:05.036Z</time></trkpt><trkpt lat="42.231333" lon="13.8193465"><ele>323.3333333333333</ele><time>2026-05-02T10:14:06.036Z</time></trkpt><trkpt lat="42.2314728" lon="13.8192633"><ele>321.6666666666667</ele><time>2026-05-02T10:14:07.037Z</time></trkpt><trkpt lat="42.2316212" lon="13.819192"><ele>320.0</ele><time>2026-05-02T10:14:08.036Z</time></trkpt><trkpt lat="42.2317681" lon="13.8191429"><ele>320.0</ele><time>2026-05-02T10:14:09.036Z</time></trkpt><trkpt lat="42.2319207" lon="13.8191102"><ele>320.0</ele><time>2026-05-02T10:14:10.036Z</time></trkpt><trkpt lat="42.232079" lon="13.8190976"><ele>320.0</ele><time>2026-05-02T10:14:11.036Z</time></trkpt><trkpt lat="42.2322368" lon="13.8190811"><ele>320.33333333333337</ele><time>2026-05-02T10:14:12.036Z</time></trkpt><trkpt lat="42.2323924" lon="13.8190721"><ele>320.6666666666667</ele><time>2026-05-02T10:14:13.036Z</time></trkpt><trkpt lat="42.2325446" lon="13.8190644"><ele>321.0</ele><time>2026-05-02T10:14:14.036Z</time></trkpt><trkpt lat="42.2326961" lon="13.8190506"><ele>321.0</ele><time>2026-05-02T10:14:15.036Z</time></trkpt><trkpt lat="42.2328504" lon="13.819026"><ele>321.0</ele><time>2026-05-02T10:14:16.036Z</time></trkpt><trkpt lat="42.2330067" lon="13.8189719"><ele>321.0</ele><time>2026-05-02T10:14:17.036Z</time></trkpt><trkpt lat="42.2331512" lon="13.8189095"><ele>324.3333333333333</ele><time>2026-05-02T10:14:18.036Z</time></trkpt><trkpt lat="42.233297" lon="13.8188395"><ele>327.66666666666663</ele><time>2026-05-02T10:14:19.036Z</time></trkpt><trkpt lat="42.2334426" lon="13.8187665"><ele>331.0</ele><time>2026-05-02T10:14:20.036Z</time></trkpt><trkpt lat="42.2335875" lon="13.8186869"><ele>331.0</ele><time>2026-05-02T10:14:21.037Z</time></trkpt><trkpt lat="42.2337318" lon="13.8186023"><ele>331.0</ele><time>2026-05-02T10:14:22.036Z</time></trkpt><trkpt lat="42.2338746" lon="13.8185198"><ele>331.0</ele><time>2026-05-02T10:14:23.037Z</time></trkpt><trkpt lat="42.2340142" lon="13.8184274"><ele>329.3333333333333</ele><time>2026-05-02T10:14:24.036Z</time></trkpt><trkpt lat="42.234153" lon="13.8183276"><ele>327.6666666666667</ele><time>2026-05-02T10:14:25.036Z</time></trkpt><trkpt lat="42.2342813" lon="13.818225"><ele>326.0</ele><time>2026-05-02T10:14:26.036Z</time></trkpt><trkpt lat="42.234405" lon="13.8181202"><ele>326.0</ele><time>2026-05-02T10:14:27.036Z</time></trkpt><trkpt lat="42.2345204" lon="13.8180045"><ele>326.0</ele><time>2026-05-02T10:14:28.036Z</time></trkpt><trkpt lat="42.2346249" lon="13.8178827"><ele>326.0</ele><time>2026-05-02T10:14:29.036Z</time></trkpt><trkpt lat="42.234714" lon="13.8177562"><ele>326.0</ele><time>2026-05-02T10:14:30.036Z</time></trkpt><trkpt lat="42.2347964" lon="13.8176319"><ele>325.0</ele><time>2026-05-02T10:14:31.037Z</time></trkpt><trkpt lat="42.2348768" lon="13.8175082"><ele>324.0</ele><time>2026-05-02T10:14:32.036Z</time></trkpt><trkpt lat="42.2349427" lon="13.8173981"><ele>323.0</ele><time>2026-05-02T10:14:33.036Z</time></trkpt><trkpt lat="42.2349992" lon="13.8172936"><ele>322.0</ele><time>2026-05-02T10:14:34.036Z</time></trkpt><trkpt lat="42.2350451" lon="13.8172035"><ele>321.0</ele><time>2026-05-02T10:14:35.036Z</time></trkpt><trkpt lat="42.2350929" lon="13.8171176"><ele>320.99999999999994</ele><time>2026-05-02T10:14:36.037Z</time></trkpt><trkpt lat="42.2351346" lon="13.8170328"><ele>321.0</ele><time>2026-05-02T10:14:37.036Z</time></trkpt><trkpt lat="42.2351705" lon="13.8169495"><ele>321.0</ele><time>2026-05-02T10:14:38.036Z</time></trkpt><trkpt lat="42.2352002" lon="13.8168713"><ele>321.0</ele><time>2026-05-02T10:14:39.036Z</time></trkpt><trkpt lat="42.2352455" lon="13.8167593"><ele>321.0</ele><time>2026-05-02T10:14:41.036Z</time></trkpt><trkpt lat="42.2352844" lon="13.8166781"><ele>320.99999999999994</ele><time>2026-05-02T10:14:43.036Z</time></trkpt><trkpt lat="42.2353214" lon="13.8165973"><ele>321.0</ele><time>2026-05-02T10:14:46.036Z</time></trkpt><trkpt lat="42.2353746" lon="13.8165195"><ele>321.1666666666667</ele><time>2026-05-02T10:14:51.036Z</time></trkpt><trkpt lat="42.2354157" lon="13.8164549"><ele>321.3333333333333</ele><time>2026-05-02T10:14:53.036Z</time></trkpt><trkpt lat="42.2354881" lon="13.8163693"><ele>321.5</ele><time>2026-05-02T10:14:55.036Z</time></trkpt><trkpt lat="42.2355699" lon="13.8163131"><ele>321.66666666666663</ele><time>2026-05-02T10:14:57.036Z</time></trkpt><trkpt lat="42.235657" lon="13.8162782"><ele>321.8333333333333</ele><time>2026-05-02T10:14:59.036Z</time></trkpt><trkpt lat="42.2357393" lon="13.8162561"><ele>322.0</ele><time>2026-05-02T10:15:01.036Z</time></trkpt><trkpt lat="42.2358182" lon="13.816232"><ele>322.0</ele><time>2026-05-02T10:15:03.036Z</time></trkpt><trkpt lat="42.2359464" lon="13.8162154"><ele>322.0</ele><time>2026-05-02T10:15:05.036Z</time></trkpt><trkpt lat="42.2360205" lon="13.8162518"><ele>322.0</ele><time>2026-05-02T10:15:06.036Z</time></trkpt><trkpt lat="42.2360995" lon="13.8163202"><ele>322.0</ele><time>2026-05-02T10:15:07.037Z</time></trkpt><trkpt lat="42.2361797" lon="13.8164063"><ele>322.0</ele><time>2026-05-02T10:15:08.037Z</time></trkpt><trkpt lat="42.2362757" lon="13.8164831"><ele>322.0</ele><time>2026-05-02T10:15:09.036Z</time></trkpt><trkpt lat="42.2363822" lon="13.8165634"><ele>322.0</ele><time>2026-05-02T10:15:10.036Z</time></trkpt><trkpt lat="42.2365039" lon="13.8166341"><ele>322.0</ele><time>2026-05-02T10:15:11.036Z</time></trkpt><trkpt lat="42.2366363" lon="13.8166947"><ele>322.0</ele><time>2026-05-02T10:15:12.036Z</time></trkpt><trkpt lat="42.2367777" lon="13.8167284"><ele>321.5</ele><time>2026-05-02T10:15:13.036Z</time></trkpt><trkpt lat="42.2369224" lon="13.81674"><ele>321.0</ele><time>2026-05-02T10:15:14.036Z</time></trkpt><trkpt lat="42.2370653" lon="13.8167389"><ele>320.5</ele><time>2026-05-02T10:15:15.036Z</time></trkpt><trkpt lat="42.2372041" lon="13.8167067"><ele>320.0</ele><time>2026-05-02T10:15:16.036Z</time></trkpt><trkpt lat="42.237339" lon="13.8166522"><ele>319.6666666666667</ele><time>2026-05-02T10:15:17.037Z</time></trkpt><trkpt lat="42.2374836" lon="13.8165889"><ele>319.3333333333333</ele><time>2026-05-02T10:15:18.036Z</time></trkpt><trkpt lat="42.2376283" lon="13.816517"><ele>319.0</ele><time>2026-05-02T10:15:19.036Z</time></trkpt><trkpt lat="42.2377733" lon="13.816453"><ele>319.0</ele><time>2026-05-02T10:15:20.036Z</time></trkpt><trkpt lat="42.2379111" lon="13.8163896"><ele>319.0</ele><time>2026-05-02T10:15:21.036Z</time></trkpt><trkpt lat="42.2380403" lon="13.8163312"><ele>319.0</ele><time>2026-05-02T10:15:22.037Z</time></trkpt><trkpt lat="42.2381679" lon="13.8162637"><ele>319.0</ele><time>2026-05-02T10:15:23.036Z</time></trkpt><trkpt lat="42.2382951" lon="13.8162033"><ele>319.0</ele><time>2026-05-02T10:15:24.036Z</time></trkpt><trkpt lat="42.2384179" lon="13.8161474"><ele>319.0</ele><time>2026-05-02T10:15:25.036Z</time></trkpt><trkpt lat="42.238541" lon="13.8161111"><ele>319.0</ele><time>2026-05-02T10:15:26.036Z</time></trkpt><trkpt lat="42.2386648" lon="13.8160973"><ele>319.0</ele><time>2026-05-02T10:15:27.037Z</time></trkpt><trkpt lat="42.2387895" lon="13.8161179"><ele>319.0</ele><time>2026-05-02T10:15:28.036Z</time></trkpt><trkpt lat="42.2389041" lon="13.8161406"><ele>319.0</ele><time>2026-05-02T10:15:29.036Z</time></trkpt><trkpt lat="42.2390082" lon="13.8161653"><ele>319.0</ele><time>2026-05-02T10:15:30.036Z</time></trkpt><trkpt lat="42.2390995" lon="13.8161805"><ele>319.0</ele><time>2026-05-02T10:15:31.037Z</time></trkpt><trkpt lat="42.2391833" lon="13.8161909"><ele>319.0</ele><time>2026-05-02T10:15:32.036Z</time></trkpt><trkpt lat="42.2392593" lon="13.8162067"><ele>319.79999999999995</ele><time>2026-05-02T10:15:33.037Z</time></trkpt><trkpt lat="42.239369" lon="13.81631"><ele>320.59999999999997</ele><time>2026-05-02T10:15:35.036Z</time></trkpt><trkpt lat="42.2394075" lon="13.8163913"><ele>321.4</ele><time>2026-05-02T10:15:36.036Z</time></trkpt><trkpt lat="42.2394927" lon="13.8164827"><ele>322.2</ele><time>2026-05-02T10:15:38.036Z</time></trkpt><trkpt lat="42.2395563" lon="13.8164934"><ele>323.0</ele><time>2026-05-02T10:15:39.036Z</time></trkpt><trkpt lat="42.2396402" lon="13.8164901"><ele>323.0</ele><time>2026-05-02T10:15:40.036Z</time></trkpt><trkpt lat="42.2397316" lon="13.8164777"><ele>323.0</ele><time>2026-05-02T10:15:41.036Z</time></trkpt><trkpt lat="42.2398264" lon="13.816446"><ele>323.0</ele><time>2026-05-02T10:15:42.036Z</time></trkpt><trkpt lat="42.2399146" lon="13.8164056"><ele>323.0</ele><time>2026-05-02T10:15:43.037Z</time></trkpt><trkpt lat="42.2400032" lon="13.816367"><ele>323.0</ele><time>2026-05-02T10:15:44.036Z</time></trkpt><trkpt lat="42.2400879" lon="13.81634"><ele>323.79999999999995</ele><time>2026-05-02T10:15:45.037Z</time></trkpt><trkpt lat="42.240186" lon="13.8163317"><ele>324.6</ele><time>2026-05-02T10:15:46.037Z</time></trkpt><trkpt lat="42.2402989" lon="13.8163278"><ele>325.4</ele><time>2026-05-02T10:15:47.037Z</time></trkpt><trkpt lat="42.2404031" lon="13.8163235"><ele>326.20000000000005</ele><time>2026-05-02T10:15:48.037Z</time></trkpt><trkpt lat="42.2405093" lon="13.8163227"><ele>327.0</ele><time>2026-05-02T10:15:49.037Z</time></trkpt><trkpt lat="42.2406288" lon="13.816317"><ele>327.5</ele><time>2026-05-02T10:15:50.037Z</time></trkpt><trkpt lat="42.2407529" lon="13.8163132"><ele>328.0</ele><time>2026-05-02T10:15:51.037Z</time></trkpt><trkpt lat="42.2408733" lon="13.8163037"><ele>328.5</ele><time>2026-05-02T10:15:52.037Z</time></trkpt><trkpt lat="42.240994" lon="13.8162919"><ele>329.0</ele><time>2026-05-02T10:15:53.037Z</time></trkpt><trkpt lat="42.2411076" lon="13.816274"><ele>329.0</ele><time>2026-05-02T10:15:54.037Z</time></trkpt><trkpt lat="42.2412103" lon="13.8162484"><ele>329.0</ele><time>2026-05-02T10:15:55.037Z</time></trkpt><trkpt lat="42.2413034" lon="13.8162056"><ele>329.0</ele><time>2026-05-02T10:15:56.037Z</time></trkpt><trkpt lat="42.2413954" lon="13.8161501"><ele>329.0</ele><time>2026-05-02T10:15:57.038Z</time></trkpt><trkpt lat="42.2414807" lon="13.8160715"><ele>329.0</ele><time>2026-05-02T10:15:58.038Z</time></trkpt><trkpt lat="42.2415558" lon="13.8159807"><ele>327.6666666666667</ele><time>2026-05-02T10:15:59.037Z</time></trkpt><trkpt lat="42.2416118" lon="13.8158833"><ele>326.33333333333337</ele><time>2026-05-02T10:16:00.037Z</time></trkpt><trkpt lat="42.2416448" lon="13.8157871"><ele>325.0</ele><time>2026-05-02T10:16:01.037Z</time></trkpt><trkpt lat="42.2416525" lon="13.8156885"><ele>323.6666666666667</ele><time>2026-05-02T10:16:02.038Z</time></trkpt><trkpt lat="42.2416559" lon="13.8155832"><ele>322.3333333333333</ele><time>2026-05-02T10:16:03.037Z</time></trkpt><trkpt lat="42.2416667" lon="13.8154705"><ele>321.0</ele><time>2026-05-02T10:16:04.037Z</time></trkpt><trkpt lat="42.2416935" lon="13.815361"><ele>321.0</ele><time>2026-05-02T10:16:05.037Z</time></trkpt><trkpt lat="42.2417297" lon="13.8152396"><ele>321.0</ele><time>2026-05-02T10:16:06.038Z</time></trkpt><trkpt lat="42.2417663" lon="13.8151303"><ele>321.0</ele><time>2026-05-02T10:16:07.038Z</time></trkpt><trkpt lat="42.2418007" lon="13.8150308"><ele>321.0</ele><time>2026-05-02T10:16:08.037Z</time></trkpt><trkpt lat="42.2418312" lon="13.814935"><ele>321.0</ele><time>2026-05-02T10:16:09.037Z</time></trkpt><trkpt lat="42.2418547" lon="13.8148452"><ele>321.0</ele><time>2026-05-02T10:16:10.038Z</time></trkpt><trkpt lat="42.2418885" lon="13.8146691"><ele>320.6</ele><time>2026-05-02T10:16:12.037Z</time></trkpt><trkpt lat="42.241944" lon="13.8145356"><ele>320.20000000000005</ele><time>2026-05-02T10:16:14.037Z</time></trkpt><trkpt lat="42.2420827" lon="13.8144937"><ele>319.79999999999995</ele><time>2026-05-02T10:16:16.038Z</time></trkpt><trkpt lat="42.2421729" lon="13.8144993"><ele>319.4</ele><time>2026-05-02T10:16:17.037Z</time></trkpt><trkpt lat="42.2422584" lon="13.8144736"><ele>319.0</ele><time>2026-05-02T10:16:18.037Z</time></trkpt><trkpt lat="42.2423417" lon="13.8144281"><ele>319.16666666666663</ele><time>2026-05-02T10:16:19.038Z</time></trkpt><trkpt lat="42.2424212" lon="13.8143654"><ele>319.3333333333333</ele><time>2026-05-02T10:16:20.038Z</time></trkpt><trkpt lat="42.2424909" lon="13.8142942"><ele>319.5</ele><time>2026-05-02T10:16:21.037Z</time></trkpt><trkpt lat="42.242555" lon="13.8142261"><ele>319.6666666666667</ele><time>2026-05-02T10:16:22.038Z</time></trkpt><trkpt lat="42.242616" lon="13.8141599"><ele>319.83333333333337</ele><time>2026-05-02T10:16:23.037Z</time></trkpt><trkpt lat="42.2426785" lon="13.8140966"><ele>320.0</ele><time>2026-05-02T10:16:24.037Z</time></trkpt><trkpt lat="42.2427413" lon="13.8140368"><ele>320.0</ele><time>2026-05-02T10:16:25.037Z</time></trkpt><trkpt lat="42.2428033" lon="13.8139736"><ele>320.0</ele><time>2026-05-02T10:16:26.038Z</time></trkpt><trkpt lat="42.2428634" lon="13.8139143"><ele>320.0</ele><time>2026-05-02T10:16:27.037Z</time></trkpt><trkpt lat="42.2429236" lon="13.8138563"><ele>320.0</ele><time>2026-05-02T10:16:28.038Z</time></trkpt><trkpt lat="42.2429771" lon="13.8137897"><ele>320.0</ele><time>2026-05-02T10:16:29.037Z</time></trkpt><trkpt lat="42.2430268" lon="13.8137234"><ele>320.0</ele><time>2026-05-02T10:16:30.037Z</time></trkpt><trkpt lat="42.2430807" lon="13.8136573"><ele>320.0</ele><time>2026-05-02T10:16:31.037Z</time></trkpt><trkpt lat="42.2431337" lon="13.8135783"><ele>321.0</ele><time>2026-05-02T10:16:32.038Z</time></trkpt><trkpt lat="42.243194" lon="13.8134975"><ele>322.0</ele><time>2026-05-02T10:16:33.037Z</time></trkpt><trkpt lat="42.2432521" lon="13.8134131"><ele>323.0</ele><time>2026-05-02T10:16:34.037Z</time></trkpt><trkpt lat="42.2433187" lon="13.8133248"><ele>324.0</ele><time>2026-05-02T10:16:35.037Z</time></trkpt><trkpt lat="42.2433927" lon="13.8132413"><ele>325.0</ele><time>2026-05-02T10:16:36.037Z</time></trkpt><trkpt lat="42.2434702" lon="13.8131614"><ele>325.0</ele><time>2026-05-02T10:16:37.037Z</time></trkpt><trkpt lat="42.2435517" lon="13.8130849"><ele>325.0</ele><time>2026-05-02T10:16:38.037Z</time></trkpt><trkpt lat="42.2436349" lon="13.8130159"><ele>325.0</ele><time>2026-05-02T10:16:39.037Z</time></trkpt><trkpt lat="42.2437208" lon="13.8129671"><ele>325.0</ele><time>2026-05-02T10:16:40.037Z</time></trkpt><trkpt lat="42.2438147" lon="13.8129322"><ele>325.0</ele><time>2026-05-02T10:16:41.038Z</time></trkpt><trkpt lat="42.2439074" lon="13.8129077"><ele>326.0</ele><time>2026-05-02T10:16:42.037Z</time></trkpt><trkpt lat="42.2439967" lon="13.8128819"><ele>327.0</ele><time>2026-05-02T10:16:43.037Z</time></trkpt><trkpt lat="42.2440775" lon="13.8128351"><ele>328.0</ele><time>2026-05-02T10:16:44.037Z</time></trkpt><trkpt lat="42.2441572" lon="13.8127784"><ele>329.0</ele><time>2026-05-02T10:16:45.038Z</time></trkpt><trkpt lat="42.2442305" lon="13.8127233"><ele>330.0</ele><time>2026-05-02T10:16:46.037Z</time></trkpt><trkpt lat="42.2443143" lon="13.8126806"><ele>331.0</ele><time>2026-05-02T10:16:47.037Z</time></trkpt><trkpt lat="42.2444022" lon="13.8126581"><ele>330.5</ele><time>2026-05-02T10:16:48.037Z</time></trkpt><trkpt lat="42.2444936" lon="13.8126395"><ele>330.0</ele><time>2026-05-02T10:16:49.037Z</time></trkpt><trkpt lat="42.2445878" lon="13.8126195"><ele>329.5</ele><time>2026-05-02T10:16:50.038Z</time></trkpt><trkpt lat="42.2446677" lon="13.8125873"><ele>329.0</ele><time>2026-05-02T10:16:51.038Z</time></trkpt><trkpt lat="42.2447402" lon="13.8125434"><ele>328.5</ele><time>2026-05-02T10:16:52.038Z</time></trkpt><trkpt lat="42.2448093" lon="13.8124913"><ele>328.0</ele><time>2026-05-02T10:16:53.037Z</time></trkpt><trkpt lat="42.2448708" lon="13.8124235"><ele>328.0</ele><time>2026-05-02T10:16:54.038Z</time></trkpt><trkpt lat="42.2449245" lon="13.8123326"><ele>328.0</ele><time>2026-05-02T10:16:55.037Z</time></trkpt><trkpt lat="42.2449745" lon="13.8122301"><ele>328.0</ele><time>2026-05-02T10:16:56.037Z</time></trkpt><trkpt lat="42.2450131" lon="13.8121176"><ele>328.0</ele><time>2026-05-02T10:16:57.037Z</time></trkpt><trkpt lat="42.2450406" lon="13.8119907"><ele>328.0</ele><time>2026-05-02T10:16:58.037Z</time></trkpt><trkpt lat="42.2450622" lon="13.8118636"><ele>327.3333333333333</ele><time>2026-05-02T10:16:59.038Z</time></trkpt><trkpt lat="42.245089" lon="13.8117508"><ele>326.66666666666663</ele><time>2026-05-02T10:17:00.037Z</time></trkpt><trkpt lat="42.2451242" lon="13.8116485"><ele>326.0</ele><time>2026-05-02T10:17:01.037Z</time></trkpt><trkpt lat="42.245162" lon="13.8115513"><ele>325.3333333333333</ele><time>2026-05-02T10:17:02.037Z</time></trkpt><trkpt lat="42.2452174" lon="13.811462"><ele>324.6666666666667</ele><time>2026-05-02T10:17:03.037Z</time></trkpt><trkpt lat="42.2452838" lon="13.8113758"><ele>324.0</ele><time>2026-05-02T10:17:04.037Z</time></trkpt><trkpt lat="42.2453667" lon="13.8113014"><ele>324.0</ele><time>2026-05-02T10:17:05.037Z</time></trkpt><trkpt lat="42.245456" lon="13.8112162"><ele>324.0</ele><time>2026-05-02T10:17:06.037Z</time></trkpt><trkpt lat="42.2455491" lon="13.8111214"><ele>324.0</ele><time>2026-05-02T10:17:07.037Z</time></trkpt><trkpt lat="42.2456353" lon="13.8110185"><ele>324.0</ele><time>2026-05-02T10:17:08.038Z</time></trkpt><trkpt lat="42.2457164" lon="13.8109097"><ele>324.2</ele><time>2026-05-02T10:17:09.038Z</time></trkpt><trkpt lat="42.2457914" lon="13.810797"><ele>324.4</ele><time>2026-05-02T10:17:10.037Z</time></trkpt><trkpt lat="42.2458678" lon="13.8106884"><ele>324.6</ele><time>2026-05-02T10:17:11.037Z</time></trkpt><trkpt lat="42.2459504" lon="13.8105887"><ele>324.8</ele><time>2026-05-02T10:17:12.037Z</time></trkpt><trkpt lat="42.2460343" lon="13.8104971"><ele>325.0</ele><time>2026-05-02T10:17:13.037Z</time></trkpt><trkpt lat="42.2461133" lon="13.8104052"><ele>325.0</ele><time>2026-05-02T10:17:14.037Z</time></trkpt><trkpt lat="42.2461842" lon="13.8103148"><ele>325.0</ele><time>2026-05-02T10:17:15.038Z</time></trkpt><trkpt lat="42.2462505" lon="13.810225"><ele>325.0</ele><time>2026-05-02T10:17:16.038Z</time></trkpt><trkpt lat="42.2463114" lon="13.8101279"><ele>325.0</ele><time>2026-05-02T10:17:17.038Z</time></trkpt><trkpt lat="42.2463681" lon="13.810024"><ele>325.0</ele><time>2026-05-02T10:17:18.037Z</time></trkpt><trkpt lat="42.2464141" lon="13.8098921"><ele>325.0</ele><time>2026-05-02T10:17:19.037Z</time></trkpt><trkpt lat="42.2464613" lon="13.8097501"><ele>325.0</ele><time>2026-05-02T10:17:20.038Z</time></trkpt><trkpt lat="42.2465027" lon="13.8096021"><ele>325.0</ele><time>2026-05-02T10:17:21.037Z</time></trkpt><trkpt lat="42.2465469" lon="13.8094416"><ele>325.0</ele><time>2026-05-02T10:17:22.038Z</time></trkpt><trkpt lat="42.2465891" lon="13.8092804"><ele>324.75</ele><time>2026-05-02T10:17:23.037Z</time></trkpt><trkpt lat="42.2466373" lon="13.8091191"><ele>324.5</ele><time>2026-05-02T10:17:24.037Z</time></trkpt><trkpt lat="42.2466811" lon="13.8089648"><ele>324.25</ele><time>2026-05-02T10:17:25.037Z</time></trkpt><trkpt lat="42.2467227" lon="13.8088142"><ele>324.0</ele><time>2026-05-02T10:17:26.037Z</time></trkpt><trkpt lat="42.2467597" lon="13.8086732"><ele>324.0</ele><time>2026-05-02T10:17:27.038Z</time></trkpt><trkpt lat="42.2467898" lon="13.8085389"><ele>324.0</ele><time>2026-05-02T10:17:28.037Z</time></trkpt><trkpt lat="42.2468127" lon="13.8084089"><ele>324.0</ele><time>2026-05-02T10:17:29.038Z</time></trkpt><trkpt lat="42.2468353" lon="13.8082939"><ele>324.0</ele><time>2026-05-02T10:17:30.037Z</time></trkpt><trkpt lat="42.246866" lon="13.8081837"><ele>324.0</ele><time>2026-05-02T10:17:31.038Z</time></trkpt><trkpt lat="42.2469141" lon="13.8080805"><ele>324.2</ele><time>2026-05-02T10:17:32.038Z</time></trkpt><trkpt lat="42.2469773" lon="13.8079909"><ele>324.4</ele><time>2026-05-02T10:17:33.037Z</time></trkpt><trkpt lat="42.2470514" lon="13.8078865"><ele>324.6</ele><time>2026-05-02T10:17:34.037Z</time></trkpt><trkpt lat="42.2471374" lon="13.8077833"><ele>324.8</ele><time>2026-05-02T10:17:35.037Z</time></trkpt><trkpt lat="42.2472209" lon="13.8076829"><ele>325.0</ele><time>2026-05-02T10:17:36.037Z</time></trkpt><trkpt lat="42.2473074" lon="13.8076005"><ele>325.6</ele><time>2026-05-02T10:17:37.037Z</time></trkpt><trkpt lat="42.2474008" lon="13.8075285"><ele>326.2</ele><time>2026-05-02T10:17:38.037Z</time></trkpt><trkpt lat="42.247493" lon="13.8074677"><ele>326.79999999999995</ele><time>2026-05-02T10:17:39.037Z</time></trkpt><trkpt lat="42.2475768" lon="13.8073923"><ele>327.4</ele><time>2026-05-02T10:17:40.037Z</time></trkpt><trkpt lat="42.2476433" lon="13.8073047"><ele>328.0</ele><time>2026-05-02T10:17:41.038Z</time></trkpt><trkpt lat="42.2476882" lon="13.8072019"><ele>328.0</ele><time>2026-05-02T10:17:42.037Z</time></trkpt><trkpt lat="42.2477175" lon="13.8070936"><ele>328.0</ele><time>2026-05-02T10:17:43.037Z</time></trkpt><trkpt lat="42.2477381" lon="13.8069606"><ele>328.0</ele><time>2026-05-02T10:17:44.037Z</time></trkpt><trkpt lat="42.2477482" lon="13.8068246"><ele>328.0</ele><time>2026-05-02T10:17:45.037Z</time></trkpt><trkpt lat="42.2477676" lon="13.8067013"><ele>328.0</ele><time>2026-05-02T10:17:46.038Z</time></trkpt><trkpt lat="42.247788" lon="13.806585"><ele>327.59999999999997</ele><time>2026-05-02T10:17:47.037Z</time></trkpt><trkpt lat="42.247821" lon="13.8064849"><ele>327.2</ele><time>2026-05-02T10:17:48.037Z</time></trkpt><trkpt lat="42.2478734" lon="13.806383"><ele>326.8</ele><time>2026-05-02T10:17:49.037Z</time></trkpt><trkpt lat="42.2479346" lon="13.8062716"><ele>326.4</ele><time>2026-05-02T10:17:50.037Z</time></trkpt><trkpt lat="42.2479994" lon="13.806153"><ele>326.0</ele><time>2026-05-02T10:17:51.037Z</time></trkpt><trkpt lat="42.2480591" lon="13.8060267"><ele>326.4</ele><time>2026-05-02T10:17:52.037Z</time></trkpt><trkpt lat="42.2481179" lon="13.8059055"><ele>326.8</ele><time>2026-05-02T10:17:53.037Z</time></trkpt><trkpt lat="42.2481795" lon="13.8057932"><ele>327.2</ele><time>2026-05-02T10:17:54.038Z</time></trkpt><trkpt lat="42.2482403" lon="13.8056869"><ele>327.59999999999997</ele><time>2026-05-02T10:17:55.037Z</time></trkpt><trkpt lat="42.2483043" lon="13.8055896"><ele>328.0</ele><time>2026-05-02T10:17:56.038Z</time></trkpt><trkpt lat="42.2483628" lon="13.8054959"><ele>329.16666666666663</ele><time>2026-05-02T10:17:57.038Z</time></trkpt><trkpt lat="42.2484231" lon="13.8054132"><ele>330.3333333333333</ele><time>2026-05-02T10:17:58.037Z</time></trkpt><trkpt lat="42.2484939" lon="13.8053489"><ele>331.5</ele><time>2026-05-02T10:17:59.038Z</time></trkpt><trkpt lat="42.2485722" lon="13.8052991"><ele>332.6666666666667</ele><time>2026-05-02T10:18:00.038Z</time></trkpt><trkpt lat="42.2486591" lon="13.8052575"><ele>333.83333333333337</ele><time>2026-05-02T10:18:01.037Z</time></trkpt><trkpt lat="42.2487552" lon="13.8052314"><ele>335.0</ele><time>2026-05-02T10:18:02.037Z</time></trkpt><trkpt lat="42.2488529" lon="13.805214"><ele>335.0</ele><time>2026-05-02T10:18:03.038Z</time></trkpt><trkpt lat="42.2489484" lon="13.8051869"><ele>335.0</ele><time>2026-05-02T10:18:04.037Z</time></trkpt><trkpt lat="42.2490329" lon="13.805143"><ele>335.0</ele><time>2026-05-02T10:18:05.038Z</time></trkpt><trkpt lat="42.2491245" lon="13.8050816"><ele>335.0</ele><time>2026-05-02T10:18:06.037Z</time></trkpt><trkpt lat="42.24921" lon="13.8049923"><ele>335.0</ele><time>2026-05-02T10:18:07.038Z</time></trkpt><trkpt lat="42.2492934" lon="13.8048809"><ele>335.4</ele><time>2026-05-02T10:18:08.037Z</time></trkpt><trkpt lat="42.2493709" lon="13.8047657"><ele>335.8</ele><time>2026-05-02T10:18:09.037Z</time></trkpt><trkpt lat="42.2494422" lon="13.8046603"><ele>336.20000000000005</ele><time>2026-05-02T10:18:10.037Z</time></trkpt><trkpt lat="42.2495116" lon="13.804553"><ele>336.6</ele><time>2026-05-02T10:18:11.037Z</time></trkpt><trkpt lat="42.2495804" lon="13.8044505"><ele>337.0</ele><time>2026-05-02T10:18:12.037Z</time></trkpt><trkpt lat="42.2496461" lon="13.8043483"><ele>336.8</ele><time>2026-05-02T10:18:13.037Z</time></trkpt><trkpt lat="42.2497073" lon="13.8042466"><ele>336.6</ele><time>2026-05-02T10:18:14.037Z</time></trkpt><trkpt lat="42.2497643" lon="13.8041383"><ele>336.40000000000003</ele><time>2026-05-02T10:18:15.037Z</time></trkpt><trkpt lat="42.2498184" lon="13.8040353"><ele>336.20000000000005</ele><time>2026-05-02T10:18:16.038Z</time></trkpt><trkpt lat="42.2498798" lon="13.8039454"><ele>336.0</ele><time>2026-05-02T10:18:17.037Z</time></trkpt><trkpt lat="42.2499471" lon="13.8038679"><ele>336.0</ele><time>2026-05-02T10:18:18.037Z</time></trkpt><trkpt lat="42.2500162" lon="13.803806"><ele>336.0</ele><time>2026-05-02T10:18:19.037Z</time></trkpt><trkpt lat="42.2500846" lon="13.8037538"><ele>336.0</ele><time>2026-05-02T10:18:20.037Z</time></trkpt><trkpt lat="42.2501787" lon="13.8036872"><ele>336.0</ele><time>2026-05-02T10:18:22.038Z</time></trkpt><trkpt lat="42.250103" lon="13.8037527"><ele>336.0</ele><time>2026-05-02T10:18:35.037Z</time></trkpt><trkpt lat="42.2500348" lon="13.8038063"><ele>336.0</ele><time>2026-05-02T10:18:36.037Z</time></trkpt><trkpt lat="42.2499588" lon="13.8038643"><ele>336.0</ele><time>2026-05-02T10:18:37.037Z</time></trkpt><trkpt lat="42.249884" lon="13.8039456"><ele>336.0</ele><time>2026-05-02T10:18:38.037Z</time></trkpt><trkpt lat="42.2498199" lon="13.8040312"><ele>336.0</ele><time>2026-05-02T10:18:39.037Z</time></trkpt><trkpt lat="42.2497594" lon="13.8041421"><ele>336.0</ele><time>2026-05-02T10:18:40.037Z</time></trkpt><trkpt lat="42.249708" lon="13.8042555"><ele>336.0</ele><time>2026-05-02T10:18:41.038Z</time></trkpt><trkpt lat="42.2496518" lon="13.8043581"><ele>336.1666666666667</ele><time>2026-05-02T10:18:42.037Z</time></trkpt><trkpt lat="42.2495884" lon="13.8044434"><ele>336.3333333333333</ele><time>2026-05-02T10:18:43.037Z</time></trkpt><trkpt lat="42.2495268" lon="13.8045189"><ele>336.5</ele><time>2026-05-02T10:18:44.037Z</time></trkpt><trkpt lat="42.249482" lon="13.8045903"><ele>336.66666666666663</ele><time>2026-05-02T10:18:45.037Z</time></trkpt><trkpt lat="42.249471" lon="13.804739"><ele>336.8333333333333</ele><time>2026-05-02T10:18:47.037Z</time></trkpt><trkpt lat="42.2495054" lon="13.8048202"><ele>337.0</ele><time>2026-05-02T10:18:48.038Z</time></trkpt><trkpt lat="42.249562" lon="13.8048942"><ele>337.0</ele><time>2026-05-02T10:18:49.037Z</time></trkpt><trkpt lat="42.2496433" lon="13.804965"><ele>337.0</ele><time>2026-05-02T10:18:50.038Z</time></trkpt><trkpt lat="42.2497503" lon="13.8050098"><ele>337.0</ele><time>2026-05-02T10:18:51.038Z</time></trkpt><trkpt lat="42.2498733" lon="13.8050185"><ele>337.0</ele><time>2026-05-02T10:18:52.037Z</time></trkpt><trkpt lat="42.2500124" lon="13.8050218"><ele>337.5</ele><time>2026-05-02T10:18:53.037Z</time></trkpt><trkpt lat="42.2501588" lon="13.805011"><ele>338.0</ele><time>2026-05-02T10:18:54.037Z</time></trkpt><trkpt lat="42.2503108" lon="13.8050068"><ele>338.5</ele><time>2026-05-02T10:18:55.037Z</time></trkpt><trkpt lat="42.2504558" lon="13.8050019"><ele>339.0</ele><time>2026-05-02T10:18:56.037Z</time></trkpt><trkpt lat="42.2505848" lon="13.8049931"><ele>341.0</ele><time>2026-05-02T10:18:57.037Z</time></trkpt><trkpt lat="42.2507036" lon="13.8049829"><ele>343.0</ele><time>2026-05-02T10:18:58.037Z</time></trkpt><trkpt lat="42.2508183" lon="13.8049766"><ele>345.0</ele><time>2026-05-02T10:18:59.038Z</time></trkpt><trkpt lat="42.250923" lon="13.8049933"><ele>347.0</ele><time>2026-05-02T10:19:00.037Z</time></trkpt><trkpt lat="42.2510072" lon="13.8050301"><ele>349.0</ele><time>2026-05-02T10:19:01.037Z</time></trkpt><trkpt lat="42.2510761" lon="13.8050923"><ele>349.2</ele><time>2026-05-02T10:19:02.037Z</time></trkpt><trkpt lat="42.2511322" lon="13.8051709"><ele>349.4</ele><time>2026-05-02T10:19:03.038Z</time></trkpt><trkpt lat="42.2511645" lon="13.8052869"><ele>349.6</ele><time>2026-05-02T10:19:04.037Z</time></trkpt><trkpt lat="42.2511855" lon="13.8054331"><ele>349.8</ele><time>2026-05-02T10:19:05.037Z</time></trkpt><trkpt lat="42.2512036" lon="13.8055989"><ele>350.0</ele><time>2026-05-02T10:19:06.037Z</time></trkpt><trkpt lat="42.2512297" lon="13.8057723"><ele>350.0</ele><time>2026-05-02T10:19:07.037Z</time></trkpt><trkpt lat="42.251257" lon="13.8059444"><ele>350.0</ele><time>2026-05-02T10:19:08.037Z</time></trkpt><trkpt lat="42.2512917" lon="13.8061074"><ele>350.0</ele><time>2026-05-02T10:19:09.037Z</time></trkpt><trkpt lat="42.2513583" lon="13.806262"><ele>350.0</ele><time>2026-05-02T10:19:10.037Z</time></trkpt><trkpt lat="42.2514312" lon="13.8064172"><ele>351.75</ele><time>2026-05-02T10:19:11.038Z</time></trkpt><trkpt lat="42.2515045" lon="13.8065849"><ele>353.5</ele><time>2026-05-02T10:19:12.038Z</time></trkpt><trkpt lat="42.2515748" lon="13.8067538"><ele>355.25</ele><time>2026-05-02T10:19:13.037Z</time></trkpt><trkpt lat="42.2516484" lon="13.8069121"><ele>357.0</ele><time>2026-05-02T10:19:14.038Z</time></trkpt><trkpt lat="42.2517202" lon="13.8070721"><ele>357.0</ele><time>2026-05-02T10:19:15.038Z</time></trkpt><trkpt lat="42.2517915" lon="13.8072393"><ele>357.0</ele><time>2026-05-02T10:19:16.037Z</time></trkpt><trkpt lat="42.2518625" lon="13.8074006"><ele>357.0</ele><time>2026-05-02T10:19:17.038Z</time></trkpt><trkpt lat="42.2519345" lon="13.807558"><ele>357.0</ele><time>2026-05-02T10:19:18.037Z</time></trkpt><trkpt lat="42.2520031" lon="13.8077164"><ele>357.0</ele><time>2026-05-02T10:19:19.037Z</time></trkpt><trkpt lat="42.252074" lon="13.8078627"><ele>357.0</ele><time>2026-05-02T10:19:20.037Z</time></trkpt><trkpt lat="42.2521462" lon="13.8080111"><ele>357.0</ele><time>2026-05-02T10:19:21.038Z</time></trkpt><trkpt lat="42.2522283" lon="13.808159"><ele>357.0</ele><time>2026-05-02T10:19:22.037Z</time></trkpt><trkpt lat="42.2523134" lon="13.8083034"><ele>359.25</ele><time>2026-05-02T10:19:23.038Z</time></trkpt><trkpt lat="42.2523963" lon="13.8084371"><ele>361.5</ele><time>2026-05-02T10:19:24.037Z</time></trkpt><trkpt lat="42.2524746" lon="13.8085671"><ele>363.75</ele><time>2026-05-02T10:19:25.037Z</time></trkpt><trkpt lat="42.2525444" lon="13.8086848"><ele>366.0</ele><time>2026-05-02T10:19:26.037Z</time></trkpt><trkpt lat="42.252605" lon="13.808793"><ele>366.0</ele><time>2026-05-02T10:19:27.037Z</time></trkpt><trkpt lat="42.2526478" lon="13.8088847"><ele>366.0</ele><time>2026-05-02T10:19:28.037Z</time></trkpt><trkpt lat="42.2526869" lon="13.8089717"><ele>366.0</ele><time>2026-05-02T10:19:30.037Z</time></trkpt><trkpt lat="42.2527343" lon="13.8090905"><ele>366.0</ele><time>2026-05-02T10:19:34.037Z</time></trkpt><trkpt lat="42.2527693" lon="13.809162"><ele>366.0</ele><time>2026-05-02T10:19:35.037Z</time></trkpt><trkpt lat="42.2528206" lon="13.8092459"><ele>366.0</ele><time>2026-05-02T10:19:36.037Z</time></trkpt><trkpt lat="42.2528867" lon="13.8093549"><ele>366.5</ele><time>2026-05-02T10:19:37.037Z</time></trkpt><trkpt lat="42.2529639" lon="13.80946"><ele>367.0</ele><time>2026-05-02T10:19:38.037Z</time></trkpt><trkpt lat="42.2530561" lon="13.8095675"><ele>367.5</ele><time>2026-05-02T10:19:39.037Z</time></trkpt><trkpt lat="42.2531607" lon="13.8096809"><ele>368.0</ele><time>2026-05-02T10:19:40.037Z</time></trkpt><trkpt lat="42.253265" lon="13.809809"><ele>369.5</ele><time>2026-05-02T10:19:41.037Z</time></trkpt><trkpt lat="42.2533661" lon="13.8099388"><ele>371.0</ele><time>2026-05-02T10:19:42.037Z</time></trkpt><trkpt lat="42.2534756" lon="13.8100508"><ele>372.5</ele><time>2026-05-02T10:19:43.038Z</time></trkpt><trkpt lat="42.2535991" lon="13.8101578"><ele>374.0</ele><time>2026-05-02T10:19:44.037Z</time></trkpt><trkpt lat="42.2537217" lon="13.8102783"><ele>374.0</ele><time>2026-05-02T10:19:45.038Z</time></trkpt><trkpt lat="42.2538341" lon="13.8104233"><ele>374.0</ele><time>2026-05-02T10:19:46.037Z</time></trkpt><trkpt lat="42.2539431" lon="13.8105714"><ele>374.0</ele><time>2026-05-02T10:19:47.037Z</time></trkpt><trkpt lat="42.2540477" lon="13.8107131"><ele>375.5</ele><time>2026-05-02T10:19:48.037Z</time></trkpt><trkpt lat="42.2541635" lon="13.8108322"><ele>377.0</ele><time>2026-05-02T10:19:49.037Z</time></trkpt><trkpt lat="42.2542741" lon="13.8109447"><ele>378.5</ele><time>2026-05-02T10:19:50.037Z</time></trkpt><trkpt lat="42.2543752" lon="13.8110619"><ele>380.0</ele><time>2026-05-02T10:19:51.037Z</time></trkpt><trkpt lat="42.2544622" lon="13.8112056"><ele>380.2</ele><time>2026-05-02T10:19:52.037Z</time></trkpt><trkpt lat="42.2545312" lon="13.8113531"><ele>380.4</ele><time>2026-05-02T10:19:53.038Z</time></trkpt><trkpt lat="42.2545909" lon="13.8114927"><ele>380.6</ele><time>2026-05-02T10:19:54.037Z</time></trkpt><trkpt lat="42.2546277" lon="13.8116069"><ele>380.8</ele><time>2026-05-02T10:19:55.037Z</time></trkpt><trkpt lat="42.2546493" lon="13.8117017"><ele>381.0</ele><time>2026-05-02T10:19:56.037Z</time></trkpt><trkpt lat="42.254696" lon="13.8117872"><ele>382.6</ele><time>2026-05-02T10:19:58.037Z</time></trkpt><trkpt lat="42.2547892" lon="13.8117268"><ele>384.20000000000005</ele><time>2026-05-02T10:20:01.037Z</time></trkpt><trkpt lat="42.2548408" lon="13.8116464"><ele>385.79999999999995</ele><time>2026-05-02T10:20:02.037Z</time></trkpt><trkpt lat="42.2548992" lon="13.8115545"><ele>387.4</ele><time>2026-05-02T10:20:03.038Z</time></trkpt><trkpt lat="42.2549627" lon="13.8114446"><ele>389.0</ele><time>2026-05-02T10:20:04.037Z</time></trkpt><trkpt lat="42.2550191" lon="13.8113374"><ele>389.0</ele><time>2026-05-02T10:20:05.037Z</time></trkpt><trkpt lat="42.2550807" lon="13.8112255"><ele>389.0</ele><time>2026-05-02T10:20:06.038Z</time></trkpt><trkpt lat="42.2551429" lon="13.8111083"><ele>389.0</ele><time>2026-05-02T10:20:07.037Z</time></trkpt><trkpt lat="42.2552035" lon="13.8109852"><ele>389.0</ele><time>2026-05-02T10:20:08.037Z</time></trkpt><trkpt lat="42.2552495" lon="13.8108645"><ele>389.0</ele><time>2026-05-02T10:20:09.037Z</time></trkpt><trkpt lat="42.2552891" lon="13.8107557"><ele>388.6</ele><time>2026-05-02T10:20:10.037Z</time></trkpt><trkpt lat="42.2553301" lon="13.8106427"><ele>388.2</ele><time>2026-05-02T10:20:11.037Z</time></trkpt><trkpt lat="42.2553715" lon="13.8105446"><ele>387.8</ele><time>2026-05-02T10:20:12.037Z</time></trkpt><trkpt lat="42.2554221" lon="13.8104515"><ele>387.40000000000003</ele><time>2026-05-02T10:20:13.037Z</time></trkpt><trkpt lat="42.2554865" lon="13.8103512"><ele>387.0</ele><time>2026-05-02T10:20:14.038Z</time></trkpt><trkpt lat="42.2555627" lon="13.8102429"><ele>387.25</ele><time>2026-05-02T10:20:15.037Z</time></trkpt><trkpt lat="42.2556453" lon="13.810135"><ele>387.5</ele><time>2026-05-02T10:20:16.037Z</time></trkpt><trkpt lat="42.2557235" lon="13.8100271"><ele>387.75</ele><time>2026-05-02T10:20:17.038Z</time></trkpt><trkpt lat="42.2557941" lon="13.809902"><ele>388.0</ele><time>2026-05-02T10:20:18.037Z</time></trkpt><trkpt lat="42.2558703" lon="13.8097519"><ele>388.0</ele><time>2026-05-02T10:20:19.037Z</time></trkpt><trkpt lat="42.2559488" lon="13.809605"><ele>388.0</ele><time>2026-05-02T10:20:20.037Z</time></trkpt><trkpt lat="42.2560277" lon="13.8094711"><ele>388.0</ele><time>2026-05-02T10:20:21.038Z</time></trkpt><trkpt lat="42.2560964" lon="13.8093453"><ele>388.0</ele><time>2026-05-02T10:20:22.037Z</time></trkpt><trkpt lat="42.2561632" lon="13.8092244"><ele>387.79999999999995</ele><time>2026-05-02T10:20:23.037Z</time></trkpt><trkpt lat="42.2562315" lon="13.8091182"><ele>387.6</ele><time>2026-05-02T10:20:24.037Z</time></trkpt><trkpt lat="42.2563152" lon="13.8090231"><ele>387.4</ele><time>2026-05-02T10:20:25.037Z</time></trkpt><trkpt lat="42.2564087" lon="13.8089282"><ele>387.20000000000005</ele><time>2026-05-02T10:20:26.037Z</time></trkpt><trkpt lat="42.2564953" lon="13.8088225"><ele>387.0</ele><time>2026-05-02T10:20:27.038Z</time></trkpt><trkpt lat="42.2565732" lon="13.8087298"><ele>387.0</ele><time>2026-05-02T10:20:28.037Z</time></trkpt><trkpt lat="42.2566487" lon="13.80865"><ele>387.0</ele><time>2026-05-02T10:20:29.037Z</time></trkpt><trkpt lat="42.2567289" lon="13.8085992"><ele>387.0</ele><time>2026-05-02T10:20:30.038Z</time></trkpt><trkpt lat="42.2568097" lon="13.8085622"><ele>387.0</ele><time>2026-05-02T10:20:31.038Z</time></trkpt><trkpt lat="42.2568921" lon="13.8085323"><ele>387.0</ele><time>2026-05-02T10:20:32.038Z</time></trkpt><trkpt lat="42.2569783" lon="13.8084842"><ele>387.0</ele><time>2026-05-02T10:20:33.037Z</time></trkpt><trkpt lat="42.2570605" lon="13.8084231"><ele>386.40000000000003</ele><time>2026-05-02T10:20:34.037Z</time></trkpt><trkpt lat="42.257143" lon="13.8083544"><ele>385.8</ele><time>2026-05-02T10:20:35.037Z</time></trkpt><trkpt lat="42.2572281" lon="13.8082801"><ele>385.2</ele><time>2026-05-02T10:20:36.037Z</time></trkpt><trkpt lat="42.2573168" lon="13.8082048"><ele>384.6</ele><time>2026-05-02T10:20:37.038Z</time></trkpt><trkpt lat="42.2574075" lon="13.8081381"><ele>384.0</ele><time>2026-05-02T10:20:38.038Z</time></trkpt><trkpt lat="42.2575028" lon="13.8080693"><ele>384.0</ele><time>2026-05-02T10:20:39.037Z</time></trkpt><trkpt lat="42.257597" lon="13.807992"><ele>384.0</ele><time>2026-05-02T10:20:40.037Z</time></trkpt><trkpt lat="42.2576994" lon="13.8079113"><ele>384.0</ele><time>2026-05-02T10:20:41.037Z</time></trkpt><trkpt lat="42.2577973" lon="13.8078233"><ele>384.0</ele><time>2026-05-02T10:20:42.037Z</time></trkpt><trkpt lat="42.2578981" lon="13.8077279"><ele>382.5</ele><time>2026-05-02T10:20:43.037Z</time></trkpt><trkpt lat="42.2579962" lon="13.8076313"><ele>381.0</ele><time>2026-05-02T10:20:44.038Z</time></trkpt><trkpt lat="42.2580904" lon="13.8075471"><ele>379.5</ele><time>2026-05-02T10:20:45.037Z</time></trkpt><trkpt lat="42.2581908" lon="13.8074757"><ele>378.0</ele><time>2026-05-02T10:20:46.037Z</time></trkpt><trkpt lat="42.2582948" lon="13.8074177"><ele>378.0</ele><time>2026-05-02T10:20:47.038Z</time></trkpt><trkpt lat="42.2584078" lon="13.8073658"><ele>378.0</ele><time>2026-05-02T10:20:48.037Z</time></trkpt><trkpt lat="42.2585252" lon="13.8073302"><ele>378.0</ele><time>2026-05-02T10:20:49.037Z</time></trkpt><trkpt lat="42.2586425" lon="13.8072958"><ele>378.0</ele><time>2026-05-02T10:20:50.037Z</time></trkpt><trkpt lat="42.2587598" lon="13.8072583"><ele>378.0</ele><time>2026-05-02T10:20:51.037Z</time></trkpt><trkpt lat="42.2588686" lon="13.8072166"><ele>378.0</ele><time>2026-05-02T10:20:52.037Z</time></trkpt><trkpt lat="42.258973" lon="13.8071701"><ele>378.0</ele><time>2026-05-02T10:20:53.038Z</time></trkpt><trkpt lat="42.2590797" lon="13.8071151"><ele>378.0</ele><time>2026-05-02T10:20:54.038Z</time></trkpt><trkpt lat="42.2591857" lon="13.8070524"><ele>377.75</ele><time>2026-05-02T10:20:55.037Z</time></trkpt><trkpt lat="42.2592918" lon="13.8069786"><ele>377.5</ele><time>2026-05-02T10:20:56.037Z</time></trkpt><trkpt lat="42.2593992" lon="13.8069046"><ele>377.25</ele><time>2026-05-02T10:20:57.037Z</time></trkpt><trkpt lat="42.2595073" lon="13.8068293"><ele>377.0</ele><time>2026-05-02T10:20:58.037Z</time></trkpt><trkpt lat="42.2596195" lon="13.8067681"><ele>377.0</ele><time>2026-05-02T10:20:59.037Z</time></trkpt><trkpt lat="42.2597345" lon="13.8067168"><ele>377.0</ele><time>2026-05-02T10:21:00.038Z</time></trkpt><trkpt lat="42.2598532" lon="13.8066548"><ele>377.0</ele><time>2026-05-02T10:21:01.038Z</time></trkpt><trkpt lat="42.2599692" lon="13.8065897"><ele>377.0</ele><time>2026-05-02T10:21:02.037Z</time></trkpt><trkpt lat="42.2600835" lon="13.8065197"><ele>377.0</ele><time>2026-05-02T10:21:03.037Z</time></trkpt><trkpt lat="42.2601897" lon="13.8064388"><ele>377.0</ele><time>2026-05-02T10:21:04.037Z</time></trkpt><trkpt lat="42.2602919" lon="13.8063541"><ele>377.0</ele><time>2026-05-02T10:21:05.038Z</time></trkpt><trkpt lat="42.260397" lon="13.8062759"><ele>377.0</ele><time>2026-05-02T10:21:06.037Z</time></trkpt><trkpt lat="42.2605003" lon="13.8061972"><ele>377.0</ele><time>2026-05-02T10:21:07.037Z</time></trkpt><trkpt lat="42.2606036" lon="13.8061217"><ele>377.0</ele><time>2026-05-02T10:21:08.037Z</time></trkpt><trkpt lat="42.2607022" lon="13.8060512"><ele>377.0</ele><time>2026-05-02T10:21:09.037Z</time></trkpt><trkpt lat="42.2607973" lon="13.8059821"><ele>377.0</ele><time>2026-05-02T10:21:10.037Z</time></trkpt><trkpt lat="42.2608854" lon="13.8059204"><ele>377.0</ele><time>2026-05-02T10:21:11.037Z</time></trkpt><trkpt lat="42.2609491" lon="13.8058661"><ele>376.40000000000003</ele><time>2026-05-02T10:21:12.037Z</time></trkpt><trkpt lat="42.2610293" lon="13.8057514"><ele>375.8</ele><time>2026-05-02T10:21:14.037Z</time></trkpt><trkpt lat="42.2611257" lon="13.8056636"><ele>375.2</ele><time>2026-05-02T10:21:16.037Z</time></trkpt><trkpt lat="42.2611996" lon="13.8056348"><ele>374.6</ele><time>2026-05-02T10:21:17.038Z</time></trkpt><trkpt lat="42.2612872" lon="13.8055964"><ele>374.0</ele><time>2026-05-02T10:21:18.037Z</time></trkpt><trkpt lat="42.2613902" lon="13.8055551"><ele>373.25</ele><time>2026-05-02T10:21:19.037Z</time></trkpt><trkpt lat="42.2614998" lon="13.8055095"><ele>372.5</ele><time>2026-05-02T10:21:20.037Z</time></trkpt><trkpt lat="42.2616227" lon="13.8054595"><ele>371.75</ele><time>2026-05-02T10:21:21.037Z</time></trkpt><trkpt lat="42.2617452" lon="13.8054114"><ele>371.0</ele><time>2026-05-02T10:21:22.038Z</time></trkpt><trkpt lat="42.2618619" lon="13.8053668"><ele>371.0</ele><time>2026-05-02T10:21:23.038Z</time></trkpt><trkpt lat="42.2619676" lon="13.8053218"><ele>371.0</ele><time>2026-05-02T10:21:24.037Z</time></trkpt><trkpt lat="42.2620648" lon="13.8052846"><ele>371.0</ele><time>2026-05-02T10:21:25.037Z</time></trkpt><trkpt lat="42.2621519" lon="13.8052611"><ele>371.0</ele><time>2026-05-02T10:21:26.037Z</time></trkpt><trkpt lat="42.2622206" lon="13.8052493"><ele>371.0</ele><time>2026-05-02T10:21:27.037Z</time></trkpt><trkpt lat="42.2623202" lon="13.8052763"><ele>370.8</ele><time>2026-05-02T10:21:29.037Z</time></trkpt><trkpt lat="42.2624252" lon="13.8053139"><ele>370.6</ele><time>2026-05-02T10:21:31.037Z</time></trkpt><trkpt lat="42.2625616" lon="13.8053029"><ele>370.4</ele><time>2026-05-02T10:21:33.037Z</time></trkpt><trkpt lat="42.2626466" lon="13.8052793"><ele>370.2</ele><time>2026-05-02T10:21:34.037Z</time></trkpt><trkpt lat="42.2627459" lon="13.8052423"><ele>370.0</ele><time>2026-05-02T10:21:35.037Z</time></trkpt><trkpt lat="42.2628549" lon="13.8052129"><ele>370.0</ele><time>2026-05-02T10:21:36.037Z</time></trkpt><trkpt lat="42.2629673" lon="13.8051889"><ele>370.0</ele><time>2026-05-02T10:21:37.037Z</time></trkpt><trkpt lat="42.2630849" lon="13.8051648"><ele>370.0</ele><time>2026-05-02T10:21:38.037Z</time></trkpt><trkpt lat="42.2632082" lon="13.8051431"><ele>370.0</ele><time>2026-05-02T10:21:39.038Z</time></trkpt><trkpt lat="42.2633342" lon="13.8051221"><ele>368.75</ele><time>2026-05-02T10:21:40.038Z</time></trkpt><trkpt lat="42.2634584" lon="13.8050991"><ele>367.5</ele><time>2026-05-02T10:21:41.037Z</time></trkpt><trkpt lat="42.2635847" lon="13.8050818"><ele>366.25</ele><time>2026-05-02T10:21:42.037Z</time></trkpt><trkpt lat="42.2637034" lon="13.8050593"><ele>365.0</ele><time>2026-05-02T10:21:43.038Z</time></trkpt><trkpt lat="42.2638156" lon="13.8050345"><ele>365.0</ele><time>2026-05-02T10:21:44.037Z</time></trkpt><trkpt lat="42.2639257" lon="13.8050138"><ele>365.0</ele><time>2026-05-02T10:21:45.037Z</time></trkpt><trkpt lat="42.2640379" lon="13.8050053"><ele>365.0</ele><time>2026-05-02T10:21:46.037Z</time></trkpt><trkpt lat="42.264152" lon="13.8050043"><ele>365.0</ele><time>2026-05-02T10:21:47.038Z</time></trkpt><trkpt lat="42.2642698" lon="13.8050039"><ele>364.25</ele><time>2026-05-02T10:21:48.038Z</time></trkpt><trkpt lat="42.2643964" lon="13.8050022"><ele>363.5</ele><time>2026-05-02T10:21:49.037Z</time></trkpt><trkpt lat="42.2645322" lon="13.8049825"><ele>362.75</ele><time>2026-05-02T10:21:50.037Z</time></trkpt><trkpt lat="42.264681" lon="13.8049531"><ele>362.0</ele><time>2026-05-02T10:21:51.038Z</time></trkpt><trkpt lat="42.2648396" lon="13.8049125"><ele>360.6666666666667</ele><time>2026-05-02T10:21:52.037Z</time></trkpt><trkpt lat="42.2649944" lon="13.8048727"><ele>359.3333333333333</ele><time>2026-05-02T10:21:53.037Z</time></trkpt><trkpt lat="42.2651515" lon="13.8048209"><ele>358.0</ele><time>2026-05-02T10:21:54.037Z</time></trkpt><trkpt lat="42.2653134" lon="13.8047624"><ele>358.0</ele><time>2026-05-02T10:21:55.038Z</time></trkpt><trkpt lat="42.2654649" lon="13.80471"><ele>358.0</ele><time>2026-05-02T10:21:56.037Z</time></trkpt><trkpt lat="42.2656116" lon="13.804658"><ele>358.0</ele><time>2026-05-02T10:21:57.037Z</time></trkpt><trkpt lat="42.2657539" lon="13.8046045"><ele>357.5</ele><time>2026-05-02T10:21:58.037Z</time></trkpt><trkpt lat="42.2658894" lon="13.8045525"><ele>357.0</ele><time>2026-05-02T10:21:59.038Z</time></trkpt><trkpt lat="42.2660179" lon="13.8045023"><ele>356.5</ele><time>2026-05-02T10:22:00.037Z</time></trkpt><trkpt lat="42.2661372" lon="13.8044605"><ele>356.0</ele><time>2026-05-02T10:22:01.038Z</time></trkpt><trkpt lat="42.2662444" lon="13.8044094"><ele>356.0</ele><time>2026-05-02T10:22:02.038Z</time></trkpt><trkpt lat="42.2663494" lon="13.8043365"><ele>356.0</ele><time>2026-05-02T10:22:03.038Z</time></trkpt><trkpt lat="42.2664621" lon="13.804246"><ele>356.0</ele><time>2026-05-02T10:22:04.038Z</time></trkpt><trkpt lat="42.266579" lon="13.8041464"><ele>356.0</ele><time>2026-05-02T10:22:05.037Z</time></trkpt><trkpt lat="42.2666869" lon="13.8040598"><ele>355.75</ele><time>2026-05-02T10:22:06.037Z</time></trkpt><trkpt lat="42.2667814" lon="13.8039617"><ele>355.5</ele><time>2026-05-02T10:22:07.037Z</time></trkpt><trkpt lat="42.266862" lon="13.8038446"><ele>355.25</ele><time>2026-05-02T10:22:08.038Z</time></trkpt><trkpt lat="42.2669271" lon="13.8037088"><ele>355.0</ele><time>2026-05-02T10:22:09.038Z</time></trkpt><trkpt lat="42.2669766" lon="13.8035757"><ele>354.2</ele><time>2026-05-02T10:22:10.037Z</time></trkpt><trkpt lat="42.2670028" lon="13.8034455"><ele>353.4</ele><time>2026-05-02T10:22:11.037Z</time></trkpt><trkpt lat="42.2670264" lon="13.803323"><ele>352.6</ele><time>2026-05-02T10:22:12.037Z</time></trkpt><trkpt lat="42.2670768" lon="13.8032176"><ele>351.8</ele><time>2026-05-02T10:22:13.037Z</time></trkpt><trkpt lat="42.267149" lon="13.8031104"><ele>351.0</ele><time>2026-05-02T10:22:14.037Z</time></trkpt><trkpt lat="42.267233" lon="13.8029862"><ele>351.6</ele><time>2026-05-02T10:22:15.037Z</time></trkpt><trkpt lat="42.2673187" lon="13.8028576"><ele>352.20000000000005</ele><time>2026-05-02T10:22:16.037Z</time></trkpt><trkpt lat="42.2673821" lon="13.8027495"><ele>352.79999999999995</ele><time>2026-05-02T10:22:17.037Z</time></trkpt><trkpt lat="42.2674346" lon="13.8026601"><ele>353.4</ele><time>2026-05-02T10:22:18.037Z</time></trkpt><trkpt lat="42.2674638" lon="13.8025716"><ele>354.0</ele><time>2026-05-02T10:22:19.037Z</time></trkpt><trkpt lat="42.2675021" lon="13.8024929"><ele>354.0</ele><time>2026-05-02T10:22:20.037Z</time></trkpt><trkpt lat="42.2675593" lon="13.8024095"><ele>354.0</ele><time>2026-05-02T10:22:21.037Z</time></trkpt><trkpt lat="42.2676196" lon="13.8023213"><ele>354.0</ele><time>2026-05-02T10:22:22.037Z</time></trkpt><trkpt lat="42.2676864" lon="13.8022282"><ele>354.0</ele><time>2026-05-02T10:22:23.037Z</time></trkpt><trkpt lat="42.2677669" lon="13.8021335"><ele>354.0</ele><time>2026-05-02T10:22:24.037Z</time></trkpt><trkpt lat="42.2678561" lon="13.8020324"><ele>354.0</ele><time>2026-05-02T10:22:25.036Z</time></trkpt><trkpt lat="42.2679498" lon="13.8019304"><ele>354.0</ele><time>2026-05-02T10:22:26.036Z</time></trkpt><trkpt lat="42.2680436" lon="13.8018287"><ele>354.0</ele><time>2026-05-02T10:22:27.036Z</time></trkpt><trkpt lat="42.2681386" lon="13.8017248"><ele>354.0</ele><time>2026-05-02T10:22:28.036Z</time></trkpt><trkpt lat="42.2682332" lon="13.8016164"><ele>353.75</ele><time>2026-05-02T10:22:29.036Z</time></trkpt><trkpt lat="42.2683321" lon="13.8015064"><ele>353.5</ele><time>2026-05-02T10:22:30.036Z</time></trkpt><trkpt lat="42.2684295" lon="13.8013954"><ele>353.25</ele><time>2026-05-02T10:22:31.036Z</time></trkpt><trkpt lat="42.2685237" lon="13.8012896"><ele>353.0</ele><time>2026-05-02T10:22:32.036Z</time></trkpt><trkpt lat="42.2686198" lon="13.8011791"><ele>353.0</ele><time>2026-05-02T10:22:33.036Z</time></trkpt><trkpt lat="42.2687215" lon="13.8010799"><ele>353.0</ele><time>2026-05-02T10:22:34.037Z</time></trkpt><trkpt lat="42.2688192" lon="13.800986"><ele>353.0</ele><time>2026-05-02T10:22:35.036Z</time></trkpt><trkpt lat="42.2689173" lon="13.8008967"><ele>353.0</ele><time>2026-05-02T10:22:36.036Z</time></trkpt><trkpt lat="42.2690086" lon="13.80081"><ele>352.79999999999995</ele><time>2026-05-02T10:22:37.036Z</time></trkpt><trkpt lat="42.2691046" lon="13.8007364"><ele>352.6</ele><time>2026-05-02T10:22:38.037Z</time></trkpt><trkpt lat="42.2692029" lon="13.8006764"><ele>352.4</ele><time>2026-05-02T10:22:39.037Z</time></trkpt><trkpt lat="42.2693003" lon="13.8006291"><ele>352.20000000000005</ele><time>2026-05-02T10:22:40.037Z</time></trkpt><trkpt lat="42.269401" lon="13.8006009"><ele>352.0</ele><time>2026-05-02T10:22:41.036Z</time></trkpt><trkpt lat="42.2694976" lon="13.8005623"><ele>352.0</ele><time>2026-05-02T10:22:42.037Z</time></trkpt><trkpt lat="42.2695848" lon="13.8004962"><ele>352.0</ele><time>2026-05-02T10:22:43.037Z</time></trkpt><trkpt lat="42.2696742" lon="13.8004211"><ele>352.0</ele><time>2026-05-02T10:22:44.036Z</time></trkpt><trkpt lat="42.2697712" lon="13.8003286"><ele>352.0</ele><time>2026-05-02T10:22:45.036Z</time></trkpt><trkpt lat="42.2698614" lon="13.8002204"><ele>352.0</ele><time>2026-05-02T10:22:46.036Z</time></trkpt><trkpt lat="42.2699506" lon="13.8001111"><ele>350.75</ele><time>2026-05-02T10:22:47.036Z</time></trkpt><trkpt lat="42.2700389" lon="13.8000122"><ele>349.5</ele><time>2026-05-02T10:22:48.036Z</time></trkpt><trkpt lat="42.2701251" lon="13.7999134"><ele>348.25</ele><time>2026-05-02T10:22:49.036Z</time></trkpt><trkpt lat="42.2702198" lon="13.7998259"><ele>347.0</ele><time>2026-05-02T10:22:50.037Z</time></trkpt><trkpt lat="42.2703222" lon="13.7997448"><ele>347.0</ele><time>2026-05-02T10:22:51.036Z</time></trkpt><trkpt lat="42.270432" lon="13.7996617"><ele>347.0</ele><time>2026-05-02T10:22:52.036Z</time></trkpt><trkpt lat="42.2705437" lon="13.7995817"><ele>347.0</ele><time>2026-05-02T10:22:53.036Z</time></trkpt><trkpt lat="42.2706546" lon="13.7995134"><ele>347.0</ele><time>2026-05-02T10:22:54.036Z</time></trkpt><trkpt lat="42.2707755" lon="13.799471"><ele>347.75</ele><time>2026-05-02T10:22:55.036Z</time></trkpt><trkpt lat="42.2708968" lon="13.7994298"><ele>348.5</ele><time>2026-05-02T10:22:56.036Z</time></trkpt><trkpt lat="42.2710144" lon="13.7993807"><ele>349.25</ele><time>2026-05-02T10:22:57.036Z</time></trkpt><trkpt lat="42.2711386" lon="13.7993263"><ele>350.0</ele><time>2026-05-02T10:22:58.036Z</time></trkpt><trkpt lat="42.2712633" lon="13.7992709"><ele>349.5</ele><time>2026-05-02T10:22:59.037Z</time></trkpt><trkpt lat="42.271382" lon="13.7992218"><ele>349.0</ele><time>2026-05-02T10:23:00.036Z</time></trkpt><trkpt lat="42.2714998" lon="13.7991628"><ele>348.5</ele><time>2026-05-02T10:23:01.036Z</time></trkpt><trkpt lat="42.2716233" lon="13.7991033"><ele>348.0</ele><time>2026-05-02T10:23:02.036Z</time></trkpt><trkpt lat="42.2717388" lon="13.7990305"><ele>348.0</ele><time>2026-05-02T10:23:03.036Z</time></trkpt><trkpt lat="42.2718528" lon="13.798963"><ele>348.0</ele><time>2026-05-02T10:23:04.037Z</time></trkpt><trkpt lat="42.2719662" lon="13.7989021"><ele>348.0</ele><time>2026-05-02T10:23:05.036Z</time></trkpt><trkpt lat="42.2720653" lon="13.7988455"><ele>348.0</ele><time>2026-05-02T10:23:06.036Z</time></trkpt><trkpt lat="42.2721551" lon="13.7987903"><ele>348.0</ele><time>2026-05-02T10:23:07.036Z</time></trkpt><trkpt lat="42.2722361" lon="13.798737"><ele>348.0</ele><time>2026-05-02T10:23:08.036Z</time></trkpt><trkpt lat="42.2723111" lon="13.798676"><ele>348.0</ele><time>2026-05-02T10:23:09.036Z</time></trkpt><trkpt lat="42.2723766" lon="13.7986183"><ele>348.0</ele><time>2026-05-02T10:23:10.037Z</time></trkpt><trkpt lat="42.2724378" lon="13.7985695"><ele>348.0</ele><time>2026-05-02T10:23:11.036Z</time></trkpt><trkpt lat="42.2724986" lon="13.7985218"><ele>348.0</ele><time>2026-05-02T10:23:12.037Z</time></trkpt><trkpt lat="42.272561" lon="13.7984738"><ele>347.8333333333333</ele><time>2026-05-02T10:23:13.036Z</time></trkpt><trkpt lat="42.2726274" lon="13.7984259"><ele>347.6666666666667</ele><time>2026-05-02T10:23:14.036Z</time></trkpt><trkpt lat="42.2726971" lon="13.7983735"><ele>347.5</ele><time>2026-05-02T10:23:15.036Z</time></trkpt><trkpt lat="42.2727689" lon="13.7983203"><ele>347.33333333333337</ele><time>2026-05-02T10:23:16.037Z</time></trkpt><trkpt lat="42.272838" lon="13.7982641"><ele>347.1666666666667</ele><time>2026-05-02T10:23:17.036Z</time></trkpt><trkpt lat="42.2729072" lon="13.7982019"><ele>347.0</ele><time>2026-05-02T10:23:18.036Z</time></trkpt><trkpt lat="42.2729688" lon="13.7981531"><ele>347.0</ele><time>2026-05-02T10:23:19.036Z</time></trkpt><trkpt lat="42.2730347" lon="13.7981118"><ele>347.0</ele><time>2026-05-02T10:23:20.036Z</time></trkpt><trkpt lat="42.2731122" lon="13.7980652"><ele>347.0</ele><time>2026-05-02T10:23:21.036Z</time></trkpt><trkpt lat="42.2731932" lon="13.7980246"><ele>347.0</ele><time>2026-05-02T10:23:22.036Z</time></trkpt><trkpt lat="42.2732817" lon="13.7979827"><ele>347.0</ele><time>2026-05-02T10:23:23.036Z</time></trkpt><trkpt lat="42.2733672" lon="13.7979267"><ele>347.0</ele><time>2026-05-02T10:23:24.037Z</time></trkpt><trkpt lat="42.2734557" lon="13.797865"><ele>347.0</ele><time>2026-05-02T10:23:25.036Z</time></trkpt><trkpt lat="42.273556" lon="13.7977977"><ele>347.0</ele><time>2026-05-02T10:23:26.037Z</time></trkpt><trkpt lat="42.2736514" lon="13.7977317"><ele>347.0</ele><time>2026-05-02T10:23:27.036Z</time></trkpt><trkpt lat="42.2737475" lon="13.7976594"><ele>347.0</ele><time>2026-05-02T10:23:28.036Z</time></trkpt><trkpt lat="42.273844" lon="13.7975855"><ele>347.0</ele><time>2026-05-02T10:23:29.036Z</time></trkpt><trkpt lat="42.2739421" lon="13.7975189"><ele>347.0</ele><time>2026-05-02T10:23:30.036Z</time></trkpt><trkpt lat="42.2740359" lon="13.7974527"><ele>347.0</ele><time>2026-05-02T10:23:31.036Z</time></trkpt><trkpt lat="42.2741289" lon="13.7973813"><ele>347.0</ele><time>2026-05-02T10:23:32.036Z</time></trkpt><trkpt lat="42.2742142" lon="13.7972963"><ele>347.0</ele><time>2026-05-02T10:23:33.036Z</time></trkpt><trkpt lat="42.274291" lon="13.7972058"><ele>347.0</ele><time>2026-05-02T10:23:34.036Z</time></trkpt><trkpt lat="42.2743699" lon="13.7971243"><ele>347.0</ele><time>2026-05-02T10:23:35.036Z</time></trkpt><trkpt lat="42.2744522" lon="13.7970486"><ele>347.0</ele><time>2026-05-02T10:23:36.036Z</time></trkpt><trkpt lat="42.2745425" lon="13.7969798"><ele>347.0</ele><time>2026-05-02T10:23:37.036Z</time></trkpt><trkpt lat="42.2746393" lon="13.7969163"><ele>347.0</ele><time>2026-05-02T10:23:38.037Z</time></trkpt><trkpt lat="42.2747378" lon="13.7968442"><ele>347.0</ele><time>2026-05-02T10:23:39.037Z</time></trkpt><trkpt lat="42.2748413" lon="13.7967722"><ele>347.0</ele><time>2026-05-02T10:23:40.036Z</time></trkpt><trkpt lat="42.2749403" lon="13.7967043"><ele>347.0</ele><time>2026-05-02T10:23:41.036Z</time></trkpt><trkpt lat="42.2750254" lon="13.7966444"><ele>347.0</ele><time>2026-05-02T10:23:42.036Z</time></trkpt><trkpt lat="42.2750946" lon="13.7965723"><ele>347.0</ele><time>2026-05-02T10:23:43.036Z</time></trkpt><trkpt lat="42.2751655" lon="13.7964807"><ele>347.0</ele><time>2026-05-02T10:23:44.036Z</time></trkpt><trkpt lat="42.2752351" lon="13.7963946"><ele>347.0</ele><time>2026-05-02T10:23:45.036Z</time></trkpt><trkpt lat="42.2753089" lon="13.7963323"><ele>347.0</ele><time>2026-05-02T10:23:46.036Z</time></trkpt><trkpt lat="42.2753855" lon="13.796288"><ele>347.0</ele><time>2026-05-02T10:23:47.037Z</time></trkpt><trkpt lat="42.275469" lon="13.7962594"><ele>347.0</ele><time>2026-05-02T10:23:48.036Z</time></trkpt><trkpt lat="42.2755603" lon="13.7962325"><ele>347.0</ele><time>2026-05-02T10:23:49.036Z</time></trkpt><trkpt lat="42.2756487" lon="13.7962038"><ele>347.0</ele><time>2026-05-02T10:23:50.036Z</time></trkpt><trkpt lat="42.2757264" lon="13.7961496"><ele>347.0</ele><time>2026-05-02T10:23:51.036Z</time></trkpt><trkpt lat="42.2758044" lon="13.7960832"><ele>347.0</ele><time>2026-05-02T10:23:52.036Z</time></trkpt><trkpt lat="42.2758899" lon="13.7960006"><ele>347.0</ele><time>2026-05-02T10:23:53.036Z</time></trkpt><trkpt lat="42.275974" lon="13.7959076"><ele>347.0</ele><time>2026-05-02T10:23:54.037Z</time></trkpt><trkpt lat="42.2760649" lon="13.7958106"><ele>347.0</ele><time>2026-05-02T10:23:55.037Z</time></trkpt><trkpt lat="42.2761559" lon="13.7957097"><ele>347.0</ele><time>2026-05-02T10:23:56.036Z</time></trkpt><trkpt lat="42.2762383" lon="13.7956059"><ele>347.0</ele><time>2026-05-02T10:23:57.036Z</time></trkpt><trkpt lat="42.2763161" lon="13.7955163"><ele>347.0</ele><time>2026-05-02T10:23:58.036Z</time></trkpt><trkpt lat="42.2764058" lon="13.7954364"><ele>347.0</ele><time>2026-05-02T10:23:59.037Z</time></trkpt><trkpt lat="42.2765005" lon="13.7953755"><ele>347.0</ele><time>2026-05-02T10:24:00.036Z</time></trkpt><trkpt lat="42.2766024" lon="13.7953193"><ele>347.20000000000005</ele><time>2026-05-02T10:24:01.036Z</time></trkpt><trkpt lat="42.2767007" lon="13.7952708"><ele>347.4</ele><time>2026-05-02T10:24:02.036Z</time></trkpt><trkpt lat="42.276793" lon="13.7952293"><ele>347.6</ele><time>2026-05-02T10:24:03.037Z</time></trkpt><trkpt lat="42.2768889" lon="13.7952002"><ele>347.79999999999995</ele><time>2026-05-02T10:24:04.036Z</time></trkpt><trkpt lat="42.2769935" lon="13.7951677"><ele>348.0</ele><time>2026-05-02T10:24:05.036Z</time></trkpt><trkpt lat="42.2770972" lon="13.7951441"><ele>348.0</ele><time>2026-05-02T10:24:06.036Z</time></trkpt><trkpt lat="42.2771906" lon="13.7951341"><ele>348.0</ele><time>2026-05-02T10:24:07.036Z</time></trkpt><trkpt lat="42.2772893" lon="13.7951282"><ele>348.0</ele><time>2026-05-02T10:24:08.036Z</time></trkpt><trkpt lat="42.2773925" lon="13.7951087"><ele>348.0</ele><time>2026-05-02T10:24:09.036Z</time></trkpt><trkpt lat="42.2774875" lon="13.7950876"><ele>348.0</ele><time>2026-05-02T10:24:10.036Z</time></trkpt><trkpt lat="42.2775806" lon="13.7950762"><ele>348.2</ele><time>2026-05-02T10:24:11.036Z</time></trkpt><trkpt lat="42.2776757" lon="13.7950806"><ele>348.4</ele><time>2026-05-02T10:24:12.037Z</time></trkpt><trkpt lat="42.2777741" lon="13.7950947"><ele>348.59999999999997</ele><time>2026-05-02T10:24:13.036Z</time></trkpt><trkpt lat="42.2778733" lon="13.7951122"><ele>348.79999999999995</ele><time>2026-05-02T10:24:14.036Z</time></trkpt><trkpt lat="42.2779694" lon="13.7951438"><ele>349.0</ele><time>2026-05-02T10:24:15.036Z</time></trkpt><trkpt lat="42.2780807" lon="13.7951784"><ele>350.5</ele><time>2026-05-02T10:24:16.036Z</time></trkpt><trkpt lat="42.2781988" lon="13.7952125"><ele>352.0</ele><time>2026-05-02T10:24:17.037Z</time></trkpt><trkpt lat="42.278319" lon="13.7952392"><ele>353.5</ele><time>2026-05-02T10:24:18.036Z</time></trkpt><trkpt lat="42.2784378" lon="13.7952676"><ele>355.0</ele><time>2026-05-02T10:24:19.036Z</time></trkpt><trkpt lat="42.2785526" lon="13.7952884"><ele>355.0</ele><time>2026-05-02T10:24:20.036Z</time></trkpt><trkpt lat="42.2786604" lon="13.7953024"><ele>355.0</ele><time>2026-05-02T10:24:21.036Z</time></trkpt><trkpt lat="42.2787579" lon="13.7952985"><ele>355.0</ele><time>2026-05-02T10:24:22.036Z</time></trkpt><trkpt lat="42.2788494" lon="13.7952693"><ele>355.0</ele><time>2026-05-02T10:24:23.036Z</time></trkpt><trkpt lat="42.2789361" lon="13.795227"><ele>355.0</ele><time>2026-05-02T10:24:24.036Z</time></trkpt><trkpt lat="42.2790234" lon="13.795205"><ele>354.4</ele><time>2026-05-02T10:24:25.036Z</time></trkpt><trkpt lat="42.2791177" lon="13.7951992"><ele>353.8</ele><time>2026-05-02T10:24:26.036Z</time></trkpt><trkpt lat="42.2792075" lon="13.7951801"><ele>353.20000000000005</ele><time>2026-05-02T10:24:27.036Z</time></trkpt><trkpt lat="42.279303" lon="13.7951455"><ele>352.6</ele><time>2026-05-02T10:24:28.036Z</time></trkpt><trkpt lat="42.2793952" lon="13.7950929"><ele>352.0</ele><time>2026-05-02T10:24:29.036Z</time></trkpt><trkpt lat="42.2794902" lon="13.7950195"><ele>349.5</ele><time>2026-05-02T10:24:30.036Z</time></trkpt><trkpt lat="42.2795871" lon="13.7949457"><ele>347.0</ele><time>2026-05-02T10:24:31.036Z</time></trkpt><trkpt lat="42.2796796" lon="13.7948692"><ele>344.5</ele><time>2026-05-02T10:24:32.036Z</time></trkpt><trkpt lat="42.2797737" lon="13.7947874"><ele>342.0</ele><time>2026-05-02T10:24:33.037Z</time></trkpt><trkpt lat="42.2798792" lon="13.7946958"><ele>342.0</ele><time>2026-05-02T10:24:34.036Z</time></trkpt><trkpt lat="42.2799874" lon="13.7945918"><ele>342.0</ele><time>2026-05-02T10:24:35.036Z</time></trkpt><trkpt lat="42.2801041" lon="13.7944878"><ele>342.0</ele><time>2026-05-02T10:24:36.037Z</time></trkpt><trkpt lat="42.2802203" lon="13.7943804"><ele>342.0</ele><time>2026-05-02T10:24:37.037Z</time></trkpt><trkpt lat="42.2803407" lon="13.7942708"><ele>342.0</ele><time>2026-05-02T10:24:38.036Z</time></trkpt><trkpt lat="42.2804665" lon="13.7941637"><ele>342.0</ele><time>2026-05-02T10:24:39.036Z</time></trkpt><trkpt lat="42.2805914" lon="13.7940639"><ele>342.0</ele><time>2026-05-02T10:24:40.036Z</time></trkpt><trkpt lat="42.2807156" lon="13.793966"><ele>342.0</ele><time>2026-05-02T10:24:41.036Z</time></trkpt><trkpt lat="42.2808438" lon="13.7938775"><ele>342.0</ele><time>2026-05-02T10:24:42.036Z</time></trkpt><trkpt lat="42.2809731" lon="13.7938064"><ele>342.0</ele><time>2026-05-02T10:24:43.037Z</time></trkpt><trkpt lat="42.2810938" lon="13.7937467"><ele>342.0</ele><time>2026-05-02T10:24:44.036Z</time></trkpt><trkpt lat="42.2812079" lon="13.7936842"><ele>342.0</ele><time>2026-05-02T10:24:45.036Z</time></trkpt><trkpt lat="42.2813201" lon="13.7936251"><ele>342.0</ele><time>2026-05-02T10:24:46.036Z</time></trkpt><trkpt lat="42.2814269" lon="13.7935651"><ele>342.0</ele><time>2026-05-02T10:24:47.037Z</time></trkpt><trkpt lat="42.2815207" lon="13.7935008"><ele>342.0</ele><time>2026-05-02T10:24:48.036Z</time></trkpt><trkpt lat="42.2816113" lon="13.7934357"><ele>342.0</ele><time>2026-05-02T10:24:49.036Z</time></trkpt><trkpt lat="42.2817" lon="13.793376"><ele>342.0</ele><time>2026-05-02T10:24:50.036Z</time></trkpt><trkpt lat="42.2817877" lon="13.793318"><ele>342.0</ele><time>2026-05-02T10:24:51.036Z</time></trkpt><trkpt lat="42.2818734" lon="13.7932617"><ele>342.0</ele><time>2026-05-02T10:24:52.036Z</time></trkpt><trkpt lat="42.2819599" lon="13.7931957"><ele>342.0</ele><time>2026-05-02T10:24:53.037Z</time></trkpt><trkpt lat="42.2820353" lon="13.7931272"><ele>342.0</ele><time>2026-05-02T10:24:54.036Z</time></trkpt><trkpt lat="42.2821132" lon="13.793053"><ele>342.0</ele><time>2026-05-02T10:24:55.036Z</time></trkpt><trkpt lat="42.2821991" lon="13.7929747"><ele>342.20000000000005</ele><time>2026-05-02T10:24:56.036Z</time></trkpt><trkpt lat="42.2822852" lon="13.7928894"><ele>342.4</ele><time>2026-05-02T10:24:57.036Z</time></trkpt><trkpt lat="42.2823697" lon="13.792792"><ele>342.6</ele><time>2026-05-02T10:24:58.037Z</time></trkpt><trkpt lat="42.2824472" lon="13.7926781"><ele>342.79999999999995</ele><time>2026-05-02T10:24:59.037Z</time></trkpt><trkpt lat="42.2825095" lon="13.7925574"><ele>343.0</ele><time>2026-05-02T10:25:00.036Z</time></trkpt><trkpt lat="42.2825585" lon="13.7924366"><ele>343.0</ele><time>2026-05-02T10:25:01.036Z</time></trkpt><trkpt lat="42.2825918" lon="13.7923242"><ele>343.0</ele><time>2026-05-02T10:25:02.036Z</time></trkpt><trkpt lat="42.2826347" lon="13.7922364"><ele>343.0</ele><time>2026-05-02T10:25:03.036Z</time></trkpt><trkpt lat="42.2826969" lon="13.7921591"><ele>343.0</ele><time>2026-05-02T10:25:04.036Z</time></trkpt><trkpt lat="42.282768" lon="13.7920843"><ele>343.0</ele><time>2026-05-02T10:25:05.036Z</time></trkpt><trkpt lat="42.2828498" lon="13.7920021"><ele>343.0</ele><time>2026-05-02T10:25:06.036Z</time></trkpt><trkpt lat="42.2829405" lon="13.7919126"><ele>342.25</ele><time>2026-05-02T10:25:07.036Z</time></trkpt><trkpt lat="42.2830351" lon="13.7918251"><ele>341.5</ele><time>2026-05-02T10:25:08.036Z</time></trkpt><trkpt lat="42.2831329" lon="13.7917338"><ele>340.75</ele><time>2026-05-02T10:25:09.036Z</time></trkpt><trkpt lat="42.2832311" lon="13.7916474"><ele>340.0</ele><time>2026-05-02T10:25:10.036Z</time></trkpt><trkpt lat="42.2833315" lon="13.7915681"><ele>341.16666666666663</ele><time>2026-05-02T10:25:11.036Z</time></trkpt><trkpt lat="42.2834182" lon="13.7915033"><ele>342.3333333333333</ele><time>2026-05-02T10:25:12.036Z</time></trkpt><trkpt lat="42.2834939" lon="13.7914432"><ele>343.5</ele><time>2026-05-02T10:25:13.036Z</time></trkpt><trkpt lat="42.2835598" lon="13.7913894"><ele>344.6666666666667</ele><time>2026-05-02T10:25:14.037Z</time></trkpt><trkpt lat="42.2836162" lon="13.7913516"><ele>345.83333333333337</ele><time>2026-05-02T10:25:15.036Z</time></trkpt><trkpt lat="42.2836999" lon="13.7912806"><ele>347.0</ele><time>2026-05-02T10:25:17.036Z</time></trkpt><trkpt lat="42.2836927" lon="13.7911801"><ele>347.0</ele><time>2026-05-02T10:25:19.036Z</time></trkpt><trkpt lat="42.2835978" lon="13.7910573"><ele>347.0</ele><time>2026-05-02T10:25:21.036Z</time></trkpt><trkpt lat="42.2835129" lon="13.7909861"><ele>347.0</ele><time>2026-05-02T10:25:22.036Z</time></trkpt><trkpt lat="42.2834296" lon="13.7909042"><ele>347.0</ele><time>2026-05-02T10:25:23.036Z</time></trkpt><trkpt lat="42.2833492" lon="13.7908198"><ele>347.0</ele><time>2026-05-02T10:25:24.036Z</time></trkpt><trkpt lat="42.2832717" lon="13.7907232"><ele>347.20000000000005</ele><time>2026-05-02T10:25:25.036Z</time></trkpt><trkpt lat="42.2831997" lon="13.7906181"><ele>347.4</ele><time>2026-05-02T10:25:26.036Z</time></trkpt><trkpt lat="42.2831389" lon="13.7905176"><ele>347.6</ele><time>2026-05-02T10:25:27.036Z</time></trkpt><trkpt lat="42.2830881" lon="13.7904347"><ele>347.79999999999995</ele><time>2026-05-02T10:25:28.036Z</time></trkpt><trkpt lat="42.283043" lon="13.7902788"><ele>348.0</ele><time>2026-05-02T10:25:30.036Z</time></trkpt><trkpt lat="42.2830508" lon="13.7901855"><ele>348.0</ele><time>2026-05-02T10:25:31.036Z</time></trkpt><trkpt lat="42.2830601" lon="13.7900711"><ele>348.0</ele><time>2026-05-02T10:25:32.036Z</time></trkpt><trkpt lat="42.2830698" lon="13.7899622"><ele>348.0</ele><time>2026-05-02T10:25:33.036Z</time></trkpt><trkpt lat="42.2830871" lon="13.7898066"><ele>348.0</ele><time>2026-05-02T10:25:35.036Z</time></trkpt><trkpt lat="42.2831409" lon="13.7896667"><ele>348.0</ele><time>2026-05-02T10:25:37.037Z</time></trkpt><trkpt lat="42.2831818" lon="13.7895038"><ele>348.0</ele><time>2026-05-02T10:25:39.037Z</time></trkpt><trkpt lat="42.2831967" lon="13.7894178"><ele>348.0</ele><time>2026-05-02T10:25:40.037Z</time></trkpt><trkpt lat="42.2832187" lon="13.7892766"><ele>348.0</ele><time>2026-05-02T10:25:42.037Z</time></trkpt><trkpt lat="42.2832442" lon="13.7891231"><ele>348.0</ele><time>2026-05-02T10:25:44.036Z</time></trkpt><trkpt lat="42.2832862" lon="13.7889678"><ele>348.0</ele><time>2026-05-02T10:25:46.037Z</time></trkpt><trkpt lat="42.2833072" lon="13.7888853"><ele>347.57142857142856</ele><time>2026-05-02T10:25:47.036Z</time></trkpt><trkpt lat="42.2833262" lon="13.788786"><ele>347.14285714285717</ele><time>2026-05-02T10:25:48.036Z</time></trkpt><trkpt lat="42.2833448" lon="13.7886851"><ele>346.7142857142857</ele><time>2026-05-02T10:25:49.036Z</time></trkpt><trkpt lat="42.2833591" lon="13.7885838"><ele>346.2857142857143</ele><time>2026-05-02T10:25:50.036Z</time></trkpt><trkpt lat="42.2833705" lon="13.7884808"><ele>345.85714285714283</ele><time>2026-05-02T10:25:51.036Z</time></trkpt><trkpt lat="42.2833798" lon="13.7883823"><ele>345.42857142857144</ele><time>2026-05-02T10:25:52.036Z</time></trkpt><trkpt lat="42.2833842" lon="13.7882906"><ele>345.0</ele><time>2026-05-02T10:25:53.036Z</time></trkpt><trkpt lat="42.2833827" lon="13.7881968"><ele>344.3333333333333</ele><time>2026-05-02T10:25:54.037Z</time></trkpt><trkpt lat="42.2833755" lon="13.7880949"><ele>343.6666666666667</ele><time>2026-05-02T10:25:55.037Z</time></trkpt><trkpt lat="42.2833555" lon="13.7879861"><ele>343.0</ele><time>2026-05-02T10:25:56.036Z</time></trkpt><trkpt lat="42.2833242" lon="13.7878793"><ele>342.33333333333337</ele><time>2026-05-02T10:25:57.037Z</time></trkpt><trkpt lat="42.2832865" lon="13.7877731"><ele>341.6666666666667</ele><time>2026-05-02T10:25:58.036Z</time></trkpt><trkpt lat="42.2832402" lon="13.7876651"><ele>341.0</ele><time>2026-05-02T10:25:59.037Z</time></trkpt><trkpt lat="42.2831894" lon="13.7875625"><ele>341.0</ele><time>2026-05-02T10:26:00.036Z</time></trkpt><trkpt lat="42.2831351" lon="13.7874676"><ele>341.0</ele><time>2026-05-02T10:26:01.036Z</time></trkpt><trkpt lat="42.2830864" lon="13.7873884"><ele>341.0</ele><time>2026-05-02T10:26:02.036Z</time></trkpt><trkpt lat="42.2830313" lon="13.7873024"><ele>341.0</ele><time>2026-05-02T10:26:03.036Z</time></trkpt><trkpt lat="42.282981" lon="13.7872065"><ele>341.0</ele><time>2026-05-02T10:26:04.036Z</time></trkpt><trkpt lat="42.2829278" lon="13.7871038"><ele>341.0</ele><time>2026-05-02T10:26:05.036Z</time></trkpt><trkpt lat="42.2828729" lon="13.7869917"><ele>341.0</ele><time>2026-05-02T10:26:06.037Z</time></trkpt><trkpt lat="42.2828146" lon="13.7868766"><ele>341.0</ele><time>2026-05-02T10:26:07.036Z</time></trkpt><trkpt lat="42.2827582" lon="13.7867531"><ele>341.0</ele><time>2026-05-02T10:26:08.036Z</time></trkpt><trkpt lat="42.2826999" lon="13.7866149"><ele>341.0</ele><time>2026-05-02T10:26:09.036Z</time></trkpt><trkpt lat="42.2826432" lon="13.7864735"><ele>341.0</ele><time>2026-05-02T10:26:10.037Z</time></trkpt><trkpt lat="42.2825869" lon="13.7863251"><ele>341.0</ele><time>2026-05-02T10:26:11.036Z</time></trkpt><trkpt lat="42.2825347" lon="13.7861745"><ele>341.0</ele><time>2026-05-02T10:26:12.036Z</time></trkpt><trkpt lat="42.2824879" lon="13.7860228"><ele>341.0</ele><time>2026-05-02T10:26:13.036Z</time></trkpt><trkpt lat="42.282437" lon="13.7858762"><ele>341.0</ele><time>2026-05-02T10:26:14.036Z</time></trkpt><trkpt lat="42.2823883" lon="13.7857308"><ele>340.75</ele><time>2026-05-02T10:26:15.036Z</time></trkpt><trkpt lat="42.2823429" lon="13.7855799"><ele>340.5</ele><time>2026-05-02T10:26:16.036Z</time></trkpt><trkpt lat="42.282301" lon="13.7854266"><ele>340.25</ele><time>2026-05-02T10:26:17.036Z</time></trkpt><trkpt lat="42.2822617" lon="13.7852693"><ele>340.0</ele><time>2026-05-02T10:26:18.036Z</time></trkpt><trkpt lat="42.2822214" lon="13.785117"><ele>340.0</ele><time>2026-05-02T10:26:19.036Z</time></trkpt><trkpt lat="42.2821752" lon="13.7849569"><ele>340.0</ele><time>2026-05-02T10:26:20.036Z</time></trkpt><trkpt lat="42.2821311" lon="13.7847925"><ele>340.0</ele><time>2026-05-02T10:26:21.036Z</time></trkpt><trkpt lat="42.2820873" lon="13.7846237"><ele>340.0</ele><time>2026-05-02T10:26:22.036Z</time></trkpt><trkpt lat="42.2820446" lon="13.7844541"><ele>340.0</ele><time>2026-05-02T10:26:23.036Z</time></trkpt><trkpt lat="42.2820038" lon="13.7842784"><ele>340.0</ele><time>2026-05-02T10:26:24.036Z</time></trkpt><trkpt lat="42.2819618" lon="13.7841016"><ele>340.0</ele><time>2026-05-02T10:26:25.036Z</time></trkpt><trkpt lat="42.2819184" lon="13.7839187"><ele>340.0</ele><time>2026-05-02T10:26:26.037Z</time></trkpt><trkpt lat="42.2818756" lon="13.7837493"><ele>340.0</ele><time>2026-05-02T10:26:27.036Z</time></trkpt><trkpt lat="42.2818326" lon="13.7835742"><ele>340.0</ele><time>2026-05-02T10:26:28.037Z</time></trkpt><trkpt lat="42.2817841" lon="13.7833996"><ele>340.0</ele><time>2026-05-02T10:26:29.036Z</time></trkpt><trkpt lat="42.2817326" lon="13.7832272"><ele>340.0</ele><time>2026-05-02T10:26:30.036Z</time></trkpt><trkpt lat="42.2816768" lon="13.7830489"><ele>339.75</ele><time>2026-05-02T10:26:31.036Z</time></trkpt><trkpt lat="42.2816177" lon="13.7828696"><ele>339.5</ele><time>2026-05-02T10:26:32.036Z</time></trkpt><trkpt lat="42.2815585" lon="13.7826889"><ele>339.25</ele><time>2026-05-02T10:26:33.036Z</time></trkpt><trkpt lat="42.2814921" lon="13.7825122"><ele>339.0</ele><time>2026-05-02T10:26:34.036Z</time></trkpt><trkpt lat="42.2814274" lon="13.7823343"><ele>339.75</ele><time>2026-05-02T10:26:35.037Z</time></trkpt><trkpt lat="42.281365" lon="13.7821533"><ele>340.5</ele><time>2026-05-02T10:26:36.036Z</time></trkpt><trkpt lat="42.2813075" lon="13.7819739"><ele>341.25</ele><time>2026-05-02T10:26:37.036Z</time></trkpt><trkpt lat="42.2812486" lon="13.781794"><ele>342.0</ele><time>2026-05-02T10:26:38.037Z</time></trkpt><trkpt lat="42.2811983" lon="13.7816364"><ele>342.0</ele><time>2026-05-02T10:26:39.036Z</time></trkpt><trkpt lat="42.2811469" lon="13.7814792"><ele>342.0</ele><time>2026-05-02T10:26:40.036Z</time></trkpt><trkpt lat="42.2810958" lon="13.7813336"><ele>342.0</ele><time>2026-05-02T10:26:41.037Z</time></trkpt><trkpt lat="42.281047" lon="13.7811802"><ele>342.0</ele><time>2026-05-02T10:26:42.036Z</time></trkpt><trkpt lat="42.2810033" lon="13.7810164"><ele>341.75</ele><time>2026-05-02T10:26:43.037Z</time></trkpt><trkpt lat="42.2809608" lon="13.7808509"><ele>341.5</ele><time>2026-05-02T10:26:44.037Z</time></trkpt><trkpt lat="42.2809203" lon="13.7806931"><ele>341.25</ele><time>2026-05-02T10:26:45.036Z</time></trkpt><trkpt lat="42.2808769" lon="13.7805308"><ele>341.0</ele><time>2026-05-02T10:26:46.036Z</time></trkpt><trkpt lat="42.2808365" lon="13.7803711"><ele>341.0</ele><time>2026-05-02T10:26:47.037Z</time></trkpt><trkpt lat="42.2808022" lon="13.7802172"><ele>341.0</ele><time>2026-05-02T10:26:48.037Z</time></trkpt><trkpt lat="42.2807672" lon="13.7800704"><ele>341.0</ele><time>2026-05-02T10:26:49.037Z</time></trkpt><trkpt lat="42.2807252" lon="13.7799221"><ele>341.0</ele><time>2026-05-02T10:26:50.036Z</time></trkpt><trkpt lat="42.2806809" lon="13.7797844"><ele>341.75</ele><time>2026-05-02T10:26:51.036Z</time></trkpt><trkpt lat="42.2806245" lon="13.779649"><ele>342.5</ele><time>2026-05-02T10:26:52.036Z</time></trkpt><trkpt lat="42.2805665" lon="13.7795062"><ele>343.25</ele><time>2026-05-02T10:26:53.036Z</time></trkpt><trkpt lat="42.280511" lon="13.7793596"><ele>344.0</ele><time>2026-05-02T10:26:54.036Z</time></trkpt><trkpt lat="42.280459" lon="13.7792136"><ele>344.5</ele><time>2026-05-02T10:26:55.036Z</time></trkpt><trkpt lat="42.2804195" lon="13.7790649"><ele>345.0</ele><time>2026-05-02T10:26:56.036Z</time></trkpt><trkpt lat="42.2803917" lon="13.7789121"><ele>345.5</ele><time>2026-05-02T10:26:57.036Z</time></trkpt><trkpt lat="42.2803637" lon="13.7787546"><ele>346.0</ele><time>2026-05-02T10:26:58.036Z</time></trkpt><trkpt lat="42.2803391" lon="13.7785876"><ele>345.75</ele><time>2026-05-02T10:26:59.036Z</time></trkpt><trkpt lat="42.2803231" lon="13.7784187"><ele>345.5</ele><time>2026-05-02T10:27:00.037Z</time></trkpt><trkpt lat="42.2803041" lon="13.7782428"><ele>345.25</ele><time>2026-05-02T10:27:01.037Z</time></trkpt><trkpt lat="42.2802813" lon="13.7780565"><ele>345.0</ele><time>2026-05-02T10:27:02.036Z</time></trkpt><trkpt lat="42.2802595" lon="13.7778672"><ele>345.25</ele><time>2026-05-02T10:27:03.036Z</time></trkpt><trkpt lat="42.280236" lon="13.7776789"><ele>345.5</ele><time>2026-05-02T10:27:04.037Z</time></trkpt><trkpt lat="42.2802124" lon="13.777494"><ele>345.75</ele><time>2026-05-02T10:27:05.037Z</time></trkpt><trkpt lat="42.2801841" lon="13.7773084"><ele>346.0</ele><time>2026-05-02T10:27:06.037Z</time></trkpt><trkpt lat="42.280157" lon="13.7771294"><ele>346.0</ele><time>2026-05-02T10:27:07.037Z</time></trkpt><trkpt lat="42.2801222" lon="13.7769568"><ele>346.0</ele><time>2026-05-02T10:27:08.036Z</time></trkpt><trkpt lat="42.2800845" lon="13.7767818"><ele>346.0</ele><time>2026-05-02T10:27:09.036Z</time></trkpt><trkpt lat="42.2800522" lon="13.7766041"><ele>346.0</ele><time>2026-05-02T10:27:10.037Z</time></trkpt><trkpt lat="42.2800196" lon="13.7764242"><ele>346.0</ele><time>2026-05-02T10:27:11.037Z</time></trkpt><trkpt lat="42.2799948" lon="13.776242"><ele>346.0</ele><time>2026-05-02T10:27:12.036Z</time></trkpt><trkpt lat="42.2799742" lon="13.7760654"><ele>346.0</ele><time>2026-05-02T10:27:13.036Z</time></trkpt><trkpt lat="42.2799606" lon="13.7758967"><ele>346.0</ele><time>2026-05-02T10:27:14.036Z</time></trkpt><trkpt lat="42.2799588" lon="13.7757393"><ele>346.16666666666663</ele><time>2026-05-02T10:27:15.036Z</time></trkpt><trkpt lat="42.279963" lon="13.7756037"><ele>346.3333333333333</ele><time>2026-05-02T10:27:16.036Z</time></trkpt><trkpt lat="42.2799667" lon="13.7754991"><ele>346.5</ele><time>2026-05-02T10:27:17.036Z</time></trkpt><trkpt lat="42.2800005" lon="13.7754144"><ele>346.6666666666667</ele><time>2026-05-02T10:27:19.037Z</time></trkpt><trkpt lat="42.2800914" lon="13.7753549"><ele>346.83333333333337</ele><time>2026-05-02T10:27:21.036Z</time></trkpt><trkpt lat="42.2801515" lon="13.7753145"><ele>347.0</ele><time>2026-05-02T10:27:22.036Z</time></trkpt><trkpt lat="42.2802253" lon="13.7752565"><ele>347.0</ele><time>2026-05-02T10:27:23.037Z</time></trkpt><trkpt lat="42.2803091" lon="13.77519"><ele>347.0</ele><time>2026-05-02T10:27:24.036Z</time></trkpt><trkpt lat="42.28041" lon="13.775128"><ele>347.0</ele><time>2026-05-02T10:27:25.036Z</time></trkpt><trkpt lat="42.280514" lon="13.7750558"><ele>347.0</ele><time>2026-05-02T10:27:26.037Z</time></trkpt><trkpt lat="42.280627" lon="13.7749775"><ele>347.0</ele><time>2026-05-02T10:27:27.036Z</time></trkpt><trkpt lat="42.2807423" lon="13.774902"><ele>347.0</ele><time>2026-05-02T10:27:28.036Z</time></trkpt><trkpt lat="42.2808581" lon="13.7748254"><ele>347.0</ele><time>2026-05-02T10:27:29.036Z</time></trkpt><trkpt lat="42.2809778" lon="13.7747426"><ele>347.0</ele><time>2026-05-02T10:27:30.037Z</time></trkpt><trkpt lat="42.2810967" lon="13.7746639"><ele>347.0</ele><time>2026-05-02T10:27:31.036Z</time></trkpt><trkpt lat="42.2811999" lon="13.774601"><ele>347.0</ele><time>2026-05-02T10:27:32.036Z</time></trkpt><trkpt lat="42.2812883" lon="13.7745501"><ele>347.0</ele><time>2026-05-02T10:27:33.036Z</time></trkpt><trkpt lat="42.2813637" lon="13.7745095"><ele>347.0</ele><time>2026-05-02T10:27:34.036Z</time></trkpt><trkpt lat="42.2814463" lon="13.774453"><ele>347.0</ele><time>2026-05-02T10:27:36.037Z</time></trkpt><trkpt lat="42.2815151" lon="13.7744017"><ele>347.8</ele><time>2026-05-02T10:27:50.036Z</time></trkpt><trkpt lat="42.2815123" lon="13.7742795"><ele>348.6</ele><time>2026-05-02T10:27:53.037Z</time></trkpt><trkpt lat="42.2814232" lon="13.7741486"><ele>349.40000000000003</ele><time>2026-05-02T10:27:55.036Z</time></trkpt><trkpt lat="42.2813536" lon="13.7740588"><ele>350.20000000000005</ele><time>2026-05-02T10:27:56.036Z</time></trkpt><trkpt lat="42.2812741" lon="13.7739523"><ele>351.0</ele><time>2026-05-02T10:27:57.037Z</time></trkpt><trkpt lat="42.2811847" lon="13.7738448"><ele>351.0</ele><time>2026-05-02T10:27:58.037Z</time></trkpt><trkpt lat="42.2810921" lon="13.7737361"><ele>351.0</ele><time>2026-05-02T10:27:59.036Z</time></trkpt><trkpt lat="42.2810109" lon="13.7736303"><ele>351.0</ele><time>2026-05-02T10:28:00.036Z</time></trkpt><trkpt lat="42.2809301" lon="13.7735121"><ele>351.0</ele><time>2026-05-02T10:28:01.036Z</time></trkpt><trkpt lat="42.2808537" lon="13.7733889"><ele>351.5</ele><time>2026-05-02T10:28:02.036Z</time></trkpt><trkpt lat="42.2807807" lon="13.7732486"><ele>352.0</ele><time>2026-05-02T10:28:03.036Z</time></trkpt><trkpt lat="42.2807102" lon="13.7730993"><ele>352.5</ele><time>2026-05-02T10:28:04.036Z</time></trkpt><trkpt lat="42.2806346" lon="13.7729473"><ele>353.0</ele><time>2026-05-02T10:28:05.037Z</time></trkpt><trkpt lat="42.2805562" lon="13.7727895"><ele>353.5</ele><time>2026-05-02T10:28:06.037Z</time></trkpt><trkpt lat="42.2804767" lon="13.772637"><ele>354.0</ele><time>2026-05-02T10:28:07.037Z</time></trkpt><trkpt lat="42.2803964" lon="13.7724878"><ele>354.5</ele><time>2026-05-02T10:28:08.036Z</time></trkpt><trkpt lat="42.2803216" lon="13.772353"><ele>355.0</ele><time>2026-05-02T10:28:09.036Z</time></trkpt><trkpt lat="42.2802428" lon="13.7722378"><ele>355.0</ele><time>2026-05-02T10:28:10.036Z</time></trkpt><trkpt lat="42.2801456" lon="13.7721577"><ele>355.0</ele><time>2026-05-02T10:28:11.036Z</time></trkpt><trkpt lat="42.2800327" lon="13.7720839"><ele>355.0</ele><time>2026-05-02T10:28:12.036Z</time></trkpt><trkpt lat="42.2799205" lon="13.7720038"><ele>355.0</ele><time>2026-05-02T10:28:13.036Z</time></trkpt><trkpt lat="42.2798211" lon="13.771913"><ele>355.4</ele><time>2026-05-02T10:28:14.037Z</time></trkpt><trkpt lat="42.2797356" lon="13.7718122"><ele>355.8</ele><time>2026-05-02T10:28:15.036Z</time></trkpt><trkpt lat="42.2796641" lon="13.7716888"><ele>356.20000000000005</ele><time>2026-05-02T10:28:16.036Z</time></trkpt><trkpt lat="42.2796125" lon="13.7715706"><ele>356.6</ele><time>2026-05-02T10:28:17.036Z</time></trkpt><trkpt lat="42.2795711" lon="13.7714509"><ele>357.0</ele><time>2026-05-02T10:28:18.037Z</time></trkpt><trkpt lat="42.2795295" lon="13.7713305"><ele>357.0</ele><time>2026-05-02T10:28:19.036Z</time></trkpt><trkpt lat="42.2794873" lon="13.7712007"><ele>357.0</ele><time>2026-05-02T10:28:20.036Z</time></trkpt><trkpt lat="42.2794423" lon="13.7710634"><ele>357.0</ele><time>2026-05-02T10:28:21.036Z</time></trkpt><trkpt lat="42.2793956" lon="13.7709243"><ele>357.0</ele><time>2026-05-02T10:28:22.036Z</time></trkpt><trkpt lat="42.2793435" lon="13.7707842"><ele>357.0</ele><time>2026-05-02T10:28:23.036Z</time></trkpt><trkpt lat="42.2792933" lon="13.7706428"><ele>357.40000000000003</ele><time>2026-05-02T10:28:24.036Z</time></trkpt><trkpt lat="42.2792451" lon="13.7705053"><ele>357.8</ele><time>2026-05-02T10:28:25.036Z</time></trkpt><trkpt lat="42.2792007" lon="13.7703872"><ele>358.2</ele><time>2026-05-02T10:28:26.036Z</time></trkpt><trkpt lat="42.279157" lon="13.7702599"><ele>358.6</ele><time>2026-05-02T10:28:27.036Z</time></trkpt><trkpt lat="42.2791152" lon="13.7701355"><ele>359.0</ele><time>2026-05-02T10:28:28.036Z</time></trkpt><trkpt lat="42.2790749" lon="13.7700244"><ele>359.14285714285717</ele><time>2026-05-02T10:28:29.036Z</time></trkpt><trkpt lat="42.2790378" lon="13.7699263"><ele>359.28571428571433</ele><time>2026-05-02T10:28:30.037Z</time></trkpt><trkpt lat="42.2790043" lon="13.7698394"><ele>359.42857142857144</ele><time>2026-05-02T10:28:31.037Z</time></trkpt><trkpt lat="42.2789718" lon="13.7697551"><ele>359.57142857142856</ele><time>2026-05-02T10:28:32.036Z</time></trkpt><trkpt lat="42.2789401" lon="13.7696704"><ele>359.7142857142857</ele><time>2026-05-02T10:28:33.037Z</time></trkpt><trkpt lat="42.2789095" lon="13.7695844"><ele>359.85714285714283</ele><time>2026-05-02T10:28:34.036Z</time></trkpt><trkpt lat="42.2788829" lon="13.7694908"><ele>360.0</ele><time>2026-05-02T10:28:35.036Z</time></trkpt><trkpt lat="42.2788744" lon="13.7693946"><ele>360.3333333333333</ele><time>2026-05-02T10:28:36.036Z</time></trkpt><trkpt lat="42.2789002" lon="13.7693101"><ele>360.6666666666667</ele><time>2026-05-02T10:28:37.036Z</time></trkpt><trkpt lat="42.2789508" lon="13.7692483"><ele>361.0</ele><time>2026-05-02T10:28:38.036Z</time></trkpt><trkpt lat="42.2790311" lon="13.7691744"><ele>361.33333333333337</ele><time>2026-05-02T10:28:39.036Z</time></trkpt><trkpt lat="42.279126" lon="13.7691076"><ele>361.6666666666667</ele><time>2026-05-02T10:28:40.036Z</time></trkpt><trkpt lat="42.279216" lon="13.7690378"><ele>362.0</ele><time>2026-05-02T10:28:41.036Z</time></trkpt><trkpt lat="42.2793182" lon="13.7689686"><ele>362.25</ele><time>2026-05-02T10:28:42.036Z</time></trkpt><trkpt lat="42.2794235" lon="13.7688896"><ele>362.5</ele><time>2026-05-02T10:28:43.036Z</time></trkpt><trkpt lat="42.2795353" lon="13.7687991"><ele>362.75</ele><time>2026-05-02T10:28:44.036Z</time></trkpt><trkpt lat="42.2796528" lon="13.7687083"><ele>363.0</ele><time>2026-05-02T10:28:45.036Z</time></trkpt><trkpt lat="42.279772" lon="13.7686182"><ele>363.25</ele><time>2026-05-02T10:28:46.037Z</time></trkpt><trkpt lat="42.2798879" lon="13.7685303"><ele>363.5</ele><time>2026-05-02T10:28:47.036Z</time></trkpt><trkpt lat="42.2799961" lon="13.7684285"><ele>363.75</ele><time>2026-05-02T10:28:48.037Z</time></trkpt><trkpt lat="42.2801049" lon="13.7683077"><ele>364.0</ele><time>2026-05-02T10:28:49.036Z</time></trkpt><trkpt lat="42.2802124" lon="13.7681667"><ele>365.0</ele><time>2026-05-02T10:28:50.036Z</time></trkpt><trkpt lat="42.2803253" lon="13.7680131"><ele>366.0</ele><time>2026-05-02T10:28:51.036Z</time></trkpt><trkpt lat="42.2804459" lon="13.767851"><ele>367.0</ele><time>2026-05-02T10:28:52.037Z</time></trkpt><trkpt lat="42.28057" lon="13.7676981"><ele>368.3333333333333</ele><time>2026-05-02T10:28:53.036Z</time></trkpt><trkpt lat="42.2807014" lon="13.7675546"><ele>369.6666666666667</ele><time>2026-05-02T10:28:54.036Z</time></trkpt><trkpt lat="42.2808403" lon="13.7674243"><ele>371.0</ele><time>2026-05-02T10:28:55.036Z</time></trkpt><trkpt lat="42.2809803" lon="13.7672967"><ele>371.0</ele><time>2026-05-02T10:28:56.036Z</time></trkpt><trkpt lat="42.2811206" lon="13.7671652"><ele>371.0</ele><time>2026-05-02T10:28:57.036Z</time></trkpt><trkpt lat="42.2812635" lon="13.7670374"><ele>371.0</ele><time>2026-05-02T10:28:58.036Z</time></trkpt><trkpt lat="42.2814067" lon="13.7669088"><ele>372.6666666666667</ele><time>2026-05-02T10:28:59.036Z</time></trkpt><trkpt lat="42.2815459" lon="13.7667839"><ele>374.3333333333333</ele><time>2026-05-02T10:29:00.036Z</time></trkpt><trkpt lat="42.2816715" lon="13.7666603"><ele>376.0</ele><time>2026-05-02T10:29:01.036Z</time></trkpt><trkpt lat="42.2817818" lon="13.7665133"><ele>376.0</ele><time>2026-05-02T10:29:02.037Z</time></trkpt><trkpt lat="42.2818793" lon="13.7663557"><ele>376.0</ele><time>2026-05-02T10:29:03.036Z</time></trkpt><trkpt lat="42.2819796" lon="13.7661925"><ele>376.0</ele><time>2026-05-02T10:29:04.036Z</time></trkpt><trkpt lat="42.2820873" lon="13.76603"><ele>377.3333333333333</ele><time>2026-05-02T10:29:05.036Z</time></trkpt><trkpt lat="42.2822039" lon="13.7658649"><ele>378.6666666666667</ele><time>2026-05-02T10:29:06.036Z</time></trkpt><trkpt lat="42.2823231" lon="13.7656956"><ele>380.0</ele><time>2026-05-02T10:29:07.036Z</time></trkpt><trkpt lat="42.282443" lon="13.765528"><ele>380.0</ele><time>2026-05-02T10:29:08.036Z</time></trkpt><trkpt lat="42.2825589" lon="13.7653553"><ele>380.0</ele><time>2026-05-02T10:29:09.036Z</time></trkpt><trkpt lat="42.2826693" lon="13.7651827"><ele>380.0</ele><time>2026-05-02T10:29:10.037Z</time></trkpt><trkpt lat="42.2827784" lon="13.7650123"><ele>381.33333333333337</ele><time>2026-05-02T10:29:11.037Z</time></trkpt><trkpt lat="42.2828894" lon="13.764841"><ele>382.6666666666667</ele><time>2026-05-02T10:29:12.036Z</time></trkpt><trkpt lat="42.2830023" lon="13.7646745"><ele>384.0</ele><time>2026-05-02T10:29:13.036Z</time></trkpt><trkpt lat="42.2831132" lon="13.764514"><ele>384.75</ele><time>2026-05-02T10:29:14.036Z</time></trkpt><trkpt lat="42.283222" lon="13.7643581"><ele>385.5</ele><time>2026-05-02T10:29:15.036Z</time></trkpt><trkpt lat="42.2833169" lon="13.764213"><ele>386.25</ele><time>2026-05-02T10:29:16.036Z</time></trkpt><trkpt lat="42.2833912" lon="13.7640937"><ele>387.0</ele><time>2026-05-02T10:29:17.036Z</time></trkpt><trkpt lat="42.2834524" lon="13.7640115"><ele>387.0</ele><time>2026-05-02T10:29:18.036Z</time></trkpt><trkpt lat="42.2834975" lon="13.7639431"><ele>387.0</ele><time>2026-05-02T10:29:19.036Z</time></trkpt><trkpt lat="42.2835491" lon="13.763848"><ele>387.0</ele><time>2026-05-02T10:29:21.036Z</time></trkpt><trkpt lat="42.2834849" lon="13.7637613"><ele>387.0</ele><time>2026-05-02T10:29:24.037Z</time></trkpt><trkpt lat="42.2834201" lon="13.7637401"><ele>387.0</ele><time>2026-05-02T10:29:25.036Z</time></trkpt><trkpt lat="42.2833469" lon="13.763728"><ele>387.0</ele><time>2026-05-02T10:29:26.036Z</time></trkpt><trkpt lat="42.2832501" lon="13.7637218"><ele>387.0</ele><time>2026-05-02T10:29:27.037Z</time></trkpt><trkpt lat="42.2831516" lon="13.7637146"><ele>387.0</ele><time>2026-05-02T10:29:28.036Z</time></trkpt><trkpt lat="42.2830639" lon="13.7637065"><ele>387.0</ele><time>2026-05-02T10:29:29.036Z</time></trkpt><trkpt lat="42.2829991" lon="13.7637014"><ele>387.0</ele><time>2026-05-02T10:29:30.037Z</time></trkpt><trkpt lat="42.2829193" lon="13.7637056"><ele>387.0</ele><time>2026-05-02T10:29:32.036Z</time></trkpt><trkpt lat="42.2828343" lon="13.7637305"><ele>387.0</ele><time>2026-05-02T10:29:40.036Z</time></trkpt><trkpt lat="42.2827488" lon="13.7637348"><ele>387.6666666666667</ele><time>2026-05-02T10:29:42.037Z</time></trkpt><trkpt lat="42.2826432" lon="13.7637083"><ele>388.33333333333337</ele><time>2026-05-02T10:29:44.036Z</time></trkpt><trkpt lat="42.2825709" lon="13.7636558"><ele>389.0</ele><time>2026-05-02T10:29:46.037Z</time></trkpt><trkpt lat="42.2824836" lon="13.7636228"><ele>389.6666666666667</ele><time>2026-05-02T10:29:53.036Z</time></trkpt><trkpt lat="42.2824196" lon="13.7635883"><ele>390.33333333333337</ele><time>2026-05-02T10:29:55.036Z</time></trkpt><trkpt lat="42.2823559" lon="13.7635551"><ele>391.0</ele><time>2026-05-02T10:29:57.036Z</time></trkpt><trkpt lat="42.2822857" lon="13.7635383"><ele>392.99999999999994</ele><time>2026-05-02T10:30:01.036Z</time></trkpt><trkpt lat="42.2822198" lon="13.7635589"><ele>395.0</ele><time>2026-05-02T10:30:09.036Z</time></trkpt><trkpt lat="42.2821487" lon="13.7636014"><ele>397.0</ele><time>2026-05-02T10:30:19.036Z</time></trkpt><trkpt lat="42.2820692" lon="13.7636152"><ele>399.0</ele><time>2026-05-02T10:30:21.036Z</time></trkpt><trkpt lat="42.2819915" lon="13.7636"><ele>401.0</ele><time>2026-05-02T10:30:23.037Z</time></trkpt><trkpt lat="42.2819256" lon="13.7635966"><ele>402.99999999999994</ele><time>2026-05-02T10:30:25.037Z</time></trkpt><trkpt lat="42.2818544" lon="13.7635783"><ele>405.0</ele><time>2026-05-02T10:30:33.036Z</time></trkpt><trkpt lat="42.2817807" lon="13.7635737"><ele>404.99999999999994</ele><time>2026-05-02T10:30:36.036Z</time></trkpt><trkpt lat="42.2816965" lon="13.7635749"><ele>405.0</ele><time>2026-05-02T10:30:39.036Z</time></trkpt><trkpt lat="42.2816318" lon="13.7635785"><ele>405.0</ele><time>2026-05-02T10:30:41.036Z</time></trkpt><trkpt lat="42.2815643" lon="13.7635848"><ele>405.0</ele><time>2026-05-02T10:30:43.036Z</time></trkpt><trkpt lat="42.2814769" lon="13.7636003"><ele>405.0</ele><time>2026-05-02T10:30:46.036Z</time></trkpt><trkpt lat="42.2814126" lon="13.7636262"><ele>404.99999999999994</ele><time>2026-05-02T10:30:48.036Z</time></trkpt><trkpt lat="42.2813491" lon="13.7636536"><ele>405.0</ele><time>2026-05-02T10:30:50.036Z</time></trkpt><trkpt lat="42.2812818" lon="13.7636643"><ele>408.1666666666667</ele><time>2026-05-02T10:30:52.037Z</time></trkpt><trkpt lat="42.2812043" lon="13.763664"><ele>411.33333333333337</ele><time>2026-05-02T10:30:54.037Z</time></trkpt><trkpt lat="42.2811132" lon="13.7636545"><ele>414.5</ele><time>2026-05-02T10:30:56.036Z</time></trkpt><trkpt lat="42.2810379" lon="13.7636277"><ele>417.6666666666667</ele><time>2026-05-02T10:30:58.036Z</time></trkpt><trkpt lat="42.2809711" lon="13.7636058"><ele>420.83333333333337</ele><time>2026-05-02T10:31:00.036Z</time></trkpt><trkpt lat="42.2809011" lon="13.7635883"><ele>424.0</ele><time>2026-05-02T10:31:03.036Z</time></trkpt><trkpt lat="42.2808317" lon="13.7635616"><ele>424.00000000000006</ele><time>2026-05-02T10:31:05.036Z</time></trkpt><trkpt lat="42.280755" lon="13.7635422"><ele>424.0</ele><time>2026-05-02T10:31:07.037Z</time></trkpt><trkpt lat="42.2806724" lon="13.7635156"><ele>424.0</ele><time>2026-05-02T10:31:09.037Z</time></trkpt><trkpt lat="42.2805936" lon="13.7634881"><ele>424.0</ele><time>2026-05-02T10:31:11.036Z</time></trkpt><trkpt lat="42.2805123" lon="13.763447"><ele>424.00000000000006</ele><time>2026-05-02T10:31:13.036Z</time></trkpt><trkpt lat="42.2804293" lon="13.7634205"><ele>424.0</ele><time>2026-05-02T10:31:15.036Z</time></trkpt><trkpt lat="42.2803404" lon="13.7634041"><ele>429.0</ele><time>2026-05-02T10:31:17.037Z</time></trkpt><trkpt lat="42.2802307" lon="13.7633639"><ele>434.0</ele><time>2026-05-02T10:31:19.036Z</time></trkpt><trkpt lat="42.2801335" lon="13.763269"><ele>439.0</ele><time>2026-05-02T10:31:21.036Z</time></trkpt><trkpt lat="42.2800433" lon="13.7631671"><ele>444.0</ele><time>2026-05-02T10:31:23.036Z</time></trkpt><trkpt lat="42.2799531" lon="13.7630682"><ele>444.0</ele><time>2026-05-02T10:31:25.036Z</time></trkpt><trkpt lat="42.2798721" lon="13.7629722"><ele>444.0</ele><time>2026-05-02T10:31:27.037Z</time></trkpt><trkpt lat="42.2797856" lon="13.7628703"><ele>444.0</ele><time>2026-05-02T10:31:29.036Z</time></trkpt><trkpt lat="42.2797012" lon="13.7627794"><ele>444.0</ele><time>2026-05-02T10:31:31.037Z</time></trkpt><trkpt lat="42.2796095" lon="13.7626956"><ele>444.0</ele><time>2026-05-02T10:31:33.036Z</time></trkpt><trkpt lat="42.2795189" lon="13.7626254"><ele>447.2</ele><time>2026-05-02T10:31:35.036Z</time></trkpt><trkpt lat="42.2794298" lon="13.7625811"><ele>450.4</ele><time>2026-05-02T10:31:37.036Z</time></trkpt><trkpt lat="42.2793251" lon="13.7625404"><ele>453.6</ele><time>2026-05-02T10:31:39.036Z</time></trkpt><trkpt lat="42.2792102" lon="13.7624949"><ele>456.8</ele><time>2026-05-02T10:31:41.037Z</time></trkpt><trkpt lat="42.2790994" lon="13.7624438"><ele>460.0</ele><time>2026-05-02T10:31:43.036Z</time></trkpt><trkpt lat="42.2789876" lon="13.7623906"><ele>461.50000000000006</ele><time>2026-05-02T10:31:45.037Z</time></trkpt><trkpt lat="42.2788702" lon="13.7623367"><ele>463.0</ele><time>2026-05-02T10:31:47.036Z</time></trkpt><trkpt lat="42.2788078" lon="13.7623149"><ele>464.5</ele><time>2026-05-02T10:31:48.036Z</time></trkpt><trkpt lat="42.2787384" lon="13.762286"><ele>466.0</ele><time>2026-05-02T10:31:49.036Z</time></trkpt><trkpt lat="42.2786579" lon="13.7622549"><ele>467.50000000000006</ele><time>2026-05-02T10:31:50.037Z</time></trkpt><trkpt lat="42.2785755" lon="13.7622199"><ele>469.0</ele><time>2026-05-02T10:31:51.036Z</time></trkpt><trkpt lat="42.2784983" lon="13.762184"><ele>469.00000000000006</ele><time>2026-05-02T10:31:52.037Z</time></trkpt><trkpt lat="42.2784245" lon="13.7621321"><ele>469.0</ele><time>2026-05-02T10:31:53.037Z</time></trkpt><trkpt lat="42.2783592" lon="13.762068"><ele>469.0</ele><time>2026-05-02T10:31:54.036Z</time></trkpt><trkpt lat="42.278297" lon="13.7619887"><ele>469.0</ele><time>2026-05-02T10:31:55.037Z</time></trkpt><trkpt lat="42.2782367" lon="13.7619135"><ele>469.00000000000006</ele><time>2026-05-02T10:31:56.036Z</time></trkpt><trkpt lat="42.2781731" lon="13.7618483"><ele>469.0</ele><time>2026-05-02T10:31:57.036Z</time></trkpt><trkpt lat="42.2780989" lon="13.7618049"><ele>470.33333333333337</ele><time>2026-05-02T10:31:58.036Z</time></trkpt><trkpt lat="42.2780163" lon="13.7617716"><ele>471.6666666666667</ele><time>2026-05-02T10:31:59.036Z</time></trkpt><trkpt lat="42.277926" lon="13.7617437"><ele>473.0</ele><time>2026-05-02T10:32:00.037Z</time></trkpt><trkpt lat="42.2778346" lon="13.7617229"><ele>474.33333333333337</ele><time>2026-05-02T10:32:01.036Z</time></trkpt><trkpt lat="42.2777425" lon="13.7617062"><ele>475.6666666666667</ele><time>2026-05-02T10:32:02.036Z</time></trkpt><trkpt lat="42.2776612" lon="13.7617059"><ele>477.0</ele><time>2026-05-02T10:32:03.036Z</time></trkpt><trkpt lat="42.2775809" lon="13.7617209"><ele>477.0</ele><time>2026-05-02T10:32:04.036Z</time></trkpt><trkpt lat="42.2774987" lon="13.7617502"><ele>477.0</ele><time>2026-05-02T10:32:05.036Z</time></trkpt><trkpt lat="42.2774168" lon="13.7617799"><ele>477.0</ele><time>2026-05-02T10:32:06.036Z</time></trkpt><trkpt lat="42.2773399" lon="13.7617962"><ele>477.0</ele><time>2026-05-02T10:32:07.036Z</time></trkpt><trkpt lat="42.2772654" lon="13.7617966"><ele>477.0</ele><time>2026-05-02T10:32:08.036Z</time></trkpt><trkpt lat="42.2771834" lon="13.761786"><ele>477.0</ele><time>2026-05-02T10:32:09.036Z</time></trkpt><trkpt lat="42.2770981" lon="13.7617635"><ele>478.5</ele><time>2026-05-02T10:32:10.036Z</time></trkpt><trkpt lat="42.2770193" lon="13.7617556"><ele>480.0</ele><time>2026-05-02T10:32:11.037Z</time></trkpt><trkpt lat="42.2769449" lon="13.7617608"><ele>481.5</ele><time>2026-05-02T10:32:12.036Z</time></trkpt><trkpt lat="42.2768662" lon="13.7617657"><ele>483.0</ele><time>2026-05-02T10:32:13.036Z</time></trkpt><trkpt lat="42.2767877" lon="13.7617702"><ele>484.5</ele><time>2026-05-02T10:32:14.036Z</time></trkpt><trkpt lat="42.2767129" lon="13.7617711"><ele>486.0</ele><time>2026-05-02T10:32:15.036Z</time></trkpt><trkpt lat="42.2766367" lon="13.7617618"><ele>486.0</ele><time>2026-05-02T10:32:16.036Z</time></trkpt><trkpt lat="42.2765638" lon="13.7617302"><ele>486.0</ele><time>2026-05-02T10:32:17.036Z</time></trkpt><trkpt lat="42.2764934" lon="13.7616883"><ele>486.0</ele><time>2026-05-02T10:32:18.036Z</time></trkpt><trkpt lat="42.2764214" lon="13.7616401"><ele>486.0</ele><time>2026-05-02T10:32:19.037Z</time></trkpt><trkpt lat="42.276351" lon="13.7615998"><ele>486.0</ele><time>2026-05-02T10:32:20.037Z</time></trkpt><trkpt lat="42.2762717" lon="13.7615642"><ele>486.0</ele><time>2026-05-02T10:32:21.036Z</time></trkpt><trkpt lat="42.2761875" lon="13.7615357"><ele>488.1666666666667</ele><time>2026-05-02T10:32:22.037Z</time></trkpt><trkpt lat="42.276106" lon="13.7614966"><ele>490.33333333333337</ele><time>2026-05-02T10:32:23.036Z</time></trkpt><trkpt lat="42.2760271" lon="13.7614484"><ele>492.5</ele><time>2026-05-02T10:32:24.036Z</time></trkpt><trkpt lat="42.2759511" lon="13.7613899"><ele>494.6666666666667</ele><time>2026-05-02T10:32:25.036Z</time></trkpt><trkpt lat="42.2758732" lon="13.7613241"><ele>496.83333333333337</ele><time>2026-05-02T10:32:26.036Z</time></trkpt><trkpt lat="42.2758026" lon="13.7612573"><ele>499.0</ele><time>2026-05-02T10:32:27.036Z</time></trkpt><trkpt lat="42.2757324" lon="13.7611965"><ele>499.00000000000006</ele><time>2026-05-02T10:32:28.036Z</time></trkpt><trkpt lat="42.2756595" lon="13.7611464"><ele>499.0</ele><time>2026-05-02T10:32:29.036Z</time></trkpt><trkpt lat="42.2755878" lon="13.7610982"><ele>499.0</ele><time>2026-05-02T10:32:30.036Z</time></trkpt><trkpt lat="42.275513" lon="13.7610449"><ele>499.0</ele><time>2026-05-02T10:32:31.036Z</time></trkpt><trkpt lat="42.2754331" lon="13.7609888"><ele>499.00000000000006</ele><time>2026-05-02T10:32:32.037Z</time></trkpt><trkpt lat="42.2753519" lon="13.7609288"><ele>499.0</ele><time>2026-05-02T10:32:33.036Z</time></trkpt><trkpt lat="42.2752619" lon="13.7608724"><ele>499.79999999999995</ele><time>2026-05-02T10:32:34.036Z</time></trkpt><trkpt lat="42.27517" lon="13.7608181"><ele>500.59999999999997</ele><time>2026-05-02T10:32:35.036Z</time></trkpt><trkpt lat="42.2750813" lon="13.7607618"><ele>501.4</ele><time>2026-05-02T10:32:36.036Z</time></trkpt><trkpt lat="42.2749878" lon="13.7607051"><ele>502.2</ele><time>2026-05-02T10:32:37.036Z</time></trkpt><trkpt lat="42.2748943" lon="13.7606477"><ele>503.0</ele><time>2026-05-02T10:32:38.036Z</time></trkpt><trkpt lat="42.2748122" lon="13.7605981"><ele>503.0</ele><time>2026-05-02T10:32:39.037Z</time></trkpt><trkpt lat="42.2747511" lon="13.7605633"><ele>502.99999999999994</ele><time>2026-05-02T10:32:40.036Z</time></trkpt><trkpt lat="42.2746973" lon="13.7605074"><ele>502.99999999999994</ele><time>2026-05-02T10:32:42.036Z</time></trkpt><trkpt lat="42.2747285" lon="13.7603633"><ele>503.0</ele><time>2026-05-02T10:33:03.036Z</time></trkpt><trkpt lat="42.2748027" lon="13.7602841"><ele>503.0</ele><time>2026-05-02T10:33:05.036Z</time></trkpt><trkpt lat="42.2748922" lon="13.7601968"><ele>502.99999999999994</ele><time>2026-05-02T10:33:07.037Z</time></trkpt><trkpt lat="42.2749726" lon="13.7601011"><ele>503.0</ele><time>2026-05-02T10:33:09.037Z</time></trkpt><trkpt lat="42.2750189" lon="13.7600307"><ele>503.0</ele><time>2026-05-02T10:33:11.036Z</time></trkpt><trkpt lat="42.275084" lon="13.7599466"><ele>503.0</ele><time>2026-05-02T10:33:14.036Z</time></trkpt><trkpt lat="42.2751336" lon="13.7598661"><ele>502.99999999999994</ele><time>2026-05-02T10:33:16.036Z</time></trkpt><trkpt lat="42.2751947" lon="13.7597723"><ele>503.0</ele><time>2026-05-02T10:33:18.036Z</time></trkpt><trkpt lat="42.2752324" lon="13.7596996"><ele>503.0</ele><time>2026-05-02T10:33:19.036Z</time></trkpt><trkpt lat="42.2752861" lon="13.7596083"><ele>502.99999999999994</ele><time>2026-05-02T10:33:20.036Z</time></trkpt><trkpt lat="42.2753482" lon="13.7595008"><ele>502.99999999999994</ele><time>2026-05-02T10:33:21.037Z</time></trkpt><trkpt lat="42.2754201" lon="13.7593754"><ele>503.0</ele><time>2026-05-02T10:33:22.036Z</time></trkpt><trkpt lat="42.2755" lon="13.7592536"><ele>503.0</ele><time>2026-05-02T10:33:23.036Z</time></trkpt><trkpt lat="42.2755795" lon="13.7591353"><ele>500.59999999999997</ele><time>2026-05-02T10:33:24.036Z</time></trkpt><trkpt lat="42.2756635" lon="13.7590298"><ele>498.19999999999993</ele><time>2026-05-02T10:33:25.037Z</time></trkpt><trkpt lat="42.2757417" lon="13.7589283"><ele>495.8</ele><time>2026-05-02T10:33:26.036Z</time></trkpt><trkpt lat="42.2758101" lon="13.7588417"><ele>493.4</ele><time>2026-05-02T10:33:27.036Z</time></trkpt><trkpt lat="42.2758671" lon="13.7587729"><ele>491.0</ele><time>2026-05-02T10:33:28.036Z</time></trkpt><trkpt lat="42.2759168" lon="13.7586947"><ele>491.0</ele><time>2026-05-02T10:33:30.037Z</time></trkpt><trkpt lat="42.2758596" lon="13.758625"><ele>491.0</ele><time>2026-05-02T10:33:33.037Z</time></trkpt><trkpt lat="42.2757814" lon="13.7586434"><ele>491.0</ele><time>2026-05-02T10:33:43.036Z</time></trkpt><trkpt lat="42.2756707" lon="13.758661"><ele>491.0</ele><time>2026-05-02T10:33:45.036Z</time></trkpt><trkpt lat="42.2755721" lon="13.7586863"><ele>491.0</ele><time>2026-05-02T10:33:47.036Z</time></trkpt><trkpt lat="42.2754687" lon="13.7587014"><ele>494.0</ele><time>2026-05-02T10:33:49.036Z</time></trkpt><trkpt lat="42.2753686" lon="13.7587337"><ele>497.0</ele><time>2026-05-02T10:33:51.036Z</time></trkpt><trkpt lat="42.2752563" lon="13.7587532"><ele>500.0</ele><time>2026-05-02T10:33:53.037Z</time></trkpt><trkpt lat="42.2751948" lon="13.7587718"><ele>503.0</ele><time>2026-05-02T10:33:54.036Z</time></trkpt><trkpt lat="42.2750732" lon="13.7588041"><ele>506.0</ele><time>2026-05-02T10:33:56.036Z</time></trkpt><trkpt lat="42.2749476" lon="13.7588291"><ele>505.99999999999994</ele><time>2026-05-02T10:33:58.036Z</time></trkpt><trkpt lat="42.274877" lon="13.7588376"><ele>506.0</ele><time>2026-05-02T10:33:59.036Z</time></trkpt><trkpt lat="42.2748061" lon="13.7588464"><ele>506.0</ele><time>2026-05-02T10:34:00.036Z</time></trkpt><trkpt lat="42.2747369" lon="13.75886"><ele>506.0</ele><time>2026-05-02T10:34:01.036Z</time></trkpt><trkpt lat="42.274671" lon="13.7588791"><ele>505.99999999999994</ele><time>2026-05-02T10:34:02.036Z</time></trkpt><trkpt lat="42.2746088" lon="13.7589014"><ele>506.0</ele><time>2026-05-02T10:34:03.036Z</time></trkpt><trkpt lat="42.2744985" lon="13.7589335"><ele>507.8</ele><time>2026-05-02T10:34:05.036Z</time></trkpt><trkpt lat="42.274384" lon="13.7589578"><ele>509.6</ele><time>2026-05-02T10:34:07.036Z</time></trkpt><trkpt lat="42.2743184" lon="13.758965"><ele>511.4</ele><time>2026-05-02T10:34:09.036Z</time></trkpt><trkpt lat="42.2742483" lon="13.7589793"><ele>513.2</ele><time>2026-05-02T10:34:13.036Z</time></trkpt><trkpt lat="42.2741516" lon="13.7590147"><ele>515.0</ele><time>2026-05-02T10:34:15.036Z</time></trkpt><trkpt lat="42.2740627" lon="13.7590756"><ele>515.0</ele><time>2026-05-02T10:34:17.036Z</time></trkpt><trkpt lat="42.2739948" lon="13.7591431"><ele>515.0</ele><time>2026-05-02T10:34:19.036Z</time></trkpt><trkpt lat="42.2739635" lon="13.7592618"><ele>515.0</ele><time>2026-05-02T10:34:27.036Z</time></trkpt><trkpt lat="42.2739496" lon="13.7593513"><ele>515.0</ele><time>2026-05-02T10:34:29.036Z</time></trkpt><trkpt lat="42.2739103" lon="13.7594546"><ele>515.0</ele><time>2026-05-02T10:34:31.037Z</time></trkpt><trkpt lat="42.2738607" lon="13.7595572"><ele>515.0</ele><time>2026-05-02T10:34:33.037Z</time></trkpt><trkpt lat="42.2738022" lon="13.7596826"><ele>516.8</ele><time>2026-05-02T10:34:35.036Z</time></trkpt><trkpt lat="42.2737236" lon="13.7597297"><ele>518.6</ele><time>2026-05-02T10:34:37.036Z</time></trkpt><trkpt lat="42.2736213" lon="13.7597449"><ele>520.4</ele><time>2026-05-02T10:34:39.036Z</time></trkpt><trkpt lat="42.2734934" lon="13.7597377"><ele>522.2</ele><time>2026-05-02T10:34:41.037Z</time></trkpt><trkpt lat="42.273412" lon="13.759727"><ele>524.0</ele><time>2026-05-02T10:34:42.037Z</time></trkpt><trkpt lat="42.2733187" lon="13.759724"><ele>524.0</ele><time>2026-05-02T10:34:43.036Z</time></trkpt><trkpt lat="42.2732237" lon="13.7597448"><ele>524.0</ele><time>2026-05-02T10:34:44.036Z</time></trkpt><trkpt lat="42.2731225" lon="13.7597738"><ele>524.0</ele><time>2026-05-02T10:34:45.036Z</time></trkpt><trkpt lat="42.2730218" lon="13.7597935"><ele>524.0</ele><time>2026-05-02T10:34:46.036Z</time></trkpt><trkpt lat="42.2729165" lon="13.7597802"><ele>524.0</ele><time>2026-05-02T10:34:47.037Z</time></trkpt><trkpt lat="42.2728021" lon="13.7597435"><ele>524.75</ele><time>2026-05-02T10:34:48.036Z</time></trkpt><trkpt lat="42.2726753" lon="13.7596986"><ele>525.5</ele><time>2026-05-02T10:34:49.036Z</time></trkpt><trkpt lat="42.2725467" lon="13.7596402"><ele>526.25</ele><time>2026-05-02T10:34:50.036Z</time></trkpt><trkpt lat="42.2724183" lon="13.7595802"><ele>527.0</ele><time>2026-05-02T10:34:51.036Z</time></trkpt><trkpt lat="42.2722904" lon="13.7595248"><ele>527.4</ele><time>2026-05-02T10:34:52.036Z</time></trkpt><trkpt lat="42.2721749" lon="13.7594701"><ele>527.8000000000001</ele><time>2026-05-02T10:34:53.036Z</time></trkpt><trkpt lat="42.2720782" lon="13.7594111"><ele>528.2</ele><time>2026-05-02T10:34:54.036Z</time></trkpt><trkpt lat="42.2720023" lon="13.7593243"><ele>528.6</ele><time>2026-05-02T10:34:55.036Z</time></trkpt><trkpt lat="42.2719586" lon="13.7592111"><ele>529.0</ele><time>2026-05-02T10:34:56.036Z</time></trkpt><trkpt lat="42.2719161" lon="13.7590896"><ele>530.0</ele><time>2026-05-02T10:34:57.036Z</time></trkpt><trkpt lat="42.2718505" lon="13.7589865"><ele>531.0</ele><time>2026-05-02T10:34:58.036Z</time></trkpt><trkpt lat="42.2717616" lon="13.7588978"><ele>532.0</ele><time>2026-05-02T10:34:59.036Z</time></trkpt><trkpt lat="42.2716528" lon="13.7588356"><ele>533.0</ele><time>2026-05-02T10:35:00.037Z</time></trkpt><trkpt lat="42.2715304" lon="13.7587917"><ele>532.5</ele><time>2026-05-02T10:35:01.036Z</time></trkpt><trkpt lat="42.2714048" lon="13.7587516"><ele>532.0</ele><time>2026-05-02T10:35:02.037Z</time></trkpt><trkpt lat="42.2712845" lon="13.7587332"><ele>531.5</ele><time>2026-05-02T10:35:03.036Z</time></trkpt><trkpt lat="42.2711679" lon="13.7587251"><ele>531.0</ele><time>2026-05-02T10:35:04.036Z</time></trkpt><trkpt lat="42.2710564" lon="13.7587125"><ele>531.0</ele><time>2026-05-02T10:35:05.037Z</time></trkpt><trkpt lat="42.2709443" lon="13.7587"><ele>531.0</ele><time>2026-05-02T10:35:06.036Z</time></trkpt><trkpt lat="42.2708381" lon="13.7587014"><ele>531.0</ele><time>2026-05-02T10:35:07.036Z</time></trkpt><trkpt lat="42.2707363" lon="13.7587008"><ele>531.0</ele><time>2026-05-02T10:35:08.036Z</time></trkpt><trkpt lat="42.2706457" lon="13.7586996"><ele>531.0</ele><time>2026-05-02T10:35:09.036Z</time></trkpt><trkpt lat="42.2705593" lon="13.7586897"><ele>531.1666666666666</ele><time>2026-05-02T10:35:10.036Z</time></trkpt><trkpt lat="42.2704767" lon="13.7586803"><ele>531.3333333333334</ele><time>2026-05-02T10:35:11.036Z</time></trkpt><trkpt lat="42.2704031" lon="13.7586893"><ele>531.5</ele><time>2026-05-02T10:35:12.037Z</time></trkpt><trkpt lat="42.2703241" lon="13.7587054"><ele>531.6666666666667</ele><time>2026-05-02T10:35:13.036Z</time></trkpt><trkpt lat="42.2702478" lon="13.758727"><ele>531.8333333333334</ele><time>2026-05-02T10:35:14.036Z</time></trkpt><trkpt lat="42.2701719" lon="13.7587423"><ele>532.0</ele><time>2026-05-02T10:35:15.036Z</time></trkpt><trkpt lat="42.2700995" lon="13.7587589"><ele>532.0</ele><time>2026-05-02T10:35:16.036Z</time></trkpt><trkpt lat="42.2700264" lon="13.7587811"><ele>532.0</ele><time>2026-05-02T10:35:17.036Z</time></trkpt><trkpt lat="42.2699548" lon="13.7588053"><ele>532.0</ele><time>2026-05-02T10:35:18.037Z</time></trkpt><trkpt lat="42.2698843" lon="13.7588323"><ele>532.0</ele><time>2026-05-02T10:35:19.036Z</time></trkpt><trkpt lat="42.2698144" lon="13.7588656"><ele>532.0</ele><time>2026-05-02T10:35:20.036Z</time></trkpt><trkpt lat="42.2697429" lon="13.7589038"><ele>532.0</ele><time>2026-05-02T10:35:21.036Z</time></trkpt><trkpt lat="42.2696685" lon="13.7589545"><ele>532.1666666666667</ele><time>2026-05-02T10:35:22.036Z</time></trkpt><trkpt lat="42.2695908" lon="13.7590002"><ele>532.3333333333334</ele><time>2026-05-02T10:35:23.036Z</time></trkpt><trkpt lat="42.2695085" lon="13.75905"><ele>532.5</ele><time>2026-05-02T10:35:24.036Z</time></trkpt><trkpt lat="42.2694215" lon="13.7590909"><ele>532.6666666666666</ele><time>2026-05-02T10:35:25.037Z</time></trkpt><trkpt lat="42.2693351" lon="13.7591252"><ele>532.8333333333333</ele><time>2026-05-02T10:35:26.036Z</time></trkpt><trkpt lat="42.2692495" lon="13.7591583"><ele>533.0</ele><time>2026-05-02T10:35:27.036Z</time></trkpt><trkpt lat="42.269171" lon="13.7591862"><ele>533.0</ele><time>2026-05-02T10:35:28.036Z</time></trkpt><trkpt lat="42.2691" lon="13.7592179"><ele>533.0</ele><time>2026-05-02T10:35:29.036Z</time></trkpt><trkpt lat="42.2690336" lon="13.7592449"><ele>533.0</ele><time>2026-05-02T10:35:30.036Z</time></trkpt><trkpt lat="42.2689693" lon="13.7592733"><ele>533.0</ele><time>2026-05-02T10:35:31.036Z</time></trkpt><trkpt lat="42.268856" lon="13.7593209"><ele>533.0</ele><time>2026-05-02T10:35:33.036Z</time></trkpt><trkpt lat="42.2687935" lon="13.759356"><ele>533.0</ele><time>2026-05-02T10:35:36.036Z</time></trkpt><trkpt lat="42.2686974" lon="13.7594333"><ele>534.0</ele><time>2026-05-02T10:35:42.037Z</time></trkpt><trkpt lat="42.2686366" lon="13.7595327"><ele>535.0</ele><time>2026-05-02T10:35:44.036Z</time></trkpt><trkpt lat="42.2685767" lon="13.7596618"><ele>536.0</ele><time>2026-05-02T10:35:46.036Z</time></trkpt><trkpt lat="42.2685216" lon="13.7597928"><ele>537.0</ele><time>2026-05-02T10:35:48.037Z</time></trkpt><trkpt lat="42.2684567" lon="13.7599145"><ele>538.0</ele><time>2026-05-02T10:35:50.036Z</time></trkpt><trkpt lat="42.2683846" lon="13.7600475"><ele>538.0</ele><time>2026-05-02T10:35:52.036Z</time></trkpt><trkpt lat="42.2683449" lon="13.7601188"><ele>538.0</ele><time>2026-05-02T10:35:53.036Z</time></trkpt><trkpt lat="42.2682626" lon="13.7602374"><ele>538.0</ele><time>2026-05-02T10:35:55.036Z</time></trkpt><trkpt lat="42.268167" lon="13.7603615"><ele>538.0</ele><time>2026-05-02T10:35:57.036Z</time></trkpt><trkpt lat="42.2681114" lon="13.7604238"><ele>538.0</ele><time>2026-05-02T10:35:58.036Z</time></trkpt><trkpt lat="42.2680539" lon="13.7604898"><ele>538.5714285714286</ele><time>2026-05-02T10:35:59.036Z</time></trkpt><trkpt lat="42.2679957" lon="13.7605616"><ele>539.1428571428572</ele><time>2026-05-02T10:36:00.036Z</time></trkpt><trkpt lat="42.2679431" lon="13.7606349"><ele>539.7142857142858</ele><time>2026-05-02T10:36:01.036Z</time></trkpt><trkpt lat="42.2678883" lon="13.7607097"><ele>540.2857142857143</ele><time>2026-05-02T10:36:02.036Z</time></trkpt><trkpt lat="42.2678341" lon="13.7607765"><ele>540.8571428571429</ele><time>2026-05-02T10:36:03.036Z</time></trkpt><trkpt lat="42.2677852" lon="13.7608412"><ele>541.4285714285714</ele><time>2026-05-02T10:36:04.036Z</time></trkpt><trkpt lat="42.2677353" lon="13.7609119"><ele>542.0</ele><time>2026-05-02T10:36:05.036Z</time></trkpt><trkpt lat="42.2676827" lon="13.7609808"><ele>541.8571428571429</ele><time>2026-05-02T10:36:06.036Z</time></trkpt><trkpt lat="42.2676296" lon="13.7610552"><ele>541.7142857142858</ele><time>2026-05-02T10:36:07.037Z</time></trkpt><trkpt lat="42.267581" lon="13.7611293"><ele>541.5714285714287</ele><time>2026-05-02T10:36:08.037Z</time></trkpt><trkpt lat="42.2675338" lon="13.761207"><ele>541.4285714285714</ele><time>2026-05-02T10:36:09.037Z</time></trkpt><trkpt lat="42.2674972" lon="13.7612904"><ele>541.2857142857143</ele><time>2026-05-02T10:36:10.036Z</time></trkpt><trkpt lat="42.2674532" lon="13.76137"><ele>541.1428571428572</ele><time>2026-05-02T10:36:11.036Z</time></trkpt><trkpt lat="42.2674115" lon="13.761443"><ele>541.0</ele><time>2026-05-02T10:36:12.037Z</time></trkpt><trkpt lat="42.2673293" lon="13.7615529"><ele>540.8</ele><time>2026-05-02T10:36:14.036Z</time></trkpt><trkpt lat="42.2672323" lon="13.7616367"><ele>540.6</ele><time>2026-05-02T10:36:16.036Z</time></trkpt><trkpt lat="42.2671619" lon="13.7616848"><ele>540.4</ele><time>2026-05-02T10:36:17.036Z</time></trkpt><trkpt lat="42.267087" lon="13.7617346"><ele>540.2</ele><time>2026-05-02T10:36:18.037Z</time></trkpt><trkpt lat="42.2670253" lon="13.7617853"><ele>540.0</ele><time>2026-05-02T10:36:19.036Z</time></trkpt><trkpt lat="42.2669417" lon="13.7618873"><ele>541.6</ele><time>2026-05-02T10:36:21.036Z</time></trkpt><trkpt lat="42.2668753" lon="13.7620379"><ele>543.2</ele><time>2026-05-02T10:36:23.036Z</time></trkpt><trkpt lat="42.2668416" lon="13.7621286"><ele>544.8</ele><time>2026-05-02T10:36:24.037Z</time></trkpt><trkpt lat="42.2667981" lon="13.7622259"><ele>546.4</ele><time>2026-05-02T10:36:25.036Z</time></trkpt><trkpt lat="42.2667511" lon="13.7623226"><ele>548.0</ele><time>2026-05-02T10:36:26.036Z</time></trkpt><trkpt lat="42.2666996" lon="13.7624219"><ele>548.0</ele><time>2026-05-02T10:36:27.036Z</time></trkpt><trkpt lat="42.2666423" lon="13.7625176"><ele>548.0</ele><time>2026-05-02T10:36:28.036Z</time></trkpt><trkpt lat="42.266568" lon="13.7625973"><ele>548.0</ele><time>2026-05-02T10:36:29.036Z</time></trkpt><trkpt lat="42.2664848" lon="13.7626657"><ele>548.0</ele><time>2026-05-02T10:36:30.036Z</time></trkpt><trkpt lat="42.266401" lon="13.7627441"><ele>548.0</ele><time>2026-05-02T10:36:31.036Z</time></trkpt><trkpt lat="42.2663274" lon="13.7628454"><ele>549.4</ele><time>2026-05-02T10:36:32.036Z</time></trkpt><trkpt lat="42.2662487" lon="13.7629395"><ele>550.8</ele><time>2026-05-02T10:36:33.037Z</time></trkpt><trkpt lat="42.2661616" lon="13.763007"><ele>552.2</ele><time>2026-05-02T10:36:34.036Z</time></trkpt><trkpt lat="42.2660666" lon="13.7630564"><ele>553.6</ele><time>2026-05-02T10:36:35.037Z</time></trkpt><trkpt lat="42.2659571" lon="13.7630868"><ele>555.0</ele><time>2026-05-02T10:36:36.036Z</time></trkpt><trkpt lat="42.2658423" lon="13.7631137"><ele>555.0</ele><time>2026-05-02T10:36:37.036Z</time></trkpt><trkpt lat="42.2657307" lon="13.7631454"><ele>555.0</ele><time>2026-05-02T10:36:38.036Z</time></trkpt><trkpt lat="42.2656225" lon="13.7631925"><ele>555.0</ele><time>2026-05-02T10:36:39.036Z</time></trkpt><trkpt lat="42.2655299" lon="13.7632579"><ele>555.0</ele><time>2026-05-02T10:36:40.037Z</time></trkpt><trkpt lat="42.2654425" lon="13.7633246"><ele>555.0</ele><time>2026-05-02T10:36:41.036Z</time></trkpt><trkpt lat="42.2653429" lon="13.7633616"><ele>556.6</ele><time>2026-05-02T10:36:42.037Z</time></trkpt><trkpt lat="42.2652404" lon="13.7633651"><ele>558.2</ele><time>2026-05-02T10:36:43.036Z</time></trkpt><trkpt lat="42.2651322" lon="13.7633614"><ele>559.8</ele><time>2026-05-02T10:36:44.037Z</time></trkpt><trkpt lat="42.2650307" lon="13.7633579"><ele>561.4</ele><time>2026-05-02T10:36:45.036Z</time></trkpt><trkpt lat="42.2649316" lon="13.763346"><ele>563.0</ele><time>2026-05-02T10:36:46.037Z</time></trkpt><trkpt lat="42.2648311" lon="13.7633345"><ele>563.1999999999999</ele><time>2026-05-02T10:36:47.036Z</time></trkpt><trkpt lat="42.2647346" lon="13.7633301"><ele>563.4</ele><time>2026-05-02T10:36:48.037Z</time></trkpt><trkpt lat="42.2646405" lon="13.7633419"><ele>563.5999999999999</ele><time>2026-05-02T10:36:49.036Z</time></trkpt><trkpt lat="42.2645481" lon="13.7633599"><ele>563.8</ele><time>2026-05-02T10:36:50.036Z</time></trkpt><trkpt lat="42.2644576" lon="13.7633919"><ele>564.0</ele><time>2026-05-02T10:36:51.037Z</time></trkpt><trkpt lat="42.2643718" lon="13.7634339"><ele>564.0</ele><time>2026-05-02T10:36:52.036Z</time></trkpt><trkpt lat="42.2642881" lon="13.7634774"><ele>564.0</ele><time>2026-05-02T10:36:53.036Z</time></trkpt><trkpt lat="42.2642039" lon="13.7635217"><ele>564.0</ele><time>2026-05-02T10:36:54.037Z</time></trkpt><trkpt lat="42.2641222" lon="13.7635703"><ele>564.0</ele><time>2026-05-02T10:36:55.036Z</time></trkpt><trkpt lat="42.2640422" lon="13.7636152"><ele>564.0</ele><time>2026-05-02T10:36:56.036Z</time></trkpt><trkpt lat="42.2639646" lon="13.7636688"><ele>564.0</ele><time>2026-05-02T10:36:57.037Z</time></trkpt><trkpt lat="42.2638864" lon="13.7637236"><ele>566.1666666666666</ele><time>2026-05-02T10:36:58.036Z</time></trkpt><trkpt lat="42.2638134" lon="13.7637827"><ele>568.3333333333334</ele><time>2026-05-02T10:36:59.036Z</time></trkpt><trkpt lat="42.2637429" lon="13.7638395"><ele>570.5</ele><time>2026-05-02T10:37:00.036Z</time></trkpt><trkpt lat="42.2636747" lon="13.7638951"><ele>572.6666666666667</ele><time>2026-05-02T10:37:01.036Z</time></trkpt><trkpt lat="42.263605" lon="13.7639532"><ele>574.8333333333334</ele><time>2026-05-02T10:37:02.036Z</time></trkpt><trkpt lat="42.2635362" lon="13.76401"><ele>577.0</ele><time>2026-05-02T10:37:03.036Z</time></trkpt><trkpt lat="42.2634669" lon="13.7640603"><ele>577.0</ele><time>2026-05-02T10:37:04.036Z</time></trkpt><trkpt lat="42.2633996" lon="13.7641057"><ele>577.0</ele><time>2026-05-02T10:37:05.036Z</time></trkpt><trkpt lat="42.2633377" lon="13.7641457"><ele>577.0</ele><time>2026-05-02T10:37:06.036Z</time></trkpt><trkpt lat="42.2632579" lon="13.7641951"><ele>577.0</ele><time>2026-05-02T10:37:08.036Z</time></trkpt><trkpt lat="42.2632095" lon="13.7642699"><ele>577.0</ele><time>2026-05-02T10:37:18.036Z</time></trkpt><trkpt lat="42.2630959" lon="13.7643327"><ele>577.0</ele><time>2026-05-02T10:37:28.036Z</time></trkpt><trkpt lat="42.2630254" lon="13.7643821"><ele>580.75</ele><time>2026-05-02T10:37:29.036Z</time></trkpt><trkpt lat="42.2629333" lon="13.7644392"><ele>584.5</ele><time>2026-05-02T10:37:30.036Z</time></trkpt><trkpt lat="42.2628348" lon="13.764499"><ele>588.25</ele><time>2026-05-02T10:37:31.036Z</time></trkpt><trkpt lat="42.2627213" lon="13.7645496"><ele>592.0</ele><time>2026-05-02T10:37:32.036Z</time></trkpt><trkpt lat="42.2625876" lon="13.7645903"><ele>592.0</ele><time>2026-05-02T10:37:33.036Z</time></trkpt><trkpt lat="42.2624407" lon="13.7646198"><ele>592.0</ele><time>2026-05-02T10:37:34.036Z</time></trkpt><trkpt lat="42.2622871" lon="13.764663"><ele>592.0</ele><time>2026-05-02T10:37:35.037Z</time></trkpt><trkpt lat="42.2621162" lon="13.7647246"><ele>592.3333333333334</ele><time>2026-05-02T10:37:36.037Z</time></trkpt><trkpt lat="42.2619452" lon="13.7647943"><ele>592.6666666666666</ele><time>2026-05-02T10:37:37.037Z</time></trkpt><trkpt lat="42.2617729" lon="13.764854"><ele>593.0</ele><time>2026-05-02T10:37:38.037Z</time></trkpt><trkpt lat="42.2615948" lon="13.7649046"><ele>591.0</ele><time>2026-05-02T10:37:39.036Z</time></trkpt><trkpt lat="42.2614182" lon="13.7649572"><ele>589.0</ele><time>2026-05-02T10:37:40.036Z</time></trkpt><trkpt lat="42.2612364" lon="13.7650097"><ele>587.0</ele><time>2026-05-02T10:37:41.036Z</time></trkpt><trkpt lat="42.2610597" lon="13.7650577"><ele>587.0</ele><time>2026-05-02T10:37:42.036Z</time></trkpt><trkpt lat="42.2608841" lon="13.7651042"><ele>587.0</ele><time>2026-05-02T10:37:43.036Z</time></trkpt><trkpt lat="42.2607122" lon="13.7651636"><ele>587.0</ele><time>2026-05-02T10:37:44.037Z</time></trkpt><trkpt lat="42.2605415" lon="13.7652361"><ele>595.0</ele><time>2026-05-02T10:37:45.036Z</time></trkpt><trkpt lat="42.2603791" lon="13.7653006"><ele>603.0</ele><time>2026-05-02T10:37:46.036Z</time></trkpt><trkpt lat="42.260224" lon="13.76537"><ele>611.0</ele><time>2026-05-02T10:37:47.037Z</time></trkpt><trkpt lat="42.2600791" lon="13.7654407"><ele>611.0</ele><time>2026-05-02T10:37:48.036Z</time></trkpt><trkpt lat="42.2599426" lon="13.7655064"><ele>611.0</ele><time>2026-05-02T10:37:49.036Z</time></trkpt><trkpt lat="42.2598075" lon="13.765565"><ele>611.0</ele><time>2026-05-02T10:37:50.036Z</time></trkpt><trkpt lat="42.25967" lon="13.7656154"><ele>611.0</ele><time>2026-05-02T10:37:51.036Z</time></trkpt><trkpt lat="42.2595372" lon="13.7656407"><ele>610.5</ele><time>2026-05-02T10:37:52.036Z</time></trkpt><trkpt lat="42.2594073" lon="13.7656256"><ele>610.0</ele><time>2026-05-02T10:37:53.036Z</time></trkpt><trkpt lat="42.2592828" lon="13.7655787"><ele>609.5</ele><time>2026-05-02T10:37:54.036Z</time></trkpt><trkpt lat="42.2591532" lon="13.7655308"><ele>609.0</ele><time>2026-05-02T10:37:55.037Z</time></trkpt><trkpt lat="42.2590119" lon="13.7654898"><ele>608.75</ele><time>2026-05-02T10:37:56.036Z</time></trkpt><trkpt lat="42.25887" lon="13.765455"><ele>608.5</ele><time>2026-05-02T10:37:57.036Z</time></trkpt><trkpt lat="42.2587344" lon="13.7654288"><ele>608.25</ele><time>2026-05-02T10:37:58.036Z</time></trkpt><trkpt lat="42.2586075" lon="13.7654034"><ele>608.0</ele><time>2026-05-02T10:37:59.036Z</time></trkpt><trkpt lat="42.2584908" lon="13.7653848"><ele>608.0</ele><time>2026-05-02T10:38:00.037Z</time></trkpt><trkpt lat="42.2583911" lon="13.7653676"><ele>608.0</ele><time>2026-05-02T10:38:01.036Z</time></trkpt><trkpt lat="42.2583063" lon="13.7653487"><ele>608.0</ele><time>2026-05-02T10:38:02.037Z</time></trkpt><trkpt lat="42.2582215" lon="13.7653217"><ele>608.0</ele><time>2026-05-02T10:38:03.036Z</time></trkpt><trkpt lat="42.2581275" lon="13.7652805"><ele>608.0</ele><time>2026-05-02T10:38:04.036Z</time></trkpt><trkpt lat="42.2580266" lon="13.7652246"><ele>610.0</ele><time>2026-05-02T10:38:05.036Z</time></trkpt><trkpt lat="42.2579233" lon="13.7651617"><ele>612.0</ele><time>2026-05-02T10:38:06.036Z</time></trkpt><trkpt lat="42.2578215" lon="13.765102"><ele>614.0</ele><time>2026-05-02T10:38:07.036Z</time></trkpt><trkpt lat="42.2577173" lon="13.7650421"><ele>616.0</ele><time>2026-05-02T10:38:08.036Z</time></trkpt><trkpt lat="42.2576115" lon="13.7649892"><ele>616.0</ele><time>2026-05-02T10:38:09.037Z</time></trkpt><trkpt lat="42.2575085" lon="13.7649427"><ele>616.0</ele><time>2026-05-02T10:38:10.036Z</time></trkpt><trkpt lat="42.2574135" lon="13.7649023"><ele>616.0</ele><time>2026-05-02T10:38:11.036Z</time></trkpt><trkpt lat="42.2573239" lon="13.7648624"><ele>616.0</ele><time>2026-05-02T10:38:12.036Z</time></trkpt><trkpt lat="42.2572412" lon="13.7648201"><ele>616.0</ele><time>2026-05-02T10:38:13.036Z</time></trkpt><trkpt lat="42.2571633" lon="13.764774"><ele>616.5714285714286</ele><time>2026-05-02T10:38:14.036Z</time></trkpt><trkpt lat="42.2570978" lon="13.7647321"><ele>617.1428571428571</ele><time>2026-05-02T10:38:15.036Z</time></trkpt><trkpt lat="42.2570309" lon="13.7646917"><ele>617.7142857142858</ele><time>2026-05-02T10:38:16.037Z</time></trkpt><trkpt lat="42.2569667" lon="13.7646642"><ele>618.2857142857142</ele><time>2026-05-02T10:38:17.036Z</time></trkpt><trkpt lat="42.256902" lon="13.7646607"><ele>618.8571428571429</ele><time>2026-05-02T10:38:18.036Z</time></trkpt><trkpt lat="42.2568376" lon="13.7646786"><ele>619.4285714285714</ele><time>2026-05-02T10:38:19.036Z</time></trkpt><trkpt lat="42.2567692" lon="13.7647106"><ele>620.0</ele><time>2026-05-02T10:38:20.036Z</time></trkpt><trkpt lat="42.2566933" lon="13.7647292"><ele>620.0</ele><time>2026-05-02T10:38:21.037Z</time></trkpt><trkpt lat="42.2566225" lon="13.7647505"><ele>620.0</ele><time>2026-05-02T10:38:22.036Z</time></trkpt><trkpt lat="42.2565491" lon="13.7647697"><ele>620.0</ele><time>2026-05-02T10:38:23.036Z</time></trkpt><trkpt lat="42.256479" lon="13.764779"><ele>620.0</ele><time>2026-05-02T10:38:24.036Z</time></trkpt><trkpt lat="42.2564127" lon="13.7647916"><ele>620.0</ele><time>2026-05-02T10:38:25.036Z</time></trkpt><trkpt lat="42.2563456" lon="13.7647969"><ele>620.0</ele><time>2026-05-02T10:38:26.036Z</time></trkpt><trkpt lat="42.2562768" lon="13.7647978"><ele>620.0</ele><time>2026-05-02T10:38:27.037Z</time></trkpt><trkpt lat="42.2562011" lon="13.7647942"><ele>621.3333333333333</ele><time>2026-05-02T10:38:28.036Z</time></trkpt><trkpt lat="42.2561244" lon="13.76479"><ele>622.6666666666666</ele><time>2026-05-02T10:38:29.036Z</time></trkpt><trkpt lat="42.2560459" lon="13.7647808"><ele>624.0</ele><time>2026-05-02T10:38:30.036Z</time></trkpt><trkpt lat="42.2559607" lon="13.7647658"><ele>625.3333333333334</ele><time>2026-05-02T10:38:31.036Z</time></trkpt><trkpt lat="42.2558668" lon="13.7647504"><ele>626.6666666666667</ele><time>2026-05-02T10:38:32.036Z</time></trkpt><trkpt lat="42.2557709" lon="13.764734"><ele>628.0</ele><time>2026-05-02T10:38:33.036Z</time></trkpt><trkpt lat="42.2556687" lon="13.7647233"><ele>629.0</ele><time>2026-05-02T10:38:34.036Z</time></trkpt><trkpt lat="42.2555667" lon="13.76471"><ele>630.0</ele><time>2026-05-02T10:38:35.036Z</time></trkpt><trkpt lat="42.2554689" lon="13.7646912"><ele>631.0</ele><time>2026-05-02T10:38:36.036Z</time></trkpt><trkpt lat="42.255378" lon="13.7646636"><ele>632.0</ele><time>2026-05-02T10:38:37.036Z</time></trkpt><trkpt lat="42.2552956" lon="13.7646279"><ele>633.0</ele><time>2026-05-02T10:38:38.036Z</time></trkpt><trkpt lat="42.2552214" lon="13.7645836"><ele>633.0</ele><time>2026-05-02T10:38:39.037Z</time></trkpt><trkpt lat="42.2551454" lon="13.7645455"><ele>633.0</ele><time>2026-05-02T10:38:40.036Z</time></trkpt><trkpt lat="42.2550677" lon="13.7645372"><ele>633.0</ele><time>2026-05-02T10:38:41.036Z</time></trkpt><trkpt lat="42.2549918" lon="13.7645452"><ele>633.0</ele><time>2026-05-02T10:38:42.036Z</time></trkpt><trkpt lat="42.2549223" lon="13.7645548"><ele>633.0</ele><time>2026-05-02T10:38:43.036Z</time></trkpt><trkpt lat="42.2548443" lon="13.7645712"><ele>633.0</ele><time>2026-05-02T10:38:44.036Z</time></trkpt><trkpt lat="42.2547576" lon="13.7645752"><ele>634.8333333333334</ele><time>2026-05-02T10:38:45.037Z</time></trkpt><trkpt lat="42.2546775" lon="13.7645609"><ele>636.6666666666666</ele><time>2026-05-02T10:38:46.037Z</time></trkpt><trkpt lat="42.2546001" lon="13.7645385"><ele>638.5</ele><time>2026-05-02T10:38:47.036Z</time></trkpt><trkpt lat="42.2545232" lon="13.7645134"><ele>640.3333333333333</ele><time>2026-05-02T10:38:48.036Z</time></trkpt><trkpt lat="42.254438" lon="13.7644997"><ele>642.1666666666666</ele><time>2026-05-02T10:38:49.036Z</time></trkpt><trkpt lat="42.254347" lon="13.7644974"><ele>644.0</ele><time>2026-05-02T10:38:50.036Z</time></trkpt><trkpt lat="42.2542628" lon="13.7644958"><ele>644.0</ele><time>2026-05-02T10:38:51.036Z</time></trkpt><trkpt lat="42.2541812" lon="13.7644865"><ele>644.0</ele><time>2026-05-02T10:38:52.036Z</time></trkpt><trkpt lat="42.2541047" lon="13.7644715"><ele>644.0</ele><time>2026-05-02T10:38:53.036Z</time></trkpt><trkpt lat="42.2540401" lon="13.7644583"><ele>644.0</ele><time>2026-05-02T10:38:54.036Z</time></trkpt><trkpt lat="42.2539759" lon="13.7644379"><ele>644.0</ele><time>2026-05-02T10:38:55.037Z</time></trkpt><trkpt lat="42.2539098" lon="13.7644143"><ele>644.0</ele><time>2026-05-02T10:38:56.037Z</time></trkpt><trkpt lat="42.2538407" lon="13.7643807"><ele>644.0</ele><time>2026-05-02T10:38:57.036Z</time></trkpt><trkpt lat="42.2537756" lon="13.7643418"><ele>645.0</ele><time>2026-05-02T10:38:58.037Z</time></trkpt><trkpt lat="42.2537046" lon="13.7643049"><ele>646.0</ele><time>2026-05-02T10:38:59.036Z</time></trkpt><trkpt lat="42.2536376" lon="13.764257"><ele>647.0</ele><time>2026-05-02T10:39:00.036Z</time></trkpt><trkpt lat="42.253581" lon="13.7642027"><ele>648.0</ele><time>2026-05-02T10:39:01.036Z</time></trkpt><trkpt lat="42.2535376" lon="13.7641389"><ele>649.0</ele><time>2026-05-02T10:39:02.036Z</time></trkpt><trkpt lat="42.2534941" lon="13.7640545"><ele>650.0</ele><time>2026-05-02T10:39:03.036Z</time></trkpt><trkpt lat="42.2534479" lon="13.763954"><ele>651.0</ele><time>2026-05-02T10:39:04.036Z</time></trkpt><trkpt lat="42.2533999" lon="13.763867"><ele>651.0</ele><time>2026-05-02T10:39:05.036Z</time></trkpt><trkpt lat="42.2533467" lon="13.7637857"><ele>651.0</ele><time>2026-05-02T10:39:06.036Z</time></trkpt><trkpt lat="42.2532867" lon="13.7637105"><ele>651.0</ele><time>2026-05-02T10:39:07.036Z</time></trkpt><trkpt lat="42.2532158" lon="13.7636522"><ele>651.0</ele><time>2026-05-02T10:39:08.037Z</time></trkpt><trkpt lat="42.2531406" lon="13.7636038"><ele>651.0</ele><time>2026-05-02T10:39:09.036Z</time></trkpt><trkpt lat="42.253053" lon="13.7635645"><ele>651.0</ele><time>2026-05-02T10:39:10.036Z</time></trkpt><trkpt lat="42.2529656" lon="13.7635302"><ele>652.1666666666666</ele><time>2026-05-02T10:39:11.037Z</time></trkpt><trkpt lat="42.2528758" lon="13.7634955"><ele>653.3333333333334</ele><time>2026-05-02T10:39:12.037Z</time></trkpt><trkpt lat="42.2527894" lon="13.7634717"><ele>654.5</ele><time>2026-05-02T10:39:13.036Z</time></trkpt><trkpt lat="42.2527021" lon="13.7634586"><ele>655.6666666666667</ele><time>2026-05-02T10:39:14.037Z</time></trkpt><trkpt lat="42.2526224" lon="13.7634449"><ele>656.8333333333334</ele><time>2026-05-02T10:39:15.036Z</time></trkpt><trkpt lat="42.252545" lon="13.7634385"><ele>658.0</ele><time>2026-05-02T10:39:16.036Z</time></trkpt><trkpt lat="42.2524742" lon="13.7634291"><ele>658.0</ele><time>2026-05-02T10:39:17.036Z</time></trkpt><trkpt lat="42.252411" lon="13.7634181"><ele>658.0</ele><time>2026-05-02T10:39:18.036Z</time></trkpt><trkpt lat="42.2523491" lon="13.7633988"><ele>658.0</ele><time>2026-05-02T10:39:19.036Z</time></trkpt><trkpt lat="42.2522619" lon="13.7633703"><ele>658.0</ele><time>2026-05-02T10:39:21.036Z</time></trkpt><trkpt lat="42.2521949" lon="13.7633467"><ele>658.0</ele><time>2026-05-02T10:39:23.036Z</time></trkpt><trkpt lat="42.2521095" lon="13.7633023"><ele>658.0</ele><time>2026-05-02T10:39:25.036Z</time></trkpt><trkpt lat="42.2520083" lon="13.7632405"><ele>657.5714285714286</ele><time>2026-05-02T10:39:27.037Z</time></trkpt><trkpt lat="42.2519511" lon="13.7631969"><ele>657.1428571428571</ele><time>2026-05-02T10:39:28.037Z</time></trkpt><trkpt lat="42.2518939" lon="13.763148"><ele>656.7142857142858</ele><time>2026-05-02T10:39:29.036Z</time></trkpt><trkpt lat="42.2518366" lon="13.7630887"><ele>656.2857142857142</ele><time>2026-05-02T10:39:30.036Z</time></trkpt><trkpt lat="42.2517817" lon="13.763019"><ele>655.8571428571429</ele><time>2026-05-02T10:39:31.037Z</time></trkpt><trkpt lat="42.2517296" lon="13.7629397"><ele>655.4285714285714</ele><time>2026-05-02T10:39:32.036Z</time></trkpt><trkpt lat="42.2516812" lon="13.7628604"><ele>655.0</ele><time>2026-05-02T10:39:33.036Z</time></trkpt><trkpt lat="42.2516242" lon="13.7627849"><ele>655.0</ele><time>2026-05-02T10:39:34.037Z</time></trkpt><trkpt lat="42.2515612" lon="13.7627223"><ele>655.0</ele><time>2026-05-02T10:39:35.036Z</time></trkpt><trkpt lat="42.2514955" lon="13.7626636"><ele>655.0</ele><time>2026-05-02T10:39:36.036Z</time></trkpt><trkpt lat="42.2514252" lon="13.7626051"><ele>655.0</ele><time>2026-05-02T10:39:37.036Z</time></trkpt><trkpt lat="42.2513598" lon="13.7625369"><ele>655.0</ele><time>2026-05-02T10:39:38.036Z</time></trkpt><trkpt lat="42.2512896" lon="13.7624694"><ele>655.0</ele><time>2026-05-02T10:39:39.037Z</time></trkpt><trkpt lat="42.2512223" lon="13.7624085"><ele>658.0</ele><time>2026-05-02T10:39:40.036Z</time></trkpt><trkpt lat="42.2511519" lon="13.7623477"><ele>661.0</ele><time>2026-05-02T10:39:41.036Z</time></trkpt><trkpt lat="42.2510798" lon="13.7623024"><ele>664.0</ele><time>2026-05-02T10:39:42.036Z</time></trkpt><trkpt lat="42.2510005" lon="13.7622698"><ele>667.0</ele><time>2026-05-02T10:39:43.036Z</time></trkpt><trkpt lat="42.2509229" lon="13.7622445"><ele>670.0</ele><time>2026-05-02T10:39:44.036Z</time></trkpt><trkpt lat="42.2508453" lon="13.7622189"><ele>673.0</ele><time>2026-05-02T10:39:45.037Z</time></trkpt><trkpt lat="42.2507753" lon="13.7622122"><ele>673.0</ele><time>2026-05-02T10:39:46.036Z</time></trkpt><trkpt lat="42.250711" lon="13.7622388"><ele>673.0</ele><time>2026-05-02T10:39:47.036Z</time></trkpt><trkpt lat="42.2506483" lon="13.7623711"><ele>673.0</ele><time>2026-05-02T10:39:49.036Z</time></trkpt><trkpt lat="42.2506206" lon="13.7624502"><ele>673.0</ele><time>2026-05-02T10:39:50.036Z</time></trkpt><trkpt lat="42.250575" lon="13.7625096"><ele>673.0</ele><time>2026-05-02T10:39:51.036Z</time></trkpt><trkpt lat="42.2505213" lon="13.7625684"><ele>673.0</ele><time>2026-05-02T10:39:52.036Z</time></trkpt><trkpt lat="42.2504563" lon="13.7626223"><ele>672.2</ele><time>2026-05-02T10:39:53.037Z</time></trkpt><trkpt lat="42.2503784" lon="13.7626615"><ele>671.4</ele><time>2026-05-02T10:39:54.036Z</time></trkpt><trkpt lat="42.250287" lon="13.7626937"><ele>670.6</ele><time>2026-05-02T10:39:55.036Z</time></trkpt><trkpt lat="42.2501884" lon="13.7627123"><ele>669.8000000000001</ele><time>2026-05-02T10:39:56.036Z</time></trkpt><trkpt lat="42.2500881" lon="13.7627313"><ele>669.0</ele><time>2026-05-02T10:39:57.036Z</time></trkpt><trkpt lat="42.2499873" lon="13.7627594"><ele>669.0</ele><time>2026-05-02T10:39:58.036Z</time></trkpt><trkpt lat="42.2498913" lon="13.7627886"><ele>669.0</ele><time>2026-05-02T10:39:59.036Z</time></trkpt><trkpt lat="42.2498069" lon="13.7628279"><ele>669.0</ele><time>2026-05-02T10:40:00.036Z</time></trkpt><trkpt lat="42.2497275" lon="13.7628776"><ele>669.0</ele><time>2026-05-02T10:40:01.036Z</time></trkpt><trkpt lat="42.2496487" lon="13.762943"><ele>669.0</ele><time>2026-05-02T10:40:02.036Z</time></trkpt><trkpt lat="42.2495722" lon="13.7630224"><ele>671.5</ele><time>2026-05-02T10:40:03.036Z</time></trkpt><trkpt lat="42.2495" lon="13.7631017"><ele>674.0</ele><time>2026-05-02T10:40:04.037Z</time></trkpt><trkpt lat="42.2494287" lon="13.7631754"><ele>676.5</ele><time>2026-05-02T10:40:05.036Z</time></trkpt><trkpt lat="42.2493578" lon="13.7632384"><ele>679.0</ele><time>2026-05-02T10:40:06.037Z</time></trkpt><trkpt lat="42.2492837" lon="13.7632998"><ele>681.5</ele><time>2026-05-02T10:40:07.036Z</time></trkpt><trkpt lat="42.2492073" lon="13.7633453"><ele>684.0</ele><time>2026-05-02T10:40:08.037Z</time></trkpt><trkpt lat="42.2491226" lon="13.7633878"><ele>684.0</ele><time>2026-05-02T10:40:09.036Z</time></trkpt><trkpt lat="42.2490368" lon="13.7634355"><ele>684.0</ele><time>2026-05-02T10:40:10.036Z</time></trkpt><trkpt lat="42.2489507" lon="13.7634909"><ele>684.0</ele><time>2026-05-02T10:40:11.036Z</time></trkpt><trkpt lat="42.2488664" lon="13.7635461"><ele>684.0</ele><time>2026-05-02T10:40:12.037Z</time></trkpt><trkpt lat="42.2487857" lon="13.7636082"><ele>684.0</ele><time>2026-05-02T10:40:13.036Z</time></trkpt><trkpt lat="42.2487131" lon="13.7636744"><ele>684.6666666666666</ele><time>2026-05-02T10:40:14.036Z</time></trkpt><trkpt lat="42.2486466" lon="13.7637409"><ele>685.3333333333334</ele><time>2026-05-02T10:40:15.037Z</time></trkpt><trkpt lat="42.2485828" lon="13.7638042"><ele>686.0</ele><time>2026-05-02T10:40:16.036Z</time></trkpt><trkpt lat="42.2485177" lon="13.7638776"><ele>686.6666666666667</ele><time>2026-05-02T10:40:17.037Z</time></trkpt><trkpt lat="42.2484469" lon="13.7639601"><ele>687.3333333333334</ele><time>2026-05-02T10:40:18.036Z</time></trkpt><trkpt lat="42.2483718" lon="13.7640467"><ele>688.0</ele><time>2026-05-02T10:40:19.036Z</time></trkpt><trkpt lat="42.2482958" lon="13.7641364"><ele>688.0</ele><time>2026-05-02T10:40:20.036Z</time></trkpt><trkpt lat="42.2482184" lon="13.7642203"><ele>688.0</ele><time>2026-05-02T10:40:21.036Z</time></trkpt><trkpt lat="42.2481434" lon="13.7643009"><ele>688.0</ele><time>2026-05-02T10:40:22.036Z</time></trkpt><trkpt lat="42.2480732" lon="13.7643766"><ele>688.0</ele><time>2026-05-02T10:40:23.036Z</time></trkpt><trkpt lat="42.2480054" lon="13.7644543"><ele>688.0</ele><time>2026-05-02T10:40:24.036Z</time></trkpt><trkpt lat="42.247939" lon="13.764532"><ele>689.3333333333334</ele><time>2026-05-02T10:40:25.036Z</time></trkpt><trkpt lat="42.2478722" lon="13.7646081"><ele>690.6666666666667</ele><time>2026-05-02T10:40:26.036Z</time></trkpt><trkpt lat="42.2478147" lon="13.7646965"><ele>692.0</ele><time>2026-05-02T10:40:27.036Z</time></trkpt><trkpt lat="42.2477646" lon="13.7647871"><ele>693.3333333333334</ele><time>2026-05-02T10:40:28.036Z</time></trkpt><trkpt lat="42.2477219" lon="13.7648765"><ele>694.6666666666666</ele><time>2026-05-02T10:40:29.036Z</time></trkpt><trkpt lat="42.2476871" lon="13.7649612"><ele>696.0</ele><time>2026-05-02T10:40:30.037Z</time></trkpt><trkpt lat="42.2476016" lon="13.7650784"><ele>696.0</ele><time>2026-05-02T10:40:32.036Z</time></trkpt><trkpt lat="42.2475057" lon="13.7651759"><ele>696.0</ele><time>2026-05-02T10:40:34.037Z</time></trkpt><trkpt lat="42.2474506" lon="13.7652175"><ele>696.0</ele><time>2026-05-02T10:40:35.036Z</time></trkpt><trkpt lat="42.2473915" lon="13.7652683"><ele>696.0</ele><time>2026-05-02T10:40:36.037Z</time></trkpt><trkpt lat="42.2473288" lon="13.7653142"><ele>696.0</ele><time>2026-05-02T10:40:37.036Z</time></trkpt><trkpt lat="42.2472665" lon="13.7653584"><ele>696.0</ele><time>2026-05-02T10:40:38.036Z</time></trkpt><trkpt lat="42.2472063" lon="13.7653988"><ele>698.6666666666666</ele><time>2026-05-02T10:40:39.036Z</time></trkpt><trkpt lat="42.247116" lon="13.7654391"><ele>701.3333333333334</ele><time>2026-05-02T10:40:41.036Z</time></trkpt><trkpt lat="42.2470433" lon="13.7654795"><ele>704.0</ele><time>2026-05-02T10:40:44.036Z</time></trkpt><trkpt lat="42.2469696" lon="13.7655117"><ele>706.6666666666667</ele><time>2026-05-02T10:40:46.036Z</time></trkpt><trkpt lat="42.2468977" lon="13.7655584"><ele>709.3333333333334</ele><time>2026-05-02T10:40:48.036Z</time></trkpt><trkpt lat="42.2468101" lon="13.7656219"><ele>712.0</ele><time>2026-05-02T10:40:50.036Z</time></trkpt><trkpt lat="42.24673" lon="13.7656814"><ele>712.0</ele><time>2026-05-02T10:40:52.036Z</time></trkpt><trkpt lat="42.246652" lon="13.7657548"><ele>712.0</ele><time>2026-05-02T10:40:54.036Z</time></trkpt><trkpt lat="42.2465568" lon="13.7658074"><ele>712.0</ele><time>2026-05-02T10:40:56.037Z</time></trkpt><trkpt lat="42.2464711" lon="13.7659135"><ele>712.0</ele><time>2026-05-02T10:40:58.036Z</time></trkpt><trkpt lat="42.2464255" lon="13.7659748"><ele>712.0</ele><time>2026-05-02T10:40:59.036Z</time></trkpt><trkpt lat="42.2463487" lon="13.7660943"><ele>713.3333333333334</ele><time>2026-05-02T10:41:01.036Z</time></trkpt><trkpt lat="42.2462712" lon="13.7662071"><ele>714.6666666666667</ele><time>2026-05-02T10:41:03.036Z</time></trkpt><trkpt lat="42.2462174" lon="13.7662737"><ele>716.0</ele><time>2026-05-02T10:41:05.036Z</time></trkpt><trkpt lat="42.2461555" lon="13.7663347"><ele>717.3333333333334</ele><time>2026-05-02T10:41:08.036Z</time></trkpt><trkpt lat="42.2461226" lon="13.7664101"><ele>718.6666666666666</ele><time>2026-05-02T10:41:35.036Z</time></trkpt><trkpt lat="42.2460573" lon="13.7664748"><ele>720.0</ele><time>2026-05-02T10:41:37.036Z</time></trkpt><trkpt lat="42.2459699" lon="13.7665213"><ele>720.0</ele><time>2026-05-02T10:41:42.036Z</time></trkpt><trkpt lat="42.2458976" lon="13.7665293"><ele>720.0</ele><time>2026-05-02T10:41:44.036Z</time></trkpt><trkpt lat="42.2457922" lon="13.7665589"><ele>720.0</ele><time>2026-05-02T10:41:46.037Z</time></trkpt><trkpt lat="42.2457303" lon="13.7665818"><ele>720.0</ele><time>2026-05-02T10:41:47.036Z</time></trkpt><trkpt lat="42.2456673" lon="13.7666096"><ele>720.0</ele><time>2026-05-02T10:41:48.036Z</time></trkpt><trkpt lat="42.245597" lon="13.7666383"><ele>720.0</ele><time>2026-05-02T10:41:49.036Z</time></trkpt><trkpt lat="42.2455232" lon="13.7666781"><ele>719.8333333333334</ele><time>2026-05-02T10:41:50.036Z</time></trkpt><trkpt lat="42.245445" lon="13.7667236"><ele>719.6666666666666</ele><time>2026-05-02T10:41:51.037Z</time></trkpt><trkpt lat="42.245373" lon="13.766773"><ele>719.5</ele><time>2026-05-02T10:41:52.037Z</time></trkpt><trkpt lat="42.245314" lon="13.7668123"><ele>719.3333333333333</ele><time>2026-05-02T10:41:53.036Z</time></trkpt><trkpt lat="42.245203" lon="13.7668425"><ele>719.1666666666666</ele><time>2026-05-02T10:41:55.036Z</time></trkpt><trkpt lat="42.2451393" lon="13.7668647"><ele>719.0</ele><time>2026-05-02T10:41:56.037Z</time></trkpt><trkpt lat="42.2450702" lon="13.7668816"><ele>719.0</ele><time>2026-05-02T10:41:57.037Z</time></trkpt><trkpt lat="42.2450038" lon="13.7669024"><ele>719.0</ele><time>2026-05-02T10:41:58.036Z</time></trkpt><trkpt lat="42.244939" lon="13.766922"><ele>719.0</ele><time>2026-05-02T10:41:59.036Z</time></trkpt><trkpt lat="42.2448242" lon="13.7669605"><ele>719.0</ele><time>2026-05-02T10:42:01.036Z</time></trkpt><trkpt lat="42.2447319" lon="13.7669911"><ele>719.0</ele><time>2026-05-02T10:42:03.036Z</time></trkpt><trkpt lat="42.2446309" lon="13.7670161"><ele>721.0</ele><time>2026-05-02T10:42:05.036Z</time></trkpt><trkpt lat="42.2445245" lon="13.7670466"><ele>723.0</ele><time>2026-05-02T10:42:07.036Z</time></trkpt><trkpt lat="42.2444422" lon="13.7670611"><ele>725.0</ele><time>2026-05-02T10:42:09.036Z</time></trkpt><trkpt lat="42.2443642" lon="13.7670674"><ele>727.0</ele><time>2026-05-02T10:42:11.036Z</time></trkpt><trkpt lat="42.2442512" lon="13.7670678"><ele>729.0</ele><time>2026-05-02T10:42:13.036Z</time></trkpt><trkpt lat="42.2441309" lon="13.7670992"><ele>729.0</ele><time>2026-05-02T10:42:15.036Z</time></trkpt><trkpt lat="42.244013" lon="13.7671328"><ele>729.0</ele><time>2026-05-02T10:42:17.036Z</time></trkpt><trkpt lat="42.2439069" lon="13.7671589"><ele>729.0</ele><time>2026-05-02T10:42:19.036Z</time></trkpt><trkpt lat="42.2438085" lon="13.7672012"><ele>729.0</ele><time>2026-05-02T10:42:21.036Z</time></trkpt><trkpt lat="42.2437027" lon="13.7672449"><ele>729.0</ele><time>2026-05-02T10:42:23.036Z</time></trkpt><trkpt lat="42.2435903" lon="13.7672677"><ele>732.0</ele><time>2026-05-02T10:42:25.036Z</time></trkpt><trkpt lat="42.2434677" lon="13.7672685"><ele>735.0</ele><time>2026-05-02T10:42:27.037Z</time></trkpt><trkpt lat="42.2434006" lon="13.7672754"><ele>738.0</ele><time>2026-05-02T10:42:28.036Z</time></trkpt><trkpt lat="42.2432766" lon="13.7673133"><ele>741.0</ele><time>2026-05-02T10:42:30.037Z</time></trkpt><trkpt lat="42.2432114" lon="13.7673334"><ele>744.0</ele><time>2026-05-02T10:42:31.036Z</time></trkpt><trkpt lat="42.243143" lon="13.7673449"><ele>746.1666666666666</ele><time>2026-05-02T10:42:32.036Z</time></trkpt><trkpt lat="42.2430757" lon="13.7673521"><ele>748.3333333333334</ele><time>2026-05-02T10:42:33.036Z</time></trkpt><trkpt lat="42.2430105" lon="13.767355"><ele>750.5</ele><time>2026-05-02T10:42:34.036Z</time></trkpt><trkpt lat="42.2428904" lon="13.7673704"><ele>752.6666666666667</ele><time>2026-05-02T10:42:36.037Z</time></trkpt><trkpt lat="42.2428263" lon="13.7673788"><ele>754.8333333333334</ele><time>2026-05-02T10:42:37.036Z</time></trkpt><trkpt lat="42.2427459" lon="13.7673846"><ele>757.0</ele><time>2026-05-02T10:42:38.037Z</time></trkpt><trkpt lat="42.2426581" lon="13.767399"><ele>757.0</ele><time>2026-05-02T10:42:39.036Z</time></trkpt><trkpt lat="42.2425756" lon="13.7674206"><ele>757.0</ele><time>2026-05-02T10:42:40.036Z</time></trkpt><trkpt lat="42.2424895" lon="13.7674435"><ele>757.0</ele><time>2026-05-02T10:42:41.037Z</time></trkpt><trkpt lat="42.2424094" lon="13.767472"><ele>757.0</ele><time>2026-05-02T10:42:42.036Z</time></trkpt><trkpt lat="42.2423307" lon="13.7675029"><ele>757.0</ele><time>2026-05-02T10:42:43.036Z</time></trkpt><trkpt lat="42.2422498" lon="13.7675305"><ele>757.0</ele><time>2026-05-02T10:42:44.037Z</time></trkpt><trkpt lat="42.2421658" lon="13.7675506"><ele>757.0</ele><time>2026-05-02T10:42:45.037Z</time></trkpt><trkpt lat="42.2420908" lon="13.7675832"><ele>757.0</ele><time>2026-05-02T10:42:46.036Z</time></trkpt><trkpt lat="42.2420195" lon="13.7676221"><ele>757.0</ele><time>2026-05-02T10:42:47.036Z</time></trkpt><trkpt lat="42.241951" lon="13.7676646"><ele>757.0</ele><time>2026-05-02T10:42:48.036Z</time></trkpt><trkpt lat="42.2418825" lon="13.7677068"><ele>757.0</ele><time>2026-05-02T10:42:49.036Z</time></trkpt><trkpt lat="42.241819" lon="13.7677563"><ele>757.0</ele><time>2026-05-02T10:42:50.036Z</time></trkpt><trkpt lat="42.2417552" lon="13.7678097"><ele>757.0</ele><time>2026-05-02T10:42:51.036Z</time></trkpt><trkpt lat="42.2416851" lon="13.7678674"><ele>757.0</ele><time>2026-05-02T10:42:52.036Z</time></trkpt><trkpt lat="42.2416198" lon="13.7679429"><ele>757.0</ele><time>2026-05-02T10:42:53.036Z</time></trkpt><trkpt lat="42.2415533" lon="13.7680142"><ele>757.0</ele><time>2026-05-02T10:42:54.036Z</time></trkpt><trkpt lat="42.2414984" lon="13.7680957"><ele>757.0</ele><time>2026-05-02T10:42:55.036Z</time></trkpt><trkpt lat="42.2414469" lon="13.7681846"><ele>757.0</ele><time>2026-05-02T10:42:56.036Z</time></trkpt><trkpt lat="42.2413909" lon="13.7682721"><ele>760.0</ele><time>2026-05-02T10:42:57.036Z</time></trkpt><trkpt lat="42.2413404" lon="13.768354"><ele>763.0</ele><time>2026-05-02T10:42:58.036Z</time></trkpt><trkpt lat="42.2412986" lon="13.7684355"><ele>766.0</ele><time>2026-05-02T10:42:59.037Z</time></trkpt><trkpt lat="42.241256" lon="13.7685102"><ele>769.0</ele><time>2026-05-02T10:43:00.036Z</time></trkpt><trkpt lat="42.2412051" lon="13.76858"><ele>771.9999999999999</ele><time>2026-05-02T10:43:01.036Z</time></trkpt><trkpt lat="42.2411525" lon="13.7686544"><ele>775.0</ele><time>2026-05-02T10:43:02.036Z</time></trkpt><trkpt lat="42.2410976" lon="13.768732"><ele>774.9999999999999</ele><time>2026-05-02T10:43:03.036Z</time></trkpt><trkpt lat="42.2410449" lon="13.768809"><ele>775.0</ele><time>2026-05-02T10:43:04.037Z</time></trkpt><trkpt lat="42.2409931" lon="13.7688844"><ele>775.0</ele><time>2026-05-02T10:43:05.036Z</time></trkpt><trkpt lat="42.2409507" lon="13.7689617"><ele>775.0</ele><time>2026-05-02T10:43:06.036Z</time></trkpt><trkpt lat="42.2409122" lon="13.7690467"><ele>774.9999999999999</ele><time>2026-05-02T10:43:07.036Z</time></trkpt><trkpt lat="42.2408809" lon="13.7691331"><ele>775.0</ele><time>2026-05-02T10:43:08.036Z</time></trkpt><trkpt lat="42.2408209" lon="13.7692679"><ele>774.9999999999999</ele><time>2026-05-02T10:43:10.037Z</time></trkpt><trkpt lat="42.2407523" lon="13.7693332"><ele>775.0</ele><time>2026-05-02T10:43:12.036Z</time></trkpt><trkpt lat="42.2406529" lon="13.7693674"><ele>775.0</ele><time>2026-05-02T10:43:14.036Z</time></trkpt><trkpt lat="42.2405361" lon="13.7693535"><ele>775.0</ele><time>2026-05-02T10:43:16.036Z</time></trkpt><trkpt lat="42.2404751" lon="13.7693234"><ele>774.9999999999999</ele><time>2026-05-02T10:43:17.037Z</time></trkpt><trkpt lat="42.2404148" lon="13.769289"><ele>775.0</ele><time>2026-05-02T10:43:18.037Z</time></trkpt><trkpt lat="42.2403551" lon="13.7692563"><ele>777.3333333333333</ele><time>2026-05-02T10:43:19.036Z</time></trkpt><trkpt lat="42.2402904" lon="13.7692379"><ele>779.6666666666666</ele><time>2026-05-02T10:43:20.036Z</time></trkpt><trkpt lat="42.2402267" lon="13.7692274"><ele>782.0</ele><time>2026-05-02T10:43:21.036Z</time></trkpt><trkpt lat="42.2401614" lon="13.7692227"><ele>784.3333333333333</ele><time>2026-05-02T10:43:22.036Z</time></trkpt><trkpt lat="42.2400431" lon="13.769214"><ele>786.6666666666666</ele><time>2026-05-02T10:43:24.036Z</time></trkpt><trkpt lat="42.2399749" lon="13.7692097"><ele>789.0</ele><time>2026-05-02T10:43:25.036Z</time></trkpt><trkpt lat="42.2399002" lon="13.7692069"><ele>788.9999999999999</ele><time>2026-05-02T10:43:26.037Z</time></trkpt><trkpt lat="42.2398243" lon="13.7691963"><ele>789.0</ele><time>2026-05-02T10:43:27.036Z</time></trkpt><trkpt lat="42.239747" lon="13.7691863"><ele>789.0</ele><time>2026-05-02T10:43:28.036Z</time></trkpt><trkpt lat="42.2396719" lon="13.7691727"><ele>789.0</ele><time>2026-05-02T10:43:29.036Z</time></trkpt><trkpt lat="42.2396051" lon="13.7691467"><ele>789.0</ele><time>2026-05-02T10:43:30.036Z</time></trkpt><trkpt lat="42.2395373" lon="13.7691211"><ele>788.9999999999999</ele><time>2026-05-02T10:43:31.036Z</time></trkpt><trkpt lat="42.2394727" lon="13.7691027"><ele>789.0</ele><time>2026-05-02T10:43:32.036Z</time></trkpt><trkpt lat="42.239402" lon="13.7691023"><ele>789.1666666666666</ele><time>2026-05-02T10:43:33.036Z</time></trkpt><trkpt lat="42.2393336" lon="13.7691215"><ele>789.3333333333333</ele><time>2026-05-02T10:43:34.036Z</time></trkpt><trkpt lat="42.2392523" lon="13.7692152"><ele>789.5</ele><time>2026-05-02T10:43:36.036Z</time></trkpt><trkpt lat="42.2391643" lon="13.7692662"><ele>789.6666666666666</ele><time>2026-05-02T10:43:39.036Z</time></trkpt><trkpt lat="42.2390845" lon="13.7693337"><ele>789.8333333333333</ele><time>2026-05-02T10:43:41.036Z</time></trkpt><trkpt lat="42.2390129" lon="13.7693748"><ele>790.0</ele><time>2026-05-02T10:43:43.036Z</time></trkpt><trkpt lat="42.2389223" lon="13.7693941"><ele>792.8</ele><time>2026-05-02T10:43:45.037Z</time></trkpt><trkpt lat="42.2388418" lon="13.7694082"><ele>795.6</ele><time>2026-05-02T10:43:47.036Z</time></trkpt><trkpt lat="42.2387589" lon="13.7694086"><ele>798.4000000000001</ele><time>2026-05-02T10:43:49.036Z</time></trkpt><trkpt lat="42.2386362" lon="13.7694234"><ele>801.2</ele><time>2026-05-02T10:43:51.036Z</time></trkpt><trkpt lat="42.2385354" lon="13.769436"><ele>804.0</ele><time>2026-05-02T10:43:53.036Z</time></trkpt><trkpt lat="42.2384216" lon="13.7694633"><ele>804.0</ele><time>2026-05-02T10:43:55.036Z</time></trkpt><trkpt lat="42.2382945" lon="13.7695164"><ele>804.0</ele><time>2026-05-02T10:43:57.036Z</time></trkpt><trkpt lat="42.2382273" lon="13.7695527"><ele>804.0</ele><time>2026-05-02T10:43:58.036Z</time></trkpt><trkpt lat="42.2381604" lon="13.7695794"><ele>804.0</ele><time>2026-05-02T10:43:59.036Z</time></trkpt><trkpt lat="42.2380928" lon="13.7696149"><ele>804.0</ele><time>2026-05-02T10:44:00.036Z</time></trkpt><trkpt lat="42.238022" lon="13.7696522"><ele>804.0</ele><time>2026-05-02T10:44:01.036Z</time></trkpt><trkpt lat="42.2379516" lon="13.7697013"><ele>806.8333333333334</ele><time>2026-05-02T10:44:02.036Z</time></trkpt><trkpt lat="42.237877" lon="13.7697469"><ele>809.6666666666667</ele><time>2026-05-02T10:44:03.036Z</time></trkpt><trkpt lat="42.2378052" lon="13.7697937"><ele>812.5</ele><time>2026-05-02T10:44:04.036Z</time></trkpt><trkpt lat="42.2377297" lon="13.7698317"><ele>815.3333333333334</ele><time>2026-05-02T10:44:05.036Z</time></trkpt><trkpt lat="42.2376509" lon="13.7698594"><ele>818.1666666666667</ele><time>2026-05-02T10:44:06.036Z</time></trkpt><trkpt lat="42.2375732" lon="13.7698902"><ele>821.0</ele><time>2026-05-02T10:44:07.036Z</time></trkpt><trkpt lat="42.2374997" lon="13.7699148"><ele>821.0000000000001</ele><time>2026-05-02T10:44:08.036Z</time></trkpt><trkpt lat="42.2374219" lon="13.7699267"><ele>821.0</ele><time>2026-05-02T10:44:09.036Z</time></trkpt><trkpt lat="42.2373539" lon="13.7699398"><ele>821.0</ele><time>2026-05-02T10:44:10.036Z</time></trkpt><trkpt lat="42.2372312" lon="13.7699692"><ele>821.0</ele><time>2026-05-02T10:44:12.036Z</time></trkpt><trkpt lat="42.2371632" lon="13.7699943"><ele>821.0000000000001</ele><time>2026-05-02T10:44:13.036Z</time></trkpt><trkpt lat="42.2370937" lon="13.7700341"><ele>821.0</ele><time>2026-05-02T10:44:14.037Z</time></trkpt><trkpt lat="42.2370276" lon="13.7700903"><ele>822.4</ele><time>2026-05-02T10:44:15.037Z</time></trkpt><trkpt lat="42.2369733" lon="13.7701505"><ele>823.8</ele><time>2026-05-02T10:44:16.036Z</time></trkpt><trkpt lat="42.23691" lon="13.7702463"><ele>825.1999999999999</ele><time>2026-05-02T10:44:18.037Z</time></trkpt><trkpt lat="42.2368458" lon="13.7703361"><ele>826.5999999999999</ele><time>2026-05-02T10:44:20.036Z</time></trkpt><trkpt lat="42.2367528" lon="13.7704057"><ele>828.0</ele><time>2026-05-02T10:44:22.037Z</time></trkpt><trkpt lat="42.2366408" lon="13.7704686"><ele>828.0000000000001</ele><time>2026-05-02T10:44:24.036Z</time></trkpt><trkpt lat="42.2365765" lon="13.7704975"><ele>828.0</ele><time>2026-05-02T10:44:25.036Z</time></trkpt><trkpt lat="42.2365107" lon="13.7705191"><ele>828.0</ele><time>2026-05-02T10:44:26.036Z</time></trkpt><trkpt lat="42.2364488" lon="13.770539"><ele>828.0</ele><time>2026-05-02T10:44:27.036Z</time></trkpt><trkpt lat="42.2363755" lon="13.7705533"><ele>828.0</ele><time>2026-05-02T10:44:28.036Z</time></trkpt><trkpt lat="42.236288" lon="13.7705724"><ele>828.0000000000001</ele><time>2026-05-02T10:44:29.036Z</time></trkpt><trkpt lat="42.2362044" lon="13.7705914"><ele>828.0</ele><time>2026-05-02T10:44:30.036Z</time></trkpt><trkpt lat="42.2361345" lon="13.7706114"><ele>829.4</ele><time>2026-05-02T10:44:31.036Z</time></trkpt><trkpt lat="42.2360707" lon="13.7706264"><ele>830.8</ele><time>2026-05-02T10:44:32.036Z</time></trkpt><trkpt lat="42.2359703" lon="13.7706649"><ele>832.2</ele><time>2026-05-02T10:44:34.036Z</time></trkpt><trkpt lat="42.2358839" lon="13.7706929"><ele>833.6</ele><time>2026-05-02T10:44:36.036Z</time></trkpt><trkpt lat="42.2358381" lon="13.7708726"><ele>835.0</ele><time>2026-05-02T10:46:26.036Z</time></trkpt><trkpt lat="42.2358399" lon="13.7709895"><ele>836.25</ele><time>2026-05-02T10:46:30.036Z</time></trkpt><trkpt lat="42.2358612" lon="13.7711208"><ele>837.5</ele><time>2026-05-02T10:46:32.036Z</time></trkpt><trkpt lat="42.2358811" lon="13.77127"><ele>838.75</ele><time>2026-05-02T10:46:34.036Z</time></trkpt><trkpt lat="42.2358966" lon="13.7714354"><ele>840.0</ele><time>2026-05-02T10:46:36.036Z</time></trkpt><trkpt lat="42.2359018" lon="13.7715988"><ele>840.0</ele><time>2026-05-02T10:46:38.036Z</time></trkpt><trkpt lat="42.235899" lon="13.7717383"><ele>840.0</ele><time>2026-05-02T10:46:40.036Z</time></trkpt><trkpt lat="42.2358707" lon="13.7718756"><ele>840.0</ele><time>2026-05-02T10:46:42.036Z</time></trkpt><trkpt lat="42.2358205" lon="13.7720298"><ele>840.0</ele><time>2026-05-02T10:46:44.037Z</time></trkpt><trkpt lat="42.2357544" lon="13.7721619"><ele>839.0</ele><time>2026-05-02T10:46:46.036Z</time></trkpt><trkpt lat="42.2356638" lon="13.7722835"><ele>838.0</ele><time>2026-05-02T10:46:48.036Z</time></trkpt><trkpt lat="42.2356163" lon="13.7723498"><ele>837.0</ele><time>2026-05-02T10:46:49.036Z</time></trkpt><trkpt lat="42.2355686" lon="13.7724277"><ele>836.0</ele><time>2026-05-02T10:46:50.036Z</time></trkpt><trkpt lat="42.2355369" lon="13.7725062"><ele>835.0</ele><time>2026-05-02T10:46:51.037Z</time></trkpt><trkpt lat="42.2355015" lon="13.7725849"><ele>834.0</ele><time>2026-05-02T10:46:52.036Z</time></trkpt><trkpt lat="42.2354668" lon="13.7726602"><ele>835.2</ele><time>2026-05-02T10:46:53.036Z</time></trkpt><trkpt lat="42.2353781" lon="13.7727885"><ele>836.4000000000001</ele><time>2026-05-02T10:46:55.036Z</time></trkpt><trkpt lat="42.2353157" lon="13.7728509"><ele>837.6</ele><time>2026-05-02T10:46:56.036Z</time></trkpt><trkpt lat="42.2352527" lon="13.7729163"><ele>838.8</ele><time>2026-05-02T10:46:57.037Z</time></trkpt><trkpt lat="42.2351869" lon="13.7729926"><ele>840.0</ele><time>2026-05-02T10:46:58.037Z</time></trkpt><trkpt lat="42.2351331" lon="13.7730745"><ele>840.0</ele><time>2026-05-02T10:46:59.036Z</time></trkpt><trkpt lat="42.2350845" lon="13.7731601"><ele>840.0</ele><time>2026-05-02T10:47:00.036Z</time></trkpt><trkpt lat="42.2350495" lon="13.7732514"><ele>840.0</ele><time>2026-05-02T10:47:01.036Z</time></trkpt><trkpt lat="42.2350264" lon="13.7733408"><ele>840.0</ele><time>2026-05-02T10:47:02.036Z</time></trkpt><trkpt lat="42.2350181" lon="13.7734259"><ele>840.0</ele><time>2026-05-02T10:47:03.037Z</time></trkpt><trkpt lat="42.2350269" lon="13.7735165"><ele>840.0</ele><time>2026-05-02T10:47:04.037Z</time></trkpt><trkpt lat="42.2350406" lon="13.7736119"><ele>840.0</ele><time>2026-05-02T10:47:05.036Z</time></trkpt><trkpt lat="42.2350619" lon="13.7737133"><ele>840.5714285714286</ele><time>2026-05-02T10:47:06.037Z</time></trkpt><trkpt lat="42.2350799" lon="13.7738138"><ele>841.1428571428571</ele><time>2026-05-02T10:47:07.036Z</time></trkpt><trkpt lat="42.2351144" lon="13.7738979"><ele>841.7142857142858</ele><time>2026-05-02T10:47:08.036Z</time></trkpt><trkpt lat="42.2351555" lon="13.7739651"><ele>842.2857142857142</ele><time>2026-05-02T10:47:09.037Z</time></trkpt><trkpt lat="42.2352045" lon="13.774027"><ele>842.8571428571429</ele><time>2026-05-02T10:47:10.037Z</time></trkpt><trkpt lat="42.2352616" lon="13.7740937"><ele>843.4285714285714</ele><time>2026-05-02T10:47:11.036Z</time></trkpt><trkpt lat="42.2353138" lon="13.7741653"><ele>844.0</ele><time>2026-05-02T10:47:12.037Z</time></trkpt><trkpt lat="42.2353657" lon="13.774236"><ele>844.0</ele><time>2026-05-02T10:47:13.037Z</time></trkpt><trkpt lat="42.2354063" lon="13.7743109"><ele>844.0</ele><time>2026-05-02T10:47:14.036Z</time></trkpt><trkpt lat="42.235456" lon="13.7744721"><ele>844.0</ele><time>2026-05-02T10:47:16.037Z</time></trkpt><trkpt lat="42.2354776" lon="13.7745805"><ele>844.0</ele><time>2026-05-02T10:47:17.036Z</time></trkpt><trkpt lat="42.2355002" lon="13.7746987"><ele>844.0</ele><time>2026-05-02T10:47:18.036Z</time></trkpt><trkpt lat="42.2355224" lon="13.774816"><ele>843.6666666666666</ele><time>2026-05-02T10:47:19.036Z</time></trkpt><trkpt lat="42.2355334" lon="13.7749277"><ele>843.3333333333333</ele><time>2026-05-02T10:47:20.037Z</time></trkpt><trkpt lat="42.2355342" lon="13.7750403"><ele>843.0</ele><time>2026-05-02T10:47:21.036Z</time></trkpt><trkpt lat="42.2355244" lon="13.775161"><ele>842.6666666666667</ele><time>2026-05-02T10:47:22.036Z</time></trkpt><trkpt lat="42.2355094" lon="13.775285"><ele>842.3333333333334</ele><time>2026-05-02T10:47:23.036Z</time></trkpt><trkpt lat="42.235492" lon="13.7753934"><ele>842.0</ele><time>2026-05-02T10:47:24.036Z</time></trkpt><trkpt lat="42.2354713" lon="13.7754983"><ele>842.0000000000001</ele><time>2026-05-02T10:47:25.036Z</time></trkpt><trkpt lat="42.2354396" lon="13.7755954"><ele>842.0</ele><time>2026-05-02T10:47:26.036Z</time></trkpt><trkpt lat="42.2354027" lon="13.7756936"><ele>842.0</ele><time>2026-05-02T10:47:27.036Z</time></trkpt><trkpt lat="42.2353574" lon="13.7757812"><ele>842.0</ele><time>2026-05-02T10:47:28.037Z</time></trkpt><trkpt lat="42.235307" lon="13.7758582"><ele>842.0000000000001</ele><time>2026-05-02T10:47:29.036Z</time></trkpt><trkpt lat="42.2352466" lon="13.7759194"><ele>842.0</ele><time>2026-05-02T10:47:30.036Z</time></trkpt><trkpt lat="42.2351845" lon="13.7759759"><ele>842.0000000000001</ele><time>2026-05-02T10:47:31.036Z</time></trkpt><trkpt lat="42.2351152" lon="13.7760192"><ele>842.0</ele><time>2026-05-02T10:47:32.036Z</time></trkpt><trkpt lat="42.2350401" lon="13.7760605"><ele>842.0</ele><time>2026-05-02T10:47:33.036Z</time></trkpt><trkpt lat="42.234969" lon="13.7760958"><ele>842.0</ele><time>2026-05-02T10:47:34.036Z</time></trkpt><trkpt lat="42.2348979" lon="13.7761145"><ele>842.0000000000001</ele><time>2026-05-02T10:47:35.036Z</time></trkpt><trkpt lat="42.2348159" lon="13.7761373"><ele>842.0</ele><time>2026-05-02T10:47:36.036Z</time></trkpt><trkpt lat="42.2347282" lon="13.7761653"><ele>843.6666666666667</ele><time>2026-05-02T10:47:37.036Z</time></trkpt><trkpt lat="42.23464" lon="13.7761883"><ele>845.3333333333334</ele><time>2026-05-02T10:47:38.036Z</time></trkpt><trkpt lat="42.2345563" lon="13.7762064"><ele>847.0</ele><time>2026-05-02T10:47:39.036Z</time></trkpt><trkpt lat="42.2344882" lon="13.7762403"><ele>848.6666666666667</ele><time>2026-05-02T10:47:40.037Z</time></trkpt><trkpt lat="42.2344356" lon="13.7762917"><ele>850.3333333333334</ele><time>2026-05-02T10:47:41.036Z</time></trkpt><trkpt lat="42.2343839" lon="13.7764285"><ele>852.0</ele><time>2026-05-02T10:47:43.036Z</time></trkpt><trkpt lat="42.2343998" lon="13.7765784"><ele>851.9999999999999</ele><time>2026-05-02T10:47:45.036Z</time></trkpt><trkpt lat="42.2344306" lon="13.7766572"><ele>852.0</ele><time>2026-05-02T10:47:46.036Z</time></trkpt><trkpt lat="42.2344736" lon="13.7767348"><ele>852.0</ele><time>2026-05-02T10:47:47.037Z</time></trkpt><trkpt lat="42.2345193" lon="13.7768113"><ele>852.0</ele><time>2026-05-02T10:47:48.036Z</time></trkpt><trkpt lat="42.2345628" lon="13.7768908"><ele>852.0</ele><time>2026-05-02T10:47:49.037Z</time></trkpt><trkpt lat="42.2346068" lon="13.7769847"><ele>851.9999999999999</ele><time>2026-05-02T10:47:50.036Z</time></trkpt><trkpt lat="42.234653" lon="13.7770757"><ele>852.0</ele><time>2026-05-02T10:47:51.036Z</time></trkpt><trkpt lat="42.2347044" lon="13.7771555"><ele>853.0</ele><time>2026-05-02T10:47:52.036Z</time></trkpt><trkpt lat="42.2347598" lon="13.7772289"><ele>854.0</ele><time>2026-05-02T10:47:53.037Z</time></trkpt><trkpt lat="42.2348206" lon="13.7772959"><ele>855.0</ele><time>2026-05-02T10:47:54.036Z</time></trkpt><trkpt lat="42.2348773" lon="13.7773683"><ele>856.0</ele><time>2026-05-02T10:47:55.036Z</time></trkpt><trkpt lat="42.2349359" lon="13.7774448"><ele>857.0</ele><time>2026-05-02T10:47:56.036Z</time></trkpt><trkpt lat="42.2349939" lon="13.7775258"><ele>858.0</ele><time>2026-05-02T10:47:57.036Z</time></trkpt><trkpt lat="42.2350514" lon="13.7776069"><ele>856.4</ele><time>2026-05-02T10:47:58.036Z</time></trkpt><trkpt lat="42.2351087" lon="13.7776876"><ele>854.8</ele><time>2026-05-02T10:47:59.037Z</time></trkpt><trkpt lat="42.2351623" lon="13.7777693"><ele>853.2</ele><time>2026-05-02T10:48:00.036Z</time></trkpt><trkpt lat="42.2352076" lon="13.7778386"><ele>851.6</ele><time>2026-05-02T10:48:01.036Z</time></trkpt><trkpt lat="42.2352593" lon="13.7779662"><ele>850.0</ele><time>2026-05-02T10:48:03.036Z</time></trkpt><trkpt lat="42.2353073" lon="13.7781005"><ele>849.9999999999999</ele><time>2026-05-02T10:48:05.036Z</time></trkpt><trkpt lat="42.2353165" lon="13.7782708"><ele>850.0</ele><time>2026-05-02T10:48:07.036Z</time></trkpt><trkpt lat="42.235314" lon="13.7783679"><ele>850.0</ele><time>2026-05-02T10:48:08.036Z</time></trkpt><trkpt lat="42.2353079" lon="13.7784603"><ele>850.0</ele><time>2026-05-02T10:48:09.036Z</time></trkpt><trkpt lat="42.2352967" lon="13.7785463"><ele>849.9999999999999</ele><time>2026-05-02T10:48:10.036Z</time></trkpt><trkpt lat="42.2352778" lon="13.778636"><ele>850.0</ele><time>2026-05-02T10:48:11.037Z</time></trkpt><trkpt lat="42.2352519" lon="13.7787236"><ele>849.8571428571429</ele><time>2026-05-02T10:48:12.036Z</time></trkpt><trkpt lat="42.2352178" lon="13.7788111"><ele>849.7142857142857</ele><time>2026-05-02T10:48:13.037Z</time></trkpt><trkpt lat="42.2351776" lon="13.7788827"><ele>849.5714285714287</ele><time>2026-05-02T10:48:14.036Z</time></trkpt><trkpt lat="42.2351302" lon="13.7789491"><ele>849.4285714285714</ele><time>2026-05-02T10:48:15.037Z</time></trkpt><trkpt lat="42.2350765" lon="13.779018"><ele>849.2857142857143</ele><time>2026-05-02T10:48:16.036Z</time></trkpt><trkpt lat="42.2350212" lon="13.7790858"><ele>849.1428571428572</ele><time>2026-05-02T10:48:17.036Z</time></trkpt><trkpt lat="42.2349607" lon="13.7791566"><ele>849.0</ele><time>2026-05-02T10:48:18.036Z</time></trkpt><trkpt lat="42.2348992" lon="13.7792291"><ele>849.0</ele><time>2026-05-02T10:48:19.036Z</time></trkpt><trkpt lat="42.2348293" lon="13.7793041"><ele>849.0</ele><time>2026-05-02T10:48:20.036Z</time></trkpt><trkpt lat="42.2347522" lon="13.7793825"><ele>849.0</ele><time>2026-05-02T10:48:21.036Z</time></trkpt><trkpt lat="42.2346765" lon="13.7794484"><ele>849.0</ele><time>2026-05-02T10:48:22.036Z</time></trkpt><trkpt lat="42.2346011" lon="13.7795155"><ele>849.0</ele><time>2026-05-02T10:48:23.036Z</time></trkpt><trkpt lat="42.2345247" lon="13.7795805"><ele>848.8333333333334</ele><time>2026-05-02T10:48:24.037Z</time></trkpt><trkpt lat="42.2344463" lon="13.7796427"><ele>848.6666666666667</ele><time>2026-05-02T10:48:25.036Z</time></trkpt><trkpt lat="42.2343766" lon="13.7797129"><ele>848.5</ele><time>2026-05-02T10:48:26.036Z</time></trkpt><trkpt lat="42.2343003" lon="13.7797773"><ele>848.3333333333334</ele><time>2026-05-02T10:48:27.037Z</time></trkpt><trkpt lat="42.2342318" lon="13.779826"><ele>848.1666666666667</ele><time>2026-05-02T10:48:28.036Z</time></trkpt><trkpt lat="42.2341689" lon="13.7798606"><ele>848.0</ele><time>2026-05-02T10:48:29.037Z</time></trkpt><trkpt lat="42.2341023" lon="13.7798921"><ele>848.0</ele><time>2026-05-02T10:48:30.036Z</time></trkpt><trkpt lat="42.2340261" lon="13.779925"><ele>848.0</ele><time>2026-05-02T10:48:31.036Z</time></trkpt><trkpt lat="42.2339615" lon="13.779966"><ele>848.0</ele><time>2026-05-02T10:48:32.037Z</time></trkpt><trkpt lat="42.2338889" lon="13.780076"><ele>848.0</ele><time>2026-05-02T10:48:34.037Z</time></trkpt><trkpt lat="42.2338977" lon="13.7802126"><ele>848.0</ele><time>2026-05-02T10:48:36.036Z</time></trkpt><trkpt lat="42.2339525" lon="13.7803409"><ele>847.1666666666667</ele><time>2026-05-02T10:48:38.036Z</time></trkpt><trkpt lat="42.233983" lon="13.780422"><ele>846.3333333333334</ele><time>2026-05-02T10:48:39.036Z</time></trkpt><trkpt lat="42.2340075" lon="13.7805901"><ele>845.5</ele><time>2026-05-02T10:48:41.037Z</time></trkpt><trkpt lat="42.2340087" lon="13.7806764"><ele>844.6666666666667</ele><time>2026-05-02T10:48:42.037Z</time></trkpt><trkpt lat="42.2340072" lon="13.7807687"><ele>843.8333333333334</ele><time>2026-05-02T10:48:43.036Z</time></trkpt><trkpt lat="42.2340024" lon="13.7808653"><ele>843.0</ele><time>2026-05-02T10:48:44.036Z</time></trkpt><trkpt lat="42.2339999" lon="13.7809652"><ele>843.1666666666666</ele><time>2026-05-02T10:48:45.036Z</time></trkpt><trkpt lat="42.2340017" lon="13.7810625"><ele>843.3333333333333</ele><time>2026-05-02T10:48:46.036Z</time></trkpt><trkpt lat="42.2339984" lon="13.7812114"><ele>843.5</ele><time>2026-05-02T10:48:48.036Z</time></trkpt><trkpt lat="42.2340032" lon="13.7813159"><ele>843.6666666666666</ele><time>2026-05-02T10:48:50.036Z</time></trkpt><trkpt lat="42.2340132" lon="13.7814044"><ele>843.8333333333333</ele><time>2026-05-02T10:48:57.036Z</time></trkpt><trkpt lat="42.2339521" lon="13.7814255"><ele>844.0</ele><time>2026-05-02T10:49:02.036Z</time></trkpt><trkpt lat="42.2338511" lon="13.7813654"><ele>844.0</ele><time>2026-05-02T10:49:17.033Z</time></trkpt><trkpt lat="42.233817" lon="13.7812929"><ele>844.0</ele><time>2026-05-02T10:49:18.032Z</time></trkpt><trkpt lat="42.2337827" lon="13.7812118"><ele>844.0</ele><time>2026-05-02T10:49:19.032Z</time></trkpt><trkpt lat="42.233747" lon="13.7811352"><ele>844.0</ele><time>2026-05-02T10:49:20.032Z</time></trkpt><trkpt lat="42.2337055" lon="13.781064"><ele>844.0</ele><time>2026-05-02T10:49:21.032Z</time></trkpt><trkpt lat="42.2336555" lon="13.7809921"><ele>844.0</ele><time>2026-05-02T10:49:22.032Z</time></trkpt><trkpt lat="42.2336026" lon="13.7809117"><ele>844.0</ele><time>2026-05-02T10:49:23.033Z</time></trkpt><trkpt lat="42.2335438" lon="13.7808235"><ele>846.2</ele><time>2026-05-02T10:49:24.032Z</time></trkpt><trkpt lat="42.2334808" lon="13.7807273"><ele>848.4000000000001</ele><time>2026-05-02T10:49:25.032Z</time></trkpt><trkpt lat="42.2334142" lon="13.7806339"><ele>850.6</ele><time>2026-05-02T10:49:26.032Z</time></trkpt><trkpt lat="42.2333487" lon="13.780548"><ele>852.8</ele><time>2026-05-02T10:49:27.032Z</time></trkpt><trkpt lat="42.2332781" lon="13.780474"><ele>855.0</ele><time>2026-05-02T10:49:28.033Z</time></trkpt><trkpt lat="42.233213" lon="13.7804076"><ele>855.0</ele><time>2026-05-02T10:49:29.032Z</time></trkpt><trkpt lat="42.2331545" lon="13.780335"><ele>855.0</ele><time>2026-05-02T10:49:30.032Z</time></trkpt><trkpt lat="42.2331068" lon="13.7802571"><ele>855.0</ele><time>2026-05-02T10:49:31.032Z</time></trkpt><trkpt lat="42.2330678" lon="13.7801864"><ele>855.0</ele><time>2026-05-02T10:49:32.032Z</time></trkpt><trkpt lat="42.2330044" lon="13.7800619"><ele>855.0</ele><time>2026-05-02T10:49:34.032Z</time></trkpt><trkpt lat="42.2329354" lon="13.779947"><ele>855.0</ele><time>2026-05-02T10:49:36.032Z</time></trkpt><trkpt lat="42.2328561" lon="13.7798328"><ele>858.4</ele><time>2026-05-02T10:49:38.032Z</time></trkpt><trkpt lat="42.2327667" lon="13.779732"><ele>861.8</ele><time>2026-05-02T10:49:40.032Z</time></trkpt><trkpt lat="42.2326661" lon="13.7796282"><ele>865.2</ele><time>2026-05-02T10:49:42.032Z</time></trkpt><trkpt lat="42.2326067" lon="13.7795809"><ele>868.6</ele><time>2026-05-02T10:49:43.032Z</time></trkpt><trkpt lat="42.2325398" lon="13.7795314"><ele>872.0</ele><time>2026-05-02T10:49:44.032Z</time></trkpt><trkpt lat="42.2324699" lon="13.779496"><ele>872.0000000000001</ele><time>2026-05-02T10:49:45.033Z</time></trkpt><trkpt lat="42.2324016" lon="13.7794705"><ele>872.0</ele><time>2026-05-02T10:49:46.033Z</time></trkpt><trkpt lat="42.2323323" lon="13.7794399"><ele>872.0</ele><time>2026-05-02T10:49:47.032Z</time></trkpt><trkpt lat="42.2322602" lon="13.7794126"><ele>872.0</ele><time>2026-05-02T10:49:48.032Z</time></trkpt><trkpt lat="42.232189" lon="13.7793811"><ele>872.0000000000001</ele><time>2026-05-02T10:49:49.032Z</time></trkpt><trkpt lat="42.2321134" lon="13.7793535"><ele>872.0</ele><time>2026-05-02T10:49:50.032Z</time></trkpt><trkpt lat="42.2320328" lon="13.7793327"><ele>874.1428571428571</ele><time>2026-05-02T10:49:51.032Z</time></trkpt><trkpt lat="42.2319578" lon="13.7793086"><ele>876.2857142857143</ele><time>2026-05-02T10:49:52.033Z</time></trkpt><trkpt lat="42.2318842" lon="13.7792805"><ele>878.4285714285713</ele><time>2026-05-02T10:49:53.032Z</time></trkpt><trkpt lat="42.2318176" lon="13.7792525"><ele>880.5714285714286</ele><time>2026-05-02T10:49:54.032Z</time></trkpt><trkpt lat="42.2317509" lon="13.7792147"><ele>882.7142857142857</ele><time>2026-05-02T10:49:55.032Z</time></trkpt><trkpt lat="42.2316861" lon="13.7791685"><ele>884.8571428571428</ele><time>2026-05-02T10:49:56.033Z</time></trkpt><trkpt lat="42.2316234" lon="13.7791159"><ele>887.0</ele><time>2026-05-02T10:49:57.033Z</time></trkpt><trkpt lat="42.2315605" lon="13.7790602"><ele>887.0000000000001</ele><time>2026-05-02T10:49:58.032Z</time></trkpt><trkpt lat="42.2314924" lon="13.7790046"><ele>887.0</ele><time>2026-05-02T10:49:59.032Z</time></trkpt><trkpt lat="42.2314287" lon="13.7789602"><ele>887.0</ele><time>2026-05-02T10:50:00.032Z</time></trkpt><trkpt lat="42.2313723" lon="13.7789195"><ele>887.0</ele><time>2026-05-02T10:50:01.032Z</time></trkpt><trkpt lat="42.2312908" lon="13.7788028"><ele>887.0000000000001</ele><time>2026-05-02T10:50:03.032Z</time></trkpt><trkpt lat="42.231248" lon="13.7787364"><ele>887.0</ele><time>2026-05-02T10:50:04.032Z</time></trkpt><trkpt lat="42.2311562" lon="13.7786212"><ele>888.4000000000001</ele><time>2026-05-02T10:50:06.032Z</time></trkpt><trkpt lat="42.2311067" lon="13.7785685"><ele>889.8000000000001</ele><time>2026-05-02T10:50:07.032Z</time></trkpt><trkpt lat="42.2310046" lon="13.778526"><ele>891.2</ele><time>2026-05-02T10:50:09.032Z</time></trkpt><trkpt lat="42.2308948" lon="13.7785657"><ele>892.6</ele><time>2026-05-02T10:50:11.032Z</time></trkpt><trkpt lat="42.2308002" lon="13.7785744"><ele>894.0</ele><time>2026-05-02T10:50:13.032Z</time></trkpt><trkpt lat="42.2307126" lon="13.77853"><ele>899.0</ele><time>2026-05-02T10:50:15.032Z</time></trkpt><trkpt lat="42.2306026" lon="13.7784575"><ele>904.0</ele><time>2026-05-02T10:50:17.033Z</time></trkpt><trkpt lat="42.230492" lon="13.7783959"><ele>909.0</ele><time>2026-05-02T10:50:19.032Z</time></trkpt><trkpt lat="42.230388" lon="13.7783471"><ele>914.0</ele><time>2026-05-02T10:50:21.032Z</time></trkpt><trkpt lat="42.2302741" lon="13.7783042"><ele>914.0000000000001</ele><time>2026-05-02T10:50:23.032Z</time></trkpt><trkpt lat="42.2301488" lon="13.7782879"><ele>914.0</ele><time>2026-05-02T10:50:25.033Z</time></trkpt><trkpt lat="42.2300788" lon="13.7782875"><ele>914.0</ele><time>2026-05-02T10:50:26.033Z</time></trkpt><trkpt lat="42.2300091" lon="13.7782803"><ele>914.0</ele><time>2026-05-02T10:50:27.032Z</time></trkpt><trkpt lat="42.2299477" lon="13.7782595"><ele>914.0000000000001</ele><time>2026-05-02T10:50:28.033Z</time></trkpt><trkpt lat="42.2298365" lon="13.7781997"><ele>914.0</ele><time>2026-05-02T10:50:30.032Z</time></trkpt><trkpt lat="42.2297763" lon="13.7781635"><ele>914.4285714285716</ele><time>2026-05-02T10:50:31.032Z</time></trkpt><trkpt lat="42.2297162" lon="13.7781148"><ele>914.8571428571429</ele><time>2026-05-02T10:50:32.032Z</time></trkpt><trkpt lat="42.2296514" lon="13.7780614"><ele>915.2857142857143</ele><time>2026-05-02T10:50:33.032Z</time></trkpt><trkpt lat="42.2295845" lon="13.7780031"><ele>915.7142857142858</ele><time>2026-05-02T10:50:34.032Z</time></trkpt><trkpt lat="42.2295171" lon="13.7779517"><ele>916.1428571428571</ele><time>2026-05-02T10:50:35.032Z</time></trkpt><trkpt lat="42.2294482" lon="13.7779118"><ele>916.5714285714286</ele><time>2026-05-02T10:50:36.032Z</time></trkpt><trkpt lat="42.2293855" lon="13.7778783"><ele>917.0</ele><time>2026-05-02T10:50:37.032Z</time></trkpt><trkpt lat="42.2292958" lon="13.7778783"><ele>917.0000000000001</ele><time>2026-05-02T10:50:39.032Z</time></trkpt><trkpt lat="42.2292301" lon="13.7779141"><ele>917.0</ele><time>2026-05-02T10:50:41.033Z</time></trkpt><trkpt lat="42.2291532" lon="13.777945"><ele>917.0</ele><time>2026-05-02T10:50:43.032Z</time></trkpt><trkpt lat="42.2290761" lon="13.7779658"><ele>917.0</ele><time>2026-05-02T10:50:45.032Z</time></trkpt><trkpt lat="42.2290019" lon="13.7779672"><ele>917.0000000000001</ele><time>2026-05-02T10:50:48.032Z</time></trkpt><trkpt lat="42.2288862" lon="13.7779329"><ele>917.0</ele><time>2026-05-02T10:50:51.033Z</time></trkpt><trkpt lat="42.2287994" lon="13.7778462"><ele>917.1666666666667</ele><time>2026-05-02T10:50:53.032Z</time></trkpt><trkpt lat="42.2287542" lon="13.7777793"><ele>917.3333333333334</ele><time>2026-05-02T10:50:54.032Z</time></trkpt><trkpt lat="42.2287115" lon="13.7777014"><ele>917.5</ele><time>2026-05-02T10:50:55.032Z</time></trkpt><trkpt lat="42.2286629" lon="13.7776192"><ele>917.6666666666667</ele><time>2026-05-02T10:50:56.032Z</time></trkpt><trkpt lat="42.2286104" lon="13.7775558"><ele>917.8333333333334</ele><time>2026-05-02T10:50:57.032Z</time></trkpt><trkpt lat="42.2284975" lon="13.7774915"><ele>918.0</ele><time>2026-05-02T10:50:59.032Z</time></trkpt><trkpt lat="42.2284294" lon="13.7774854"><ele>918.0</ele><time>2026-05-02T10:51:00.033Z</time></trkpt><trkpt lat="42.2283593" lon="13.7774874"><ele>918.0</ele><time>2026-05-02T10:51:01.032Z</time></trkpt><trkpt lat="42.2282816" lon="13.7774961"><ele>918.0</ele><time>2026-05-02T10:51:02.032Z</time></trkpt><trkpt lat="42.2281937" lon="13.7775076"><ele>918.0</ele><time>2026-05-02T10:51:03.032Z</time></trkpt><trkpt lat="42.2281063" lon="13.7775241"><ele>918.0</ele><time>2026-05-02T10:51:04.033Z</time></trkpt><trkpt lat="42.2280301" lon="13.7775435"><ele>918.0</ele><time>2026-05-02T10:51:05.033Z</time></trkpt><trkpt lat="42.2279632" lon="13.7775684"><ele>918.0</ele><time>2026-05-02T10:51:06.033Z</time></trkpt><trkpt lat="42.2279025" lon="13.777601"><ele>918.0</ele><time>2026-05-02T10:51:07.032Z</time></trkpt><trkpt lat="42.2277976" lon="13.7776683"><ele>918.0</ele><time>2026-05-02T10:51:09.033Z</time></trkpt><trkpt lat="42.2277311" lon="13.777708"><ele>918.0</ele><time>2026-05-02T10:51:11.032Z</time></trkpt><trkpt lat="42.2276464" lon="13.7777835"><ele>918.0</ele><time>2026-05-02T10:51:13.032Z</time></trkpt><trkpt lat="42.2275407" lon="13.7778868"><ele>918.1666666666666</ele><time>2026-05-02T10:51:15.032Z</time></trkpt><trkpt lat="42.2274747" lon="13.7779394"><ele>918.3333333333333</ele><time>2026-05-02T10:51:16.032Z</time></trkpt><trkpt lat="42.2274072" lon="13.7779987"><ele>918.5</ele><time>2026-05-02T10:51:17.032Z</time></trkpt><trkpt lat="42.2273325" lon="13.7780677"><ele>918.6666666666666</ele><time>2026-05-02T10:51:18.032Z</time></trkpt><trkpt lat="42.2272583" lon="13.7781379"><ele>918.8333333333333</ele><time>2026-05-02T10:51:19.033Z</time></trkpt><trkpt lat="42.2271889" lon="13.7782098"><ele>919.0</ele><time>2026-05-02T10:51:20.032Z</time></trkpt><trkpt lat="42.2271178" lon="13.7782733"><ele>918.9999999999999</ele><time>2026-05-02T10:51:21.032Z</time></trkpt><trkpt lat="42.2270514" lon="13.7783362"><ele>919.0</ele><time>2026-05-02T10:51:22.032Z</time></trkpt><trkpt lat="42.2269882" lon="13.7783976"><ele>919.0</ele><time>2026-05-02T10:51:23.032Z</time></trkpt><trkpt lat="42.2269232" lon="13.7784522"><ele>919.0</ele><time>2026-05-02T10:51:24.032Z</time></trkpt><trkpt lat="42.2268656" lon="13.778499"><ele>918.9999999999999</ele><time>2026-05-02T10:51:25.032Z</time></trkpt><trkpt lat="42.226805" lon="13.7785503"><ele>919.0</ele><time>2026-05-02T10:51:26.032Z</time></trkpt><trkpt lat="42.2267399" lon="13.778605"><ele>919.3333333333333</ele><time>2026-05-02T10:51:27.032Z</time></trkpt><trkpt lat="42.2266744" lon="13.7786546"><ele>919.6666666666666</ele><time>2026-05-02T10:51:28.032Z</time></trkpt><trkpt lat="42.2266083" lon="13.7787134"><ele>920.0</ele><time>2026-05-02T10:51:29.033Z</time></trkpt><trkpt lat="42.2265392" lon="13.778772"><ele>920.3333333333333</ele><time>2026-05-02T10:51:30.032Z</time></trkpt><trkpt lat="42.2264657" lon="13.7788367"><ele>920.6666666666666</ele><time>2026-05-02T10:51:31.033Z</time></trkpt><trkpt lat="42.2263956" lon="13.7789038"><ele>921.0</ele><time>2026-05-02T10:51:32.032Z</time></trkpt><trkpt lat="42.226321" lon="13.7789866"><ele>920.1999999999999</ele><time>2026-05-02T10:51:33.032Z</time></trkpt><trkpt lat="42.2262492" lon="13.7790691"><ele>919.3999999999999</ele><time>2026-05-02T10:51:34.032Z</time></trkpt><trkpt lat="42.2261732" lon="13.7791572"><ele>918.6</ele><time>2026-05-02T10:51:35.032Z</time></trkpt><trkpt lat="42.2260985" lon="13.7792496"><ele>917.8</ele><time>2026-05-02T10:51:36.033Z</time></trkpt><trkpt lat="42.2260291" lon="13.779346"><ele>917.0</ele><time>2026-05-02T10:51:37.032Z</time></trkpt><trkpt lat="42.2259613" lon="13.77945"><ele>917.0</ele><time>2026-05-02T10:51:38.033Z</time></trkpt><trkpt lat="42.2258965" lon="13.7795516"><ele>917.0</ele><time>2026-05-02T10:51:39.032Z</time></trkpt><trkpt lat="42.2258318" lon="13.7796575"><ele>917.0</ele><time>2026-05-02T10:51:40.032Z</time></trkpt><trkpt lat="42.2257671" lon="13.7797579"><ele>917.0</ele><time>2026-05-02T10:51:41.032Z</time></trkpt><trkpt lat="42.2256999" lon="13.7798539"><ele>917.0</ele><time>2026-05-02T10:51:42.033Z</time></trkpt><trkpt lat="42.2256341" lon="13.7799527"><ele>915.0</ele><time>2026-05-02T10:51:43.032Z</time></trkpt><trkpt lat="42.2255615" lon="13.7800489"><ele>913.0</ele><time>2026-05-02T10:51:44.032Z</time></trkpt><trkpt lat="42.2254928" lon="13.7801529"><ele>911.0</ele><time>2026-05-02T10:51:45.032Z</time></trkpt><trkpt lat="42.2254294" lon="13.7802547"><ele>909.0</ele><time>2026-05-02T10:51:46.032Z</time></trkpt><trkpt lat="42.2253687" lon="13.7803582"><ele>907.0</ele><time>2026-05-02T10:51:47.032Z</time></trkpt><trkpt lat="42.2253103" lon="13.7804619"><ele>907.0</ele><time>2026-05-02T10:51:48.033Z</time></trkpt><trkpt lat="42.2252546" lon="13.7805699"><ele>907.0</ele><time>2026-05-02T10:51:49.032Z</time></trkpt><trkpt lat="42.2252031" lon="13.7806752"><ele>907.0</ele><time>2026-05-02T10:51:50.032Z</time></trkpt><trkpt lat="42.2251529" lon="13.7807764"><ele>907.0</ele><time>2026-05-02T10:51:51.032Z</time></trkpt><trkpt lat="42.2250983" lon="13.7808653"><ele>907.0</ele><time>2026-05-02T10:51:52.033Z</time></trkpt><trkpt lat="42.2250361" lon="13.7809553"><ele>907.3333333333333</ele><time>2026-05-02T10:51:53.033Z</time></trkpt><trkpt lat="42.2249743" lon="13.7810376"><ele>907.6666666666666</ele><time>2026-05-02T10:51:54.032Z</time></trkpt><trkpt lat="42.2249129" lon="13.7811127"><ele>908.0</ele><time>2026-05-02T10:51:55.032Z</time></trkpt><trkpt lat="42.2248524" lon="13.7811875"><ele>908.3333333333333</ele><time>2026-05-02T10:51:56.032Z</time></trkpt><trkpt lat="42.2247949" lon="13.7812669"><ele>908.6666666666666</ele><time>2026-05-02T10:51:57.033Z</time></trkpt><trkpt lat="42.2247418" lon="13.7813438"><ele>909.0</ele><time>2026-05-02T10:51:58.032Z</time></trkpt><trkpt lat="42.2247034" lon="13.7814249"><ele>905.5</ele><time>2026-05-02T10:51:59.032Z</time></trkpt><trkpt lat="42.2246746" lon="13.7815184"><ele>902.0</ele><time>2026-05-02T10:52:00.032Z</time></trkpt><trkpt lat="42.2246477" lon="13.7816236"><ele>898.5</ele><time>2026-05-02T10:52:01.032Z</time></trkpt><trkpt lat="42.2246241" lon="13.7817358"><ele>895.0</ele><time>2026-05-02T10:52:02.033Z</time></trkpt><trkpt lat="42.2245963" lon="13.78185"><ele>891.5</ele><time>2026-05-02T10:52:03.032Z</time></trkpt><trkpt lat="42.2245567" lon="13.7819674"><ele>888.0</ele><time>2026-05-02T10:52:04.033Z</time></trkpt><trkpt lat="42.2245061" lon="13.7820761"><ele>887.5999999999999</ele><time>2026-05-02T10:52:05.032Z</time></trkpt><trkpt lat="42.2244495" lon="13.7821877"><ele>887.1999999999999</ele><time>2026-05-02T10:52:06.033Z</time></trkpt><trkpt lat="42.2244012" lon="13.7823031"><ele>886.8</ele><time>2026-05-02T10:52:07.033Z</time></trkpt><trkpt lat="42.2243605" lon="13.7824164"><ele>886.4</ele><time>2026-05-02T10:52:08.032Z</time></trkpt><trkpt lat="42.2243281" lon="13.7825277"><ele>886.0</ele><time>2026-05-02T10:52:09.033Z</time></trkpt><trkpt lat="42.2243076" lon="13.782642"><ele>884.8333333333333</ele><time>2026-05-02T10:52:10.032Z</time></trkpt><trkpt lat="42.2242936" lon="13.7827504"><ele>883.6666666666666</ele><time>2026-05-02T10:52:11.032Z</time></trkpt><trkpt lat="42.2242869" lon="13.7828398"><ele>882.5</ele><time>2026-05-02T10:52:12.033Z</time></trkpt><trkpt lat="42.2242544" lon="13.7829359"><ele>881.3333333333333</ele><time>2026-05-02T10:52:14.033Z</time></trkpt><trkpt lat="42.2241861" lon="13.7829313"><ele>880.1666666666666</ele><time>2026-05-02T10:52:16.032Z</time></trkpt><trkpt lat="42.2241075" lon="13.7828068"><ele>879.0</ele><time>2026-05-02T10:52:18.032Z</time></trkpt><trkpt lat="42.2240608" lon="13.7827075"><ele>880.4000000000001</ele><time>2026-05-02T10:52:19.032Z</time></trkpt><trkpt lat="42.2240075" lon="13.7825928"><ele>881.8000000000001</ele><time>2026-05-02T10:52:20.033Z</time></trkpt><trkpt lat="42.2239498" lon="13.7824661"><ele>883.1999999999999</ele><time>2026-05-02T10:52:21.033Z</time></trkpt><trkpt lat="42.2238982" lon="13.7823289"><ele>884.5999999999999</ele><time>2026-05-02T10:52:22.032Z</time></trkpt><trkpt lat="42.2238554" lon="13.7821867"><ele>886.0</ele><time>2026-05-02T10:52:23.032Z</time></trkpt><trkpt lat="42.2238133" lon="13.7820696"><ele>880.4</ele><time>2026-05-02T10:52:24.032Z</time></trkpt><trkpt lat="42.2237731" lon="13.7819744"><ele>874.8</ele><time>2026-05-02T10:52:25.032Z</time></trkpt><trkpt lat="42.2237017" lon="13.7819"><ele>869.1999999999999</ele><time>2026-05-02T10:52:27.032Z</time></trkpt><trkpt lat="42.2236501" lon="13.7819554"><ele>863.5999999999999</ele><time>2026-05-02T10:52:29.033Z</time></trkpt><trkpt lat="42.2236281" lon="13.7821449"><ele>858.0</ele><time>2026-05-02T10:52:31.032Z</time></trkpt><trkpt lat="42.2236063" lon="13.7822869"><ele>858.0</ele><time>2026-05-02T10:52:32.032Z</time></trkpt><trkpt lat="42.2235892" lon="13.7824276"><ele>858.0</ele><time>2026-05-02T10:52:33.032Z</time></trkpt><trkpt lat="42.2235791" lon="13.7825317"><ele>858.0</ele><time>2026-05-02T10:52:34.032Z</time></trkpt><trkpt lat="42.2235443" lon="13.7826366"><ele>858.0</ele><time>2026-05-02T10:52:36.032Z</time></trkpt><trkpt lat="42.2234839" lon="13.7826013"><ele>858.0</ele><time>2026-05-02T10:52:38.032Z</time></trkpt><trkpt lat="42.2234448" lon="13.7825314"><ele>858.0</ele><time>2026-05-02T10:52:39.032Z</time></trkpt><trkpt lat="42.2234029" lon="13.7824281"><ele>858.0</ele><time>2026-05-02T10:52:40.033Z</time></trkpt><trkpt lat="42.2233631" lon="13.7823195"><ele>858.0</ele><time>2026-05-02T10:52:41.032Z</time></trkpt><trkpt lat="42.2233303" lon="13.7822118"><ele>858.0</ele><time>2026-05-02T10:52:42.033Z</time></trkpt><trkpt lat="42.2233029" lon="13.7821203"><ele>858.0</ele><time>2026-05-02T10:52:43.032Z</time></trkpt><trkpt lat="42.223244" lon="13.7820251"><ele>858.0</ele><time>2026-05-02T10:52:45.032Z</time></trkpt><trkpt lat="42.2231383" lon="13.7821038"><ele>857.0</ele><time>2026-05-02T10:52:47.032Z</time></trkpt><trkpt lat="42.2230774" lon="13.7822008"><ele>856.0</ele><time>2026-05-02T10:52:48.032Z</time></trkpt><trkpt lat="42.2230168" lon="13.7823069"><ele>855.0</ele><time>2026-05-02T10:52:49.032Z</time></trkpt><trkpt lat="42.2229549" lon="13.7823911"><ele>854.0</ele><time>2026-05-02T10:52:50.032Z</time></trkpt><trkpt lat="42.222889" lon="13.782449"><ele>853.0</ele><time>2026-05-02T10:52:51.032Z</time></trkpt><trkpt lat="42.2228267" lon="13.7824832"><ele>852.0</ele><time>2026-05-02T10:52:52.032Z</time></trkpt><trkpt lat="42.2227405" lon="13.7824837"><ele>852.0</ele><time>2026-05-02T10:52:54.032Z</time></trkpt><trkpt lat="42.2226585" lon="13.7824213"><ele>852.0</ele><time>2026-05-02T10:52:56.032Z</time></trkpt><trkpt lat="42.2225946" lon="13.7823357"><ele>852.0</ele><time>2026-05-02T10:52:59.032Z</time></trkpt><trkpt lat="42.2225374" lon="13.7822861"><ele>852.0</ele><time>2026-05-02T10:53:00.032Z</time></trkpt><trkpt lat="42.2224839" lon="13.7822402"><ele>852.0</ele><time>2026-05-02T10:53:01.032Z</time></trkpt><trkpt lat="42.2224248" lon="13.7821933"><ele>852.0</ele><time>2026-05-02T10:53:02.032Z</time></trkpt><trkpt lat="42.2223667" lon="13.7821378"><ele>852.7142857142857</ele><time>2026-05-02T10:53:03.032Z</time></trkpt><trkpt lat="42.2223102" lon="13.7820798"><ele>853.4285714285714</ele><time>2026-05-02T10:53:04.032Z</time></trkpt><trkpt lat="42.2222572" lon="13.7820146"><ele>854.1428571428571</ele><time>2026-05-02T10:53:05.032Z</time></trkpt><trkpt lat="42.2222056" lon="13.7819528"><ele>854.8571428571429</ele><time>2026-05-02T10:53:06.032Z</time></trkpt><trkpt lat="42.2221563" lon="13.7818908"><ele>855.5714285714286</ele><time>2026-05-02T10:53:07.032Z</time></trkpt><trkpt lat="42.2221026" lon="13.7818277"><ele>856.2857142857142</ele><time>2026-05-02T10:53:08.033Z</time></trkpt><trkpt lat="42.22205" lon="13.7817611"><ele>857.0</ele><time>2026-05-02T10:53:09.033Z</time></trkpt><trkpt lat="42.2220037" lon="13.7816896"><ele>857.0000000000001</ele><time>2026-05-02T10:53:10.032Z</time></trkpt><trkpt lat="42.2219655" lon="13.7816005"><ele>857.0</ele><time>2026-05-02T10:53:11.032Z</time></trkpt><trkpt lat="42.2219339" lon="13.7815054"><ele>857.0</ele><time>2026-05-02T10:53:12.033Z</time></trkpt><trkpt lat="42.2219006" lon="13.7814084"><ele>857.0</ele><time>2026-05-02T10:53:13.033Z</time></trkpt><trkpt lat="42.2218615" lon="13.7813088"><ele>857.0000000000001</ele><time>2026-05-02T10:53:14.032Z</time></trkpt><trkpt lat="42.2218285" lon="13.781198"><ele>857.0</ele><time>2026-05-02T10:53:15.032Z</time></trkpt><trkpt lat="42.2217957" lon="13.7810892"><ele>856.2</ele><time>2026-05-02T10:53:16.033Z</time></trkpt><trkpt lat="42.2217649" lon="13.7809691"><ele>855.4000000000001</ele><time>2026-05-02T10:53:17.032Z</time></trkpt><trkpt lat="42.2217425" lon="13.7808418"><ele>854.5999999999999</ele><time>2026-05-02T10:53:18.032Z</time></trkpt><trkpt lat="42.2217147" lon="13.7807113"><ele>853.8</ele><time>2026-05-02T10:53:19.032Z</time></trkpt><trkpt lat="42.2216767" lon="13.7805852"><ele>853.0</ele><time>2026-05-02T10:53:20.032Z</time></trkpt><trkpt lat="42.2216343" lon="13.7804595"><ele>852.9999999999999</ele><time>2026-05-02T10:53:21.032Z</time></trkpt><trkpt lat="42.2215932" lon="13.7803441"><ele>853.0</ele><time>2026-05-02T10:53:22.032Z</time></trkpt><trkpt lat="42.2215558" lon="13.7802298"><ele>853.0</ele><time>2026-05-02T10:53:23.032Z</time></trkpt><trkpt lat="42.2215182" lon="13.7801257"><ele>853.0</ele><time>2026-05-02T10:53:24.032Z</time></trkpt><trkpt lat="42.2214823" lon="13.7800234"><ele>852.9999999999999</ele><time>2026-05-02T10:53:25.032Z</time></trkpt><trkpt lat="42.2214481" lon="13.7799271"><ele>853.0</ele><time>2026-05-02T10:53:26.032Z</time></trkpt><trkpt lat="42.2214107" lon="13.7797962"><ele>850.0</ele><time>2026-05-02T10:53:28.032Z</time></trkpt><trkpt lat="42.2213363" lon="13.7797272"><ele>847.0</ele><time>2026-05-02T10:53:31.032Z</time></trkpt><trkpt lat="42.2212484" lon="13.7797742"><ele>844.0</ele><time>2026-05-02T10:53:33.032Z</time></trkpt><trkpt lat="42.2211313" lon="13.779859"><ele>841.0</ele><time>2026-05-02T10:53:35.032Z</time></trkpt><trkpt lat="42.2210654" lon="13.7799265"><ele>838.0</ele><time>2026-05-02T10:53:36.032Z</time></trkpt><trkpt lat="42.2209894" lon="13.7799878"><ele>838.0</ele><time>2026-05-02T10:53:37.032Z</time></trkpt><trkpt lat="42.2209013" lon="13.7800613"><ele>838.0</ele><time>2026-05-02T10:53:38.032Z</time></trkpt><trkpt lat="42.2208065" lon="13.7801402"><ele>838.0</ele><time>2026-05-02T10:53:39.032Z</time></trkpt><trkpt lat="42.2207113" lon="13.7802152"><ele>838.0</ele><time>2026-05-02T10:53:40.032Z</time></trkpt><trkpt lat="42.2206076" lon="13.7802962"><ele>838.0</ele><time>2026-05-02T10:53:41.032Z</time></trkpt><trkpt lat="42.2205062" lon="13.7803601"><ele>837.8</ele><time>2026-05-02T10:53:42.032Z</time></trkpt><trkpt lat="42.2204076" lon="13.7804159"><ele>837.5999999999999</ele><time>2026-05-02T10:53:43.032Z</time></trkpt><trkpt lat="42.2203146" lon="13.7804567"><ele>837.4000000000001</ele><time>2026-05-02T10:53:44.032Z</time></trkpt><trkpt lat="42.2202303" lon="13.7804847"><ele>837.2</ele><time>2026-05-02T10:53:45.032Z</time></trkpt><trkpt lat="42.220148" lon="13.7804981"><ele>837.0</ele><time>2026-05-02T10:53:46.032Z</time></trkpt><trkpt lat="42.2200609" lon="13.7804955"><ele>837.0</ele><time>2026-05-02T10:53:47.032Z</time></trkpt><trkpt lat="42.2199742" lon="13.7804817"><ele>837.0</ele><time>2026-05-02T10:53:48.033Z</time></trkpt><trkpt lat="42.2198817" lon="13.7804598"><ele>837.0</ele><time>2026-05-02T10:53:49.032Z</time></trkpt><trkpt lat="42.2197832" lon="13.7804262"><ele>837.0</ele><time>2026-05-02T10:53:50.032Z</time></trkpt><trkpt lat="42.2196837" lon="13.7803842"><ele>837.0</ele><time>2026-05-02T10:53:51.032Z</time></trkpt><trkpt lat="42.2195839" lon="13.7803268"><ele>834.75</ele><time>2026-05-02T10:53:52.032Z</time></trkpt><trkpt lat="42.2194886" lon="13.7802557"><ele>832.5</ele><time>2026-05-02T10:53:53.032Z</time></trkpt><trkpt lat="42.2193995" lon="13.7801607"><ele>830.25</ele><time>2026-05-02T10:53:54.032Z</time></trkpt><trkpt lat="42.2193193" lon="13.7800468"><ele>828.0</ele><time>2026-05-02T10:53:55.033Z</time></trkpt><trkpt lat="42.2192401" lon="13.7799374"><ele>823.5999999999999</ele><time>2026-05-02T10:53:56.032Z</time></trkpt><trkpt lat="42.2191657" lon="13.7798412"><ele>819.1999999999999</ele><time>2026-05-02T10:53:57.032Z</time></trkpt><trkpt lat="42.2190858" lon="13.7797522"><ele>814.8</ele><time>2026-05-02T10:53:58.033Z</time></trkpt><trkpt lat="42.2189885" lon="13.7796839"><ele>810.4</ele><time>2026-05-02T10:53:59.032Z</time></trkpt><trkpt lat="42.2188796" lon="13.7796295"><ele>806.0</ele><time>2026-05-02T10:54:00.033Z</time></trkpt><trkpt lat="42.218766" lon="13.7796066"><ele>803.1999999999999</ele><time>2026-05-02T10:54:01.032Z</time></trkpt><trkpt lat="42.2186575" lon="13.7796147"><ele>800.4</ele><time>2026-05-02T10:54:02.032Z</time></trkpt><trkpt lat="42.2185563" lon="13.7796463"><ele>797.6</ele><time>2026-05-02T10:54:03.033Z</time></trkpt><trkpt lat="42.2184615" lon="13.779681"><ele>794.8</ele><time>2026-05-02T10:54:04.032Z</time></trkpt><trkpt lat="42.218363" lon="13.7797352"><ele>792.0</ele><time>2026-05-02T10:54:05.032Z</time></trkpt><trkpt lat="42.2182591" lon="13.7797792"><ele>792.0</ele><time>2026-05-02T10:54:06.033Z</time></trkpt><trkpt lat="42.2181571" lon="13.7798227"><ele>792.0</ele><time>2026-05-02T10:54:07.032Z</time></trkpt><trkpt lat="42.2180568" lon="13.7798665"><ele>792.0</ele><time>2026-05-02T10:54:08.032Z</time></trkpt><trkpt lat="42.2179685" lon="13.7798975"><ele>792.0</ele><time>2026-05-02T10:54:09.033Z</time></trkpt><trkpt lat="42.2178867" lon="13.7799201"><ele>792.0</ele><time>2026-05-02T10:54:10.032Z</time></trkpt><trkpt lat="42.2178005" lon="13.7799325"><ele>791.0</ele><time>2026-05-02T10:54:11.032Z</time></trkpt><trkpt lat="42.217714" lon="13.7799079"><ele>790.0</ele><time>2026-05-02T10:54:12.032Z</time></trkpt><trkpt lat="42.2176297" lon="13.7798426"><ele>789.0</ele><time>2026-05-02T10:54:13.033Z</time></trkpt><trkpt lat="42.217563" lon="13.7797677"><ele>788.0</ele><time>2026-05-02T10:54:14.032Z</time></trkpt><trkpt lat="42.2175174" lon="13.779673"><ele>787.0</ele><time>2026-05-02T10:54:15.032Z</time></trkpt><trkpt lat="42.2174842" lon="13.7795661"><ele>786.0</ele><time>2026-05-02T10:54:16.033Z</time></trkpt><trkpt lat="42.2174672" lon="13.7794428"><ele>782.0</ele><time>2026-05-02T10:54:17.032Z</time></trkpt><trkpt lat="42.2174542" lon="13.7793163"><ele>778.0</ele><time>2026-05-02T10:54:18.032Z</time></trkpt><trkpt lat="42.2174386" lon="13.7791815"><ele>774.0</ele><time>2026-05-02T10:54:19.032Z</time></trkpt><trkpt lat="42.2174111" lon="13.7790452"><ele>770.0</ele><time>2026-05-02T10:54:20.032Z</time></trkpt><trkpt lat="42.217378" lon="13.7789051"><ele>766.0</ele><time>2026-05-02T10:54:21.033Z</time></trkpt><trkpt lat="42.217338" lon="13.778764"><ele>768.0</ele><time>2026-05-02T10:54:22.032Z</time></trkpt><trkpt lat="42.2172917" lon="13.7786251"><ele>770.0</ele><time>2026-05-02T10:54:23.033Z</time></trkpt><trkpt lat="42.2172386" lon="13.7784866"><ele>772.0</ele><time>2026-05-02T10:54:24.032Z</time></trkpt><trkpt lat="42.2171758" lon="13.7783447"><ele>774.0</ele><time>2026-05-02T10:54:25.032Z</time></trkpt><trkpt lat="42.2171187" lon="13.7782058"><ele>770.4000000000001</ele><time>2026-05-02T10:54:26.032Z</time></trkpt><trkpt lat="42.2170603" lon="13.7780684"><ele>766.8</ele><time>2026-05-02T10:54:27.032Z</time></trkpt><trkpt lat="42.2170028" lon="13.777939"><ele>763.2</ele><time>2026-05-02T10:54:28.032Z</time></trkpt><trkpt lat="42.2169441" lon="13.7778196"><ele>759.5999999999999</ele><time>2026-05-02T10:54:29.032Z</time></trkpt><trkpt lat="42.2168727" lon="13.7777136"><ele>756.0</ele><time>2026-05-02T10:54:30.032Z</time></trkpt><trkpt lat="42.2167847" lon="13.777621"><ele>751.5</ele><time>2026-05-02T10:54:31.032Z</time></trkpt><trkpt lat="42.2166808" lon="13.7775489"><ele>747.0</ele><time>2026-05-02T10:54:32.032Z</time></trkpt><trkpt lat="42.2165682" lon="13.7774824"><ele>742.5</ele><time>2026-05-02T10:54:33.032Z</time></trkpt><trkpt lat="42.2164538" lon="13.7774241"><ele>738.0</ele><time>2026-05-02T10:54:34.033Z</time></trkpt><trkpt lat="42.2163384" lon="13.7773655"><ele>735.75</ele><time>2026-05-02T10:54:35.033Z</time></trkpt><trkpt lat="42.216224" lon="13.7772977"><ele>733.5</ele><time>2026-05-02T10:54:36.033Z</time></trkpt><trkpt lat="42.2161063" lon="13.7772166"><ele>731.25</ele><time>2026-05-02T10:54:37.032Z</time></trkpt><trkpt lat="42.215985" lon="13.7771319"><ele>729.0</ele><time>2026-05-02T10:54:38.033Z</time></trkpt><trkpt lat="42.2158587" lon="13.777046"><ele>729.0</ele><time>2026-05-02T10:54:39.033Z</time></trkpt><trkpt lat="42.2157334" lon="13.7769694"><ele>729.0</ele><time>2026-05-02T10:54:40.032Z</time></trkpt><trkpt lat="42.2156206" lon="13.7769071"><ele>729.0</ele><time>2026-05-02T10:54:41.032Z</time></trkpt><trkpt lat="42.2155179" lon="13.7768539"><ele>729.0</ele><time>2026-05-02T10:54:42.032Z</time></trkpt><trkpt lat="42.2154216" lon="13.7768025"><ele>725.6666666666666</ele><time>2026-05-02T10:54:43.032Z</time></trkpt><trkpt lat="42.2153285" lon="13.7767629"><ele>722.3333333333334</ele><time>2026-05-02T10:54:44.032Z</time></trkpt><trkpt lat="42.2152362" lon="13.7767292"><ele>719.0</ele><time>2026-05-02T10:54:45.033Z</time></trkpt><trkpt lat="42.2151478" lon="13.7767107"><ele>715.6666666666667</ele><time>2026-05-02T10:54:46.032Z</time></trkpt><trkpt lat="42.2150628" lon="13.7767111"><ele>712.3333333333334</ele><time>2026-05-02T10:54:47.032Z</time></trkpt><trkpt lat="42.2149875" lon="13.7767446"><ele>709.0</ele><time>2026-05-02T10:54:48.033Z</time></trkpt><trkpt lat="42.214941" lon="13.7768195"><ele>710.3333333333334</ele><time>2026-05-02T10:54:49.032Z</time></trkpt><trkpt lat="42.2149085" lon="13.7769162"><ele>711.6666666666667</ele><time>2026-05-02T10:54:50.032Z</time></trkpt><trkpt lat="42.2148791" lon="13.7770001"><ele>713.0</ele><time>2026-05-02T10:54:51.033Z</time></trkpt><trkpt lat="42.214832" lon="13.777085"><ele>714.3333333333334</ele><time>2026-05-02T10:54:53.032Z</time></trkpt><trkpt lat="42.2147603" lon="13.7770971"><ele>715.6666666666666</ele><time>2026-05-02T10:54:56.032Z</time></trkpt><trkpt lat="42.2147642" lon="13.7769776"><ele>717.0</ele><time>2026-05-02T10:54:58.032Z</time></trkpt><trkpt lat="42.2147964" lon="13.7768701"><ele>715.4000000000001</ele><time>2026-05-02T10:54:59.032Z</time></trkpt><trkpt lat="42.2148329" lon="13.7767464"><ele>713.8000000000001</ele><time>2026-05-02T10:55:00.032Z</time></trkpt><trkpt lat="42.2148727" lon="13.7766262"><ele>712.2</ele><time>2026-05-02T10:55:01.032Z</time></trkpt><trkpt lat="42.2149039" lon="13.7765114"><ele>710.6</ele><time>2026-05-02T10:55:02.032Z</time></trkpt><trkpt lat="42.2148967" lon="13.7764183"><ele>709.0</ele><time>2026-05-02T10:55:03.032Z</time></trkpt><trkpt lat="42.2147991" lon="13.7763728"><ele>707.4000000000001</ele><time>2026-05-02T10:55:05.033Z</time></trkpt><trkpt lat="42.2147378" lon="13.7764184"><ele>705.8</ele><time>2026-05-02T10:55:06.032Z</time></trkpt><trkpt lat="42.2146773" lon="13.7765082"><ele>704.2</ele><time>2026-05-02T10:55:07.033Z</time></trkpt><trkpt lat="42.2146171" lon="13.776648"><ele>702.5999999999999</ele><time>2026-05-02T10:55:08.032Z</time></trkpt><trkpt lat="42.2145557" lon="13.7768139"><ele>701.0</ele><time>2026-05-02T10:55:09.032Z</time></trkpt><trkpt lat="42.2144846" lon="13.776989"><ele>701.0</ele><time>2026-05-02T10:55:10.032Z</time></trkpt><trkpt lat="42.214414" lon="13.7771525"><ele>701.0</ele><time>2026-05-02T10:55:11.032Z</time></trkpt><trkpt lat="42.2143544" lon="13.7772879"><ele>701.0</ele><time>2026-05-02T10:55:12.032Z</time></trkpt><trkpt lat="42.2143033" lon="13.7773937"><ele>701.0</ele><time>2026-05-02T10:55:13.033Z</time></trkpt><trkpt lat="42.2142532" lon="13.7774638"><ele>701.0</ele><time>2026-05-02T10:55:14.032Z</time></trkpt><trkpt lat="42.2141556" lon="13.777466"><ele>701.0</ele><time>2026-05-02T10:55:16.032Z</time></trkpt><trkpt lat="42.2141669" lon="13.7772804"><ele>701.0</ele><time>2026-05-02T10:55:18.032Z</time></trkpt><trkpt lat="42.2142048" lon="13.7771548"><ele>701.0</ele><time>2026-05-02T10:55:19.032Z</time></trkpt><trkpt lat="42.2142373" lon="13.7770246"><ele>701.0</ele><time>2026-05-02T10:55:20.032Z</time></trkpt><trkpt lat="42.2142625" lon="13.7769022"><ele>701.0</ele><time>2026-05-02T10:55:21.032Z</time></trkpt><trkpt lat="42.2142876" lon="13.776782"><ele>700.1666666666666</ele><time>2026-05-02T10:55:22.033Z</time></trkpt><trkpt lat="42.2143065" lon="13.7766797"><ele>699.3333333333333</ele><time>2026-05-02T10:55:23.032Z</time></trkpt><trkpt lat="42.2143296" lon="13.7765514"><ele>698.5</ele><time>2026-05-02T10:55:25.032Z</time></trkpt><trkpt lat="42.2142627" lon="13.7765354"><ele>697.6666666666666</ele><time>2026-05-02T10:55:28.032Z</time></trkpt><trkpt lat="42.2141824" lon="13.7766046"><ele>696.8333333333334</ele><time>2026-05-02T10:55:30.032Z</time></trkpt><trkpt lat="42.2140987" lon="13.7767012"><ele>696.0</ele><time>2026-05-02T10:55:32.032Z</time></trkpt><trkpt lat="42.213999" lon="13.7767404"><ele>695.0</ele><time>2026-05-02T10:55:34.032Z</time></trkpt><trkpt lat="42.2138662" lon="13.7767463"><ele>694.0</ele><time>2026-05-02T10:55:36.032Z</time></trkpt><trkpt lat="42.2137953" lon="13.776748"><ele>693.0</ele><time>2026-05-02T10:55:37.033Z</time></trkpt><trkpt lat="42.213718" lon="13.7767528"><ele>692.0</ele><time>2026-05-02T10:55:38.032Z</time></trkpt><trkpt lat="42.2136444" lon="13.7767421"><ele>691.0</ele><time>2026-05-02T10:55:39.032Z</time></trkpt><trkpt lat="42.2135634" lon="13.7767203"><ele>690.0</ele><time>2026-05-02T10:55:40.032Z</time></trkpt><trkpt lat="42.2134855" lon="13.7766888"><ele>690.0</ele><time>2026-05-02T10:55:41.032Z</time></trkpt><trkpt lat="42.2134106" lon="13.776643"><ele>690.0</ele><time>2026-05-02T10:55:42.033Z</time></trkpt><trkpt lat="42.2133305" lon="13.776585"><ele>690.0</ele><time>2026-05-02T10:55:43.033Z</time></trkpt><trkpt lat="42.2132521" lon="13.7765209"><ele>690.0</ele><time>2026-05-02T10:55:44.032Z</time></trkpt><trkpt lat="42.2131732" lon="13.7764572"><ele>690.0</ele><time>2026-05-02T10:55:45.032Z</time></trkpt><trkpt lat="42.2130955" lon="13.7764003"><ele>690.0</ele><time>2026-05-02T10:55:46.032Z</time></trkpt><trkpt lat="42.2130284" lon="13.7763609"><ele>690.0</ele><time>2026-05-02T10:55:47.032Z</time></trkpt><trkpt lat="42.2129103" lon="13.7763562"><ele>690.0</ele><time>2026-05-02T10:55:49.037Z</time></trkpt><trkpt lat="42.2128479" lon="13.7763898"><ele>690.0</ele><time>2026-05-02T10:55:50.037Z</time></trkpt><trkpt lat="42.2127743" lon="13.7764469"><ele>690.0</ele><time>2026-05-02T10:55:51.037Z</time></trkpt><trkpt lat="42.2126947" lon="13.7765091"><ele>690.0</ele><time>2026-05-02T10:55:52.037Z</time></trkpt><trkpt lat="42.2126194" lon="13.7765783"><ele>690.0</ele><time>2026-05-02T10:55:53.037Z</time></trkpt><trkpt lat="42.2125408" lon="13.7766651"><ele>690.0</ele><time>2026-05-02T10:55:54.037Z</time></trkpt><trkpt lat="42.2124624" lon="13.7767621"><ele>690.0</ele><time>2026-05-02T10:55:55.038Z</time></trkpt><trkpt lat="42.2123839" lon="13.7768484"><ele>690.0</ele><time>2026-05-02T10:55:56.037Z</time></trkpt><trkpt lat="42.2122975" lon="13.7769232"><ele>690.0</ele><time>2026-05-02T10:55:57.037Z</time></trkpt><trkpt lat="42.2122126" lon="13.7769902"><ele>688.6666666666666</ele><time>2026-05-02T10:55:58.037Z</time></trkpt><trkpt lat="42.2121263" lon="13.7770635"><ele>687.3333333333334</ele><time>2026-05-02T10:55:59.037Z</time></trkpt><trkpt lat="42.2120399" lon="13.7771317"><ele>686.0</ele><time>2026-05-02T10:56:00.037Z</time></trkpt><trkpt lat="42.2119631" lon="13.7771866"><ele>684.6666666666667</ele><time>2026-05-02T10:56:01.037Z</time></trkpt><trkpt lat="42.2118921" lon="13.777212"><ele>683.3333333333334</ele><time>2026-05-02T10:56:02.038Z</time></trkpt><trkpt lat="42.2118161" lon="13.777213"><ele>682.0</ele><time>2026-05-02T10:56:03.038Z</time></trkpt><trkpt lat="42.2117343" lon="13.7772022"><ele>682.0</ele><time>2026-05-02T10:56:04.038Z</time></trkpt><trkpt lat="42.2116437" lon="13.7771778"><ele>682.0</ele><time>2026-05-02T10:56:05.037Z</time></trkpt><trkpt lat="42.2115485" lon="13.7771363"><ele>682.0</ele><time>2026-05-02T10:56:06.037Z</time></trkpt><trkpt lat="42.2114581" lon="13.7770765"><ele>682.0</ele><time>2026-05-02T10:56:07.037Z</time></trkpt><trkpt lat="42.2113722" lon="13.7770065"><ele>682.0</ele><time>2026-05-02T10:56:08.037Z</time></trkpt><trkpt lat="42.211296" lon="13.7769214"><ele>681.8</ele><time>2026-05-02T10:56:09.037Z</time></trkpt><trkpt lat="42.2112169" lon="13.7768327"><ele>681.6</ele><time>2026-05-02T10:56:10.037Z</time></trkpt><trkpt lat="42.2111352" lon="13.7767423"><ele>681.4</ele><time>2026-05-02T10:56:11.037Z</time></trkpt><trkpt lat="42.211056" lon="13.7766538"><ele>681.1999999999999</ele><time>2026-05-02T10:56:12.037Z</time></trkpt><trkpt lat="42.2109826" lon="13.7765724"><ele>681.0</ele><time>2026-05-02T10:56:13.037Z</time></trkpt><trkpt lat="42.2109153" lon="13.7765011"><ele>681.0</ele><time>2026-05-02T10:56:14.037Z</time></trkpt><trkpt lat="42.2108558" lon="13.7764324"><ele>681.0</ele><time>2026-05-02T10:56:15.037Z</time></trkpt><trkpt lat="42.2107989" lon="13.7763604"><ele>681.0</ele><time>2026-05-02T10:56:16.037Z</time></trkpt><trkpt lat="42.2107425" lon="13.7762856"><ele>681.0</ele><time>2026-05-02T10:56:17.037Z</time></trkpt><trkpt lat="42.2106808" lon="13.7762142"><ele>681.0</ele><time>2026-05-02T10:56:18.037Z</time></trkpt><trkpt lat="42.2106079" lon="13.776155"><ele>681.0</ele><time>2026-05-02T10:56:19.037Z</time></trkpt><trkpt lat="42.210517" lon="13.7761068"><ele>680.5999999999999</ele><time>2026-05-02T10:56:20.038Z</time></trkpt><trkpt lat="42.2104162" lon="13.7760578"><ele>680.2</ele><time>2026-05-02T10:56:21.037Z</time></trkpt><trkpt lat="42.2103088" lon="13.7760102"><ele>679.8</ele><time>2026-05-02T10:56:22.037Z</time></trkpt><trkpt lat="42.2102026" lon="13.775961"><ele>679.4000000000001</ele><time>2026-05-02T10:56:23.037Z</time></trkpt><trkpt lat="42.2100939" lon="13.7759069"><ele>679.0</ele><time>2026-05-02T10:56:24.038Z</time></trkpt><trkpt lat="42.2099847" lon="13.7758505"><ele>679.0</ele><time>2026-05-02T10:56:25.037Z</time></trkpt><trkpt lat="42.2098703" lon="13.775796"><ele>679.0</ele><time>2026-05-02T10:56:26.038Z</time></trkpt><trkpt lat="42.209758" lon="13.7757494"><ele>679.0</ele><time>2026-05-02T10:56:27.037Z</time></trkpt><trkpt lat="42.2096444" lon="13.7756999"><ele>679.0</ele><time>2026-05-02T10:56:28.037Z</time></trkpt><trkpt lat="42.2095288" lon="13.7756492"><ele>679.0</ele><time>2026-05-02T10:56:29.037Z</time></trkpt><trkpt lat="42.2094139" lon="13.7756081"><ele>679.0</ele><time>2026-05-02T10:56:30.037Z</time></trkpt><trkpt lat="42.2093037" lon="13.7755683"><ele>679.0</ele><time>2026-05-02T10:56:31.037Z</time></trkpt><trkpt lat="42.2091957" lon="13.7755314"><ele>679.0</ele><time>2026-05-02T10:56:32.038Z</time></trkpt><trkpt lat="42.2090932" lon="13.7755087"><ele>679.0</ele><time>2026-05-02T10:56:33.038Z</time></trkpt><trkpt lat="42.2089967" lon="13.7754931"><ele>678.8000000000001</ele><time>2026-05-02T10:56:34.037Z</time></trkpt><trkpt lat="42.2088979" lon="13.7755028"><ele>678.6</ele><time>2026-05-02T10:56:35.037Z</time></trkpt><trkpt lat="42.208798" lon="13.7755275"><ele>678.4</ele><time>2026-05-02T10:56:36.037Z</time></trkpt><trkpt lat="42.2086953" lon="13.7755594"><ele>678.2</ele><time>2026-05-02T10:56:37.037Z</time></trkpt><trkpt lat="42.2086009" lon="13.7755908"><ele>678.0</ele><time>2026-05-02T10:56:38.038Z</time></trkpt><trkpt lat="42.2085297" lon="13.7756101"><ele>678.0</ele><time>2026-05-02T10:56:39.037Z</time></trkpt><trkpt lat="42.2084151" lon="13.775602"><ele>678.0</ele><time>2026-05-02T10:56:41.037Z</time></trkpt><trkpt lat="42.2082885" lon="13.7755125"><ele>678.0</ele><time>2026-05-02T10:56:43.037Z</time></trkpt><trkpt lat="42.2082073" lon="13.775444"><ele>678.0</ele><time>2026-05-02T10:56:44.038Z</time></trkpt><trkpt lat="42.2081259" lon="13.7753729"><ele>678.0</ele><time>2026-05-02T10:56:45.038Z</time></trkpt><trkpt lat="42.2080412" lon="13.7753103"><ele>678.0</ele><time>2026-05-02T10:56:46.038Z</time></trkpt><trkpt lat="42.2079558" lon="13.7752398"><ele>678.0</ele><time>2026-05-02T10:56:47.037Z</time></trkpt><trkpt lat="42.2078688" lon="13.7751654"><ele>678.0</ele><time>2026-05-02T10:56:48.038Z</time></trkpt><trkpt lat="42.2077774" lon="13.7750805"><ele>678.0</ele><time>2026-05-02T10:56:49.038Z</time></trkpt><trkpt lat="42.2076858" lon="13.7749892"><ele>678.0</ele><time>2026-05-02T10:56:50.037Z</time></trkpt><trkpt lat="42.2075912" lon="13.7749005"><ele>678.0</ele><time>2026-05-02T10:56:51.037Z</time></trkpt><trkpt lat="42.207505" lon="13.7748167"><ele>678.0</ele><time>2026-05-02T10:56:52.037Z</time></trkpt><trkpt lat="42.2074247" lon="13.7747426"><ele>678.0</ele><time>2026-05-02T10:56:53.037Z</time></trkpt><trkpt lat="42.2073525" lon="13.7746765"><ele>678.0</ele><time>2026-05-02T10:56:54.037Z</time></trkpt><trkpt lat="42.2072917" lon="13.7746192"><ele>678.5999999999999</ele><time>2026-05-02T10:56:55.037Z</time></trkpt><trkpt lat="42.2072135" lon="13.7745479"><ele>679.1999999999999</ele><time>2026-05-02T10:56:57.037Z</time></trkpt><trkpt lat="42.2071232" lon="13.7745282"><ele>679.8</ele><time>2026-05-02T10:56:59.037Z</time></trkpt><trkpt lat="42.2070462" lon="13.7745464"><ele>680.4</ele><time>2026-05-02T10:57:00.037Z</time></trkpt><trkpt lat="42.2069537" lon="13.7745919"><ele>681.0</ele><time>2026-05-02T10:57:01.038Z</time></trkpt><trkpt lat="42.2068472" lon="13.7746568"><ele>681.0</ele><time>2026-05-02T10:57:02.038Z</time></trkpt><trkpt lat="42.2067316" lon="13.7747272"><ele>681.0</ele><time>2026-05-02T10:57:03.038Z</time></trkpt><trkpt lat="42.2066071" lon="13.7747956"><ele>681.0</ele><time>2026-05-02T10:57:04.037Z</time></trkpt><trkpt lat="42.2064695" lon="13.7748666"><ele>681.0</ele><time>2026-05-02T10:57:05.037Z</time></trkpt><trkpt lat="42.2063351" lon="13.7749441"><ele>681.0</ele><time>2026-05-02T10:57:06.037Z</time></trkpt><trkpt lat="42.2061923" lon="13.7750207"><ele>681.0</ele><time>2026-05-02T10:57:07.037Z</time></trkpt><trkpt lat="42.2060416" lon="13.7751037"><ele>681.0</ele><time>2026-05-02T10:57:08.037Z</time></trkpt><trkpt lat="42.2058852" lon="13.7751951"><ele>681.0</ele><time>2026-05-02T10:57:09.037Z</time></trkpt><trkpt lat="42.2057217" lon="13.7752887"><ele>681.0</ele><time>2026-05-02T10:57:10.037Z</time></trkpt><trkpt lat="42.2055587" lon="13.7753808"><ele>681.0</ele><time>2026-05-02T10:57:11.037Z</time></trkpt><trkpt lat="42.2053967" lon="13.7754759"><ele>682.0</ele><time>2026-05-02T10:57:12.037Z</time></trkpt><trkpt lat="42.2052367" lon="13.7755616"><ele>683.0</ele><time>2026-05-02T10:57:13.037Z</time></trkpt><trkpt lat="42.2050867" lon="13.7756482"><ele>684.0</ele><time>2026-05-02T10:57:14.037Z</time></trkpt><trkpt lat="42.2049364" lon="13.7757349"><ele>684.6666666666666</ele><time>2026-05-02T10:57:15.037Z</time></trkpt><trkpt lat="42.2047793" lon="13.7758244"><ele>685.3333333333333</ele><time>2026-05-02T10:57:16.038Z</time></trkpt><trkpt lat="42.2046239" lon="13.775915"><ele>686.0</ele><time>2026-05-02T10:57:17.037Z</time></trkpt><trkpt lat="42.2044747" lon="13.7760012"><ele>685.6666666666666</ele><time>2026-05-02T10:57:18.037Z</time></trkpt><trkpt lat="42.2043212" lon="13.7760826"><ele>685.3333333333334</ele><time>2026-05-02T10:57:19.038Z</time></trkpt><trkpt lat="42.2041757" lon="13.776167"><ele>685.0</ele><time>2026-05-02T10:57:20.037Z</time></trkpt><trkpt lat="42.2040254" lon="13.7762552"><ele>686.6666666666667</ele><time>2026-05-02T10:57:21.037Z</time></trkpt><trkpt lat="42.203863" lon="13.7763482"><ele>688.3333333333334</ele><time>2026-05-02T10:57:22.037Z</time></trkpt><trkpt lat="42.2036963" lon="13.7764412"><ele>690.0</ele><time>2026-05-02T10:57:23.037Z</time></trkpt><trkpt lat="42.2035257" lon="13.776537"><ele>690.0</ele><time>2026-05-02T10:57:24.037Z</time></trkpt><trkpt lat="42.2033552" lon="13.7766359"><ele>690.0</ele><time>2026-05-02T10:57:25.037Z</time></trkpt><trkpt lat="42.2031809" lon="13.7767344"><ele>690.0</ele><time>2026-05-02T10:57:26.037Z</time></trkpt><trkpt lat="42.2030089" lon="13.7768276"><ele>694.6666666666666</ele><time>2026-05-02T10:57:27.037Z</time></trkpt><trkpt lat="42.2028434" lon="13.7769151"><ele>699.3333333333333</ele><time>2026-05-02T10:57:28.037Z</time></trkpt><trkpt lat="42.2026935" lon="13.7769974"><ele>704.0</ele><time>2026-05-02T10:57:29.037Z</time></trkpt><trkpt lat="42.2025614" lon="13.7770764"><ele>704.0</ele><time>2026-05-02T10:57:30.037Z</time></trkpt><trkpt lat="42.2024472" lon="13.7771484"><ele>704.0</ele><time>2026-05-02T10:57:31.037Z</time></trkpt><trkpt lat="42.2023576" lon="13.7772397"><ele>704.0</ele><time>2026-05-02T10:57:32.037Z</time></trkpt><trkpt lat="42.2022944" lon="13.777381"><ele>704.0</ele><time>2026-05-02T10:57:33.037Z</time></trkpt><trkpt lat="42.2022519" lon="13.7775466"><ele>703.0</ele><time>2026-05-02T10:57:34.038Z</time></trkpt><trkpt lat="42.2022169" lon="13.7777392"><ele>702.0</ele><time>2026-05-02T10:57:35.037Z</time></trkpt><trkpt lat="42.202172" lon="13.7779415"><ele>701.0</ele><time>2026-05-02T10:57:36.038Z</time></trkpt><trkpt lat="42.2021213" lon="13.7781563"><ele>701.0</ele><time>2026-05-02T10:57:37.037Z</time></trkpt><trkpt lat="42.2020671" lon="13.7783816"><ele>701.0</ele><time>2026-05-02T10:57:38.038Z</time></trkpt><trkpt lat="42.2020179" lon="13.778606"><ele>701.0</ele><time>2026-05-02T10:57:39.038Z</time></trkpt><trkpt lat="42.2019715" lon="13.7788195"><ele>703.0</ele><time>2026-05-02T10:57:40.037Z</time></trkpt><trkpt lat="42.2019268" lon="13.7790297"><ele>705.0</ele><time>2026-05-02T10:57:41.037Z</time></trkpt><trkpt lat="42.2018815" lon="13.7792446"><ele>707.0</ele><time>2026-05-02T10:57:42.038Z</time></trkpt><trkpt lat="42.201834" lon="13.7794589"><ele>710.0</ele><time>2026-05-02T10:57:43.037Z</time></trkpt><trkpt lat="42.2017873" lon="13.7796792"><ele>713.0</ele><time>2026-05-02T10:57:44.037Z</time></trkpt><trkpt lat="42.2017478" lon="13.779904"><ele>716.0</ele><time>2026-05-02T10:57:45.037Z</time></trkpt><trkpt lat="42.2017072" lon="13.7801231"><ele>718.0</ele><time>2026-05-02T10:57:46.038Z</time></trkpt><trkpt lat="42.2016751" lon="13.7803471"><ele>720.0</ele><time>2026-05-02T10:57:47.037Z</time></trkpt><trkpt lat="42.2016505" lon="13.7805805"><ele>722.0</ele><time>2026-05-02T10:57:48.037Z</time></trkpt><trkpt lat="42.2016393" lon="13.7808183"><ele>723.3333333333333</ele><time>2026-05-02T10:57:49.037Z</time></trkpt><trkpt lat="42.2016441" lon="13.7810561"><ele>724.6666666666666</ele><time>2026-05-02T10:57:50.037Z</time></trkpt><trkpt lat="42.2016552" lon="13.7812942"><ele>726.0</ele><time>2026-05-02T10:57:51.037Z</time></trkpt><trkpt lat="42.2016805" lon="13.7815168"><ele>726.0</ele><time>2026-05-02T10:57:52.037Z</time></trkpt><trkpt lat="42.2017028" lon="13.781719"><ele>726.0</ele><time>2026-05-02T10:57:53.037Z</time></trkpt><trkpt lat="42.2017035" lon="13.7819243"><ele>726.0</ele><time>2026-05-02T10:57:54.037Z</time></trkpt><trkpt lat="42.2016712" lon="13.7821305"><ele>728.0</ele><time>2026-05-02T10:57:55.037Z</time></trkpt><trkpt lat="42.2016165" lon="13.7823356"><ele>730.0</ele><time>2026-05-02T10:57:56.037Z</time></trkpt><trkpt lat="42.2015453" lon="13.7825519"><ele>732.0</ele><time>2026-05-02T10:57:57.037Z</time></trkpt><trkpt lat="42.2014648" lon="13.7827817"><ele>732.0</ele><time>2026-05-02T10:57:58.037Z</time></trkpt><trkpt lat="42.2013831" lon="13.7830114"><ele>732.0</ele><time>2026-05-02T10:57:59.038Z</time></trkpt><trkpt lat="42.2012993" lon="13.7832352"><ele>732.0</ele><time>2026-05-02T10:58:00.038Z</time></trkpt><trkpt lat="42.2012143" lon="13.7834458"><ele>737.0</ele><time>2026-05-02T10:58:01.038Z</time></trkpt><trkpt lat="42.2011268" lon="13.7836403"><ele>742.0</ele><time>2026-05-02T10:58:02.037Z</time></trkpt><trkpt lat="42.2010374" lon="13.7838339"><ele>747.0</ele><time>2026-05-02T10:58:03.037Z</time></trkpt><trkpt lat="42.2009472" lon="13.7840334"><ele>747.0</ele><time>2026-05-02T10:58:04.037Z</time></trkpt><trkpt lat="42.2008579" lon="13.784231"><ele>747.0</ele><time>2026-05-02T10:58:05.037Z</time></trkpt><trkpt lat="42.2007624" lon="13.7844138"><ele>747.0</ele><time>2026-05-02T10:58:06.037Z</time></trkpt><trkpt lat="42.2006695" lon="13.7845699"><ele>748.8</ele><time>2026-05-02T10:58:07.038Z</time></trkpt><trkpt lat="42.2005867" lon="13.7846995"><ele>750.6</ele><time>2026-05-02T10:58:08.037Z</time></trkpt><trkpt lat="42.2005104" lon="13.784825"><ele>752.4</ele><time>2026-05-02T10:58:09.037Z</time></trkpt><trkpt lat="42.2004414" lon="13.7849318"><ele>754.1999999999999</ele><time>2026-05-02T10:58:10.037Z</time></trkpt><trkpt lat="42.2003788" lon="13.7850228"><ele>756.0</ele><time>2026-05-02T10:58:11.038Z</time></trkpt><trkpt lat="42.2003247" lon="13.7851014"><ele>756.0</ele><time>2026-05-02T10:58:12.038Z</time></trkpt><trkpt lat="42.2002754" lon="13.7851582"><ele>756.0</ele><time>2026-05-02T10:58:13.037Z</time></trkpt><trkpt lat="42.2001973" lon="13.7851703"><ele>756.0</ele><time>2026-05-02T10:58:15.037Z</time></trkpt><trkpt lat="42.2001711" lon="13.7850845"><ele>756.0</ele><time>2026-05-02T10:58:17.037Z</time></trkpt><trkpt lat="42.2001529" lon="13.7849542"><ele>756.0</ele><time>2026-05-02T10:58:19.037Z</time></trkpt><trkpt lat="42.200133" lon="13.7848704"><ele>756.0</ele><time>2026-05-02T10:58:20.037Z</time></trkpt><trkpt lat="42.200106" lon="13.7847682"><ele>756.0</ele><time>2026-05-02T10:58:21.037Z</time></trkpt><trkpt lat="42.2000759" lon="13.7846389"><ele>756.0</ele><time>2026-05-02T10:58:22.037Z</time></trkpt><trkpt lat="42.2000436" lon="13.7844866"><ele>756.0</ele><time>2026-05-02T10:58:23.037Z</time></trkpt><trkpt lat="42.199989" lon="13.7843196"><ele>756.0</ele><time>2026-05-02T10:58:24.037Z</time></trkpt><trkpt lat="42.1999205" lon="13.7841459"><ele>755.75</ele><time>2026-05-02T10:58:25.037Z</time></trkpt><trkpt lat="42.1998573" lon="13.7839698"><ele>755.5</ele><time>2026-05-02T10:58:26.037Z</time></trkpt><trkpt lat="42.1997964" lon="13.7837931"><ele>755.25</ele><time>2026-05-02T10:58:27.037Z</time></trkpt><trkpt lat="42.1997707" lon="13.7836042"><ele>755.0</ele><time>2026-05-02T10:58:28.037Z</time></trkpt><trkpt lat="42.1997593" lon="13.7834265"><ele>758.25</ele><time>2026-05-02T10:58:29.037Z</time></trkpt><trkpt lat="42.1997393" lon="13.783276"><ele>761.5</ele><time>2026-05-02T10:58:30.038Z</time></trkpt><trkpt lat="42.1996717" lon="13.7831448"><ele>764.75</ele><time>2026-05-02T10:58:31.037Z</time></trkpt><trkpt lat="42.1995702" lon="13.7830416"><ele>768.0</ele><time>2026-05-02T10:58:32.037Z</time></trkpt><trkpt lat="42.1994404" lon="13.7829593"><ele>768.0</ele><time>2026-05-02T10:58:33.037Z</time></trkpt><trkpt lat="42.1992935" lon="13.7828964"><ele>768.0</ele><time>2026-05-02T10:58:34.037Z</time></trkpt><trkpt lat="42.1991371" lon="13.7828781"><ele>768.0</ele><time>2026-05-02T10:58:35.037Z</time></trkpt><trkpt lat="42.198965" lon="13.7828777"><ele>769.6666666666667</ele><time>2026-05-02T10:58:36.037Z</time></trkpt><trkpt lat="42.1988068" lon="13.7828489"><ele>771.3333333333334</ele><time>2026-05-02T10:58:37.037Z</time></trkpt><trkpt lat="42.1986502" lon="13.7827948"><ele>773.0</ele><time>2026-05-02T10:58:38.037Z</time></trkpt><trkpt lat="42.1984974" lon="13.7827367"><ele>773.0</ele><time>2026-05-02T10:58:39.037Z</time></trkpt><trkpt lat="42.1983314" lon="13.782696"><ele>773.0</ele><time>2026-05-02T10:58:40.037Z</time></trkpt><trkpt lat="42.1981565" lon="13.782684"><ele>773.0</ele><time>2026-05-02T10:58:41.037Z</time></trkpt><trkpt lat="42.197973" lon="13.7826882"><ele>774.3333333333334</ele><time>2026-05-02T10:58:42.037Z</time></trkpt><trkpt lat="42.1978037" lon="13.7827195"><ele>775.6666666666667</ele><time>2026-05-02T10:58:43.038Z</time></trkpt><trkpt lat="42.1976515" lon="13.7827439"><ele>777.0</ele><time>2026-05-02T10:58:44.037Z</time></trkpt><trkpt lat="42.1974906" lon="13.7827568"><ele>777.0</ele><time>2026-05-02T10:58:45.037Z</time></trkpt><trkpt lat="42.197345" lon="13.7827307"><ele>777.0</ele><time>2026-05-02T10:58:46.037Z</time></trkpt><trkpt lat="42.1971971" lon="13.7826812"><ele>777.0</ele><time>2026-05-02T10:58:47.038Z</time></trkpt><trkpt lat="42.1970755" lon="13.7825848"><ele>777.0</ele><time>2026-05-02T10:58:48.038Z</time></trkpt><trkpt lat="42.19697" lon="13.7824597"><ele>776.25</ele><time>2026-05-02T10:58:49.037Z</time></trkpt><trkpt lat="42.1968814" lon="13.7823082"><ele>775.5</ele><time>2026-05-02T10:58:50.037Z</time></trkpt><trkpt lat="42.1967801" lon="13.7821642"><ele>774.75</ele><time>2026-05-02T10:58:51.037Z</time></trkpt><trkpt lat="42.1966562" lon="13.7820626"><ele>774.0</ele><time>2026-05-02T10:58:52.037Z</time></trkpt><trkpt lat="42.1965008" lon="13.782"><ele>778.0</ele><time>2026-05-02T10:58:53.037Z</time></trkpt><trkpt lat="42.1963301" lon="13.7819583"><ele>782.0</ele><time>2026-05-02T10:58:54.037Z</time></trkpt><trkpt lat="42.1961515" lon="13.7819205"><ele>786.0</ele><time>2026-05-02T10:58:55.037Z</time></trkpt><trkpt lat="42.1959732" lon="13.7818817"><ele>784.3333333333333</ele><time>2026-05-02T10:58:56.037Z</time></trkpt><trkpt lat="42.1958052" lon="13.7818434"><ele>782.6666666666666</ele><time>2026-05-02T10:58:57.037Z</time></trkpt><trkpt lat="42.1956404" lon="13.7818039"><ele>781.0</ele><time>2026-05-02T10:58:58.037Z</time></trkpt><trkpt lat="42.1954805" lon="13.7817638"><ele>781.0</ele><time>2026-05-02T10:58:59.037Z</time></trkpt><trkpt lat="42.1953294" lon="13.7817326"><ele>781.0</ele><time>2026-05-02T10:59:00.037Z</time></trkpt><trkpt lat="42.1951715" lon="13.7817036"><ele>781.0</ele><time>2026-05-02T10:59:01.038Z</time></trkpt><trkpt lat="42.1950087" lon="13.7816933"><ele>781.0</ele><time>2026-05-02T10:59:02.037Z</time></trkpt><trkpt lat="42.1948534" lon="13.7817046"><ele>781.0</ele><time>2026-05-02T10:59:03.037Z</time></trkpt><trkpt lat="42.1947109" lon="13.7817334"><ele>781.0</ele><time>2026-05-02T10:59:04.037Z</time></trkpt><trkpt lat="42.1945671" lon="13.7817396"><ele>781.0</ele><time>2026-05-02T10:59:05.037Z</time></trkpt><trkpt lat="42.1944315" lon="13.7817141"><ele>782.5</ele><time>2026-05-02T10:59:06.037Z</time></trkpt><trkpt lat="42.1942981" lon="13.7816631"><ele>784.0</ele><time>2026-05-02T10:59:07.038Z</time></trkpt><trkpt lat="42.1941786" lon="13.7815819"><ele>785.5</ele><time>2026-05-02T10:59:08.037Z</time></trkpt><trkpt lat="42.1940862" lon="13.7814757"><ele>787.0</ele><time>2026-05-02T10:59:09.037Z</time></trkpt><trkpt lat="42.1940209" lon="13.7813179"><ele>790.5</ele><time>2026-05-02T10:59:10.037Z</time></trkpt><trkpt lat="42.1939881" lon="13.7811312"><ele>794.0</ele><time>2026-05-02T10:59:11.037Z</time></trkpt><trkpt lat="42.1939689" lon="13.7809319"><ele>797.5</ele><time>2026-05-02T10:59:12.037Z</time></trkpt><trkpt lat="42.1939585" lon="13.7807209"><ele>801.0</ele><time>2026-05-02T10:59:13.037Z</time></trkpt><trkpt lat="42.1939618" lon="13.7805081"><ele>802.3333333333333</ele><time>2026-05-02T10:59:14.037Z</time></trkpt><trkpt lat="42.1939884" lon="13.7802949"><ele>803.6666666666666</ele><time>2026-05-02T10:59:15.037Z</time></trkpt><trkpt lat="42.194028" lon="13.7800771"><ele>805.0</ele><time>2026-05-02T10:59:16.037Z</time></trkpt><trkpt lat="42.1940696" lon="13.7798569"><ele>802.0</ele><time>2026-05-02T10:59:17.037Z</time></trkpt><trkpt lat="42.1941109" lon="13.7796481"><ele>799.0</ele><time>2026-05-02T10:59:18.037Z</time></trkpt><trkpt lat="42.1941491" lon="13.7794529"><ele>796.0</ele><time>2026-05-02T10:59:19.037Z</time></trkpt><trkpt lat="42.1941705" lon="13.7792555"><ele>796.0</ele><time>2026-05-02T10:59:20.038Z</time></trkpt><trkpt lat="42.1941686" lon="13.7790488"><ele>796.0</ele><time>2026-05-02T10:59:21.038Z</time></trkpt><trkpt lat="42.1941478" lon="13.7788323"><ele>796.0</ele><time>2026-05-02T10:59:22.037Z</time></trkpt><trkpt lat="42.19412" lon="13.7786077"><ele>799.0</ele><time>2026-05-02T10:59:23.038Z</time></trkpt><trkpt lat="42.1941059" lon="13.7783806"><ele>802.0</ele><time>2026-05-02T10:59:24.037Z</time></trkpt><trkpt lat="42.1941101" lon="13.7781544"><ele>805.0</ele><time>2026-05-02T10:59:25.037Z</time></trkpt><trkpt lat="42.1941391" lon="13.7779143"><ele>808.3333333333333</ele><time>2026-05-02T10:59:26.037Z</time></trkpt><trkpt lat="42.1941689" lon="13.7776723"><ele>811.6666666666667</ele><time>2026-05-02T10:59:27.038Z</time></trkpt><trkpt lat="42.1942033" lon="13.7774507"><ele>815.0</ele><time>2026-05-02T10:59:28.037Z</time></trkpt><trkpt lat="42.194248" lon="13.7772351"><ele>815.0</ele><time>2026-05-02T10:59:29.038Z</time></trkpt><trkpt lat="42.1943055" lon="13.7770171"><ele>815.0</ele><time>2026-05-02T10:59:30.037Z</time></trkpt><trkpt lat="42.1943828" lon="13.776803"><ele>815.0</ele><time>2026-05-02T10:59:31.037Z</time></trkpt><trkpt lat="42.1944716" lon="13.7765993"><ele>817.6666666666667</ele><time>2026-05-02T10:59:32.037Z</time></trkpt><trkpt lat="42.1945622" lon="13.776399"><ele>820.3333333333333</ele><time>2026-05-02T10:59:33.037Z</time></trkpt><trkpt lat="42.1946499" lon="13.7762037"><ele>823.0</ele><time>2026-05-02T10:59:34.037Z</time></trkpt><trkpt lat="42.1947112" lon="13.7760017"><ele>820.3333333333333</ele><time>2026-05-02T10:59:35.037Z</time></trkpt><trkpt lat="42.1947717" lon="13.7758016"><ele>817.6666666666667</ele><time>2026-05-02T10:59:36.037Z</time></trkpt><trkpt lat="42.1948594" lon="13.7756181"><ele>815.0</ele><time>2026-05-02T10:59:37.037Z</time></trkpt><trkpt lat="42.194975" lon="13.7754509"><ele>815.0</ele><time>2026-05-02T10:59:38.037Z</time></trkpt><trkpt lat="42.1950967" lon="13.7752881"><ele>815.0</ele><time>2026-05-02T10:59:39.037Z</time></trkpt><trkpt lat="42.1952137" lon="13.7751116"><ele>815.0</ele><time>2026-05-02T10:59:40.037Z</time></trkpt><trkpt lat="42.1953252" lon="13.7749188"><ele>818.6666666666667</ele><time>2026-05-02T10:59:41.037Z</time></trkpt><trkpt lat="42.1954344" lon="13.7747201"><ele>822.3333333333333</ele><time>2026-05-02T10:59:42.037Z</time></trkpt><trkpt lat="42.1955468" lon="13.7745231"><ele>826.0</ele><time>2026-05-02T10:59:43.037Z</time></trkpt><trkpt lat="42.1956572" lon="13.7743342"><ele>827.0</ele><time>2026-05-02T10:59:44.037Z</time></trkpt><trkpt lat="42.195764" lon="13.7741537"><ele>828.0</ele><time>2026-05-02T10:59:45.037Z</time></trkpt><trkpt lat="42.1958625" lon="13.7739863"><ele>829.0</ele><time>2026-05-02T10:59:46.037Z</time></trkpt><trkpt lat="42.1959475" lon="13.7738297"><ele>829.0</ele><time>2026-05-02T10:59:47.037Z</time></trkpt><trkpt lat="42.1960127" lon="13.7736688"><ele>829.0</ele><time>2026-05-02T10:59:48.037Z</time></trkpt><trkpt lat="42.1960402" lon="13.7734843"><ele>829.0</ele><time>2026-05-02T10:59:49.037Z</time></trkpt><trkpt lat="42.1960403" lon="13.7732835"><ele>829.0</ele><time>2026-05-02T10:59:50.038Z</time></trkpt><trkpt lat="42.1960389" lon="13.7730622"><ele>832.6666666666666</ele><time>2026-05-02T10:59:51.037Z</time></trkpt><trkpt lat="42.196042" lon="13.7728369"><ele>836.3333333333333</ele><time>2026-05-02T10:59:52.037Z</time></trkpt><trkpt lat="42.1960505" lon="13.7726041"><ele>840.0</ele><time>2026-05-02T10:59:53.037Z</time></trkpt><trkpt lat="42.1960821" lon="13.7723877"><ele>841.0</ele><time>2026-05-02T10:59:54.037Z</time></trkpt><trkpt lat="42.1961157" lon="13.77217"><ele>842.0</ele><time>2026-05-02T10:59:55.038Z</time></trkpt><trkpt lat="42.1961314" lon="13.7719614"><ele>843.0</ele><time>2026-05-02T10:59:56.038Z</time></trkpt><trkpt lat="42.1961246" lon="13.7717744"><ele>843.0</ele><time>2026-05-02T10:59:57.037Z</time></trkpt><trkpt lat="42.1961001" lon="13.771618"><ele>843.0</ele><time>2026-05-02T10:59:58.037Z</time></trkpt><trkpt lat="42.1960318" lon="13.7715024"><ele>843.0</ele><time>2026-05-02T10:59:59.037Z</time></trkpt><trkpt lat="42.1959316" lon="13.7714219"><ele>843.0</ele><time>2026-05-02T11:00:00.037Z</time></trkpt><trkpt lat="42.1957924" lon="13.7713678"><ele>846.6666666666667</ele><time>2026-05-02T11:00:01.037Z</time></trkpt><trkpt lat="42.1956381" lon="13.771353"><ele>850.3333333333334</ele><time>2026-05-02T11:00:02.038Z</time></trkpt><trkpt lat="42.1954813" lon="13.771365"><ele>854.0</ele><time>2026-05-02T11:00:03.038Z</time></trkpt><trkpt lat="42.1953364" lon="13.7713872"><ele>854.0</ele><time>2026-05-02T11:00:04.037Z</time></trkpt><trkpt lat="42.1952141" lon="13.7713885"><ele>854.0000000000001</ele><time>2026-05-02T11:00:05.037Z</time></trkpt><trkpt lat="42.1951105" lon="13.7713517"><ele>854.0000000000001</ele><time>2026-05-02T11:00:06.037Z</time></trkpt><trkpt lat="42.1950058" lon="13.7712966"><ele>854.0</ele><time>2026-05-02T11:00:07.037Z</time></trkpt><trkpt lat="42.1949398" lon="13.7711867"><ele>854.0</ele><time>2026-05-02T11:00:08.037Z</time></trkpt><trkpt lat="42.1949148" lon="13.7710456"><ele>853.0</ele><time>2026-05-02T11:00:09.038Z</time></trkpt><trkpt lat="42.1949002" lon="13.7708782"><ele>852.0</ele><time>2026-05-02T11:00:10.037Z</time></trkpt><trkpt lat="42.1948786" lon="13.7706938"><ele>851.0</ele><time>2026-05-02T11:00:11.038Z</time></trkpt><trkpt lat="42.1948378" lon="13.7705079"><ele>850.0</ele><time>2026-05-02T11:00:12.037Z</time></trkpt><trkpt lat="42.1947746" lon="13.770327"><ele>852.75</ele><time>2026-05-02T11:00:13.037Z</time></trkpt><trkpt lat="42.1947024" lon="13.7701561"><ele>855.5</ele><time>2026-05-02T11:00:14.038Z</time></trkpt><trkpt lat="42.1946245" lon="13.7699881"><ele>858.25</ele><time>2026-05-02T11:00:15.038Z</time></trkpt><trkpt lat="42.1945585" lon="13.7698266"><ele>861.0</ele><time>2026-05-02T11:00:16.037Z</time></trkpt><trkpt lat="42.1944855" lon="13.7696937"><ele>861.0</ele><time>2026-05-02T11:00:17.038Z</time></trkpt><trkpt lat="42.1943895" lon="13.7695968"><ele>861.0</ele><time>2026-05-02T11:00:18.038Z</time></trkpt><trkpt lat="42.1942629" lon="13.7695615"><ele>861.0</ele><time>2026-05-02T11:00:19.037Z</time></trkpt><trkpt lat="42.1941171" lon="13.7695744"><ele>861.0</ele><time>2026-05-02T11:00:20.037Z</time></trkpt><trkpt lat="42.1939523" lon="13.7696183"><ele>864.3333333333333</ele><time>2026-05-02T11:00:21.037Z</time></trkpt><trkpt lat="42.193784" lon="13.7696471"><ele>867.6666666666666</ele><time>2026-05-02T11:00:22.037Z</time></trkpt><trkpt lat="42.1936166" lon="13.7696308"><ele>871.0</ele><time>2026-05-02T11:00:23.037Z</time></trkpt><trkpt lat="42.1934413" lon="13.7695922"><ele>871.0</ele><time>2026-05-02T11:00:24.037Z</time></trkpt><trkpt lat="42.193261" lon="13.7695851"><ele>871.0</ele><time>2026-05-02T11:00:25.037Z</time></trkpt><trkpt lat="42.1930769" lon="13.769591"><ele>871.0</ele><time>2026-05-02T11:00:26.038Z</time></trkpt><trkpt lat="42.192906" lon="13.7695903"><ele>872.0</ele><time>2026-05-02T11:00:27.037Z</time></trkpt><trkpt lat="42.1927478" lon="13.7695777"><ele>873.0</ele><time>2026-05-02T11:00:28.037Z</time></trkpt><trkpt lat="42.1925922" lon="13.7695592"><ele>874.0</ele><time>2026-05-02T11:00:29.037Z</time></trkpt><trkpt lat="42.1924336" lon="13.7695133"><ele>873.6666666666666</ele><time>2026-05-02T11:00:30.037Z</time></trkpt><trkpt lat="42.1922672" lon="13.7694526"><ele>873.3333333333333</ele><time>2026-05-02T11:00:31.038Z</time></trkpt><trkpt lat="42.1921018" lon="13.7694004"><ele>873.0</ele><time>2026-05-02T11:00:32.038Z</time></trkpt><trkpt lat="42.191929" lon="13.7693919"><ele>873.0</ele><time>2026-05-02T11:00:33.037Z</time></trkpt><trkpt lat="42.191765" lon="13.7693975"><ele>873.0</ele><time>2026-05-02T11:00:34.038Z</time></trkpt><trkpt lat="42.1916182" lon="13.7693963"><ele>873.0</ele><time>2026-05-02T11:00:35.038Z</time></trkpt><trkpt lat="42.1914856" lon="13.7693796"><ele>873.0</ele><time>2026-05-02T11:00:36.037Z</time></trkpt><trkpt lat="42.1913707" lon="13.7693368"><ele>872.8</ele><time>2026-05-02T11:00:37.038Z</time></trkpt><trkpt lat="42.1912755" lon="13.769249"><ele>872.5999999999999</ele><time>2026-05-02T11:00:38.037Z</time></trkpt><trkpt lat="42.1911916" lon="13.7691388"><ele>872.4000000000001</ele><time>2026-05-02T11:00:39.037Z</time></trkpt><trkpt lat="42.1911253" lon="13.7690289"><ele>872.2</ele><time>2026-05-02T11:00:40.037Z</time></trkpt><trkpt lat="42.1910719" lon="13.7689357"><ele>872.0</ele><time>2026-05-02T11:00:41.037Z</time></trkpt><trkpt lat="42.1910242" lon="13.7688604"><ele>872.0000000000001</ele><time>2026-05-02T11:00:42.037Z</time></trkpt><trkpt lat="42.1909414" lon="13.7687636"><ele>872.0</ele><time>2026-05-02T11:00:44.037Z</time></trkpt><trkpt lat="42.1908857" lon="13.7687193"><ele>872.0</ele><time>2026-05-02T11:00:46.037Z</time></trkpt><trkpt lat="42.1908629" lon="13.768613"><ele>872.0</ele><time>2026-05-02T11:00:49.037Z</time></trkpt><trkpt lat="42.1909171" lon="13.7685553"><ele>872.0000000000001</ele><time>2026-05-02T11:00:51.037Z</time></trkpt><trkpt lat="42.1910127" lon="13.7685141"><ele>872.0</ele><time>2026-05-02T11:00:53.037Z</time></trkpt><trkpt lat="42.191091" lon="13.7684484"><ele>872.1666666666667</ele><time>2026-05-02T11:00:55.037Z</time></trkpt><trkpt lat="42.1911616" lon="13.7683447"><ele>872.3333333333334</ele><time>2026-05-02T11:00:57.037Z</time></trkpt><trkpt lat="42.1912004" lon="13.7682766"><ele>872.5</ele><time>2026-05-02T11:00:58.037Z</time></trkpt><trkpt lat="42.1912388" lon="13.7682003"><ele>872.6666666666667</ele><time>2026-05-02T11:00:59.037Z</time></trkpt><trkpt lat="42.1912852" lon="13.7681218"><ele>872.8333333333334</ele><time>2026-05-02T11:01:00.037Z</time></trkpt><trkpt lat="42.1913348" lon="13.7680349"><ele>873.0</ele><time>2026-05-02T11:01:01.037Z</time></trkpt><trkpt lat="42.191394" lon="13.7679506"><ele>873.0</ele><time>2026-05-02T11:01:02.037Z</time></trkpt><trkpt lat="42.1914555" lon="13.7678693"><ele>873.0</ele><time>2026-05-02T11:01:03.037Z</time></trkpt><trkpt lat="42.1915163" lon="13.7678023"><ele>873.0</ele><time>2026-05-02T11:01:04.037Z</time></trkpt><trkpt lat="42.1916057" lon="13.7677097"><ele>873.0</ele><time>2026-05-02T11:01:06.037Z</time></trkpt><trkpt lat="42.1916896" lon="13.7676262"><ele>873.0</ele><time>2026-05-02T11:01:08.037Z</time></trkpt><trkpt lat="42.1917798" lon="13.7675044"><ele>875.5</ele><time>2026-05-02T11:01:10.038Z</time></trkpt><trkpt lat="42.1918208" lon="13.7674221"><ele>878.0</ele><time>2026-05-02T11:01:11.038Z</time></trkpt><trkpt lat="42.1918574" lon="13.767333"><ele>880.5</ele><time>2026-05-02T11:01:12.038Z</time></trkpt><trkpt lat="42.1918948" lon="13.7672393"><ele>883.0</ele><time>2026-05-02T11:01:13.038Z</time></trkpt><trkpt lat="42.1919307" lon="13.7671435"><ele>885.5</ele><time>2026-05-02T11:01:14.038Z</time></trkpt><trkpt lat="42.1919565" lon="13.7670454"><ele>888.0</ele><time>2026-05-02T11:01:15.037Z</time></trkpt><trkpt lat="42.1919801" lon="13.7669452"><ele>890.0</ele><time>2026-05-02T11:01:16.038Z</time></trkpt><trkpt lat="42.1920061" lon="13.7668479"><ele>892.0</ele><time>2026-05-02T11:01:17.038Z</time></trkpt><trkpt lat="42.1920434" lon="13.7667605"><ele>894.0</ele><time>2026-05-02T11:01:18.037Z</time></trkpt><trkpt lat="42.1920848" lon="13.7666761"><ele>896.0</ele><time>2026-05-02T11:01:19.037Z</time></trkpt><trkpt lat="42.1921278" lon="13.7665886"><ele>898.0</ele><time>2026-05-02T11:01:20.037Z</time></trkpt><trkpt lat="42.1921685" lon="13.76651"><ele>900.0</ele><time>2026-05-02T11:01:21.037Z</time></trkpt><trkpt lat="42.1922114" lon="13.7664404"><ele>902.0</ele><time>2026-05-02T11:01:22.038Z</time></trkpt><trkpt lat="42.1922525" lon="13.7663708"><ele>902.0000000000001</ele><time>2026-05-02T11:01:23.037Z</time></trkpt><trkpt lat="42.1923013" lon="13.7662927"><ele>902.0</ele><time>2026-05-02T11:01:24.037Z</time></trkpt><trkpt lat="42.1923561" lon="13.7662056"><ele>902.0</ele><time>2026-05-02T11:01:25.037Z</time></trkpt><trkpt lat="42.1924154" lon="13.7661133"><ele>902.0</ele><time>2026-05-02T11:01:26.037Z</time></trkpt><trkpt lat="42.1924806" lon="13.7660149"><ele>902.0000000000001</ele><time>2026-05-02T11:01:27.037Z</time></trkpt><trkpt lat="42.192544" lon="13.7659097"><ele>902.0</ele><time>2026-05-02T11:01:28.037Z</time></trkpt><trkpt lat="42.1926093" lon="13.765808"><ele>902.8</ele><time>2026-05-02T11:01:29.037Z</time></trkpt><trkpt lat="42.1926785" lon="13.7657137"><ele>903.6</ele><time>2026-05-02T11:01:30.037Z</time></trkpt><trkpt lat="42.1927481" lon="13.7656236"><ele>904.3999999999999</ele><time>2026-05-02T11:01:31.037Z</time></trkpt><trkpt lat="42.1928172" lon="13.7655324"><ele>905.1999999999999</ele><time>2026-05-02T11:01:32.038Z</time></trkpt><trkpt lat="42.1928886" lon="13.765438"><ele>906.0</ele><time>2026-05-02T11:01:33.037Z</time></trkpt><trkpt lat="42.192959" lon="13.7653453"><ele>906.0</ele><time>2026-05-02T11:01:34.037Z</time></trkpt><trkpt lat="42.1930276" lon="13.7652542"><ele>905.9999999999999</ele><time>2026-05-02T11:01:35.037Z</time></trkpt><trkpt lat="42.1930932" lon="13.7651614"><ele>905.9999999999999</ele><time>2026-05-02T11:01:36.037Z</time></trkpt><trkpt lat="42.193159" lon="13.76505"><ele>906.0</ele><time>2026-05-02T11:01:37.038Z</time></trkpt><trkpt lat="42.1932246" lon="13.7649408"><ele>906.0</ele><time>2026-05-02T11:01:38.037Z</time></trkpt><trkpt lat="42.1932918" lon="13.7648372"><ele>906.5999999999999</ele><time>2026-05-02T11:01:39.037Z</time></trkpt><trkpt lat="42.1933605" lon="13.7647391"><ele>907.1999999999999</ele><time>2026-05-02T11:01:40.037Z</time></trkpt><trkpt lat="42.1934335" lon="13.7646485"><ele>907.8000000000001</ele><time>2026-05-02T11:01:41.037Z</time></trkpt><trkpt lat="42.1935128" lon="13.7645622"><ele>908.4000000000001</ele><time>2026-05-02T11:01:42.037Z</time></trkpt><trkpt lat="42.1935982" lon="13.7644935"><ele>909.0</ele><time>2026-05-02T11:01:43.037Z</time></trkpt><trkpt lat="42.1936814" lon="13.7644451"><ele>909.0</ele><time>2026-05-02T11:01:44.038Z</time></trkpt><trkpt lat="42.1937662" lon="13.7644093"><ele>909.0</ele><time>2026-05-02T11:01:45.037Z</time></trkpt><trkpt lat="42.193849" lon="13.7643709"><ele>909.0</ele><time>2026-05-02T11:01:46.037Z</time></trkpt><trkpt lat="42.1939213" lon="13.7643153"><ele>909.0</ele><time>2026-05-02T11:01:47.037Z</time></trkpt><trkpt lat="42.1939846" lon="13.7642281"><ele>909.0</ele><time>2026-05-02T11:01:48.037Z</time></trkpt><trkpt lat="42.1940374" lon="13.7641215"><ele>909.0</ele><time>2026-05-02T11:01:49.037Z</time></trkpt><trkpt lat="42.1940931" lon="13.7639891"><ele>909.8000000000001</ele><time>2026-05-02T11:01:50.037Z</time></trkpt><trkpt lat="42.1941505" lon="13.7638486"><ele>910.6000000000001</ele><time>2026-05-02T11:01:51.037Z</time></trkpt><trkpt lat="42.1942036" lon="13.7637142"><ele>911.4</ele><time>2026-05-02T11:01:52.037Z</time></trkpt><trkpt lat="42.194253" lon="13.7635977"><ele>912.2</ele><time>2026-05-02T11:01:53.037Z</time></trkpt><trkpt lat="42.1943118" lon="13.7634987"><ele>913.0</ele><time>2026-05-02T11:01:54.037Z</time></trkpt><trkpt lat="42.1943709" lon="13.7634067"><ele>915.4</ele><time>2026-05-02T11:01:55.037Z</time></trkpt><trkpt lat="42.1944369" lon="13.7633137"><ele>917.8</ele><time>2026-05-02T11:01:56.037Z</time></trkpt><trkpt lat="42.1945093" lon="13.7632132"><ele>920.2</ele><time>2026-05-02T11:01:57.037Z</time></trkpt><trkpt lat="42.1945768" lon="13.7631105"><ele>922.6</ele><time>2026-05-02T11:01:58.037Z</time></trkpt><trkpt lat="42.1946429" lon="13.7630178"><ele>925.0</ele><time>2026-05-02T11:01:59.037Z</time></trkpt><trkpt lat="42.1947091" lon="13.7629393"><ele>924.9999999999999</ele><time>2026-05-02T11:02:00.038Z</time></trkpt><trkpt lat="42.194774" lon="13.7628773"><ele>925.0</ele><time>2026-05-02T11:02:01.037Z</time></trkpt><trkpt lat="42.194841" lon="13.762823"><ele>925.0</ele><time>2026-05-02T11:02:02.037Z</time></trkpt><trkpt lat="42.1949177" lon="13.7627765"><ele>925.0</ele><time>2026-05-02T11:02:03.037Z</time></trkpt><trkpt lat="42.1949997" lon="13.7627304"><ele>924.9999999999999</ele><time>2026-05-02T11:02:04.037Z</time></trkpt><trkpt lat="42.195083" lon="13.7626904"><ele>925.0</ele><time>2026-05-02T11:02:05.037Z</time></trkpt><trkpt lat="42.1951629" lon="13.7626601"><ele>924.4999999999999</ele><time>2026-05-02T11:02:06.037Z</time></trkpt><trkpt lat="42.1952431" lon="13.762623"><ele>924.0</ele><time>2026-05-02T11:02:07.037Z</time></trkpt><trkpt lat="42.1953204" lon="13.7625777"><ele>923.5</ele><time>2026-05-02T11:02:08.037Z</time></trkpt><trkpt lat="42.1953942" lon="13.7625164"><ele>923.0</ele><time>2026-05-02T11:02:09.037Z</time></trkpt><trkpt lat="42.1954593" lon="13.7624332"><ele>922.4999999999999</ele><time>2026-05-02T11:02:10.037Z</time></trkpt><trkpt lat="42.1955239" lon="13.7623348"><ele>922.0</ele><time>2026-05-02T11:02:11.038Z</time></trkpt><trkpt lat="42.1955889" lon="13.7622254"><ele>921.9999999999999</ele><time>2026-05-02T11:02:12.037Z</time></trkpt><trkpt lat="42.1956534" lon="13.7621139"><ele>922.0</ele><time>2026-05-02T11:02:13.038Z</time></trkpt><trkpt lat="42.1957119" lon="13.7620106"><ele>922.0</ele><time>2026-05-02T11:02:14.037Z</time></trkpt><trkpt lat="42.1957608" lon="13.7619118"><ele>922.0</ele><time>2026-05-02T11:02:15.037Z</time></trkpt><trkpt lat="42.1958027" lon="13.7618174"><ele>921.9999999999999</ele><time>2026-05-02T11:02:16.038Z</time></trkpt><trkpt lat="42.1958426" lon="13.7617354"><ele>922.0</ele><time>2026-05-02T11:02:17.037Z</time></trkpt><trkpt lat="42.1958802" lon="13.7616573"><ele>921.9999999999999</ele><time>2026-05-02T11:02:18.037Z</time></trkpt><trkpt lat="42.1959184" lon="13.7615736"><ele>922.0</ele><time>2026-05-02T11:02:19.037Z</time></trkpt><trkpt lat="42.1959594" lon="13.7614924"><ele>922.0</ele><time>2026-05-02T11:02:20.037Z</time></trkpt><trkpt lat="42.1960044" lon="13.7614184"><ele>922.0</ele><time>2026-05-02T11:02:21.037Z</time></trkpt><trkpt lat="42.1960711" lon="13.7613096"><ele>921.9999999999999</ele><time>2026-05-02T11:02:23.037Z</time></trkpt><trkpt lat="42.1961427" lon="13.761222"><ele>922.0</ele><time>2026-05-02T11:02:25.037Z</time></trkpt><trkpt lat="42.1962224" lon="13.7610928"><ele>922.0</ele><time>2026-05-02T11:02:27.037Z</time></trkpt><trkpt lat="42.1962709" lon="13.7610128"><ele>931.0</ele><time>2026-05-02T11:02:28.037Z</time></trkpt></trkseg><trkseg><trkpt lat="42.0825803" lon="13.6101072"><ele>1035.0</ele><time>2026-05-02T13:19:03.001Z</time></trkpt><trkpt lat="42.0824942" lon="13.6100962"><ele>1035.0</ele><time>2026-05-02T13:19:06.002Z</time></trkpt><trkpt lat="42.0824151" lon="13.610074"><ele>1035.0</ele><time>2026-05-02T13:19:08.002Z</time></trkpt><trkpt lat="42.0823284" lon="13.6100476"><ele>1035.0</ele><time>2026-05-02T13:19:10.002Z</time></trkpt><trkpt lat="42.0822302" lon="13.6100279"><ele>1035.0</ele><time>2026-05-02T13:19:12.002Z</time></trkpt><trkpt lat="42.0821214" lon="13.6100128"><ele>1032.2</ele><time>2026-05-02T13:19:14.002Z</time></trkpt><trkpt lat="42.082016" lon="13.6100046"><ele>1029.4</ele><time>2026-05-02T13:19:16.002Z</time></trkpt><trkpt lat="42.081907" lon="13.6100217"><ele>1026.6</ele><time>2026-05-02T13:19:18.002Z</time></trkpt><trkpt lat="42.0817949" lon="13.6100398"><ele>1023.8</ele><time>2026-05-02T13:19:20.002Z</time></trkpt><trkpt lat="42.0817091" lon="13.6100411"><ele>1021.0</ele><time>2026-05-02T13:19:22.002Z</time></trkpt><trkpt lat="42.0816448" lon="13.610039"><ele>1018.9999999999999</ele><time>2026-05-02T13:19:24.002Z</time></trkpt><trkpt lat="42.0815618" lon="13.610057"><ele>1017.0</ele><time>2026-05-02T13:19:26.002Z</time></trkpt><trkpt lat="42.0814663" lon="13.6100885"><ele>1015.0</ele><time>2026-05-02T13:19:28.001Z</time></trkpt><trkpt lat="42.0813791" lon="13.61014"><ele>1013.0</ele><time>2026-05-02T13:19:30.002Z</time></trkpt><trkpt lat="42.0813053" lon="13.6101878"><ele>1010.9999999999999</ele><time>2026-05-02T13:19:32.002Z</time></trkpt><trkpt lat="42.0812366" lon="13.6102361"><ele>1009.0</ele><time>2026-05-02T13:19:34.002Z</time></trkpt><trkpt lat="42.0811672" lon="13.6102862"><ele>1009.0</ele><time>2026-05-02T13:19:36.001Z</time></trkpt><trkpt lat="42.0810908" lon="13.6103033"><ele>1009.0000000000001</ele><time>2026-05-02T13:19:39.002Z</time></trkpt><trkpt lat="42.0809914" lon="13.610277"><ele>1009.0000000000001</ele><time>2026-05-02T13:19:42.002Z</time></trkpt><trkpt lat="42.0809059" lon="13.6102384"><ele>1009.0</ele><time>2026-05-02T13:19:44.002Z</time></trkpt><trkpt lat="42.080811" lon="13.6102281"><ele>1009.0</ele><time>2026-05-02T13:19:46.002Z</time></trkpt><trkpt lat="42.080709" lon="13.6102298"><ele>1007.0</ele><time>2026-05-02T13:19:48.001Z</time></trkpt><trkpt lat="42.0806048" lon="13.6102517"><ele>1005.0000000000001</ele><time>2026-05-02T13:19:50.001Z</time></trkpt><trkpt lat="42.0805015" lon="13.6102765"><ele>1003.0000000000001</ele><time>2026-05-02T13:19:52.002Z</time></trkpt><trkpt lat="42.0803967" lon="13.6103081"><ele>1001.0</ele><time>2026-05-02T13:19:54.002Z</time></trkpt><trkpt lat="42.0802895" lon="13.6103393"><ele>999.0</ele><time>2026-05-02T13:19:56.002Z</time></trkpt><trkpt lat="42.0801837" lon="13.610363"><ele>999.0</ele><time>2026-05-02T13:19:58.002Z</time></trkpt><trkpt lat="42.0800927" lon="13.6103485"><ele>999.0000000000001</ele><time>2026-05-02T13:20:00.002Z</time></trkpt><trkpt lat="42.079993" lon="13.6103375"><ele>999.0000000000001</ele><time>2026-05-02T13:20:02.002Z</time></trkpt><trkpt lat="42.0798884" lon="13.6103741"><ele>999.0</ele><time>2026-05-02T13:20:04.002Z</time></trkpt><trkpt lat="42.0797726" lon="13.6104087"><ele>999.0</ele><time>2026-05-02T13:20:06.002Z</time></trkpt><trkpt lat="42.0796543" lon="13.6104423"><ele>995.75</ele><time>2026-05-02T13:20:08.002Z</time></trkpt><trkpt lat="42.0795462" lon="13.6104518"><ele>992.5</ele><time>2026-05-02T13:20:10.002Z</time></trkpt><trkpt lat="42.0794335" lon="13.6104156"><ele>989.25</ele><time>2026-05-02T13:20:12.002Z</time></trkpt><trkpt lat="42.0793294" lon="13.6103632"><ele>986.0</ele><time>2026-05-02T13:20:14.002Z</time></trkpt><trkpt lat="42.079213" lon="13.6103194"><ele>985.4</ele><time>2026-05-02T13:20:16.002Z</time></trkpt><trkpt lat="42.0791498" lon="13.6102941"><ele>984.8</ele><time>2026-05-02T13:20:17.002Z</time></trkpt><trkpt lat="42.0790346" lon="13.610265"><ele>984.1999999999999</ele><time>2026-05-02T13:20:19.002Z</time></trkpt><trkpt lat="42.0789271" lon="13.6102512"><ele>983.5999999999999</ele><time>2026-05-02T13:20:21.001Z</time></trkpt><trkpt lat="42.078815" lon="13.6102643"><ele>983.0</ele><time>2026-05-02T13:20:23.002Z</time></trkpt><trkpt lat="42.078697" lon="13.6102845"><ele>981.0000000000001</ele><time>2026-05-02T13:20:25.001Z</time></trkpt><trkpt lat="42.0785754" lon="13.6102719"><ele>979.0</ele><time>2026-05-02T13:20:27.002Z</time></trkpt><trkpt lat="42.0784548" lon="13.6102444"><ele>977.0</ele><time>2026-05-02T13:20:29.001Z</time></trkpt><trkpt lat="42.078389" lon="13.6102309"><ele>975.0</ele><time>2026-05-02T13:20:30.001Z</time></trkpt><trkpt lat="42.0783218" lon="13.610225"><ele>973.0000000000001</ele><time>2026-05-02T13:20:31.002Z</time></trkpt><trkpt lat="42.078256" lon="13.6102269"><ele>971.0</ele><time>2026-05-02T13:20:32.002Z</time></trkpt><trkpt lat="42.0781385" lon="13.6102553"><ele>969.4285714285714</ele><time>2026-05-02T13:20:34.002Z</time></trkpt><trkpt lat="42.0780251" lon="13.610306"><ele>967.8571428571429</ele><time>2026-05-02T13:20:36.002Z</time></trkpt><trkpt lat="42.0779583" lon="13.6103177"><ele>966.2857142857143</ele><time>2026-05-02T13:20:37.002Z</time></trkpt><trkpt lat="42.0778929" lon="13.6103195"><ele>964.7142857142858</ele><time>2026-05-02T13:20:38.002Z</time></trkpt><trkpt lat="42.077828" lon="13.610309"><ele>963.1428571428571</ele><time>2026-05-02T13:20:39.001Z</time></trkpt><trkpt lat="42.0777613" lon="13.6102967"><ele>961.5714285714287</ele><time>2026-05-02T13:20:40.002Z</time></trkpt><trkpt lat="42.0776984" lon="13.6102932"><ele>960.0</ele><time>2026-05-02T13:20:41.002Z</time></trkpt><trkpt lat="42.0775752" lon="13.6103183"><ele>960.25</ele><time>2026-05-02T13:20:43.002Z</time></trkpt><trkpt lat="42.0774671" lon="13.610344"><ele>960.5</ele><time>2026-05-02T13:20:45.002Z</time></trkpt><trkpt lat="42.0773529" lon="13.6103498"><ele>960.75</ele><time>2026-05-02T13:20:47.002Z</time></trkpt><trkpt lat="42.0772413" lon="13.6103835"><ele>961.0</ele><time>2026-05-02T13:20:49.002Z</time></trkpt><trkpt lat="42.0771285" lon="13.6104386"><ele>958.6666666666666</ele><time>2026-05-02T13:20:51.002Z</time></trkpt><trkpt lat="42.0770221" lon="13.6104484"><ele>956.3333333333333</ele><time>2026-05-02T13:20:53.002Z</time></trkpt><trkpt lat="42.0769076" lon="13.610407"><ele>954.0</ele><time>2026-05-02T13:20:55.002Z</time></trkpt><trkpt lat="42.0768401" lon="13.6103967"><ele>951.6666666666667</ele><time>2026-05-02T13:20:56.002Z</time></trkpt><trkpt lat="42.0767746" lon="13.6103951"><ele>949.3333333333334</ele><time>2026-05-02T13:20:57.001Z</time></trkpt><trkpt lat="42.0767074" lon="13.6104027"><ele>947.0</ele><time>2026-05-02T13:20:58.002Z</time></trkpt><trkpt lat="42.0766406" lon="13.6104141"><ele>944.7142857142857</ele><time>2026-05-02T13:20:59.002Z</time></trkpt><trkpt lat="42.0765714" lon="13.6104168"><ele>942.4285714285713</ele><time>2026-05-02T13:21:00.002Z</time></trkpt><trkpt lat="42.0764975" lon="13.6104132"><ele>940.1428571428571</ele><time>2026-05-02T13:21:01.002Z</time></trkpt><trkpt lat="42.0764254" lon="13.6104174"><ele>937.8571428571429</ele><time>2026-05-02T13:21:02.002Z</time></trkpt><trkpt lat="42.0763563" lon="13.6104315"><ele>935.5714285714286</ele><time>2026-05-02T13:21:03.001Z</time></trkpt><trkpt lat="42.0762884" lon="13.6104442"><ele>933.2857142857142</ele><time>2026-05-02T13:21:04.002Z</time></trkpt><trkpt lat="42.0762227" lon="13.6104468"><ele>931.0</ele><time>2026-05-02T13:21:05.002Z</time></trkpt><trkpt lat="42.076125" lon="13.6104836"><ele>930.9999999999999</ele><time>2026-05-02T13:21:07.002Z</time></trkpt><trkpt lat="42.0760536" lon="13.6105615"><ele>931.0</ele><time>2026-05-02T13:21:09.002Z</time></trkpt><trkpt lat="42.07599" lon="13.6106489"><ele>931.0</ele><time>2026-05-02T13:21:11.002Z</time></trkpt><trkpt lat="42.0759202" lon="13.6107221"><ele>931.0</ele><time>2026-05-02T13:21:13.002Z</time></trkpt><trkpt lat="42.075839" lon="13.6107833"><ele>930.9999999999999</ele><time>2026-05-02T13:21:15.002Z</time></trkpt><trkpt lat="42.0757754" lon="13.6108421"><ele>931.0</ele><time>2026-05-02T13:21:17.002Z</time></trkpt><trkpt lat="42.0757746" lon="13.6109472"><ele>931.0</ele><time>2026-05-02T13:21:21.002Z</time></trkpt><trkpt lat="42.0757607" lon="13.6110414"><ele>919.0</ele><time>2026-05-02T13:21:30.002Z</time></trkpt><trkpt lat="42.0757093" lon="13.6110904"><ele>919.0</ele><time>2026-05-02T13:21:33.001Z</time></trkpt><trkpt lat="42.0756472" lon="13.6111342"><ele>919.0</ele><time>2026-05-02T13:21:37.001Z</time></trkpt><trkpt lat="42.0756163" lon="13.6110587"><ele>919.0</ele><time>2026-05-02T13:21:45.001Z</time></trkpt></trkseg><trkseg><trkpt lat="42.0757032" lon="13.6110885"><ele>918.9999999999999</ele><time>2026-05-02T13:54:24.031Z</time></trkpt><trkpt lat="42.0757767" lon="13.6110402"><ele>919.0</ele><time>2026-05-02T13:54:26.031Z</time></trkpt><trkpt lat="42.0757937" lon="13.610933"><ele>919.0</ele><time>2026-05-02T13:54:28.032Z</time></trkpt><trkpt lat="42.0757074" lon="13.6108938"><ele>919.0</ele><time>2026-05-02T13:54:30.032Z</time></trkpt><trkpt lat="42.0756325" lon="13.6109425"><ele>918.9999999999999</ele><time>2026-05-02T13:54:32.031Z</time></trkpt><trkpt lat="42.0755487" lon="13.6110129"><ele>919.0</ele><time>2026-05-02T13:54:34.032Z</time></trkpt><trkpt lat="42.0754638" lon="13.6110696"><ele>918.9999999999999</ele><time>2026-05-02T13:54:36.032Z</time></trkpt><trkpt lat="42.0753726" lon="13.6110818"><ele>919.0</ele><time>2026-05-02T13:54:38.032Z</time></trkpt><trkpt lat="42.075307" lon="13.6111209"><ele>919.0</ele><time>2026-05-02T13:54:40.032Z</time></trkpt><trkpt lat="42.0752425" lon="13.6111701"><ele>919.0</ele><time>2026-05-02T13:54:42.032Z</time></trkpt><trkpt lat="42.0751815" lon="13.6112226"><ele>918.9999999999999</ele><time>2026-05-02T13:54:44.032Z</time></trkpt><trkpt lat="42.075119" lon="13.6112823"><ele>919.0</ele><time>2026-05-02T13:54:46.032Z</time></trkpt><trkpt lat="42.0750273" lon="13.6113245"><ele>918.8333333333333</ele><time>2026-05-02T13:54:48.032Z</time></trkpt><trkpt lat="42.0749585" lon="13.611321"><ele>918.6666666666666</ele><time>2026-05-02T13:54:49.032Z</time></trkpt><trkpt lat="42.0748748" lon="13.6113101"><ele>918.5</ele><time>2026-05-02T13:54:50.032Z</time></trkpt><trkpt lat="42.0747922" lon="13.6112993"><ele>918.3333333333333</ele><time>2026-05-02T13:54:51.032Z</time></trkpt><trkpt lat="42.0747113" lon="13.6112779"><ele>918.1666666666666</ele><time>2026-05-02T13:54:52.032Z</time></trkpt><trkpt lat="42.0746243" lon="13.6112483"><ele>918.0</ele><time>2026-05-02T13:54:53.032Z</time></trkpt><trkpt lat="42.0745378" lon="13.6112149"><ele>916.4</ele><time>2026-05-02T13:54:54.032Z</time></trkpt><trkpt lat="42.0744472" lon="13.6111758"><ele>914.8</ele><time>2026-05-02T13:54:55.032Z</time></trkpt><trkpt lat="42.0743537" lon="13.6111343"><ele>913.2</ele><time>2026-05-02T13:54:56.032Z</time></trkpt><trkpt lat="42.074263" lon="13.6110903"><ele>911.6</ele><time>2026-05-02T13:54:57.032Z</time></trkpt><trkpt lat="42.0741745" lon="13.611037"><ele>910.0</ele><time>2026-05-02T13:54:58.032Z</time></trkpt><trkpt lat="42.0740856" lon="13.6109869"><ele>908.4</ele><time>2026-05-02T13:54:59.031Z</time></trkpt><trkpt lat="42.074007" lon="13.6109386"><ele>906.8</ele><time>2026-05-02T13:55:00.032Z</time></trkpt><trkpt lat="42.07394" lon="13.6108976"><ele>905.2</ele><time>2026-05-02T13:55:01.032Z</time></trkpt><trkpt lat="42.0738427" lon="13.6108422"><ele>903.6</ele><time>2026-05-02T13:55:03.032Z</time></trkpt><trkpt lat="42.073753" lon="13.6107699"><ele>902.0</ele><time>2026-05-02T13:55:05.032Z</time></trkpt><trkpt lat="42.073636" lon="13.6106726"><ele>902.0</ele><time>2026-05-02T13:55:07.032Z</time></trkpt><trkpt lat="42.0735671" lon="13.6106163"><ele>902.0</ele><time>2026-05-02T13:55:08.032Z</time></trkpt><trkpt lat="42.0735005" lon="13.6105629"><ele>902.0</ele><time>2026-05-02T13:55:09.032Z</time></trkpt><trkpt lat="42.073428" lon="13.6104909"><ele>902.0</ele><time>2026-05-02T13:55:10.031Z</time></trkpt><trkpt lat="42.0733477" lon="13.6104037"><ele>902.0</ele><time>2026-05-02T13:55:11.032Z</time></trkpt><trkpt lat="42.0732647" lon="13.6103133"><ele>899.25</ele><time>2026-05-02T13:55:12.032Z</time></trkpt><trkpt lat="42.0731792" lon="13.6102167"><ele>896.5</ele><time>2026-05-02T13:55:13.032Z</time></trkpt><trkpt lat="42.0730914" lon="13.6101207"><ele>893.75</ele><time>2026-05-02T13:55:14.032Z</time></trkpt><trkpt lat="42.0730021" lon="13.6100168"><ele>891.0</ele><time>2026-05-02T13:55:15.032Z</time></trkpt><trkpt lat="42.0729136" lon="13.6099108"><ele>891.0</ele><time>2026-05-02T13:55:16.032Z</time></trkpt><trkpt lat="42.0728245" lon="13.6098049"><ele>891.0</ele><time>2026-05-02T13:55:17.032Z</time></trkpt><trkpt lat="42.0727327" lon="13.6097"><ele>891.0</ele><time>2026-05-02T13:55:18.032Z</time></trkpt><trkpt lat="42.0726432" lon="13.609591"><ele>891.0</ele><time>2026-05-02T13:55:19.032Z</time></trkpt><trkpt lat="42.0725571" lon="13.6094912"><ele>890.6666666666666</ele><time>2026-05-02T13:55:20.032Z</time></trkpt><trkpt lat="42.0724777" lon="13.6093987"><ele>890.3333333333333</ele><time>2026-05-02T13:55:21.032Z</time></trkpt><trkpt lat="42.0724113" lon="13.6093199"><ele>890.0</ele><time>2026-05-02T13:55:22.032Z</time></trkpt><trkpt lat="42.0723541" lon="13.6092598"><ele>889.6666666666666</ele><time>2026-05-02T13:55:23.032Z</time></trkpt><trkpt lat="42.0723037" lon="13.6091967"><ele>889.3333333333333</ele><time>2026-05-02T13:55:24.031Z</time></trkpt><trkpt lat="42.0722537" lon="13.6091246"><ele>889.0</ele><time>2026-05-02T13:55:25.032Z</time></trkpt><trkpt lat="42.0722127" lon="13.6090405"><ele>887.4000000000001</ele><time>2026-05-02T13:55:26.032Z</time></trkpt><trkpt lat="42.0721778" lon="13.6089353"><ele>885.8000000000001</ele><time>2026-05-02T13:55:27.032Z</time></trkpt><trkpt lat="42.0721574" lon="13.6088068"><ele>884.1999999999999</ele><time>2026-05-02T13:55:28.032Z</time></trkpt><trkpt lat="42.0721405" lon="13.6086641"><ele>882.5999999999999</ele><time>2026-05-02T13:55:29.032Z</time></trkpt><trkpt lat="42.0721217" lon="13.6085348"><ele>881.0</ele><time>2026-05-02T13:55:30.031Z</time></trkpt><trkpt lat="42.0721028" lon="13.6084238"><ele>880.4</ele><time>2026-05-02T13:55:31.032Z</time></trkpt><trkpt lat="42.0720834" lon="13.6082788"><ele>879.8</ele><time>2026-05-02T13:55:33.031Z</time></trkpt><trkpt lat="42.0720587" lon="13.6081133"><ele>879.1999999999999</ele><time>2026-05-02T13:55:35.032Z</time></trkpt><trkpt lat="42.0720537" lon="13.6080091"><ele>878.5999999999999</ele><time>2026-05-02T13:55:36.032Z</time></trkpt><trkpt lat="42.0720529" lon="13.6078869"><ele>878.0</ele><time>2026-05-02T13:55:37.031Z</time></trkpt><trkpt lat="42.0720524" lon="13.6077709"><ele>877.0000000000001</ele><time>2026-05-02T13:55:38.032Z</time></trkpt><trkpt lat="42.0720539" lon="13.6076555"><ele>876.0</ele><time>2026-05-02T13:55:39.032Z</time></trkpt><trkpt lat="42.0720573" lon="13.6075403"><ele>875.0</ele><time>2026-05-02T13:55:40.032Z</time></trkpt><trkpt lat="42.0720523" lon="13.607422"><ele>874.0</ele><time>2026-05-02T13:55:41.032Z</time></trkpt><trkpt lat="42.0720513" lon="13.6073061"><ele>873.0000000000001</ele><time>2026-05-02T13:55:42.032Z</time></trkpt><trkpt lat="42.0720506" lon="13.6071924"><ele>872.0</ele><time>2026-05-02T13:55:43.032Z</time></trkpt><trkpt lat="42.0720426" lon="13.6070629"><ele>870.2</ele><time>2026-05-02T13:55:44.032Z</time></trkpt><trkpt lat="42.0719985" lon="13.6069321"><ele>868.4000000000001</ele><time>2026-05-02T13:55:45.032Z</time></trkpt><trkpt lat="42.0719798" lon="13.6068032"><ele>866.5999999999999</ele><time>2026-05-02T13:55:46.032Z</time></trkpt><trkpt lat="42.0719189" lon="13.6066716"><ele>864.8</ele><time>2026-05-02T13:55:47.032Z</time></trkpt><trkpt lat="42.0718405" lon="13.6065497"><ele>863.0</ele><time>2026-05-02T13:55:48.032Z</time></trkpt><trkpt lat="42.0717558" lon="13.6064429"><ele>863.0</ele><time>2026-05-02T13:55:49.032Z</time></trkpt><trkpt lat="42.0716776" lon="13.6063554"><ele>863.0</ele><time>2026-05-02T13:55:50.032Z</time></trkpt><trkpt lat="42.0716096" lon="13.6062869"><ele>863.0</ele><time>2026-05-02T13:55:51.032Z</time></trkpt><trkpt lat="42.0715246" lon="13.606207"><ele>863.0</ele><time>2026-05-02T13:55:53.032Z</time></trkpt><trkpt lat="42.071388" lon="13.6061629"><ele>863.0</ele><time>2026-05-02T13:56:11.032Z</time></trkpt><trkpt lat="42.0714603" lon="13.6061528"><ele>860.0</ele><time>2026-05-02T13:56:16.032Z</time></trkpt><trkpt lat="42.0713949" lon="13.606135"><ele>857.0</ele><time>2026-05-02T13:56:19.032Z</time></trkpt><trkpt lat="42.0713054" lon="13.6060789"><ele>854.0</ele><time>2026-05-02T13:56:21.032Z</time></trkpt><trkpt lat="42.0711974" lon="13.6060276"><ele>851.0</ele><time>2026-05-02T13:56:23.032Z</time></trkpt><trkpt lat="42.0710967" lon="13.6059626"><ele>848.0</ele><time>2026-05-02T13:56:25.032Z</time></trkpt><trkpt lat="42.0710147" lon="13.6058911"><ele>848.0</ele><time>2026-05-02T13:56:27.032Z</time></trkpt><trkpt lat="42.0709348" lon="13.605804"><ele>848.0</ele><time>2026-05-02T13:56:29.032Z</time></trkpt><trkpt lat="42.0708457" lon="13.6057185"><ele>848.0</ele><time>2026-05-02T13:56:31.031Z</time></trkpt><trkpt lat="42.0707489" lon="13.6056262"><ele>848.0</ele><time>2026-05-02T13:56:33.032Z</time></trkpt><trkpt lat="42.070696" lon="13.6055733"><ele>848.0</ele><time>2026-05-02T13:56:34.032Z</time></trkpt><trkpt lat="42.0706409" lon="13.6055239"><ele>846.4285714285714</ele><time>2026-05-02T13:56:35.032Z</time></trkpt><trkpt lat="42.070582" lon="13.6054756"><ele>844.8571428571428</ele><time>2026-05-02T13:56:36.032Z</time></trkpt><trkpt lat="42.0705206" lon="13.6054205"><ele>843.2857142857142</ele><time>2026-05-02T13:56:37.031Z</time></trkpt><trkpt lat="42.070465" lon="13.6053667"><ele>841.7142857142858</ele><time>2026-05-02T13:56:38.031Z</time></trkpt><trkpt lat="42.0704121" lon="13.6053131"><ele>840.1428571428571</ele><time>2026-05-02T13:56:39.032Z</time></trkpt><trkpt lat="42.0703547" lon="13.6052624"><ele>838.5714285714286</ele><time>2026-05-02T13:56:40.031Z</time></trkpt><trkpt lat="42.0702913" lon="13.6052055"><ele>837.0</ele><time>2026-05-02T13:56:41.032Z</time></trkpt><trkpt lat="42.07023" lon="13.6051452"><ele>836.1666666666666</ele><time>2026-05-02T13:56:42.032Z</time></trkpt><trkpt lat="42.070174" lon="13.6050928"><ele>835.3333333333333</ele><time>2026-05-02T13:56:43.032Z</time></trkpt><trkpt lat="42.0701189" lon="13.6050369"><ele>834.5</ele><time>2026-05-02T13:56:44.032Z</time></trkpt><trkpt lat="42.0700577" lon="13.6049818"><ele>833.6666666666666</ele><time>2026-05-02T13:56:45.032Z</time></trkpt><trkpt lat="42.0699964" lon="13.6049226"><ele>832.8333333333333</ele><time>2026-05-02T13:56:46.032Z</time></trkpt><trkpt lat="42.0699319" lon="13.6048534"><ele>832.0</ele><time>2026-05-02T13:56:47.031Z</time></trkpt><trkpt lat="42.0698654" lon="13.6047839"><ele>829.6</ele><time>2026-05-02T13:56:48.032Z</time></trkpt><trkpt lat="42.0697949" lon="13.6047177"><ele>827.2</ele><time>2026-05-02T13:56:49.032Z</time></trkpt><trkpt lat="42.0697206" lon="13.6046525"><ele>824.8</ele><time>2026-05-02T13:56:50.032Z</time></trkpt><trkpt lat="42.0696408" lon="13.604583"><ele>822.4</ele><time>2026-05-02T13:56:51.032Z</time></trkpt><trkpt lat="42.0695596" lon="13.6045043"><ele>820.0</ele><time>2026-05-02T13:56:52.032Z</time></trkpt><trkpt lat="42.0694766" lon="13.6044242"><ele>818.25</ele><time>2026-05-02T13:56:53.031Z</time></trkpt><trkpt lat="42.0693893" lon="13.6043402"><ele>816.5</ele><time>2026-05-02T13:56:54.032Z</time></trkpt><trkpt lat="42.0692911" lon="13.6042411"><ele>814.75</ele><time>2026-05-02T13:56:55.032Z</time></trkpt><trkpt lat="42.0691847" lon="13.6041195"><ele>813.0</ele><time>2026-05-02T13:56:56.032Z</time></trkpt><trkpt lat="42.0690806" lon="13.6040043"><ele>811.75</ele><time>2026-05-02T13:56:57.032Z</time></trkpt><trkpt lat="42.0689717" lon="13.6038917"><ele>810.5</ele><time>2026-05-02T13:56:58.031Z</time></trkpt><trkpt lat="42.0688643" lon="13.6037801"><ele>809.25</ele><time>2026-05-02T13:56:59.032Z</time></trkpt><trkpt lat="42.0687603" lon="13.6036688"><ele>808.0</ele><time>2026-05-02T13:57:00.032Z</time></trkpt><trkpt lat="42.0686688" lon="13.6035698"><ele>807.9999999999999</ele><time>2026-05-02T13:57:01.032Z</time></trkpt><trkpt lat="42.0685861" lon="13.6034817"><ele>808.0</ele><time>2026-05-02T13:57:02.032Z</time></trkpt><trkpt lat="42.0685144" lon="13.6034115"><ele>808.0</ele><time>2026-05-02T13:57:03.032Z</time></trkpt><trkpt lat="42.0684433" lon="13.6033733"><ele>808.0</ele><time>2026-05-02T13:57:04.032Z</time></trkpt><trkpt lat="42.0683703" lon="13.6033661"><ele>807.9999999999999</ele><time>2026-05-02T13:57:05.031Z</time></trkpt><trkpt lat="42.0683067" lon="13.6033876"><ele>808.0</ele><time>2026-05-02T13:57:06.032Z</time></trkpt><trkpt lat="42.068237" lon="13.6034411"><ele>809.8</ele><time>2026-05-02T13:57:07.032Z</time></trkpt><trkpt lat="42.0681581" lon="13.6035191"><ele>811.5999999999999</ele><time>2026-05-02T13:57:08.031Z</time></trkpt><trkpt lat="42.0680819" lon="13.6035573"><ele>813.4000000000001</ele><time>2026-05-02T13:57:09.032Z</time></trkpt><trkpt lat="42.067992" lon="13.6035576"><ele>815.2</ele><time>2026-05-02T13:57:10.032Z</time></trkpt><trkpt lat="42.0678871" lon="13.6035567"><ele>817.0</ele><time>2026-05-02T13:57:11.032Z</time></trkpt><trkpt lat="42.0677729" lon="13.6035594"><ele>817.0</ele><time>2026-05-02T13:57:12.032Z</time></trkpt><trkpt lat="42.0676493" lon="13.603561"><ele>817.0</ele><time>2026-05-02T13:57:13.032Z</time></trkpt><trkpt lat="42.0675126" lon="13.6035533"><ele>817.0</ele><time>2026-05-02T13:57:14.032Z</time></trkpt><trkpt lat="42.0673543" lon="13.6035456"><ele>817.0</ele><time>2026-05-02T13:57:15.031Z</time></trkpt><trkpt lat="42.0672005" lon="13.6035291"><ele>818.0</ele><time>2026-05-02T13:57:16.032Z</time></trkpt><trkpt lat="42.0670544" lon="13.6034986"><ele>819.0</ele><time>2026-05-02T13:57:17.032Z</time></trkpt><trkpt lat="42.0669254" lon="13.6034648"><ele>820.0</ele><time>2026-05-02T13:57:18.032Z</time></trkpt><trkpt lat="42.0668011" lon="13.6034258"><ele>821.0</ele><time>2026-05-02T13:57:19.032Z</time></trkpt><trkpt lat="42.0666828" lon="13.6033847"><ele>822.75</ele><time>2026-05-02T13:57:20.032Z</time></trkpt><trkpt lat="42.0665665" lon="13.6033528"><ele>824.5</ele><time>2026-05-02T13:57:21.031Z</time></trkpt><trkpt lat="42.0664472" lon="13.6033263"><ele>826.25</ele><time>2026-05-02T13:57:22.032Z</time></trkpt><trkpt lat="42.0663288" lon="13.6033133"><ele>828.0</ele><time>2026-05-02T13:57:23.032Z</time></trkpt><trkpt lat="42.0662108" lon="13.6033174"><ele>828.0</ele><time>2026-05-02T13:57:24.032Z</time></trkpt><trkpt lat="42.0660975" lon="13.6033362"><ele>828.0</ele><time>2026-05-02T13:57:25.031Z</time></trkpt><trkpt lat="42.065997" lon="13.6033528"><ele>828.0</ele><time>2026-05-02T13:57:26.032Z</time></trkpt><trkpt lat="42.0659122" lon="13.6033579"><ele>828.0</ele><time>2026-05-02T13:57:27.032Z</time></trkpt><trkpt lat="42.0658026" lon="13.6033414"><ele>828.0</ele><time>2026-05-02T13:57:29.032Z</time></trkpt><trkpt lat="42.0657354" lon="13.6032859"><ele>828.2</ele><time>2026-05-02T13:57:31.032Z</time></trkpt><trkpt lat="42.0656926" lon="13.6031082"><ele>828.4</ele><time>2026-05-02T13:57:33.032Z</time></trkpt><trkpt lat="42.0656747" lon="13.6030066"><ele>828.6</ele><time>2026-05-02T13:57:34.032Z</time></trkpt><trkpt lat="42.0656608" lon="13.6029134"><ele>828.8000000000001</ele><time>2026-05-02T13:57:35.032Z</time></trkpt><trkpt lat="42.0656509" lon="13.6028252"><ele>829.0</ele><time>2026-05-02T13:57:36.032Z</time></trkpt><trkpt lat="42.0656939" lon="13.6026737"><ele>829.3333333333333</ele><time>2026-05-02T13:57:38.032Z</time></trkpt><trkpt lat="42.0657885" lon="13.6025898"><ele>829.6666666666666</ele><time>2026-05-02T13:57:40.031Z</time></trkpt><trkpt lat="42.065855" lon="13.6025814"><ele>830.0</ele><time>2026-05-02T13:57:42.031Z</time></trkpt><trkpt lat="42.0659104" lon="13.6025332"><ele>830.3333333333333</ele><time>2026-05-02T13:57:46.032Z</time></trkpt><trkpt lat="42.0658834" lon="13.6024363"><ele>830.6666666666666</ele><time>2026-05-02T13:57:49.032Z</time></trkpt><trkpt lat="42.0658418" lon="13.6023305"><ele>831.0</ele><time>2026-05-02T13:57:51.032Z</time></trkpt><trkpt lat="42.0658854" lon="13.6021708"><ele>831.0</ele><time>2026-05-02T13:57:53.032Z</time></trkpt><trkpt lat="42.0658972" lon="13.6020723"><ele>831.0</ele><time>2026-05-02T13:57:54.032Z</time></trkpt><trkpt lat="42.0659218" lon="13.6019597"><ele>831.0</ele><time>2026-05-02T13:57:55.031Z</time></trkpt><trkpt lat="42.065952" lon="13.6018366"><ele>831.0</ele><time>2026-05-02T13:57:56.032Z</time></trkpt><trkpt lat="42.065983" lon="13.6017104"><ele>831.0</ele><time>2026-05-02T13:57:57.031Z</time></trkpt><trkpt lat="42.0660042" lon="13.6015777"><ele>830.5999999999999</ele><time>2026-05-02T13:57:58.032Z</time></trkpt><trkpt lat="42.06601" lon="13.6014514"><ele>830.2</ele><time>2026-05-02T13:57:59.032Z</time></trkpt><trkpt lat="42.0660212" lon="13.6013198"><ele>829.8</ele><time>2026-05-02T13:58:00.032Z</time></trkpt><trkpt lat="42.0660279" lon="13.6011814"><ele>829.4000000000001</ele><time>2026-05-02T13:58:01.032Z</time></trkpt><trkpt lat="42.0660281" lon="13.6010369"><ele>829.0</ele><time>2026-05-02T13:58:02.032Z</time></trkpt><trkpt lat="42.0660358" lon="13.6009037"><ele>828.9999999999999</ele><time>2026-05-02T13:58:03.032Z</time></trkpt><trkpt lat="42.0660566" lon="13.6007836"><ele>829.0</ele><time>2026-05-02T13:58:04.031Z</time></trkpt><trkpt lat="42.0660696" lon="13.6006803"><ele>829.0</ele><time>2026-05-02T13:58:05.032Z</time></trkpt><trkpt lat="42.0660882" lon="13.6005676"><ele>829.0</ele><time>2026-05-02T13:58:07.032Z</time></trkpt><trkpt lat="42.0660387" lon="13.600507"><ele>828.9999999999999</ele><time>2026-05-02T13:58:11.031Z</time></trkpt><trkpt lat="42.0659962" lon="13.6005913"><ele>829.0</ele><time>2026-05-02T13:58:13.031Z</time></trkpt><trkpt lat="42.0659536" lon="13.6007337"><ele>829.0</ele><time>2026-05-02T13:58:15.032Z</time></trkpt><trkpt lat="42.0659264" lon="13.6008173"><ele>829.0</ele><time>2026-05-02T13:58:16.032Z</time></trkpt><trkpt lat="42.065894" lon="13.6008959"><ele>829.0</ele><time>2026-05-02T13:58:17.031Z</time></trkpt><trkpt lat="42.0658334" lon="13.6009868"><ele>829.0</ele><time>2026-05-02T13:58:19.031Z</time></trkpt><trkpt lat="42.0657683" lon="13.6010097"><ele>829.0</ele><time>2026-05-02T13:58:21.032Z</time></trkpt><trkpt lat="42.0657042" lon="13.6010138"><ele>829.0</ele><time>2026-05-02T13:58:25.032Z</time></trkpt><trkpt lat="42.0656309" lon="13.6009931"><ele>829.0</ele><time>2026-05-02T13:58:28.031Z</time></trkpt><trkpt lat="42.0656212" lon="13.6008596"><ele>827.3333333333333</ele><time>2026-05-02T13:58:31.032Z</time></trkpt><trkpt lat="42.065563" lon="13.6007697"><ele>825.6666666666666</ele><time>2026-05-02T13:58:33.032Z</time></trkpt><trkpt lat="42.0655283" lon="13.600676"><ele>824.0</ele><time>2026-05-02T13:58:36.032Z</time></trkpt><trkpt lat="42.0654669" lon="13.6006288"><ele>822.3333333333333</ele><time>2026-05-02T13:58:40.031Z</time></trkpt><trkpt lat="42.0654257" lon="13.6007016"><ele>820.6666666666666</ele><time>2026-05-02T13:58:42.032Z</time></trkpt><trkpt lat="42.0654043" lon="13.6008567"><ele>819.0</ele><time>2026-05-02T13:58:44.031Z</time></trkpt><trkpt lat="42.065389" lon="13.600944"><ele>819.0</ele><time>2026-05-02T13:58:45.031Z</time></trkpt><trkpt lat="42.0653702" lon="13.6010336"><ele>819.0</ele><time>2026-05-02T13:58:46.032Z</time></trkpt><trkpt lat="42.065347" lon="13.6011231"><ele>819.0</ele><time>2026-05-02T13:58:47.032Z</time></trkpt><trkpt lat="42.0653222" lon="13.6012126"><ele>819.0</ele><time>2026-05-02T13:58:48.032Z</time></trkpt><trkpt lat="42.065282" lon="13.6013481"><ele>819.0</ele><time>2026-05-02T13:58:50.032Z</time></trkpt><trkpt lat="42.0652465" lon="13.6014328"><ele>819.0</ele><time>2026-05-02T13:58:52.032Z</time></trkpt><trkpt lat="42.0651541" lon="13.6014073"><ele>818.8333333333334</ele><time>2026-05-02T13:58:54.032Z</time></trkpt><trkpt lat="42.0650803" lon="13.6013595"><ele>818.6666666666667</ele><time>2026-05-02T13:58:55.032Z</time></trkpt><trkpt lat="42.0650034" lon="13.601306"><ele>818.5</ele><time>2026-05-02T13:58:56.032Z</time></trkpt><trkpt lat="42.06493" lon="13.6012564"><ele>818.3333333333334</ele><time>2026-05-02T13:58:57.032Z</time></trkpt><trkpt lat="42.0648469" lon="13.6012112"><ele>818.1666666666667</ele><time>2026-05-02T13:58:58.032Z</time></trkpt><trkpt lat="42.0647625" lon="13.6011667"><ele>818.0</ele><time>2026-05-02T13:58:59.031Z</time></trkpt><trkpt lat="42.0646779" lon="13.6011264"><ele>816.8333333333334</ele><time>2026-05-02T13:59:00.031Z</time></trkpt><trkpt lat="42.0645975" lon="13.6010874"><ele>815.6666666666667</ele><time>2026-05-02T13:59:01.031Z</time></trkpt><trkpt lat="42.0645268" lon="13.6010541"><ele>814.5</ele><time>2026-05-02T13:59:02.032Z</time></trkpt><trkpt lat="42.0644593" lon="13.6010213"><ele>813.3333333333333</ele><time>2026-05-02T13:59:03.032Z</time></trkpt><trkpt lat="42.0643936" lon="13.6009883"><ele>812.1666666666666</ele><time>2026-05-02T13:59:04.032Z</time></trkpt><trkpt lat="42.0643318" lon="13.6009585"><ele>811.0</ele><time>2026-05-02T13:59:05.032Z</time></trkpt><trkpt lat="42.0642312" lon="13.6008978"><ele>811.0</ele><time>2026-05-02T13:59:07.032Z</time></trkpt><trkpt lat="42.0641682" lon="13.6008471"><ele>811.0</ele><time>2026-05-02T13:59:09.031Z</time></trkpt><trkpt lat="42.0641004" lon="13.6008327"><ele>811.0</ele><time>2026-05-02T13:59:24.032Z</time></trkpt><trkpt lat="42.0641671" lon="13.6007633"><ele>811.0</ele><time>2026-05-02T13:59:31.032Z</time></trkpt><trkpt lat="42.0641885" lon="13.6006793"><ele>811.0</ele><time>2026-05-02T13:59:32.032Z</time></trkpt><trkpt lat="42.0642071" lon="13.6005938"><ele>811.0</ele><time>2026-05-02T13:59:33.032Z</time></trkpt><trkpt lat="42.0642246" lon="13.6005027"><ele>811.0</ele><time>2026-05-02T13:59:34.032Z</time></trkpt><trkpt lat="42.0642613" lon="13.6003453"><ele>810.8333333333333</ele><time>2026-05-02T13:59:36.032Z</time></trkpt><trkpt lat="42.0642748" lon="13.6002494"><ele>810.6666666666666</ele><time>2026-05-02T13:59:39.032Z</time></trkpt><trkpt lat="42.0642898" lon="13.600136"><ele>810.5</ele><time>2026-05-02T13:59:44.032Z</time></trkpt><trkpt lat="42.0643174" lon="13.5999971"><ele>810.3333333333333</ele><time>2026-05-02T13:59:46.032Z</time></trkpt><trkpt lat="42.0643399" lon="13.599863"><ele>810.1666666666666</ele><time>2026-05-02T13:59:48.032Z</time></trkpt><trkpt lat="42.0643268" lon="13.5997575"><ele>810.0</ele><time>2026-05-02T13:59:50.032Z</time></trkpt><trkpt lat="42.0642446" lon="13.5997309"><ele>810.0</ele><time>2026-05-02T13:59:52.032Z</time></trkpt><trkpt lat="42.064168" lon="13.5997153"><ele>810.0</ele><time>2026-05-02T13:59:54.032Z</time></trkpt><trkpt lat="42.0641217" lon="13.5997894"><ele>810.0</ele><time>2026-05-02T13:59:56.032Z</time></trkpt><trkpt lat="42.0641025" lon="13.5999082"><ele>810.0</ele><time>2026-05-02T13:59:58.032Z</time></trkpt><trkpt lat="42.0640849" lon="13.6000228"><ele>810.0</ele><time>2026-05-02T14:00:00.032Z</time></trkpt><trkpt lat="42.0640168" lon="13.6000824"><ele>810.0</ele><time>2026-05-02T14:00:03.032Z</time></trkpt><trkpt lat="42.0639126" lon="13.600049"><ele>808.6666666666666</ele><time>2026-05-02T14:00:05.032Z</time></trkpt><trkpt lat="42.0638161" lon="13.6000016"><ele>807.3333333333333</ele><time>2026-05-02T14:00:07.032Z</time></trkpt><trkpt lat="42.0637068" lon="13.5999705"><ele>806.0</ele><time>2026-05-02T14:00:09.031Z</time></trkpt><trkpt lat="42.0636469" lon="13.5999375"><ele>804.6666666666666</ele><time>2026-05-02T14:00:10.032Z</time></trkpt><trkpt lat="42.0635832" lon="13.5999154"><ele>803.3333333333333</ele><time>2026-05-02T14:00:11.031Z</time></trkpt><trkpt lat="42.0635136" lon="13.5998919"><ele>802.0</ele><time>2026-05-02T14:00:12.032Z</time></trkpt><trkpt lat="42.0634363" lon="13.5998655"><ele>801.9999999999999</ele><time>2026-05-02T14:00:13.032Z</time></trkpt><trkpt lat="42.0633547" lon="13.5998408"><ele>802.0</ele><time>2026-05-02T14:00:14.032Z</time></trkpt><trkpt lat="42.0632742" lon="13.5998377"><ele>802.0</ele><time>2026-05-02T14:00:15.032Z</time></trkpt><trkpt lat="42.0631876" lon="13.5998692"><ele>802.0</ele><time>2026-05-02T14:00:16.032Z</time></trkpt><trkpt lat="42.0631144" lon="13.5999213"><ele>801.9999999999999</ele><time>2026-05-02T14:00:17.031Z</time></trkpt><trkpt lat="42.0630499" lon="13.5999743"><ele>802.0</ele><time>2026-05-02T14:00:18.032Z</time></trkpt><trkpt lat="42.062987" lon="13.6000166"><ele>801.3333333333333</ele><time>2026-05-02T14:00:19.032Z</time></trkpt><trkpt lat="42.06293" lon="13.6000569"><ele>800.6666666666666</ele><time>2026-05-02T14:00:20.032Z</time></trkpt><trkpt lat="42.06285" lon="13.600127"><ele>800.0</ele><time>2026-05-02T14:00:22.032Z</time></trkpt><trkpt lat="42.0627535" lon="13.6000903"><ele>799.3333333333333</ele><time>2026-05-02T14:00:25.032Z</time></trkpt><trkpt lat="42.0627059" lon="13.6000285"><ele>798.6666666666666</ele><time>2026-05-02T14:00:26.032Z</time></trkpt><trkpt lat="42.0626513" lon="13.5999597"><ele>798.0</ele><time>2026-05-02T14:00:27.032Z</time></trkpt><trkpt lat="42.0625874" lon="13.5998836"><ele>798.0</ele><time>2026-05-02T14:00:28.031Z</time></trkpt><trkpt lat="42.062521" lon="13.5997954"><ele>798.0</ele><time>2026-05-02T14:00:29.032Z</time></trkpt><trkpt lat="42.0624568" lon="13.599706"><ele>798.0</ele><time>2026-05-02T14:00:30.032Z</time></trkpt><trkpt lat="42.0623874" lon="13.5996271"><ele>798.0</ele><time>2026-05-02T14:00:31.032Z</time></trkpt><trkpt lat="42.0623281" lon="13.5995489"><ele>798.0</ele><time>2026-05-02T14:00:32.032Z</time></trkpt><trkpt lat="42.0622675" lon="13.5994689"><ele>798.0</ele><time>2026-05-02T14:00:33.032Z</time></trkpt><trkpt lat="42.0622078" lon="13.5994058"><ele>796.1666666666666</ele><time>2026-05-02T14:00:34.032Z</time></trkpt><trkpt lat="42.0621386" lon="13.5993756"><ele>794.3333333333333</ele><time>2026-05-02T14:00:35.032Z</time></trkpt><trkpt lat="42.0620592" lon="13.5993771"><ele>792.5</ele><time>2026-05-02T14:00:36.031Z</time></trkpt><trkpt lat="42.0619712" lon="13.5994004"><ele>790.6666666666666</ele><time>2026-05-02T14:00:37.032Z</time></trkpt><trkpt lat="42.0618888" lon="13.5994548"><ele>788.8333333333333</ele><time>2026-05-02T14:00:38.032Z</time></trkpt><trkpt lat="42.0618166" lon="13.599531"><ele>787.0</ele><time>2026-05-02T14:00:39.032Z</time></trkpt><trkpt lat="42.0617568" lon="13.5996351"><ele>787.0</ele><time>2026-05-02T14:00:40.032Z</time></trkpt><trkpt lat="42.0617062" lon="13.5997498"><ele>787.0</ele><time>2026-05-02T14:00:41.032Z</time></trkpt><trkpt lat="42.0616576" lon="13.5998763"><ele>787.0</ele><time>2026-05-02T14:00:42.032Z</time></trkpt><trkpt lat="42.0616099" lon="13.6000099"><ele>787.0</ele><time>2026-05-02T14:00:43.031Z</time></trkpt><trkpt lat="42.0615588" lon="13.6001413"><ele>787.0</ele><time>2026-05-02T14:00:44.032Z</time></trkpt><trkpt lat="42.0615112" lon="13.600268"><ele>784.2</ele><time>2026-05-02T14:00:45.032Z</time></trkpt><trkpt lat="42.0614707" lon="13.6003951"><ele>781.4000000000001</ele><time>2026-05-02T14:00:46.032Z</time></trkpt><trkpt lat="42.0614421" lon="13.6005322"><ele>778.5999999999999</ele><time>2026-05-02T14:00:47.032Z</time></trkpt><trkpt lat="42.0614066" lon="13.6006725"><ele>775.8</ele><time>2026-05-02T14:00:48.031Z</time></trkpt><trkpt lat="42.061355" lon="13.6008"><ele>773.0</ele><time>2026-05-02T14:00:49.032Z</time></trkpt><trkpt lat="42.0613057" lon="13.6009184"><ele>773.0000000000001</ele><time>2026-05-02T14:00:50.032Z</time></trkpt><trkpt lat="42.061266" lon="13.6010225"><ele>773.0</ele><time>2026-05-02T14:00:51.031Z</time></trkpt><trkpt lat="42.0612367" lon="13.6011202"><ele>773.0</ele><time>2026-05-02T14:00:52.032Z</time></trkpt><trkpt lat="42.0612448" lon="13.601229"><ele>773.0</ele><time>2026-05-02T14:00:53.032Z</time></trkpt><trkpt lat="42.0612812" lon="13.6013463"><ele>773.0000000000001</ele><time>2026-05-02T14:00:54.032Z</time></trkpt><trkpt lat="42.061339" lon="13.6014622"><ele>773.0</ele><time>2026-05-02T14:00:55.032Z</time></trkpt><trkpt lat="42.0614037" lon="13.6015694"><ele>772.0</ele><time>2026-05-02T14:00:56.032Z</time></trkpt><trkpt lat="42.0614754" lon="13.6016851"><ele>771.0</ele><time>2026-05-02T14:00:57.032Z</time></trkpt><trkpt lat="42.0615456" lon="13.6018089"><ele>770.0</ele><time>2026-05-02T14:00:58.032Z</time></trkpt><trkpt lat="42.0616154" lon="13.6019363"><ele>769.0</ele><time>2026-05-02T14:00:59.032Z</time></trkpt><trkpt lat="42.0616865" lon="13.6020601"><ele>769.0</ele><time>2026-05-02T14:01:00.032Z</time></trkpt><trkpt lat="42.0617623" lon="13.6021852"><ele>769.0</ele><time>2026-05-02T14:01:01.032Z</time></trkpt><trkpt lat="42.0618417" lon="13.6023137"><ele>769.0</ele><time>2026-05-02T14:01:02.031Z</time></trkpt><trkpt lat="42.0619169" lon="13.6024539"><ele>769.0</ele><time>2026-05-02T14:01:03.032Z</time></trkpt><trkpt lat="42.0619856" lon="13.6026001"><ele>769.0</ele><time>2026-05-02T14:01:04.032Z</time></trkpt><trkpt lat="42.0620464" lon="13.6027585"><ele>769.0</ele><time>2026-05-02T14:01:05.032Z</time></trkpt><trkpt lat="42.0621071" lon="13.6029217"><ele>769.0</ele><time>2026-05-02T14:01:06.031Z</time></trkpt><trkpt lat="42.0621589" lon="13.6030829"><ele>769.0</ele><time>2026-05-02T14:01:07.032Z</time></trkpt><trkpt lat="42.06221" lon="13.603252"><ele>768.25</ele><time>2026-05-02T14:01:08.032Z</time></trkpt><trkpt lat="42.0622681" lon="13.6034288"><ele>767.5</ele><time>2026-05-02T14:01:09.032Z</time></trkpt><trkpt lat="42.0623215" lon="13.603599"><ele>766.75</ele><time>2026-05-02T14:01:10.032Z</time></trkpt><trkpt lat="42.062377" lon="13.6037689"><ele>766.0</ele><time>2026-05-02T14:01:11.032Z</time></trkpt><trkpt lat="42.0624269" lon="13.6039288"><ele>766.5999999999999</ele><time>2026-05-02T14:01:12.032Z</time></trkpt><trkpt lat="42.0624754" lon="13.6040847"><ele>767.2</ele><time>2026-05-02T14:01:13.031Z</time></trkpt><trkpt lat="42.0625239" lon="13.6042286"><ele>767.8</ele><time>2026-05-02T14:01:14.032Z</time></trkpt><trkpt lat="42.0625681" lon="13.6043468"><ele>768.4000000000001</ele><time>2026-05-02T14:01:15.032Z</time></trkpt><trkpt lat="42.0625985" lon="13.6044572"><ele>769.0</ele><time>2026-05-02T14:01:16.032Z</time></trkpt><trkpt lat="42.0626078" lon="13.6045418"><ele>769.0</ele><time>2026-05-02T14:01:17.032Z</time></trkpt><trkpt lat="42.0625415" lon="13.604667"><ele>769.0</ele><time>2026-05-02T14:01:19.032Z</time></trkpt><trkpt lat="42.0624654" lon="13.6046836"><ele>769.0</ele><time>2026-05-02T14:01:20.032Z</time></trkpt><trkpt lat="42.0623823" lon="13.604666"><ele>769.0</ele><time>2026-05-02T14:01:21.032Z</time></trkpt><trkpt lat="42.0622752" lon="13.6046324"><ele>769.0</ele><time>2026-05-02T14:01:22.032Z</time></trkpt><trkpt lat="42.062157" lon="13.6045935"><ele>767.5</ele><time>2026-05-02T14:01:23.032Z</time></trkpt><trkpt lat="42.06202" lon="13.6045674"><ele>766.0</ele><time>2026-05-02T14:01:24.032Z</time></trkpt><trkpt lat="42.0618819" lon="13.6045309"><ele>764.5</ele><time>2026-05-02T14:01:25.031Z</time></trkpt><trkpt lat="42.061741" lon="13.6044961"><ele>763.0</ele><time>2026-05-02T14:01:26.032Z</time></trkpt><trkpt lat="42.06159" lon="13.6044646"><ele>760.6666666666667</ele><time>2026-05-02T14:01:27.031Z</time></trkpt><trkpt lat="42.0614338" lon="13.6044294"><ele>758.3333333333334</ele><time>2026-05-02T14:01:28.032Z</time></trkpt><trkpt lat="42.061272" lon="13.6043992"><ele>756.0</ele><time>2026-05-02T14:01:29.032Z</time></trkpt><trkpt lat="42.0611118" lon="13.6043718"><ele>756.0</ele><time>2026-05-02T14:01:30.031Z</time></trkpt><trkpt lat="42.0609542" lon="13.6043417"><ele>756.0</ele><time>2026-05-02T14:01:31.032Z</time></trkpt><trkpt lat="42.0607975" lon="13.6043105"><ele>756.0</ele><time>2026-05-02T14:01:32.031Z</time></trkpt><trkpt lat="42.0606416" lon="13.6042792"><ele>755.0</ele><time>2026-05-02T14:01:33.032Z</time></trkpt><trkpt lat="42.060484" lon="13.6042334"><ele>754.0</ele><time>2026-05-02T14:01:34.032Z</time></trkpt><trkpt lat="42.0603322" lon="13.6041872"><ele>753.0</ele><time>2026-05-02T14:01:35.031Z</time></trkpt><trkpt lat="42.0601812" lon="13.6041341"><ele>753.0</ele><time>2026-05-02T14:01:36.031Z</time></trkpt><trkpt lat="42.0600326" lon="13.6040766"><ele>753.0</ele><time>2026-05-02T14:01:37.032Z</time></trkpt><trkpt lat="42.0598905" lon="13.6040091"><ele>753.0</ele><time>2026-05-02T14:01:38.032Z</time></trkpt><trkpt lat="42.0597475" lon="13.6039383"><ele>753.3333333333334</ele><time>2026-05-02T14:01:39.032Z</time></trkpt><trkpt lat="42.0595996" lon="13.6038696"><ele>753.6666666666667</ele><time>2026-05-02T14:01:40.032Z</time></trkpt><trkpt lat="42.0594594" lon="13.603806"><ele>754.0</ele><time>2026-05-02T14:01:41.032Z</time></trkpt><trkpt lat="42.0593169" lon="13.6037395"><ele>754.0</ele><time>2026-05-02T14:01:42.032Z</time></trkpt><trkpt lat="42.0591754" lon="13.6036719"><ele>754.0</ele><time>2026-05-02T14:01:43.032Z</time></trkpt><trkpt lat="42.0590267" lon="13.603604"><ele>754.0</ele><time>2026-05-02T14:01:44.032Z</time></trkpt><trkpt lat="42.0588829" lon="13.6035346"><ele>751.6666666666667</ele><time>2026-05-02T14:01:45.032Z</time></trkpt><trkpt lat="42.0587458" lon="13.6034702"><ele>749.3333333333334</ele><time>2026-05-02T14:01:46.031Z</time></trkpt><trkpt lat="42.0585976" lon="13.603399"><ele>747.0</ele><time>2026-05-02T14:01:47.031Z</time></trkpt><trkpt lat="42.0584465" lon="13.6033352"><ele>747.0</ele><time>2026-05-02T14:01:48.032Z</time></trkpt><trkpt lat="42.0583011" lon="13.6032761"><ele>747.0</ele><time>2026-05-02T14:01:49.032Z</time></trkpt><trkpt lat="42.0581576" lon="13.603216"><ele>747.0</ele><time>2026-05-02T14:01:50.032Z</time></trkpt><trkpt lat="42.0580236" lon="13.6031575"><ele>747.0</ele><time>2026-05-02T14:01:51.031Z</time></trkpt><trkpt lat="42.0578893" lon="13.6031065"><ele>745.75</ele><time>2026-05-02T14:01:52.032Z</time></trkpt><trkpt lat="42.0577603" lon="13.6030491"><ele>744.5</ele><time>2026-05-02T14:01:53.032Z</time></trkpt><trkpt lat="42.0576287" lon="13.6029925"><ele>743.25</ele><time>2026-05-02T14:01:54.032Z</time></trkpt><trkpt lat="42.0575005" lon="13.6029412"><ele>742.0</ele><time>2026-05-02T14:01:55.032Z</time></trkpt><trkpt lat="42.0573818" lon="13.6028991"><ele>741.4000000000001</ele><time>2026-05-02T14:01:56.031Z</time></trkpt><trkpt lat="42.0572846" lon="13.6028571"><ele>740.8000000000001</ele><time>2026-05-02T14:01:57.032Z</time></trkpt><trkpt lat="42.0572028" lon="13.6028054"><ele>740.2</ele><time>2026-05-02T14:01:58.032Z</time></trkpt><trkpt lat="42.0571324" lon="13.6027552"><ele>739.6</ele><time>2026-05-02T14:01:59.031Z</time></trkpt><trkpt lat="42.0570625" lon="13.6026595"><ele>739.0</ele><time>2026-05-02T14:02:01.032Z</time></trkpt><trkpt lat="42.0570203" lon="13.60251"><ele>738.0</ele><time>2026-05-02T14:02:04.032Z</time></trkpt><trkpt lat="42.0570042" lon="13.6024193"><ele>737.0</ele><time>2026-05-02T14:02:05.032Z</time></trkpt><trkpt lat="42.0569915" lon="13.6022935"><ele>736.0</ele><time>2026-05-02T14:02:06.032Z</time></trkpt><trkpt lat="42.0569777" lon="13.6021539"><ele>735.0</ele><time>2026-05-02T14:02:07.032Z</time></trkpt><trkpt lat="42.0569631" lon="13.6019966"><ele>734.0</ele><time>2026-05-02T14:02:08.032Z</time></trkpt><trkpt lat="42.0569449" lon="13.6018313"><ele>733.5</ele><time>2026-05-02T14:02:09.032Z</time></trkpt><trkpt lat="42.0569259" lon="13.6016585"><ele>733.0</ele><time>2026-05-02T14:02:10.032Z</time></trkpt><trkpt lat="42.0569063" lon="13.6014709"><ele>732.5</ele><time>2026-05-02T14:02:11.032Z</time></trkpt><trkpt lat="42.0568843" lon="13.6012867"><ele>732.0</ele><time>2026-05-02T14:02:12.031Z</time></trkpt><trkpt lat="42.0568629" lon="13.6010937"><ele>731.5</ele><time>2026-05-02T14:02:13.032Z</time></trkpt><trkpt lat="42.0568445" lon="13.6009018"><ele>731.0</ele><time>2026-05-02T14:02:14.031Z</time></trkpt><trkpt lat="42.0568224" lon="13.6007233"><ele>730.5</ele><time>2026-05-02T14:02:15.032Z</time></trkpt><trkpt lat="42.0568014" lon="13.6005428"><ele>730.0</ele><time>2026-05-02T14:02:16.031Z</time></trkpt><trkpt lat="42.0567844" lon="13.6003681"><ele>729.75</ele><time>2026-05-02T14:02:17.032Z</time></trkpt><trkpt lat="42.0567657" lon="13.6001986"><ele>729.5</ele><time>2026-05-02T14:02:18.032Z</time></trkpt><trkpt lat="42.056745" lon="13.60003"><ele>729.25</ele><time>2026-05-02T14:02:19.032Z</time></trkpt><trkpt lat="42.0567236" lon="13.5998513"><ele>729.0</ele><time>2026-05-02T14:02:20.031Z</time></trkpt><trkpt lat="42.0567092" lon="13.5996637"><ele>727.6666666666666</ele><time>2026-05-02T14:02:21.032Z</time></trkpt><trkpt lat="42.0566895" lon="13.5994673"><ele>726.3333333333333</ele><time>2026-05-02T14:02:22.032Z</time></trkpt><trkpt lat="42.0566653" lon="13.5992615"><ele>725.0</ele><time>2026-05-02T14:02:23.032Z</time></trkpt><trkpt lat="42.0566411" lon="13.5990501"><ele>724.6666666666666</ele><time>2026-05-02T14:02:24.032Z</time></trkpt><trkpt lat="42.0566168" lon="13.5988358"><ele>724.3333333333334</ele><time>2026-05-02T14:02:25.032Z</time></trkpt><trkpt lat="42.0565934" lon="13.5986205"><ele>724.0</ele><time>2026-05-02T14:02:26.032Z</time></trkpt><trkpt lat="42.0565714" lon="13.5984042"><ele>723.6666666666667</ele><time>2026-05-02T14:02:27.032Z</time></trkpt><trkpt lat="42.0565485" lon="13.5981854"><ele>723.3333333333334</ele><time>2026-05-02T14:02:28.032Z</time></trkpt><trkpt lat="42.0565255" lon="13.5979624"><ele>723.0</ele><time>2026-05-02T14:02:29.032Z</time></trkpt><trkpt lat="42.0565022" lon="13.5977412"><ele>722.3333333333334</ele><time>2026-05-02T14:02:30.032Z</time></trkpt><trkpt lat="42.056479" lon="13.5975204"><ele>721.6666666666667</ele><time>2026-05-02T14:02:31.032Z</time></trkpt><trkpt lat="42.0564564" lon="13.5973054"><ele>721.0</ele><time>2026-05-02T14:02:32.032Z</time></trkpt><trkpt lat="42.0564362" lon="13.5971"><ele>720.75</ele><time>2026-05-02T14:02:33.032Z</time></trkpt><trkpt lat="42.056421" lon="13.596901"><ele>720.5</ele><time>2026-05-02T14:02:34.032Z</time></trkpt><trkpt lat="42.0563962" lon="13.5967026"><ele>720.25</ele><time>2026-05-02T14:02:35.032Z</time></trkpt><trkpt lat="42.0563757" lon="13.5965078"><ele>720.0</ele><time>2026-05-02T14:02:36.032Z</time></trkpt><trkpt lat="42.0563539" lon="13.596309"><ele>720.3333333333334</ele><time>2026-05-02T14:02:37.032Z</time></trkpt><trkpt lat="42.0563322" lon="13.5961057"><ele>720.6666666666667</ele><time>2026-05-02T14:02:38.032Z</time></trkpt><trkpt lat="42.0563112" lon="13.5959028"><ele>721.0</ele><time>2026-05-02T14:02:39.032Z</time></trkpt><trkpt lat="42.0562874" lon="13.595695"><ele>721.0</ele><time>2026-05-02T14:02:40.032Z</time></trkpt><trkpt lat="42.0562672" lon="13.5954835"><ele>721.0</ele><time>2026-05-02T14:02:41.031Z</time></trkpt><trkpt lat="42.0562447" lon="13.5952678"><ele>721.0</ele><time>2026-05-02T14:02:42.031Z</time></trkpt><trkpt lat="42.0562202" lon="13.5950517"><ele>720.6666666666667</ele><time>2026-05-02T14:02:43.032Z</time></trkpt><trkpt lat="42.0561937" lon="13.5948314"><ele>720.3333333333334</ele><time>2026-05-02T14:02:44.032Z</time></trkpt><trkpt lat="42.0561712" lon="13.5946162"><ele>720.0</ele><time>2026-05-02T14:02:45.032Z</time></trkpt><trkpt lat="42.0561536" lon="13.5944029"><ele>720.0</ele><time>2026-05-02T14:02:46.032Z</time></trkpt><trkpt lat="42.0561354" lon="13.5941887"><ele>720.0</ele><time>2026-05-02T14:02:47.031Z</time></trkpt><trkpt lat="42.056117" lon="13.5939767"><ele>720.0</ele><time>2026-05-02T14:02:48.032Z</time></trkpt><trkpt lat="42.0560992" lon="13.5937601"><ele>719.6666666666666</ele><time>2026-05-02T14:02:49.032Z</time></trkpt><trkpt lat="42.0560851" lon="13.5935469"><ele>719.3333333333333</ele><time>2026-05-02T14:02:50.032Z</time></trkpt><trkpt lat="42.0560734" lon="13.5933274"><ele>719.0</ele><time>2026-05-02T14:02:51.032Z</time></trkpt><trkpt lat="42.0560692" lon="13.5931045"><ele>719.0</ele><time>2026-05-02T14:02:52.032Z</time></trkpt><trkpt lat="42.0560716" lon="13.5928833"><ele>719.0</ele><time>2026-05-02T14:02:53.031Z</time></trkpt><trkpt lat="42.0560772" lon="13.5926565"><ele>719.0</ele><time>2026-05-02T14:02:54.032Z</time></trkpt><trkpt lat="42.0560883" lon="13.5924233"><ele>718.6666666666666</ele><time>2026-05-02T14:02:55.032Z</time></trkpt><trkpt lat="42.0561035" lon="13.592194"><ele>718.3333333333334</ele><time>2026-05-02T14:02:56.032Z</time></trkpt><trkpt lat="42.0561163" lon="13.5919574"><ele>718.0</ele><time>2026-05-02T14:02:57.031Z</time></trkpt><trkpt lat="42.0561306" lon="13.5917259"><ele>717.3333333333334</ele><time>2026-05-02T14:02:58.031Z</time></trkpt><trkpt lat="42.0561452" lon="13.5914922"><ele>716.6666666666666</ele><time>2026-05-02T14:02:59.031Z</time></trkpt><trkpt lat="42.0561632" lon="13.5912521"><ele>716.0</ele><time>2026-05-02T14:03:00.031Z</time></trkpt><trkpt lat="42.0561764" lon="13.5910106"><ele>716.0</ele><time>2026-05-02T14:03:01.032Z</time></trkpt><trkpt lat="42.0561896" lon="13.5907698"><ele>716.0</ele><time>2026-05-02T14:03:02.032Z</time></trkpt><trkpt lat="42.0562034" lon="13.5905217"><ele>716.0</ele><time>2026-05-02T14:03:03.031Z</time></trkpt><trkpt lat="42.0562215" lon="13.590274"><ele>715.3333333333333</ele><time>2026-05-02T14:03:04.032Z</time></trkpt><trkpt lat="42.0562375" lon="13.5900206"><ele>714.6666666666666</ele><time>2026-05-02T14:03:05.032Z</time></trkpt><trkpt lat="42.0562496" lon="13.589766"><ele>714.0</ele><time>2026-05-02T14:03:06.032Z</time></trkpt><trkpt lat="42.0562611" lon="13.5895133"><ele>714.0</ele><time>2026-05-02T14:03:07.032Z</time></trkpt><trkpt lat="42.0562752" lon="13.5892634"><ele>714.0</ele><time>2026-05-02T14:03:08.032Z</time></trkpt><trkpt lat="42.0562885" lon="13.5890179"><ele>714.0</ele><time>2026-05-02T14:03:09.032Z</time></trkpt><trkpt lat="42.0563017" lon="13.5887743"><ele>713.3333333333334</ele><time>2026-05-02T14:03:10.032Z</time></trkpt><trkpt lat="42.0563185" lon="13.5885368"><ele>712.6666666666667</ele><time>2026-05-02T14:03:11.031Z</time></trkpt><trkpt lat="42.0563351" lon="13.5883024"><ele>712.0</ele><time>2026-05-02T14:03:12.031Z</time></trkpt><trkpt lat="42.0563513" lon="13.5880782"><ele>712.0</ele><time>2026-05-02T14:03:13.032Z</time></trkpt><trkpt lat="42.0563679" lon="13.5878581"><ele>712.0</ele><time>2026-05-02T14:03:14.032Z</time></trkpt><trkpt lat="42.056376" lon="13.5876475"><ele>712.0</ele><time>2026-05-02T14:03:15.031Z</time></trkpt><trkpt lat="42.0563849" lon="13.5874457"><ele>711.5</ele><time>2026-05-02T14:03:16.032Z</time></trkpt><trkpt lat="42.0563954" lon="13.5872435"><ele>711.0</ele><time>2026-05-02T14:03:17.031Z</time></trkpt><trkpt lat="42.0564085" lon="13.5870526"><ele>710.5</ele><time>2026-05-02T14:03:18.032Z</time></trkpt><trkpt lat="42.0564192" lon="13.5868575"><ele>710.0</ele><time>2026-05-02T14:03:19.032Z</time></trkpt><trkpt lat="42.0564301" lon="13.5866543"><ele>709.0</ele><time>2026-05-02T14:03:20.031Z</time></trkpt><trkpt lat="42.0564399" lon="13.586438"><ele>708.0</ele><time>2026-05-02T14:03:21.032Z</time></trkpt><trkpt lat="42.0564518" lon="13.5862164"><ele>707.0</ele><time>2026-05-02T14:03:22.031Z</time></trkpt><trkpt lat="42.0564658" lon="13.5859885"><ele>706.0</ele><time>2026-05-02T14:03:23.032Z</time></trkpt><trkpt lat="42.0564802" lon="13.5857613"><ele>705.0</ele><time>2026-05-02T14:03:24.032Z</time></trkpt><trkpt lat="42.0564955" lon="13.5855406"><ele>704.0</ele><time>2026-05-02T14:03:25.032Z</time></trkpt><trkpt lat="42.0565104" lon="13.5853205"><ele>703.3333333333333</ele><time>2026-05-02T14:03:26.032Z</time></trkpt><trkpt lat="42.056526" lon="13.5850978"><ele>702.6666666666666</ele><time>2026-05-02T14:03:27.032Z</time></trkpt><trkpt lat="42.0565401" lon="13.5848731"><ele>702.0</ele><time>2026-05-02T14:03:28.032Z</time></trkpt><trkpt lat="42.0565491" lon="13.5846467"><ele>700.6666666666666</ele><time>2026-05-02T14:03:29.032Z</time></trkpt><trkpt lat="42.0565462" lon="13.5844249"><ele>699.3333333333333</ele><time>2026-05-02T14:03:30.032Z</time></trkpt><trkpt lat="42.0565199" lon="13.5841997"><ele>698.0</ele><time>2026-05-02T14:03:31.032Z</time></trkpt><trkpt lat="42.0564706" lon="13.583976"><ele>698.0</ele><time>2026-05-02T14:03:32.032Z</time></trkpt><trkpt lat="42.0564045" lon="13.5837601"><ele>698.0</ele><time>2026-05-02T14:03:33.032Z</time></trkpt><trkpt lat="42.056328" lon="13.5835462"><ele>698.0</ele><time>2026-05-02T14:03:34.032Z</time></trkpt><trkpt lat="42.0562522" lon="13.5833307"><ele>697.3333333333333</ele><time>2026-05-02T14:03:35.032Z</time></trkpt><trkpt lat="42.0561833" lon="13.583114"><ele>696.6666666666666</ele><time>2026-05-02T14:03:36.032Z</time></trkpt><trkpt lat="42.0561217" lon="13.5829002"><ele>696.0</ele><time>2026-05-02T14:03:37.032Z</time></trkpt><trkpt lat="42.056075" lon="13.5826927"><ele>695.6666666666666</ele><time>2026-05-02T14:03:38.032Z</time></trkpt><trkpt lat="42.0560475" lon="13.5824853"><ele>695.3333333333333</ele><time>2026-05-02T14:03:39.032Z</time></trkpt><trkpt lat="42.056037" lon="13.5822781"><ele>695.0</ele><time>2026-05-02T14:03:40.032Z</time></trkpt><trkpt lat="42.0560416" lon="13.5820828"><ele>694.25</ele><time>2026-05-02T14:03:41.032Z</time></trkpt><trkpt lat="42.0560556" lon="13.5819033"><ele>693.5</ele><time>2026-05-02T14:03:42.032Z</time></trkpt><trkpt lat="42.0560871" lon="13.5817583"><ele>692.75</ele><time>2026-05-02T14:03:43.032Z</time></trkpt><trkpt lat="42.0561442" lon="13.5816233"><ele>692.0</ele><time>2026-05-02T14:03:44.032Z</time></trkpt><trkpt lat="42.056213" lon="13.5814966"><ele>692.0</ele><time>2026-05-02T14:03:45.032Z</time></trkpt><trkpt lat="42.0562706" lon="13.5813593"><ele>692.0</ele><time>2026-05-02T14:03:46.032Z</time></trkpt><trkpt lat="42.0562907" lon="13.5812073"><ele>692.0</ele><time>2026-05-02T14:03:47.032Z</time></trkpt><trkpt lat="42.0562925" lon="13.5810393"><ele>692.0</ele><time>2026-05-02T14:03:48.031Z</time></trkpt><trkpt lat="42.0563135" lon="13.5808684"><ele>691.0</ele><time>2026-05-02T14:03:49.031Z</time></trkpt><trkpt lat="42.0563643" lon="13.5806948"><ele>690.0</ele><time>2026-05-02T14:03:50.032Z</time></trkpt><trkpt lat="42.0564478" lon="13.5805227"><ele>689.0</ele><time>2026-05-02T14:03:51.032Z</time></trkpt><trkpt lat="42.0565383" lon="13.5803416"><ele>689.6666666666666</ele><time>2026-05-02T14:03:52.032Z</time></trkpt><trkpt lat="42.0566255" lon="13.5801546"><ele>690.3333333333334</ele><time>2026-05-02T14:03:53.032Z</time></trkpt><trkpt lat="42.056711" lon="13.5799614"><ele>691.0</ele><time>2026-05-02T14:03:54.032Z</time></trkpt><trkpt lat="42.0567784" lon="13.5797533"><ele>691.0</ele><time>2026-05-02T14:03:55.032Z</time></trkpt><trkpt lat="42.0568299" lon="13.5795352"><ele>691.0</ele><time>2026-05-02T14:03:56.032Z</time></trkpt><trkpt lat="42.0568688" lon="13.5792948"><ele>691.0</ele><time>2026-05-02T14:03:57.032Z</time></trkpt><trkpt lat="42.0568947" lon="13.5790503"><ele>690.3333333333334</ele><time>2026-05-02T14:03:58.031Z</time></trkpt><trkpt lat="42.0569095" lon="13.5788033"><ele>689.6666666666666</ele><time>2026-05-02T14:03:59.032Z</time></trkpt><trkpt lat="42.0569235" lon="13.5785484"><ele>689.0</ele><time>2026-05-02T14:04:00.032Z</time></trkpt><trkpt lat="42.0569404" lon="13.5782955"><ele>688.3333333333333</ele><time>2026-05-02T14:04:01.032Z</time></trkpt><trkpt lat="42.0569573" lon="13.578043"><ele>687.6666666666666</ele><time>2026-05-02T14:04:02.031Z</time></trkpt><trkpt lat="42.0569699" lon="13.5777867"><ele>687.0</ele><time>2026-05-02T14:04:03.032Z</time></trkpt><trkpt lat="42.0569846" lon="13.5775267"><ele>687.0</ele><time>2026-05-02T14:04:04.032Z</time></trkpt><trkpt lat="42.0569982" lon="13.5772674"><ele>687.0</ele><time>2026-05-02T14:04:05.031Z</time></trkpt><trkpt lat="42.0570131" lon="13.5770033"><ele>687.0</ele><time>2026-05-02T14:04:06.032Z</time></trkpt><trkpt lat="42.0570294" lon="13.5767401"><ele>687.0</ele><time>2026-05-02T14:04:07.032Z</time></trkpt><trkpt lat="42.0570474" lon="13.5764743"><ele>687.0</ele><time>2026-05-02T14:04:08.032Z</time></trkpt><trkpt lat="42.0570664" lon="13.5762096"><ele>687.0</ele><time>2026-05-02T14:04:09.031Z</time></trkpt><trkpt lat="42.0570814" lon="13.575947"><ele>687.0</ele><time>2026-05-02T14:04:10.031Z</time></trkpt><trkpt lat="42.0570952" lon="13.5756812"><ele>687.0</ele><time>2026-05-02T14:04:11.032Z</time></trkpt><trkpt lat="42.0571095" lon="13.5754132"><ele>687.0</ele><time>2026-05-02T14:04:12.032Z</time></trkpt><trkpt lat="42.0571272" lon="13.5751433"><ele>687.0</ele><time>2026-05-02T14:04:13.032Z</time></trkpt><trkpt lat="42.057145" lon="13.5748715"><ele>687.0</ele><time>2026-05-02T14:04:14.032Z</time></trkpt><trkpt lat="42.057161" lon="13.5745977"><ele>687.0</ele><time>2026-05-02T14:04:15.032Z</time></trkpt><trkpt lat="42.0571771" lon="13.5743229"><ele>687.0</ele><time>2026-05-02T14:04:16.032Z</time></trkpt><trkpt lat="42.0571938" lon="13.5740459"><ele>687.0</ele><time>2026-05-02T14:04:17.032Z</time></trkpt><trkpt lat="42.0572095" lon="13.5737703"><ele>687.0</ele><time>2026-05-02T14:04:18.032Z</time></trkpt><trkpt lat="42.0572245" lon="13.5734982"><ele>687.0</ele><time>2026-05-02T14:04:19.032Z</time></trkpt><trkpt lat="42.0572412" lon="13.5732268"><ele>687.0</ele><time>2026-05-02T14:04:20.032Z</time></trkpt><trkpt lat="42.0572581" lon="13.5729512"><ele>687.0</ele><time>2026-05-02T14:04:21.031Z</time></trkpt><trkpt lat="42.0572752" lon="13.5726795"><ele>685.6666666666666</ele><time>2026-05-02T14:04:22.032Z</time></trkpt><trkpt lat="42.0572917" lon="13.5724096"><ele>684.3333333333333</ele><time>2026-05-02T14:04:23.032Z</time></trkpt><trkpt lat="42.0573035" lon="13.5721349"><ele>683.0</ele><time>2026-05-02T14:04:24.032Z</time></trkpt><trkpt lat="42.0573174" lon="13.5718586"><ele>682.6666666666666</ele><time>2026-05-02T14:04:25.031Z</time></trkpt><trkpt lat="42.0573346" lon="13.5715806"><ele>682.3333333333334</ele><time>2026-05-02T14:04:26.032Z</time></trkpt><trkpt lat="42.0573513" lon="13.5712979"><ele>682.0</ele><time>2026-05-02T14:04:27.032Z</time></trkpt><trkpt lat="42.0573662" lon="13.5710184"><ele>682.6666666666667</ele><time>2026-05-02T14:04:28.032Z</time></trkpt><trkpt lat="42.0573807" lon="13.5707385"><ele>683.3333333333334</ele><time>2026-05-02T14:04:29.032Z</time></trkpt><trkpt lat="42.0573968" lon="13.5704604"><ele>684.0</ele><time>2026-05-02T14:04:30.032Z</time></trkpt><trkpt lat="42.0574128" lon="13.5701829"><ele>684.3333333333334</ele><time>2026-05-02T14:04:31.031Z</time></trkpt><trkpt lat="42.0574316" lon="13.5699107"><ele>684.6666666666667</ele><time>2026-05-02T14:04:32.032Z</time></trkpt><trkpt lat="42.0574482" lon="13.5696368"><ele>685.0</ele><time>2026-05-02T14:04:33.032Z</time></trkpt><trkpt lat="42.0574622" lon="13.5693612"><ele>686.0</ele><time>2026-05-02T14:04:34.032Z</time></trkpt><trkpt lat="42.057475" lon="13.5690928"><ele>687.0</ele><time>2026-05-02T14:04:35.032Z</time></trkpt><trkpt lat="42.0574898" lon="13.5688236"><ele>688.0</ele><time>2026-05-02T14:04:36.032Z</time></trkpt><trkpt lat="42.0575069" lon="13.5685608"><ele>688.0</ele><time>2026-05-02T14:04:37.032Z</time></trkpt><trkpt lat="42.0575224" lon="13.5683186"><ele>688.0</ele><time>2026-05-02T14:04:38.032Z</time></trkpt><trkpt lat="42.0575328" lon="13.5680924"><ele>688.0</ele><time>2026-05-02T14:04:39.032Z</time></trkpt><trkpt lat="42.057551" lon="13.5678814"><ele>688.25</ele><time>2026-05-02T14:04:40.032Z</time></trkpt><trkpt lat="42.0575801" lon="13.5676951"><ele>688.5</ele><time>2026-05-02T14:04:41.032Z</time></trkpt><trkpt lat="42.057623" lon="13.5675303"><ele>688.75</ele><time>2026-05-02T14:04:42.032Z</time></trkpt><trkpt lat="42.0576731" lon="13.567394"><ele>689.0</ele><time>2026-05-02T14:04:43.031Z</time></trkpt><trkpt lat="42.0577281" lon="13.567274"><ele>689.0</ele><time>2026-05-02T14:04:44.032Z</time></trkpt><trkpt lat="42.0577749" lon="13.5671656"><ele>689.0</ele><time>2026-05-02T14:04:45.032Z</time></trkpt><trkpt lat="42.0577864" lon="13.5670541"><ele>689.0</ele><time>2026-05-02T14:04:46.031Z</time></trkpt><trkpt lat="42.0577552" lon="13.5669424"><ele>689.0</ele><time>2026-05-02T14:04:47.032Z</time></trkpt><trkpt lat="42.0577053" lon="13.5668299"><ele>689.0</ele><time>2026-05-02T14:04:48.032Z</time></trkpt><trkpt lat="42.0576665" lon="13.5666957"><ele>689.0</ele><time>2026-05-02T14:04:49.032Z</time></trkpt><trkpt lat="42.0576543" lon="13.5665333"><ele>689.0</ele><time>2026-05-02T14:04:50.032Z</time></trkpt><trkpt lat="42.0576529" lon="13.5663319"><ele>689.0</ele><time>2026-05-02T14:04:51.032Z</time></trkpt><trkpt lat="42.0576609" lon="13.5661125"><ele>689.0</ele><time>2026-05-02T14:04:52.032Z</time></trkpt><trkpt lat="42.0576714" lon="13.5658794"><ele>689.0</ele><time>2026-05-02T14:04:53.032Z</time></trkpt><trkpt lat="42.0576865" lon="13.5656402"><ele>689.0</ele><time>2026-05-02T14:04:54.032Z</time></trkpt><trkpt lat="42.0576982" lon="13.5653931"><ele>689.0</ele><time>2026-05-02T14:04:55.032Z</time></trkpt><trkpt lat="42.0577108" lon="13.5651402"><ele>689.3333333333333</ele><time>2026-05-02T14:04:56.032Z</time></trkpt><trkpt lat="42.057723" lon="13.5648825"><ele>689.6666666666666</ele><time>2026-05-02T14:04:57.032Z</time></trkpt><trkpt lat="42.0577381" lon="13.5646245"><ele>690.0</ele><time>2026-05-02T14:04:58.032Z</time></trkpt><trkpt lat="42.0577508" lon="13.5643693"><ele>690.6666666666666</ele><time>2026-05-02T14:04:59.031Z</time></trkpt><trkpt lat="42.0577655" lon="13.5641135"><ele>691.3333333333333</ele><time>2026-05-02T14:05:00.032Z</time></trkpt><trkpt lat="42.0577809" lon="13.5638577"><ele>692.0</ele><time>2026-05-02T14:05:01.032Z</time></trkpt><trkpt lat="42.0577967" lon="13.5636148"><ele>692.0</ele><time>2026-05-02T14:05:02.032Z</time></trkpt><trkpt lat="42.057808" lon="13.5633774"><ele>692.0</ele><time>2026-05-02T14:05:03.031Z</time></trkpt><trkpt lat="42.0578234" lon="13.5631597"><ele>692.0</ele><time>2026-05-02T14:05:04.032Z</time></trkpt><trkpt lat="42.057835" lon="13.5629609"><ele>692.25</ele><time>2026-05-02T14:05:05.032Z</time></trkpt><trkpt lat="42.0578467" lon="13.5627763"><ele>692.5</ele><time>2026-05-02T14:05:06.032Z</time></trkpt><trkpt lat="42.057851" lon="13.5626102"><ele>692.75</ele><time>2026-05-02T14:05:07.032Z</time></trkpt><trkpt lat="42.0578551" lon="13.5624624"><ele>693.0</ele><time>2026-05-02T14:05:08.032Z</time></trkpt><trkpt lat="42.0578481" lon="13.5623461"><ele>693.0</ele><time>2026-05-02T14:05:09.032Z</time></trkpt><trkpt lat="42.0578271" lon="13.5622474"><ele>693.0</ele><time>2026-05-02T14:05:10.032Z</time></trkpt><trkpt lat="42.0577941" lon="13.5621679"><ele>693.0</ele><time>2026-05-02T14:05:11.032Z</time></trkpt><trkpt lat="42.0577562" lon="13.5620414"><ele>693.0</ele><time>2026-05-02T14:05:13.032Z</time></trkpt><trkpt lat="42.057763" lon="13.5619357"><ele>693.0</ele><time>2026-05-02T14:05:15.032Z</time></trkpt><trkpt lat="42.0577766" lon="13.5618514"><ele>693.0</ele><time>2026-05-02T14:05:17.032Z</time></trkpt><trkpt lat="42.0577675" lon="13.5617244"><ele>693.0</ele><time>2026-05-02T14:05:29.032Z</time></trkpt><trkpt lat="42.057795" lon="13.5616464"><ele>693.0</ele><time>2026-05-02T14:05:32.032Z</time></trkpt><trkpt lat="42.0578725" lon="13.561521"><ele>693.0</ele><time>2026-05-02T14:05:40.032Z</time></trkpt><trkpt lat="42.0579136" lon="13.5614061"><ele>693.0</ele><time>2026-05-02T14:05:42.032Z</time></trkpt><trkpt lat="42.0579203" lon="13.5613028"><ele>693.0</ele><time>2026-05-02T14:05:44.032Z</time></trkpt><trkpt lat="42.0579323" lon="13.5611589"><ele>693.0</ele><time>2026-05-02T14:05:46.032Z</time></trkpt><trkpt lat="42.0579456" lon="13.5610558"><ele>693.0</ele><time>2026-05-02T14:05:47.032Z</time></trkpt><trkpt lat="42.0579513" lon="13.5609394"><ele>693.0</ele><time>2026-05-02T14:05:48.032Z</time></trkpt><trkpt lat="42.0579561" lon="13.5607953"><ele>693.0</ele><time>2026-05-02T14:05:49.032Z</time></trkpt><trkpt lat="42.0579665" lon="13.5606501"><ele>693.0</ele><time>2026-05-02T14:05:50.032Z</time></trkpt><trkpt lat="42.0579791" lon="13.5605014"><ele>693.0</ele><time>2026-05-02T14:05:51.032Z</time></trkpt><trkpt lat="42.0579925" lon="13.5603361"><ele>693.0</ele><time>2026-05-02T14:05:52.032Z</time></trkpt><trkpt lat="42.058015" lon="13.5601613"><ele>693.0</ele><time>2026-05-02T14:05:53.032Z</time></trkpt><trkpt lat="42.0580499" lon="13.5599923"><ele>693.0</ele><time>2026-05-02T14:05:54.032Z</time></trkpt><trkpt lat="42.0580895" lon="13.5598335"><ele>693.0</ele><time>2026-05-02T14:05:55.032Z</time></trkpt><trkpt lat="42.0581361" lon="13.5596993"><ele>693.0</ele><time>2026-05-02T14:05:56.032Z</time></trkpt><trkpt lat="42.0582038" lon="13.5595947"><ele>693.0</ele><time>2026-05-02T14:05:57.032Z</time></trkpt><trkpt lat="42.0582785" lon="13.5595092"><ele>693.0</ele><time>2026-05-02T14:05:58.032Z</time></trkpt><trkpt lat="42.0583542" lon="13.5594122"><ele>693.0</ele><time>2026-05-02T14:05:59.032Z</time></trkpt><trkpt lat="42.0583933" lon="13.5592988"><ele>693.0</ele><time>2026-05-02T14:06:00.032Z</time></trkpt><trkpt lat="42.0584176" lon="13.5591681"><ele>693.0</ele><time>2026-05-02T14:06:01.032Z</time></trkpt><trkpt lat="42.0584254" lon="13.5590374"><ele>693.0</ele><time>2026-05-02T14:06:02.031Z</time></trkpt><trkpt lat="42.0584621" lon="13.5589085"><ele>693.0</ele><time>2026-05-02T14:06:03.032Z</time></trkpt><trkpt lat="42.0585267" lon="13.5587946"><ele>693.0</ele><time>2026-05-02T14:06:04.031Z</time></trkpt><trkpt lat="42.0586251" lon="13.5586874"><ele>693.2</ele><time>2026-05-02T14:06:05.032Z</time></trkpt><trkpt lat="42.0587326" lon="13.5585927"><ele>693.4</ele><time>2026-05-02T14:06:06.031Z</time></trkpt><trkpt lat="42.0588223" lon="13.5585126"><ele>693.6</ele><time>2026-05-02T14:06:07.032Z</time></trkpt><trkpt lat="42.0588965" lon="13.5584574"><ele>693.8000000000001</ele><time>2026-05-02T14:06:08.032Z</time></trkpt><trkpt lat="42.058999" lon="13.5583985"><ele>694.0</ele><time>2026-05-02T14:06:10.031Z</time></trkpt><trkpt lat="42.0590604" lon="13.5583667"><ele>694.0</ele><time>2026-05-02T14:06:12.032Z</time></trkpt><trkpt lat="42.0591534" lon="13.5582909"><ele>694.0</ele><time>2026-05-02T14:07:07.032Z</time></trkpt><trkpt lat="42.0592216" lon="13.5582467"><ele>694.0</ele><time>2026-05-02T14:07:09.032Z</time></trkpt><trkpt lat="42.0592926" lon="13.5581966"><ele>694.0</ele><time>2026-05-02T14:07:12.031Z</time></trkpt><trkpt lat="42.0593861" lon="13.5581326"><ele>694.0</ele><time>2026-05-02T14:07:48.032Z</time></trkpt><trkpt lat="42.0594438" lon="13.5580854"><ele>694.0</ele><time>2026-05-02T14:07:49.032Z</time></trkpt><trkpt lat="42.0595064" lon="13.5580352"><ele>694.0</ele><time>2026-05-02T14:07:50.032Z</time></trkpt><trkpt lat="42.0595783" lon="13.5579831"><ele>694.0</ele><time>2026-05-02T14:07:51.032Z</time></trkpt><trkpt lat="42.0596509" lon="13.5579277"><ele>694.0</ele><time>2026-05-02T14:07:52.032Z</time></trkpt><trkpt lat="42.0597299" lon="13.5578693"><ele>694.0</ele><time>2026-05-02T14:07:53.032Z</time></trkpt><trkpt lat="42.0598188" lon="13.5578059"><ele>694.0</ele><time>2026-05-02T14:07:54.032Z</time></trkpt><trkpt lat="42.0599116" lon="13.5577373"><ele>694.0</ele><time>2026-05-02T14:07:55.032Z</time></trkpt><trkpt lat="42.0600167" lon="13.5576658"><ele>694.0</ele><time>2026-05-02T14:07:56.032Z</time></trkpt><trkpt lat="42.0601219" lon="13.5575957"><ele>694.0</ele><time>2026-05-02T14:07:57.032Z</time></trkpt><trkpt lat="42.0602331" lon="13.5575262"><ele>694.0</ele><time>2026-05-02T14:07:58.031Z</time></trkpt><trkpt lat="42.0603597" lon="13.5574519"><ele>694.0</ele><time>2026-05-02T14:07:59.032Z</time></trkpt><trkpt lat="42.0604933" lon="13.5573737"><ele>694.0</ele><time>2026-05-02T14:08:00.032Z</time></trkpt><trkpt lat="42.0606381" lon="13.5572924"><ele>694.0</ele><time>2026-05-02T14:08:01.031Z</time></trkpt><trkpt lat="42.0607863" lon="13.5572128"><ele>694.6666666666667</ele><time>2026-05-02T14:08:02.032Z</time></trkpt><trkpt lat="42.0609363" lon="13.5571254"><ele>695.3333333333334</ele><time>2026-05-02T14:08:03.032Z</time></trkpt><trkpt lat="42.0610904" lon="13.5570353"><ele>696.0</ele><time>2026-05-02T14:08:04.032Z</time></trkpt><trkpt lat="42.0612472" lon="13.5569332"><ele>696.6666666666666</ele><time>2026-05-02T14:08:05.032Z</time></trkpt><trkpt lat="42.0614029" lon="13.5568217"><ele>697.3333333333333</ele><time>2026-05-02T14:08:06.031Z</time></trkpt><trkpt lat="42.0615624" lon="13.5567148"><ele>698.0</ele><time>2026-05-02T14:08:07.032Z</time></trkpt><trkpt lat="42.0617132" lon="13.556612"><ele>698.0</ele><time>2026-05-02T14:08:08.032Z</time></trkpt><trkpt lat="42.061867" lon="13.5565007"><ele>698.0</ele><time>2026-05-02T14:08:09.032Z</time></trkpt><trkpt lat="42.0620244" lon="13.5563949"><ele>698.0</ele><time>2026-05-02T14:08:10.032Z</time></trkpt><trkpt lat="42.0621828" lon="13.5562861"><ele>698.3333333333333</ele><time>2026-05-02T14:08:11.032Z</time></trkpt><trkpt lat="42.0623462" lon="13.5561665"><ele>698.6666666666666</ele><time>2026-05-02T14:08:12.032Z</time></trkpt><trkpt lat="42.0625083" lon="13.5560474"><ele>699.0</ele><time>2026-05-02T14:08:13.032Z</time></trkpt><trkpt lat="42.0626688" lon="13.5559269"><ele>699.6666666666666</ele><time>2026-05-02T14:08:14.031Z</time></trkpt><trkpt lat="42.0628357" lon="13.5558106"><ele>700.3333333333333</ele><time>2026-05-02T14:08:15.032Z</time></trkpt><trkpt lat="42.06301" lon="13.5556896"><ele>701.0</ele><time>2026-05-02T14:08:16.032Z</time></trkpt><trkpt lat="42.0631851" lon="13.5555688"><ele>701.3333333333333</ele><time>2026-05-02T14:08:17.032Z</time></trkpt><trkpt lat="42.0633667" lon="13.5554638"><ele>701.6666666666666</ele><time>2026-05-02T14:08:18.032Z</time></trkpt><trkpt lat="42.0635518" lon="13.5553567"><ele>702.0</ele><time>2026-05-02T14:08:19.032Z</time></trkpt><trkpt lat="42.0637363" lon="13.5552589"><ele>702.0</ele><time>2026-05-02T14:08:20.031Z</time></trkpt><trkpt lat="42.0639237" lon="13.5551686"><ele>702.0</ele><time>2026-05-02T14:08:21.032Z</time></trkpt><trkpt lat="42.0641133" lon="13.5550867"><ele>702.0</ele><time>2026-05-02T14:08:22.032Z</time></trkpt><trkpt lat="42.0643011" lon="13.5550069"><ele>702.0</ele><time>2026-05-02T14:08:23.032Z</time></trkpt><trkpt lat="42.0644869" lon="13.5549391"><ele>702.0</ele><time>2026-05-02T14:08:24.032Z</time></trkpt><trkpt lat="42.0646704" lon="13.5548771"><ele>702.0</ele><time>2026-05-02T14:08:25.032Z</time></trkpt><trkpt lat="42.0648524" lon="13.5548144"><ele>703.6666666666666</ele><time>2026-05-02T14:08:26.032Z</time></trkpt><trkpt lat="42.0650279" lon="13.5547545"><ele>705.3333333333333</ele><time>2026-05-02T14:08:27.031Z</time></trkpt><trkpt lat="42.0651983" lon="13.5546998"><ele>707.0</ele><time>2026-05-02T14:08:28.032Z</time></trkpt><trkpt lat="42.0653667" lon="13.5546445"><ele>707.0</ele><time>2026-05-02T14:08:29.032Z</time></trkpt><trkpt lat="42.0655365" lon="13.5545941"><ele>707.0</ele><time>2026-05-02T14:08:30.031Z</time></trkpt><trkpt lat="42.0657057" lon="13.5545414"><ele>707.0</ele><time>2026-05-02T14:08:31.032Z</time></trkpt><trkpt lat="42.0658748" lon="13.5544858"><ele>707.6666666666666</ele><time>2026-05-02T14:08:32.032Z</time></trkpt><trkpt lat="42.0660432" lon="13.5544296"><ele>708.3333333333334</ele><time>2026-05-02T14:08:33.032Z</time></trkpt><trkpt lat="42.0662154" lon="13.5543755"><ele>709.0</ele><time>2026-05-02T14:08:34.031Z</time></trkpt><trkpt lat="42.0663929" lon="13.5543221"><ele>709.0</ele><time>2026-05-02T14:08:35.032Z</time></trkpt><trkpt lat="42.0665685" lon="13.5542731"><ele>709.0</ele><time>2026-05-02T14:08:36.032Z</time></trkpt><trkpt lat="42.0667477" lon="13.5542411"><ele>709.0</ele><time>2026-05-02T14:08:37.032Z</time></trkpt><trkpt lat="42.0669282" lon="13.5542271"><ele>710.0</ele><time>2026-05-02T14:08:38.032Z</time></trkpt><trkpt lat="42.0671069" lon="13.5542388"><ele>711.0</ele><time>2026-05-02T14:08:39.032Z</time></trkpt><trkpt lat="42.0672829" lon="13.5542836"><ele>712.0</ele><time>2026-05-02T14:08:40.032Z</time></trkpt><trkpt lat="42.0674512" lon="13.5543431"><ele>712.6666666666667</ele><time>2026-05-02T14:08:41.032Z</time></trkpt><trkpt lat="42.0676242" lon="13.5544208"><ele>713.3333333333334</ele><time>2026-05-02T14:08:42.032Z</time></trkpt><trkpt lat="42.0677902" lon="13.5545108"><ele>714.0</ele><time>2026-05-02T14:08:43.032Z</time></trkpt><trkpt lat="42.0679497" lon="13.5546032"><ele>714.0</ele><time>2026-05-02T14:08:44.031Z</time></trkpt><trkpt lat="42.0681027" lon="13.5546881"><ele>714.0</ele><time>2026-05-02T14:08:45.032Z</time></trkpt><trkpt lat="42.0682531" lon="13.5547588"><ele>714.0</ele><time>2026-05-02T14:08:46.032Z</time></trkpt><trkpt lat="42.0684069" lon="13.5547909"><ele>714.6666666666666</ele><time>2026-05-02T14:08:47.032Z</time></trkpt><trkpt lat="42.0685601" lon="13.5547652"><ele>715.3333333333333</ele><time>2026-05-02T14:08:48.031Z</time></trkpt><trkpt lat="42.068711" lon="13.5546869"><ele>716.0</ele><time>2026-05-02T14:08:49.032Z</time></trkpt><trkpt lat="42.0688485" lon="13.5545669"><ele>716.0</ele><time>2026-05-02T14:08:50.032Z</time></trkpt><trkpt lat="42.0689919" lon="13.5544192"><ele>716.0</ele><time>2026-05-02T14:08:51.032Z</time></trkpt><trkpt lat="42.0691318" lon="13.5542696"><ele>716.0</ele><time>2026-05-02T14:08:52.032Z</time></trkpt><trkpt lat="42.0692697" lon="13.5541232"><ele>718.0</ele><time>2026-05-02T14:08:53.032Z</time></trkpt><trkpt lat="42.0694062" lon="13.5539753"><ele>720.0</ele><time>2026-05-02T14:08:54.032Z</time></trkpt><trkpt lat="42.0695372" lon="13.5538414"><ele>722.0</ele><time>2026-05-02T14:08:55.031Z</time></trkpt><trkpt lat="42.0696653" lon="13.5537219"><ele>722.0</ele><time>2026-05-02T14:08:56.031Z</time></trkpt><trkpt lat="42.0697935" lon="13.553618"><ele>722.0</ele><time>2026-05-02T14:08:57.032Z</time></trkpt><trkpt lat="42.0699389" lon="13.5535311"><ele>722.0</ele><time>2026-05-02T14:08:58.032Z</time></trkpt><trkpt lat="42.0700937" lon="13.5534704"><ele>722.0</ele><time>2026-05-02T14:08:59.031Z</time></trkpt><trkpt lat="42.0702614" lon="13.5534248"><ele>722.0</ele><time>2026-05-02T14:09:00.031Z</time></trkpt><trkpt lat="42.0704283" lon="13.5533852"><ele>722.0</ele><time>2026-05-02T14:09:01.032Z</time></trkpt><trkpt lat="42.070591" lon="13.5533389"><ele>722.0</ele><time>2026-05-02T14:09:02.032Z</time></trkpt><trkpt lat="42.0707497" lon="13.553292"><ele>722.0</ele><time>2026-05-02T14:09:03.032Z</time></trkpt><trkpt lat="42.0708993" lon="13.5532539"><ele>722.0</ele><time>2026-05-02T14:09:04.032Z</time></trkpt><trkpt lat="42.0710311" lon="13.553212"><ele>723.6</ele><time>2026-05-02T14:09:05.031Z</time></trkpt><trkpt lat="42.0711379" lon="13.5531632"><ele>725.2</ele><time>2026-05-02T14:09:06.031Z</time></trkpt><trkpt lat="42.0712334" lon="13.5531113"><ele>726.8</ele><time>2026-05-02T14:09:07.032Z</time></trkpt><trkpt lat="42.0713184" lon="13.5530553"><ele>728.4</ele><time>2026-05-02T14:09:08.031Z</time></trkpt><trkpt lat="42.0713855" lon="13.5529993"><ele>730.0</ele><time>2026-05-02T14:09:09.032Z</time></trkpt><trkpt lat="42.0714416" lon="13.5529489"><ele>729.3333333333334</ele><time>2026-05-02T14:09:10.032Z</time></trkpt><trkpt lat="42.0715316" lon="13.5528515"><ele>728.6666666666667</ele><time>2026-05-02T14:09:12.032Z</time></trkpt><trkpt lat="42.0716142" lon="13.5527938"><ele>728.0</ele><time>2026-05-02T14:09:14.031Z</time></trkpt><trkpt lat="42.0716737" lon="13.5527485"><ele>727.3333333333334</ele><time>2026-05-02T14:09:16.032Z</time></trkpt><trkpt lat="42.0717411" lon="13.5526926"><ele>726.6666666666666</ele><time>2026-05-02T14:09:19.032Z</time></trkpt><trkpt lat="42.0718326" lon="13.5526805"><ele>726.0</ele><time>2026-05-02T14:10:44.031Z</time></trkpt><trkpt lat="42.0719621" lon="13.5526653"><ele>726.0</ele><time>2026-05-02T14:10:46.031Z</time></trkpt><trkpt lat="42.0720328" lon="13.5526882"><ele>726.0</ele><time>2026-05-02T14:10:47.031Z</time></trkpt><trkpt lat="42.0721073" lon="13.5527258"><ele>726.0</ele><time>2026-05-02T14:10:48.032Z</time></trkpt><trkpt lat="42.0721898" lon="13.552757"><ele>726.0</ele><time>2026-05-02T14:10:49.032Z</time></trkpt><trkpt lat="42.0722788" lon="13.5527713"><ele>726.0</ele><time>2026-05-02T14:10:50.032Z</time></trkpt><trkpt lat="42.072378" lon="13.5527622"><ele>726.0</ele><time>2026-05-02T14:10:51.032Z</time></trkpt><trkpt lat="42.0724868" lon="13.5527237"><ele>727.25</ele><time>2026-05-02T14:10:52.032Z</time></trkpt><trkpt lat="42.0725942" lon="13.5526761"><ele>728.5</ele><time>2026-05-02T14:10:53.032Z</time></trkpt><trkpt lat="42.0727012" lon="13.5526322"><ele>729.75</ele><time>2026-05-02T14:10:54.031Z</time></trkpt><trkpt lat="42.0728129" lon="13.5525819"><ele>731.0</ele><time>2026-05-02T14:10:55.032Z</time></trkpt><trkpt lat="42.0729286" lon="13.5525325"><ele>731.0</ele><time>2026-05-02T14:10:56.032Z</time></trkpt><trkpt lat="42.0730527" lon="13.5524761"><ele>731.0</ele><time>2026-05-02T14:10:57.031Z</time></trkpt><trkpt lat="42.073177" lon="13.5524244"><ele>731.0</ele><time>2026-05-02T14:10:58.032Z</time></trkpt><trkpt lat="42.0733035" lon="13.5523744"><ele>731.0</ele><time>2026-05-02T14:10:59.032Z</time></trkpt><trkpt lat="42.0734296" lon="13.5523262"><ele>732.75</ele><time>2026-05-02T14:11:00.032Z</time></trkpt><trkpt lat="42.0735596" lon="13.5522708"><ele>734.5</ele><time>2026-05-02T14:11:01.032Z</time></trkpt><trkpt lat="42.0736958" lon="13.552223"><ele>736.25</ele><time>2026-05-02T14:11:02.032Z</time></trkpt><trkpt lat="42.0738328" lon="13.552197"><ele>738.0</ele><time>2026-05-02T14:11:03.032Z</time></trkpt><trkpt lat="42.073962" lon="13.5521802"><ele>738.0</ele><time>2026-05-02T14:11:04.032Z</time></trkpt><trkpt lat="42.0740892" lon="13.5521775"><ele>738.0</ele><time>2026-05-02T14:11:05.032Z</time></trkpt><trkpt lat="42.0742194" lon="13.552186"><ele>738.0</ele><time>2026-05-02T14:11:06.032Z</time></trkpt><trkpt lat="42.0743519" lon="13.5522081"><ele>738.0</ele><time>2026-05-02T14:11:07.032Z</time></trkpt><trkpt lat="42.0744761" lon="13.552249"><ele>739.25</ele><time>2026-05-02T14:11:08.032Z</time></trkpt><trkpt lat="42.0745996" lon="13.5522956"><ele>740.5</ele><time>2026-05-02T14:11:09.032Z</time></trkpt><trkpt lat="42.0747257" lon="13.5523526"><ele>741.75</ele><time>2026-05-02T14:11:10.032Z</time></trkpt><trkpt lat="42.0748525" lon="13.5524035"><ele>743.0</ele><time>2026-05-02T14:11:11.031Z</time></trkpt><trkpt lat="42.0749778" lon="13.5524609"><ele>743.0</ele><time>2026-05-02T14:11:12.032Z</time></trkpt><trkpt lat="42.0750992" lon="13.5525241"><ele>743.0</ele><time>2026-05-02T14:11:13.032Z</time></trkpt><trkpt lat="42.0752197" lon="13.5526"><ele>743.0</ele><time>2026-05-02T14:11:14.031Z</time></trkpt><trkpt lat="42.0753471" lon="13.552697"><ele>743.0</ele><time>2026-05-02T14:11:15.032Z</time></trkpt><trkpt lat="42.0754776" lon="13.5528071"><ele>745.0</ele><time>2026-05-02T14:11:16.031Z</time></trkpt><trkpt lat="42.0756031" lon="13.5529208"><ele>747.0</ele><time>2026-05-02T14:11:17.032Z</time></trkpt><trkpt lat="42.0757272" lon="13.5530395"><ele>749.0</ele><time>2026-05-02T14:11:18.032Z</time></trkpt><trkpt lat="42.0758479" lon="13.5531539"><ele>749.0</ele><time>2026-05-02T14:11:19.032Z</time></trkpt><trkpt lat="42.0759678" lon="13.5532657"><ele>749.0</ele><time>2026-05-02T14:11:20.031Z</time></trkpt><trkpt lat="42.0760878" lon="13.5533714"><ele>749.0</ele><time>2026-05-02T14:11:21.032Z</time></trkpt><trkpt lat="42.0762115" lon="13.5534609"><ele>749.0</ele><time>2026-05-02T14:11:22.032Z</time></trkpt><trkpt lat="42.0763408" lon="13.553526"><ele>749.0</ele><time>2026-05-02T14:11:23.032Z</time></trkpt><trkpt lat="42.0764778" lon="13.5535418"><ele>749.0</ele><time>2026-05-02T14:11:24.032Z</time></trkpt><trkpt lat="42.0766086" lon="13.5535232"><ele>749.0</ele><time>2026-05-02T14:11:25.032Z</time></trkpt><trkpt lat="42.0767304" lon="13.5534934"><ele>749.0</ele><time>2026-05-02T14:11:26.032Z</time></trkpt><trkpt lat="42.0768618" lon="13.5534527"><ele>748.0</ele><time>2026-05-02T14:11:27.032Z</time></trkpt><trkpt lat="42.076994" lon="13.5534047"><ele>747.0</ele><time>2026-05-02T14:11:28.032Z</time></trkpt><trkpt lat="42.0771209" lon="13.5533602"><ele>746.0</ele><time>2026-05-02T14:11:29.032Z</time></trkpt><trkpt lat="42.0772365" lon="13.5533187"><ele>745.0</ele><time>2026-05-02T14:11:30.032Z</time></trkpt><trkpt lat="42.0773419" lon="13.5532696"><ele>745.0</ele><time>2026-05-02T14:11:31.032Z</time></trkpt><trkpt lat="42.0774302" lon="13.5532171"><ele>745.0</ele><time>2026-05-02T14:11:32.032Z</time></trkpt><trkpt lat="42.0775032" lon="13.5531326"><ele>745.0</ele><time>2026-05-02T14:11:33.032Z</time></trkpt><trkpt lat="42.0775477" lon="13.5530006"><ele>745.0</ele><time>2026-05-02T14:11:34.032Z</time></trkpt><trkpt lat="42.0775619" lon="13.5528473"><ele>745.0</ele><time>2026-05-02T14:11:35.032Z</time></trkpt><trkpt lat="42.0775445" lon="13.5526794"><ele>744.0</ele><time>2026-05-02T14:11:36.032Z</time></trkpt><trkpt lat="42.0775052" lon="13.5525207"><ele>743.0</ele><time>2026-05-02T14:11:37.031Z</time></trkpt><trkpt lat="42.0774628" lon="13.5523722"><ele>742.0</ele><time>2026-05-02T14:11:38.032Z</time></trkpt><trkpt lat="42.0774209" lon="13.5522245"><ele>741.0</ele><time>2026-05-02T14:11:39.032Z</time></trkpt><trkpt lat="42.0773798" lon="13.5520625"><ele>742.5</ele><time>2026-05-02T14:11:40.032Z</time></trkpt><trkpt lat="42.0773336" lon="13.5519016"><ele>744.0</ele><time>2026-05-02T14:11:41.031Z</time></trkpt><trkpt lat="42.0772802" lon="13.5517401"><ele>745.5</ele><time>2026-05-02T14:11:42.032Z</time></trkpt><trkpt lat="42.0772157" lon="13.5515882"><ele>747.0</ele><time>2026-05-02T14:11:43.032Z</time></trkpt><trkpt lat="42.0771392" lon="13.5514489"><ele>747.0</ele><time>2026-05-02T14:11:44.031Z</time></trkpt><trkpt lat="42.0770546" lon="13.5513258"><ele>747.0</ele><time>2026-05-02T14:11:45.032Z</time></trkpt><trkpt lat="42.0769559" lon="13.5512168"><ele>747.0</ele><time>2026-05-02T14:11:46.032Z</time></trkpt><trkpt lat="42.0768501" lon="13.5511229"><ele>747.0</ele><time>2026-05-02T14:11:47.032Z</time></trkpt><trkpt lat="42.076746" lon="13.5510431"><ele>745.8</ele><time>2026-05-02T14:11:48.031Z</time></trkpt><trkpt lat="42.0766586" lon="13.5509618"><ele>744.6</ele><time>2026-05-02T14:11:49.031Z</time></trkpt><trkpt lat="42.0765872" lon="13.5508651"><ele>743.4</ele><time>2026-05-02T14:11:50.032Z</time></trkpt><trkpt lat="42.076551" lon="13.5507551"><ele>742.1999999999999</ele><time>2026-05-02T14:11:51.031Z</time></trkpt><trkpt lat="42.0765463" lon="13.5506356"><ele>741.0</ele><time>2026-05-02T14:11:52.032Z</time></trkpt><trkpt lat="42.0765786" lon="13.5505201"><ele>742.8</ele><time>2026-05-02T14:11:53.031Z</time></trkpt><trkpt lat="42.076656" lon="13.5504233"><ele>744.5999999999999</ele><time>2026-05-02T14:11:54.032Z</time></trkpt><trkpt lat="42.0767451" lon="13.5503693"><ele>746.4</ele><time>2026-05-02T14:11:55.032Z</time></trkpt><trkpt lat="42.0768541" lon="13.5503329"><ele>748.2</ele><time>2026-05-02T14:11:56.032Z</time></trkpt><trkpt lat="42.0769771" lon="13.5502802"><ele>750.0</ele><time>2026-05-02T14:11:57.031Z</time></trkpt><trkpt lat="42.0771056" lon="13.5502321"><ele>750.0</ele><time>2026-05-02T14:11:58.032Z</time></trkpt><trkpt lat="42.0772333" lon="13.5501787"><ele>750.0</ele><time>2026-05-02T14:11:59.031Z</time></trkpt><trkpt lat="42.0773452" lon="13.5501231"><ele>750.0</ele><time>2026-05-02T14:12:00.032Z</time></trkpt><trkpt lat="42.07745" lon="13.5500781"><ele>750.0</ele><time>2026-05-02T14:12:01.031Z</time></trkpt><trkpt lat="42.0775458" lon="13.5500371"><ele>752.6</ele><time>2026-05-02T14:12:02.032Z</time></trkpt><trkpt lat="42.0776337" lon="13.5499976"><ele>755.2</ele><time>2026-05-02T14:12:03.032Z</time></trkpt><trkpt lat="42.0777185" lon="13.5499517"><ele>757.8</ele><time>2026-05-02T14:12:04.032Z</time></trkpt><trkpt lat="42.0778045" lon="13.5498905"><ele>760.4</ele><time>2026-05-02T14:12:05.032Z</time></trkpt><trkpt lat="42.0778842" lon="13.5498117"><ele>763.0</ele><time>2026-05-02T14:12:06.032Z</time></trkpt><trkpt lat="42.0779422" lon="13.5497196"><ele>763.0</ele><time>2026-05-02T14:12:07.032Z</time></trkpt><trkpt lat="42.077989" lon="13.549605"><ele>763.0</ele><time>2026-05-02T14:12:08.032Z</time></trkpt><trkpt lat="42.0780189" lon="13.5494765"><ele>763.0</ele><time>2026-05-02T14:12:09.032Z</time></trkpt><trkpt lat="42.0780452" lon="13.5493439"><ele>763.0</ele><time>2026-05-02T14:12:10.032Z</time></trkpt><trkpt lat="42.0780749" lon="13.5492018"><ele>763.0</ele><time>2026-05-02T14:12:11.031Z</time></trkpt><trkpt lat="42.0781121" lon="13.5490557"><ele>762.75</ele><time>2026-05-02T14:12:12.032Z</time></trkpt><trkpt lat="42.0781653" lon="13.5489102"><ele>762.5</ele><time>2026-05-02T14:12:13.032Z</time></trkpt><trkpt lat="42.0782299" lon="13.5487815"><ele>762.25</ele><time>2026-05-02T14:12:14.032Z</time></trkpt><trkpt lat="42.0783159" lon="13.548683"><ele>762.0</ele><time>2026-05-02T14:12:15.032Z</time></trkpt><trkpt lat="42.0784254" lon="13.5486194"><ele>762.0</ele><time>2026-05-02T14:12:16.032Z</time></trkpt><trkpt lat="42.0785527" lon="13.5485613"><ele>762.0</ele><time>2026-05-02T14:12:17.032Z</time></trkpt><trkpt lat="42.0786959" lon="13.5485267"><ele>762.0</ele><time>2026-05-02T14:12:18.032Z</time></trkpt><trkpt lat="42.0788417" lon="13.5484906"><ele>762.0</ele><time>2026-05-02T14:12:19.032Z</time></trkpt><trkpt lat="42.0789918" lon="13.5484552"><ele>766.3333333333333</ele><time>2026-05-02T14:12:20.032Z</time></trkpt><trkpt lat="42.0791436" lon="13.5484204"><ele>770.6666666666666</ele><time>2026-05-02T14:12:21.032Z</time></trkpt><trkpt lat="42.0792976" lon="13.5483857"><ele>775.0</ele><time>2026-05-02T14:12:22.032Z</time></trkpt><trkpt lat="42.0794485" lon="13.5483608"><ele>775.0</ele><time>2026-05-02T14:12:23.032Z</time></trkpt><trkpt lat="42.0795904" lon="13.5483384"><ele>775.0</ele><time>2026-05-02T14:12:24.032Z</time></trkpt><trkpt lat="42.0797174" lon="13.5483085"><ele>775.0</ele><time>2026-05-02T14:12:25.032Z</time></trkpt><trkpt lat="42.0798381" lon="13.5482869"><ele>775.0</ele><time>2026-05-02T14:12:26.032Z</time></trkpt><trkpt lat="42.0799597" lon="13.5482637"><ele>775.8</ele><time>2026-05-02T14:12:27.032Z</time></trkpt><trkpt lat="42.0800823" lon="13.5482342"><ele>776.6</ele><time>2026-05-02T14:12:28.032Z</time></trkpt><trkpt lat="42.0801982" lon="13.5482072"><ele>777.4000000000001</ele><time>2026-05-02T14:12:29.032Z</time></trkpt><trkpt lat="42.0802977" lon="13.5481968"><ele>778.2</ele><time>2026-05-02T14:12:30.032Z</time></trkpt><trkpt lat="42.0803842" lon="13.5482106"><ele>779.0</ele><time>2026-05-02T14:12:31.032Z</time></trkpt><trkpt lat="42.0804515" lon="13.5482531"><ele>779.0000000000001</ele><time>2026-05-02T14:12:32.032Z</time></trkpt><trkpt lat="42.0804978" lon="13.5483164"><ele>779.0</ele><time>2026-05-02T14:12:33.032Z</time></trkpt><trkpt lat="42.0805299" lon="13.5484308"><ele>779.0</ele><time>2026-05-02T14:12:35.031Z</time></trkpt><trkpt lat="42.0805866" lon="13.5484765"><ele>779.0</ele><time>2026-05-02T14:12:37.032Z</time></trkpt><trkpt lat="42.0806713" lon="13.5484126"><ele>779.0000000000001</ele><time>2026-05-02T14:12:39.032Z</time></trkpt><trkpt lat="42.0807251" lon="13.5483624"><ele>779.0</ele><time>2026-05-02T14:12:40.032Z</time></trkpt><trkpt lat="42.0807789" lon="13.5483019"><ele>780.2</ele><time>2026-05-02T14:12:41.032Z</time></trkpt><trkpt lat="42.0808391" lon="13.548236"><ele>781.4000000000001</ele><time>2026-05-02T14:12:42.032Z</time></trkpt><trkpt lat="42.0809031" lon="13.5481665"><ele>782.6</ele><time>2026-05-02T14:12:43.032Z</time></trkpt><trkpt lat="42.0809735" lon="13.5480901"><ele>783.8</ele><time>2026-05-02T14:12:44.032Z</time></trkpt><trkpt lat="42.0810499" lon="13.5480074"><ele>785.0</ele><time>2026-05-02T14:12:45.032Z</time></trkpt><trkpt lat="42.0811283" lon="13.5479174"><ele>782.2</ele><time>2026-05-02T14:12:46.032Z</time></trkpt><trkpt lat="42.0812082" lon="13.5478228"><ele>779.4</ele><time>2026-05-02T14:12:47.032Z</time></trkpt><trkpt lat="42.0812941" lon="13.5477342"><ele>776.5999999999999</ele><time>2026-05-02T14:12:48.032Z</time></trkpt><trkpt lat="42.0813829" lon="13.5476509"><ele>773.8</ele><time>2026-05-02T14:12:49.031Z</time></trkpt><trkpt lat="42.0814772" lon="13.5475678"><ele>771.0</ele><time>2026-05-02T14:12:50.031Z</time></trkpt><trkpt lat="42.0815795" lon="13.5474921"><ele>771.4</ele><time>2026-05-02T14:12:51.032Z</time></trkpt><trkpt lat="42.0816777" lon="13.547431"><ele>771.8</ele><time>2026-05-02T14:12:52.032Z</time></trkpt><trkpt lat="42.0817861" lon="13.547387"><ele>772.1999999999999</ele><time>2026-05-02T14:12:53.031Z</time></trkpt><trkpt lat="42.0818919" lon="13.5473396"><ele>772.5999999999999</ele><time>2026-05-02T14:12:54.032Z</time></trkpt><trkpt lat="42.0819961" lon="13.5472971"><ele>773.0</ele><time>2026-05-02T14:12:55.032Z</time></trkpt><trkpt lat="42.0820908" lon="13.5472373"><ele>773.0</ele><time>2026-05-02T14:12:56.032Z</time></trkpt><trkpt lat="42.0821764" lon="13.5471611"><ele>773.0</ele><time>2026-05-02T14:12:57.032Z</time></trkpt><trkpt lat="42.0822562" lon="13.5470604"><ele>773.0</ele><time>2026-05-02T14:12:58.032Z</time></trkpt><trkpt lat="42.082317" lon="13.5469378"><ele>773.0</ele><time>2026-05-02T14:12:59.032Z</time></trkpt><trkpt lat="42.0823659" lon="13.5468017"><ele>773.0</ele><time>2026-05-02T14:13:00.031Z</time></trkpt><trkpt lat="42.0824074" lon="13.5466551"><ele>773.75</ele><time>2026-05-02T14:13:01.032Z</time></trkpt><trkpt lat="42.0824447" lon="13.5465069"><ele>774.5</ele><time>2026-05-02T14:13:02.032Z</time></trkpt><trkpt lat="42.0824817" lon="13.546356"><ele>775.25</ele><time>2026-05-02T14:13:03.032Z</time></trkpt><trkpt lat="42.0825084" lon="13.5462028"><ele>776.0</ele><time>2026-05-02T14:13:04.032Z</time></trkpt><trkpt lat="42.0825317" lon="13.5460479"><ele>774.5</ele><time>2026-05-02T14:13:05.032Z</time></trkpt><trkpt lat="42.0825463" lon="13.5458891"><ele>773.0</ele><time>2026-05-02T14:13:06.032Z</time></trkpt><trkpt lat="42.0825512" lon="13.5457277"><ele>771.5</ele><time>2026-05-02T14:13:07.031Z</time></trkpt><trkpt lat="42.0825478" lon="13.5455698"><ele>770.0</ele><time>2026-05-02T14:13:08.032Z</time></trkpt><trkpt lat="42.0825344" lon="13.5454128"><ele>769.5</ele><time>2026-05-02T14:13:09.032Z</time></trkpt><trkpt lat="42.0825144" lon="13.5452606"><ele>769.0</ele><time>2026-05-02T14:13:10.032Z</time></trkpt><trkpt lat="42.0824818" lon="13.5451085"><ele>768.5</ele><time>2026-05-02T14:13:11.031Z</time></trkpt><trkpt lat="42.0824517" lon="13.5449631"><ele>768.0</ele><time>2026-05-02T14:13:12.032Z</time></trkpt><trkpt lat="42.0824225" lon="13.5448097"><ele>765.4</ele><time>2026-05-02T14:13:13.032Z</time></trkpt><trkpt lat="42.0823976" lon="13.5446639"><ele>762.8</ele><time>2026-05-02T14:13:14.032Z</time></trkpt><trkpt lat="42.0823685" lon="13.544521"><ele>760.2</ele><time>2026-05-02T14:13:15.032Z</time></trkpt><trkpt lat="42.082351" lon="13.5443722"><ele>757.6</ele><time>2026-05-02T14:13:16.032Z</time></trkpt><trkpt lat="42.0823411" lon="13.5442226"><ele>755.0</ele><time>2026-05-02T14:13:17.032Z</time></trkpt><trkpt lat="42.0823427" lon="13.5440784"><ele>754.8</ele><time>2026-05-02T14:13:18.032Z</time></trkpt><trkpt lat="42.0823482" lon="13.5439289"><ele>754.6</ele><time>2026-05-02T14:13:19.031Z</time></trkpt><trkpt lat="42.082342" lon="13.5438049"><ele>754.4000000000001</ele><time>2026-05-02T14:13:20.032Z</time></trkpt><trkpt lat="42.0823334" lon="13.5436848"><ele>754.2</ele><time>2026-05-02T14:13:21.032Z</time></trkpt><trkpt lat="42.0823175" lon="13.5435734"><ele>754.0</ele><time>2026-05-02T14:13:22.032Z</time></trkpt><trkpt lat="42.0823135" lon="13.5434737"><ele>753.5</ele><time>2026-05-02T14:13:23.032Z</time></trkpt><trkpt lat="42.0823144" lon="13.543374"><ele>753.0</ele><time>2026-05-02T14:13:24.032Z</time></trkpt><trkpt lat="42.0823134" lon="13.5432803"><ele>752.5</ele><time>2026-05-02T14:13:25.032Z</time></trkpt><trkpt lat="42.0823123" lon="13.5431793"><ele>752.0</ele><time>2026-05-02T14:13:26.032Z</time></trkpt><trkpt lat="42.0823175" lon="13.5430687"><ele>751.5</ele><time>2026-05-02T14:13:27.032Z</time></trkpt><trkpt lat="42.0823365" lon="13.5429503"><ele>751.0</ele><time>2026-05-02T14:13:28.031Z</time></trkpt><trkpt lat="42.0823656" lon="13.5428529"><ele>751.4</ele><time>2026-05-02T14:13:29.032Z</time></trkpt><trkpt lat="42.0823978" lon="13.5427767"><ele>751.8</ele><time>2026-05-02T14:13:30.032Z</time></trkpt><trkpt lat="42.0824818" lon="13.5426968"><ele>752.1999999999999</ele><time>2026-05-02T14:13:32.032Z</time></trkpt><trkpt lat="42.0825865" lon="13.5426643"><ele>752.5999999999999</ele><time>2026-05-02T14:13:34.032Z</time></trkpt><trkpt lat="42.0826677" lon="13.5426333"><ele>753.0</ele><time>2026-05-02T14:13:36.032Z</time></trkpt><trkpt lat="42.0825742" lon="13.542611"><ele>753.0</ele><time>2026-05-02T14:13:54.031Z</time></trkpt><trkpt lat="42.0825123" lon="13.5425552"><ele>753.0</ele><time>2026-05-02T14:13:56.032Z</time></trkpt><trkpt lat="42.0824756" lon="13.5424334"><ele>753.0</ele><time>2026-05-02T14:13:58.032Z</time></trkpt><trkpt lat="42.0824426" lon="13.5423549"><ele>753.0</ele><time>2026-05-02T14:13:59.032Z</time></trkpt><trkpt lat="42.0824011" lon="13.5422584"><ele>753.0</ele><time>2026-05-02T14:14:00.031Z</time></trkpt><trkpt lat="42.082364" lon="13.5421556"><ele>753.0</ele><time>2026-05-02T14:14:01.032Z</time></trkpt><trkpt lat="42.0823294" lon="13.5420421"><ele>751.8333333333334</ele><time>2026-05-02T14:14:02.032Z</time></trkpt><trkpt lat="42.0822863" lon="13.5419476"><ele>750.6666666666666</ele><time>2026-05-02T14:14:03.032Z</time></trkpt><trkpt lat="42.0822419" lon="13.5418625"><ele>749.5</ele><time>2026-05-02T14:14:04.031Z</time></trkpt><trkpt lat="42.0821871" lon="13.5417285"><ele>748.3333333333333</ele><time>2026-05-02T14:14:06.032Z</time></trkpt><trkpt lat="42.0821987" lon="13.5416198"><ele>747.1666666666666</ele><time>2026-05-02T14:14:08.032Z</time></trkpt><trkpt lat="42.0822168" lon="13.5415251"><ele>746.0</ele><time>2026-05-02T14:14:11.032Z</time></trkpt><trkpt lat="42.0822178" lon="13.5414269"><ele>746.0</ele><time>2026-05-02T14:21:36.032Z</time></trkpt><trkpt lat="42.0821827" lon="13.5413405"><ele>746.0</ele><time>2026-05-02T14:24:12.031Z</time></trkpt><trkpt lat="42.0821147" lon="13.5413583"><ele>746.0</ele><time>2026-05-02T14:25:16.031Z</time></trkpt><trkpt lat="42.0820775" lon="13.541442"><ele>746.0</ele><time>2026-05-02T14:25:33.032Z</time></trkpt><trkpt lat="42.0820915" lon="13.5415458"><ele>746.0</ele><time>2026-05-02T14:25:41.032Z</time></trkpt><trkpt lat="42.082105" lon="13.5416575"><ele>746.0</ele><time>2026-05-02T14:25:43.032Z</time></trkpt><trkpt lat="42.0821449" lon="13.5417584"><ele>746.0</ele><time>2026-05-02T14:25:45.032Z</time></trkpt><trkpt lat="42.0821979" lon="13.5418739"><ele>746.0</ele><time>2026-05-02T14:25:47.032Z</time></trkpt><trkpt lat="42.0822492" lon="13.5419866"><ele>746.0</ele><time>2026-05-02T14:25:49.031Z</time></trkpt><trkpt lat="42.0822983" lon="13.5420971"><ele>746.0</ele><time>2026-05-02T14:25:51.032Z</time></trkpt><trkpt lat="42.082348" lon="13.5422149"><ele>746.0</ele><time>2026-05-02T14:25:53.032Z</time></trkpt><trkpt lat="42.0823997" lon="13.542333"><ele>746.1666666666666</ele><time>2026-05-02T14:25:55.032Z</time></trkpt><trkpt lat="42.0824436" lon="13.5424339"><ele>746.3333333333333</ele><time>2026-05-02T14:25:57.031Z</time></trkpt><trkpt lat="42.0824761" lon="13.5425257"><ele>746.5</ele><time>2026-05-02T14:25:59.031Z</time></trkpt><trkpt lat="42.0825239" lon="13.5426119"><ele>746.6666666666666</ele><time>2026-05-02T14:26:03.252Z</time></trkpt><trkpt lat="42.0825917" lon="13.542583"><ele>746.8333333333334</ele><time>2026-05-02T14:26:05.854Z</time></trkpt><trkpt lat="42.0825401" lon="13.5425194"><ele>747.0</ele><time>2026-05-02T14:26:08.161Z</time></trkpt><trkpt lat="42.0824099" lon="13.542296"><ele>747.0</ele><time>2026-05-02T14:26:11.031Z</time></trkpt><trkpt lat="42.082365" lon="13.5421804"><ele>747.0</ele><time>2026-05-02T14:26:12.032Z</time></trkpt><trkpt lat="42.0823236" lon="13.542064"><ele>747.0</ele><time>2026-05-02T14:26:13.032Z</time></trkpt><trkpt lat="42.0822818" lon="13.5419483"><ele>747.0</ele><time>2026-05-02T14:26:14.032Z</time></trkpt><trkpt lat="42.0822291" lon="13.5418478"><ele>747.0</ele><time>2026-05-02T14:26:15.032Z</time></trkpt><trkpt lat="42.0821748" lon="13.541753"><ele>746.8333333333334</ele><time>2026-05-02T14:26:16.032Z</time></trkpt><trkpt lat="42.0821328" lon="13.5416586"><ele>746.6666666666666</ele><time>2026-05-02T14:26:17.032Z</time></trkpt><trkpt lat="42.0820761" lon="13.5415521"><ele>746.5</ele><time>2026-05-02T14:26:19.032Z</time></trkpt><trkpt lat="42.0820706" lon="13.5414607"><ele>746.3333333333333</ele><time>2026-05-02T14:26:28.031Z</time></trkpt><trkpt lat="42.0819821" lon="13.5413921"><ele>746.1666666666666</ele><time>2026-05-02T14:26:32.031Z</time></trkpt><trkpt lat="42.0819365" lon="13.541331"><ele>746.0</ele><time>2026-05-02T14:26:33.032Z</time></trkpt><trkpt lat="42.0818845" lon="13.5412633"><ele>746.0</ele><time>2026-05-02T14:26:34.032Z</time></trkpt><trkpt lat="42.0818222" lon="13.5411961"><ele>746.0</ele><time>2026-05-02T14:26:35.032Z</time></trkpt><trkpt lat="42.0817487" lon="13.5411463"><ele>746.0</ele><time>2026-05-02T14:26:36.032Z</time></trkpt><trkpt lat="42.0816613" lon="13.54111"><ele>746.0</ele><time>2026-05-02T14:26:37.031Z</time></trkpt><trkpt lat="42.0815718" lon="13.5410841"><ele>746.0</ele><time>2026-05-02T14:26:38.032Z</time></trkpt><trkpt lat="42.0814851" lon="13.5410666"><ele>746.0</ele><time>2026-05-02T14:26:39.031Z</time></trkpt><trkpt lat="42.0813911" lon="13.5410471"><ele>745.75</ele><time>2026-05-02T14:26:40.032Z</time></trkpt><trkpt lat="42.0812778" lon="13.5410225"><ele>745.5</ele><time>2026-05-02T14:26:41.031Z</time></trkpt><trkpt lat="42.0811539" lon="13.5410128"><ele>745.25</ele><time>2026-05-02T14:26:42.032Z</time></trkpt><trkpt lat="42.0810251" lon="13.5410092"><ele>745.0</ele><time>2026-05-02T14:26:43.032Z</time></trkpt><trkpt lat="42.0808995" lon="13.5410091"><ele>745.0</ele><time>2026-05-02T14:26:44.032Z</time></trkpt><trkpt lat="42.0807788" lon="13.5410089"><ele>745.0</ele><time>2026-05-02T14:26:45.031Z</time></trkpt><trkpt lat="42.0806581" lon="13.5410134"><ele>745.0</ele><time>2026-05-02T14:26:46.032Z</time></trkpt><trkpt lat="42.0805379" lon="13.5410139"><ele>745.0</ele><time>2026-05-02T14:26:47.032Z</time></trkpt><trkpt lat="42.0804203" lon="13.5410172"><ele>744.8</ele><time>2026-05-02T14:26:48.032Z</time></trkpt><trkpt lat="42.0803066" lon="13.5410232"><ele>744.6</ele><time>2026-05-02T14:26:49.032Z</time></trkpt><trkpt lat="42.0801959" lon="13.5410219"><ele>744.4000000000001</ele><time>2026-05-02T14:26:50.032Z</time></trkpt><trkpt lat="42.0800912" lon="13.541001"><ele>744.2</ele><time>2026-05-02T14:26:51.032Z</time></trkpt><trkpt lat="42.0800021" lon="13.5409725"><ele>744.0</ele><time>2026-05-02T14:26:52.032Z</time></trkpt><trkpt lat="42.0799073" lon="13.5409271"><ele>743.8000000000001</ele><time>2026-05-02T14:26:54.032Z</time></trkpt><trkpt lat="42.0798042" lon="13.540857"><ele>743.6</ele><time>2026-05-02T14:26:56.032Z</time></trkpt><trkpt lat="42.0797381" lon="13.5407927"><ele>743.4</ele><time>2026-05-02T14:26:57.031Z</time></trkpt><trkpt lat="42.0796823" lon="13.5407035"><ele>743.2</ele><time>2026-05-02T14:26:58.032Z</time></trkpt><trkpt lat="42.0796482" lon="13.5405963"><ele>743.0</ele><time>2026-05-02T14:26:59.032Z</time></trkpt><trkpt lat="42.0796223" lon="13.5404819"><ele>743.4</ele><time>2026-05-02T14:27:00.032Z</time></trkpt><trkpt lat="42.0796007" lon="13.540359"><ele>743.8</ele><time>2026-05-02T14:27:01.032Z</time></trkpt><trkpt lat="42.0795799" lon="13.5402327"><ele>744.2</ele><time>2026-05-02T14:27:02.032Z</time></trkpt><trkpt lat="42.0795584" lon="13.5401015"><ele>744.6</ele><time>2026-05-02T14:27:03.031Z</time></trkpt><trkpt lat="42.0795278" lon="13.5399655"><ele>745.0</ele><time>2026-05-02T14:27:04.032Z</time></trkpt><trkpt lat="42.0794854" lon="13.5398327"><ele>745.0</ele><time>2026-05-02T14:27:05.032Z</time></trkpt><trkpt lat="42.0794264" lon="13.539713"><ele>745.0</ele><time>2026-05-02T14:27:06.031Z</time></trkpt><trkpt lat="42.0793542" lon="13.5395989"><ele>745.0</ele><time>2026-05-02T14:27:07.032Z</time></trkpt><trkpt lat="42.0792839" lon="13.5394865"><ele>745.0</ele><time>2026-05-02T14:27:08.032Z</time></trkpt><trkpt lat="42.0792098" lon="13.5393755"><ele>745.0</ele><time>2026-05-02T14:27:09.032Z</time></trkpt><trkpt lat="42.0791365" lon="13.5392561"><ele>743.4</ele><time>2026-05-02T14:27:10.031Z</time></trkpt><trkpt lat="42.0790577" lon="13.5391517"><ele>741.8</ele><time>2026-05-02T14:27:11.032Z</time></trkpt><trkpt lat="42.0789673" lon="13.539065"><ele>740.2</ele><time>2026-05-02T14:27:12.031Z</time></trkpt><trkpt lat="42.0788733" lon="13.5389994"><ele>738.6</ele><time>2026-05-02T14:27:13.032Z</time></trkpt><trkpt lat="42.0787729" lon="13.5389636"><ele>737.0</ele><time>2026-05-02T14:27:14.032Z</time></trkpt><trkpt lat="42.0786743" lon="13.5389447"><ele>737.0</ele><time>2026-05-02T14:27:15.032Z</time></trkpt><trkpt lat="42.0785656" lon="13.5389347"><ele>737.0</ele><time>2026-05-02T14:27:16.032Z</time></trkpt><trkpt lat="42.0784471" lon="13.5389296"><ele>737.0</ele><time>2026-05-02T14:27:17.032Z</time></trkpt><trkpt lat="42.0783225" lon="13.5389239"><ele>737.0</ele><time>2026-05-02T14:27:18.032Z</time></trkpt><trkpt lat="42.0781927" lon="13.53892"><ele>736.0</ele><time>2026-05-02T14:27:19.031Z</time></trkpt><trkpt lat="42.0780556" lon="13.5389218"><ele>735.0</ele><time>2026-05-02T14:27:20.032Z</time></trkpt><trkpt lat="42.0779204" lon="13.5389172"><ele>734.0</ele><time>2026-05-02T14:27:21.032Z</time></trkpt><trkpt lat="42.0777814" lon="13.5389172"><ele>733.0</ele><time>2026-05-02T14:27:22.031Z</time></trkpt><trkpt lat="42.0776455" lon="13.5389258"><ele>733.0</ele><time>2026-05-02T14:27:23.032Z</time></trkpt><trkpt lat="42.0775044" lon="13.5389415"><ele>733.0</ele><time>2026-05-02T14:27:24.032Z</time></trkpt><trkpt lat="42.0773682" lon="13.5389589"><ele>733.0</ele><time>2026-05-02T14:27:25.032Z</time></trkpt><trkpt lat="42.0772312" lon="13.5389776"><ele>733.0</ele><time>2026-05-02T14:27:26.032Z</time></trkpt><trkpt lat="42.0770911" lon="13.539001"><ele>731.75</ele><time>2026-05-02T14:27:27.032Z</time></trkpt><trkpt lat="42.07695" lon="13.5390242"><ele>730.5</ele><time>2026-05-02T14:27:28.031Z</time></trkpt><trkpt lat="42.0768117" lon="13.539055"><ele>729.25</ele><time>2026-05-02T14:27:29.032Z</time></trkpt><trkpt lat="42.0766766" lon="13.5390831"><ele>728.0</ele><time>2026-05-02T14:27:30.031Z</time></trkpt><trkpt lat="42.0765404" lon="13.539113"><ele>727.25</ele><time>2026-05-02T14:27:31.032Z</time></trkpt><trkpt lat="42.0764086" lon="13.5391353"><ele>726.5</ele><time>2026-05-02T14:27:32.032Z</time></trkpt><trkpt lat="42.0762761" lon="13.5391566"><ele>725.75</ele><time>2026-05-02T14:27:33.032Z</time></trkpt><trkpt lat="42.0761471" lon="13.5391742"><ele>725.0</ele><time>2026-05-02T14:27:34.032Z</time></trkpt><trkpt lat="42.0760259" lon="13.5391891"><ele>725.0</ele><time>2026-05-02T14:27:35.031Z</time></trkpt><trkpt lat="42.0759087" lon="13.5392054"><ele>725.0</ele><time>2026-05-02T14:27:36.031Z</time></trkpt><trkpt lat="42.0757932" lon="13.5392185"><ele>725.0</ele><time>2026-05-02T14:27:37.031Z</time></trkpt><trkpt lat="42.0756753" lon="13.5392345"><ele>725.0</ele><time>2026-05-02T14:27:38.031Z</time></trkpt><trkpt lat="42.0755522" lon="13.5392506"><ele>724.25</ele><time>2026-05-02T14:27:39.031Z</time></trkpt><trkpt lat="42.0754247" lon="13.5392667"><ele>723.5</ele><time>2026-05-02T14:27:40.031Z</time></trkpt><trkpt lat="42.0752953" lon="13.5392812"><ele>722.75</ele><time>2026-05-02T14:27:41.031Z</time></trkpt><trkpt lat="42.075168" lon="13.5393021"><ele>722.0</ele><time>2026-05-02T14:27:42.031Z</time></trkpt><trkpt lat="42.0750396" lon="13.5393147"><ele>721.25</ele><time>2026-05-02T14:27:43.03Z</time></trkpt><trkpt lat="42.0749124" lon="13.5393321"><ele>720.5</ele><time>2026-05-02T14:27:44.031Z</time></trkpt><trkpt lat="42.074793" lon="13.5393453"><ele>719.75</ele><time>2026-05-02T14:27:45.031Z</time></trkpt><trkpt lat="42.074679" lon="13.5393625"><ele>719.0</ele><time>2026-05-02T14:27:46.031Z</time></trkpt><trkpt lat="42.0745684" lon="13.5393776"><ele>719.0</ele><time>2026-05-02T14:27:47.031Z</time></trkpt><trkpt lat="42.0744648" lon="13.5393896"><ele>719.0</ele><time>2026-05-02T14:27:48.031Z</time></trkpt><trkpt lat="42.0743617" lon="13.5394071"><ele>719.0</ele><time>2026-05-02T14:27:49.031Z</time></trkpt><trkpt lat="42.0742596" lon="13.5394205"><ele>719.0</ele><time>2026-05-02T14:27:50.03Z</time></trkpt><trkpt lat="42.0741578" lon="13.5394223"><ele>719.0</ele><time>2026-05-02T14:27:51.03Z</time></trkpt><trkpt lat="42.0740593" lon="13.5393976"><ele>718.6</ele><time>2026-05-02T14:27:52.031Z</time></trkpt><trkpt lat="42.0739646" lon="13.5393459"><ele>718.2</ele><time>2026-05-02T14:27:53.031Z</time></trkpt><trkpt lat="42.0738879" lon="13.5392573"><ele>717.8000000000001</ele><time>2026-05-02T14:27:54.031Z</time></trkpt><trkpt lat="42.0738192" lon="13.5391539"><ele>717.4000000000001</ele><time>2026-05-02T14:27:55.031Z</time></trkpt><trkpt lat="42.0737712" lon="13.5390409"><ele>717.0</ele><time>2026-05-02T14:27:56.031Z</time></trkpt><trkpt lat="42.0737282" lon="13.5389314"><ele>717.0</ele><time>2026-05-02T14:27:57.031Z</time></trkpt><trkpt lat="42.0736928" lon="13.5388356"><ele>717.0</ele><time>2026-05-02T14:27:58.03Z</time></trkpt><trkpt lat="42.0736668" lon="13.5387486"><ele>717.0</ele><time>2026-05-02T14:27:59.031Z</time></trkpt><trkpt lat="42.073652" lon="13.5386651"><ele>717.0</ele><time>2026-05-02T14:28:00.031Z</time></trkpt><trkpt lat="42.0735958" lon="13.5385639"><ele>717.0</ele><time>2026-05-02T14:28:02.031Z</time></trkpt><trkpt lat="42.0735166" lon="13.5386024"><ele>717.0</ele><time>2026-05-02T14:28:04.031Z</time></trkpt><trkpt lat="42.0734025" lon="13.5386989"><ele>717.0</ele><time>2026-05-02T14:28:06.031Z</time></trkpt><trkpt lat="42.073317" lon="13.538739"><ele>717.0</ele><time>2026-05-02T14:28:07.031Z</time></trkpt><trkpt lat="42.073219" lon="13.5387777"><ele>717.0</ele><time>2026-05-02T14:28:08.031Z</time></trkpt><trkpt lat="42.0731147" lon="13.5388131"><ele>717.0</ele><time>2026-05-02T14:28:09.031Z</time></trkpt><trkpt lat="42.0730097" lon="13.5388536"><ele>717.0</ele><time>2026-05-02T14:28:10.031Z</time></trkpt><trkpt lat="42.0729094" lon="13.5388922"><ele>716.6</ele><time>2026-05-02T14:28:11.031Z</time></trkpt><trkpt lat="42.0728091" lon="13.5389108"><ele>716.2</ele><time>2026-05-02T14:28:12.03Z</time></trkpt><trkpt lat="42.0727183" lon="13.5388895"><ele>715.8</ele><time>2026-05-02T14:28:13.03Z</time></trkpt><trkpt lat="42.0726351" lon="13.5388251"><ele>715.4</ele><time>2026-05-02T14:28:14.031Z</time></trkpt><trkpt lat="42.0725521" lon="13.5387353"><ele>715.0</ele><time>2026-05-02T14:28:15.03Z</time></trkpt><trkpt lat="42.0724602" lon="13.5386289"><ele>714.25</ele><time>2026-05-02T14:28:16.03Z</time></trkpt><trkpt lat="42.0723621" lon="13.5385228"><ele>713.5</ele><time>2026-05-02T14:28:17.031Z</time></trkpt><trkpt lat="42.0722491" lon="13.538422"><ele>712.75</ele><time>2026-05-02T14:28:18.031Z</time></trkpt><trkpt lat="42.0721264" lon="13.5383199"><ele>712.0</ele><time>2026-05-02T14:28:19.031Z</time></trkpt><trkpt lat="42.0720033" lon="13.5382265"><ele>712.0</ele><time>2026-05-02T14:28:20.03Z</time></trkpt><trkpt lat="42.0718799" lon="13.5381313"><ele>712.0</ele><time>2026-05-02T14:28:21.03Z</time></trkpt><trkpt lat="42.0717492" lon="13.5380397"><ele>712.0</ele><time>2026-05-02T14:28:22.031Z</time></trkpt><trkpt lat="42.0716191" lon="13.5379491"><ele>712.0</ele><time>2026-05-02T14:28:23.031Z</time></trkpt><trkpt lat="42.0714858" lon="13.537859"><ele>711.0</ele><time>2026-05-02T14:28:24.03Z</time></trkpt><trkpt lat="42.0713519" lon="13.5377674"><ele>710.0</ele><time>2026-05-02T14:28:25.031Z</time></trkpt><trkpt lat="42.0712178" lon="13.5376715"><ele>709.0</ele><time>2026-05-02T14:28:26.031Z</time></trkpt><trkpt lat="42.0710839" lon="13.5375702"><ele>709.0</ele><time>2026-05-02T14:28:27.031Z</time></trkpt><trkpt lat="42.0709494" lon="13.5374646"><ele>709.0</ele><time>2026-05-02T14:28:28.031Z</time></trkpt><trkpt lat="42.0708144" lon="13.5373509"><ele>709.0</ele><time>2026-05-02T14:28:29.03Z</time></trkpt><trkpt lat="42.0706815" lon="13.5372326"><ele>708.0</ele><time>2026-05-02T14:28:30.031Z</time></trkpt><trkpt lat="42.0705531" lon="13.5371114"><ele>707.0</ele><time>2026-05-02T14:28:31.03Z</time></trkpt><trkpt lat="42.0704252" lon="13.5369879"><ele>706.0</ele><time>2026-05-02T14:28:32.031Z</time></trkpt><trkpt lat="42.0702965" lon="13.5368664"><ele>706.0</ele><time>2026-05-02T14:28:33.031Z</time></trkpt><trkpt lat="42.0701654" lon="13.5367428"><ele>706.0</ele><time>2026-05-02T14:28:34.031Z</time></trkpt><trkpt lat="42.0700363" lon="13.5366104"><ele>706.0</ele><time>2026-05-02T14:28:35.031Z</time></trkpt><trkpt lat="42.0699096" lon="13.5364702"><ele>705.3333333333334</ele><time>2026-05-02T14:28:36.031Z</time></trkpt><trkpt lat="42.0697855" lon="13.536329"><ele>704.6666666666666</ele><time>2026-05-02T14:28:37.031Z</time></trkpt><trkpt lat="42.0696631" lon="13.5362"><ele>704.0</ele><time>2026-05-02T14:28:38.031Z</time></trkpt><trkpt lat="42.0695332" lon="13.5360721"><ele>704.0</ele><time>2026-05-02T14:28:39.031Z</time></trkpt><trkpt lat="42.0694027" lon="13.5359447"><ele>704.0</ele><time>2026-05-02T14:28:40.031Z</time></trkpt><trkpt lat="42.0692784" lon="13.5358141"><ele>704.0</ele><time>2026-05-02T14:28:41.03Z</time></trkpt><trkpt lat="42.0691596" lon="13.5356753"><ele>703.6666666666666</ele><time>2026-05-02T14:28:42.031Z</time></trkpt><trkpt lat="42.0690489" lon="13.5355186"><ele>703.3333333333334</ele><time>2026-05-02T14:28:43.031Z</time></trkpt><trkpt lat="42.0689482" lon="13.5353553"><ele>703.0</ele><time>2026-05-02T14:28:44.031Z</time></trkpt><trkpt lat="42.0688582" lon="13.5351884"><ele>702.25</ele><time>2026-05-02T14:28:45.031Z</time></trkpt><trkpt lat="42.0687775" lon="13.5350293"><ele>701.5</ele><time>2026-05-02T14:28:46.031Z</time></trkpt><trkpt lat="42.0687093" lon="13.5348695"><ele>700.75</ele><time>2026-05-02T14:28:47.03Z</time></trkpt><trkpt lat="42.068646" lon="13.5347232"><ele>700.0</ele><time>2026-05-02T14:28:48.031Z</time></trkpt><trkpt lat="42.0685724" lon="13.5346077"><ele>699.0</ele><time>2026-05-02T14:28:49.031Z</time></trkpt><trkpt lat="42.0684693" lon="13.5345362"><ele>698.0</ele><time>2026-05-02T14:28:50.031Z</time></trkpt><trkpt lat="42.0683536" lon="13.5344956"><ele>697.0</ele><time>2026-05-02T14:28:51.031Z</time></trkpt><trkpt lat="42.0682209" lon="13.5344621"><ele>696.0</ele><time>2026-05-02T14:28:52.031Z</time></trkpt><trkpt lat="42.0680866" lon="13.5344425"><ele>695.75</ele><time>2026-05-02T14:28:53.031Z</time></trkpt><trkpt lat="42.0679525" lon="13.5344178"><ele>695.5</ele><time>2026-05-02T14:28:54.031Z</time></trkpt><trkpt lat="42.0678222" lon="13.5343934"><ele>695.25</ele><time>2026-05-02T14:28:55.031Z</time></trkpt><trkpt lat="42.067685" lon="13.5343618"><ele>695.0</ele><time>2026-05-02T14:28:56.031Z</time></trkpt><trkpt lat="42.0675483" lon="13.5343339"><ele>694.75</ele><time>2026-05-02T14:28:57.031Z</time></trkpt><trkpt lat="42.067411" lon="13.5343136"><ele>694.5</ele><time>2026-05-02T14:28:58.031Z</time></trkpt><trkpt lat="42.0672701" lon="13.5342938"><ele>694.25</ele><time>2026-05-02T14:28:59.031Z</time></trkpt><trkpt lat="42.0671271" lon="13.5342741"><ele>694.0</ele><time>2026-05-02T14:29:00.031Z</time></trkpt><trkpt lat="42.0669845" lon="13.53426"><ele>694.0</ele><time>2026-05-02T14:29:01.031Z</time></trkpt><trkpt lat="42.0668389" lon="13.5342495"><ele>694.0</ele><time>2026-05-02T14:29:02.031Z</time></trkpt><trkpt lat="42.0666936" lon="13.5342356"><ele>694.0</ele><time>2026-05-02T14:29:03.031Z</time></trkpt><trkpt lat="42.0665473" lon="13.5342153"><ele>694.0</ele><time>2026-05-02T14:29:04.031Z</time></trkpt><trkpt lat="42.0664014" lon="13.5341922"><ele>693.75</ele><time>2026-05-02T14:29:05.031Z</time></trkpt><trkpt lat="42.0662563" lon="13.5341702"><ele>693.5</ele><time>2026-05-02T14:29:06.03Z</time></trkpt><trkpt lat="42.0661182" lon="13.5341372"><ele>693.25</ele><time>2026-05-02T14:29:07.031Z</time></trkpt><trkpt lat="42.0659819" lon="13.5340974"><ele>693.0</ele><time>2026-05-02T14:29:08.031Z</time></trkpt><trkpt lat="42.0658481" lon="13.5340498"><ele>692.75</ele><time>2026-05-02T14:29:09.031Z</time></trkpt><trkpt lat="42.065716" lon="13.5339985"><ele>692.5</ele><time>2026-05-02T14:29:10.031Z</time></trkpt><trkpt lat="42.0655819" lon="13.5339479"><ele>692.25</ele><time>2026-05-02T14:29:11.031Z</time></trkpt><trkpt lat="42.0654439" lon="13.53389"><ele>692.0</ele><time>2026-05-02T14:29:12.031Z</time></trkpt><trkpt lat="42.0653028" lon="13.5338349"><ele>692.0</ele><time>2026-05-02T14:29:13.031Z</time></trkpt><trkpt lat="42.0651561" lon="13.533783"><ele>692.0</ele><time>2026-05-02T14:29:14.031Z</time></trkpt><trkpt lat="42.0649993" lon="13.533739"><ele>692.0</ele><time>2026-05-02T14:29:15.031Z</time></trkpt><trkpt lat="42.0648312" lon="13.5337087"><ele>690.6666666666666</ele><time>2026-05-02T14:29:16.03Z</time></trkpt><trkpt lat="42.0646739" lon="13.5336895"><ele>689.3333333333334</ele><time>2026-05-02T14:29:17.031Z</time></trkpt><trkpt lat="42.0645233" lon="13.5336748"><ele>688.0</ele><time>2026-05-02T14:29:18.03Z</time></trkpt><trkpt lat="42.0643729" lon="13.533663"><ele>688.0</ele><time>2026-05-02T14:29:19.031Z</time></trkpt><trkpt lat="42.0642225" lon="13.5336535"><ele>688.0</ele><time>2026-05-02T14:29:20.031Z</time></trkpt><trkpt lat="42.0640748" lon="13.5336483"><ele>688.0</ele><time>2026-05-02T14:29:21.031Z</time></trkpt><trkpt lat="42.0639282" lon="13.5336377"><ele>688.0</ele><time>2026-05-02T14:29:22.03Z</time></trkpt><trkpt lat="42.0637817" lon="13.5336238"><ele>688.25</ele><time>2026-05-02T14:29:23.031Z</time></trkpt><trkpt lat="42.0636406" lon="13.533607"><ele>688.5</ele><time>2026-05-02T14:29:24.031Z</time></trkpt><trkpt lat="42.0635051" lon="13.5335881"><ele>688.75</ele><time>2026-05-02T14:29:25.03Z</time></trkpt><trkpt lat="42.0633768" lon="13.5335729"><ele>689.0</ele><time>2026-05-02T14:29:26.03Z</time></trkpt><trkpt lat="42.0632555" lon="13.5335529"><ele>688.6</ele><time>2026-05-02T14:29:27.031Z</time></trkpt><trkpt lat="42.0631447" lon="13.5335332"><ele>688.2</ele><time>2026-05-02T14:29:28.031Z</time></trkpt><trkpt lat="42.0630423" lon="13.5335038"><ele>687.8000000000001</ele><time>2026-05-02T14:29:29.031Z</time></trkpt><trkpt lat="42.0629471" lon="13.5334829"><ele>687.4000000000001</ele><time>2026-05-02T14:29:30.031Z</time></trkpt><trkpt lat="42.0628549" lon="13.5334608"><ele>687.0</ele><time>2026-05-02T14:29:31.031Z</time></trkpt><trkpt lat="42.0627625" lon="13.5334271"><ele>687.0</ele><time>2026-05-02T14:29:32.031Z</time></trkpt><trkpt lat="42.0626816" lon="13.5333665"><ele>687.0</ele><time>2026-05-02T14:29:33.031Z</time></trkpt><trkpt lat="42.062608" lon="13.5332848"><ele>687.0</ele><time>2026-05-02T14:29:34.03Z</time></trkpt><trkpt lat="42.0625456" lon="13.5331807"><ele>687.0</ele><time>2026-05-02T14:29:35.031Z</time></trkpt><trkpt lat="42.0625" lon="13.5330538"><ele>687.0</ele><time>2026-05-02T14:29:36.031Z</time></trkpt><trkpt lat="42.0624788" lon="13.5329019"><ele>687.25</ele><time>2026-05-02T14:29:37.031Z</time></trkpt><trkpt lat="42.0624746" lon="13.5327511"><ele>687.5</ele><time>2026-05-02T14:29:38.031Z</time></trkpt><trkpt lat="42.0624853" lon="13.5325865"><ele>687.75</ele><time>2026-05-02T14:29:39.031Z</time></trkpt><trkpt lat="42.062489" lon="13.5324216"><ele>688.0</ele><time>2026-05-02T14:29:40.031Z</time></trkpt><trkpt lat="42.0624679" lon="13.5322575"><ele>687.5999999999999</ele><time>2026-05-02T14:29:41.031Z</time></trkpt><trkpt lat="42.0624213" lon="13.5321305"><ele>687.1999999999999</ele><time>2026-05-02T14:29:42.03Z</time></trkpt><trkpt lat="42.0623577" lon="13.5320134"><ele>686.8</ele><time>2026-05-02T14:29:43.031Z</time></trkpt><trkpt lat="42.0622936" lon="13.5319024"><ele>686.4</ele><time>2026-05-02T14:29:44.031Z</time></trkpt><trkpt lat="42.0622413" lon="13.5317685"><ele>686.0</ele><time>2026-05-02T14:29:45.03Z</time></trkpt><trkpt lat="42.0622218" lon="13.531618"><ele>685.75</ele><time>2026-05-02T14:29:46.031Z</time></trkpt><trkpt lat="42.0622232" lon="13.5314572"><ele>685.5</ele><time>2026-05-02T14:29:47.031Z</time></trkpt><trkpt lat="42.062248" lon="13.5312775"><ele>685.25</ele><time>2026-05-02T14:29:48.031Z</time></trkpt><trkpt lat="42.0622776" lon="13.5310707"><ele>685.0</ele><time>2026-05-02T14:29:49.03Z</time></trkpt><trkpt lat="42.0623101" lon="13.5308534"><ele>684.3333333333334</ele><time>2026-05-02T14:29:50.031Z</time></trkpt><trkpt lat="42.0623426" lon="13.5306174"><ele>683.6666666666666</ele><time>2026-05-02T14:29:51.031Z</time></trkpt><trkpt lat="42.0623742" lon="13.5303742"><ele>683.0</ele><time>2026-05-02T14:29:52.031Z</time></trkpt><trkpt lat="42.0624066" lon="13.5301248"><ele>683.0</ele><time>2026-05-02T14:29:53.031Z</time></trkpt><trkpt lat="42.062439" lon="13.5298701"><ele>683.0</ele><time>2026-05-02T14:29:54.03Z</time></trkpt><trkpt lat="42.0624801" lon="13.5296214"><ele>683.0</ele><time>2026-05-02T14:29:55.031Z</time></trkpt><trkpt lat="42.0625186" lon="13.5293774"><ele>683.0</ele><time>2026-05-02T14:29:56.031Z</time></trkpt><trkpt lat="42.0625598" lon="13.5291373"><ele>683.0</ele><time>2026-05-02T14:29:57.031Z</time></trkpt><trkpt lat="42.0625966" lon="13.5289021"><ele>683.0</ele><time>2026-05-02T14:29:58.031Z</time></trkpt><trkpt lat="42.0626361" lon="13.5286559"><ele>683.0</ele><time>2026-05-02T14:29:59.03Z</time></trkpt><trkpt lat="42.0626762" lon="13.5284043"><ele>683.0</ele><time>2026-05-02T14:30:00.031Z</time></trkpt><trkpt lat="42.0627166" lon="13.5281493"><ele>683.0</ele><time>2026-05-02T14:30:01.03Z</time></trkpt><trkpt lat="42.0627629" lon="13.5278833"><ele>683.0</ele><time>2026-05-02T14:30:02.03Z</time></trkpt><trkpt lat="42.0628061" lon="13.5276128"><ele>683.0</ele><time>2026-05-02T14:30:03.031Z</time></trkpt><trkpt lat="42.0628498" lon="13.5273423"><ele>683.0</ele><time>2026-05-02T14:30:04.031Z</time></trkpt><trkpt lat="42.0628955" lon="13.5270632"><ele>683.0</ele><time>2026-05-02T14:30:05.031Z</time></trkpt><trkpt lat="42.06294" lon="13.5267782"><ele>683.0</ele><time>2026-05-02T14:30:06.031Z</time></trkpt><trkpt lat="42.0629821" lon="13.5264853"><ele>683.0</ele><time>2026-05-02T14:30:07.031Z</time></trkpt><trkpt lat="42.0630228" lon="13.5261862"><ele>684.0</ele><time>2026-05-02T14:30:08.031Z</time></trkpt><trkpt lat="42.0630613" lon="13.5258847"><ele>685.0</ele><time>2026-05-02T14:30:09.031Z</time></trkpt><trkpt lat="42.0630922" lon="13.5255856"><ele>685.0</ele><time>2026-05-02T14:30:10.031Z</time></trkpt><trkpt lat="42.0631107" lon="13.5252852"><ele>685.0</ele><time>2026-05-02T14:30:11.031Z</time></trkpt><trkpt lat="42.0631205" lon="13.5249859"><ele>685.0</ele><time>2026-05-02T14:30:12.03Z</time></trkpt><trkpt lat="42.0631233" lon="13.5246919"><ele>685.6666666666667</ele><time>2026-05-02T14:30:13.031Z</time></trkpt><trkpt lat="42.0631205" lon="13.5243998"><ele>686.3333333333334</ele><time>2026-05-02T14:30:14.031Z</time></trkpt><trkpt lat="42.0631172" lon="13.5241158"><ele>687.0</ele><time>2026-05-02T14:30:15.031Z</time></trkpt><trkpt lat="42.0631118" lon="13.5238507"><ele>687.0</ele><time>2026-05-02T14:30:16.031Z</time></trkpt><trkpt lat="42.0631077" lon="13.5235884"><ele>687.0</ele><time>2026-05-02T14:30:17.031Z</time></trkpt><trkpt lat="42.0631066" lon="13.523319"><ele>687.0</ele><time>2026-05-02T14:30:18.031Z</time></trkpt><trkpt lat="42.0631043" lon="13.5230504"><ele>687.0</ele><time>2026-05-02T14:30:19.031Z</time></trkpt><trkpt lat="42.0631015" lon="13.5227821"><ele>687.0</ele><time>2026-05-02T14:30:20.031Z</time></trkpt><trkpt lat="42.063095" lon="13.5225043"><ele>687.0</ele><time>2026-05-02T14:30:21.031Z</time></trkpt><trkpt lat="42.0630944" lon="13.5222303"><ele>686.3333333333334</ele><time>2026-05-02T14:30:22.031Z</time></trkpt><trkpt lat="42.0630916" lon="13.5219532"><ele>685.6666666666667</ele><time>2026-05-02T14:30:23.031Z</time></trkpt><trkpt lat="42.0630883" lon="13.5216693"><ele>685.0</ele><time>2026-05-02T14:30:24.031Z</time></trkpt><trkpt lat="42.063085" lon="13.5213922"><ele>685.3333333333334</ele><time>2026-05-02T14:30:25.031Z</time></trkpt><trkpt lat="42.0630786" lon="13.5211135"><ele>685.6666666666666</ele><time>2026-05-02T14:30:26.031Z</time></trkpt><trkpt lat="42.0630762" lon="13.5208373"><ele>686.0</ele><time>2026-05-02T14:30:27.031Z</time></trkpt><trkpt lat="42.063075" lon="13.5205675"><ele>685.3333333333333</ele><time>2026-05-02T14:30:28.031Z</time></trkpt><trkpt lat="42.0630728" lon="13.5203102"><ele>684.6666666666666</ele><time>2026-05-02T14:30:29.031Z</time></trkpt><trkpt lat="42.0630693" lon="13.5200619"><ele>684.0</ele><time>2026-05-02T14:30:30.031Z</time></trkpt><trkpt lat="42.0630745" lon="13.5198221"><ele>684.0</ele><time>2026-05-02T14:30:31.031Z</time></trkpt><trkpt lat="42.0630841" lon="13.5195998"><ele>684.0</ele><time>2026-05-02T14:30:32.03Z</time></trkpt><trkpt lat="42.0631002" lon="13.5193886"><ele>684.0</ele><time>2026-05-02T14:30:33.031Z</time></trkpt><trkpt lat="42.0631204" lon="13.519195"><ele>684.0</ele><time>2026-05-02T14:30:34.031Z</time></trkpt><trkpt lat="42.0631372" lon="13.5190301"><ele>684.0</ele><time>2026-05-02T14:30:35.031Z</time></trkpt><trkpt lat="42.063153" lon="13.5188767"><ele>684.0</ele><time>2026-05-02T14:30:36.031Z</time></trkpt><trkpt lat="42.063174" lon="13.5187316"><ele>684.0</ele><time>2026-05-02T14:30:37.031Z</time></trkpt><trkpt lat="42.0632115" lon="13.5186034"><ele>684.2</ele><time>2026-05-02T14:30:38.031Z</time></trkpt><trkpt lat="42.0632559" lon="13.518484"><ele>684.4000000000001</ele><time>2026-05-02T14:30:39.031Z</time></trkpt><trkpt lat="42.0632898" lon="13.5183629"><ele>684.6</ele><time>2026-05-02T14:30:40.031Z</time></trkpt><trkpt lat="42.0632901" lon="13.5182478"><ele>684.8</ele><time>2026-05-02T14:30:41.031Z</time></trkpt><trkpt lat="42.0632657" lon="13.5181252"><ele>685.0</ele><time>2026-05-02T14:30:42.031Z</time></trkpt><trkpt lat="42.0632159" lon="13.5179943"><ele>684.75</ele><time>2026-05-02T14:30:43.031Z</time></trkpt><trkpt lat="42.0631776" lon="13.517849"><ele>684.5</ele><time>2026-05-02T14:30:44.03Z</time></trkpt><trkpt lat="42.0631439" lon="13.5176696"><ele>684.25</ele><time>2026-05-02T14:30:45.031Z</time></trkpt><trkpt lat="42.0631211" lon="13.5174799"><ele>684.0</ele><time>2026-05-02T14:30:46.031Z</time></trkpt><trkpt lat="42.063093" lon="13.5172745"><ele>683.6666666666666</ele><time>2026-05-02T14:30:47.031Z</time></trkpt><trkpt lat="42.0630653" lon="13.5170641"><ele>683.3333333333333</ele><time>2026-05-02T14:30:48.031Z</time></trkpt><trkpt lat="42.0630442" lon="13.5168436"><ele>683.0</ele><time>2026-05-02T14:30:49.031Z</time></trkpt><trkpt lat="42.0630289" lon="13.5166068"><ele>683.0</ele><time>2026-05-02T14:30:50.031Z</time></trkpt><trkpt lat="42.0630187" lon="13.5163612"><ele>683.0</ele><time>2026-05-02T14:30:51.031Z</time></trkpt><trkpt lat="42.0630098" lon="13.5161205"><ele>683.0</ele><time>2026-05-02T14:30:52.031Z</time></trkpt><trkpt lat="42.0630096" lon="13.5158734"><ele>683.3333333333333</ele><time>2026-05-02T14:30:53.031Z</time></trkpt><trkpt lat="42.0630039" lon="13.5156112"><ele>683.6666666666666</ele><time>2026-05-02T14:30:54.03Z</time></trkpt><trkpt lat="42.0629948" lon="13.5153499"><ele>684.0</ele><time>2026-05-02T14:30:55.03Z</time></trkpt><trkpt lat="42.0629939" lon="13.515078"><ele>684.3333333333334</ele><time>2026-05-02T14:30:56.031Z</time></trkpt><trkpt lat="42.0629906" lon="13.5148036"><ele>684.6666666666667</ele><time>2026-05-02T14:30:57.031Z</time></trkpt><trkpt lat="42.062987" lon="13.5145265"><ele>685.0</ele><time>2026-05-02T14:30:58.031Z</time></trkpt><trkpt lat="42.0629813" lon="13.5142421"><ele>685.0</ele><time>2026-05-02T14:30:59.031Z</time></trkpt><trkpt lat="42.0629792" lon="13.5139607"><ele>685.0</ele><time>2026-05-02T14:31:00.031Z</time></trkpt><trkpt lat="42.0629756" lon="13.513678"><ele>685.0</ele><time>2026-05-02T14:31:01.031Z</time></trkpt><trkpt lat="42.0629718" lon="13.5133982"><ele>685.3333333333334</ele><time>2026-05-02T14:31:02.031Z</time></trkpt><trkpt lat="42.0629686" lon="13.5131161"><ele>685.6666666666666</ele><time>2026-05-02T14:31:03.031Z</time></trkpt><trkpt lat="42.0629653" lon="13.5128411"><ele>686.0</ele><time>2026-05-02T14:31:04.031Z</time></trkpt><trkpt lat="42.0629616" lon="13.5125687"><ele>685.3333333333333</ele><time>2026-05-02T14:31:05.031Z</time></trkpt><trkpt lat="42.0629589" lon="13.512298"><ele>684.6666666666666</ele><time>2026-05-02T14:31:06.031Z</time></trkpt><trkpt lat="42.0629558" lon="13.5120299"><ele>684.0</ele><time>2026-05-02T14:31:07.031Z</time></trkpt><trkpt lat="42.0629499" lon="13.5117611"><ele>684.0</ele><time>2026-05-02T14:31:08.031Z</time></trkpt><trkpt lat="42.0629453" lon="13.5114907"><ele>684.0</ele><time>2026-05-02T14:31:09.03Z</time></trkpt><trkpt lat="42.0629421" lon="13.5112163"><ele>684.0</ele><time>2026-05-02T14:31:10.031Z</time></trkpt><trkpt lat="42.0629381" lon="13.5109398"><ele>684.0</ele><time>2026-05-02T14:31:11.031Z</time></trkpt><trkpt lat="42.0629338" lon="13.51066"><ele>684.0</ele><time>2026-05-02T14:31:12.031Z</time></trkpt><trkpt lat="42.0629284" lon="13.510379"><ele>684.0</ele><time>2026-05-02T14:31:13.031Z</time></trkpt><trkpt lat="42.062923" lon="13.5100991"><ele>684.0</ele><time>2026-05-02T14:31:14.031Z</time></trkpt><trkpt lat="42.062922" lon="13.5098181"><ele>684.0</ele><time>2026-05-02T14:31:15.031Z</time></trkpt><trkpt lat="42.0629191" lon="13.5095357"><ele>684.0</ele><time>2026-05-02T14:31:16.031Z</time></trkpt><trkpt lat="42.062917" lon="13.509259"><ele>684.3333333333334</ele><time>2026-05-02T14:31:17.03Z</time></trkpt><trkpt lat="42.0629123" lon="13.5089806"><ele>684.6666666666667</ele><time>2026-05-02T14:31:18.031Z</time></trkpt><trkpt lat="42.0629066" lon="13.5087019"><ele>685.0</ele><time>2026-05-02T14:31:19.03Z</time></trkpt><trkpt lat="42.0629025" lon="13.5084206"><ele>685.0</ele><time>2026-05-02T14:31:20.03Z</time></trkpt><trkpt lat="42.0628993" lon="13.5081376"><ele>685.0</ele><time>2026-05-02T14:31:21.031Z</time></trkpt><trkpt lat="42.062901" lon="13.5078585"><ele>685.0</ele><time>2026-05-02T14:31:22.031Z</time></trkpt><trkpt lat="42.0628979" lon="13.5075766"><ele>685.0</ele><time>2026-05-02T14:31:23.031Z</time></trkpt><trkpt lat="42.0628932" lon="13.5072958"><ele>685.0</ele><time>2026-05-02T14:31:24.031Z</time></trkpt><trkpt lat="42.0628906" lon="13.5070153"><ele>685.0</ele><time>2026-05-02T14:31:25.031Z</time></trkpt><trkpt lat="42.0628872" lon="13.5067382"><ele>685.0</ele><time>2026-05-02T14:31:26.03Z</time></trkpt><trkpt lat="42.062881" lon="13.5064621"><ele>685.0</ele><time>2026-05-02T14:31:27.031Z</time></trkpt><trkpt lat="42.0628717" lon="13.5061898"><ele>685.0</ele><time>2026-05-02T14:31:28.031Z</time></trkpt><trkpt lat="42.06287" lon="13.5059182"><ele>684.6666666666667</ele><time>2026-05-02T14:31:29.031Z</time></trkpt><trkpt lat="42.0628675" lon="13.5056449"><ele>684.3333333333334</ele><time>2026-05-02T14:31:30.03Z</time></trkpt><trkpt lat="42.0628649" lon="13.5053737"><ele>684.0</ele><time>2026-05-02T14:31:31.03Z</time></trkpt><trkpt lat="42.0628585" lon="13.5051062"><ele>683.6666666666666</ele><time>2026-05-02T14:31:32.031Z</time></trkpt><trkpt lat="42.0628552" lon="13.5048337"><ele>683.3333333333333</ele><time>2026-05-02T14:31:33.031Z</time></trkpt><trkpt lat="42.0628513" lon="13.5045612"><ele>683.0</ele><time>2026-05-02T14:31:34.031Z</time></trkpt><trkpt lat="42.0628469" lon="13.5042862"><ele>682.6666666666666</ele><time>2026-05-02T14:31:35.031Z</time></trkpt><trkpt lat="42.0628396" lon="13.5040124"><ele>682.3333333333334</ele><time>2026-05-02T14:31:36.031Z</time></trkpt><trkpt lat="42.0628362" lon="13.5037308"><ele>682.0</ele><time>2026-05-02T14:31:37.03Z</time></trkpt><trkpt lat="42.0628345" lon="13.5034527"><ele>682.0</ele><time>2026-05-02T14:31:38.031Z</time></trkpt><trkpt lat="42.0628308" lon="13.5031743"><ele>682.0</ele><time>2026-05-02T14:31:39.031Z</time></trkpt><trkpt lat="42.0628248" lon="13.5028936"><ele>682.0</ele><time>2026-05-02T14:31:40.031Z</time></trkpt><trkpt lat="42.0628209" lon="13.5026108"><ele>682.0</ele><time>2026-05-02T14:31:41.031Z</time></trkpt><trkpt lat="42.0628176" lon="13.5023312"><ele>682.0</ele><time>2026-05-02T14:31:42.031Z</time></trkpt><trkpt lat="42.0628163" lon="13.5020524"><ele>682.0</ele><time>2026-05-02T14:31:43.03Z</time></trkpt><trkpt lat="42.0628145" lon="13.501772"><ele>682.0</ele><time>2026-05-02T14:31:44.031Z</time></trkpt><trkpt lat="42.0628075" lon="13.5014921"><ele>682.0</ele><time>2026-05-02T14:31:45.031Z</time></trkpt><trkpt lat="42.062803" lon="13.5012181"><ele>682.0</ele><time>2026-05-02T14:31:46.031Z</time></trkpt><trkpt lat="42.0628013" lon="13.5009455"><ele>682.0</ele><time>2026-05-02T14:31:47.031Z</time></trkpt><trkpt lat="42.0627959" lon="13.5006723"><ele>682.0</ele><time>2026-05-02T14:31:48.03Z</time></trkpt><trkpt lat="42.0627936" lon="13.500401"><ele>682.0</ele><time>2026-05-02T14:31:49.031Z</time></trkpt><trkpt lat="42.0627919" lon="13.5001307"><ele>682.0</ele><time>2026-05-02T14:31:50.031Z</time></trkpt><trkpt lat="42.0627871" lon="13.4998587"><ele>682.0</ele><time>2026-05-02T14:31:51.031Z</time></trkpt><trkpt lat="42.0627814" lon="13.4995898"><ele>682.0</ele><time>2026-05-02T14:31:52.03Z</time></trkpt><trkpt lat="42.0627785" lon="13.4993193"><ele>682.3333333333334</ele><time>2026-05-02T14:31:53.031Z</time></trkpt><trkpt lat="42.0627767" lon="13.4990478"><ele>682.6666666666666</ele><time>2026-05-02T14:31:54.031Z</time></trkpt><trkpt lat="42.062772" lon="13.4987771"><ele>683.0</ele><time>2026-05-02T14:31:55.031Z</time></trkpt><trkpt lat="42.0627625" lon="13.4985034"><ele>682.3333333333333</ele><time>2026-05-02T14:31:56.031Z</time></trkpt><trkpt lat="42.0627559" lon="13.4982302"><ele>681.6666666666666</ele><time>2026-05-02T14:31:57.031Z</time></trkpt><trkpt lat="42.0627566" lon="13.4979573"><ele>681.0</ele><time>2026-05-02T14:31:58.031Z</time></trkpt><trkpt lat="42.0627533" lon="13.4976804"><ele>680.6666666666666</ele><time>2026-05-02T14:31:59.03Z</time></trkpt><trkpt lat="42.0627534" lon="13.497404"><ele>680.3333333333333</ele><time>2026-05-02T14:32:00.031Z</time></trkpt><trkpt lat="42.062749" lon="13.4971302"><ele>680.0</ele><time>2026-05-02T14:32:01.031Z</time></trkpt><trkpt lat="42.0627448" lon="13.4968584"><ele>680.6666666666666</ele><time>2026-05-02T14:32:02.031Z</time></trkpt><trkpt lat="42.0627433" lon="13.4965828"><ele>681.3333333333334</ele><time>2026-05-02T14:32:03.031Z</time></trkpt><trkpt lat="42.0627383" lon="13.4963101"><ele>682.0</ele><time>2026-05-02T14:32:04.031Z</time></trkpt><trkpt lat="42.0627356" lon="13.4960367"><ele>682.3333333333334</ele><time>2026-05-02T14:32:05.031Z</time></trkpt><trkpt lat="42.0627331" lon="13.4957649"><ele>682.6666666666666</ele><time>2026-05-02T14:32:06.03Z</time></trkpt><trkpt lat="42.0627277" lon="13.4954896"><ele>683.0</ele><time>2026-05-02T14:32:07.03Z</time></trkpt><trkpt lat="42.0627225" lon="13.4952096"><ele>683.0</ele><time>2026-05-02T14:32:08.031Z</time></trkpt><trkpt lat="42.0627196" lon="13.4949276"><ele>683.0</ele><time>2026-05-02T14:32:09.031Z</time></trkpt><trkpt lat="42.062715" lon="13.4946434"><ele>683.0</ele><time>2026-05-02T14:32:10.031Z</time></trkpt><trkpt lat="42.062709" lon="13.4943616"><ele>682.3333333333333</ele><time>2026-05-02T14:32:11.03Z</time></trkpt><trkpt lat="42.0627059" lon="13.4940783"><ele>681.6666666666666</ele><time>2026-05-02T14:32:12.031Z</time></trkpt><trkpt lat="42.0627007" lon="13.4938027"><ele>681.0</ele><time>2026-05-02T14:32:13.031Z</time></trkpt><trkpt lat="42.062695" lon="13.493523"><ele>680.3333333333334</ele><time>2026-05-02T14:32:14.031Z</time></trkpt><trkpt lat="42.0626907" lon="13.4932456"><ele>679.6666666666667</ele><time>2026-05-02T14:32:15.031Z</time></trkpt><trkpt lat="42.0626875" lon="13.4929682"><ele>679.0</ele><time>2026-05-02T14:32:16.031Z</time></trkpt><trkpt lat="42.062688" lon="13.4926919"><ele>679.0</ele><time>2026-05-02T14:32:17.031Z</time></trkpt><trkpt lat="42.0626837" lon="13.492415"><ele>679.0</ele><time>2026-05-02T14:32:18.031Z</time></trkpt><trkpt lat="42.0626762" lon="13.4921416"><ele>679.0</ele><time>2026-05-02T14:32:19.031Z</time></trkpt><trkpt lat="42.0626658" lon="13.4918711"><ele>678.6666666666667</ele><time>2026-05-02T14:32:20.031Z</time></trkpt><trkpt lat="42.062667" lon="13.4915991"><ele>678.3333333333334</ele><time>2026-05-02T14:32:21.031Z</time></trkpt><trkpt lat="42.0626693" lon="13.4913291"><ele>678.0</ele><time>2026-05-02T14:32:22.031Z</time></trkpt><trkpt lat="42.0626639" lon="13.4910581"><ele>678.0</ele><time>2026-05-02T14:32:23.031Z</time></trkpt><trkpt lat="42.0626616" lon="13.4907998"><ele>678.0</ele><time>2026-05-02T14:32:24.031Z</time></trkpt><trkpt lat="42.0626591" lon="13.490552"><ele>678.0</ele><time>2026-05-02T14:32:25.031Z</time></trkpt><trkpt lat="42.0626544" lon="13.4903113"><ele>678.6666666666666</ele><time>2026-05-02T14:32:26.031Z</time></trkpt><trkpt lat="42.0626487" lon="13.4900773"><ele>679.3333333333333</ele><time>2026-05-02T14:32:27.031Z</time></trkpt><trkpt lat="42.0626417" lon="13.4898542"><ele>680.0</ele><time>2026-05-02T14:32:28.031Z</time></trkpt><trkpt lat="42.0626327" lon="13.4896329"><ele>680.6666666666666</ele><time>2026-05-02T14:32:29.031Z</time></trkpt><trkpt lat="42.0626132" lon="13.4894135"><ele>681.3333333333334</ele><time>2026-05-02T14:32:30.03Z</time></trkpt><trkpt lat="42.0625843" lon="13.4891928"><ele>682.0</ele><time>2026-05-02T14:32:31.031Z</time></trkpt><trkpt lat="42.062546" lon="13.4889726"><ele>682.6666666666667</ele><time>2026-05-02T14:32:32.031Z</time></trkpt><trkpt lat="42.0625009" lon="13.4887469"><ele>683.3333333333334</ele><time>2026-05-02T14:32:33.031Z</time></trkpt><trkpt lat="42.0624403" lon="13.4885232"><ele>684.0</ele><time>2026-05-02T14:32:34.031Z</time></trkpt><trkpt lat="42.0623648" lon="13.4882997"><ele>683.0</ele><time>2026-05-02T14:32:35.03Z</time></trkpt><trkpt lat="42.0622812" lon="13.4880794"><ele>682.0</ele><time>2026-05-02T14:32:36.03Z</time></trkpt><trkpt lat="42.0621852" lon="13.487854"><ele>681.0</ele><time>2026-05-02T14:32:37.03Z</time></trkpt><trkpt lat="42.0620844" lon="13.4876307"><ele>681.0</ele><time>2026-05-02T14:32:38.031Z</time></trkpt><trkpt lat="42.0619799" lon="13.4874056"><ele>681.0</ele><time>2026-05-02T14:32:39.031Z</time></trkpt><trkpt lat="42.0618753" lon="13.4871801"><ele>681.0</ele><time>2026-05-02T14:32:40.031Z</time></trkpt><trkpt lat="42.0617721" lon="13.4869543"><ele>682.0</ele><time>2026-05-02T14:32:41.031Z</time></trkpt><trkpt lat="42.0616705" lon="13.4867282"><ele>683.0</ele><time>2026-05-02T14:32:42.031Z</time></trkpt><trkpt lat="42.0615667" lon="13.4865037"><ele>684.0</ele><time>2026-05-02T14:32:43.031Z</time></trkpt><trkpt lat="42.0614613" lon="13.4862779"><ele>682.3333333333334</ele><time>2026-05-02T14:32:44.031Z</time></trkpt><trkpt lat="42.0613562" lon="13.486054"><ele>680.6666666666667</ele><time>2026-05-02T14:32:45.031Z</time></trkpt><trkpt lat="42.0612527" lon="13.4858273"><ele>679.0</ele><time>2026-05-02T14:32:46.031Z</time></trkpt><trkpt lat="42.061148" lon="13.4856022"><ele>680.6666666666667</ele><time>2026-05-02T14:32:47.031Z</time></trkpt><trkpt lat="42.0610453" lon="13.485379"><ele>682.3333333333334</ele><time>2026-05-02T14:32:48.03Z</time></trkpt><trkpt lat="42.060944" lon="13.4851517"><ele>684.0</ele><time>2026-05-02T14:32:49.03Z</time></trkpt><trkpt lat="42.0608418" lon="13.4849263"><ele>683.0</ele><time>2026-05-02T14:32:50.031Z</time></trkpt><trkpt lat="42.0607382" lon="13.4847036"><ele>682.0</ele><time>2026-05-02T14:32:51.031Z</time></trkpt><trkpt lat="42.0606371" lon="13.4844839"><ele>681.0</ele><time>2026-05-02T14:32:52.031Z</time></trkpt><trkpt lat="42.0605368" lon="13.4842607"><ele>681.0</ele><time>2026-05-02T14:32:53.03Z</time></trkpt><trkpt lat="42.0604384" lon="13.4840458"><ele>681.0</ele><time>2026-05-02T14:32:54.031Z</time></trkpt><trkpt lat="42.0603385" lon="13.4838418"><ele>681.0</ele><time>2026-05-02T14:32:55.031Z</time></trkpt><trkpt lat="42.0602492" lon="13.4836434"><ele>682.3333333333334</ele><time>2026-05-02T14:32:56.031Z</time></trkpt><trkpt lat="42.0601595" lon="13.4834438"><ele>683.6666666666667</ele><time>2026-05-02T14:32:57.031Z</time></trkpt><trkpt lat="42.0600699" lon="13.4832499"><ele>685.0</ele><time>2026-05-02T14:32:58.031Z</time></trkpt><trkpt lat="42.0599763" lon="13.4830518"><ele>684.0</ele><time>2026-05-02T14:32:59.031Z</time></trkpt><trkpt lat="42.0598836" lon="13.4828537"><ele>683.0</ele><time>2026-05-02T14:33:00.031Z</time></trkpt><trkpt lat="42.059789" lon="13.4826527"><ele>682.0</ele><time>2026-05-02T14:33:01.03Z</time></trkpt><trkpt lat="42.0596982" lon="13.4824565"><ele>682.0</ele><time>2026-05-02T14:33:02.031Z</time></trkpt><trkpt lat="42.0596101" lon="13.4822674"><ele>682.0</ele><time>2026-05-02T14:33:03.031Z</time></trkpt><trkpt lat="42.0595221" lon="13.4820818"><ele>682.0</ele><time>2026-05-02T14:33:04.031Z</time></trkpt><trkpt lat="42.0594398" lon="13.4818966"><ele>682.5</ele><time>2026-05-02T14:33:05.03Z</time></trkpt><trkpt lat="42.0593658" lon="13.4817195"><ele>683.0</ele><time>2026-05-02T14:33:06.03Z</time></trkpt><trkpt lat="42.0593013" lon="13.4815536"><ele>683.5</ele><time>2026-05-02T14:33:07.031Z</time></trkpt><trkpt lat="42.0592449" lon="13.4813996"><ele>684.0</ele><time>2026-05-02T14:33:08.031Z</time></trkpt><trkpt lat="42.0591964" lon="13.4812581"><ele>684.3333333333334</ele><time>2026-05-02T14:33:09.031Z</time></trkpt><trkpt lat="42.0591496" lon="13.4811247"><ele>684.6666666666666</ele><time>2026-05-02T14:33:10.031Z</time></trkpt><trkpt lat="42.0591107" lon="13.4810144"><ele>685.0</ele><time>2026-05-02T14:33:11.031Z</time></trkpt><trkpt lat="42.0590783" lon="13.4809253"><ele>685.3333333333333</ele><time>2026-05-02T14:33:12.031Z</time></trkpt><trkpt lat="42.0590468" lon="13.4808147"><ele>685.6666666666666</ele><time>2026-05-02T14:33:14.031Z</time></trkpt><trkpt lat="42.0590147" lon="13.4807334"><ele>686.0</ele><time>2026-05-02T14:33:16.03Z</time></trkpt><trkpt lat="42.0589698" lon="13.4806011"><ele>684.8</ele><time>2026-05-02T14:33:18.03Z</time></trkpt><trkpt lat="42.0589161" lon="13.4804523"><ele>683.5999999999999</ele><time>2026-05-02T14:33:20.031Z</time></trkpt><trkpt lat="42.0588795" lon="13.4803619"><ele>682.4</ele><time>2026-05-02T14:33:21.031Z</time></trkpt><trkpt lat="42.0588468" lon="13.4802627"><ele>681.2</ele><time>2026-05-02T14:33:22.031Z</time></trkpt><trkpt lat="42.0588054" lon="13.4801491"><ele>680.0</ele><time>2026-05-02T14:33:23.031Z</time></trkpt><trkpt lat="42.0587614" lon="13.4800199"><ele>680.0</ele><time>2026-05-02T14:33:24.031Z</time></trkpt><trkpt lat="42.0587223" lon="13.4798958"><ele>680.0</ele><time>2026-05-02T14:33:25.031Z</time></trkpt><trkpt lat="42.0586789" lon="13.4797655"><ele>680.0</ele><time>2026-05-02T14:33:26.031Z</time></trkpt><trkpt lat="42.0586349" lon="13.4796413"><ele>680.0</ele><time>2026-05-02T14:33:27.031Z</time></trkpt><trkpt lat="42.0585953" lon="13.4795144"><ele>680.0</ele><time>2026-05-02T14:33:28.031Z</time></trkpt><trkpt lat="42.0585524" lon="13.479387"><ele>681.0</ele><time>2026-05-02T14:33:29.031Z</time></trkpt><trkpt lat="42.0585101" lon="13.4792632"><ele>682.0</ele><time>2026-05-02T14:33:30.031Z</time></trkpt><trkpt lat="42.0584645" lon="13.4791289"><ele>683.0</ele><time>2026-05-02T14:33:31.031Z</time></trkpt><trkpt lat="42.0584138" lon="13.4789786"><ele>684.0</ele><time>2026-05-02T14:33:32.031Z</time></trkpt><trkpt lat="42.0583578" lon="13.4788215"><ele>684.5</ele><time>2026-05-02T14:33:33.031Z</time></trkpt><trkpt lat="42.0583044" lon="13.4786596"><ele>685.0</ele><time>2026-05-02T14:33:34.031Z</time></trkpt><trkpt lat="42.0582497" lon="13.478496"><ele>685.5</ele><time>2026-05-02T14:33:35.031Z</time></trkpt><trkpt lat="42.0581932" lon="13.4783311"><ele>686.0</ele><time>2026-05-02T14:33:36.031Z</time></trkpt><trkpt lat="42.0581378" lon="13.4781669"><ele>684.75</ele><time>2026-05-02T14:33:37.031Z</time></trkpt><trkpt lat="42.058081" lon="13.4779981"><ele>683.5</ele><time>2026-05-02T14:33:38.031Z</time></trkpt><trkpt lat="42.0580224" lon="13.4778309"><ele>682.25</ele><time>2026-05-02T14:33:39.03Z</time></trkpt><trkpt lat="42.0579626" lon="13.4776567"><ele>681.0</ele><time>2026-05-02T14:33:40.03Z</time></trkpt><trkpt lat="42.0579022" lon="13.4774769"><ele>681.0</ele><time>2026-05-02T14:33:41.031Z</time></trkpt><trkpt lat="42.0578359" lon="13.4772919"><ele>681.0</ele><time>2026-05-02T14:33:42.031Z</time></trkpt><trkpt lat="42.0577731" lon="13.4771018"><ele>681.0</ele><time>2026-05-02T14:33:43.031Z</time></trkpt><trkpt lat="42.0577079" lon="13.476908"><ele>682.3333333333334</ele><time>2026-05-02T14:33:44.031Z</time></trkpt><trkpt lat="42.0576426" lon="13.4767022"><ele>683.6666666666667</ele><time>2026-05-02T14:33:45.031Z</time></trkpt><trkpt lat="42.0575826" lon="13.4764969"><ele>685.0</ele><time>2026-05-02T14:33:46.031Z</time></trkpt><trkpt lat="42.0575199" lon="13.4762814"><ele>684.0</ele><time>2026-05-02T14:33:47.03Z</time></trkpt><trkpt lat="42.0574605" lon="13.4760624"><ele>683.0</ele><time>2026-05-02T14:33:48.031Z</time></trkpt><trkpt lat="42.0573921" lon="13.4758415"><ele>682.0</ele><time>2026-05-02T14:33:49.031Z</time></trkpt><trkpt lat="42.057333" lon="13.4756113"><ele>683.3333333333334</ele><time>2026-05-02T14:33:50.031Z</time></trkpt><trkpt lat="42.05727" lon="13.4753841"><ele>684.6666666666666</ele><time>2026-05-02T14:33:51.03Z</time></trkpt><trkpt lat="42.0572062" lon="13.4751634"><ele>686.0</ele><time>2026-05-02T14:33:52.03Z</time></trkpt><trkpt lat="42.0571415" lon="13.4749367"><ele>686.0</ele><time>2026-05-02T14:33:53.031Z</time></trkpt><trkpt lat="42.0570786" lon="13.4747128"><ele>686.0</ele><time>2026-05-02T14:33:54.031Z</time></trkpt><trkpt lat="42.0570149" lon="13.4744905"><ele>686.0</ele><time>2026-05-02T14:33:55.031Z</time></trkpt><trkpt lat="42.0569547" lon="13.4742707"><ele>687.0</ele><time>2026-05-02T14:33:56.031Z</time></trkpt><trkpt lat="42.0568937" lon="13.4740487"><ele>688.0</ele><time>2026-05-02T14:33:57.031Z</time></trkpt><trkpt lat="42.0568306" lon="13.4738265"><ele>689.0</ele><time>2026-05-02T14:33:58.031Z</time></trkpt><trkpt lat="42.0567711" lon="13.4736099"><ele>688.3333333333333</ele><time>2026-05-02T14:33:59.031Z</time></trkpt><trkpt lat="42.0567134" lon="13.4733929"><ele>687.6666666666666</ele><time>2026-05-02T14:34:00.031Z</time></trkpt><trkpt lat="42.0566561" lon="13.4731735"><ele>687.0</ele><time>2026-05-02T14:34:01.031Z</time></trkpt><trkpt lat="42.0565971" lon="13.4729532"><ele>687.3333333333334</ele><time>2026-05-02T14:34:02.031Z</time></trkpt><trkpt lat="42.0565397" lon="13.4727386"><ele>687.6666666666667</ele><time>2026-05-02T14:34:03.031Z</time></trkpt><trkpt lat="42.0564783" lon="13.4725274"><ele>688.0</ele><time>2026-05-02T14:34:04.031Z</time></trkpt><trkpt lat="42.0564166" lon="13.4723062"><ele>688.6666666666667</ele><time>2026-05-02T14:34:05.031Z</time></trkpt><trkpt lat="42.056353" lon="13.4720875"><ele>689.3333333333334</ele><time>2026-05-02T14:34:06.031Z</time></trkpt><trkpt lat="42.0562892" lon="13.4718647"><ele>690.0</ele><time>2026-05-02T14:34:07.03Z</time></trkpt><trkpt lat="42.0562274" lon="13.4716401"><ele>690.0</ele><time>2026-05-02T14:34:08.03Z</time></trkpt><trkpt lat="42.0561627" lon="13.4714077"><ele>690.0</ele><time>2026-05-02T14:34:09.031Z</time></trkpt><trkpt lat="42.0560974" lon="13.4711818"><ele>690.0</ele><time>2026-05-02T14:34:10.03Z</time></trkpt><trkpt lat="42.0560305" lon="13.4709567"><ele>690.6666666666666</ele><time>2026-05-02T14:34:11.031Z</time></trkpt><trkpt lat="42.0559671" lon="13.470736"><ele>691.3333333333333</ele><time>2026-05-02T14:34:12.031Z</time></trkpt><trkpt lat="42.0559001" lon="13.4705151"><ele>692.0</ele><time>2026-05-02T14:34:13.031Z</time></trkpt><trkpt lat="42.0558341" lon="13.4702904"><ele>692.0</ele><time>2026-05-02T14:34:14.031Z</time></trkpt><trkpt lat="42.0557609" lon="13.4700763"><ele>692.0</ele><time>2026-05-02T14:34:15.031Z</time></trkpt><trkpt lat="42.05568" lon="13.4698607"><ele>692.0</ele><time>2026-05-02T14:34:16.031Z</time></trkpt><trkpt lat="42.0555864" lon="13.4696602"><ele>693.0</ele><time>2026-05-02T14:34:17.03Z</time></trkpt><trkpt lat="42.0554887" lon="13.4694749"><ele>694.0</ele><time>2026-05-02T14:34:18.031Z</time></trkpt><trkpt lat="42.0553951" lon="13.4693007"><ele>695.0</ele><time>2026-05-02T14:34:19.031Z</time></trkpt><trkpt lat="42.0553016" lon="13.4691286"><ele>695.0</ele><time>2026-05-02T14:34:20.031Z</time></trkpt><trkpt lat="42.0552076" lon="13.4689484"><ele>695.0</ele><time>2026-05-02T14:34:21.031Z</time></trkpt><trkpt lat="42.0551111" lon="13.4687703"><ele>695.0</ele><time>2026-05-02T14:34:22.031Z</time></trkpt><trkpt lat="42.0550102" lon="13.4685754"><ele>694.6666666666666</ele><time>2026-05-02T14:34:23.03Z</time></trkpt><trkpt lat="42.05491" lon="13.4683813"><ele>694.3333333333334</ele><time>2026-05-02T14:34:24.031Z</time></trkpt><trkpt lat="42.0548086" lon="13.4681912"><ele>694.0</ele><time>2026-05-02T14:34:25.03Z</time></trkpt><trkpt lat="42.0547094" lon="13.468006"><ele>694.6666666666667</ele><time>2026-05-02T14:34:26.031Z</time></trkpt><trkpt lat="42.0546164" lon="13.4678214"><ele>695.3333333333334</ele><time>2026-05-02T14:34:27.031Z</time></trkpt><trkpt lat="42.0545278" lon="13.46765"><ele>696.0</ele><time>2026-05-02T14:34:28.031Z</time></trkpt><trkpt lat="42.0544402" lon="13.4674891"><ele>696.0</ele><time>2026-05-02T14:34:29.031Z</time></trkpt><trkpt lat="42.0543626" lon="13.4673343"><ele>696.0</ele><time>2026-05-02T14:34:30.031Z</time></trkpt><trkpt lat="42.0542868" lon="13.4671887"><ele>696.0</ele><time>2026-05-02T14:34:31.031Z</time></trkpt><trkpt lat="42.0542113" lon="13.4670433"><ele>696.0</ele><time>2026-05-02T14:34:32.031Z</time></trkpt><trkpt lat="42.054136" lon="13.4668992"><ele>696.25</ele><time>2026-05-02T14:34:33.031Z</time></trkpt><trkpt lat="42.0540573" lon="13.466752"><ele>696.5</ele><time>2026-05-02T14:34:34.031Z</time></trkpt><trkpt lat="42.053975" lon="13.4666073"><ele>696.75</ele><time>2026-05-02T14:34:35.031Z</time></trkpt><trkpt lat="42.053899" lon="13.4664577"><ele>697.0</ele><time>2026-05-02T14:34:36.031Z</time></trkpt><trkpt lat="42.0538213" lon="13.4663162"><ele>697.5</ele><time>2026-05-02T14:34:37.031Z</time></trkpt><trkpt lat="42.0537459" lon="13.466173"><ele>698.0</ele><time>2026-05-02T14:34:38.03Z</time></trkpt><trkpt lat="42.0536708" lon="13.466032"><ele>698.5</ele><time>2026-05-02T14:34:39.031Z</time></trkpt><trkpt lat="42.0535961" lon="13.4658904"><ele>699.0</ele><time>2026-05-02T14:34:40.03Z</time></trkpt><trkpt lat="42.0535227" lon="13.4657547"><ele>699.0</ele><time>2026-05-02T14:34:41.031Z</time></trkpt><trkpt lat="42.0534496" lon="13.465634"><ele>699.0</ele><time>2026-05-02T14:34:42.031Z</time></trkpt><trkpt lat="42.0533854" lon="13.4655049"><ele>699.0</ele><time>2026-05-02T14:34:43.03Z</time></trkpt><trkpt lat="42.0533255" lon="13.4653858"><ele>699.0</ele><time>2026-05-02T14:34:44.031Z</time></trkpt><trkpt lat="42.0532615" lon="13.4652641"><ele>699.0</ele><time>2026-05-02T14:34:45.031Z</time></trkpt><trkpt lat="42.0531912" lon="13.4651415"><ele>698.75</ele><time>2026-05-02T14:34:46.031Z</time></trkpt><trkpt lat="42.0531229" lon="13.4650154"><ele>698.5</ele><time>2026-05-02T14:34:47.031Z</time></trkpt><trkpt lat="42.0530567" lon="13.4648856"><ele>698.25</ele><time>2026-05-02T14:34:48.031Z</time></trkpt><trkpt lat="42.0529926" lon="13.4647613"><ele>698.0</ele><time>2026-05-02T14:34:49.031Z</time></trkpt><trkpt lat="42.052923" lon="13.4646371"><ele>698.5</ele><time>2026-05-02T14:34:50.031Z</time></trkpt><trkpt lat="42.0528528" lon="13.4645126"><ele>699.0</ele><time>2026-05-02T14:34:51.031Z</time></trkpt><trkpt lat="42.0527863" lon="13.4643865"><ele>699.5</ele><time>2026-05-02T14:34:52.03Z</time></trkpt><trkpt lat="42.0527198" lon="13.4642609"><ele>700.0</ele><time>2026-05-02T14:34:53.031Z</time></trkpt><trkpt lat="42.0526575" lon="13.464135"><ele>700.0</ele><time>2026-05-02T14:34:54.031Z</time></trkpt><trkpt lat="42.0525942" lon="13.4640112"><ele>700.0</ele><time>2026-05-02T14:34:55.031Z</time></trkpt><trkpt lat="42.0525255" lon="13.4638947"><ele>700.0</ele><time>2026-05-02T14:34:56.031Z</time></trkpt><trkpt lat="42.0524563" lon="13.4637803"><ele>700.0</ele><time>2026-05-02T14:34:57.03Z</time></trkpt><trkpt lat="42.0523894" lon="13.4636581"><ele>700.0</ele><time>2026-05-02T14:34:58.031Z</time></trkpt><trkpt lat="42.0523275" lon="13.4635327"><ele>700.0</ele><time>2026-05-02T14:34:59.03Z</time></trkpt><trkpt lat="42.0522636" lon="13.4634159"><ele>700.0</ele><time>2026-05-02T14:35:00.031Z</time></trkpt><trkpt lat="42.0521968" lon="13.4632967"><ele>700.0</ele><time>2026-05-02T14:35:01.031Z</time></trkpt><trkpt lat="42.0521368" lon="13.4631736"><ele>700.0</ele><time>2026-05-02T14:35:02.03Z</time></trkpt><trkpt lat="42.0520684" lon="13.4630472"><ele>700.0</ele><time>2026-05-02T14:35:03.031Z</time></trkpt><trkpt lat="42.052004" lon="13.4629208"><ele>700.6</ele><time>2026-05-02T14:35:04.031Z</time></trkpt><trkpt lat="42.0519412" lon="13.4627897"><ele>701.2</ele><time>2026-05-02T14:35:05.031Z</time></trkpt><trkpt lat="42.051877" lon="13.4626727"><ele>701.8</ele><time>2026-05-02T14:35:06.031Z</time></trkpt><trkpt lat="42.0518146" lon="13.4625599"><ele>702.4</ele><time>2026-05-02T14:35:07.031Z</time></trkpt><trkpt lat="42.0517507" lon="13.4624606"><ele>703.0</ele><time>2026-05-02T14:35:08.03Z</time></trkpt><trkpt lat="42.0516958" lon="13.4623506"><ele>703.0</ele><time>2026-05-02T14:35:09.031Z</time></trkpt><trkpt lat="42.0516458" lon="13.4622483"><ele>703.0</ele><time>2026-05-02T14:35:10.031Z</time></trkpt><trkpt lat="42.0515986" lon="13.4621494"><ele>703.0</ele><time>2026-05-02T14:35:11.03Z</time></trkpt><trkpt lat="42.0515508" lon="13.4620516"><ele>703.0</ele><time>2026-05-02T14:35:12.031Z</time></trkpt><trkpt lat="42.0514995" lon="13.4619518"><ele>703.0</ele><time>2026-05-02T14:35:13.031Z</time></trkpt><trkpt lat="42.0514489" lon="13.4618563"><ele>703.0</ele><time>2026-05-02T14:35:14.031Z</time></trkpt><trkpt lat="42.051393" lon="13.4617641"><ele>703.2</ele><time>2026-05-02T14:35:15.031Z</time></trkpt><trkpt lat="42.0513334" lon="13.4616605"><ele>703.4</ele><time>2026-05-02T14:35:16.031Z</time></trkpt><trkpt lat="42.0512752" lon="13.4615433"><ele>703.6</ele><time>2026-05-02T14:35:17.03Z</time></trkpt><trkpt lat="42.0512128" lon="13.461426"><ele>703.8000000000001</ele><time>2026-05-02T14:35:18.03Z</time></trkpt><trkpt lat="42.0511484" lon="13.4613055"><ele>704.0</ele><time>2026-05-02T14:35:19.031Z</time></trkpt><trkpt lat="42.051086" lon="13.461185"><ele>704.0</ele><time>2026-05-02T14:35:20.031Z</time></trkpt><trkpt lat="42.0510244" lon="13.4610616"><ele>704.0</ele><time>2026-05-02T14:35:21.03Z</time></trkpt><trkpt lat="42.0509614" lon="13.460944"><ele>704.0</ele><time>2026-05-02T14:35:22.03Z</time></trkpt><trkpt lat="42.0508942" lon="13.4608177"><ele>704.0</ele><time>2026-05-02T14:35:23.031Z</time></trkpt><trkpt lat="42.0508215" lon="13.4606846"><ele>704.0</ele><time>2026-05-02T14:35:24.03Z</time></trkpt><trkpt lat="42.0507461" lon="13.4605447"><ele>704.0</ele><time>2026-05-02T14:35:25.031Z</time></trkpt><trkpt lat="42.05067" lon="13.4604035"><ele>704.0</ele><time>2026-05-02T14:35:26.031Z</time></trkpt><trkpt lat="42.0505915" lon="13.4602513"><ele>704.0</ele><time>2026-05-02T14:35:27.031Z</time></trkpt><trkpt lat="42.0505116" lon="13.4600976"><ele>704.0</ele><time>2026-05-02T14:35:28.031Z</time></trkpt><trkpt lat="42.0504268" lon="13.4599438"><ele>704.0</ele><time>2026-05-02T14:35:29.031Z</time></trkpt><trkpt lat="42.0503385" lon="13.4597784"><ele>704.0</ele><time>2026-05-02T14:35:30.03Z</time></trkpt><trkpt lat="42.0502485" lon="13.4596022"><ele>704.3333333333333</ele><time>2026-05-02T14:35:31.031Z</time></trkpt><trkpt lat="42.050157" lon="13.4594345"><ele>704.6666666666666</ele><time>2026-05-02T14:35:32.031Z</time></trkpt><trkpt lat="42.0500658" lon="13.4592704"><ele>705.0</ele><time>2026-05-02T14:35:33.031Z</time></trkpt><trkpt lat="42.0499712" lon="13.459107"><ele>704.6666666666666</ele><time>2026-05-02T14:35:34.031Z</time></trkpt><trkpt lat="42.049877" lon="13.4589389"><ele>704.3333333333333</ele><time>2026-05-02T14:35:35.031Z</time></trkpt><trkpt lat="42.0497819" lon="13.4587632"><ele>704.0</ele><time>2026-05-02T14:35:36.031Z</time></trkpt><trkpt lat="42.0496841" lon="13.4585827"><ele>704.0</ele><time>2026-05-02T14:35:37.031Z</time></trkpt><trkpt lat="42.049587" lon="13.4584011"><ele>704.0</ele><time>2026-05-02T14:35:38.031Z</time></trkpt><trkpt lat="42.0494871" lon="13.4582292"><ele>704.0</ele><time>2026-05-02T14:35:39.031Z</time></trkpt><trkpt lat="42.0493923" lon="13.4580542"><ele>704.0</ele><time>2026-05-02T14:35:40.031Z</time></trkpt><trkpt lat="42.0492991" lon="13.4578828"><ele>704.0</ele><time>2026-05-02T14:35:41.031Z</time></trkpt><trkpt lat="42.0492069" lon="13.4577133"><ele>704.0</ele><time>2026-05-02T14:35:42.031Z</time></trkpt><trkpt lat="42.0491141" lon="13.4575428"><ele>704.0</ele><time>2026-05-02T14:35:43.031Z</time></trkpt><trkpt lat="42.0490217" lon="13.4573869"><ele>704.0</ele><time>2026-05-02T14:35:44.031Z</time></trkpt><trkpt lat="42.048937" lon="13.4572357"><ele>704.0</ele><time>2026-05-02T14:35:45.031Z</time></trkpt><trkpt lat="42.0488542" lon="13.4570748"><ele>704.0</ele><time>2026-05-02T14:35:46.03Z</time></trkpt><trkpt lat="42.0487713" lon="13.4569224"><ele>704.5</ele><time>2026-05-02T14:35:47.031Z</time></trkpt><trkpt lat="42.0486852" lon="13.4567606"><ele>705.0</ele><time>2026-05-02T14:35:48.031Z</time></trkpt><trkpt lat="42.0486032" lon="13.45661"><ele>705.5</ele><time>2026-05-02T14:35:49.031Z</time></trkpt><trkpt lat="42.0485281" lon="13.4564629"><ele>706.0</ele><time>2026-05-02T14:35:50.03Z</time></trkpt><trkpt lat="42.0484495" lon="13.4563231"><ele>706.0</ele><time>2026-05-02T14:35:51.03Z</time></trkpt><trkpt lat="42.0483683" lon="13.4561786"><ele>706.0</ele><time>2026-05-02T14:35:52.031Z</time></trkpt><trkpt lat="42.0482856" lon="13.4560292"><ele>706.0</ele><time>2026-05-02T14:35:53.031Z</time></trkpt><trkpt lat="42.048199" lon="13.4558761"><ele>706.0</ele><time>2026-05-02T14:35:54.031Z</time></trkpt><trkpt lat="42.0481129" lon="13.4557158"><ele>706.0</ele><time>2026-05-02T14:35:55.031Z</time></trkpt><trkpt lat="42.0480252" lon="13.4555573"><ele>706.0</ele><time>2026-05-02T14:35:56.031Z</time></trkpt><trkpt lat="42.0479391" lon="13.4553954"><ele>706.0</ele><time>2026-05-02T14:35:57.031Z</time></trkpt><trkpt lat="42.0478501" lon="13.4552309"><ele>706.0</ele><time>2026-05-02T14:35:58.03Z</time></trkpt><trkpt lat="42.047761" lon="13.4550676"><ele>706.0</ele><time>2026-05-02T14:35:59.031Z</time></trkpt><trkpt lat="42.047673" lon="13.4549053"><ele>706.0</ele><time>2026-05-02T14:36:00.031Z</time></trkpt><trkpt lat="42.0475869" lon="13.45474"><ele>706.0</ele><time>2026-05-02T14:36:01.031Z</time></trkpt><trkpt lat="42.0475" lon="13.454579"><ele>706.0</ele><time>2026-05-02T14:36:02.031Z</time></trkpt><trkpt lat="42.047412" lon="13.4544205"><ele>705.6666666666667</ele><time>2026-05-02T14:36:03.03Z</time></trkpt><trkpt lat="42.0473214" lon="13.4542633"><ele>705.3333333333334</ele><time>2026-05-02T14:36:04.031Z</time></trkpt><trkpt lat="42.0472326" lon="13.4541002"><ele>705.0</ele><time>2026-05-02T14:36:05.031Z</time></trkpt><trkpt lat="42.0471448" lon="13.4539306"><ele>705.0</ele><time>2026-05-02T14:36:06.031Z</time></trkpt><trkpt lat="42.0470542" lon="13.4537611"><ele>705.0</ele><time>2026-05-02T14:36:07.031Z</time></trkpt><trkpt lat="42.0469555" lon="13.4535956"><ele>705.0</ele><time>2026-05-02T14:36:08.03Z</time></trkpt><trkpt lat="42.0468596" lon="13.4534288"><ele>705.0</ele><time>2026-05-02T14:36:09.03Z</time></trkpt><trkpt lat="42.0467592" lon="13.4532588"><ele>705.0</ele><time>2026-05-02T14:36:10.031Z</time></trkpt><trkpt lat="42.0466661" lon="13.4530759"><ele>705.0</ele><time>2026-05-02T14:36:11.031Z</time></trkpt><trkpt lat="42.0465724" lon="13.4529021"><ele>704.6666666666666</ele><time>2026-05-02T14:36:12.03Z</time></trkpt><trkpt lat="42.0464786" lon="13.4527276"><ele>704.3333333333333</ele><time>2026-05-02T14:36:13.03Z</time></trkpt><trkpt lat="42.0463884" lon="13.452555"><ele>704.0</ele><time>2026-05-02T14:36:14.031Z</time></trkpt><trkpt lat="42.0463007" lon="13.4523866"><ele>704.0</ele><time>2026-05-02T14:36:15.031Z</time></trkpt><trkpt lat="42.046209" lon="13.4522227"><ele>704.0</ele><time>2026-05-02T14:36:16.031Z</time></trkpt><trkpt lat="42.0461169" lon="13.4520618"><ele>704.0</ele><time>2026-05-02T14:36:17.031Z</time></trkpt><trkpt lat="42.0460295" lon="13.4518986"><ele>704.0</ele><time>2026-05-02T14:36:18.031Z</time></trkpt><trkpt lat="42.0459426" lon="13.451738"><ele>704.0</ele><time>2026-05-02T14:36:19.031Z</time></trkpt><trkpt lat="42.0458524" lon="13.4515885"><ele>704.0</ele><time>2026-05-02T14:36:20.031Z</time></trkpt><trkpt lat="42.045765" lon="13.4514283"><ele>704.0</ele><time>2026-05-02T14:36:21.03Z</time></trkpt><trkpt lat="42.0456809" lon="13.4512673"><ele>703.5</ele><time>2026-05-02T14:36:22.031Z</time></trkpt><trkpt lat="42.0455987" lon="13.4511116"><ele>703.0</ele><time>2026-05-02T14:36:23.031Z</time></trkpt><trkpt lat="42.0455161" lon="13.4509566"><ele>702.5</ele><time>2026-05-02T14:36:24.031Z</time></trkpt><trkpt lat="42.0454378" lon="13.4508014"><ele>702.0</ele><time>2026-05-02T14:36:25.031Z</time></trkpt><trkpt lat="42.0453578" lon="13.4506597"><ele>702.0</ele><time>2026-05-02T14:36:26.031Z</time></trkpt><trkpt lat="42.0452767" lon="13.4505163"><ele>702.0</ele><time>2026-05-02T14:36:27.031Z</time></trkpt><trkpt lat="42.0452035" lon="13.4503786"><ele>702.0</ele><time>2026-05-02T14:36:28.031Z</time></trkpt><trkpt lat="42.0451397" lon="13.4502512"><ele>702.0</ele><time>2026-05-02T14:36:29.031Z</time></trkpt><trkpt lat="42.0450781" lon="13.4501287"><ele>701.8333333333334</ele><time>2026-05-02T14:36:30.031Z</time></trkpt><trkpt lat="42.0450239" lon="13.4500254"><ele>701.6666666666666</ele><time>2026-05-02T14:36:31.031Z</time></trkpt><trkpt lat="42.0449744" lon="13.4499336"><ele>701.5</ele><time>2026-05-02T14:36:32.031Z</time></trkpt><trkpt lat="42.0449268" lon="13.4498554"><ele>701.3333333333333</ele><time>2026-05-02T14:36:33.03Z</time></trkpt><trkpt lat="42.04489" lon="13.449781"><ele>701.1666666666666</ele><time>2026-05-02T14:36:34.031Z</time></trkpt><trkpt lat="42.0448389" lon="13.4496515"><ele>701.0</ele><time>2026-05-02T14:36:36.031Z</time></trkpt><trkpt lat="42.044822" lon="13.4495465"><ele>701.0</ele><time>2026-05-02T14:36:38.03Z</time></trkpt><trkpt lat="42.044782" lon="13.4494311"><ele>701.0</ele><time>2026-05-02T14:36:40.031Z</time></trkpt><trkpt lat="42.0447007" lon="13.4493424"><ele>701.0</ele><time>2026-05-02T14:36:42.031Z</time></trkpt><trkpt lat="42.0446003" lon="13.4492243"><ele>701.0</ele><time>2026-05-02T14:36:44.031Z</time></trkpt><trkpt lat="42.044549" lon="13.4491489"><ele>701.0</ele><time>2026-05-02T14:36:45.031Z</time></trkpt><trkpt lat="42.0444955" lon="13.4490682"><ele>701.0</ele><time>2026-05-02T14:36:46.03Z</time></trkpt><trkpt lat="42.0444504" lon="13.4489766"><ele>701.0</ele><time>2026-05-02T14:36:47.031Z</time></trkpt><trkpt lat="42.0443994" lon="13.4488841"><ele>701.0</ele><time>2026-05-02T14:36:48.031Z</time></trkpt><trkpt lat="42.0443375" lon="13.448791"><ele>701.0</ele><time>2026-05-02T14:36:49.031Z</time></trkpt><trkpt lat="42.0442704" lon="13.4486828"><ele>701.0</ele><time>2026-05-02T14:36:50.03Z</time></trkpt><trkpt lat="42.0442071" lon="13.4485746"><ele>701.1999999999999</ele><time>2026-05-02T14:36:51.031Z</time></trkpt><trkpt lat="42.0441475" lon="13.448474"><ele>701.4</ele><time>2026-05-02T14:36:52.03Z</time></trkpt><trkpt lat="42.0440924" lon="13.4483684"><ele>701.6</ele><time>2026-05-02T14:36:53.031Z</time></trkpt><trkpt lat="42.0440324" lon="13.4482603"><ele>701.8</ele><time>2026-05-02T14:36:54.031Z</time></trkpt><trkpt lat="42.0439728" lon="13.4481522"><ele>702.0</ele><time>2026-05-02T14:36:55.031Z</time></trkpt><trkpt lat="42.0439071" lon="13.4480282"><ele>702.25</ele><time>2026-05-02T14:36:56.031Z</time></trkpt><trkpt lat="42.0438248" lon="13.4478786"><ele>702.5</ele><time>2026-05-02T14:36:57.03Z</time></trkpt><trkpt lat="42.0437423" lon="13.4477251"><ele>702.75</ele><time>2026-05-02T14:36:58.03Z</time></trkpt><trkpt lat="42.0436615" lon="13.4475722"><ele>703.0</ele><time>2026-05-02T14:36:59.031Z</time></trkpt><trkpt lat="42.0435831" lon="13.447428"><ele>703.0</ele><time>2026-05-02T14:37:00.03Z</time></trkpt><trkpt lat="42.0435062" lon="13.4472908"><ele>703.0</ele><time>2026-05-02T14:37:01.031Z</time></trkpt><trkpt lat="42.0434318" lon="13.4471567"><ele>703.0</ele><time>2026-05-02T14:37:02.031Z</time></trkpt><trkpt lat="42.0433645" lon="13.447032"><ele>703.0</ele><time>2026-05-02T14:37:03.031Z</time></trkpt><trkpt lat="42.0432999" lon="13.4469107"><ele>703.0</ele><time>2026-05-02T14:37:04.031Z</time></trkpt><trkpt lat="42.0432406" lon="13.446802"><ele>703.0</ele><time>2026-05-02T14:37:05.031Z</time></trkpt><trkpt lat="42.0431882" lon="13.4467004"><ele>703.0</ele><time>2026-05-02T14:37:06.03Z</time></trkpt><trkpt lat="42.0431358" lon="13.4466066"><ele>703.0</ele><time>2026-05-02T14:37:07.031Z</time></trkpt><trkpt lat="42.0430876" lon="13.446511"><ele>703.0</ele><time>2026-05-02T14:37:08.031Z</time></trkpt><trkpt lat="42.0430465" lon="13.4464125"><ele>703.0</ele><time>2026-05-02T14:37:09.031Z</time></trkpt><trkpt lat="42.0429996" lon="13.4463177"><ele>702.6666666666667</ele><time>2026-05-02T14:37:10.031Z</time></trkpt><trkpt lat="42.042949" lon="13.4462299"><ele>702.3333333333334</ele><time>2026-05-02T14:37:11.031Z</time></trkpt><trkpt lat="42.0428938" lon="13.4461361"><ele>702.0</ele><time>2026-05-02T14:37:12.031Z</time></trkpt><trkpt lat="42.0428435" lon="13.4460461"><ele>701.6666666666666</ele><time>2026-05-02T14:37:13.031Z</time></trkpt><trkpt lat="42.0427978" lon="13.445967"><ele>701.3333333333333</ele><time>2026-05-02T14:37:14.031Z</time></trkpt><trkpt lat="42.0427563" lon="13.4458846"><ele>701.0</ele><time>2026-05-02T14:37:15.031Z</time></trkpt><trkpt lat="42.0427188" lon="13.4458063"><ele>701.0</ele><time>2026-05-02T14:37:16.03Z</time></trkpt><trkpt lat="42.0426761" lon="13.4457376"><ele>701.0</ele><time>2026-05-02T14:37:17.031Z</time></trkpt><trkpt lat="42.0426386" lon="13.4456641"><ele>701.0</ele><time>2026-05-02T14:37:18.031Z</time></trkpt><trkpt lat="42.0426027" lon="13.4455944"><ele>701.0</ele><time>2026-05-02T14:37:19.031Z</time></trkpt><trkpt lat="42.0425644" lon="13.4455248"><ele>701.0</ele><time>2026-05-02T14:37:20.031Z</time></trkpt><trkpt lat="42.0425264" lon="13.4454513"><ele>701.0</ele><time>2026-05-02T14:37:21.031Z</time></trkpt><trkpt lat="42.0424837" lon="13.445371"><ele>701.0</ele><time>2026-05-02T14:37:22.031Z</time></trkpt><trkpt lat="42.0424452" lon="13.4452917"><ele>700.6666666666666</ele><time>2026-05-02T14:37:23.031Z</time></trkpt><trkpt lat="42.0423953" lon="13.4452074"><ele>700.3333333333333</ele><time>2026-05-02T14:37:24.03Z</time></trkpt><trkpt lat="42.0423571" lon="13.4451191"><ele>700.0</ele><time>2026-05-02T14:37:25.031Z</time></trkpt><trkpt lat="42.0423101" lon="13.4450412"><ele>699.6666666666666</ele><time>2026-05-02T14:37:26.031Z</time></trkpt><trkpt lat="42.0422613" lon="13.4449604"><ele>699.3333333333334</ele><time>2026-05-02T14:37:27.031Z</time></trkpt><trkpt lat="42.0422131" lon="13.4448732"><ele>699.0</ele><time>2026-05-02T14:37:28.031Z</time></trkpt><trkpt lat="42.0421643" lon="13.4447787"><ele>699.0</ele><time>2026-05-02T14:37:29.031Z</time></trkpt><trkpt lat="42.0421076" lon="13.4446889"><ele>699.0</ele><time>2026-05-02T14:37:30.031Z</time></trkpt><trkpt lat="42.0420565" lon="13.4445951"><ele>699.0</ele><time>2026-05-02T14:37:31.031Z</time></trkpt><trkpt lat="42.0420163" lon="13.4445008"><ele>699.0</ele><time>2026-05-02T14:37:32.031Z</time></trkpt><trkpt lat="42.0419721" lon="13.4444193"><ele>699.0</ele><time>2026-05-02T14:37:33.031Z</time></trkpt><trkpt lat="42.0419299" lon="13.4443398"><ele>699.0</ele><time>2026-05-02T14:37:34.031Z</time></trkpt><trkpt lat="42.0418895" lon="13.4442633"><ele>698.8333333333334</ele><time>2026-05-02T14:37:35.031Z</time></trkpt><trkpt lat="42.0418151" lon="13.44413"><ele>698.6666666666666</ele><time>2026-05-02T14:37:37.031Z</time></trkpt><trkpt lat="42.041771" lon="13.4440549"><ele>698.5</ele><time>2026-05-02T14:37:38.031Z</time></trkpt><trkpt lat="42.041725" lon="13.4439739"><ele>698.3333333333333</ele><time>2026-05-02T14:37:39.031Z</time></trkpt><trkpt lat="42.041676" lon="13.4438803"><ele>698.1666666666666</ele><time>2026-05-02T14:37:40.031Z</time></trkpt><trkpt lat="42.0416268" lon="13.4437849"><ele>698.0</ele><time>2026-05-02T14:37:41.031Z</time></trkpt><trkpt lat="42.0415644" lon="13.4436929"><ele>697.8</ele><time>2026-05-02T14:37:42.031Z</time></trkpt><trkpt lat="42.0414962" lon="13.4435939"><ele>697.5999999999999</ele><time>2026-05-02T14:37:43.03Z</time></trkpt><trkpt lat="42.0414294" lon="13.4434864"><ele>697.4000000000001</ele><time>2026-05-02T14:37:44.03Z</time></trkpt><trkpt lat="42.0413687" lon="13.4433759"><ele>697.2</ele><time>2026-05-02T14:37:45.031Z</time></trkpt><trkpt lat="42.0413158" lon="13.4432737"><ele>697.0</ele><time>2026-05-02T14:37:46.03Z</time></trkpt><trkpt lat="42.0412773" lon="13.4431734"><ele>697.0</ele><time>2026-05-02T14:37:47.031Z</time></trkpt><trkpt lat="42.0412334" lon="13.4430971"><ele>697.0</ele><time>2026-05-02T14:37:48.031Z</time></trkpt><trkpt lat="42.041194" lon="13.4430203"><ele>697.0</ele><time>2026-05-02T14:37:49.031Z</time></trkpt><trkpt lat="42.0411539" lon="13.4429485"><ele>697.0</ele><time>2026-05-02T14:37:50.031Z</time></trkpt><trkpt lat="42.0411183" lon="13.4428776"><ele>697.0</ele><time>2026-05-02T14:37:51.031Z</time></trkpt><trkpt lat="42.0410809" lon="13.4428035"><ele>697.0</ele><time>2026-05-02T14:37:52.031Z</time></trkpt><trkpt lat="42.0410431" lon="13.4427288"><ele>697.0</ele><time>2026-05-02T14:37:53.031Z</time></trkpt><trkpt lat="42.0410047" lon="13.4426559"><ele>697.0</ele><time>2026-05-02T14:37:54.031Z</time></trkpt><trkpt lat="42.0409603" lon="13.4425889"><ele>697.0</ele><time>2026-05-02T14:37:55.03Z</time></trkpt><trkpt lat="42.0409226" lon="13.442515"><ele>697.0</ele><time>2026-05-02T14:37:56.031Z</time></trkpt><trkpt lat="42.0408851" lon="13.4424395"><ele>697.0</ele><time>2026-05-02T14:37:57.03Z</time></trkpt><trkpt lat="42.040841" lon="13.4423612"><ele>697.0</ele><time>2026-05-02T14:37:58.031Z</time></trkpt><trkpt lat="42.0407979" lon="13.4422789"><ele>697.0</ele><time>2026-05-02T14:37:59.031Z</time></trkpt><trkpt lat="42.040757" lon="13.4421887"><ele>697.0</ele><time>2026-05-02T14:38:00.031Z</time></trkpt><trkpt lat="42.0407153" lon="13.4420963"><ele>696.0</ele><time>2026-05-02T14:38:01.031Z</time></trkpt><trkpt lat="42.0406752" lon="13.4420213"><ele>695.0</ele><time>2026-05-02T14:38:02.031Z</time></trkpt><trkpt lat="42.0406388" lon="13.4419499"><ele>694.0</ele><time>2026-05-02T14:38:03.031Z</time></trkpt><trkpt lat="42.0405972" lon="13.4418781"><ele>693.0</ele><time>2026-05-02T14:38:04.03Z</time></trkpt><trkpt lat="42.0405564" lon="13.4418043"><ele>692.0</ele><time>2026-05-02T14:38:05.031Z</time></trkpt><trkpt lat="42.040516" lon="13.441731"><ele>691.0</ele><time>2026-05-02T14:38:06.031Z</time></trkpt><trkpt lat="42.0404397" lon="13.4415921"><ele>691.0</ele><time>2026-05-02T14:38:08.031Z</time></trkpt><trkpt lat="42.0403971" lon="13.4415125"><ele>691.0</ele><time>2026-05-02T14:38:09.031Z</time></trkpt><trkpt lat="42.0403556" lon="13.441428"><ele>691.0</ele><time>2026-05-02T14:38:10.031Z</time></trkpt><trkpt lat="42.0403142" lon="13.441348"><ele>691.0</ele><time>2026-05-02T14:38:11.03Z</time></trkpt><trkpt lat="42.0402759" lon="13.4412717"><ele>691.0</ele><time>2026-05-02T14:38:12.031Z</time></trkpt><trkpt lat="42.0402238" lon="13.4411784"><ele>691.0</ele><time>2026-05-02T14:38:14.031Z</time></trkpt><trkpt lat="42.0401699" lon="13.4410815"><ele>691.0</ele><time>2026-05-02T14:38:17.03Z</time></trkpt><trkpt lat="42.0401288" lon="13.4410128"><ele>691.0</ele><time>2026-05-02T14:38:19.031Z</time></trkpt><trkpt lat="42.0400802" lon="13.4409163"><ele>691.0</ele><time>2026-05-02T14:38:21.031Z</time></trkpt><trkpt lat="42.0400344" lon="13.4408104"><ele>691.0</ele><time>2026-05-02T14:38:23.031Z</time></trkpt><trkpt lat="42.0399675" lon="13.4406941"><ele>691.0</ele><time>2026-05-02T14:38:25.031Z</time></trkpt><trkpt lat="42.0398912" lon="13.4405637"><ele>690.5</ele><time>2026-05-02T14:38:27.03Z</time></trkpt><trkpt lat="42.0398479" lon="13.4404914"><ele>690.0</ele><time>2026-05-02T14:38:28.031Z</time></trkpt><trkpt lat="42.0398097" lon="13.4404186"><ele>689.5</ele><time>2026-05-02T14:38:29.031Z</time></trkpt><trkpt lat="42.0397553" lon="13.4403106"><ele>689.0</ele><time>2026-05-02T14:38:31.031Z</time></trkpt><trkpt lat="42.0397151" lon="13.440242"><ele>688.5</ele><time>2026-05-02T14:38:34.031Z</time></trkpt><trkpt lat="42.0396599" lon="13.4401663"><ele>688.0</ele><time>2026-05-02T14:38:38.031Z</time></trkpt><trkpt lat="42.0396014" lon="13.4400887"><ele>688.0</ele><time>2026-05-02T14:38:42.031Z</time></trkpt><trkpt lat="42.0395433" lon="13.4399658"><ele>688.0</ele><time>2026-05-02T14:38:44.031Z</time></trkpt><trkpt lat="42.0394991" lon="13.4398201"><ele>688.0</ele><time>2026-05-02T14:38:46.03Z</time></trkpt><trkpt lat="42.0394596" lon="13.4396623"><ele>688.0</ele><time>2026-05-02T14:38:48.031Z</time></trkpt><trkpt lat="42.0394238" lon="13.4395743"><ele>688.0</ele><time>2026-05-02T14:38:49.03Z</time></trkpt><trkpt lat="42.0393887" lon="13.439486"><ele>688.3333333333334</ele><time>2026-05-02T14:38:50.031Z</time></trkpt><trkpt lat="42.03935" lon="13.4394044"><ele>688.6666666666667</ele><time>2026-05-02T14:38:51.03Z</time></trkpt><trkpt lat="42.0393114" lon="13.4393213"><ele>689.0</ele><time>2026-05-02T14:38:52.031Z</time></trkpt><trkpt lat="42.03928" lon="13.43924"><ele>689.3333333333334</ele><time>2026-05-02T14:38:53.031Z</time></trkpt><trkpt lat="42.0392481" lon="13.4391593"><ele>689.6666666666666</ele><time>2026-05-02T14:38:54.031Z</time></trkpt><trkpt lat="42.0392016" lon="13.43907"><ele>690.0</ele><time>2026-05-02T14:38:55.031Z</time></trkpt><trkpt lat="42.0391477" lon="13.438951"><ele>689.5</ele><time>2026-05-02T14:38:56.031Z</time></trkpt><trkpt lat="42.0390946" lon="13.4388044"><ele>689.0</ele><time>2026-05-02T14:38:57.031Z</time></trkpt><trkpt lat="42.0390425" lon="13.4386525"><ele>688.5</ele><time>2026-05-02T14:38:58.031Z</time></trkpt><trkpt lat="42.0389871" lon="13.4385148"><ele>688.0</ele><time>2026-05-02T14:38:59.031Z</time></trkpt><trkpt lat="42.0389302" lon="13.4383739"><ele>687.8</ele><time>2026-05-02T14:39:00.031Z</time></trkpt><trkpt lat="42.0388826" lon="13.4382359"><ele>687.5999999999999</ele><time>2026-05-02T14:39:01.03Z</time></trkpt><trkpt lat="42.038831" lon="13.4380969"><ele>687.4000000000001</ele><time>2026-05-02T14:39:02.031Z</time></trkpt><trkpt lat="42.0387762" lon="13.4379662"><ele>687.2</ele><time>2026-05-02T14:39:03.031Z</time></trkpt><trkpt lat="42.0387247" lon="13.4378377"><ele>687.0</ele><time>2026-05-02T14:39:04.031Z</time></trkpt><trkpt lat="42.0386713" lon="13.4377094"><ele>687.0</ele><time>2026-05-02T14:39:05.03Z</time></trkpt><trkpt lat="42.0386205" lon="13.4375748"><ele>687.0</ele><time>2026-05-02T14:39:06.03Z</time></trkpt><trkpt lat="42.0385753" lon="13.4374506"><ele>687.0</ele><time>2026-05-02T14:39:07.031Z</time></trkpt><trkpt lat="42.0385241" lon="13.4373352"><ele>687.0</ele><time>2026-05-02T14:39:08.031Z</time></trkpt><trkpt lat="42.0384814" lon="13.4372284"><ele>687.0</ele><time>2026-05-02T14:39:09.031Z</time></trkpt><trkpt lat="42.0384418" lon="13.437135"><ele>687.1666666666666</ele><time>2026-05-02T14:39:10.031Z</time></trkpt><trkpt lat="42.0384053" lon="13.4370545"><ele>687.3333333333334</ele><time>2026-05-02T14:39:11.031Z</time></trkpt><trkpt lat="42.0383708" lon="13.436975"><ele>687.5</ele><time>2026-05-02T14:39:12.03Z</time></trkpt><trkpt lat="42.0383128" lon="13.4368286"><ele>687.6666666666667</ele><time>2026-05-02T14:39:14.03Z</time></trkpt><trkpt lat="42.0382633" lon="13.4366883"><ele>687.8333333333334</ele><time>2026-05-02T14:39:16.031Z</time></trkpt><trkpt lat="42.0382297" lon="13.4366097"><ele>688.0</ele><time>2026-05-02T14:39:17.031Z</time></trkpt><trkpt lat="42.038188" lon="13.4365267"><ele>688.0</ele><time>2026-05-02T14:39:18.031Z</time></trkpt><trkpt lat="42.0381494" lon="13.4364356"><ele>688.0</ele><time>2026-05-02T14:39:19.031Z</time></trkpt><trkpt lat="42.0381077" lon="13.4363448"><ele>688.0</ele><time>2026-05-02T14:39:20.031Z</time></trkpt><trkpt lat="42.0380694" lon="13.43625"><ele>688.0</ele><time>2026-05-02T14:39:21.031Z</time></trkpt><trkpt lat="42.0380372" lon="13.436164"><ele>688.0</ele><time>2026-05-02T14:39:22.031Z</time></trkpt><trkpt lat="42.0380057" lon="13.4360777"><ele>688.0</ele><time>2026-05-02T14:39:23.031Z</time></trkpt><trkpt lat="42.0379766" lon="13.4359889"><ele>688.1666666666667</ele><time>2026-05-02T14:39:24.031Z</time></trkpt><trkpt lat="42.0379432" lon="13.4359109"><ele>688.3333333333334</ele><time>2026-05-02T14:39:25.031Z</time></trkpt><trkpt lat="42.0379073" lon="13.4358338"><ele>688.5</ele><time>2026-05-02T14:39:26.031Z</time></trkpt><trkpt lat="42.0378697" lon="13.4357581"><ele>688.6666666666666</ele><time>2026-05-02T14:39:27.031Z</time></trkpt><trkpt lat="42.0378" lon="13.4356098"><ele>688.8333333333333</ele><time>2026-05-02T14:39:29.031Z</time></trkpt><trkpt lat="42.0377668" lon="13.4355292"><ele>689.0</ele><time>2026-05-02T14:39:30.03Z</time></trkpt><trkpt lat="42.0377275" lon="13.4354511"><ele>689.0</ele><time>2026-05-02T14:39:31.031Z</time></trkpt><trkpt lat="42.0376919" lon="13.4353695"><ele>689.0</ele><time>2026-05-02T14:39:32.031Z</time></trkpt><trkpt lat="42.0376585" lon="13.4352747"><ele>689.0</ele><time>2026-05-02T14:39:33.031Z</time></trkpt><trkpt lat="42.0376196" lon="13.4351797"><ele>689.0</ele><time>2026-05-02T14:39:34.031Z</time></trkpt><trkpt lat="42.0375816" lon="13.4350903"><ele>689.0</ele><time>2026-05-02T14:39:35.031Z</time></trkpt><trkpt lat="42.0375488" lon="13.4349935"><ele>689.0</ele><time>2026-05-02T14:39:36.031Z</time></trkpt><trkpt lat="42.0375133" lon="13.4349189"><ele>689.0</ele><time>2026-05-02T14:39:37.031Z</time></trkpt><trkpt lat="42.037451" lon="13.4347846"><ele>689.0</ele><time>2026-05-02T14:39:39.031Z</time></trkpt><trkpt lat="42.0374061" lon="13.4346842"><ele>689.0</ele><time>2026-05-02T14:39:41.031Z</time></trkpt><trkpt lat="42.0373693" lon="13.4345814"><ele>689.0</ele><time>2026-05-02T14:39:43.031Z</time></trkpt><trkpt lat="42.0373405" lon="13.4345017"><ele>689.0</ele><time>2026-05-02T14:39:45.03Z</time></trkpt><trkpt lat="42.0372866" lon="13.4343767"><ele>689.0</ele><time>2026-05-02T14:39:47.03Z</time></trkpt><trkpt lat="42.0372528" lon="13.4342869"><ele>689.0</ele><time>2026-05-02T14:39:48.03Z</time></trkpt><trkpt lat="42.0372184" lon="13.4342114"><ele>689.0</ele><time>2026-05-02T14:39:49.031Z</time></trkpt><trkpt lat="42.0371613" lon="13.4340576"><ele>689.0</ele><time>2026-05-02T14:39:51.031Z</time></trkpt><trkpt lat="42.0371342" lon="13.433981"><ele>689.0</ele><time>2026-05-02T14:39:52.03Z</time></trkpt><trkpt lat="42.0370655" lon="13.4338277"><ele>689.2</ele><time>2026-05-02T14:39:54.031Z</time></trkpt><trkpt lat="42.0370342" lon="13.4337454"><ele>689.4000000000001</ele><time>2026-05-02T14:39:55.031Z</time></trkpt><trkpt lat="42.0369741" lon="13.4336054"><ele>689.6</ele><time>2026-05-02T14:39:57.031Z</time></trkpt><trkpt lat="42.0369166" lon="13.433467"><ele>689.8</ele><time>2026-05-02T14:39:59.031Z</time></trkpt><trkpt lat="42.0368764" lon="13.4333759"><ele>690.0</ele><time>2026-05-02T14:40:00.031Z</time></trkpt><trkpt lat="42.0368429" lon="13.4332744"><ele>690.0</ele><time>2026-05-02T14:40:01.031Z</time></trkpt><trkpt lat="42.0368091" lon="13.4331808"><ele>690.0</ele><time>2026-05-02T14:40:02.031Z</time></trkpt><trkpt lat="42.0367699" lon="13.4330967"><ele>690.0</ele><time>2026-05-02T14:40:03.031Z</time></trkpt><trkpt lat="42.0367314" lon="13.4330093"><ele>690.0</ele><time>2026-05-02T14:40:04.031Z</time></trkpt><trkpt lat="42.0366742" lon="13.4328588"><ele>690.0</ele><time>2026-05-02T14:40:06.031Z</time></trkpt><trkpt lat="42.0366321" lon="13.4327449"><ele>690.0</ele><time>2026-05-02T14:40:08.031Z</time></trkpt><trkpt lat="42.0365636" lon="13.4325908"><ele>690.0</ele><time>2026-05-02T14:40:10.031Z</time></trkpt><trkpt lat="42.0365146" lon="13.4324789"><ele>690.0</ele><time>2026-05-02T14:40:11.031Z</time></trkpt><trkpt lat="42.0364701" lon="13.432366"><ele>690.0</ele><time>2026-05-02T14:40:12.031Z</time></trkpt><trkpt lat="42.0364159" lon="13.4322454"><ele>690.0</ele><time>2026-05-02T14:40:13.031Z</time></trkpt><trkpt lat="42.0363539" lon="13.4321221"><ele>690.0</ele><time>2026-05-02T14:40:14.031Z</time></trkpt><trkpt lat="42.0362801" lon="13.4319951"><ele>690.0</ele><time>2026-05-02T14:40:15.031Z</time></trkpt><trkpt lat="42.0362039" lon="13.43188"><ele>690.0</ele><time>2026-05-02T14:40:16.03Z</time></trkpt><trkpt lat="42.036137" lon="13.4317839"><ele>690.0</ele><time>2026-05-02T14:40:17.031Z</time></trkpt><trkpt lat="42.0360701" lon="13.4316944"><ele>690.0</ele><time>2026-05-02T14:40:18.031Z</time></trkpt><trkpt lat="42.0360141" lon="13.4316198"><ele>690.0</ele><time>2026-05-02T14:40:19.031Z</time></trkpt><trkpt lat="42.0359643" lon="13.4314927"><ele>690.0</ele><time>2026-05-02T14:40:21.031Z</time></trkpt><trkpt lat="42.0358883" lon="13.4313921"><ele>690.0</ele><time>2026-05-02T14:40:23.031Z</time></trkpt><trkpt lat="42.0358256" lon="13.4313667"><ele>690.0</ele><time>2026-05-02T14:40:24.031Z</time></trkpt><trkpt lat="42.0357445" lon="13.431327"><ele>690.0</ele><time>2026-05-02T14:40:25.031Z</time></trkpt><trkpt lat="42.0356725" lon="13.4312548"><ele>690.0</ele><time>2026-05-02T14:40:26.031Z</time></trkpt><trkpt lat="42.0355923" lon="13.4311529"><ele>690.25</ele><time>2026-05-02T14:40:27.031Z</time></trkpt><trkpt lat="42.0355068" lon="13.4310393"><ele>690.5</ele><time>2026-05-02T14:40:28.031Z</time></trkpt><trkpt lat="42.0354209" lon="13.4309378"><ele>690.75</ele><time>2026-05-02T14:40:29.031Z</time></trkpt><trkpt lat="42.0353398" lon="13.4308423"><ele>691.0</ele><time>2026-05-02T14:40:30.031Z</time></trkpt><trkpt lat="42.0352514" lon="13.4307467"><ele>691.0</ele><time>2026-05-02T14:40:31.03Z</time></trkpt><trkpt lat="42.035163" lon="13.4306476"><ele>691.0</ele><time>2026-05-02T14:40:32.031Z</time></trkpt><trkpt lat="42.0350718" lon="13.4305594"><ele>691.0</ele><time>2026-05-02T14:40:33.031Z</time></trkpt><trkpt lat="42.0349805" lon="13.4304789"><ele>691.0</ele><time>2026-05-02T14:40:34.031Z</time></trkpt><trkpt lat="42.0348881" lon="13.4304072"><ele>691.0</ele><time>2026-05-02T14:40:35.031Z</time></trkpt><trkpt lat="42.0347976" lon="13.4303398"><ele>691.0</ele><time>2026-05-02T14:40:36.031Z</time></trkpt><trkpt lat="42.0347075" lon="13.4302714"><ele>691.0</ele><time>2026-05-02T14:40:37.031Z</time></trkpt><trkpt lat="42.0346187" lon="13.4302022"><ele>691.0</ele><time>2026-05-02T14:40:38.03Z</time></trkpt><trkpt lat="42.0345283" lon="13.4301397"><ele>691.0</ele><time>2026-05-02T14:40:39.031Z</time></trkpt><trkpt lat="42.0344379" lon="13.4300735"><ele>691.0</ele><time>2026-05-02T14:40:40.031Z</time></trkpt><trkpt lat="42.0343484" lon="13.4300054"><ele>691.0</ele><time>2026-05-02T14:40:41.031Z</time></trkpt><trkpt lat="42.0342667" lon="13.4299451"><ele>691.0</ele><time>2026-05-02T14:40:42.03Z</time></trkpt><trkpt lat="42.0341878" lon="13.4298883"><ele>691.0</ele><time>2026-05-02T14:40:43.03Z</time></trkpt><trkpt lat="42.0341157" lon="13.4298287"><ele>691.0</ele><time>2026-05-02T14:40:44.031Z</time></trkpt><trkpt lat="42.034053" lon="13.4297742"><ele>691.0</ele><time>2026-05-02T14:40:45.031Z</time></trkpt><trkpt lat="42.0339957" lon="13.4297226"><ele>691.0</ele><time>2026-05-02T14:40:46.031Z</time></trkpt><trkpt lat="42.0339502" lon="13.4296609"><ele>690.8333333333334</ele><time>2026-05-02T14:40:47.031Z</time></trkpt><trkpt lat="42.0338616" lon="13.4295514"><ele>690.6666666666667</ele><time>2026-05-02T14:40:49.031Z</time></trkpt><trkpt lat="42.0337966" lon="13.429516"><ele>690.5</ele><time>2026-05-02T14:40:50.031Z</time></trkpt><trkpt lat="42.0337216" lon="13.4294943"><ele>690.3333333333334</ele><time>2026-05-02T14:40:51.031Z</time></trkpt><trkpt lat="42.0336503" lon="13.4294661"><ele>690.1666666666666</ele><time>2026-05-02T14:40:52.031Z</time></trkpt><trkpt lat="42.0335819" lon="13.4294302"><ele>690.0</ele><time>2026-05-02T14:40:53.03Z</time></trkpt><trkpt lat="42.0335122" lon="13.4293863"><ele>690.0</ele><time>2026-05-02T14:40:54.031Z</time></trkpt><trkpt lat="42.0334353" lon="13.4293366"><ele>690.0</ele><time>2026-05-02T14:40:55.031Z</time></trkpt><trkpt lat="42.0333532" lon="13.4292742"><ele>690.0</ele><time>2026-05-02T14:40:56.031Z</time></trkpt><trkpt lat="42.0332678" lon="13.4292098"><ele>690.0</ele><time>2026-05-02T14:40:57.031Z</time></trkpt><trkpt lat="42.0331804" lon="13.4291464"><ele>690.0</ele><time>2026-05-02T14:40:58.031Z</time></trkpt><trkpt lat="42.033094" lon="13.4290835"><ele>689.6666666666666</ele><time>2026-05-02T14:40:59.031Z</time></trkpt><trkpt lat="42.0330099" lon="13.4290201"><ele>689.3333333333334</ele><time>2026-05-02T14:41:00.031Z</time></trkpt><trkpt lat="42.0329327" lon="13.4289623"><ele>689.0</ele><time>2026-05-02T14:41:01.03Z</time></trkpt><trkpt lat="42.0328603" lon="13.4289093"><ele>688.6666666666667</ele><time>2026-05-02T14:41:02.031Z</time></trkpt><trkpt lat="42.0327852" lon="13.428858"><ele>688.3333333333334</ele><time>2026-05-02T14:41:03.031Z</time></trkpt><trkpt lat="42.0327085" lon="13.4288029"><ele>688.0</ele><time>2026-05-02T14:41:04.031Z</time></trkpt><trkpt lat="42.0326306" lon="13.4287436"><ele>688.0</ele><time>2026-05-02T14:41:05.031Z</time></trkpt><trkpt lat="42.0325557" lon="13.4286876"><ele>688.0</ele><time>2026-05-02T14:41:06.03Z</time></trkpt><trkpt lat="42.0324762" lon="13.428629"><ele>688.0</ele><time>2026-05-02T14:41:07.03Z</time></trkpt><trkpt lat="42.032396" lon="13.428569"><ele>688.0</ele><time>2026-05-02T14:41:08.031Z</time></trkpt><trkpt lat="42.0323114" lon="13.4285081"><ele>688.0</ele><time>2026-05-02T14:41:09.03Z</time></trkpt><trkpt lat="42.0322312" lon="13.4284436"><ele>688.0</ele><time>2026-05-02T14:41:10.031Z</time></trkpt><trkpt lat="42.0321463" lon="13.4283855"><ele>688.0</ele><time>2026-05-02T14:41:11.031Z</time></trkpt><trkpt lat="42.0320649" lon="13.4283229"><ele>688.0</ele><time>2026-05-02T14:41:12.031Z</time></trkpt><trkpt lat="42.0319854" lon="13.4282613"><ele>688.0</ele><time>2026-05-02T14:41:13.03Z</time></trkpt><trkpt lat="42.031902" lon="13.4281994"><ele>688.0</ele><time>2026-05-02T14:41:14.031Z</time></trkpt><trkpt lat="42.0318144" lon="13.4281388"><ele>688.0</ele><time>2026-05-02T14:41:15.03Z</time></trkpt><trkpt lat="42.0317246" lon="13.4280743"><ele>688.0</ele><time>2026-05-02T14:41:16.031Z</time></trkpt><trkpt lat="42.0316358" lon="13.4280125"><ele>688.0</ele><time>2026-05-02T14:41:17.031Z</time></trkpt><trkpt lat="42.0315508" lon="13.4279444"><ele>688.0</ele><time>2026-05-02T14:41:18.03Z</time></trkpt><trkpt lat="42.0314633" lon="13.4278822"><ele>688.0</ele><time>2026-05-02T14:41:19.031Z</time></trkpt><trkpt lat="42.0313741" lon="13.4278132"><ele>688.4</ele><time>2026-05-02T14:41:20.031Z</time></trkpt><trkpt lat="42.0312848" lon="13.4277526"><ele>688.8</ele><time>2026-05-02T14:41:21.031Z</time></trkpt><trkpt lat="42.0311887" lon="13.4276898"><ele>689.2</ele><time>2026-05-02T14:41:22.031Z</time></trkpt><trkpt lat="42.0310976" lon="13.4276263"><ele>689.6</ele><time>2026-05-02T14:41:23.031Z</time></trkpt><trkpt lat="42.0310047" lon="13.4275578"><ele>690.0</ele><time>2026-05-02T14:41:24.03Z</time></trkpt><trkpt lat="42.0309131" lon="13.4274882"><ele>690.0</ele><time>2026-05-02T14:41:25.031Z</time></trkpt><trkpt lat="42.0308247" lon="13.4274244"><ele>690.0</ele><time>2026-05-02T14:41:26.031Z</time></trkpt><trkpt lat="42.0307454" lon="13.4273679"><ele>690.0</ele><time>2026-05-02T14:41:27.031Z</time></trkpt><trkpt lat="42.0306751" lon="13.42731"><ele>690.0</ele><time>2026-05-02T14:41:28.031Z</time></trkpt><trkpt lat="42.0306123" lon="13.4272631"><ele>690.0</ele><time>2026-05-02T14:41:29.031Z</time></trkpt><trkpt lat="42.030557" lon="13.4272209"><ele>690.0</ele><time>2026-05-02T14:41:30.031Z</time></trkpt><trkpt lat="42.0304974" lon="13.42719"><ele>690.0</ele><time>2026-05-02T14:41:31.031Z</time></trkpt><trkpt lat="42.0304313" lon="13.4271522"><ele>690.0</ele><time>2026-05-02T14:41:32.031Z</time></trkpt><trkpt lat="42.0303538" lon="13.427102"><ele>690.0</ele><time>2026-05-02T14:41:33.031Z</time></trkpt><trkpt lat="42.0302835" lon="13.4270452"><ele>690.0</ele><time>2026-05-02T14:41:34.03Z</time></trkpt><trkpt lat="42.0302063" lon="13.4269869"><ele>690.0</ele><time>2026-05-02T14:41:35.031Z</time></trkpt><trkpt lat="42.0301232" lon="13.4269249"><ele>690.0</ele><time>2026-05-02T14:41:36.031Z</time></trkpt><trkpt lat="42.0300313" lon="13.4268566"><ele>689.6</ele><time>2026-05-02T14:41:37.031Z</time></trkpt><trkpt lat="42.0299464" lon="13.4267799"><ele>689.2</ele><time>2026-05-02T14:41:38.031Z</time></trkpt><trkpt lat="42.0298623" lon="13.4267125"><ele>688.8</ele><time>2026-05-02T14:41:39.03Z</time></trkpt><trkpt lat="42.0297704" lon="13.4266504"><ele>688.4</ele><time>2026-05-02T14:41:40.031Z</time></trkpt><trkpt lat="42.0296808" lon="13.426588"><ele>688.0</ele><time>2026-05-02T14:41:41.03Z</time></trkpt><trkpt lat="42.0296006" lon="13.4265238"><ele>688.0</ele><time>2026-05-02T14:41:42.03Z</time></trkpt><trkpt lat="42.029522" lon="13.4264663"><ele>688.0</ele><time>2026-05-02T14:41:43.03Z</time></trkpt><trkpt lat="42.0294396" lon="13.426413"><ele>688.0</ele><time>2026-05-02T14:41:44.03Z</time></trkpt><trkpt lat="42.0293594" lon="13.4263591"><ele>688.0</ele><time>2026-05-02T14:41:45.031Z</time></trkpt><trkpt lat="42.0292831" lon="13.426296"><ele>688.0</ele><time>2026-05-02T14:41:46.031Z</time></trkpt><trkpt lat="42.0292058" lon="13.4262333"><ele>688.5999999999999</ele><time>2026-05-02T14:41:47.031Z</time></trkpt><trkpt lat="42.029129" lon="13.4261627"><ele>689.1999999999999</ele><time>2026-05-02T14:41:48.031Z</time></trkpt><trkpt lat="42.0290501" lon="13.4261012"><ele>689.8</ele><time>2026-05-02T14:41:49.031Z</time></trkpt><trkpt lat="42.0289685" lon="13.4260383"><ele>690.4</ele><time>2026-05-02T14:41:50.03Z</time></trkpt><trkpt lat="42.0288846" lon="13.4259764"><ele>691.0</ele><time>2026-05-02T14:41:51.031Z</time></trkpt><trkpt lat="42.0287988" lon="13.4259139"><ele>691.0</ele><time>2026-05-02T14:41:52.03Z</time></trkpt><trkpt lat="42.0287111" lon="13.4258599"><ele>691.0</ele><time>2026-05-02T14:41:53.031Z</time></trkpt><trkpt lat="42.0286299" lon="13.4258033"><ele>691.0</ele><time>2026-05-02T14:41:54.031Z</time></trkpt><trkpt lat="42.0285514" lon="13.425751"><ele>691.0</ele><time>2026-05-02T14:41:55.031Z</time></trkpt><trkpt lat="42.0284773" lon="13.4257013"><ele>691.0</ele><time>2026-05-02T14:41:56.03Z</time></trkpt><trkpt lat="42.0284089" lon="13.4256526"><ele>691.0</ele><time>2026-05-02T14:41:57.031Z</time></trkpt><trkpt lat="42.0283496" lon="13.425603"><ele>691.0</ele><time>2026-05-02T14:41:58.031Z</time></trkpt><trkpt lat="42.0282943" lon="13.425555"><ele>691.0</ele><time>2026-05-02T14:41:59.031Z</time></trkpt><trkpt lat="42.0281978" lon="13.4254811"><ele>691.0</ele><time>2026-05-02T14:42:01.031Z</time></trkpt><trkpt lat="42.0281153" lon="13.4253816"><ele>691.0</ele><time>2026-05-02T14:42:03.031Z</time></trkpt><trkpt lat="42.0280514" lon="13.4252726"><ele>691.0</ele><time>2026-05-02T14:42:05.031Z</time></trkpt><trkpt lat="42.0279909" lon="13.4251318"><ele>691.0</ele><time>2026-05-02T14:42:07.03Z</time></trkpt><trkpt lat="42.0279553" lon="13.4250578"><ele>691.0</ele><time>2026-05-02T14:42:08.031Z</time></trkpt><trkpt lat="42.0278921" lon="13.4249251"><ele>691.0</ele><time>2026-05-02T14:42:10.031Z</time></trkpt><trkpt lat="42.0278431" lon="13.4248082"><ele>691.0</ele><time>2026-05-02T14:42:12.031Z</time></trkpt><trkpt lat="42.0277657" lon="13.42466"><ele>691.0</ele><time>2026-05-02T14:42:14.031Z</time></trkpt><trkpt lat="42.0277175" lon="13.4245545"><ele>691.0</ele><time>2026-05-02T14:42:15.031Z</time></trkpt><trkpt lat="42.0276658" lon="13.4244395"><ele>691.0</ele><time>2026-05-02T14:42:16.031Z</time></trkpt><trkpt lat="42.0276196" lon="13.4243183"><ele>691.0</ele><time>2026-05-02T14:42:17.031Z</time></trkpt><trkpt lat="42.0275672" lon="13.4241909"><ele>691.0</ele><time>2026-05-02T14:42:18.03Z</time></trkpt><trkpt lat="42.0275128" lon="13.4240556"><ele>691.0</ele><time>2026-05-02T14:42:19.03Z</time></trkpt><trkpt lat="42.0274581" lon="13.4239181"><ele>691.0</ele><time>2026-05-02T14:42:20.031Z</time></trkpt><trkpt lat="42.0274005" lon="13.423777"><ele>691.0</ele><time>2026-05-02T14:42:21.031Z</time></trkpt><trkpt lat="42.0273453" lon="13.4236288"><ele>691.0</ele><time>2026-05-02T14:42:22.031Z</time></trkpt><trkpt lat="42.0272911" lon="13.4234882"><ele>691.0</ele><time>2026-05-02T14:42:23.03Z</time></trkpt><trkpt lat="42.0272379" lon="13.423351"><ele>691.0</ele><time>2026-05-02T14:42:24.03Z</time></trkpt><trkpt lat="42.0271876" lon="13.423223"><ele>691.0</ele><time>2026-05-02T14:42:25.031Z</time></trkpt><trkpt lat="42.0271361" lon="13.4231018"><ele>691.0</ele><time>2026-05-02T14:42:26.031Z</time></trkpt><trkpt lat="42.0270854" lon="13.4229838"><ele>691.0</ele><time>2026-05-02T14:42:27.031Z</time></trkpt><trkpt lat="42.0270381" lon="13.4228606"><ele>691.0</ele><time>2026-05-02T14:42:28.03Z</time></trkpt><trkpt lat="42.0269866" lon="13.4227452"><ele>691.5</ele><time>2026-05-02T14:42:29.031Z</time></trkpt><trkpt lat="42.0269389" lon="13.4226223"><ele>692.0</ele><time>2026-05-02T14:42:30.031Z</time></trkpt><trkpt lat="42.0268882" lon="13.4224934"><ele>692.5</ele><time>2026-05-02T14:42:31.031Z</time></trkpt><trkpt lat="42.026827" lon="13.4223567"><ele>693.0</ele><time>2026-05-02T14:42:32.031Z</time></trkpt><trkpt lat="42.0267718" lon="13.4222129"><ele>693.0</ele><time>2026-05-02T14:42:33.031Z</time></trkpt><trkpt lat="42.0267172" lon="13.4220692"><ele>693.0</ele><time>2026-05-02T14:42:34.031Z</time></trkpt><trkpt lat="42.0266613" lon="13.4219225"><ele>693.0</ele><time>2026-05-02T14:42:35.031Z</time></trkpt><trkpt lat="42.0266053" lon="13.4217908"><ele>693.0</ele><time>2026-05-02T14:42:36.031Z</time></trkpt><trkpt lat="42.0265489" lon="13.4216588"><ele>693.0</ele><time>2026-05-02T14:42:37.031Z</time></trkpt><trkpt lat="42.0264976" lon="13.4215269"><ele>693.0</ele><time>2026-05-02T14:42:38.031Z</time></trkpt><trkpt lat="42.0264445" lon="13.4213992"><ele>693.0</ele><time>2026-05-02T14:42:39.031Z</time></trkpt><trkpt lat="42.0263936" lon="13.4212711"><ele>693.0</ele><time>2026-05-02T14:42:40.03Z</time></trkpt><trkpt lat="42.0263389" lon="13.4211403"><ele>693.0</ele><time>2026-05-02T14:42:41.03Z</time></trkpt><trkpt lat="42.0262851" lon="13.4210008"><ele>693.5</ele><time>2026-05-02T14:42:42.031Z</time></trkpt><trkpt lat="42.0262294" lon="13.4208595"><ele>694.0</ele><time>2026-05-02T14:42:43.031Z</time></trkpt><trkpt lat="42.0261725" lon="13.4207196"><ele>694.5</ele><time>2026-05-02T14:42:44.031Z</time></trkpt><trkpt lat="42.0261159" lon="13.4205806"><ele>695.0</ele><time>2026-05-02T14:42:45.031Z</time></trkpt><trkpt lat="42.0260609" lon="13.4204459"><ele>695.4</ele><time>2026-05-02T14:42:46.03Z</time></trkpt><trkpt lat="42.0260143" lon="13.4203204"><ele>695.8</ele><time>2026-05-02T14:42:47.03Z</time></trkpt><trkpt lat="42.0259671" lon="13.420205"><ele>696.2</ele><time>2026-05-02T14:42:48.03Z</time></trkpt><trkpt lat="42.0259217" lon="13.4200846"><ele>696.6</ele><time>2026-05-02T14:42:49.031Z</time></trkpt><trkpt lat="42.0258746" lon="13.4199635"><ele>697.0</ele><time>2026-05-02T14:42:50.031Z</time></trkpt><trkpt lat="42.0258223" lon="13.4198411"><ele>697.0</ele><time>2026-05-02T14:42:51.031Z</time></trkpt><trkpt lat="42.0257718" lon="13.4197094"><ele>697.0</ele><time>2026-05-02T14:42:52.031Z</time></trkpt><trkpt lat="42.0257206" lon="13.4195773"><ele>697.0</ele><time>2026-05-02T14:42:53.031Z</time></trkpt><trkpt lat="42.0256712" lon="13.419449"><ele>697.0</ele><time>2026-05-02T14:42:54.031Z</time></trkpt><trkpt lat="42.0256253" lon="13.4193094"><ele>697.0</ele><time>2026-05-02T14:42:55.031Z</time></trkpt><trkpt lat="42.0255687" lon="13.4191661"><ele>697.0</ele><time>2026-05-02T14:42:56.031Z</time></trkpt><trkpt lat="42.025511" lon="13.4190201"><ele>697.0</ele><time>2026-05-02T14:42:57.031Z</time></trkpt><trkpt lat="42.0254508" lon="13.4188615"><ele>697.0</ele><time>2026-05-02T14:42:58.03Z</time></trkpt><trkpt lat="42.0253861" lon="13.4187118"><ele>697.0</ele><time>2026-05-02T14:42:59.03Z</time></trkpt><trkpt lat="42.0253254" lon="13.4185615"><ele>697.25</ele><time>2026-05-02T14:43:00.031Z</time></trkpt><trkpt lat="42.0252699" lon="13.4184033"><ele>697.5</ele><time>2026-05-02T14:43:01.031Z</time></trkpt><trkpt lat="42.0252056" lon="13.4182486"><ele>697.75</ele><time>2026-05-02T14:43:02.031Z</time></trkpt><trkpt lat="42.0251471" lon="13.4181056"><ele>698.0</ele><time>2026-05-02T14:43:03.031Z</time></trkpt><trkpt lat="42.025086" lon="13.4179795"><ele>698.2</ele><time>2026-05-02T14:43:04.031Z</time></trkpt><trkpt lat="42.0250355" lon="13.4178504"><ele>698.4</ele><time>2026-05-02T14:43:05.031Z</time></trkpt><trkpt lat="42.0249909" lon="13.4177358"><ele>698.6</ele><time>2026-05-02T14:43:06.03Z</time></trkpt><trkpt lat="42.0249451" lon="13.4176249"><ele>698.8000000000001</ele><time>2026-05-02T14:43:07.031Z</time></trkpt><trkpt lat="42.0249011" lon="13.4175222"><ele>699.0</ele><time>2026-05-02T14:43:08.03Z</time></trkpt><trkpt lat="42.0248648" lon="13.4174215"><ele>699.1666666666666</ele><time>2026-05-02T14:43:09.031Z</time></trkpt><trkpt lat="42.0248291" lon="13.4173276"><ele>699.3333333333334</ele><time>2026-05-02T14:43:10.031Z</time></trkpt><trkpt lat="42.0247957" lon="13.4172334"><ele>699.5</ele><time>2026-05-02T14:43:11.031Z</time></trkpt><trkpt lat="42.0247592" lon="13.4171417"><ele>699.6666666666667</ele><time>2026-05-02T14:43:12.03Z</time></trkpt><trkpt lat="42.0247208" lon="13.4170512"><ele>699.8333333333334</ele><time>2026-05-02T14:43:13.03Z</time></trkpt><trkpt lat="42.0246802" lon="13.4169481"><ele>700.0</ele><time>2026-05-02T14:43:14.031Z</time></trkpt><trkpt lat="42.024636" lon="13.4168449"><ele>700.2</ele><time>2026-05-02T14:43:15.031Z</time></trkpt><trkpt lat="42.0245928" lon="13.4167302"><ele>700.4</ele><time>2026-05-02T14:43:16.03Z</time></trkpt><trkpt lat="42.0245488" lon="13.4166104"><ele>700.5999999999999</ele><time>2026-05-02T14:43:17.031Z</time></trkpt><trkpt lat="42.0245004" lon="13.4164923"><ele>700.8</ele><time>2026-05-02T14:43:18.031Z</time></trkpt><trkpt lat="42.0244507" lon="13.4163617"><ele>701.0</ele><time>2026-05-02T14:43:19.03Z</time></trkpt><trkpt lat="42.0243992" lon="13.4162337"><ele>701.0</ele><time>2026-05-02T14:43:20.031Z</time></trkpt><trkpt lat="42.0243453" lon="13.4161014"><ele>701.0</ele><time>2026-05-02T14:43:21.03Z</time></trkpt><trkpt lat="42.0242901" lon="13.4159617"><ele>701.0</ele><time>2026-05-02T14:43:22.031Z</time></trkpt><trkpt lat="42.0242324" lon="13.4158158"><ele>701.0</ele><time>2026-05-02T14:43:23.031Z</time></trkpt><trkpt lat="42.0241732" lon="13.4156771"><ele>701.0</ele><time>2026-05-02T14:43:24.031Z</time></trkpt><trkpt lat="42.0241225" lon="13.4155478"><ele>701.0</ele><time>2026-05-02T14:43:25.031Z</time></trkpt><trkpt lat="42.0240725" lon="13.4154209"><ele>701.0</ele><time>2026-05-02T14:43:26.031Z</time></trkpt><trkpt lat="42.0240162" lon="13.4153146"><ele>701.0</ele><time>2026-05-02T14:43:27.031Z</time></trkpt><trkpt lat="42.0239532" lon="13.4152214"><ele>701.0</ele><time>2026-05-02T14:43:28.03Z</time></trkpt><trkpt lat="42.0238752" lon="13.4151415"><ele>701.0</ele><time>2026-05-02T14:43:29.031Z</time></trkpt><trkpt lat="42.0237896" lon="13.4150714"><ele>701.0</ele><time>2026-05-02T14:43:30.031Z</time></trkpt><trkpt lat="42.0236942" lon="13.4149918"><ele>701.0</ele><time>2026-05-02T14:43:31.031Z</time></trkpt><trkpt lat="42.0235868" lon="13.4149119"><ele>701.0</ele><time>2026-05-02T14:43:32.03Z</time></trkpt><trkpt lat="42.0234573" lon="13.4148391"><ele>701.0</ele><time>2026-05-02T14:43:33.031Z</time></trkpt><trkpt lat="42.0233197" lon="13.4147897"><ele>701.0</ele><time>2026-05-02T14:43:34.03Z</time></trkpt><trkpt lat="42.0231652" lon="13.4147588"><ele>701.0</ele><time>2026-05-02T14:43:35.031Z</time></trkpt><trkpt lat="42.0229954" lon="13.4147402"><ele>700.6666666666666</ele><time>2026-05-02T14:43:36.031Z</time></trkpt><trkpt lat="42.0228187" lon="13.4147364"><ele>700.3333333333334</ele><time>2026-05-02T14:43:37.031Z</time></trkpt><trkpt lat="42.0226493" lon="13.414722"><ele>700.0</ele><time>2026-05-02T14:43:38.031Z</time></trkpt><trkpt lat="42.0224779" lon="13.4147062"><ele>699.0</ele><time>2026-05-02T14:43:39.03Z</time></trkpt><trkpt lat="42.0223081" lon="13.4146953"><ele>698.0</ele><time>2026-05-02T14:43:40.031Z</time></trkpt><trkpt lat="42.022146" lon="13.4146884"><ele>697.0</ele><time>2026-05-02T14:43:41.03Z</time></trkpt><trkpt lat="42.0219815" lon="13.4146801"><ele>697.0</ele><time>2026-05-02T14:43:42.031Z</time></trkpt><trkpt lat="42.0218253" lon="13.4146764"><ele>697.0</ele><time>2026-05-02T14:43:43.031Z</time></trkpt><trkpt lat="42.021671" lon="13.4146733"><ele>697.0</ele><time>2026-05-02T14:43:44.031Z</time></trkpt><trkpt lat="42.0215132" lon="13.4146693"><ele>697.25</ele><time>2026-05-02T14:43:45.031Z</time></trkpt><trkpt lat="42.0213628" lon="13.4146684"><ele>697.5</ele><time>2026-05-02T14:43:46.031Z</time></trkpt><trkpt lat="42.0212157" lon="13.4146746"><ele>697.75</ele><time>2026-05-02T14:43:47.031Z</time></trkpt><trkpt lat="42.0210668" lon="13.4146874"><ele>698.0</ele><time>2026-05-02T14:43:48.031Z</time></trkpt><trkpt lat="42.0209208" lon="13.4147174"><ele>698.6666666666666</ele><time>2026-05-02T14:43:49.031Z</time></trkpt><trkpt lat="42.0207736" lon="13.414766"><ele>699.3333333333334</ele><time>2026-05-02T14:43:50.031Z</time></trkpt><trkpt lat="42.0206274" lon="13.4148293"><ele>700.0</ele><time>2026-05-02T14:43:51.031Z</time></trkpt><trkpt lat="42.0204833" lon="13.4149204"><ele>700.0</ele><time>2026-05-02T14:43:52.031Z</time></trkpt><trkpt lat="42.0203418" lon="13.4150383"><ele>700.0</ele><time>2026-05-02T14:43:53.031Z</time></trkpt><trkpt lat="42.0201994" lon="13.4151601"><ele>700.0</ele><time>2026-05-02T14:43:54.031Z</time></trkpt><trkpt lat="42.0200598" lon="13.4152866"><ele>698.6666666666667</ele><time>2026-05-02T14:43:55.031Z</time></trkpt><trkpt lat="42.0199177" lon="13.4154158"><ele>697.3333333333334</ele><time>2026-05-02T14:43:56.031Z</time></trkpt><trkpt lat="42.0197786" lon="13.4155401"><ele>696.0</ele><time>2026-05-02T14:43:57.031Z</time></trkpt><trkpt lat="42.0196459" lon="13.415657"><ele>695.75</ele><time>2026-05-02T14:43:58.03Z</time></trkpt><trkpt lat="42.019521" lon="13.415772"><ele>695.5</ele><time>2026-05-02T14:43:59.031Z</time></trkpt><trkpt lat="42.0194024" lon="13.4158798"><ele>695.25</ele><time>2026-05-02T14:44:00.031Z</time></trkpt><trkpt lat="42.0192905" lon="13.4159884"><ele>695.0</ele><time>2026-05-02T14:44:01.031Z</time></trkpt><trkpt lat="42.0191861" lon="13.4160845"><ele>695.4</ele><time>2026-05-02T14:44:02.03Z</time></trkpt><trkpt lat="42.0190859" lon="13.4161612"><ele>695.8</ele><time>2026-05-02T14:44:03.03Z</time></trkpt><trkpt lat="42.0189816" lon="13.416215"><ele>696.2</ele><time>2026-05-02T14:44:04.031Z</time></trkpt><trkpt lat="42.0188848" lon="13.416245"><ele>696.6</ele><time>2026-05-02T14:44:05.031Z</time></trkpt><trkpt lat="42.0187924" lon="13.416225"><ele>697.0</ele><time>2026-05-02T14:44:06.031Z</time></trkpt><trkpt lat="42.0187093" lon="13.416171"><ele>697.0</ele><time>2026-05-02T14:44:07.03Z</time></trkpt><trkpt lat="42.0186357" lon="13.4160833"><ele>697.0</ele><time>2026-05-02T14:44:08.031Z</time></trkpt><trkpt lat="42.0185741" lon="13.4159669"><ele>697.0</ele><time>2026-05-02T14:44:09.031Z</time></trkpt><trkpt lat="42.0185518" lon="13.4158458"><ele>697.0</ele><time>2026-05-02T14:44:10.031Z</time></trkpt><trkpt lat="42.018558" lon="13.4157148"><ele>697.0</ele><time>2026-05-02T14:44:11.031Z</time></trkpt><trkpt lat="42.0186001" lon="13.4156009"><ele>697.0</ele><time>2026-05-02T14:44:12.031Z</time></trkpt><trkpt lat="42.0186664" lon="13.4154869"><ele>697.0</ele><time>2026-05-02T14:44:13.031Z</time></trkpt><trkpt lat="42.018754" lon="13.4153888"><ele>697.0</ele><time>2026-05-02T14:44:14.031Z</time></trkpt><trkpt lat="42.0188619" lon="13.4153068"><ele>697.0</ele><time>2026-05-02T14:44:15.031Z</time></trkpt><trkpt lat="42.0189951" lon="13.4152332"><ele>697.0</ele><time>2026-05-02T14:44:16.031Z</time></trkpt><trkpt lat="42.0191305" lon="13.4151655"><ele>697.0</ele><time>2026-05-02T14:44:17.03Z</time></trkpt><trkpt lat="42.0192724" lon="13.4150984"><ele>697.0</ele><time>2026-05-02T14:44:18.031Z</time></trkpt><trkpt lat="42.0194214" lon="13.4150287"><ele>696.6666666666667</ele><time>2026-05-02T14:44:19.031Z</time></trkpt><trkpt lat="42.0195779" lon="13.4149589"><ele>696.3333333333334</ele><time>2026-05-02T14:44:20.031Z</time></trkpt><trkpt lat="42.0197481" lon="13.4148826"><ele>696.0</ele><time>2026-05-02T14:44:21.031Z</time></trkpt><trkpt lat="42.0199139" lon="13.4148049"><ele>697.3333333333334</ele><time>2026-05-02T14:44:22.03Z</time></trkpt><trkpt lat="42.0200774" lon="13.4147231"><ele>698.6666666666667</ele><time>2026-05-02T14:44:23.03Z</time></trkpt><trkpt lat="42.0202433" lon="13.4146403"><ele>700.0</ele><time>2026-05-02T14:44:24.031Z</time></trkpt><trkpt lat="42.0204105" lon="13.4145557"><ele>700.6666666666667</ele><time>2026-05-02T14:44:25.031Z</time></trkpt><trkpt lat="42.0205802" lon="13.4144806"><ele>701.3333333333334</ele><time>2026-05-02T14:44:26.031Z</time></trkpt><trkpt lat="42.0207473" lon="13.4144076"><ele>702.0</ele><time>2026-05-02T14:44:27.03Z</time></trkpt><trkpt lat="42.0209131" lon="13.4143284"><ele>702.3333333333334</ele><time>2026-05-02T14:44:28.03Z</time></trkpt><trkpt lat="42.0210808" lon="13.4142501"><ele>702.6666666666667</ele><time>2026-05-02T14:44:29.031Z</time></trkpt><trkpt lat="42.0212459" lon="13.4141748"><ele>703.0</ele><time>2026-05-02T14:44:30.031Z</time></trkpt><trkpt lat="42.0214183" lon="13.4140978"><ele>703.0</ele><time>2026-05-02T14:44:31.031Z</time></trkpt><trkpt lat="42.021585" lon="13.414018"><ele>703.0</ele><time>2026-05-02T14:44:32.031Z</time></trkpt><trkpt lat="42.0217535" lon="13.4139398"><ele>703.0</ele><time>2026-05-02T14:44:33.031Z</time></trkpt><trkpt lat="42.0219207" lon="13.4138561"><ele>703.6666666666667</ele><time>2026-05-02T14:44:34.031Z</time></trkpt><trkpt lat="42.022086" lon="13.4137736"><ele>704.3333333333334</ele><time>2026-05-02T14:44:35.031Z</time></trkpt><trkpt lat="42.0222537" lon="13.4136928"><ele>705.0</ele><time>2026-05-02T14:44:36.031Z</time></trkpt><trkpt lat="42.0224229" lon="13.4136114"><ele>705.6666666666666</ele><time>2026-05-02T14:44:37.031Z</time></trkpt><trkpt lat="42.022595" lon="13.4135316"><ele>706.3333333333333</ele><time>2026-05-02T14:44:38.031Z</time></trkpt><trkpt lat="42.0227689" lon="13.4134505"><ele>707.0</ele><time>2026-05-02T14:44:39.031Z</time></trkpt><trkpt lat="42.0229508" lon="13.4133678"><ele>707.0</ele><time>2026-05-02T14:44:40.031Z</time></trkpt><trkpt lat="42.0231315" lon="13.413282"><ele>707.0</ele><time>2026-05-02T14:44:41.031Z</time></trkpt><trkpt lat="42.0233147" lon="13.413196"><ele>707.0</ele><time>2026-05-02T14:44:42.031Z</time></trkpt><trkpt lat="42.0235022" lon="13.4131066"><ele>707.6666666666666</ele><time>2026-05-02T14:44:43.031Z</time></trkpt><trkpt lat="42.0236941" lon="13.4130177"><ele>708.3333333333334</ele><time>2026-05-02T14:44:44.031Z</time></trkpt><trkpt lat="42.0238882" lon="13.4129278"><ele>709.0</ele><time>2026-05-02T14:44:45.031Z</time></trkpt><trkpt lat="42.0240851" lon="13.4128346"><ele>713.0</ele><time>2026-05-02T14:44:46.031Z</time></trkpt><trkpt lat="42.0242825" lon="13.4127421"><ele>717.0</ele><time>2026-05-02T14:44:47.031Z</time></trkpt><trkpt lat="42.0244806" lon="13.4126463"><ele>721.0</ele><time>2026-05-02T14:44:48.031Z</time></trkpt><trkpt lat="42.0246818" lon="13.4125512"><ele>721.0</ele><time>2026-05-02T14:44:49.031Z</time></trkpt><trkpt lat="42.0248849" lon="13.4124583"><ele>721.0</ele><time>2026-05-02T14:44:50.031Z</time></trkpt><trkpt lat="42.0250875" lon="13.4123641"><ele>721.0</ele><time>2026-05-02T14:44:51.03Z</time></trkpt><trkpt lat="42.0252871" lon="13.4122651"><ele>721.0</ele><time>2026-05-02T14:44:52.031Z</time></trkpt><trkpt lat="42.025491" lon="13.4121698"><ele>721.0</ele><time>2026-05-02T14:44:53.031Z</time></trkpt><trkpt lat="42.0256953" lon="13.412078"><ele>721.0</ele><time>2026-05-02T14:44:54.031Z</time></trkpt><trkpt lat="42.0258993" lon="13.4119904"><ele>721.3333333333334</ele><time>2026-05-02T14:44:55.031Z</time></trkpt><trkpt lat="42.0261022" lon="13.4119075"><ele>721.6666666666666</ele><time>2026-05-02T14:44:56.031Z</time></trkpt><trkpt lat="42.0263086" lon="13.4118388"><ele>722.0</ele><time>2026-05-02T14:44:57.031Z</time></trkpt><trkpt lat="42.0265158" lon="13.4117771"><ele>721.3333333333333</ele><time>2026-05-02T14:44:58.031Z</time></trkpt><trkpt lat="42.0267267" lon="13.41173"><ele>720.6666666666666</ele><time>2026-05-02T14:44:59.031Z</time></trkpt><trkpt lat="42.0269344" lon="13.4116901"><ele>720.0</ele><time>2026-05-02T14:45:00.03Z</time></trkpt><trkpt lat="42.0271472" lon="13.4116543"><ele>720.0</ele><time>2026-05-02T14:45:01.031Z</time></trkpt><trkpt lat="42.0273587" lon="13.4116245"><ele>720.0</ele><time>2026-05-02T14:45:02.031Z</time></trkpt><trkpt lat="42.0275732" lon="13.4115979"><ele>720.0</ele><time>2026-05-02T14:45:03.031Z</time></trkpt><trkpt lat="42.0277841" lon="13.411572"><ele>720.6666666666666</ele><time>2026-05-02T14:45:04.03Z</time></trkpt><trkpt lat="42.0279981" lon="13.4115436"><ele>721.3333333333333</ele><time>2026-05-02T14:45:05.03Z</time></trkpt><trkpt lat="42.0282139" lon="13.4115187"><ele>722.0</ele><time>2026-05-02T14:45:06.031Z</time></trkpt><trkpt lat="42.0284357" lon="13.411496"><ele>723.0</ele><time>2026-05-02T14:45:07.031Z</time></trkpt><trkpt lat="42.0286548" lon="13.4114683"><ele>724.0</ele><time>2026-05-02T14:45:08.031Z</time></trkpt><trkpt lat="42.028871" lon="13.4114351"><ele>725.0</ele><time>2026-05-02T14:45:09.031Z</time></trkpt><trkpt lat="42.0290933" lon="13.4114145"><ele>724.5</ele><time>2026-05-02T14:45:10.031Z</time></trkpt><trkpt lat="42.0293172" lon="13.4113944"><ele>724.0</ele><time>2026-05-02T14:45:11.031Z</time></trkpt><trkpt lat="42.0295456" lon="13.4113714"><ele>724.0</ele><time>2026-05-02T14:45:12.031Z</time></trkpt><trkpt lat="42.0297738" lon="13.4113451"><ele>724.0</ele><time>2026-05-02T14:45:13.031Z</time></trkpt><trkpt lat="42.0300061" lon="13.411318"><ele>735.0</ele><time>2026-05-02T14:45:14.031Z</time></trkpt><trkpt lat="42.0302418" lon="13.4112919"><ele>746.0</ele><time>2026-05-02T14:45:15.031Z</time></trkpt><trkpt lat="42.0304733" lon="13.4112632"><ele>746.0</ele><time>2026-05-02T14:45:16.031Z</time></trkpt><trkpt lat="42.0307029" lon="13.4112374"><ele>746.0</ele><time>2026-05-02T14:45:17.031Z</time></trkpt><trkpt lat="42.0309276" lon="13.4112063"><ele>746.0</ele><time>2026-05-02T14:45:18.031Z</time></trkpt><trkpt lat="42.0311558" lon="13.4111732"><ele>746.0</ele><time>2026-05-02T14:45:19.031Z</time></trkpt><trkpt lat="42.0313835" lon="13.4111468"><ele>746.0</ele><time>2026-05-02T14:45:20.031Z</time></trkpt><trkpt lat="42.0316149" lon="13.4111219"><ele>746.0</ele><time>2026-05-02T14:45:21.03Z</time></trkpt><trkpt lat="42.0318497" lon="13.4110946"><ele>745.5</ele><time>2026-05-02T14:45:22.03Z</time></trkpt><trkpt lat="42.0320828" lon="13.4110665"><ele>745.0</ele><time>2026-05-02T14:45:23.031Z</time></trkpt><trkpt lat="42.0323177" lon="13.4110442"><ele>745.0</ele><time>2026-05-02T14:45:24.031Z</time></trkpt><trkpt lat="42.0325558" lon="13.4110223"><ele>745.0</ele><time>2026-05-02T14:45:25.031Z</time></trkpt><trkpt lat="42.0327895" lon="13.4109941"><ele>745.0</ele><time>2026-05-02T14:45:26.031Z</time></trkpt><trkpt lat="42.0330265" lon="13.4109618"><ele>745.0</ele><time>2026-05-02T14:45:27.031Z</time></trkpt><trkpt lat="42.033262" lon="13.4109316"><ele>742.5</ele><time>2026-05-02T14:45:28.03Z</time></trkpt><trkpt lat="42.0334972" lon="13.4108977"><ele>740.0</ele><time>2026-05-02T14:45:29.031Z</time></trkpt><trkpt lat="42.0337299" lon="13.4108739"><ele>740.0</ele><time>2026-05-02T14:45:30.031Z</time></trkpt><trkpt lat="42.0339611" lon="13.4108548"><ele>740.0</ele><time>2026-05-02T14:45:31.031Z</time></trkpt><trkpt lat="42.0341909" lon="13.4108354"><ele>735.0</ele><time>2026-05-02T14:45:32.031Z</time></trkpt><trkpt lat="42.03442" lon="13.4108077"><ele>730.0</ele><time>2026-05-02T14:45:33.031Z</time></trkpt><trkpt lat="42.0346451" lon="13.4107767"><ele>730.0</ele><time>2026-05-02T14:45:34.031Z</time></trkpt><trkpt lat="42.0348738" lon="13.4107527"><ele>730.0</ele><time>2026-05-02T14:45:35.031Z</time></trkpt><trkpt lat="42.0351009" lon="13.4107293"><ele>727.6666666666667</ele><time>2026-05-02T14:45:36.03Z</time></trkpt><trkpt lat="42.0353242" lon="13.4107023"><ele>725.3333333333334</ele><time>2026-05-02T14:45:37.031Z</time></trkpt><trkpt lat="42.0355474" lon="13.4106773"><ele>723.0</ele><time>2026-05-02T14:45:38.031Z</time></trkpt><trkpt lat="42.0357681" lon="13.4106492"><ele>722.0</ele><time>2026-05-02T14:45:39.031Z</time></trkpt><trkpt lat="42.0359896" lon="13.4106273"><ele>721.0</ele><time>2026-05-02T14:45:40.031Z</time></trkpt><trkpt lat="42.0362108" lon="13.4106009"><ele>720.0</ele><time>2026-05-02T14:45:41.031Z</time></trkpt><trkpt lat="42.0364353" lon="13.4105756"><ele>717.0</ele><time>2026-05-02T14:45:42.031Z</time></trkpt><trkpt lat="42.0366601" lon="13.4105453"><ele>714.0</ele><time>2026-05-02T14:45:43.031Z</time></trkpt><trkpt lat="42.0368857" lon="13.410521"><ele>714.0</ele><time>2026-05-02T14:45:44.031Z</time></trkpt><trkpt lat="42.0371102" lon="13.410503"><ele>714.0</ele><time>2026-05-02T14:45:45.031Z</time></trkpt><trkpt lat="42.0373351" lon="13.4104738"><ele>715.0</ele><time>2026-05-02T14:45:46.031Z</time></trkpt><trkpt lat="42.0375615" lon="13.4104441"><ele>716.0</ele><time>2026-05-02T14:45:47.031Z</time></trkpt><trkpt lat="42.0377855" lon="13.4104173"><ele>716.0</ele><time>2026-05-02T14:45:48.03Z</time></trkpt><trkpt lat="42.0380142" lon="13.4103882"><ele>716.0</ele><time>2026-05-02T14:45:49.031Z</time></trkpt><trkpt lat="42.0382393" lon="13.4103597"><ele>715.5</ele><time>2026-05-02T14:45:50.031Z</time></trkpt><trkpt lat="42.0384695" lon="13.410332"><ele>715.0</ele><time>2026-05-02T14:45:51.031Z</time></trkpt><trkpt lat="42.0387008" lon="13.4103078"><ele>715.0</ele><time>2026-05-02T14:45:52.031Z</time></trkpt><trkpt lat="42.0389327" lon="13.4102807"><ele>715.0</ele><time>2026-05-02T14:45:53.031Z</time></trkpt><trkpt lat="42.0391687" lon="13.4102542"><ele>713.5</ele><time>2026-05-02T14:45:54.031Z</time></trkpt><trkpt lat="42.0394025" lon="13.4102222"><ele>712.0</ele><time>2026-05-02T14:45:55.031Z</time></trkpt><trkpt lat="42.0396375" lon="13.4101999"><ele>712.0</ele><time>2026-05-02T14:45:56.031Z</time></trkpt><trkpt lat="42.0398708" lon="13.4101772"><ele>712.0</ele><time>2026-05-02T14:45:57.031Z</time></trkpt><trkpt lat="42.0401085" lon="13.4101574"><ele>712.5</ele><time>2026-05-02T14:45:58.031Z</time></trkpt><trkpt lat="42.0403425" lon="13.4101496"><ele>713.0</ele><time>2026-05-02T14:45:59.031Z</time></trkpt><trkpt lat="42.0405773" lon="13.4101465"><ele>713.0</ele><time>2026-05-02T14:46:00.031Z</time></trkpt><trkpt lat="42.040811" lon="13.4101572"><ele>713.0</ele><time>2026-05-02T14:46:01.031Z</time></trkpt><trkpt lat="42.0410401" lon="13.4101755"><ele>713.0</ele><time>2026-05-02T14:46:02.031Z</time></trkpt><trkpt lat="42.0412691" lon="13.4102085"><ele>713.0</ele><time>2026-05-02T14:46:03.03Z</time></trkpt><trkpt lat="42.0414958" lon="13.4102441"><ele>713.0</ele><time>2026-05-02T14:46:04.031Z</time></trkpt><trkpt lat="42.041714" lon="13.4102837"><ele>713.0</ele><time>2026-05-02T14:46:05.031Z</time></trkpt><trkpt lat="42.0419171" lon="13.4103214"><ele>713.0</ele><time>2026-05-02T14:46:06.031Z</time></trkpt><trkpt lat="42.042112" lon="13.4103637"><ele>713.0</ele><time>2026-05-02T14:46:07.03Z</time></trkpt><trkpt lat="42.0422909" lon="13.4104011"><ele>713.0</ele><time>2026-05-02T14:46:08.031Z</time></trkpt><trkpt lat="42.0424624" lon="13.4104367"><ele>713.0</ele><time>2026-05-02T14:46:09.03Z</time></trkpt><trkpt lat="42.0426123" lon="13.4104774"><ele>713.0</ele><time>2026-05-02T14:46:10.031Z</time></trkpt><trkpt lat="42.0427504" lon="13.4105184"><ele>713.0</ele><time>2026-05-02T14:46:11.031Z</time></trkpt><trkpt lat="42.0428616" lon="13.4105734"><ele>713.0</ele><time>2026-05-02T14:46:12.031Z</time></trkpt><trkpt lat="42.0429648" lon="13.4106437"><ele>713.0</ele><time>2026-05-02T14:46:13.031Z</time></trkpt><trkpt lat="42.0430502" lon="13.4107395"><ele>713.0</ele><time>2026-05-02T14:46:14.031Z</time></trkpt><trkpt lat="42.0431133" lon="13.4108473"><ele>713.0</ele><time>2026-05-02T14:46:15.031Z</time></trkpt><trkpt lat="42.0431541" lon="13.4109741"><ele>713.0</ele><time>2026-05-02T14:46:16.031Z</time></trkpt><trkpt lat="42.0431648" lon="13.4111127"><ele>713.0</ele><time>2026-05-02T14:46:17.031Z</time></trkpt><trkpt lat="42.0431537" lon="13.4112601"><ele>713.0</ele><time>2026-05-02T14:46:18.031Z</time></trkpt><trkpt lat="42.0431122" lon="13.4113903"><ele>712.75</ele><time>2026-05-02T14:46:19.031Z</time></trkpt><trkpt lat="42.0430454" lon="13.4115152"><ele>712.5</ele><time>2026-05-02T14:46:20.031Z</time></trkpt><trkpt lat="42.042951" lon="13.4116269"><ele>712.25</ele><time>2026-05-02T14:46:21.031Z</time></trkpt><trkpt lat="42.0428488" lon="13.4117164"><ele>712.0</ele><time>2026-05-02T14:46:22.031Z</time></trkpt><trkpt lat="42.042743" lon="13.4117644"><ele>712.0</ele><time>2026-05-02T14:46:23.03Z</time></trkpt><trkpt lat="42.042632" lon="13.4117708"><ele>712.0</ele><time>2026-05-02T14:46:24.031Z</time></trkpt><trkpt lat="42.0425245" lon="13.4117385"><ele>712.0</ele><time>2026-05-02T14:46:25.031Z</time></trkpt><trkpt lat="42.0424264" lon="13.4116568"><ele>712.0</ele><time>2026-05-02T14:46:26.031Z</time></trkpt><trkpt lat="42.0423332" lon="13.4115599"><ele>712.0</ele><time>2026-05-02T14:46:27.031Z</time></trkpt><trkpt lat="42.0422526" lon="13.4114322"><ele>712.0</ele><time>2026-05-02T14:46:28.031Z</time></trkpt><trkpt lat="42.0421777" lon="13.4112992"><ele>712.0</ele><time>2026-05-02T14:46:29.03Z</time></trkpt><trkpt lat="42.0421144" lon="13.4111769"><ele>712.0</ele><time>2026-05-02T14:46:30.031Z</time></trkpt><trkpt lat="42.0420638" lon="13.4110655"><ele>712.2</ele><time>2026-05-02T14:46:31.031Z</time></trkpt><trkpt lat="42.0420346" lon="13.4109605"><ele>712.4000000000001</ele><time>2026-05-02T14:46:32.031Z</time></trkpt><trkpt lat="42.0420172" lon="13.4108598"><ele>712.5999999999999</ele><time>2026-05-02T14:46:33.031Z</time></trkpt><trkpt lat="42.0420197" lon="13.4107696"><ele>712.8</ele><time>2026-05-02T14:46:34.03Z</time></trkpt><trkpt lat="42.0420743" lon="13.4106285"><ele>713.0</ele><time>2026-05-02T14:46:36.031Z</time></trkpt><trkpt lat="42.0421736" lon="13.4105027"><ele>713.0</ele><time>2026-05-02T14:46:38.031Z</time></trkpt><trkpt lat="42.0422422" lon="13.4104273"><ele>713.0</ele><time>2026-05-02T14:46:39.031Z</time></trkpt><trkpt lat="42.0424014" lon="13.410257"><ele>713.0</ele><time>2026-05-02T14:46:41.031Z</time></trkpt><trkpt lat="42.0424718" lon="13.4101331"><ele>713.0</ele><time>2026-05-02T14:46:42.031Z</time></trkpt><trkpt lat="42.0425705" lon="13.4100176"><ele>713.0</ele><time>2026-05-02T14:46:43.031Z</time></trkpt><trkpt lat="42.0426704" lon="13.4099133"><ele>713.0</ele><time>2026-05-02T14:46:44.03Z</time></trkpt><trkpt lat="42.042761" lon="13.409814"><ele>713.0</ele><time>2026-05-02T14:46:45.031Z</time></trkpt><trkpt lat="42.0428495" lon="13.4097273"><ele>713.0</ele><time>2026-05-02T14:46:46.031Z</time></trkpt><trkpt lat="42.0429292" lon="13.4096384"><ele>713.0</ele><time>2026-05-02T14:46:47.031Z</time></trkpt><trkpt lat="42.0430103" lon="13.4095531"><ele>713.0</ele><time>2026-05-02T14:46:48.031Z</time></trkpt><trkpt lat="42.0430905" lon="13.4094709"><ele>713.0</ele><time>2026-05-02T14:46:49.031Z</time></trkpt><trkpt lat="42.0431766" lon="13.409385"><ele>713.0</ele><time>2026-05-02T14:46:50.03Z</time></trkpt><trkpt lat="42.0432642" lon="13.409292"><ele>713.0</ele><time>2026-05-02T14:46:51.031Z</time></trkpt><trkpt lat="42.0433572" lon="13.409192"><ele>713.0</ele><time>2026-05-02T14:46:52.031Z</time></trkpt><trkpt lat="42.0434531" lon="13.4090871"><ele>713.0</ele><time>2026-05-02T14:46:53.031Z</time></trkpt><trkpt lat="42.0435476" lon="13.4089885"><ele>713.0</ele><time>2026-05-02T14:46:54.031Z</time></trkpt><trkpt lat="42.0436436" lon="13.4088906"><ele>713.0</ele><time>2026-05-02T14:46:55.03Z</time></trkpt><trkpt lat="42.0437357" lon="13.408792"><ele>712.5</ele><time>2026-05-02T14:46:56.031Z</time></trkpt><trkpt lat="42.0438289" lon="13.408695"><ele>712.0</ele><time>2026-05-02T14:46:57.031Z</time></trkpt><trkpt lat="42.0439221" lon="13.4085954"><ele>711.5</ele><time>2026-05-02T14:46:58.031Z</time></trkpt><trkpt lat="42.0440117" lon="13.408501"><ele>711.0</ele><time>2026-05-02T14:46:59.031Z</time></trkpt><trkpt lat="42.0441016" lon="13.4084105"><ele>711.0</ele><time>2026-05-02T14:47:00.03Z</time></trkpt><trkpt lat="42.0441806" lon="13.4083243"><ele>711.0</ele><time>2026-05-02T14:47:01.031Z</time></trkpt><trkpt lat="42.0442611" lon="13.4082379"><ele>711.0</ele><time>2026-05-02T14:47:02.031Z</time></trkpt><trkpt lat="42.044336" lon="13.4081612"><ele>711.0</ele><time>2026-05-02T14:47:03.031Z</time></trkpt><trkpt lat="42.0444047" lon="13.4080775"><ele>711.0</ele><time>2026-05-02T14:47:04.03Z</time></trkpt><trkpt lat="42.0444694" lon="13.4079999"><ele>710.8333333333334</ele><time>2026-05-02T14:47:05.031Z</time></trkpt><trkpt lat="42.0445358" lon="13.4079295"><ele>710.6666666666666</ele><time>2026-05-02T14:47:06.031Z</time></trkpt><trkpt lat="42.0446017" lon="13.4078584"><ele>710.5</ele><time>2026-05-02T14:47:07.031Z</time></trkpt><trkpt lat="42.04466" lon="13.4077921"><ele>710.3333333333333</ele><time>2026-05-02T14:47:08.03Z</time></trkpt><trkpt lat="42.0447421" lon="13.4077247"><ele>710.1666666666666</ele><time>2026-05-02T14:47:10.031Z</time></trkpt><trkpt lat="42.0448263" lon="13.4076821"><ele>710.0</ele><time>2026-05-02T14:47:12.031Z</time></trkpt><trkpt lat="42.0449237" lon="13.4076363"><ele>710.3333333333333</ele><time>2026-05-02T14:47:14.031Z</time></trkpt><trkpt lat="42.0450141" lon="13.4075176"><ele>710.6666666666666</ele><time>2026-05-02T14:47:16.031Z</time></trkpt><trkpt lat="42.0450522" lon="13.4074461"><ele>711.0</ele><time>2026-05-02T14:47:17.03Z</time></trkpt><trkpt lat="42.0450904" lon="13.4073668"><ele>711.3333333333334</ele><time>2026-05-02T14:47:18.03Z</time></trkpt><trkpt lat="42.0451367" lon="13.4072789"><ele>711.6666666666667</ele><time>2026-05-02T14:47:19.03Z</time></trkpt><trkpt lat="42.0451963" lon="13.4071984"><ele>712.0</ele><time>2026-05-02T14:47:20.031Z</time></trkpt><trkpt lat="42.0452631" lon="13.4071156"><ele>712.0</ele><time>2026-05-02T14:47:21.031Z</time></trkpt><trkpt lat="42.0453416" lon="13.4070324"><ele>712.0</ele><time>2026-05-02T14:47:22.031Z</time></trkpt><trkpt lat="42.0454236" lon="13.4069469"><ele>712.0</ele><time>2026-05-02T14:47:23.031Z</time></trkpt><trkpt lat="42.0455014" lon="13.4068554"><ele>712.0</ele><time>2026-05-02T14:47:24.031Z</time></trkpt><trkpt lat="42.0455864" lon="13.4067601"><ele>712.0</ele><time>2026-05-02T14:47:25.031Z</time></trkpt><trkpt lat="42.0456743" lon="13.4066628"><ele>712.0</ele><time>2026-05-02T14:47:26.031Z</time></trkpt><trkpt lat="42.0457618" lon="13.4065695"><ele>712.0</ele><time>2026-05-02T14:47:27.031Z</time></trkpt><trkpt lat="42.0458402" lon="13.4064872"><ele>712.0</ele><time>2026-05-02T14:47:28.031Z</time></trkpt><trkpt lat="42.0459141" lon="13.4064147"><ele>712.0</ele><time>2026-05-02T14:47:29.031Z</time></trkpt><trkpt lat="42.0459783" lon="13.406346"><ele>712.0</ele><time>2026-05-02T14:47:30.031Z</time></trkpt><trkpt lat="42.0460342" lon="13.406287"><ele>712.5</ele><time>2026-05-02T14:47:31.031Z</time></trkpt><trkpt lat="42.0461302" lon="13.4061904"><ele>713.0</ele><time>2026-05-02T14:47:33.031Z</time></trkpt><trkpt lat="42.046216" lon="13.4060998"><ele>713.5</ele><time>2026-05-02T14:47:35.031Z</time></trkpt><trkpt lat="42.0463161" lon="13.4060122"><ele>714.0</ele><time>2026-05-02T14:47:37.031Z</time></trkpt><trkpt lat="42.0464209" lon="13.4059543"><ele>714.0</ele><time>2026-05-02T14:47:39.031Z</time></trkpt><trkpt lat="42.0465329" lon="13.4059194"><ele>714.0</ele><time>2026-05-02T14:47:41.031Z</time></trkpt><trkpt lat="42.0466022" lon="13.4058913"><ele>714.0</ele><time>2026-05-02T14:47:42.031Z</time></trkpt><trkpt lat="42.0466584" lon="13.4058505"><ele>714.0</ele><time>2026-05-02T14:47:43.031Z</time></trkpt><trkpt lat="42.0466993" lon="13.4057858"><ele>714.0</ele><time>2026-05-02T14:47:44.03Z</time></trkpt><trkpt lat="42.0467377" lon="13.4056899"><ele>714.0</ele><time>2026-05-02T14:47:45.031Z</time></trkpt><trkpt lat="42.0467821" lon="13.4055923"><ele>714.2</ele><time>2026-05-02T14:47:46.031Z</time></trkpt><trkpt lat="42.0468349" lon="13.4055054"><ele>714.4000000000001</ele><time>2026-05-02T14:47:47.031Z</time></trkpt><trkpt lat="42.0468984" lon="13.4054226"><ele>714.6</ele><time>2026-05-02T14:47:48.031Z</time></trkpt><trkpt lat="42.0469709" lon="13.4053397"><ele>714.8</ele><time>2026-05-02T14:47:49.03Z</time></trkpt><trkpt lat="42.0470475" lon="13.4052487"><ele>715.0</ele><time>2026-05-02T14:47:50.031Z</time></trkpt><trkpt lat="42.047125" lon="13.4051608"><ele>715.0</ele><time>2026-05-02T14:47:51.031Z</time></trkpt><trkpt lat="42.0472039" lon="13.405076"><ele>715.0</ele><time>2026-05-02T14:47:52.03Z</time></trkpt><trkpt lat="42.0472839" lon="13.4049891"><ele>715.0</ele><time>2026-05-02T14:47:53.03Z</time></trkpt><trkpt lat="42.0473696" lon="13.4049042"><ele>715.0</ele><time>2026-05-02T14:47:54.031Z</time></trkpt><trkpt lat="42.0474531" lon="13.4048105"><ele>715.0</ele><time>2026-05-02T14:47:55.031Z</time></trkpt><trkpt lat="42.0475367" lon="13.4047243"><ele>714.4</ele><time>2026-05-02T14:47:56.031Z</time></trkpt><trkpt lat="42.047621" lon="13.4046391"><ele>713.8</ele><time>2026-05-02T14:47:57.03Z</time></trkpt><trkpt lat="42.0477041" lon="13.4045542"><ele>713.2</ele><time>2026-05-02T14:47:58.031Z</time></trkpt><trkpt lat="42.0477914" lon="13.4044659"><ele>712.6</ele><time>2026-05-02T14:47:59.031Z</time></trkpt><trkpt lat="42.0478724" lon="13.4043739"><ele>712.0</ele><time>2026-05-02T14:48:00.031Z</time></trkpt><trkpt lat="42.0479516" lon="13.4042854"><ele>712.0</ele><time>2026-05-02T14:48:01.031Z</time></trkpt><trkpt lat="42.0480261" lon="13.4042059"><ele>712.0</ele><time>2026-05-02T14:48:02.031Z</time></trkpt><trkpt lat="42.0480999" lon="13.4041315"><ele>712.0</ele><time>2026-05-02T14:48:03.031Z</time></trkpt><trkpt lat="42.0481745" lon="13.4040599"><ele>712.0</ele><time>2026-05-02T14:48:04.031Z</time></trkpt><trkpt lat="42.0482502" lon="13.4039838"><ele>712.0</ele><time>2026-05-02T14:48:05.031Z</time></trkpt><trkpt lat="42.0483323" lon="13.4038961"><ele>713.2</ele><time>2026-05-02T14:48:06.031Z</time></trkpt><trkpt lat="42.0484163" lon="13.4037976"><ele>714.4000000000001</ele><time>2026-05-02T14:48:07.031Z</time></trkpt><trkpt lat="42.0485074" lon="13.4037048"><ele>715.5999999999999</ele><time>2026-05-02T14:48:08.031Z</time></trkpt><trkpt lat="42.0485946" lon="13.4036094"><ele>716.8</ele><time>2026-05-02T14:48:09.031Z</time></trkpt><trkpt lat="42.0486764" lon="13.403525"><ele>718.0</ele><time>2026-05-02T14:48:10.031Z</time></trkpt><trkpt lat="42.0487574" lon="13.4034426"><ele>718.0</ele><time>2026-05-02T14:48:11.03Z</time></trkpt><trkpt lat="42.0488329" lon="13.4033615"><ele>718.0</ele><time>2026-05-02T14:48:12.03Z</time></trkpt><trkpt lat="42.0489058" lon="13.4032829"><ele>718.0</ele><time>2026-05-02T14:48:13.031Z</time></trkpt><trkpt lat="42.0489764" lon="13.4032174"><ele>718.0</ele><time>2026-05-02T14:48:14.03Z</time></trkpt><trkpt lat="42.0490425" lon="13.4031515"><ele>718.0</ele><time>2026-05-02T14:48:15.031Z</time></trkpt><trkpt lat="42.0491059" lon="13.4030891"><ele>718.0</ele><time>2026-05-02T14:48:16.031Z</time></trkpt><trkpt lat="42.0491654" lon="13.4030261"><ele>718.0</ele><time>2026-05-02T14:48:17.031Z</time></trkpt><trkpt lat="42.0492211" lon="13.4029689"><ele>718.0</ele><time>2026-05-02T14:48:18.03Z</time></trkpt><trkpt lat="42.0492698" lon="13.402911"><ele>718.0</ele><time>2026-05-02T14:48:19.031Z</time></trkpt><trkpt lat="42.0493605" lon="13.4028181"><ele>718.0</ele><time>2026-05-02T14:48:21.031Z</time></trkpt><trkpt lat="42.0494304" lon="13.4027384"><ele>718.0</ele><time>2026-05-02T14:48:23.031Z</time></trkpt><trkpt lat="42.0494902" lon="13.4026791"><ele>718.0</ele><time>2026-05-02T14:48:25.031Z</time></trkpt><trkpt lat="42.0495464" lon="13.4026191"><ele>718.0</ele><time>2026-05-02T14:48:27.031Z</time></trkpt><trkpt lat="42.0496093" lon="13.4025441"><ele>718.0</ele><time>2026-05-02T14:48:29.031Z</time></trkpt><trkpt lat="42.049688" lon="13.4024598"><ele>718.0</ele><time>2026-05-02T14:48:31.031Z</time></trkpt><trkpt lat="42.0497696" lon="13.4023499"><ele>718.0</ele><time>2026-05-02T14:48:33.03Z</time></trkpt><trkpt lat="42.0498285" lon="13.4022717"><ele>718.0</ele><time>2026-05-02T14:48:34.031Z</time></trkpt><trkpt lat="42.0498928" lon="13.4022022"><ele>718.0</ele><time>2026-05-02T14:48:35.031Z</time></trkpt><trkpt lat="42.0499733" lon="13.4021282"><ele>718.0</ele><time>2026-05-02T14:48:36.03Z</time></trkpt><trkpt lat="42.050061" lon="13.4020483"><ele>718.0</ele><time>2026-05-02T14:48:37.031Z</time></trkpt><trkpt lat="42.0501608" lon="13.4019561"><ele>718.0</ele><time>2026-05-02T14:48:38.031Z</time></trkpt><trkpt lat="42.0502552" lon="13.401865"><ele>718.0</ele><time>2026-05-02T14:48:39.03Z</time></trkpt><trkpt lat="42.0503464" lon="13.4017734"><ele>718.0</ele><time>2026-05-02T14:48:40.031Z</time></trkpt><trkpt lat="42.0504313" lon="13.4016811"><ele>718.0</ele><time>2026-05-02T14:48:41.031Z</time></trkpt><trkpt lat="42.0505176" lon="13.4015965"><ele>718.0</ele><time>2026-05-02T14:48:42.031Z</time></trkpt><trkpt lat="42.050596" lon="13.4015055"><ele>718.0</ele><time>2026-05-02T14:48:43.031Z</time></trkpt><trkpt lat="42.0506706" lon="13.4014209"><ele>718.0</ele><time>2026-05-02T14:48:44.031Z</time></trkpt><trkpt lat="42.0507442" lon="13.4013302"><ele>717.6666666666667</ele><time>2026-05-02T14:48:45.03Z</time></trkpt><trkpt lat="42.0508142" lon="13.4012426"><ele>717.3333333333334</ele><time>2026-05-02T14:48:46.031Z</time></trkpt><trkpt lat="42.050884" lon="13.4011538"><ele>717.0</ele><time>2026-05-02T14:48:47.031Z</time></trkpt><trkpt lat="42.0509522" lon="13.4010824"><ele>716.6666666666666</ele><time>2026-05-02T14:48:48.031Z</time></trkpt><trkpt lat="42.051013" lon="13.4010217"><ele>716.3333333333333</ele><time>2026-05-02T14:48:49.031Z</time></trkpt><trkpt lat="42.0510741" lon="13.4009593"><ele>716.0</ele><time>2026-05-02T14:48:50.03Z</time></trkpt><trkpt lat="42.0511282" lon="13.4009014"><ele>716.0</ele><time>2026-05-02T14:48:51.03Z</time></trkpt><trkpt lat="42.0511797" lon="13.4008431"><ele>716.0</ele><time>2026-05-02T14:48:52.031Z</time></trkpt><trkpt lat="42.0512335" lon="13.4007878"><ele>716.0</ele><time>2026-05-02T14:48:53.031Z</time></trkpt><trkpt lat="42.0512862" lon="13.4007252"><ele>716.0</ele><time>2026-05-02T14:48:54.031Z</time></trkpt><trkpt lat="42.0513469" lon="13.4006586"><ele>716.0</ele><time>2026-05-02T14:48:55.031Z</time></trkpt><trkpt lat="42.0514273" lon="13.4005733"><ele>716.0</ele><time>2026-05-02T14:48:56.031Z</time></trkpt><trkpt lat="42.0515234" lon="13.4004769"><ele>716.5</ele><time>2026-05-02T14:48:57.031Z</time></trkpt><trkpt lat="42.0516253" lon="13.4003714"><ele>717.0</ele><time>2026-05-02T14:48:58.031Z</time></trkpt><trkpt lat="42.0517368" lon="13.4002632"><ele>717.5</ele><time>2026-05-02T14:48:59.031Z</time></trkpt><trkpt lat="42.0518508" lon="13.40015"><ele>718.0</ele><time>2026-05-02T14:49:00.031Z</time></trkpt><trkpt lat="42.051965" lon="13.4000354"><ele>718.0</ele><time>2026-05-02T14:49:01.03Z</time></trkpt><trkpt lat="42.0520821" lon="13.3999187"><ele>718.0</ele><time>2026-05-02T14:49:02.031Z</time></trkpt><trkpt lat="42.0521976" lon="13.3997982"><ele>718.0</ele><time>2026-05-02T14:49:03.031Z</time></trkpt><trkpt lat="42.0523116" lon="13.3996743"><ele>718.0</ele><time>2026-05-02T14:49:04.031Z</time></trkpt><trkpt lat="42.0524239" lon="13.3995604"><ele>717.75</ele><time>2026-05-02T14:49:05.031Z</time></trkpt><trkpt lat="42.0525318" lon="13.3994454"><ele>717.5</ele><time>2026-05-02T14:49:06.03Z</time></trkpt><trkpt lat="42.0526355" lon="13.3993356"><ele>717.25</ele><time>2026-05-02T14:49:07.031Z</time></trkpt><trkpt lat="42.0527339" lon="13.3992343"><ele>717.0</ele><time>2026-05-02T14:49:08.031Z</time></trkpt><trkpt lat="42.0528305" lon="13.3991318"><ele>717.0</ele><time>2026-05-02T14:49:09.031Z</time></trkpt><trkpt lat="42.0529275" lon="13.3990344"><ele>717.0</ele><time>2026-05-02T14:49:10.031Z</time></trkpt><trkpt lat="42.053022" lon="13.3989357"><ele>717.0</ele><time>2026-05-02T14:49:11.031Z</time></trkpt><trkpt lat="42.0531173" lon="13.3988362"><ele>717.0</ele><time>2026-05-02T14:49:12.031Z</time></trkpt><trkpt lat="42.0532052" lon="13.3987398"><ele>718.0</ele><time>2026-05-02T14:49:13.031Z</time></trkpt><trkpt lat="42.0532915" lon="13.3986452"><ele>719.0</ele><time>2026-05-02T14:49:14.031Z</time></trkpt><trkpt lat="42.0533845" lon="13.3985477"><ele>720.0</ele><time>2026-05-02T14:49:15.03Z</time></trkpt><trkpt lat="42.0534831" lon="13.3984519"><ele>721.0</ele><time>2026-05-02T14:49:16.031Z</time></trkpt><trkpt lat="42.053589" lon="13.3983475"><ele>721.0</ele><time>2026-05-02T14:49:17.031Z</time></trkpt><trkpt lat="42.0536935" lon="13.3982332"><ele>721.0</ele><time>2026-05-02T14:49:18.031Z</time></trkpt><trkpt lat="42.0537997" lon="13.3981229"><ele>721.0</ele><time>2026-05-02T14:49:19.03Z</time></trkpt><trkpt lat="42.0539024" lon="13.3980059"><ele>721.0</ele><time>2026-05-02T14:49:20.031Z</time></trkpt><trkpt lat="42.0540073" lon="13.3978914"><ele>720.5</ele><time>2026-05-02T14:49:21.031Z</time></trkpt><trkpt lat="42.0541138" lon="13.3977743"><ele>720.0</ele><time>2026-05-02T14:49:22.03Z</time></trkpt><trkpt lat="42.0542226" lon="13.3976487"><ele>719.5</ele><time>2026-05-02T14:49:23.031Z</time></trkpt><trkpt lat="42.0543297" lon="13.3975076"><ele>719.0</ele><time>2026-05-02T14:49:24.031Z</time></trkpt><trkpt lat="42.0544446" lon="13.3973627"><ele>719.0</ele><time>2026-05-02T14:49:25.031Z</time></trkpt><trkpt lat="42.0545641" lon="13.3972106"><ele>719.0</ele><time>2026-05-02T14:49:26.031Z</time></trkpt><trkpt lat="42.0546891" lon="13.3970527"><ele>719.0</ele><time>2026-05-02T14:49:27.031Z</time></trkpt><trkpt lat="42.0548161" lon="13.3968884"><ele>718.6666666666666</ele><time>2026-05-02T14:49:28.031Z</time></trkpt><trkpt lat="42.0549451" lon="13.3967142"><ele>718.3333333333334</ele><time>2026-05-02T14:49:29.031Z</time></trkpt><trkpt lat="42.0550785" lon="13.396542"><ele>718.0</ele><time>2026-05-02T14:49:30.031Z</time></trkpt><trkpt lat="42.0552118" lon="13.3963671"><ele>720.0</ele><time>2026-05-02T14:49:31.031Z</time></trkpt><trkpt lat="42.0553441" lon="13.3961925"><ele>722.0</ele><time>2026-05-02T14:49:32.03Z</time></trkpt><trkpt lat="42.0554792" lon="13.3960168"><ele>724.0</ele><time>2026-05-02T14:49:33.03Z</time></trkpt><trkpt lat="42.0556131" lon="13.3958375"><ele>724.0</ele><time>2026-05-02T14:49:34.031Z</time></trkpt><trkpt lat="42.0557521" lon="13.395659"><ele>724.0</ele><time>2026-05-02T14:49:35.03Z</time></trkpt><trkpt lat="42.0558872" lon="13.3954805"><ele>724.0</ele><time>2026-05-02T14:49:36.031Z</time></trkpt><trkpt lat="42.0560159" lon="13.3953078"><ele>722.6666666666667</ele><time>2026-05-02T14:49:37.031Z</time></trkpt><trkpt lat="42.0561421" lon="13.3951413"><ele>721.3333333333334</ele><time>2026-05-02T14:49:38.03Z</time></trkpt><trkpt lat="42.0562675" lon="13.3949809"><ele>720.0</ele><time>2026-05-02T14:49:39.031Z</time></trkpt><trkpt lat="42.0563912" lon="13.3948211"><ele>720.3333333333334</ele><time>2026-05-02T14:49:40.03Z</time></trkpt><trkpt lat="42.0565111" lon="13.3946596"><ele>720.6666666666667</ele><time>2026-05-02T14:49:41.031Z</time></trkpt><trkpt lat="42.0566338" lon="13.3944974"><ele>721.0</ele><time>2026-05-02T14:49:42.031Z</time></trkpt><trkpt lat="42.0567552" lon="13.3943345"><ele>719.3333333333334</ele><time>2026-05-02T14:49:43.031Z</time></trkpt><trkpt lat="42.0568741" lon="13.394178"><ele>717.6666666666666</ele><time>2026-05-02T14:49:44.031Z</time></trkpt><trkpt lat="42.0569925" lon="13.3940199"><ele>716.0</ele><time>2026-05-02T14:49:45.031Z</time></trkpt><trkpt lat="42.0571043" lon="13.3938675"><ele>715.75</ele><time>2026-05-02T14:49:46.031Z</time></trkpt><trkpt lat="42.0572126" lon="13.3937205"><ele>715.5</ele><time>2026-05-02T14:49:47.03Z</time></trkpt><trkpt lat="42.0573189" lon="13.3935799"><ele>715.25</ele><time>2026-05-02T14:49:48.031Z</time></trkpt><trkpt lat="42.0574217" lon="13.3934431"><ele>715.0</ele><time>2026-05-02T14:49:49.03Z</time></trkpt><trkpt lat="42.0575127" lon="13.3933216"><ele>715.0</ele><time>2026-05-02T14:49:50.031Z</time></trkpt><trkpt lat="42.0576016" lon="13.3932137"><ele>715.0</ele><time>2026-05-02T14:49:51.03Z</time></trkpt><trkpt lat="42.0576698" lon="13.3931268"><ele>715.0</ele><time>2026-05-02T14:49:52.031Z</time></trkpt><trkpt lat="42.0577188" lon="13.3930554"><ele>715.0</ele><time>2026-05-02T14:49:53.031Z</time></trkpt><trkpt lat="42.0578124" lon="13.392929"><ele>715.0</ele><time>2026-05-02T14:49:55.031Z</time></trkpt><trkpt lat="42.0578674" lon="13.3928589"><ele>714.4</ele><time>2026-05-02T14:49:56.03Z</time></trkpt><trkpt lat="42.0579286" lon="13.3927802"><ele>713.8</ele><time>2026-05-02T14:49:57.031Z</time></trkpt><trkpt lat="42.0579918" lon="13.3926999"><ele>713.2</ele><time>2026-05-02T14:49:58.031Z</time></trkpt><trkpt lat="42.0580595" lon="13.3926096"><ele>712.6</ele><time>2026-05-02T14:49:59.03Z</time></trkpt><trkpt lat="42.0581277" lon="13.3925167"><ele>712.0</ele><time>2026-05-02T14:50:00.031Z</time></trkpt><trkpt lat="42.0581917" lon="13.3924214"><ele>712.0</ele><time>2026-05-02T14:50:01.031Z</time></trkpt><trkpt lat="42.058258" lon="13.3923219"><ele>712.0</ele><time>2026-05-02T14:50:02.031Z</time></trkpt><trkpt lat="42.0583271" lon="13.3922219"><ele>712.0</ele><time>2026-05-02T14:50:03.031Z</time></trkpt><trkpt lat="42.0583989" lon="13.392107"><ele>712.0</ele><time>2026-05-02T14:50:04.031Z</time></trkpt><trkpt lat="42.0584944" lon="13.3919787"><ele>712.0</ele><time>2026-05-02T14:50:05.031Z</time></trkpt><trkpt lat="42.0585985" lon="13.3918498"><ele>712.0</ele><time>2026-05-02T14:50:06.031Z</time></trkpt><trkpt lat="42.0587087" lon="13.3917162"><ele>712.0</ele><time>2026-05-02T14:50:07.031Z</time></trkpt><trkpt lat="42.0588195" lon="13.3915841"><ele>712.0</ele><time>2026-05-02T14:50:08.031Z</time></trkpt><trkpt lat="42.0589247" lon="13.3914557"><ele>712.0</ele><time>2026-05-02T14:50:09.031Z</time></trkpt><trkpt lat="42.0590247" lon="13.3913252"><ele>712.25</ele><time>2026-05-02T14:50:10.031Z</time></trkpt><trkpt lat="42.0591227" lon="13.3912011"><ele>712.5</ele><time>2026-05-02T14:50:11.031Z</time></trkpt><trkpt lat="42.0592179" lon="13.3910794"><ele>712.75</ele><time>2026-05-02T14:50:12.031Z</time></trkpt><trkpt lat="42.0593098" lon="13.3909608"><ele>713.0</ele><time>2026-05-02T14:50:13.03Z</time></trkpt><trkpt lat="42.0593987" lon="13.390845"><ele>713.0</ele><time>2026-05-02T14:50:14.03Z</time></trkpt><trkpt lat="42.0594884" lon="13.3907274"><ele>713.0</ele><time>2026-05-02T14:50:15.031Z</time></trkpt><trkpt lat="42.059575" lon="13.3906088"><ele>713.0</ele><time>2026-05-02T14:50:16.03Z</time></trkpt><trkpt lat="42.0596638" lon="13.3904951"><ele>713.0</ele><time>2026-05-02T14:50:17.031Z</time></trkpt><trkpt lat="42.0597528" lon="13.3903825"><ele>712.5</ele><time>2026-05-02T14:50:18.031Z</time></trkpt><trkpt lat="42.0598388" lon="13.3902679"><ele>712.0</ele><time>2026-05-02T14:50:19.031Z</time></trkpt><trkpt lat="42.0599259" lon="13.3901544"><ele>711.5</ele><time>2026-05-02T14:50:20.031Z</time></trkpt><trkpt lat="42.060012" lon="13.3900393"><ele>711.0</ele><time>2026-05-02T14:50:21.031Z</time></trkpt><trkpt lat="42.0600954" lon="13.3899266"><ele>710.75</ele><time>2026-05-02T14:50:22.031Z</time></trkpt><trkpt lat="42.0601807" lon="13.3898148"><ele>710.5</ele><time>2026-05-02T14:50:23.031Z</time></trkpt><trkpt lat="42.0602703" lon="13.3896984"><ele>710.25</ele><time>2026-05-02T14:50:24.031Z</time></trkpt><trkpt lat="42.0603637" lon="13.3895775"><ele>710.0</ele><time>2026-05-02T14:50:25.031Z</time></trkpt><trkpt lat="42.0604575" lon="13.389458"><ele>710.0</ele><time>2026-05-02T14:50:26.031Z</time></trkpt><trkpt lat="42.0605516" lon="13.3893327"><ele>710.0</ele><time>2026-05-02T14:50:27.031Z</time></trkpt><trkpt lat="42.0606435" lon="13.3892116"><ele>710.0</ele><time>2026-05-02T14:50:28.031Z</time></trkpt><trkpt lat="42.0607298" lon="13.3890969"><ele>710.0</ele><time>2026-05-02T14:50:29.03Z</time></trkpt><trkpt lat="42.0608146" lon="13.3889877"><ele>710.0</ele><time>2026-05-02T14:50:30.031Z</time></trkpt><trkpt lat="42.0609007" lon="13.3888723"><ele>710.0</ele><time>2026-05-02T14:50:31.03Z</time></trkpt><trkpt lat="42.0609909" lon="13.3887571"><ele>710.0</ele><time>2026-05-02T14:50:32.031Z</time></trkpt><trkpt lat="42.0610806" lon="13.3886386"><ele>710.0</ele><time>2026-05-02T14:50:33.031Z</time></trkpt><trkpt lat="42.061172" lon="13.3885206"><ele>709.5</ele><time>2026-05-02T14:50:34.03Z</time></trkpt><trkpt lat="42.0612644" lon="13.3884056"><ele>709.0</ele><time>2026-05-02T14:50:35.031Z</time></trkpt><trkpt lat="42.0613569" lon="13.3882842"><ele>708.5</ele><time>2026-05-02T14:50:36.031Z</time></trkpt><trkpt lat="42.0614463" lon="13.3881657"><ele>708.0</ele><time>2026-05-02T14:50:37.031Z</time></trkpt><trkpt lat="42.0615347" lon="13.3880468"><ele>708.5</ele><time>2026-05-02T14:50:38.031Z</time></trkpt><trkpt lat="42.0616215" lon="13.3879338"><ele>709.0</ele><time>2026-05-02T14:50:39.031Z</time></trkpt><trkpt lat="42.0617036" lon="13.387824"><ele>709.5</ele><time>2026-05-02T14:50:40.031Z</time></trkpt><trkpt lat="42.0617861" lon="13.38772"><ele>710.0</ele><time>2026-05-02T14:50:41.03Z</time></trkpt><trkpt lat="42.0618678" lon="13.3876144"><ele>710.0</ele><time>2026-05-02T14:50:42.031Z</time></trkpt><trkpt lat="42.0619491" lon="13.3875078"><ele>710.0</ele><time>2026-05-02T14:50:43.031Z</time></trkpt><trkpt lat="42.0620332" lon="13.3874024"><ele>710.0</ele><time>2026-05-02T14:50:44.031Z</time></trkpt><trkpt lat="42.0621171" lon="13.3872879"><ele>710.0</ele><time>2026-05-02T14:50:45.031Z</time></trkpt><trkpt lat="42.0622084" lon="13.3871727"><ele>709.75</ele><time>2026-05-02T14:50:46.03Z</time></trkpt><trkpt lat="42.0623024" lon="13.3870513"><ele>709.5</ele><time>2026-05-02T14:50:47.031Z</time></trkpt><trkpt lat="42.0623962" lon="13.386923"><ele>709.25</ele><time>2026-05-02T14:50:48.031Z</time></trkpt><trkpt lat="42.0624939" lon="13.3867925"><ele>709.0</ele><time>2026-05-02T14:50:49.031Z</time></trkpt><trkpt lat="42.0625963" lon="13.3866623"><ele>708.5</ele><time>2026-05-02T14:50:50.031Z</time></trkpt><trkpt lat="42.0626982" lon="13.3865314"><ele>708.0</ele><time>2026-05-02T14:50:51.031Z</time></trkpt><trkpt lat="42.0627944" lon="13.386405"><ele>707.5</ele><time>2026-05-02T14:50:52.031Z</time></trkpt><trkpt lat="42.0628854" lon="13.3862807"><ele>707.0</ele><time>2026-05-02T14:50:53.031Z</time></trkpt><trkpt lat="42.062978" lon="13.3861641"><ele>707.0</ele><time>2026-05-02T14:50:54.031Z</time></trkpt><trkpt lat="42.063061" lon="13.3860567"><ele>707.0</ele><time>2026-05-02T14:50:55.031Z</time></trkpt><trkpt lat="42.0631407" lon="13.3859487"><ele>707.0</ele><time>2026-05-02T14:50:56.031Z</time></trkpt><trkpt lat="42.0632129" lon="13.3858513"><ele>707.0</ele><time>2026-05-02T14:50:57.031Z</time></trkpt><trkpt lat="42.0632852" lon="13.3857511"><ele>707.0</ele><time>2026-05-02T14:50:58.031Z</time></trkpt><trkpt lat="42.0633605" lon="13.3856563"><ele>707.0</ele><time>2026-05-02T14:50:59.031Z</time></trkpt><trkpt lat="42.063438" lon="13.3855531"><ele>707.0</ele><time>2026-05-02T14:51:00.031Z</time></trkpt><trkpt lat="42.0635226" lon="13.3854499"><ele>707.0</ele><time>2026-05-02T14:51:01.031Z</time></trkpt><trkpt lat="42.0636136" lon="13.3853373"><ele>707.0</ele><time>2026-05-02T14:51:02.031Z</time></trkpt><trkpt lat="42.0637065" lon="13.3852182"><ele>707.0</ele><time>2026-05-02T14:51:03.031Z</time></trkpt><trkpt lat="42.0638014" lon="13.3850896"><ele>707.0</ele><time>2026-05-02T14:51:04.031Z</time></trkpt><trkpt lat="42.0639006" lon="13.3849587"><ele>707.0</ele><time>2026-05-02T14:51:05.031Z</time></trkpt><trkpt lat="42.0639995" lon="13.3848299"><ele>707.0</ele><time>2026-05-02T14:51:06.031Z</time></trkpt><trkpt lat="42.0640985" lon="13.3846961"><ele>707.25</ele><time>2026-05-02T14:51:07.031Z</time></trkpt><trkpt lat="42.0642005" lon="13.3845643"><ele>707.5</ele><time>2026-05-02T14:51:08.031Z</time></trkpt><trkpt lat="42.0643045" lon="13.3844349"><ele>707.75</ele><time>2026-05-02T14:51:09.031Z</time></trkpt><trkpt lat="42.0644027" lon="13.384312"><ele>708.0</ele><time>2026-05-02T14:51:10.031Z</time></trkpt><trkpt lat="42.0644902" lon="13.3841926"><ele>708.0</ele><time>2026-05-02T14:51:11.031Z</time></trkpt><trkpt lat="42.064576" lon="13.3840769"><ele>708.0</ele><time>2026-05-02T14:51:12.031Z</time></trkpt><trkpt lat="42.0646562" lon="13.383968"><ele>708.0</ele><time>2026-05-02T14:51:13.031Z</time></trkpt><trkpt lat="42.0647361" lon="13.3838631"><ele>708.0</ele><time>2026-05-02T14:51:14.031Z</time></trkpt><trkpt lat="42.064818" lon="13.3837456"><ele>708.25</ele><time>2026-05-02T14:51:15.031Z</time></trkpt><trkpt lat="42.0649029" lon="13.3836265"><ele>708.5</ele><time>2026-05-02T14:51:16.031Z</time></trkpt><trkpt lat="42.0649911" lon="13.3835094"><ele>708.75</ele><time>2026-05-02T14:51:17.031Z</time></trkpt><trkpt lat="42.0650756" lon="13.3833874"><ele>709.0</ele><time>2026-05-02T14:51:18.031Z</time></trkpt><trkpt lat="42.0651655" lon="13.3832689"><ele>709.25</ele><time>2026-05-02T14:51:19.031Z</time></trkpt><trkpt lat="42.0652546" lon="13.3831529"><ele>709.5</ele><time>2026-05-02T14:51:20.031Z</time></trkpt><trkpt lat="42.0653378" lon="13.3830402"><ele>709.75</ele><time>2026-05-02T14:51:21.031Z</time></trkpt><trkpt lat="42.065412" lon="13.382915"><ele>710.0</ele><time>2026-05-02T14:51:22.031Z</time></trkpt><trkpt lat="42.0654901" lon="13.3828073"><ele>710.0</ele><time>2026-05-02T14:51:23.03Z</time></trkpt><trkpt lat="42.0655656" lon="13.3827159"><ele>710.0</ele><time>2026-05-02T14:51:24.031Z</time></trkpt><trkpt lat="42.0656354" lon="13.3826236"><ele>710.0</ele><time>2026-05-02T14:51:25.03Z</time></trkpt><trkpt lat="42.0657036" lon="13.3825355"><ele>710.0</ele><time>2026-05-02T14:51:26.031Z</time></trkpt><trkpt lat="42.0657703" lon="13.3824466"><ele>710.0</ele><time>2026-05-02T14:51:27.031Z</time></trkpt><trkpt lat="42.0658393" lon="13.3823547"><ele>710.0</ele><time>2026-05-02T14:51:28.031Z</time></trkpt><trkpt lat="42.0659146" lon="13.3822581"><ele>710.0</ele><time>2026-05-02T14:51:29.031Z</time></trkpt><trkpt lat="42.0659954" lon="13.382161"><ele>710.0</ele><time>2026-05-02T14:51:30.031Z</time></trkpt><trkpt lat="42.0660771" lon="13.3820522"><ele>710.0</ele><time>2026-05-02T14:51:31.031Z</time></trkpt><trkpt lat="42.0661651" lon="13.3819414"><ele>710.0</ele><time>2026-05-02T14:51:32.03Z</time></trkpt><trkpt lat="42.0662655" lon="13.3818301"><ele>710.25</ele><time>2026-05-02T14:51:33.031Z</time></trkpt><trkpt lat="42.0663749" lon="13.3817214"><ele>710.5</ele><time>2026-05-02T14:51:34.031Z</time></trkpt><trkpt lat="42.066498" lon="13.38163"><ele>710.75</ele><time>2026-05-02T14:51:35.031Z</time></trkpt><trkpt lat="42.0666264" lon="13.3815407"><ele>711.0</ele><time>2026-05-02T14:51:36.031Z</time></trkpt><trkpt lat="42.0667524" lon="13.3814597"><ele>711.25</ele><time>2026-05-02T14:51:37.031Z</time></trkpt><trkpt lat="42.0668726" lon="13.3813832"><ele>711.5</ele><time>2026-05-02T14:51:38.031Z</time></trkpt><trkpt lat="42.0669875" lon="13.3813084"><ele>711.75</ele><time>2026-05-02T14:51:39.031Z</time></trkpt><trkpt lat="42.0671003" lon="13.3812311"><ele>712.0</ele><time>2026-05-02T14:51:40.031Z</time></trkpt><trkpt lat="42.0672141" lon="13.3811576"><ele>712.0</ele><time>2026-05-02T14:51:41.031Z</time></trkpt><trkpt lat="42.0673238" lon="13.3810984"><ele>712.0</ele><time>2026-05-02T14:51:42.031Z</time></trkpt><trkpt lat="42.0674201" lon="13.3810428"><ele>712.0</ele><time>2026-05-02T14:51:43.031Z</time></trkpt><trkpt lat="42.0675052" lon="13.3810044"><ele>712.0</ele><time>2026-05-02T14:51:44.03Z</time></trkpt><trkpt lat="42.0675898" lon="13.3809941"><ele>712.0</ele><time>2026-05-02T14:51:45.031Z</time></trkpt><trkpt lat="42.0676894" lon="13.3810131"><ele>712.0</ele><time>2026-05-02T14:51:46.031Z</time></trkpt><trkpt lat="42.0677985" lon="13.3810524"><ele>712.0</ele><time>2026-05-02T14:51:47.031Z</time></trkpt><trkpt lat="42.0679144" lon="13.3811037"><ele>712.0</ele><time>2026-05-02T14:51:48.031Z</time></trkpt><trkpt lat="42.0680409" lon="13.3811555"><ele>712.0</ele><time>2026-05-02T14:51:49.031Z</time></trkpt><trkpt lat="42.0681776" lon="13.3812057"><ele>713.0</ele><time>2026-05-02T14:51:50.03Z</time></trkpt><trkpt lat="42.0683205" lon="13.3812481"><ele>714.0</ele><time>2026-05-02T14:51:51.031Z</time></trkpt><trkpt lat="42.0684701" lon="13.3813"><ele>715.0</ele><time>2026-05-02T14:51:52.031Z</time></trkpt><trkpt lat="42.068628" lon="13.3813526"><ele>715.3333333333334</ele><time>2026-05-02T14:51:53.031Z</time></trkpt><trkpt lat="42.068791" lon="13.3814048"><ele>715.6666666666666</ele><time>2026-05-02T14:51:54.031Z</time></trkpt><trkpt lat="42.0689456" lon="13.3814549"><ele>716.0</ele><time>2026-05-02T14:51:55.031Z</time></trkpt><trkpt lat="42.0690995" lon="13.3815064"><ele>716.0</ele><time>2026-05-02T14:51:56.031Z</time></trkpt><trkpt lat="42.0692537" lon="13.3815554"><ele>716.0</ele><time>2026-05-02T14:51:57.031Z</time></trkpt><trkpt lat="42.0694072" lon="13.3816047"><ele>716.0</ele><time>2026-05-02T14:51:58.031Z</time></trkpt><trkpt lat="42.0695629" lon="13.381656"><ele>716.0</ele><time>2026-05-02T14:51:59.03Z</time></trkpt><trkpt lat="42.0697148" lon="13.3817124"><ele>716.0</ele><time>2026-05-02T14:52:00.03Z</time></trkpt><trkpt lat="42.0698618" lon="13.381775"><ele>716.0</ele><time>2026-05-02T14:52:01.031Z</time></trkpt><trkpt lat="42.0700145" lon="13.3818428"><ele>716.3333333333333</ele><time>2026-05-02T14:52:02.031Z</time></trkpt><trkpt lat="42.0701672" lon="13.3819124"><ele>716.6666666666666</ele><time>2026-05-02T14:52:03.031Z</time></trkpt><trkpt lat="42.0703174" lon="13.3819993"><ele>717.0</ele><time>2026-05-02T14:52:04.031Z</time></trkpt><trkpt lat="42.0704666" lon="13.3820905"><ele>717.0</ele><time>2026-05-02T14:52:05.031Z</time></trkpt><trkpt lat="42.0706139" lon="13.3821803"><ele>717.0</ele><time>2026-05-02T14:52:06.03Z</time></trkpt><trkpt lat="42.0707657" lon="13.3822666"><ele>717.0</ele><time>2026-05-02T14:52:07.031Z</time></trkpt><trkpt lat="42.0709156" lon="13.382345"><ele>718.6666666666666</ele><time>2026-05-02T14:52:08.03Z</time></trkpt><trkpt lat="42.0710609" lon="13.3824215"><ele>720.3333333333333</ele><time>2026-05-02T14:52:09.031Z</time></trkpt><trkpt lat="42.0712065" lon="13.3824834"><ele>722.0</ele><time>2026-05-02T14:52:10.031Z</time></trkpt><trkpt lat="42.0713433" lon="13.3825313"><ele>722.0</ele><time>2026-05-02T14:52:11.031Z</time></trkpt><trkpt lat="42.0714692" lon="13.3825696"><ele>722.0</ele><time>2026-05-02T14:52:12.03Z</time></trkpt><trkpt lat="42.0715955" lon="13.382607"><ele>722.0</ele><time>2026-05-02T14:52:13.031Z</time></trkpt><trkpt lat="42.0717127" lon="13.3826395"><ele>722.0</ele><time>2026-05-02T14:52:14.03Z</time></trkpt><trkpt lat="42.0718125" lon="13.3826743"><ele>722.0</ele><time>2026-05-02T14:52:15.031Z</time></trkpt><trkpt lat="42.0718878" lon="13.3827321"><ele>722.0</ele><time>2026-05-02T14:52:16.031Z</time></trkpt><trkpt lat="42.0719681" lon="13.3827937"><ele>722.0</ele><time>2026-05-02T14:52:17.031Z</time></trkpt><trkpt lat="42.072048" lon="13.3828491"><ele>722.0</ele><time>2026-05-02T14:52:18.031Z</time></trkpt><trkpt lat="42.0721242" lon="13.3828796"><ele>722.0</ele><time>2026-05-02T14:52:19.031Z</time></trkpt><trkpt lat="42.0721897" lon="13.3828609"><ele>722.0</ele><time>2026-05-02T14:52:20.031Z</time></trkpt><trkpt lat="42.0722466" lon="13.3828124"><ele>722.0</ele><time>2026-05-02T14:52:21.031Z</time></trkpt><trkpt lat="42.0722783" lon="13.3827313"><ele>722.0</ele><time>2026-05-02T14:52:22.031Z</time></trkpt><trkpt lat="42.0723055" lon="13.3826222"><ele>722.0</ele><time>2026-05-02T14:52:23.031Z</time></trkpt><trkpt lat="42.0723477" lon="13.3825073"><ele>722.0</ele><time>2026-05-02T14:52:24.031Z</time></trkpt><trkpt lat="42.0724097" lon="13.3823835"><ele>722.0</ele><time>2026-05-02T14:52:25.031Z</time></trkpt><trkpt lat="42.0724933" lon="13.3822403"><ele>722.25</ele><time>2026-05-02T14:52:26.031Z</time></trkpt><trkpt lat="42.0725828" lon="13.3820933"><ele>722.5</ele><time>2026-05-02T14:52:27.031Z</time></trkpt><trkpt lat="42.0726694" lon="13.3819404"><ele>722.75</ele><time>2026-05-02T14:52:28.03Z</time></trkpt><trkpt lat="42.0727572" lon="13.3817811"><ele>723.0</ele><time>2026-05-02T14:52:29.03Z</time></trkpt><trkpt lat="42.0728525" lon="13.3816134"><ele>723.0</ele><time>2026-05-02T14:52:30.03Z</time></trkpt><trkpt lat="42.0729499" lon="13.3814505"><ele>723.0</ele><time>2026-05-02T14:52:31.031Z</time></trkpt><trkpt lat="42.0730484" lon="13.3812812"><ele>723.0</ele><time>2026-05-02T14:52:32.031Z</time></trkpt><trkpt lat="42.0731496" lon="13.3810983"><ele>723.3333333333334</ele><time>2026-05-02T14:52:33.031Z</time></trkpt><trkpt lat="42.0732576" lon="13.3809032"><ele>723.6666666666667</ele><time>2026-05-02T14:52:34.031Z</time></trkpt><trkpt lat="42.073371" lon="13.3807076"><ele>724.0</ele><time>2026-05-02T14:52:35.031Z</time></trkpt><trkpt lat="42.0734839" lon="13.3805188"><ele>724.0</ele><time>2026-05-02T14:52:36.031Z</time></trkpt><trkpt lat="42.0735992" lon="13.3803267"><ele>724.0</ele><time>2026-05-02T14:52:37.031Z</time></trkpt><trkpt lat="42.0737129" lon="13.3801289"><ele>724.0</ele><time>2026-05-02T14:52:38.031Z</time></trkpt><trkpt lat="42.073829" lon="13.379928"><ele>724.0</ele><time>2026-05-02T14:52:39.031Z</time></trkpt><trkpt lat="42.0739479" lon="13.3797209"><ele>724.0</ele><time>2026-05-02T14:52:40.03Z</time></trkpt><trkpt lat="42.0740693" lon="13.379517"><ele>724.0</ele><time>2026-05-02T14:52:41.031Z</time></trkpt><trkpt lat="42.0741788" lon="13.3793028"><ele>724.0</ele><time>2026-05-02T14:52:42.031Z</time></trkpt><trkpt lat="42.074278" lon="13.3790846"><ele>724.0</ele><time>2026-05-02T14:52:43.031Z</time></trkpt><trkpt lat="42.0743654" lon="13.3788607"><ele>724.0</ele><time>2026-05-02T14:52:44.031Z</time></trkpt><trkpt lat="42.0744363" lon="13.3786413"><ele>724.0</ele><time>2026-05-02T14:52:45.031Z</time></trkpt><trkpt lat="42.0745035" lon="13.3784153"><ele>724.0</ele><time>2026-05-02T14:52:46.03Z</time></trkpt><trkpt lat="42.0745725" lon="13.3781977"><ele>724.0</ele><time>2026-05-02T14:52:47.031Z</time></trkpt><trkpt lat="42.0746488" lon="13.3779975"><ele>723.0</ele><time>2026-05-02T14:52:48.031Z</time></trkpt><trkpt lat="42.0747455" lon="13.3778233"><ele>722.0</ele><time>2026-05-02T14:52:49.031Z</time></trkpt><trkpt lat="42.0748559" lon="13.3776708"><ele>721.0</ele><time>2026-05-02T14:52:50.031Z</time></trkpt><trkpt lat="42.0749781" lon="13.3775332"><ele>721.0</ele><time>2026-05-02T14:52:51.031Z</time></trkpt><trkpt lat="42.075115" lon="13.3774006"><ele>721.0</ele><time>2026-05-02T14:52:52.031Z</time></trkpt><trkpt lat="42.0752573" lon="13.3772823"><ele>721.0</ele><time>2026-05-02T14:52:53.031Z</time></trkpt><trkpt lat="42.0754094" lon="13.3771684"><ele>721.0</ele><time>2026-05-02T14:52:54.031Z</time></trkpt><trkpt lat="42.0755622" lon="13.3770622"><ele>721.0</ele><time>2026-05-02T14:52:55.031Z</time></trkpt><trkpt lat="42.0757235" lon="13.3769657"><ele>721.0</ele><time>2026-05-02T14:52:56.031Z</time></trkpt><trkpt lat="42.0758823" lon="13.3768654"><ele>721.6666666666667</ele><time>2026-05-02T14:52:57.03Z</time></trkpt><trkpt lat="42.0760401" lon="13.3767454"><ele>722.3333333333334</ele><time>2026-05-02T14:52:58.031Z</time></trkpt><trkpt lat="42.0761992" lon="13.376608"><ele>723.0</ele><time>2026-05-02T14:52:59.031Z</time></trkpt><trkpt lat="42.0763507" lon="13.3764546"><ele>723.3333333333334</ele><time>2026-05-02T14:53:00.031Z</time></trkpt><trkpt lat="42.0764986" lon="13.376287"><ele>723.6666666666667</ele><time>2026-05-02T14:53:01.03Z</time></trkpt><trkpt lat="42.0766383" lon="13.3761"><ele>724.0</ele><time>2026-05-02T14:53:02.031Z</time></trkpt><trkpt lat="42.0767759" lon="13.3759054"><ele>724.0</ele><time>2026-05-02T14:53:03.03Z</time></trkpt><trkpt lat="42.0769148" lon="13.3757113"><ele>724.0</ele><time>2026-05-02T14:53:04.031Z</time></trkpt><trkpt lat="42.0770528" lon="13.3755178"><ele>724.0</ele><time>2026-05-02T14:53:05.031Z</time></trkpt><trkpt lat="42.0771908" lon="13.3753197"><ele>723.6666666666667</ele><time>2026-05-02T14:53:06.031Z</time></trkpt><trkpt lat="42.0773286" lon="13.3751228"><ele>723.3333333333334</ele><time>2026-05-02T14:53:07.031Z</time></trkpt><trkpt lat="42.0774683" lon="13.374932"><ele>723.0</ele><time>2026-05-02T14:53:08.031Z</time></trkpt><trkpt lat="42.0776092" lon="13.3747368"><ele>722.0</ele><time>2026-05-02T14:53:09.031Z</time></trkpt><trkpt lat="42.0777575" lon="13.3745483"><ele>721.0</ele><time>2026-05-02T14:53:10.031Z</time></trkpt><trkpt lat="42.0779148" lon="13.3743682"><ele>720.0</ele><time>2026-05-02T14:53:11.03Z</time></trkpt><trkpt lat="42.078076" lon="13.3741994"><ele>720.0</ele><time>2026-05-02T14:53:12.03Z</time></trkpt><trkpt lat="42.0782439" lon="13.3740356"><ele>720.0</ele><time>2026-05-02T14:53:13.031Z</time></trkpt><trkpt lat="42.0784175" lon="13.3738837"><ele>720.0</ele><time>2026-05-02T14:53:14.031Z</time></trkpt><trkpt lat="42.0785974" lon="13.3737488"><ele>720.0</ele><time>2026-05-02T14:53:15.031Z</time></trkpt><trkpt lat="42.0787778" lon="13.3736209"><ele>720.0</ele><time>2026-05-02T14:53:16.03Z</time></trkpt><trkpt lat="42.0789612" lon="13.3735024"><ele>720.0</ele><time>2026-05-02T14:53:17.031Z</time></trkpt><trkpt lat="42.0791374" lon="13.3733888"><ele>720.0</ele><time>2026-05-02T14:53:18.031Z</time></trkpt><trkpt lat="42.0793075" lon="13.3732782"><ele>720.0</ele><time>2026-05-02T14:53:19.03Z</time></trkpt><trkpt lat="42.0794769" lon="13.3731696"><ele>720.0</ele><time>2026-05-02T14:53:20.031Z</time></trkpt><trkpt lat="42.079648" lon="13.3730564"><ele>718.3333333333334</ele><time>2026-05-02T14:53:21.03Z</time></trkpt><trkpt lat="42.0798179" lon="13.3729445"><ele>716.6666666666667</ele><time>2026-05-02T14:53:22.031Z</time></trkpt><trkpt lat="42.079989" lon="13.3728327"><ele>715.0</ele><time>2026-05-02T14:53:23.031Z</time></trkpt><trkpt lat="42.0801563" lon="13.3727228"><ele>715.0</ele><time>2026-05-02T14:53:24.031Z</time></trkpt><trkpt lat="42.0803211" lon="13.3726182"><ele>715.0</ele><time>2026-05-02T14:53:25.031Z</time></trkpt><trkpt lat="42.0804818" lon="13.3725134"><ele>715.0</ele><time>2026-05-02T14:53:26.031Z</time></trkpt><trkpt lat="42.0806408" lon="13.3724125"><ele>715.3333333333334</ele><time>2026-05-02T14:53:27.031Z</time></trkpt><trkpt lat="42.080794" lon="13.3723108"><ele>715.6666666666666</ele><time>2026-05-02T14:53:28.031Z</time></trkpt><trkpt lat="42.0809437" lon="13.3722174"><ele>716.0</ele><time>2026-05-02T14:53:29.031Z</time></trkpt><trkpt lat="42.0810829" lon="13.372127"><ele>716.0</ele><time>2026-05-02T14:53:30.031Z</time></trkpt><trkpt lat="42.0812095" lon="13.3720407"><ele>716.0</ele><time>2026-05-02T14:53:31.031Z</time></trkpt><trkpt lat="42.0813256" lon="13.3719645"><ele>716.0</ele><time>2026-05-02T14:53:32.031Z</time></trkpt><trkpt lat="42.0814289" lon="13.3718915"><ele>716.0</ele><time>2026-05-02T14:53:33.03Z</time></trkpt><trkpt lat="42.0815335" lon="13.371827"><ele>716.4</ele><time>2026-05-02T14:53:34.031Z</time></trkpt><trkpt lat="42.081635" lon="13.3717778"><ele>716.8</ele><time>2026-05-02T14:53:35.031Z</time></trkpt><trkpt lat="42.0817408" lon="13.3717474"><ele>717.1999999999999</ele><time>2026-05-02T14:53:36.031Z</time></trkpt><trkpt lat="42.0818385" lon="13.3717339"><ele>717.5999999999999</ele><time>2026-05-02T14:53:37.031Z</time></trkpt><trkpt lat="42.0819333" lon="13.3717393"><ele>718.0</ele><time>2026-05-02T14:53:38.03Z</time></trkpt><trkpt lat="42.0820135" lon="13.3717191"><ele>718.0</ele><time>2026-05-02T14:53:39.03Z</time></trkpt><trkpt lat="42.0820798" lon="13.371648"><ele>718.0</ele><time>2026-05-02T14:53:40.03Z</time></trkpt><trkpt lat="42.0821311" lon="13.3715541"><ele>718.0</ele><time>2026-05-02T14:53:41.031Z</time></trkpt><trkpt lat="42.0821967" lon="13.3714511"><ele>718.0</ele><time>2026-05-02T14:53:42.031Z</time></trkpt><trkpt lat="42.082297" lon="13.371361"><ele>718.0</ele><time>2026-05-02T14:53:43.031Z</time></trkpt><trkpt lat="42.0824169" lon="13.3712724"><ele>718.6666666666667</ele><time>2026-05-02T14:53:44.031Z</time></trkpt><trkpt lat="42.0825498" lon="13.3711718"><ele>719.3333333333334</ele><time>2026-05-02T14:53:45.03Z</time></trkpt><trkpt lat="42.0826988" lon="13.3710768"><ele>720.0</ele><time>2026-05-02T14:53:46.031Z</time></trkpt><trkpt lat="42.0828528" lon="13.3709758"><ele>720.0</ele><time>2026-05-02T14:53:47.031Z</time></trkpt><trkpt lat="42.0830094" lon="13.3708741"><ele>720.0</ele><time>2026-05-02T14:53:48.031Z</time></trkpt><trkpt lat="42.083173" lon="13.3707629"><ele>720.0</ele><time>2026-05-02T14:53:49.031Z</time></trkpt><trkpt lat="42.0833375" lon="13.3706566"><ele>719.6666666666666</ele><time>2026-05-02T14:53:50.031Z</time></trkpt><trkpt lat="42.0835017" lon="13.3705524"><ele>719.3333333333333</ele><time>2026-05-02T14:53:51.03Z</time></trkpt><trkpt lat="42.0836703" lon="13.3704462"><ele>719.0</ele><time>2026-05-02T14:53:52.03Z</time></trkpt><trkpt lat="42.0838396" lon="13.3703348"><ele>719.0</ele><time>2026-05-02T14:53:53.031Z</time></trkpt><trkpt lat="42.0840124" lon="13.3702244"><ele>719.0</ele><time>2026-05-02T14:53:54.031Z</time></trkpt><trkpt lat="42.0841845" lon="13.3701087"><ele>719.0</ele><time>2026-05-02T14:53:55.03Z</time></trkpt><trkpt lat="42.084355" lon="13.3699946"><ele>719.3333333333333</ele><time>2026-05-02T14:53:56.03Z</time></trkpt><trkpt lat="42.0845254" lon="13.3698842"><ele>719.6666666666666</ele><time>2026-05-02T14:53:57.031Z</time></trkpt><trkpt lat="42.0846923" lon="13.3697756"><ele>720.0</ele><time>2026-05-02T14:53:58.03Z</time></trkpt><trkpt lat="42.0848545" lon="13.3696681"><ele>720.6666666666666</ele><time>2026-05-02T14:53:59.031Z</time></trkpt><trkpt lat="42.0850082" lon="13.3695604"><ele>721.3333333333333</ele><time>2026-05-02T14:54:00.03Z</time></trkpt><trkpt lat="42.0851532" lon="13.3694665"><ele>722.0</ele><time>2026-05-02T14:54:01.031Z</time></trkpt><trkpt lat="42.0852959" lon="13.3693813"><ele>722.0</ele><time>2026-05-02T14:54:02.03Z</time></trkpt><trkpt lat="42.08543" lon="13.3692931"><ele>722.0</ele><time>2026-05-02T14:54:03.031Z</time></trkpt><trkpt lat="42.08556" lon="13.3692067"><ele>722.0</ele><time>2026-05-02T14:54:04.031Z</time></trkpt><trkpt lat="42.0856853" lon="13.3691159"><ele>722.0</ele><time>2026-05-02T14:54:05.03Z</time></trkpt><trkpt lat="42.0858066" lon="13.3690348"><ele>722.5</ele><time>2026-05-02T14:54:06.031Z</time></trkpt><trkpt lat="42.0859297" lon="13.3689584"><ele>723.0</ele><time>2026-05-02T14:54:07.031Z</time></trkpt><trkpt lat="42.0860526" lon="13.3688859"><ele>723.5</ele><time>2026-05-02T14:54:08.031Z</time></trkpt><trkpt lat="42.0861772" lon="13.3688033"><ele>724.0</ele><time>2026-05-02T14:54:09.031Z</time></trkpt><trkpt lat="42.0863075" lon="13.3687192"><ele>724.0</ele><time>2026-05-02T14:54:10.031Z</time></trkpt><trkpt lat="42.0864383" lon="13.3686362"><ele>724.0</ele><time>2026-05-02T14:54:11.031Z</time></trkpt><trkpt lat="42.0865675" lon="13.3685551"><ele>724.0</ele><time>2026-05-02T14:54:12.031Z</time></trkpt><trkpt lat="42.0866946" lon="13.3684746"><ele>724.0</ele><time>2026-05-02T14:54:13.031Z</time></trkpt><trkpt lat="42.0868251" lon="13.3683927"><ele>724.25</ele><time>2026-05-02T14:54:14.03Z</time></trkpt><trkpt lat="42.0869511" lon="13.3683068"><ele>724.5</ele><time>2026-05-02T14:54:15.031Z</time></trkpt><trkpt lat="42.0870773" lon="13.368222"><ele>724.75</ele><time>2026-05-02T14:54:16.031Z</time></trkpt><trkpt lat="42.0872039" lon="13.3681403"><ele>725.0</ele><time>2026-05-02T14:54:17.031Z</time></trkpt><trkpt lat="42.0873347" lon="13.3680613"><ele>724.5</ele><time>2026-05-02T14:54:18.03Z</time></trkpt><trkpt lat="42.0874647" lon="13.3679784"><ele>724.0</ele><time>2026-05-02T14:54:19.031Z</time></trkpt><trkpt lat="42.0875876" lon="13.3678999"><ele>723.5</ele><time>2026-05-02T14:54:20.031Z</time></trkpt><trkpt lat="42.0877067" lon="13.3678215"><ele>723.0</ele><time>2026-05-02T14:54:21.031Z</time></trkpt><trkpt lat="42.0878222" lon="13.3677419"><ele>723.0</ele><time>2026-05-02T14:54:22.031Z</time></trkpt><trkpt lat="42.0879407" lon="13.3676673"><ele>723.0</ele><time>2026-05-02T14:54:23.031Z</time></trkpt><trkpt lat="42.0880561" lon="13.3675959"><ele>723.0</ele><time>2026-05-02T14:54:24.031Z</time></trkpt><trkpt lat="42.0881667" lon="13.3675244"><ele>723.0</ele><time>2026-05-02T14:54:25.031Z</time></trkpt><trkpt lat="42.0882814" lon="13.3674474"><ele>724.0</ele><time>2026-05-02T14:54:26.031Z</time></trkpt><trkpt lat="42.0884011" lon="13.367365"><ele>725.0</ele><time>2026-05-02T14:54:27.031Z</time></trkpt><trkpt lat="42.0885159" lon="13.3672878"><ele>726.0</ele><time>2026-05-02T14:54:28.031Z</time></trkpt><trkpt lat="42.0886404" lon="13.3671996"><ele>727.0</ele><time>2026-05-02T14:54:29.03Z</time></trkpt><trkpt lat="42.0887668" lon="13.3671116"><ele>727.0</ele><time>2026-05-02T14:54:30.031Z</time></trkpt><trkpt lat="42.0888873" lon="13.3670318"><ele>727.0</ele><time>2026-05-02T14:54:31.031Z</time></trkpt><trkpt lat="42.0890071" lon="13.366959"><ele>727.0</ele><time>2026-05-02T14:54:32.031Z</time></trkpt><trkpt lat="42.0891178" lon="13.3668894"><ele>727.0</ele><time>2026-05-02T14:54:33.031Z</time></trkpt><trkpt lat="42.0892213" lon="13.366821"><ele>727.0</ele><time>2026-05-02T14:54:34.031Z</time></trkpt><trkpt lat="42.0893223" lon="13.3667543"><ele>727.0</ele><time>2026-05-02T14:54:35.031Z</time></trkpt><trkpt lat="42.08942" lon="13.3666874"><ele>727.0</ele><time>2026-05-02T14:54:36.03Z</time></trkpt><trkpt lat="42.0895125" lon="13.3666325"><ele>727.0</ele><time>2026-05-02T14:54:37.03Z</time></trkpt><trkpt lat="42.0895989" lon="13.3665794"><ele>727.0</ele><time>2026-05-02T14:54:38.031Z</time></trkpt><trkpt lat="42.0896824" lon="13.3665268"><ele>727.0</ele><time>2026-05-02T14:54:39.031Z</time></trkpt><trkpt lat="42.0897619" lon="13.3664704"><ele>727.0</ele><time>2026-05-02T14:54:40.031Z</time></trkpt><trkpt lat="42.08984" lon="13.3664169"><ele>727.0</ele><time>2026-05-02T14:54:41.03Z</time></trkpt><trkpt lat="42.0899161" lon="13.3663589"><ele>727.0</ele><time>2026-05-02T14:54:42.031Z</time></trkpt><trkpt lat="42.0899945" lon="13.366288"><ele>727.0</ele><time>2026-05-02T14:54:43.031Z</time></trkpt><trkpt lat="42.0900857" lon="13.3662195"><ele>727.25</ele><time>2026-05-02T14:54:44.031Z</time></trkpt><trkpt lat="42.0901921" lon="13.3661523"><ele>727.5</ele><time>2026-05-02T14:54:45.031Z</time></trkpt><trkpt lat="42.0903109" lon="13.366082"><ele>727.75</ele><time>2026-05-02T14:54:46.031Z</time></trkpt><trkpt lat="42.090436" lon="13.3660058"><ele>728.0</ele><time>2026-05-02T14:54:47.031Z</time></trkpt><trkpt lat="42.0905551" lon="13.3659397"><ele>728.0</ele><time>2026-05-02T14:54:48.031Z</time></trkpt><trkpt lat="42.0906684" lon="13.3658735"><ele>728.0</ele><time>2026-05-02T14:54:49.031Z</time></trkpt><trkpt lat="42.0907673" lon="13.3658114"><ele>728.0</ele><time>2026-05-02T14:54:50.031Z</time></trkpt><trkpt lat="42.0908652" lon="13.3657493"><ele>728.0</ele><time>2026-05-02T14:54:51.031Z</time></trkpt><trkpt lat="42.0909632" lon="13.3656763"><ele>728.2</ele><time>2026-05-02T14:54:52.031Z</time></trkpt><trkpt lat="42.0910617" lon="13.3656038"><ele>728.4</ele><time>2026-05-02T14:54:53.03Z</time></trkpt><trkpt lat="42.0911583" lon="13.3655387"><ele>728.6</ele><time>2026-05-02T14:54:54.031Z</time></trkpt><trkpt lat="42.091253" lon="13.365475"><ele>728.8000000000001</ele><time>2026-05-02T14:54:55.03Z</time></trkpt><trkpt lat="42.091341" lon="13.3654183"><ele>729.0</ele><time>2026-05-02T14:54:56.031Z</time></trkpt><trkpt lat="42.091423" lon="13.3653709"><ele>729.0</ele><time>2026-05-02T14:54:57.031Z</time></trkpt><trkpt lat="42.091499" lon="13.3653285"><ele>729.0</ele><time>2026-05-02T14:54:58.031Z</time></trkpt><trkpt lat="42.0915684" lon="13.3652827"><ele>729.0</ele><time>2026-05-02T14:54:59.031Z</time></trkpt><trkpt lat="42.0916322" lon="13.3652389"><ele>729.0</ele><time>2026-05-02T14:55:00.031Z</time></trkpt><trkpt lat="42.0917491" lon="13.3651811"><ele>729.0</ele><time>2026-05-02T14:55:02.031Z</time></trkpt><trkpt lat="42.0918089" lon="13.3651508"><ele>729.0</ele><time>2026-05-02T14:55:03.031Z</time></trkpt><trkpt lat="42.0918749" lon="13.3651139"><ele>729.0</ele><time>2026-05-02T14:55:04.031Z</time></trkpt><trkpt lat="42.0919482" lon="13.3650642"><ele>729.0</ele><time>2026-05-02T14:55:05.031Z</time></trkpt><trkpt lat="42.0920238" lon="13.3649979"><ele>729.0</ele><time>2026-05-02T14:55:06.03Z</time></trkpt><trkpt lat="42.0921002" lon="13.3649192"><ele>729.0</ele><time>2026-05-02T14:55:07.031Z</time></trkpt><trkpt lat="42.0921818" lon="13.3648338"><ele>729.0</ele><time>2026-05-02T14:55:08.031Z</time></trkpt><trkpt lat="42.0922654" lon="13.3647494"><ele>729.2</ele><time>2026-05-02T14:55:09.031Z</time></trkpt><trkpt lat="42.0923469" lon="13.3646586"><ele>729.4000000000001</ele><time>2026-05-02T14:55:10.031Z</time></trkpt><trkpt lat="42.0924285" lon="13.3645747"><ele>729.6</ele><time>2026-05-02T14:55:11.031Z</time></trkpt><trkpt lat="42.0924941" lon="13.3644993"><ele>729.8</ele><time>2026-05-02T14:55:12.031Z</time></trkpt><trkpt lat="42.0925532" lon="13.364446"><ele>730.0</ele><time>2026-05-02T14:55:13.031Z</time></trkpt><trkpt lat="42.0926578" lon="13.3644409"><ele>730.0</ele><time>2026-05-02T14:55:15.031Z</time></trkpt><trkpt lat="42.0927194" lon="13.3645041"><ele>730.0</ele><time>2026-05-02T14:55:16.03Z</time></trkpt><trkpt lat="42.0927881" lon="13.3645715"><ele>730.0</ele><time>2026-05-02T14:55:17.031Z</time></trkpt><trkpt lat="42.0928648" lon="13.3646626"><ele>730.0</ele><time>2026-05-02T14:55:18.031Z</time></trkpt><trkpt lat="42.092938" lon="13.3647439"><ele>730.0</ele><time>2026-05-02T14:55:19.03Z</time></trkpt><trkpt lat="42.093015" lon="13.3648296"><ele>729.75</ele><time>2026-05-02T14:55:20.031Z</time></trkpt><trkpt lat="42.0930991" lon="13.3649213"><ele>729.5</ele><time>2026-05-02T14:55:21.031Z</time></trkpt><trkpt lat="42.0931876" lon="13.3650205"><ele>729.25</ele><time>2026-05-02T14:55:22.031Z</time></trkpt><trkpt lat="42.0932827" lon="13.365127"><ele>729.0</ele><time>2026-05-02T14:55:23.031Z</time></trkpt><trkpt lat="42.093379" lon="13.3652341"><ele>729.5</ele><time>2026-05-02T14:55:24.031Z</time></trkpt><trkpt lat="42.0934713" lon="13.3653339"><ele>730.0</ele><time>2026-05-02T14:55:25.031Z</time></trkpt><trkpt lat="42.093561" lon="13.3654365"><ele>730.5</ele><time>2026-05-02T14:55:26.03Z</time></trkpt><trkpt lat="42.0936506" lon="13.3655322"><ele>731.0</ele><time>2026-05-02T14:55:27.031Z</time></trkpt><trkpt lat="42.0937335" lon="13.3656199"><ele>731.0</ele><time>2026-05-02T14:55:28.031Z</time></trkpt><trkpt lat="42.0938058" lon="13.3657031"><ele>731.0</ele><time>2026-05-02T14:55:29.031Z</time></trkpt><trkpt lat="42.0938663" lon="13.3657763"><ele>731.0</ele><time>2026-05-02T14:55:30.031Z</time></trkpt><trkpt lat="42.0939516" lon="13.365872"><ele>731.0</ele><time>2026-05-02T14:55:32.03Z</time></trkpt><trkpt lat="42.0940185" lon="13.3659511"><ele>731.0</ele><time>2026-05-02T14:55:34.031Z</time></trkpt><trkpt lat="42.0940709" lon="13.3660147"><ele>731.0</ele><time>2026-05-02T14:55:35.03Z</time></trkpt><trkpt lat="42.094135" lon="13.3661016"><ele>731.0</ele><time>2026-05-02T14:55:36.031Z</time></trkpt><trkpt lat="42.0941917" lon="13.3661895"><ele>731.0</ele><time>2026-05-02T14:55:37.031Z</time></trkpt><trkpt lat="42.0942434" lon="13.3662582"><ele>731.0</ele><time>2026-05-02T14:55:38.031Z</time></trkpt><trkpt lat="42.0943159" lon="13.3663644"><ele>731.0</ele><time>2026-05-02T14:55:40.03Z</time></trkpt><trkpt lat="42.094372" lon="13.3664419"><ele>731.0</ele><time>2026-05-02T14:55:42.031Z</time></trkpt><trkpt lat="42.0944304" lon="13.3665079"><ele>731.0</ele><time>2026-05-02T14:55:44.031Z</time></trkpt><trkpt lat="42.0944855" lon="13.3666063"><ele>731.0</ele><time>2026-05-02T14:55:46.031Z</time></trkpt><trkpt lat="42.0945493" lon="13.3665898"><ele>731.0</ele><time>2026-05-02T14:55:49.031Z</time></trkpt><trkpt lat="42.0944983" lon="13.3665205"><ele>731.0</ele><time>2026-05-02T14:55:51.031Z</time></trkpt><trkpt lat="42.0944004" lon="13.3664634"><ele>731.0</ele><time>2026-05-02T14:55:53.031Z</time></trkpt><trkpt lat="42.0943168" lon="13.3663341"><ele>731.0</ele><time>2026-05-02T14:55:55.031Z</time></trkpt><trkpt lat="42.0943219" lon="13.3661713"><ele>731.0</ele><time>2026-05-02T14:55:57.031Z</time></trkpt><trkpt lat="42.094365" lon="13.3660718"><ele>731.0</ele><time>2026-05-02T14:55:58.031Z</time></trkpt><trkpt lat="42.0944193" lon="13.3659734"><ele>731.0</ele><time>2026-05-02T14:55:59.03Z</time></trkpt><trkpt lat="42.0944867" lon="13.3658703"><ele>731.0</ele><time>2026-05-02T14:56:00.031Z</time></trkpt><trkpt lat="42.0945651" lon="13.3657598"><ele>731.0</ele><time>2026-05-02T14:56:01.031Z</time></trkpt><trkpt lat="42.0946449" lon="13.3656388"><ele>730.5</ele><time>2026-05-02T14:56:02.031Z</time></trkpt><trkpt lat="42.0947225" lon="13.3655189"><ele>730.0</ele><time>2026-05-02T14:56:03.031Z</time></trkpt><trkpt lat="42.0948091" lon="13.3653953"><ele>729.5</ele><time>2026-05-02T14:56:04.031Z</time></trkpt><trkpt lat="42.0948992" lon="13.3652694"><ele>729.0</ele><time>2026-05-02T14:56:05.031Z</time></trkpt><trkpt lat="42.0949903" lon="13.3651436"><ele>729.0</ele><time>2026-05-02T14:56:06.031Z</time></trkpt><trkpt lat="42.0950839" lon="13.36501"><ele>729.0</ele><time>2026-05-02T14:56:07.031Z</time></trkpt><trkpt lat="42.0951774" lon="13.3648757"><ele>729.0</ele><time>2026-05-02T14:56:08.031Z</time></trkpt><trkpt lat="42.0952707" lon="13.3647459"><ele>729.0</ele><time>2026-05-02T14:56:09.031Z</time></trkpt><trkpt lat="42.0953667" lon="13.3646201"><ele>728.75</ele><time>2026-05-02T14:56:10.031Z</time></trkpt><trkpt lat="42.0954631" lon="13.3645164"><ele>728.5</ele><time>2026-05-02T14:56:11.031Z</time></trkpt><trkpt lat="42.0955575" lon="13.3644124"><ele>728.25</ele><time>2026-05-02T14:56:12.03Z</time></trkpt><trkpt lat="42.0956448" lon="13.3643083"><ele>728.0</ele><time>2026-05-02T14:56:13.031Z</time></trkpt><trkpt lat="42.0957256" lon="13.3641898"><ele>727.25</ele><time>2026-05-02T14:56:14.031Z</time></trkpt><trkpt lat="42.0958116" lon="13.3640586"><ele>726.5</ele><time>2026-05-02T14:56:15.031Z</time></trkpt><trkpt lat="42.095903" lon="13.3639187"><ele>725.75</ele><time>2026-05-02T14:56:16.031Z</time></trkpt><trkpt lat="42.095999" lon="13.3637662"><ele>725.0</ele><time>2026-05-02T14:56:17.031Z</time></trkpt><trkpt lat="42.0961014" lon="13.3636135"><ele>724.0</ele><time>2026-05-02T14:56:18.031Z</time></trkpt><trkpt lat="42.0962086" lon="13.363459"><ele>723.0</ele><time>2026-05-02T14:56:19.031Z</time></trkpt><trkpt lat="42.0963107" lon="13.3633027"><ele>722.0</ele><time>2026-05-02T14:56:20.031Z</time></trkpt><trkpt lat="42.0964144" lon="13.363143"><ele>721.6666666666666</ele><time>2026-05-02T14:56:21.031Z</time></trkpt><trkpt lat="42.0965227" lon="13.3629814"><ele>721.3333333333334</ele><time>2026-05-02T14:56:22.031Z</time></trkpt><trkpt lat="42.096633" lon="13.3628153"><ele>721.0</ele><time>2026-05-02T14:56:23.03Z</time></trkpt><trkpt lat="42.0967439" lon="13.3626449"><ele>719.3333333333334</ele><time>2026-05-02T14:56:24.03Z</time></trkpt><trkpt lat="42.0968541" lon="13.3624755"><ele>717.6666666666666</ele><time>2026-05-02T14:56:25.031Z</time></trkpt><trkpt lat="42.096965" lon="13.3623027"><ele>716.0</ele><time>2026-05-02T14:56:26.031Z</time></trkpt><trkpt lat="42.0970767" lon="13.3621336"><ele>715.6666666666666</ele><time>2026-05-02T14:56:27.031Z</time></trkpt><trkpt lat="42.0971858" lon="13.3619601"><ele>715.3333333333334</ele><time>2026-05-02T14:56:28.03Z</time></trkpt><trkpt lat="42.0972985" lon="13.3617936"><ele>715.0</ele><time>2026-05-02T14:56:29.031Z</time></trkpt><trkpt lat="42.0974116" lon="13.3616259"><ele>714.6666666666667</ele><time>2026-05-02T14:56:30.031Z</time></trkpt><trkpt lat="42.0975229" lon="13.3614566"><ele>714.3333333333334</ele><time>2026-05-02T14:56:31.031Z</time></trkpt><trkpt lat="42.097631" lon="13.3612807"><ele>714.0</ele><time>2026-05-02T14:56:32.03Z</time></trkpt><trkpt lat="42.0977416" lon="13.361107"><ele>714.0</ele><time>2026-05-02T14:56:33.03Z</time></trkpt><trkpt lat="42.097854" lon="13.3609361"><ele>714.0</ele><time>2026-05-02T14:56:34.031Z</time></trkpt><trkpt lat="42.0979705" lon="13.3607697"><ele>714.0</ele><time>2026-05-02T14:56:35.03Z</time></trkpt><trkpt lat="42.0980933" lon="13.3606094"><ele>712.3333333333334</ele><time>2026-05-02T14:56:36.031Z</time></trkpt><trkpt lat="42.09822" lon="13.3604433"><ele>710.6666666666667</ele><time>2026-05-02T14:56:37.031Z</time></trkpt><trkpt lat="42.0983483" lon="13.360278"><ele>709.0</ele><time>2026-05-02T14:56:38.031Z</time></trkpt><trkpt lat="42.0984783" lon="13.3601124"><ele>709.0</ele><time>2026-05-02T14:56:39.031Z</time></trkpt><trkpt lat="42.0986127" lon="13.3599518"><ele>709.0</ele><time>2026-05-02T14:56:40.031Z</time></trkpt><trkpt lat="42.0987577" lon="13.3597974"><ele>709.0</ele><time>2026-05-02T14:56:41.031Z</time></trkpt><trkpt lat="42.0989006" lon="13.3596374"><ele>708.6666666666667</ele><time>2026-05-02T14:56:42.031Z</time></trkpt><trkpt lat="42.0990438" lon="13.3594736"><ele>708.3333333333334</ele><time>2026-05-02T14:56:43.031Z</time></trkpt><trkpt lat="42.0991834" lon="13.3593029"><ele>708.0</ele><time>2026-05-02T14:56:44.031Z</time></trkpt><trkpt lat="42.0993217" lon="13.3591289"><ele>708.0</ele><time>2026-05-02T14:56:45.03Z</time></trkpt><trkpt lat="42.0994546" lon="13.3589532"><ele>708.0</ele><time>2026-05-02T14:56:46.03Z</time></trkpt><trkpt lat="42.0995808" lon="13.3587898"><ele>708.0</ele><time>2026-05-02T14:56:47.031Z</time></trkpt><trkpt lat="42.0996987" lon="13.3586317"><ele>708.0</ele><time>2026-05-02T14:56:48.031Z</time></trkpt><trkpt lat="42.0998123" lon="13.3584831"><ele>708.0</ele><time>2026-05-02T14:56:49.031Z</time></trkpt><trkpt lat="42.0999226" lon="13.358347"><ele>708.0</ele><time>2026-05-02T14:56:50.031Z</time></trkpt><trkpt lat="42.1000315" lon="13.3582241"><ele>708.25</ele><time>2026-05-02T14:56:51.031Z</time></trkpt><trkpt lat="42.1001395" lon="13.3581118"><ele>708.5</ele><time>2026-05-02T14:56:52.031Z</time></trkpt><trkpt lat="42.1002478" lon="13.358002"><ele>708.75</ele><time>2026-05-02T14:56:53.031Z</time></trkpt><trkpt lat="42.1003592" lon="13.3578871"><ele>709.0</ele><time>2026-05-02T14:56:54.031Z</time></trkpt><trkpt lat="42.1004765" lon="13.3577691"><ele>709.0</ele><time>2026-05-02T14:56:55.031Z</time></trkpt><trkpt lat="42.1005969" lon="13.3576471"><ele>709.0</ele><time>2026-05-02T14:56:56.031Z</time></trkpt><trkpt lat="42.100706" lon="13.357519"><ele>709.0</ele><time>2026-05-02T14:56:57.031Z</time></trkpt><trkpt lat="42.1008002" lon="13.3573847"><ele>709.0</ele><time>2026-05-02T14:56:58.031Z</time></trkpt><trkpt lat="42.1008901" lon="13.3572705"><ele>709.25</ele><time>2026-05-02T14:56:59.031Z</time></trkpt><trkpt lat="42.1009992" lon="13.357172"><ele>709.5</ele><time>2026-05-02T14:57:00.031Z</time></trkpt><trkpt lat="42.101112" lon="13.3570824"><ele>709.75</ele><time>2026-05-02T14:57:01.031Z</time></trkpt><trkpt lat="42.1012252" lon="13.3569965"><ele>710.0</ele><time>2026-05-02T14:57:02.031Z</time></trkpt><trkpt lat="42.1013373" lon="13.3569064"><ele>710.0</ele><time>2026-05-02T14:57:03.031Z</time></trkpt><trkpt lat="42.1014396" lon="13.3568136"><ele>710.0</ele><time>2026-05-02T14:57:04.031Z</time></trkpt><trkpt lat="42.1015347" lon="13.3567182"><ele>710.0</ele><time>2026-05-02T14:57:05.031Z</time></trkpt><trkpt lat="42.1016292" lon="13.3566188"><ele>710.0</ele><time>2026-05-02T14:57:06.031Z</time></trkpt><trkpt lat="42.1017246" lon="13.3565066"><ele>710.75</ele><time>2026-05-02T14:57:07.031Z</time></trkpt><trkpt lat="42.1018193" lon="13.3563895"><ele>711.5</ele><time>2026-05-02T14:57:08.031Z</time></trkpt><trkpt lat="42.1019154" lon="13.3562614"><ele>712.25</ele><time>2026-05-02T14:57:09.031Z</time></trkpt><trkpt lat="42.1020195" lon="13.3561336"><ele>713.0</ele><time>2026-05-02T14:57:10.031Z</time></trkpt><trkpt lat="42.102127" lon="13.3560024"><ele>713.0</ele><time>2026-05-02T14:57:11.031Z</time></trkpt><trkpt lat="42.1022368" lon="13.3558632"><ele>713.0</ele><time>2026-05-02T14:57:12.031Z</time></trkpt><trkpt lat="42.1023519" lon="13.3557188"><ele>713.0</ele><time>2026-05-02T14:57:13.031Z</time></trkpt><trkpt lat="42.1024697" lon="13.3555653"><ele>713.0</ele><time>2026-05-02T14:57:14.031Z</time></trkpt><trkpt lat="42.1025915" lon="13.3554084"><ele>713.0</ele><time>2026-05-02T14:57:15.03Z</time></trkpt><trkpt lat="42.1027175" lon="13.3552455"><ele>713.0</ele><time>2026-05-02T14:57:16.03Z</time></trkpt><trkpt lat="42.1028463" lon="13.3550818"><ele>713.0</ele><time>2026-05-02T14:57:17.031Z</time></trkpt><trkpt lat="42.1029751" lon="13.3549131"><ele>713.0</ele><time>2026-05-02T14:57:18.031Z</time></trkpt><trkpt lat="42.1031092" lon="13.3547503"><ele>713.0</ele><time>2026-05-02T14:57:19.031Z</time></trkpt><trkpt lat="42.1032405" lon="13.3545807"><ele>716.3333333333333</ele><time>2026-05-02T14:57:20.03Z</time></trkpt><trkpt lat="42.1033734" lon="13.3544119"><ele>719.6666666666666</ele><time>2026-05-02T14:57:21.031Z</time></trkpt><trkpt lat="42.1035004" lon="13.3542399"><ele>723.0</ele><time>2026-05-02T14:57:22.031Z</time></trkpt><trkpt lat="42.1036254" lon="13.3540679"><ele>723.0</ele><time>2026-05-02T14:57:23.031Z</time></trkpt><trkpt lat="42.1037533" lon="13.3538932"><ele>723.0</ele><time>2026-05-02T14:57:24.031Z</time></trkpt><trkpt lat="42.1038764" lon="13.3537249"><ele>723.0</ele><time>2026-05-02T14:57:25.03Z</time></trkpt><trkpt lat="42.1040013" lon="13.3535564"><ele>725.3333333333334</ele><time>2026-05-02T14:57:26.031Z</time></trkpt><trkpt lat="42.1041275" lon="13.3534021"><ele>727.6666666666667</ele><time>2026-05-02T14:57:27.031Z</time></trkpt><trkpt lat="42.1042614" lon="13.3532605"><ele>730.0</ele><time>2026-05-02T14:57:28.03Z</time></trkpt><trkpt lat="42.104406" lon="13.3531315"><ele>731.0</ele><time>2026-05-02T14:57:29.031Z</time></trkpt><trkpt lat="42.1045553" lon="13.3530201"><ele>732.0</ele><time>2026-05-02T14:57:30.031Z</time></trkpt><trkpt lat="42.1046998" lon="13.352914"><ele>733.0</ele><time>2026-05-02T14:57:31.03Z</time></trkpt><trkpt lat="42.1048457" lon="13.3527955"><ele>735.3333333333334</ele><time>2026-05-02T14:57:32.03Z</time></trkpt><trkpt lat="42.1049881" lon="13.3526732"><ele>737.6666666666666</ele><time>2026-05-02T14:57:33.031Z</time></trkpt><trkpt lat="42.1051327" lon="13.3525591"><ele>740.0</ele><time>2026-05-02T14:57:34.03Z</time></trkpt><trkpt lat="42.1052752" lon="13.3524422"><ele>740.0</ele><time>2026-05-02T14:57:35.031Z</time></trkpt><trkpt lat="42.105418" lon="13.3523212"><ele>740.0</ele><time>2026-05-02T14:57:36.031Z</time></trkpt><trkpt lat="42.1055622" lon="13.3522036"><ele>740.0</ele><time>2026-05-02T14:57:37.03Z</time></trkpt><trkpt lat="42.1057047" lon="13.3520849"><ele>741.0</ele><time>2026-05-02T14:57:38.031Z</time></trkpt><trkpt lat="42.1058454" lon="13.3519739"><ele>742.0</ele><time>2026-05-02T14:57:39.031Z</time></trkpt><trkpt lat="42.1059659" lon="13.3518709"><ele>743.0</ele><time>2026-05-02T14:57:40.031Z</time></trkpt><trkpt lat="42.1060803" lon="13.3517774"><ele>744.0</ele><time>2026-05-02T14:57:41.031Z</time></trkpt><trkpt lat="42.1061899" lon="13.3516885"><ele>744.0</ele><time>2026-05-02T14:57:42.031Z</time></trkpt><trkpt lat="42.1062849" lon="13.35161"><ele>744.0</ele><time>2026-05-02T14:57:43.031Z</time></trkpt><trkpt lat="42.1063743" lon="13.3515379"><ele>744.0</ele><time>2026-05-02T14:57:44.031Z</time></trkpt><trkpt lat="42.1064611" lon="13.3514812"><ele>744.0</ele><time>2026-05-02T14:57:45.031Z</time></trkpt><trkpt lat="42.1065571" lon="13.3514333"><ele>744.0</ele><time>2026-05-02T14:57:46.031Z</time></trkpt><trkpt lat="42.1066564" lon="13.3513878"><ele>744.6</ele><time>2026-05-02T14:57:47.031Z</time></trkpt><trkpt lat="42.106749" lon="13.3513455"><ele>745.2</ele><time>2026-05-02T14:57:48.031Z</time></trkpt><trkpt lat="42.1068257" lon="13.3513118"><ele>745.8000000000001</ele><time>2026-05-02T14:57:49.031Z</time></trkpt><trkpt lat="42.1068837" lon="13.3512617"><ele>746.4000000000001</ele><time>2026-05-02T14:57:50.031Z</time></trkpt><trkpt lat="42.1069484" lon="13.3510941"><ele>747.0</ele><time>2026-05-02T14:57:52.03Z</time></trkpt><trkpt lat="42.1069705" lon="13.350968"><ele>747.0</ele><time>2026-05-02T14:57:53.031Z</time></trkpt><trkpt lat="42.1070003" lon="13.3508167"><ele>747.0</ele><time>2026-05-02T14:57:54.031Z</time></trkpt><trkpt lat="42.1070308" lon="13.3506675"><ele>747.0</ele><time>2026-05-02T14:57:55.031Z</time></trkpt><trkpt lat="42.1070577" lon="13.3505349"><ele>747.0</ele><time>2026-05-02T14:57:56.03Z</time></trkpt><trkpt lat="42.1070704" lon="13.3504127"><ele>747.0</ele><time>2026-05-02T14:57:57.031Z</time></trkpt><trkpt lat="42.1070857" lon="13.3503003"><ele>747.3333333333334</ele><time>2026-05-02T14:57:58.031Z</time></trkpt><trkpt lat="42.1071132" lon="13.3501878"><ele>747.6666666666666</ele><time>2026-05-02T14:57:59.031Z</time></trkpt><trkpt lat="42.1071493" lon="13.3500878"><ele>748.0</ele><time>2026-05-02T14:58:00.031Z</time></trkpt><trkpt lat="42.1071981" lon="13.3499904"><ele>748.3333333333333</ele><time>2026-05-02T14:58:01.031Z</time></trkpt><trkpt lat="42.1072572" lon="13.3498929"><ele>748.6666666666666</ele><time>2026-05-02T14:58:02.031Z</time></trkpt><trkpt lat="42.107319" lon="13.3498025"><ele>749.0</ele><time>2026-05-02T14:58:03.03Z</time></trkpt><trkpt lat="42.1073702" lon="13.3497291"><ele>749.3333333333333</ele><time>2026-05-02T14:58:04.03Z</time></trkpt><trkpt lat="42.1074462" lon="13.3496224"><ele>749.6666666666666</ele><time>2026-05-02T14:58:06.031Z</time></trkpt><trkpt lat="42.1075048" lon="13.3495436"><ele>750.0</ele><time>2026-05-02T14:58:08.031Z</time></trkpt><trkpt lat="42.107566" lon="13.3494528"><ele>750.3333333333334</ele><time>2026-05-02T14:58:11.031Z</time></trkpt><trkpt lat="42.1076293" lon="13.3493669"><ele>750.6666666666667</ele><time>2026-05-02T14:58:13.031Z</time></trkpt><trkpt lat="42.1076958" lon="13.3493367"><ele>751.0</ele><time>2026-05-02T14:58:15.031Z</time></trkpt><trkpt lat="42.107787" lon="13.3493378"><ele>751.0</ele><time>2026-05-02T14:58:17.031Z</time></trkpt><trkpt lat="42.1078896" lon="13.349336"><ele>751.0</ele><time>2026-05-02T14:58:19.031Z</time></trkpt><trkpt lat="42.1080001" lon="13.3493298"><ele>751.0</ele><time>2026-05-02T14:58:21.031Z</time></trkpt><trkpt lat="42.1081142" lon="13.3493446"><ele>751.0</ele><time>2026-05-02T14:58:23.031Z</time></trkpt><trkpt lat="42.1081794" lon="13.3493419"><ele>751.0</ele><time>2026-05-02T14:58:24.03Z</time></trkpt><trkpt lat="42.1082518" lon="13.349341"><ele>752.1666666666667</ele><time>2026-05-02T14:58:25.031Z</time></trkpt><trkpt lat="42.1083247" lon="13.3493477"><ele>753.3333333333334</ele><time>2026-05-02T14:58:26.03Z</time></trkpt><trkpt lat="42.1084" lon="13.3493546"><ele>754.5</ele><time>2026-05-02T14:58:27.031Z</time></trkpt><trkpt lat="42.1084695" lon="13.3493676"><ele>755.6666666666666</ele><time>2026-05-02T14:58:28.031Z</time></trkpt><trkpt lat="42.1085888" lon="13.3493687"><ele>756.8333333333333</ele><time>2026-05-02T14:58:30.031Z</time></trkpt><trkpt lat="42.1086957" lon="13.3493648"><ele>758.0</ele><time>2026-05-02T14:58:32.03Z</time></trkpt><trkpt lat="42.1087604" lon="13.3493723"><ele>758.0000000000001</ele><time>2026-05-02T14:58:33.031Z</time></trkpt><trkpt lat="42.1088353" lon="13.3493839"><ele>758.0</ele><time>2026-05-02T14:58:34.028Z</time></trkpt><trkpt lat="42.1089134" lon="13.3493912"><ele>758.0</ele><time>2026-05-02T14:58:35.028Z</time></trkpt><trkpt lat="42.1089874" lon="13.3493849"><ele>758.0</ele><time>2026-05-02T14:58:36.028Z</time></trkpt><trkpt lat="42.1090532" lon="13.349374"><ele>758.0</ele><time>2026-05-02T14:58:37.028Z</time></trkpt><trkpt lat="42.109114" lon="13.3493514"><ele>758.0000000000001</ele><time>2026-05-02T14:58:38.028Z</time></trkpt><trkpt lat="42.1091802" lon="13.3493297"><ele>758.0</ele><time>2026-05-02T14:58:39.027Z</time></trkpt><trkpt lat="42.1092605" lon="13.3493093"><ele>758.6666666666666</ele><time>2026-05-02T14:58:40.028Z</time></trkpt><trkpt lat="42.1093414" lon="13.3492915"><ele>759.3333333333333</ele><time>2026-05-02T14:58:41.028Z</time></trkpt><trkpt lat="42.1094209" lon="13.3492673"><ele>760.0</ele><time>2026-05-02T14:58:42.028Z</time></trkpt><trkpt lat="42.1094956" lon="13.3492373"><ele>760.6666666666666</ele><time>2026-05-02T14:58:43.027Z</time></trkpt><trkpt lat="42.1095644" lon="13.3492024"><ele>761.3333333333334</ele><time>2026-05-02T14:58:44.028Z</time></trkpt><trkpt lat="42.1096405" lon="13.3491666"><ele>762.0</ele><time>2026-05-02T14:58:45.028Z</time></trkpt><trkpt lat="42.1097185" lon="13.3491277"><ele>762.0</ele><time>2026-05-02T14:58:46.028Z</time></trkpt><trkpt lat="42.1098024" lon="13.3490912"><ele>762.0</ele><time>2026-05-02T14:58:47.028Z</time></trkpt><trkpt lat="42.1098788" lon="13.3490591"><ele>762.0</ele><time>2026-05-02T14:58:48.028Z</time></trkpt><trkpt lat="42.109948" lon="13.3490169"><ele>762.0</ele><time>2026-05-02T14:58:49.027Z</time></trkpt><trkpt lat="42.1100126" lon="13.348959"><ele>762.0</ele><time>2026-05-02T14:58:50.028Z</time></trkpt><trkpt lat="42.1100757" lon="13.3488844"><ele>762.0</ele><time>2026-05-02T14:58:51.028Z</time></trkpt><trkpt lat="42.1101441" lon="13.3488014"><ele>763.3333333333334</ele><time>2026-05-02T14:58:52.028Z</time></trkpt><trkpt lat="42.1101985" lon="13.3487193"><ele>764.6666666666667</ele><time>2026-05-02T14:58:53.027Z</time></trkpt><trkpt lat="42.1102423" lon="13.3486577"><ele>766.0</ele><time>2026-05-02T14:58:54.027Z</time></trkpt><trkpt lat="42.1103294" lon="13.3486069"><ele>767.3333333333334</ele><time>2026-05-02T14:58:56.028Z</time></trkpt><trkpt lat="42.1104412" lon="13.3485958"><ele>768.6666666666667</ele><time>2026-05-02T14:58:58.027Z</time></trkpt><trkpt lat="42.1105115" lon="13.3486035"><ele>770.0</ele><time>2026-05-02T14:58:59.028Z</time></trkpt><trkpt lat="42.110585" lon="13.3486132"><ele>770.0000000000001</ele><time>2026-05-02T14:59:00.027Z</time></trkpt><trkpt lat="42.1106561" lon="13.3486136"><ele>770.0</ele><time>2026-05-02T14:59:01.028Z</time></trkpt><trkpt lat="42.1107264" lon="13.3486042"><ele>770.0</ele><time>2026-05-02T14:59:02.028Z</time></trkpt><trkpt lat="42.1107972" lon="13.348595"><ele>770.0</ele><time>2026-05-02T14:59:03.028Z</time></trkpt><trkpt lat="42.1108676" lon="13.3485886"><ele>770.0000000000001</ele><time>2026-05-02T14:59:04.028Z</time></trkpt><trkpt lat="42.1109535" lon="13.3485889"><ele>770.0</ele><time>2026-05-02T14:59:05.028Z</time></trkpt><trkpt lat="42.1110387" lon="13.3485961"><ele>771.0000000000001</ele><time>2026-05-02T14:59:06.027Z</time></trkpt><trkpt lat="42.1111259" lon="13.3486069"><ele>772.0</ele><time>2026-05-02T14:59:07.028Z</time></trkpt><trkpt lat="42.1112145" lon="13.3486136"><ele>773.0</ele><time>2026-05-02T14:59:08.028Z</time></trkpt><trkpt lat="42.1113006" lon="13.3486232"><ele>774.0</ele><time>2026-05-02T14:59:09.028Z</time></trkpt><trkpt lat="42.1113836" lon="13.3486365"><ele>775.0000000000001</ele><time>2026-05-02T14:59:10.028Z</time></trkpt><trkpt lat="42.1114718" lon="13.3486455"><ele>776.0</ele><time>2026-05-02T14:59:11.028Z</time></trkpt><trkpt lat="42.1115599" lon="13.3486405"><ele>776.3333333333334</ele><time>2026-05-02T14:59:12.028Z</time></trkpt><trkpt lat="42.1116481" lon="13.3486242"><ele>776.6666666666667</ele><time>2026-05-02T14:59:13.028Z</time></trkpt><trkpt lat="42.1117407" lon="13.3486035"><ele>777.0</ele><time>2026-05-02T14:59:14.027Z</time></trkpt><trkpt lat="42.1118313" lon="13.3485817"><ele>777.3333333333333</ele><time>2026-05-02T14:59:15.027Z</time></trkpt><trkpt lat="42.1119113" lon="13.3485618"><ele>777.6666666666666</ele><time>2026-05-02T14:59:16.028Z</time></trkpt><trkpt lat="42.1119782" lon="13.3485552"><ele>778.0</ele><time>2026-05-02T14:59:17.028Z</time></trkpt><trkpt lat="42.112097" lon="13.3485556"><ele>777.9999999999999</ele><time>2026-05-02T14:59:19.028Z</time></trkpt><trkpt lat="42.112159" lon="13.3485714"><ele>778.0</ele><time>2026-05-02T14:59:20.028Z</time></trkpt><trkpt lat="42.1122285" lon="13.3485888"><ele>778.0</ele><time>2026-05-02T14:59:21.027Z</time></trkpt><trkpt lat="42.112303" lon="13.3485987"><ele>778.0</ele><time>2026-05-02T14:59:22.028Z</time></trkpt><trkpt lat="42.1123816" lon="13.3485961"><ele>777.9999999999999</ele><time>2026-05-02T14:59:23.027Z</time></trkpt><trkpt lat="42.1124608" lon="13.348595"><ele>778.0</ele><time>2026-05-02T14:59:24.027Z</time></trkpt><trkpt lat="42.1125451" lon="13.3485836"><ele>779.8</ele><time>2026-05-02T14:59:25.028Z</time></trkpt><trkpt lat="42.1126311" lon="13.3485741"><ele>781.5999999999999</ele><time>2026-05-02T14:59:26.027Z</time></trkpt><trkpt lat="42.1127235" lon="13.3485592"><ele>783.4000000000001</ele><time>2026-05-02T14:59:27.028Z</time></trkpt><trkpt lat="42.1128234" lon="13.3485376"><ele>785.2</ele><time>2026-05-02T14:59:28.028Z</time></trkpt><trkpt lat="42.1129271" lon="13.3485059"><ele>787.0</ele><time>2026-05-02T14:59:29.028Z</time></trkpt><trkpt lat="42.1130269" lon="13.3484712"><ele>787.0</ele><time>2026-05-02T14:59:30.028Z</time></trkpt><trkpt lat="42.1131242" lon="13.3484388"><ele>787.0</ele><time>2026-05-02T14:59:31.028Z</time></trkpt><trkpt lat="42.1132149" lon="13.3484042"><ele>787.0</ele><time>2026-05-02T14:59:32.028Z</time></trkpt><trkpt lat="42.1133009" lon="13.3483587"><ele>787.0</ele><time>2026-05-02T14:59:33.028Z</time></trkpt><trkpt lat="42.1133879" lon="13.3482912"><ele>787.0</ele><time>2026-05-02T14:59:34.028Z</time></trkpt><trkpt lat="42.1134771" lon="13.3482355"><ele>787.8</ele><time>2026-05-02T14:59:35.028Z</time></trkpt><trkpt lat="42.1135665" lon="13.3481908"><ele>788.6</ele><time>2026-05-02T14:59:36.028Z</time></trkpt><trkpt lat="42.1136573" lon="13.3481483"><ele>789.4</ele><time>2026-05-02T14:59:37.027Z</time></trkpt><trkpt lat="42.1137442" lon="13.3481071"><ele>790.1999999999999</ele><time>2026-05-02T14:59:38.028Z</time></trkpt><trkpt lat="42.1138313" lon="13.3480671"><ele>791.0</ele><time>2026-05-02T14:59:39.027Z</time></trkpt><trkpt lat="42.1139224" lon="13.3480281"><ele>791.0</ele><time>2026-05-02T14:59:40.028Z</time></trkpt><trkpt lat="42.1140204" lon="13.3479815"><ele>791.0</ele><time>2026-05-02T14:59:41.028Z</time></trkpt><trkpt lat="42.1141094" lon="13.3479261"><ele>791.0</ele><time>2026-05-02T14:59:42.028Z</time></trkpt><trkpt lat="42.1141937" lon="13.3478723"><ele>791.0</ele><time>2026-05-02T14:59:43.028Z</time></trkpt><trkpt lat="42.1142786" lon="13.3478251"><ele>791.0</ele><time>2026-05-02T14:59:44.028Z</time></trkpt><trkpt lat="42.1143556" lon="13.3477825"><ele>791.7142857142857</ele><time>2026-05-02T14:59:45.028Z</time></trkpt><trkpt lat="42.1144244" lon="13.3477588"><ele>792.4285714285714</ele><time>2026-05-02T14:59:46.028Z</time></trkpt><trkpt lat="42.1144895" lon="13.3477384"><ele>793.1428571428571</ele><time>2026-05-02T14:59:47.028Z</time></trkpt><trkpt lat="42.1145565" lon="13.3477277"><ele>793.8571428571429</ele><time>2026-05-02T14:59:48.028Z</time></trkpt><trkpt lat="42.1146327" lon="13.3477262"><ele>794.5714285714286</ele><time>2026-05-02T14:59:49.027Z</time></trkpt><trkpt lat="42.1147063" lon="13.3477244"><ele>795.2857142857142</ele><time>2026-05-02T14:59:50.028Z</time></trkpt><trkpt lat="42.1147851" lon="13.3477171"><ele>796.0</ele><time>2026-05-02T14:59:51.028Z</time></trkpt><trkpt lat="42.1148668" lon="13.3477092"><ele>796.9999999999999</ele><time>2026-05-02T14:59:52.028Z</time></trkpt><trkpt lat="42.1149506" lon="13.3477073"><ele>798.0</ele><time>2026-05-02T14:59:53.028Z</time></trkpt><trkpt lat="42.1150336" lon="13.3477103"><ele>799.0</ele><time>2026-05-02T14:59:54.028Z</time></trkpt><trkpt lat="42.1151186" lon="13.3477049"><ele>800.0</ele><time>2026-05-02T14:59:55.028Z</time></trkpt><trkpt lat="42.1151987" lon="13.3476921"><ele>800.9999999999999</ele><time>2026-05-02T14:59:56.028Z</time></trkpt><trkpt lat="42.1152824" lon="13.3476636"><ele>802.0</ele><time>2026-05-02T14:59:57.028Z</time></trkpt><trkpt lat="42.1153658" lon="13.3476269"><ele>802.0</ele><time>2026-05-02T14:59:58.028Z</time></trkpt><trkpt lat="42.1154412" lon="13.3475839"><ele>802.0</ele><time>2026-05-02T14:59:59.027Z</time></trkpt><trkpt lat="42.1155219" lon="13.3475327"><ele>802.0</ele><time>2026-05-02T15:00:00.028Z</time></trkpt><trkpt lat="42.1156087" lon="13.3474762"><ele>802.0</ele><time>2026-05-02T15:00:01.028Z</time></trkpt><trkpt lat="42.1156979" lon="13.3474218"><ele>802.0</ele><time>2026-05-02T15:00:02.028Z</time></trkpt><trkpt lat="42.1157915" lon="13.3473567"><ele>802.8</ele><time>2026-05-02T15:00:03.028Z</time></trkpt><trkpt lat="42.1158793" lon="13.3472872"><ele>803.6</ele><time>2026-05-02T15:00:04.028Z</time></trkpt><trkpt lat="42.1159622" lon="13.3472206"><ele>804.4</ele><time>2026-05-02T15:00:05.027Z</time></trkpt><trkpt lat="42.1160338" lon="13.3471645"><ele>805.1999999999999</ele><time>2026-05-02T15:00:06.028Z</time></trkpt><trkpt lat="42.116095" lon="13.3471127"><ele>806.0</ele><time>2026-05-02T15:00:07.027Z</time></trkpt><trkpt lat="42.1161984" lon="13.3470258"><ele>806.3333333333334</ele><time>2026-05-02T15:00:09.028Z</time></trkpt><trkpt lat="42.1162514" lon="13.3469788"><ele>806.6666666666667</ele><time>2026-05-02T15:00:10.028Z</time></trkpt><trkpt lat="42.1163128" lon="13.3469363"><ele>807.0</ele><time>2026-05-02T15:00:11.028Z</time></trkpt><trkpt lat="42.1163809" lon="13.3468985"><ele>807.3333333333333</ele><time>2026-05-02T15:00:12.028Z</time></trkpt><trkpt lat="42.1164544" lon="13.3468645"><ele>807.6666666666666</ele><time>2026-05-02T15:00:13.028Z</time></trkpt><trkpt lat="42.1165357" lon="13.3468375"><ele>808.0</ele><time>2026-05-02T15:00:14.028Z</time></trkpt><trkpt lat="42.1166208" lon="13.3468151"><ele>809.0</ele><time>2026-05-02T15:00:15.028Z</time></trkpt><trkpt lat="42.1167159" lon="13.3467855"><ele>810.0</ele><time>2026-05-02T15:00:16.028Z</time></trkpt><trkpt lat="42.1168111" lon="13.3467614"><ele>811.0</ele><time>2026-05-02T15:00:17.028Z</time></trkpt><trkpt lat="42.1169205" lon="13.3467198"><ele>812.0</ele><time>2026-05-02T15:00:18.028Z</time></trkpt><trkpt lat="42.1170427" lon="13.3466671"><ele>813.0</ele><time>2026-05-02T15:00:19.028Z</time></trkpt><trkpt lat="42.1171687" lon="13.3466087"><ele>813.0</ele><time>2026-05-02T15:00:20.028Z</time></trkpt><trkpt lat="42.1172934" lon="13.3465447"><ele>813.0</ele><time>2026-05-02T15:00:21.027Z</time></trkpt><trkpt lat="42.1174154" lon="13.3464812"><ele>813.0</ele><time>2026-05-02T15:00:22.028Z</time></trkpt><trkpt lat="42.1175258" lon="13.3464255"><ele>813.0</ele><time>2026-05-02T15:00:23.028Z</time></trkpt><trkpt lat="42.1176337" lon="13.3463727"><ele>814.4</ele><time>2026-05-02T15:00:24.027Z</time></trkpt><trkpt lat="42.1177366" lon="13.3463242"><ele>815.8</ele><time>2026-05-02T15:00:25.028Z</time></trkpt><trkpt lat="42.1178383" lon="13.3462811"><ele>817.2</ele><time>2026-05-02T15:00:26.028Z</time></trkpt><trkpt lat="42.1179413" lon="13.3462545"><ele>818.6</ele><time>2026-05-02T15:00:27.028Z</time></trkpt><trkpt lat="42.1180516" lon="13.3462318"><ele>820.0</ele><time>2026-05-02T15:00:28.028Z</time></trkpt><trkpt lat="42.1181771" lon="13.3462111"><ele>821.0</ele><time>2026-05-02T15:00:29.027Z</time></trkpt><trkpt lat="42.1183084" lon="13.3461864"><ele>822.0</ele><time>2026-05-02T15:00:30.028Z</time></trkpt><trkpt lat="42.1184507" lon="13.3461533"><ele>823.0</ele><time>2026-05-02T15:00:31.028Z</time></trkpt><trkpt lat="42.1185987" lon="13.3461087"><ele>824.0</ele><time>2026-05-02T15:00:32.028Z</time></trkpt><trkpt lat="42.1187502" lon="13.3460551"><ele>824.0</ele><time>2026-05-02T15:00:33.028Z</time></trkpt><trkpt lat="42.1188977" lon="13.345999"><ele>824.0</ele><time>2026-05-02T15:00:34.027Z</time></trkpt><trkpt lat="42.119052" lon="13.3459288"><ele>824.0</ele><time>2026-05-02T15:00:35.028Z</time></trkpt><trkpt lat="42.1191996" lon="13.3458619"><ele>825.5</ele><time>2026-05-02T15:00:36.028Z</time></trkpt><trkpt lat="42.1193479" lon="13.3458084"><ele>827.0</ele><time>2026-05-02T15:00:37.028Z</time></trkpt><trkpt lat="42.1194898" lon="13.3457655"><ele>828.5</ele><time>2026-05-02T15:00:38.028Z</time></trkpt><trkpt lat="42.1196256" lon="13.3457194"><ele>830.0</ele><time>2026-05-02T15:00:39.028Z</time></trkpt><trkpt lat="42.119762" lon="13.3456691"><ele>830.0</ele><time>2026-05-02T15:00:40.027Z</time></trkpt><trkpt lat="42.1198899" lon="13.3456123"><ele>830.0</ele><time>2026-05-02T15:00:41.028Z</time></trkpt><trkpt lat="42.120008" lon="13.3455525"><ele>830.0</ele><time>2026-05-02T15:00:42.028Z</time></trkpt><trkpt lat="42.1201182" lon="13.34549"><ele>830.0</ele><time>2026-05-02T15:00:43.028Z</time></trkpt><trkpt lat="42.120231" lon="13.3454252"><ele>832.5</ele><time>2026-05-02T15:00:44.028Z</time></trkpt><trkpt lat="42.1203415" lon="13.3453691"><ele>835.0</ele><time>2026-05-02T15:00:45.028Z</time></trkpt><trkpt lat="42.1204568" lon="13.3453185"><ele>837.5</ele><time>2026-05-02T15:00:46.028Z</time></trkpt><trkpt lat="42.1205716" lon="13.3452798"><ele>840.0</ele><time>2026-05-02T15:00:47.028Z</time></trkpt><trkpt lat="42.1206869" lon="13.3452509"><ele>841.0</ele><time>2026-05-02T15:00:48.028Z</time></trkpt><trkpt lat="42.120807" lon="13.3452351"><ele>842.0</ele><time>2026-05-02T15:00:49.028Z</time></trkpt><trkpt lat="42.1209302" lon="13.3452242"><ele>843.0</ele><time>2026-05-02T15:00:50.028Z</time></trkpt><trkpt lat="42.1210626" lon="13.3452129"><ele>844.0</ele><time>2026-05-02T15:00:51.028Z</time></trkpt><trkpt lat="42.1211938" lon="13.345199"><ele>844.0</ele><time>2026-05-02T15:00:52.028Z</time></trkpt><trkpt lat="42.1213266" lon="13.3451627"><ele>844.0</ele><time>2026-05-02T15:00:53.028Z</time></trkpt><trkpt lat="42.1214526" lon="13.3451078"><ele>844.0</ele><time>2026-05-02T15:00:54.027Z</time></trkpt><trkpt lat="42.1215574" lon="13.3450352"><ele>844.0</ele><time>2026-05-02T15:00:55.028Z</time></trkpt><trkpt lat="42.1216551" lon="13.34496"><ele>845.0</ele><time>2026-05-02T15:00:56.028Z</time></trkpt><trkpt lat="42.1217478" lon="13.3448912"><ele>846.0</ele><time>2026-05-02T15:00:57.027Z</time></trkpt><trkpt lat="42.1218473" lon="13.3448355"><ele>847.0</ele><time>2026-05-02T15:00:58.028Z</time></trkpt><trkpt lat="42.1219396" lon="13.3447892"><ele>848.0</ele><time>2026-05-02T15:00:59.028Z</time></trkpt><trkpt lat="42.1220197" lon="13.3447547"><ele>849.0</ele><time>2026-05-02T15:01:00.028Z</time></trkpt><trkpt lat="42.12212" lon="13.3447259"><ele>849.0</ele><time>2026-05-02T15:01:02.027Z</time></trkpt><trkpt lat="42.1221846" lon="13.344718"><ele>849.0</ele><time>2026-05-02T15:01:05.028Z</time></trkpt><trkpt lat="42.1222765" lon="13.3447213"><ele>849.0</ele><time>2026-05-02T15:01:08.027Z</time></trkpt><trkpt lat="42.122353" lon="13.34477"><ele>849.0</ele><time>2026-05-02T15:01:11.027Z</time></trkpt><trkpt lat="42.1224184" lon="13.3447855"><ele>849.0</ele><time>2026-05-02T15:01:13.028Z</time></trkpt><trkpt lat="42.1225184" lon="13.3447596"><ele>849.0</ele><time>2026-05-02T15:01:15.027Z</time></trkpt><trkpt lat="42.1225822" lon="13.3447396"><ele>850.1428571428572</ele><time>2026-05-02T15:01:16.028Z</time></trkpt><trkpt lat="42.1226458" lon="13.3447163"><ele>851.2857142857143</ele><time>2026-05-02T15:01:17.027Z</time></trkpt><trkpt lat="42.122714" lon="13.3446899"><ele>852.4285714285714</ele><time>2026-05-02T15:01:18.028Z</time></trkpt><trkpt lat="42.1227954" lon="13.3446688"><ele>853.5714285714287</ele><time>2026-05-02T15:01:19.028Z</time></trkpt><trkpt lat="42.1228711" lon="13.3446431"><ele>854.7142857142857</ele><time>2026-05-02T15:01:20.028Z</time></trkpt><trkpt lat="42.1229476" lon="13.3446164"><ele>855.8571428571429</ele><time>2026-05-02T15:01:21.028Z</time></trkpt><trkpt lat="42.1230124" lon="13.344591"><ele>857.0</ele><time>2026-05-02T15:01:22.028Z</time></trkpt><trkpt lat="42.1230812" lon="13.3445758"><ele>857.8333333333334</ele><time>2026-05-02T15:01:23.028Z</time></trkpt><trkpt lat="42.123156" lon="13.3445529"><ele>858.6666666666667</ele><time>2026-05-02T15:01:24.028Z</time></trkpt><trkpt lat="42.1232303" lon="13.3445174"><ele>859.5</ele><time>2026-05-02T15:01:25.028Z</time></trkpt><trkpt lat="42.1233001" lon="13.3444726"><ele>860.3333333333333</ele><time>2026-05-02T15:01:26.027Z</time></trkpt><trkpt lat="42.1233839" lon="13.3444063"><ele>861.1666666666666</ele><time>2026-05-02T15:01:27.028Z</time></trkpt><trkpt lat="42.1234671" lon="13.3443493"><ele>862.0</ele><time>2026-05-02T15:01:28.028Z</time></trkpt><trkpt lat="42.1235473" lon="13.344299"><ele>862.6</ele><time>2026-05-02T15:01:29.028Z</time></trkpt><trkpt lat="42.1236318" lon="13.3442405"><ele>863.2</ele><time>2026-05-02T15:01:30.028Z</time></trkpt><trkpt lat="42.1237214" lon="13.3441925"><ele>863.8</ele><time>2026-05-02T15:01:31.027Z</time></trkpt><trkpt lat="42.1238063" lon="13.3441515"><ele>864.4</ele><time>2026-05-02T15:01:32.028Z</time></trkpt><trkpt lat="42.1238913" lon="13.344112"><ele>865.0</ele><time>2026-05-02T15:01:33.028Z</time></trkpt><trkpt lat="42.1239754" lon="13.3440748"><ele>864.9999999999999</ele><time>2026-05-02T15:01:34.028Z</time></trkpt><trkpt lat="42.1240561" lon="13.3440451"><ele>865.0</ele><time>2026-05-02T15:01:35.027Z</time></trkpt><trkpt lat="42.124138" lon="13.3440238"><ele>865.0</ele><time>2026-05-02T15:01:36.028Z</time></trkpt><trkpt lat="42.1242174" lon="13.3440175"><ele>865.0</ele><time>2026-05-02T15:01:37.028Z</time></trkpt><trkpt lat="42.1242849" lon="13.3440048"><ele>864.9999999999999</ele><time>2026-05-02T15:01:38.028Z</time></trkpt><trkpt lat="42.1243536" lon="13.3439759"><ele>865.0</ele><time>2026-05-02T15:01:39.028Z</time></trkpt><trkpt lat="42.1244339" lon="13.3439247"><ele>866.4999999999999</ele><time>2026-05-02T15:01:40.028Z</time></trkpt><trkpt lat="42.124523" lon="13.3438728"><ele>868.0</ele><time>2026-05-02T15:01:41.028Z</time></trkpt><trkpt lat="42.1246126" lon="13.3438206"><ele>869.5</ele><time>2026-05-02T15:01:42.028Z</time></trkpt><trkpt lat="42.1246964" lon="13.3437821"><ele>871.0</ele><time>2026-05-02T15:01:43.028Z</time></trkpt><trkpt lat="42.1247722" lon="13.3437453"><ele>872.4999999999999</ele><time>2026-05-02T15:01:44.027Z</time></trkpt><trkpt lat="42.1248446" lon="13.3437139"><ele>874.0</ele><time>2026-05-02T15:01:45.027Z</time></trkpt><trkpt lat="42.1249144" lon="13.3436907"><ele>874.0</ele><time>2026-05-02T15:01:46.028Z</time></trkpt><trkpt lat="42.1250233" lon="13.34366"><ele>874.0000000000001</ele><time>2026-05-02T15:01:48.028Z</time></trkpt><trkpt lat="42.1250451" lon="13.3435445"><ele>874.0000000000001</ele><time>2026-05-02T15:01:52.028Z</time></trkpt><trkpt lat="42.1250078" lon="13.3433822"><ele>874.0</ele><time>2026-05-02T15:01:54.028Z</time></trkpt><trkpt lat="42.1249399" lon="13.3432478"><ele>874.0</ele><time>2026-05-02T15:01:56.028Z</time></trkpt><trkpt lat="42.1248793" lon="13.3431969"><ele>874.0</ele><time>2026-05-02T15:01:57.027Z</time></trkpt><trkpt lat="42.124805" lon="13.3431494"><ele>874.0000000000001</ele><time>2026-05-02T15:01:58.028Z</time></trkpt><trkpt lat="42.1247156" lon="13.343093"><ele>874.0000000000001</ele><time>2026-05-02T15:01:59.028Z</time></trkpt><trkpt lat="42.1246353" lon="13.3430307"><ele>874.0</ele><time>2026-05-02T15:02:00.027Z</time></trkpt><trkpt lat="42.1245546" lon="13.3429637"><ele>874.0</ele><time>2026-05-02T15:02:01.028Z</time></trkpt><trkpt lat="42.1244656" lon="13.3429"><ele>876.4000000000001</ele><time>2026-05-02T15:02:02.028Z</time></trkpt><trkpt lat="42.1243761" lon="13.3428399"><ele>878.8000000000001</ele><time>2026-05-02T15:02:03.028Z</time></trkpt><trkpt lat="42.1242857" lon="13.3427873"><ele>881.1999999999999</ele><time>2026-05-02T15:02:04.027Z</time></trkpt><trkpt lat="42.1241925" lon="13.342742"><ele>883.5999999999999</ele><time>2026-05-02T15:02:05.028Z</time></trkpt><trkpt lat="42.1241" lon="13.3426938"><ele>886.0</ele><time>2026-05-02T15:02:06.028Z</time></trkpt><trkpt lat="42.1240093" lon="13.3426401"><ele>885.9999999999999</ele><time>2026-05-02T15:02:07.028Z</time></trkpt><trkpt lat="42.123924" lon="13.3425978"><ele>886.0</ele><time>2026-05-02T15:02:08.028Z</time></trkpt><trkpt lat="42.1238482" lon="13.3425556"><ele>886.0</ele><time>2026-05-02T15:02:09.028Z</time></trkpt><trkpt lat="42.1237834" lon="13.3425125"><ele>886.0</ele><time>2026-05-02T15:02:10.028Z</time></trkpt><trkpt lat="42.1237167" lon="13.3424655"><ele>885.9999999999999</ele><time>2026-05-02T15:02:11.028Z</time></trkpt><trkpt lat="42.1236508" lon="13.3424303"><ele>886.0</ele><time>2026-05-02T15:02:12.028Z</time></trkpt><trkpt lat="42.1235625" lon="13.3423939"><ele>886.0</ele><time>2026-05-02T15:02:14.027Z</time></trkpt><trkpt lat="42.1236034" lon="13.3423279"><ele>885.9999999999999</ele><time>2026-05-02T15:02:18.028Z</time></trkpt><trkpt lat="42.1237199" lon="13.3423368"><ele>885.9999999999999</ele><time>2026-05-02T15:02:20.028Z</time></trkpt><trkpt lat="42.1237973" lon="13.3423162"><ele>886.0</ele><time>2026-05-02T15:02:21.028Z</time></trkpt><trkpt lat="42.1238804" lon="13.3422816"><ele>886.0</ele><time>2026-05-02T15:02:22.028Z</time></trkpt><trkpt lat="42.1239821" lon="13.342241"><ele>890.5999999999999</ele><time>2026-05-02T15:02:23.027Z</time></trkpt><trkpt lat="42.1240819" lon="13.3421984"><ele>895.1999999999999</ele><time>2026-05-02T15:02:24.027Z</time></trkpt><trkpt lat="42.1241847" lon="13.3421623"><ele>899.8000000000001</ele><time>2026-05-02T15:02:25.028Z</time></trkpt><trkpt lat="42.1242822" lon="13.3421339"><ele>904.4000000000001</ele><time>2026-05-02T15:02:26.028Z</time></trkpt><trkpt lat="42.1243707" lon="13.3421378"><ele>909.0</ele><time>2026-05-02T15:02:27.028Z</time></trkpt><trkpt lat="42.1244658" lon="13.3421688"><ele>909.0</ele><time>2026-05-02T15:02:28.028Z</time></trkpt><trkpt lat="42.124572" lon="13.3422124"><ele>909.0000000000001</ele><time>2026-05-02T15:02:29.028Z</time></trkpt><trkpt lat="42.1246753" lon="13.3422637"><ele>909.0000000000001</ele><time>2026-05-02T15:02:30.028Z</time></trkpt><trkpt lat="42.12478" lon="13.3423127"><ele>909.0</ele><time>2026-05-02T15:02:31.027Z</time></trkpt><trkpt lat="42.1248732" lon="13.3423363"><ele>909.0</ele><time>2026-05-02T15:02:32.028Z</time></trkpt><trkpt lat="42.1249799" lon="13.3423408"><ele>903.75</ele><time>2026-05-02T15:02:33.028Z</time></trkpt><trkpt lat="42.125093" lon="13.342333"><ele>898.5</ele><time>2026-05-02T15:02:34.028Z</time></trkpt><trkpt lat="42.125212" lon="13.3423156"><ele>893.25</ele><time>2026-05-02T15:02:35.028Z</time></trkpt><trkpt lat="42.1253349" lon="13.3422918"><ele>888.0</ele><time>2026-05-02T15:02:36.028Z</time></trkpt><trkpt lat="42.1254652" lon="13.3422604"><ele>888.0</ele><time>2026-05-02T15:02:37.028Z</time></trkpt><trkpt lat="42.1255962" lon="13.342227"><ele>888.0</ele><time>2026-05-02T15:02:38.028Z</time></trkpt><trkpt lat="42.1257327" lon="13.3421856"><ele>888.0</ele><time>2026-05-02T15:02:39.028Z</time></trkpt><trkpt lat="42.12587" lon="13.3421326"><ele>888.0</ele><time>2026-05-02T15:02:40.028Z</time></trkpt><trkpt lat="42.1260058" lon="13.3420751"><ele>893.5</ele><time>2026-05-02T15:02:41.028Z</time></trkpt><trkpt lat="42.1261405" lon="13.3420173"><ele>899.0</ele><time>2026-05-02T15:02:42.028Z</time></trkpt><trkpt lat="42.1262677" lon="13.3419647"><ele>904.5</ele><time>2026-05-02T15:02:43.027Z</time></trkpt><trkpt lat="42.1263936" lon="13.3419089"><ele>910.0</ele><time>2026-05-02T15:02:44.027Z</time></trkpt><trkpt lat="42.1265134" lon="13.3418536"><ele>907.25</ele><time>2026-05-02T15:02:45.028Z</time></trkpt><trkpt lat="42.1266305" lon="13.3418006"><ele>904.5</ele><time>2026-05-02T15:02:46.028Z</time></trkpt><trkpt lat="42.1267457" lon="13.341752"><ele>901.75</ele><time>2026-05-02T15:02:47.027Z</time></trkpt><trkpt lat="42.126868" lon="13.3417088"><ele>899.0</ele><time>2026-05-02T15:02:48.027Z</time></trkpt><trkpt lat="42.1269908" lon="13.3416798"><ele>899.0</ele><time>2026-05-02T15:02:49.028Z</time></trkpt><trkpt lat="42.1271181" lon="13.3416597"><ele>899.0</ele><time>2026-05-02T15:02:50.028Z</time></trkpt><trkpt lat="42.127242" lon="13.3416469"><ele>899.0</ele><time>2026-05-02T15:02:51.027Z</time></trkpt><trkpt lat="42.1273675" lon="13.3416471"><ele>899.0</ele><time>2026-05-02T15:02:52.028Z</time></trkpt><trkpt lat="42.1274903" lon="13.3416476"><ele>899.3333333333334</ele><time>2026-05-02T15:02:53.028Z</time></trkpt><trkpt lat="42.1276029" lon="13.3416562"><ele>899.6666666666667</ele><time>2026-05-02T15:02:54.028Z</time></trkpt><trkpt lat="42.127699" lon="13.341671"><ele>900.0</ele><time>2026-05-02T15:02:55.028Z</time></trkpt><trkpt lat="42.1277755" lon="13.3416888"><ele>900.3333333333333</ele><time>2026-05-02T15:02:56.028Z</time></trkpt><trkpt lat="42.1278449" lon="13.3417039"><ele>900.6666666666666</ele><time>2026-05-02T15:02:57.028Z</time></trkpt><trkpt lat="42.1279173" lon="13.3417192"><ele>901.0</ele><time>2026-05-02T15:02:58.028Z</time></trkpt><trkpt lat="42.128001" lon="13.3417535"><ele>901.0</ele><time>2026-05-02T15:02:59.028Z</time></trkpt><trkpt lat="42.1280895" lon="13.3417902"><ele>900.9999999999999</ele><time>2026-05-02T15:03:00.028Z</time></trkpt><trkpt lat="42.1281752" lon="13.3418318"><ele>900.9999999999999</ele><time>2026-05-02T15:03:01.028Z</time></trkpt><trkpt lat="42.1282705" lon="13.3418755"><ele>901.0</ele><time>2026-05-02T15:03:02.028Z</time></trkpt><trkpt lat="42.1283647" lon="13.341925"><ele>901.0</ele><time>2026-05-02T15:03:03.028Z</time></trkpt><trkpt lat="42.1284596" lon="13.3419644"><ele>903.0</ele><time>2026-05-02T15:03:04.028Z</time></trkpt><trkpt lat="42.128568" lon="13.3419741"><ele>905.0</ele><time>2026-05-02T15:03:05.028Z</time></trkpt><trkpt lat="42.1286774" lon="13.3419608"><ele>907.0</ele><time>2026-05-02T15:03:06.028Z</time></trkpt><trkpt lat="42.1287911" lon="13.3419256"><ele>909.0</ele><time>2026-05-02T15:03:07.028Z</time></trkpt><trkpt lat="42.1289127" lon="13.341879"><ele>909.0</ele><time>2026-05-02T15:03:08.028Z</time></trkpt><trkpt lat="42.1290501" lon="13.3418207"><ele>909.0</ele><time>2026-05-02T15:03:09.028Z</time></trkpt><trkpt lat="42.1291948" lon="13.3417509"><ele>909.0</ele><time>2026-05-02T15:03:10.028Z</time></trkpt><trkpt lat="42.1293533" lon="13.3416836"><ele>911.0</ele><time>2026-05-02T15:03:11.028Z</time></trkpt><trkpt lat="42.1295115" lon="13.3416128"><ele>913.0</ele><time>2026-05-02T15:03:12.027Z</time></trkpt><trkpt lat="42.1296571" lon="13.3415469"><ele>915.0</ele><time>2026-05-02T15:03:13.028Z</time></trkpt><trkpt lat="42.1297843" lon="13.3414902"><ele>917.75</ele><time>2026-05-02T15:03:14.028Z</time></trkpt><trkpt lat="42.1299073" lon="13.3414575"><ele>920.5</ele><time>2026-05-02T15:03:15.028Z</time></trkpt><trkpt lat="42.1300326" lon="13.34146"><ele>923.25</ele><time>2026-05-02T15:03:16.028Z</time></trkpt><trkpt lat="42.1301661" lon="13.3414614"><ele>926.0</ele><time>2026-05-02T15:03:17.028Z</time></trkpt><trkpt lat="42.130305" lon="13.3414379"><ele>926.0</ele><time>2026-05-02T15:03:18.028Z</time></trkpt><trkpt lat="42.1304476" lon="13.3414026"><ele>926.0</ele><time>2026-05-02T15:03:19.028Z</time></trkpt><trkpt lat="42.1305862" lon="13.3413604"><ele>926.0</ele><time>2026-05-02T15:03:20.028Z</time></trkpt><trkpt lat="42.1307182" lon="13.341306"><ele>926.0</ele><time>2026-05-02T15:03:21.028Z</time></trkpt><trkpt lat="42.130844" lon="13.3412459"><ele>929.0</ele><time>2026-05-02T15:03:22.028Z</time></trkpt><trkpt lat="42.1309698" lon="13.3411695"><ele>932.0</ele><time>2026-05-02T15:03:23.028Z</time></trkpt><trkpt lat="42.1310975" lon="13.3410784"><ele>935.0</ele><time>2026-05-02T15:03:24.028Z</time></trkpt><trkpt lat="42.1312216" lon="13.3409743"><ele>938.0</ele><time>2026-05-02T15:03:25.028Z</time></trkpt><trkpt lat="42.131345" lon="13.3408647"><ele>938.0</ele><time>2026-05-02T15:03:26.028Z</time></trkpt><trkpt lat="42.1314679" lon="13.3407374"><ele>938.0</ele><time>2026-05-02T15:03:27.028Z</time></trkpt><trkpt lat="42.1315909" lon="13.3406207"><ele>938.0</ele><time>2026-05-02T15:03:28.028Z</time></trkpt><trkpt lat="42.1316988" lon="13.3405217"><ele>938.0</ele><time>2026-05-02T15:03:29.027Z</time></trkpt><trkpt lat="42.1317968" lon="13.3404305"><ele>941.0</ele><time>2026-05-02T15:03:30.028Z</time></trkpt><trkpt lat="42.1319005" lon="13.3403577"><ele>944.0</ele><time>2026-05-02T15:03:31.028Z</time></trkpt><trkpt lat="42.132014" lon="13.3403044"><ele>947.0</ele><time>2026-05-02T15:03:32.028Z</time></trkpt><trkpt lat="42.1321319" lon="13.3402723"><ele>950.0</ele><time>2026-05-02T15:03:33.028Z</time></trkpt><trkpt lat="42.1322578" lon="13.3402527"><ele>950.0</ele><time>2026-05-02T15:03:34.028Z</time></trkpt><trkpt lat="42.1323872" lon="13.3402395"><ele>950.0</ele><time>2026-05-02T15:03:35.028Z</time></trkpt><trkpt lat="42.1325174" lon="13.3402367"><ele>950.0</ele><time>2026-05-02T15:03:36.028Z</time></trkpt><trkpt lat="42.1326518" lon="13.3402467"><ele>950.0</ele><time>2026-05-02T15:03:37.028Z</time></trkpt><trkpt lat="42.1327855" lon="13.3402618"><ele>952.0</ele><time>2026-05-02T15:03:38.028Z</time></trkpt><trkpt lat="42.1329251" lon="13.3402965"><ele>954.0</ele><time>2026-05-02T15:03:39.028Z</time></trkpt><trkpt lat="42.1330716" lon="13.3403368"><ele>956.0</ele><time>2026-05-02T15:03:40.028Z</time></trkpt><trkpt lat="42.1332124" lon="13.3403783"><ele>958.0</ele><time>2026-05-02T15:03:41.028Z</time></trkpt><trkpt lat="42.1333525" lon="13.3404212"><ele>960.5</ele><time>2026-05-02T15:03:42.028Z</time></trkpt><trkpt lat="42.1334825" lon="13.3404602"><ele>963.0</ele><time>2026-05-02T15:03:43.028Z</time></trkpt><trkpt lat="42.1336081" lon="13.3404981"><ele>965.5</ele><time>2026-05-02T15:03:44.028Z</time></trkpt><trkpt lat="42.133737" lon="13.3405214"><ele>968.0</ele><time>2026-05-02T15:03:45.027Z</time></trkpt><trkpt lat="42.1338731" lon="13.3405416"><ele>970.0</ele><time>2026-05-02T15:03:46.028Z</time></trkpt><trkpt lat="42.13401" lon="13.3405614"><ele>972.0</ele><time>2026-05-02T15:03:47.028Z</time></trkpt><trkpt lat="42.1341539" lon="13.3405761"><ele>974.0</ele><time>2026-05-02T15:03:48.028Z</time></trkpt><trkpt lat="42.1343022" lon="13.3405907"><ele>976.0</ele><time>2026-05-02T15:03:49.028Z</time></trkpt><trkpt lat="42.1344601" lon="13.3406"><ele>980.0</ele><time>2026-05-02T15:03:50.028Z</time></trkpt><trkpt lat="42.1346166" lon="13.3406144"><ele>984.0</ele><time>2026-05-02T15:03:51.028Z</time></trkpt><trkpt lat="42.1347798" lon="13.3406165"><ele>988.0</ele><time>2026-05-02T15:03:52.027Z</time></trkpt><trkpt lat="42.1349445" lon="13.3406265"><ele>991.0</ele><time>2026-05-02T15:03:53.028Z</time></trkpt><trkpt lat="42.1351047" lon="13.3406315"><ele>994.0</ele><time>2026-05-02T15:03:54.028Z</time></trkpt><trkpt lat="42.1352577" lon="13.3406337"><ele>997.0</ele><time>2026-05-02T15:03:55.028Z</time></trkpt><trkpt lat="42.1353983" lon="13.3406351"><ele>997.0</ele><time>2026-05-02T15:03:56.028Z</time></trkpt><trkpt lat="42.1355249" lon="13.3406295"><ele>997.0</ele><time>2026-05-02T15:03:57.027Z</time></trkpt><trkpt lat="42.1356426" lon="13.3406044"><ele>997.0</ele><time>2026-05-02T15:03:58.027Z</time></trkpt><trkpt lat="42.1357467" lon="13.3405637"><ele>997.0</ele><time>2026-05-02T15:03:59.028Z</time></trkpt><trkpt lat="42.1358522" lon="13.3405063"><ele>998.25</ele><time>2026-05-02T15:04:00.028Z</time></trkpt><trkpt lat="42.1359649" lon="13.3404505"><ele>999.5</ele><time>2026-05-02T15:04:01.028Z</time></trkpt><trkpt lat="42.1360795" lon="13.3403882"><ele>1000.75</ele><time>2026-05-02T15:04:02.027Z</time></trkpt><trkpt lat="42.1361818" lon="13.3403266"><ele>1002.0</ele><time>2026-05-02T15:04:03.028Z</time></trkpt><trkpt lat="42.1362776" lon="13.3402618"><ele>1002.0</ele><time>2026-05-02T15:04:04.028Z</time></trkpt><trkpt lat="42.136374" lon="13.3401939"><ele>1002.0</ele><time>2026-05-02T15:04:05.028Z</time></trkpt><trkpt lat="42.1364601" lon="13.3401215"><ele>1002.0</ele><time>2026-05-02T15:04:06.027Z</time></trkpt><trkpt lat="42.1365432" lon="13.3400385"><ele>1002.0</ele><time>2026-05-02T15:04:07.028Z</time></trkpt><trkpt lat="42.1366177" lon="13.3399369"><ele>1002.0</ele><time>2026-05-02T15:04:08.028Z</time></trkpt><trkpt lat="42.1366933" lon="13.3398193"><ele>1003.0</ele><time>2026-05-02T15:04:09.028Z</time></trkpt><trkpt lat="42.1367766" lon="13.3396834"><ele>1004.0</ele><time>2026-05-02T15:04:10.027Z</time></trkpt><trkpt lat="42.1368601" lon="13.3395407"><ele>1005.0</ele><time>2026-05-02T15:04:11.028Z</time></trkpt><trkpt lat="42.1369424" lon="13.3394054"><ele>1006.0</ele><time>2026-05-02T15:04:12.028Z</time></trkpt><trkpt lat="42.137021" lon="13.339275"><ele>1006.0</ele><time>2026-05-02T15:04:13.028Z</time></trkpt><trkpt lat="42.1370952" lon="13.339151"><ele>1005.9999999999999</ele><time>2026-05-02T15:04:14.028Z</time></trkpt><trkpt lat="42.1371598" lon="13.3390369"><ele>1005.9999999999999</ele><time>2026-05-02T15:04:15.028Z</time></trkpt><trkpt lat="42.1372062" lon="13.3389115"><ele>1006.0</ele><time>2026-05-02T15:04:16.028Z</time></trkpt><trkpt lat="42.1372464" lon="13.3387787"><ele>1006.0</ele><time>2026-05-02T15:04:17.028Z</time></trkpt><trkpt lat="42.1372697" lon="13.3386407"><ele>1005.75</ele><time>2026-05-02T15:04:18.028Z</time></trkpt><trkpt lat="42.1372781" lon="13.3384915"><ele>1005.5</ele><time>2026-05-02T15:04:19.028Z</time></trkpt><trkpt lat="42.1372803" lon="13.3383383"><ele>1005.25</ele><time>2026-05-02T15:04:20.028Z</time></trkpt><trkpt lat="42.1372832" lon="13.3381802"><ele>1005.0</ele><time>2026-05-02T15:04:21.028Z</time></trkpt><trkpt lat="42.1372943" lon="13.3380132"><ele>1004.5</ele><time>2026-05-02T15:04:22.028Z</time></trkpt><trkpt lat="42.1373065" lon="13.337851"><ele>1004.0</ele><time>2026-05-02T15:04:23.028Z</time></trkpt><trkpt lat="42.1373204" lon="13.3376904"><ele>1003.5</ele><time>2026-05-02T15:04:24.027Z</time></trkpt><trkpt lat="42.1373367" lon="13.3375333"><ele>1003.0</ele><time>2026-05-02T15:04:25.028Z</time></trkpt><trkpt lat="42.1373515" lon="13.3373797"><ele>1003.0</ele><time>2026-05-02T15:04:26.028Z</time></trkpt><trkpt lat="42.1373643" lon="13.3372431"><ele>1003.0</ele><time>2026-05-02T15:04:27.028Z</time></trkpt><trkpt lat="42.1373715" lon="13.3371047"><ele>1003.0</ele><time>2026-05-02T15:04:28.027Z</time></trkpt><trkpt lat="42.1373821" lon="13.3369682"><ele>1003.0</ele><time>2026-05-02T15:04:29.028Z</time></trkpt><trkpt lat="42.1373904" lon="13.3368317"><ele>1003.0</ele><time>2026-05-02T15:04:30.027Z</time></trkpt><trkpt lat="42.1373958" lon="13.3366935"><ele>1005.2</ele><time>2026-05-02T15:04:31.028Z</time></trkpt><trkpt lat="42.137402" lon="13.336549"><ele>1007.4</ele><time>2026-05-02T15:04:32.028Z</time></trkpt><trkpt lat="42.1373983" lon="13.336405"><ele>1009.6000000000001</ele><time>2026-05-02T15:04:33.028Z</time></trkpt><trkpt lat="42.13739" lon="13.3362655"><ele>1011.8000000000001</ele><time>2026-05-02T15:04:34.028Z</time></trkpt><trkpt lat="42.1373774" lon="13.3361343"><ele>1014.0</ele><time>2026-05-02T15:04:35.028Z</time></trkpt><trkpt lat="42.1373667" lon="13.3360374"><ele>1014.0</ele><time>2026-05-02T15:04:36.027Z</time></trkpt><trkpt lat="42.1373529" lon="13.3359022"><ele>1014.0</ele><time>2026-05-02T15:04:38.028Z</time></trkpt><trkpt lat="42.1373526" lon="13.3358059"><ele>1014.0</ele><time>2026-05-02T15:04:40.028Z</time></trkpt><trkpt lat="42.1373443" lon="13.3357124"><ele>1014.0</ele><time>2026-05-02T15:04:42.028Z</time></trkpt><trkpt lat="42.1373746" lon="13.33561"><ele>1014.0</ele><time>2026-05-02T15:04:44.028Z</time></trkpt><trkpt lat="42.1374262" lon="13.3354761"><ele>1014.0</ele><time>2026-05-02T15:04:46.028Z</time></trkpt><trkpt lat="42.1374442" lon="13.335321"><ele>1017.4000000000001</ele><time>2026-05-02T15:04:48.028Z</time></trkpt><trkpt lat="42.1374268" lon="13.3351617"><ele>1020.8000000000001</ele><time>2026-05-02T15:04:50.028Z</time></trkpt><trkpt lat="42.1373635" lon="13.3350032"><ele>1024.1999999999998</ele><time>2026-05-02T15:04:52.028Z</time></trkpt><trkpt lat="42.1373136" lon="13.3349244"><ele>1027.6</ele><time>2026-05-02T15:04:53.028Z</time></trkpt><trkpt lat="42.1372519" lon="13.3348721"><ele>1031.0</ele><time>2026-05-02T15:04:54.028Z</time></trkpt><trkpt lat="42.1371841" lon="13.3348352"><ele>1031.0</ele><time>2026-05-02T15:04:55.028Z</time></trkpt><trkpt lat="42.1371158" lon="13.3347992"><ele>1031.0</ele><time>2026-05-02T15:04:56.028Z</time></trkpt><trkpt lat="42.1370392" lon="13.3347599"><ele>1031.0</ele><time>2026-05-02T15:04:57.028Z</time></trkpt><trkpt lat="42.1369674" lon="13.3347148"><ele>1031.0</ele><time>2026-05-02T15:04:58.028Z</time></trkpt><trkpt lat="42.1369" lon="13.334671"><ele>1031.0</ele><time>2026-05-02T15:04:59.028Z</time></trkpt><trkpt lat="42.1368394" lon="13.3346253"><ele>1031.0</ele><time>2026-05-02T15:05:00.028Z</time></trkpt><trkpt lat="42.1367756" lon="13.33458"><ele>1034.0</ele><time>2026-05-02T15:05:01.028Z</time></trkpt><trkpt lat="42.1367247" lon="13.3345248"><ele>1037.0</ele><time>2026-05-02T15:05:02.028Z</time></trkpt><trkpt lat="42.1366713" lon="13.3344566"><ele>1040.0</ele><time>2026-05-02T15:05:03.027Z</time></trkpt><trkpt lat="42.1366212" lon="13.3343875"><ele>1043.0</ele><time>2026-05-02T15:05:04.028Z</time></trkpt><trkpt lat="42.1365475" lon="13.3342817"><ele>1046.0</ele><time>2026-05-02T15:05:06.028Z</time></trkpt><trkpt lat="42.1364958" lon="13.3341864"><ele>1049.0</ele><time>2026-05-02T15:05:08.027Z</time></trkpt><trkpt lat="42.1364225" lon="13.3341408"><ele>1050.5</ele><time>2026-05-02T15:05:10.028Z</time></trkpt><trkpt lat="42.1363421" lon="13.3341275"><ele>1052.0</ele><time>2026-05-02T15:05:12.028Z</time></trkpt><trkpt lat="42.1362587" lon="13.3340441"><ele>1053.5</ele><time>2026-05-02T15:05:28.031Z</time></trkpt><trkpt lat="42.1362652" lon="13.3339408"><ele>1055.0</ele><time>2026-05-02T15:05:30.031Z</time></trkpt><trkpt lat="42.1362654" lon="13.3338107"><ele>1056.5</ele><time>2026-05-02T15:05:32.03Z</time></trkpt><trkpt lat="42.1362808" lon="13.333722"><ele>1058.0</ele><time>2026-05-02T15:05:34.031Z</time></trkpt><trkpt lat="42.1362928" lon="13.333615"><ele>1061.6666666666667</ele><time>2026-05-02T15:05:37.03Z</time></trkpt><trkpt lat="42.1363249" lon="13.3334901"><ele>1065.3333333333335</ele><time>2026-05-02T15:05:52.031Z</time></trkpt><trkpt lat="42.1363555" lon="13.3334118"><ele>1069.0</ele><time>2026-05-02T15:05:54.031Z</time></trkpt><trkpt lat="42.1363827" lon="13.3333282"><ele>1072.6666666666667</ele><time>2026-05-02T15:05:58.03Z</time></trkpt><trkpt lat="42.1363789" lon="13.3331795"><ele>1076.3333333333333</ele><time>2026-05-02T15:06:24.031Z</time></trkpt><trkpt lat="42.136376" lon="13.333091"><ele>1080.0</ele><time>2026-05-02T15:06:42.03Z</time></trkpt><trkpt lat="42.1364024" lon="13.333011"><ele>1082.4285714285713</ele><time>2026-05-02T15:09:24.031Z</time></trkpt><trkpt lat="42.1364019" lon="13.3328982"><ele>1084.8571428571427</ele><time>2026-05-02T15:09:32.031Z</time></trkpt><trkpt lat="42.1364084" lon="13.3327901"><ele>1087.2857142857142</ele><time>2026-05-02T15:09:45.031Z</time></trkpt><trkpt lat="42.1363978" lon="13.332704"><ele>1089.7142857142858</ele><time>2026-05-02T15:10:08.03Z</time></trkpt><trkpt lat="42.136384" lon="13.3326122"><ele>1092.1428571428573</ele><time>2026-05-02T15:10:10.031Z</time></trkpt><trkpt lat="42.1363698" lon="13.3325183"><ele>1094.5714285714287</ele><time>2026-05-02T15:10:12.031Z</time></trkpt><trkpt lat="42.1363497" lon="13.3324306"><ele>1097.0</ele><time>2026-05-02T15:10:14.031Z</time></trkpt><trkpt lat="42.1363302" lon="13.3323212"><ele>1097.3333333333335</ele><time>2026-05-02T15:10:16.031Z</time></trkpt><trkpt lat="42.1363309" lon="13.3322042"><ele>1097.6666666666667</ele><time>2026-05-02T15:10:18.031Z</time></trkpt><trkpt lat="42.1363499" lon="13.3320785"><ele>1098.0</ele><time>2026-05-02T15:10:20.031Z</time></trkpt><trkpt lat="42.1363842" lon="13.3319671"><ele>1098.3333333333333</ele><time>2026-05-02T15:10:22.031Z</time></trkpt><trkpt lat="42.1364246" lon="13.3318834"><ele>1098.6666666666665</ele><time>2026-05-02T15:10:24.03Z</time></trkpt><trkpt lat="42.1364869" lon="13.3317959"><ele>1099.0</ele><time>2026-05-02T15:10:26.031Z</time></trkpt><trkpt lat="42.1365558" lon="13.3316809"><ele>1099.0</ele><time>2026-05-02T15:10:28.031Z</time></trkpt><trkpt lat="42.1366204" lon="13.3315782"><ele>1099.0</ele><time>2026-05-02T15:10:30.031Z</time></trkpt><trkpt lat="42.1366664" lon="13.3314939"><ele>1099.0</ele><time>2026-05-02T15:10:32.031Z</time></trkpt><trkpt lat="42.1366399" lon="13.3314139"><ele>1099.0</ele><time>2026-05-02T15:10:36.03Z</time></trkpt><trkpt lat="42.1365835" lon="13.3314804"><ele>1099.0</ele><time>2026-05-02T15:10:40.031Z</time></trkpt><trkpt lat="42.1365304" lon="13.3315359"><ele>1099.0</ele><time>2026-05-02T15:10:44.031Z</time></trkpt><trkpt lat="42.1364853" lon="13.331467"><ele>1099.0</ele><time>2026-05-02T15:11:21.031Z</time></trkpt><trkpt lat="42.1365567" lon="13.3314699"><ele>1099.0</ele><time>2026-05-02T15:11:24.031Z</time></trkpt><trkpt lat="42.1366011" lon="13.3314017"><ele>1099.0</ele><time>2026-05-02T15:11:28.031Z</time></trkpt><trkpt lat="42.1365169" lon="13.3313901"><ele>1099.0</ele><time>2026-05-02T15:11:38.031Z</time></trkpt><trkpt lat="42.1363846" lon="13.3313593"><ele>1099.0</ele><time>2026-05-02T15:11:40.031Z</time></trkpt><trkpt lat="42.136317" lon="13.3313506"><ele>1099.0</ele><time>2026-05-02T15:11:41.031Z</time></trkpt><trkpt lat="42.1362481" lon="13.3313477"><ele>1100.0</ele><time>2026-05-02T15:11:42.031Z</time></trkpt><trkpt lat="42.1361784" lon="13.3313516"><ele>1101.0</ele><time>2026-05-02T15:11:43.031Z</time></trkpt><trkpt lat="42.1360523" lon="13.3313587"><ele>1102.0</ele><time>2026-05-02T15:11:45.031Z</time></trkpt><trkpt lat="42.1359873" lon="13.3313631"><ele>1103.0</ele><time>2026-05-02T15:11:46.031Z</time></trkpt><trkpt lat="42.1359229" lon="13.3313809"><ele>1104.0</ele><time>2026-05-02T15:11:47.031Z</time></trkpt><trkpt lat="42.1358571" lon="13.3313928"><ele>1105.0</ele><time>2026-05-02T15:11:48.031Z</time></trkpt><trkpt lat="42.1357875" lon="13.3314017"><ele>1105.1666666666665</ele><time>2026-05-02T15:11:49.031Z</time></trkpt><trkpt lat="42.1357171" lon="13.3314035"><ele>1105.3333333333333</ele><time>2026-05-02T15:11:50.031Z</time></trkpt><trkpt lat="42.1356489" lon="13.3313913"><ele>1105.5</ele><time>2026-05-02T15:11:51.031Z</time></trkpt><trkpt lat="42.1355857" lon="13.3313773"><ele>1105.6666666666667</ele><time>2026-05-02T15:11:52.031Z</time></trkpt><trkpt lat="42.1354784" lon="13.3314064"><ele>1105.8333333333335</ele><time>2026-05-02T15:11:54.031Z</time></trkpt><trkpt lat="42.1353716" lon="13.331488"><ele>1106.0</ele><time>2026-05-02T15:11:56.031Z</time></trkpt><trkpt lat="42.135307" lon="13.3315377"><ele>1106.0</ele><time>2026-05-02T15:11:57.031Z</time></trkpt><trkpt lat="42.135239" lon="13.3315882"><ele>1106.0</ele><time>2026-05-02T15:11:58.031Z</time></trkpt><trkpt lat="42.1351692" lon="13.3316221"><ele>1106.0</ele><time>2026-05-02T15:11:59.03Z</time></trkpt><trkpt lat="42.1351008" lon="13.3316468"><ele>1106.0</ele><time>2026-05-02T15:12:00.031Z</time></trkpt><trkpt lat="42.1350002" lon="13.3316851"><ele>1106.0</ele><time>2026-05-02T15:12:02.031Z</time></trkpt><trkpt lat="42.1349202" lon="13.3317037"><ele>1106.0</ele><time>2026-05-02T15:12:04.031Z</time></trkpt><trkpt lat="42.1348427" lon="13.331754"><ele>1105.0</ele><time>2026-05-02T15:12:06.031Z</time></trkpt><trkpt lat="42.1347657" lon="13.3318285"><ele>1104.0</ele><time>2026-05-02T15:12:08.03Z</time></trkpt><trkpt lat="42.1346767" lon="13.3319069"><ele>1103.0</ele><time>2026-05-02T15:12:10.031Z</time></trkpt><trkpt lat="42.1345667" lon="13.3319897"><ele>1102.0</ele><time>2026-05-02T15:12:12.031Z</time></trkpt><trkpt lat="42.1344543" lon="13.3320347"><ele>1101.0</ele><time>2026-05-02T15:12:14.031Z</time></trkpt><trkpt lat="42.134324" lon="13.3320606"><ele>1101.0</ele><time>2026-05-02T15:12:16.031Z</time></trkpt><trkpt lat="42.1342448" lon="13.3320645"><ele>1101.0</ele><time>2026-05-02T15:12:17.031Z</time></trkpt><trkpt lat="42.1341638" lon="13.3320715"><ele>1101.0</ele><time>2026-05-02T15:12:18.031Z</time></trkpt><trkpt lat="42.1340824" lon="13.3320795"><ele>1101.0</ele><time>2026-05-02T15:12:19.031Z</time></trkpt><trkpt lat="42.1340025" lon="13.3320804"><ele>1101.0</ele><time>2026-05-02T15:12:20.031Z</time></trkpt><trkpt lat="42.1339253" lon="13.3320847"><ele>1101.0</ele><time>2026-05-02T15:12:21.031Z</time></trkpt><trkpt lat="42.1338531" lon="13.3320792"><ele>1100.3333333333333</ele><time>2026-05-02T15:12:22.031Z</time></trkpt><trkpt lat="42.1337826" lon="13.332073"><ele>1099.6666666666667</ele><time>2026-05-02T15:12:23.031Z</time></trkpt><trkpt lat="42.1337155" lon="13.3320545"><ele>1099.0</ele><time>2026-05-02T15:12:24.031Z</time></trkpt><trkpt lat="42.1336005" lon="13.3320067"><ele>1098.3333333333335</ele><time>2026-05-02T15:12:26.031Z</time></trkpt><trkpt lat="42.1335102" lon="13.3319548"><ele>1097.6666666666667</ele><time>2026-05-02T15:12:28.031Z</time></trkpt><trkpt lat="42.1334492" lon="13.3318883"><ele>1097.0</ele><time>2026-05-02T15:12:30.031Z</time></trkpt><trkpt lat="42.1333861" lon="13.3318237"><ele>1097.0</ele><time>2026-05-02T15:12:32.031Z</time></trkpt><trkpt lat="42.1333364" lon="13.3317234"><ele>1097.0</ele><time>2026-05-02T15:12:35.031Z</time></trkpt><trkpt lat="42.1332914" lon="13.3316404"><ele>1097.0</ele><time>2026-05-02T15:12:37.031Z</time></trkpt><trkpt lat="42.1332445" lon="13.331525"><ele>1097.0</ele><time>2026-05-02T15:12:39.031Z</time></trkpt><trkpt lat="42.1331925" lon="13.3313867"><ele>1097.0</ele><time>2026-05-02T15:12:41.031Z</time></trkpt><trkpt lat="42.133125" lon="13.3312523"><ele>1094.0</ele><time>2026-05-02T15:12:43.031Z</time></trkpt><trkpt lat="42.1330447" lon="13.3311336"><ele>1091.0</ele><time>2026-05-02T15:12:45.03Z</time></trkpt><trkpt lat="42.1329564" lon="13.3310361"><ele>1088.0</ele><time>2026-05-02T15:12:47.031Z</time></trkpt><trkpt lat="42.1328515" lon="13.3309435"><ele>1085.0</ele><time>2026-05-02T15:12:49.031Z</time></trkpt><trkpt lat="42.1327899" lon="13.3309048"><ele>1082.0</ele><time>2026-05-02T15:12:50.031Z</time></trkpt><trkpt lat="42.1327306" lon="13.3308669"><ele>1082.0</ele><time>2026-05-02T15:12:51.031Z</time></trkpt><trkpt lat="42.1326755" lon="13.3308198"><ele>1082.0</ele><time>2026-05-02T15:12:52.031Z</time></trkpt><trkpt lat="42.1326214" lon="13.330771"><ele>1082.0</ele><time>2026-05-02T15:12:53.031Z</time></trkpt><trkpt lat="42.1325245" lon="13.3306872"><ele>1082.0</ele><time>2026-05-02T15:12:55.031Z</time></trkpt><trkpt lat="42.13245" lon="13.33063"><ele>1082.0</ele><time>2026-05-02T15:12:57.031Z</time></trkpt><trkpt lat="42.1323719" lon="13.3305876"><ele>1082.0</ele><time>2026-05-02T15:12:59.03Z</time></trkpt><trkpt lat="42.1322808" lon="13.3305207"><ele>1079.6666666666667</ele><time>2026-05-02T15:13:01.031Z</time></trkpt><trkpt lat="42.1321755" lon="13.3304333"><ele>1077.3333333333335</ele><time>2026-05-02T15:13:03.031Z</time></trkpt><trkpt lat="42.132117" lon="13.3303879"><ele>1075.0</ele><time>2026-05-02T15:13:04.031Z</time></trkpt><trkpt lat="42.132049" lon="13.3303453"><ele>1072.6666666666667</ele><time>2026-05-02T15:13:05.031Z</time></trkpt><trkpt lat="42.1319749" lon="13.3303032"><ele>1070.3333333333333</ele><time>2026-05-02T15:13:06.03Z</time></trkpt><trkpt lat="42.1319" lon="13.3302598"><ele>1068.0</ele><time>2026-05-02T15:13:07.031Z</time></trkpt><trkpt lat="42.1318216" lon="13.3302187"><ele>1068.0</ele><time>2026-05-02T15:13:08.031Z</time></trkpt><trkpt lat="42.1317381" lon="13.3301818"><ele>1068.0</ele><time>2026-05-02T15:13:09.031Z</time></trkpt><trkpt lat="42.1316537" lon="13.3301409"><ele>1068.0</ele><time>2026-05-02T15:13:10.031Z</time></trkpt><trkpt lat="42.1315746" lon="13.330098"><ele>1068.0</ele><time>2026-05-02T15:13:11.031Z</time></trkpt><trkpt lat="42.131505" lon="13.3300456"><ele>1068.0</ele><time>2026-05-02T15:13:12.031Z</time></trkpt><trkpt lat="42.1314472" lon="13.329983"><ele>1068.0</ele><time>2026-05-02T15:13:13.031Z</time></trkpt><trkpt lat="42.1313961" lon="13.3299139"><ele>1067.1666666666667</ele><time>2026-05-02T15:13:14.03Z</time></trkpt><trkpt lat="42.1313503" lon="13.3298455"><ele>1066.3333333333333</ele><time>2026-05-02T15:13:15.031Z</time></trkpt><trkpt lat="42.1313088" lon="13.3297735"><ele>1065.5</ele><time>2026-05-02T15:13:16.031Z</time></trkpt><trkpt lat="42.1312671" lon="13.3297016"><ele>1064.6666666666665</ele><time>2026-05-02T15:13:17.031Z</time></trkpt><trkpt lat="42.1312196" lon="13.3296356"><ele>1063.8333333333333</ele><time>2026-05-02T15:13:18.031Z</time></trkpt><trkpt lat="42.1311716" lon="13.3295779"><ele>1063.0</ele><time>2026-05-02T15:13:19.031Z</time></trkpt><trkpt lat="42.1310727" lon="13.3294663"><ele>1062.8333333333333</ele><time>2026-05-02T15:13:21.03Z</time></trkpt><trkpt lat="42.1310171" lon="13.3294028"><ele>1062.6666666666665</ele><time>2026-05-02T15:13:22.031Z</time></trkpt><trkpt lat="42.1309611" lon="13.3293467"><ele>1062.5</ele><time>2026-05-02T15:13:23.031Z</time></trkpt><trkpt lat="42.130904" lon="13.3293023"><ele>1062.3333333333333</ele><time>2026-05-02T15:13:24.03Z</time></trkpt><trkpt lat="42.1308437" lon="13.329273"><ele>1062.1666666666667</ele><time>2026-05-02T15:13:25.031Z</time></trkpt><trkpt lat="42.1307406" lon="13.3292354"><ele>1062.0</ele><time>2026-05-02T15:13:27.03Z</time></trkpt><trkpt lat="42.1306829" lon="13.3291768"><ele>1062.0</ele><time>2026-05-02T15:13:29.031Z</time></trkpt><trkpt lat="42.1306581" lon="13.3290826"><ele>1062.0</ele><time>2026-05-02T15:13:31.031Z</time></trkpt><trkpt lat="42.1306495" lon="13.3289278"><ele>1062.0</ele><time>2026-05-02T15:13:33.031Z</time></trkpt><trkpt lat="42.1306417" lon="13.3288293"><ele>1062.0</ele><time>2026-05-02T15:13:34.031Z</time></trkpt><trkpt lat="42.1306367" lon="13.3287204"><ele>1062.0</ele><time>2026-05-02T15:13:35.031Z</time></trkpt><trkpt lat="42.1306346" lon="13.3286114"><ele>1062.0</ele><time>2026-05-02T15:13:36.031Z</time></trkpt><trkpt lat="42.1306336" lon="13.328505"><ele>1062.0</ele><time>2026-05-02T15:13:37.03Z</time></trkpt><trkpt lat="42.1306402" lon="13.3284063"><ele>1062.0</ele><time>2026-05-02T15:13:38.03Z</time></trkpt><trkpt lat="42.1306585" lon="13.3283176"><ele>1062.0</ele><time>2026-05-02T15:13:39.03Z</time></trkpt><trkpt lat="42.1306948" lon="13.3281678"><ele>1062.0</ele><time>2026-05-02T15:13:41.03Z</time></trkpt><trkpt lat="42.1306745" lon="13.3280395"><ele>1062.0</ele><time>2026-05-02T15:13:43.031Z</time></trkpt><trkpt lat="42.1306386" lon="13.3279391"><ele>1062.0</ele><time>2026-05-02T15:13:45.031Z</time></trkpt><trkpt lat="42.130612" lon="13.3278134"><ele>1062.3333333333333</ele><time>2026-05-02T15:13:47.031Z</time></trkpt><trkpt lat="42.1305842" lon="13.3276502"><ele>1062.6666666666667</ele><time>2026-05-02T15:13:49.031Z</time></trkpt><trkpt lat="42.1305715" lon="13.3275471"><ele>1063.0</ele><time>2026-05-02T15:13:50.03Z</time></trkpt><trkpt lat="42.1305585" lon="13.3274418"><ele>1063.3333333333335</ele><time>2026-05-02T15:13:51.031Z</time></trkpt><trkpt lat="42.1305454" lon="13.3273396"><ele>1063.6666666666667</ele><time>2026-05-02T15:13:52.031Z</time></trkpt><trkpt lat="42.1305315" lon="13.3272383"><ele>1064.0</ele><time>2026-05-02T15:13:53.031Z</time></trkpt><trkpt lat="42.1305142" lon="13.3271437"><ele>1065.2</ele><time>2026-05-02T15:13:54.031Z</time></trkpt><trkpt lat="42.1304937" lon="13.3270583"><ele>1066.4</ele><time>2026-05-02T15:13:55.031Z</time></trkpt><trkpt lat="42.1304623" lon="13.326923"><ele>1067.6</ele><time>2026-05-02T15:13:57.031Z</time></trkpt><trkpt lat="42.1304515" lon="13.3267893"><ele>1068.8</ele><time>2026-05-02T15:13:59.03Z</time></trkpt><trkpt lat="42.1304857" lon="13.3266367"><ele>1070.0</ele><time>2026-05-02T15:14:01.031Z</time></trkpt><trkpt lat="42.1305007" lon="13.3265441"><ele>1070.0</ele><time>2026-05-02T15:14:02.03Z</time></trkpt><trkpt lat="42.130513" lon="13.3264318"><ele>1070.0</ele><time>2026-05-02T15:14:03.03Z</time></trkpt><trkpt lat="42.1305223" lon="13.3263086"><ele>1070.0</ele><time>2026-05-02T15:14:04.031Z</time></trkpt><trkpt lat="42.1305289" lon="13.3261883"><ele>1070.0</ele><time>2026-05-02T15:14:05.031Z</time></trkpt><trkpt lat="42.130538" lon="13.3260744"><ele>1070.0</ele><time>2026-05-02T15:14:06.031Z</time></trkpt><trkpt lat="42.130545" lon="13.3259623"><ele>1070.0</ele><time>2026-05-02T15:14:07.031Z</time></trkpt><trkpt lat="42.130547" lon="13.3258541"><ele>1071.5</ele><time>2026-05-02T15:14:08.03Z</time></trkpt><trkpt lat="42.130543" lon="13.3257432"><ele>1073.0</ele><time>2026-05-02T15:14:09.03Z</time></trkpt><trkpt lat="42.130541" lon="13.3256269"><ele>1074.5</ele><time>2026-05-02T15:14:10.031Z</time></trkpt><trkpt lat="42.1305488" lon="13.3255193"><ele>1076.0</ele><time>2026-05-02T15:14:11.031Z</time></trkpt><trkpt lat="42.1305659" lon="13.3254237"><ele>1077.5</ele><time>2026-05-02T15:14:12.03Z</time></trkpt><trkpt lat="42.1305787" lon="13.3252909"><ele>1079.0</ele><time>2026-05-02T15:14:14.031Z</time></trkpt><trkpt lat="42.1305734" lon="13.3251752"><ele>1079.8333333333335</ele><time>2026-05-02T15:14:16.03Z</time></trkpt><trkpt lat="42.1305414" lon="13.3250034"><ele>1080.6666666666667</ele><time>2026-05-02T15:14:18.03Z</time></trkpt><trkpt lat="42.130524" lon="13.3248969"><ele>1081.5</ele><time>2026-05-02T15:14:19.031Z</time></trkpt><trkpt lat="42.1305133" lon="13.3248034"><ele>1082.3333333333333</ele><time>2026-05-02T15:14:20.03Z</time></trkpt><trkpt lat="42.1305189" lon="13.3247062"><ele>1083.1666666666665</ele><time>2026-05-02T15:14:21.031Z</time></trkpt><trkpt lat="42.1305361" lon="13.3246178"><ele>1084.0</ele><time>2026-05-02T15:14:22.031Z</time></trkpt><trkpt lat="42.1305619" lon="13.3245396"><ele>1084.0</ele><time>2026-05-02T15:14:23.031Z</time></trkpt><trkpt lat="42.1306387" lon="13.3244287"><ele>1084.0</ele><time>2026-05-02T15:14:25.031Z</time></trkpt><trkpt lat="42.1307049" lon="13.3243375"><ele>1084.0</ele><time>2026-05-02T15:14:27.031Z</time></trkpt><trkpt lat="42.1307235" lon="13.3241993"><ele>1084.0</ele><time>2026-05-02T15:14:29.031Z</time></trkpt><trkpt lat="42.1307249" lon="13.3241129"><ele>1084.0</ele><time>2026-05-02T15:14:30.031Z</time></trkpt><trkpt lat="42.130715" lon="13.3240209"><ele>1084.0</ele><time>2026-05-02T15:14:31.031Z</time></trkpt><trkpt lat="42.1306999" lon="13.3239202"><ele>1084.6666666666665</ele><time>2026-05-02T15:14:32.031Z</time></trkpt><trkpt lat="42.1306944" lon="13.3238222"><ele>1085.3333333333333</ele><time>2026-05-02T15:14:33.031Z</time></trkpt><trkpt lat="42.1306997" lon="13.323723"><ele>1086.0</ele><time>2026-05-02T15:14:34.031Z</time></trkpt><trkpt lat="42.1307108" lon="13.3236172"><ele>1086.6666666666667</ele><time>2026-05-02T15:14:35.031Z</time></trkpt><trkpt lat="42.1307248" lon="13.3235019"><ele>1087.3333333333335</ele><time>2026-05-02T15:14:36.031Z</time></trkpt><trkpt lat="42.1307462" lon="13.3233853"><ele>1088.0</ele><time>2026-05-02T15:14:37.031Z</time></trkpt><trkpt lat="42.1307727" lon="13.3232584"><ele>1085.8</ele><time>2026-05-02T15:14:38.031Z</time></trkpt><trkpt lat="42.130802" lon="13.3231292"><ele>1083.6</ele><time>2026-05-02T15:14:39.031Z</time></trkpt><trkpt lat="42.130832" lon="13.3230031"><ele>1081.4</ele><time>2026-05-02T15:14:40.031Z</time></trkpt><trkpt lat="42.130859" lon="13.3228876"><ele>1079.2</ele><time>2026-05-02T15:14:41.031Z</time></trkpt><trkpt lat="42.1308827" lon="13.3227763"><ele>1077.0</ele><time>2026-05-02T15:14:42.031Z</time></trkpt><trkpt lat="42.1309061" lon="13.3226699"><ele>1077.0</ele><time>2026-05-02T15:14:43.031Z</time></trkpt><trkpt lat="42.1309357" lon="13.3225668"><ele>1077.0</ele><time>2026-05-02T15:14:44.03Z</time></trkpt><trkpt lat="42.1309625" lon="13.322475"><ele>1077.0</ele><time>2026-05-02T15:14:45.031Z</time></trkpt><trkpt lat="42.1309758" lon="13.3223878"><ele>1077.0</ele><time>2026-05-02T15:14:46.031Z</time></trkpt><trkpt lat="42.130973" lon="13.3222952"><ele>1077.0</ele><time>2026-05-02T15:14:47.031Z</time></trkpt><trkpt lat="42.1309608" lon="13.3221891"><ele>1077.0</ele><time>2026-05-02T15:14:48.031Z</time></trkpt><trkpt lat="42.1309431" lon="13.3220744"><ele>1077.0</ele><time>2026-05-02T15:14:49.031Z</time></trkpt><trkpt lat="42.1309264" lon="13.3219481"><ele>1077.0</ele><time>2026-05-02T15:14:50.03Z</time></trkpt><trkpt lat="42.1309156" lon="13.3218169"><ele>1077.0</ele><time>2026-05-02T15:14:51.031Z</time></trkpt><trkpt lat="42.1309068" lon="13.3216789"><ele>1077.0</ele><time>2026-05-02T15:14:52.031Z</time></trkpt><trkpt lat="42.1308999" lon="13.3215407"><ele>1077.0</ele><time>2026-05-02T15:14:53.031Z</time></trkpt><trkpt lat="42.1308964" lon="13.3214091"><ele>1076.2</ele><time>2026-05-02T15:14:54.03Z</time></trkpt><trkpt lat="42.1308864" lon="13.321272"><ele>1075.4</ele><time>2026-05-02T15:14:55.031Z</time></trkpt><trkpt lat="42.1308835" lon="13.3211399"><ele>1074.6</ele><time>2026-05-02T15:14:56.031Z</time></trkpt><trkpt lat="42.1308755" lon="13.3210083"><ele>1073.8</ele><time>2026-05-02T15:14:57.031Z</time></trkpt><trkpt lat="42.1308675" lon="13.320874"><ele>1073.0</ele><time>2026-05-02T15:14:58.031Z</time></trkpt><trkpt lat="42.1308609" lon="13.3207467"><ele>1073.0</ele><time>2026-05-02T15:14:59.03Z</time></trkpt><trkpt lat="42.1308517" lon="13.3206277"><ele>1073.0</ele><time>2026-05-02T15:15:00.03Z</time></trkpt><trkpt lat="42.1308463" lon="13.3205114"><ele>1073.0</ele><time>2026-05-02T15:15:01.031Z</time></trkpt><trkpt lat="42.1308498" lon="13.3204054"><ele>1073.0</ele><time>2026-05-02T15:15:02.03Z</time></trkpt><trkpt lat="42.1308768" lon="13.320269"><ele>1073.0</ele><time>2026-05-02T15:15:04.031Z</time></trkpt><trkpt lat="42.1309389" lon="13.3201723"><ele>1073.3333333333335</ele><time>2026-05-02T15:15:06.031Z</time></trkpt><trkpt lat="42.1309774" lon="13.3200905"><ele>1073.6666666666667</ele><time>2026-05-02T15:15:08.031Z</time></trkpt><trkpt lat="42.1309532" lon="13.3200117"><ele>1074.0</ele><time>2026-05-02T15:15:10.031Z</time></trkpt><trkpt lat="42.1309247" lon="13.3198881"><ele>1074.3333333333333</ele><time>2026-05-02T15:15:13.03Z</time></trkpt><trkpt lat="42.1309538" lon="13.3197667"><ele>1074.6666666666665</ele><time>2026-05-02T15:15:15.031Z</time></trkpt><trkpt lat="42.1309822" lon="13.3196656"><ele>1075.0</ele><time>2026-05-02T15:15:17.031Z</time></trkpt><trkpt lat="42.1310154" lon="13.3195846"><ele>1075.3333333333333</ele><time>2026-05-02T15:15:19.031Z</time></trkpt><trkpt lat="42.1310376" lon="13.319473"><ele>1075.6666666666665</ele><time>2026-05-02T15:15:21.031Z</time></trkpt><trkpt lat="42.1310675" lon="13.3193778"><ele>1076.0</ele><time>2026-05-02T15:15:23.03Z</time></trkpt><trkpt lat="42.1311163" lon="13.3193115"><ele>1076.3333333333333</ele><time>2026-05-02T15:15:25.03Z</time></trkpt><trkpt lat="42.1311854" lon="13.319259"><ele>1076.6666666666667</ele><time>2026-05-02T15:15:27.031Z</time></trkpt><trkpt lat="42.1312516" lon="13.3191773"><ele>1077.0</ele><time>2026-05-02T15:15:29.03Z</time></trkpt><trkpt lat="42.1312948" lon="13.3190619"><ele>1077.0</ele><time>2026-05-02T15:15:31.031Z</time></trkpt><trkpt lat="42.1313374" lon="13.318926"><ele>1077.0</ele><time>2026-05-02T15:15:33.03Z</time></trkpt><trkpt lat="42.1313856" lon="13.318784"><ele>1077.0</ele><time>2026-05-02T15:15:35.031Z</time></trkpt><trkpt lat="42.1314241" lon="13.3186383"><ele>1077.0</ele><time>2026-05-02T15:15:37.031Z</time></trkpt><trkpt lat="42.1314666" lon="13.318502"><ele>1075.8</ele><time>2026-05-02T15:15:39.031Z</time></trkpt><trkpt lat="42.1315311" lon="13.3183831"><ele>1074.6</ele><time>2026-05-02T15:15:41.031Z</time></trkpt><trkpt lat="42.1316125" lon="13.3182876"><ele>1073.3999999999999</ele><time>2026-05-02T15:15:43.03Z</time></trkpt><trkpt lat="42.1317156" lon="13.3181775"><ele>1072.2</ele><time>2026-05-02T15:15:45.031Z</time></trkpt><trkpt lat="42.1317717" lon="13.3181087"><ele>1071.0</ele><time>2026-05-02T15:15:46.031Z</time></trkpt><trkpt lat="42.1318245" lon="13.3180317"><ele>1068.5</ele><time>2026-05-02T15:15:47.031Z</time></trkpt><trkpt lat="42.1318675" lon="13.3179502"><ele>1066.0</ele><time>2026-05-02T15:15:48.031Z</time></trkpt><trkpt lat="42.1318854" lon="13.3178672"><ele>1063.5</ele><time>2026-05-02T15:15:49.031Z</time></trkpt><trkpt lat="42.1319041" lon="13.3177298"><ele>1061.0</ele><time>2026-05-02T15:15:51.031Z</time></trkpt><trkpt lat="42.1319225" lon="13.3176324"><ele>1058.5</ele><time>2026-05-02T15:15:53.031Z</time></trkpt><trkpt lat="42.1319654" lon="13.3175395"><ele>1056.0</ele><time>2026-05-02T15:15:55.031Z</time></trkpt><trkpt lat="42.1320341" lon="13.317412"><ele>1056.0</ele><time>2026-05-02T15:15:57.031Z</time></trkpt><trkpt lat="42.1320787" lon="13.3173372"><ele>1056.0</ele><time>2026-05-02T15:15:58.031Z</time></trkpt><trkpt lat="42.1321361" lon="13.3172413"><ele>1056.0</ele><time>2026-05-02T15:15:59.031Z</time></trkpt><trkpt lat="42.1321942" lon="13.3171541"><ele>1056.0</ele><time>2026-05-02T15:16:00.031Z</time></trkpt><trkpt lat="42.1322491" lon="13.3170808"><ele>1056.0</ele><time>2026-05-02T15:16:01.031Z</time></trkpt><trkpt lat="42.132302" lon="13.3170108"><ele>1056.0</ele><time>2026-05-02T15:16:02.031Z</time></trkpt><trkpt lat="42.1323489" lon="13.3169403"><ele>1055.6666666666667</ele><time>2026-05-02T15:16:03.031Z</time></trkpt><trkpt lat="42.1323951" lon="13.3168797"><ele>1055.3333333333333</ele><time>2026-05-02T15:16:04.031Z</time></trkpt><trkpt lat="42.1324901" lon="13.3167741"><ele>1055.0</ele><time>2026-05-02T15:16:06.031Z</time></trkpt><trkpt lat="42.1325408" lon="13.3167088"><ele>1054.6666666666665</ele><time>2026-05-02T15:16:07.031Z</time></trkpt><trkpt lat="42.1325948" lon="13.3166364"><ele>1054.3333333333333</ele><time>2026-05-02T15:16:08.031Z</time></trkpt><trkpt lat="42.1326458" lon="13.3165715"><ele>1054.0</ele><time>2026-05-02T15:16:09.031Z</time></trkpt><trkpt lat="42.1326959" lon="13.3165018"><ele>1054.0</ele><time>2026-05-02T15:16:10.031Z</time></trkpt><trkpt lat="42.1327414" lon="13.3164294"><ele>1054.0</ele><time>2026-05-02T15:16:11.031Z</time></trkpt><trkpt lat="42.1327872" lon="13.3163575"><ele>1054.0</ele><time>2026-05-02T15:16:12.031Z</time></trkpt><trkpt lat="42.1328375" lon="13.3162885"><ele>1054.0</ele><time>2026-05-02T15:16:13.031Z</time></trkpt><trkpt lat="42.1328811" lon="13.3162227"><ele>1054.0</ele><time>2026-05-02T15:16:14.031Z</time></trkpt><trkpt lat="42.132958" lon="13.3160961"><ele>1054.0</ele><time>2026-05-02T15:16:16.031Z</time></trkpt><trkpt lat="42.1330226" lon="13.3159655"><ele>1053.2</ele><time>2026-05-02T15:16:18.031Z</time></trkpt><trkpt lat="42.1330496" lon="13.3158248"><ele>1052.4</ele><time>2026-05-02T15:16:20.031Z</time></trkpt><trkpt lat="42.1330451" lon="13.3156857"><ele>1051.6</ele><time>2026-05-02T15:16:22.031Z</time></trkpt><trkpt lat="42.133003" lon="13.3155749"><ele>1050.8</ele><time>2026-05-02T15:16:24.031Z</time></trkpt><trkpt lat="42.1329336" lon="13.3155308"><ele>1050.0</ele><time>2026-05-02T15:16:26.031Z</time></trkpt><trkpt lat="42.1328243" lon="13.3154993"><ele>1049.6666666666667</ele><time>2026-05-02T15:16:28.031Z</time></trkpt><trkpt lat="42.1327237" lon="13.315396"><ele>1049.3333333333333</ele><time>2026-05-02T15:16:30.031Z</time></trkpt><trkpt lat="42.1326705" lon="13.3153148"><ele>1049.0</ele><time>2026-05-02T15:16:31.031Z</time></trkpt><trkpt lat="42.1326224" lon="13.31523"><ele>1048.6666666666665</ele><time>2026-05-02T15:16:32.031Z</time></trkpt><trkpt lat="42.1325821" lon="13.3151398"><ele>1048.3333333333333</ele><time>2026-05-02T15:16:33.031Z</time></trkpt><trkpt lat="42.1325492" lon="13.3150582"><ele>1048.0</ele><time>2026-05-02T15:16:34.031Z</time></trkpt><trkpt lat="42.1325179" lon="13.3149695"><ele>1048.0</ele><time>2026-05-02T15:16:35.03Z</time></trkpt><trkpt lat="42.1324934" lon="13.3148856"><ele>1048.0</ele><time>2026-05-02T15:16:36.031Z</time></trkpt><trkpt lat="42.1324421" lon="13.3147278"><ele>1048.0</ele><time>2026-05-02T15:16:38.031Z</time></trkpt><trkpt lat="42.132412" lon="13.3146463"><ele>1048.0</ele><time>2026-05-02T15:16:39.031Z</time></trkpt><trkpt lat="42.1323754" lon="13.3145747"><ele>1048.0</ele><time>2026-05-02T15:16:40.031Z</time></trkpt><trkpt lat="42.1322726" lon="13.3144503"><ele>1048.2</ele><time>2026-05-02T15:16:42.031Z</time></trkpt><trkpt lat="42.1322" lon="13.3143721"><ele>1048.4</ele><time>2026-05-02T15:16:43.031Z</time></trkpt><trkpt lat="42.1321242" lon="13.3142747"><ele>1048.6000000000001</ele><time>2026-05-02T15:16:44.03Z</time></trkpt><trkpt lat="42.1320513" lon="13.3141805"><ele>1048.8</ele><time>2026-05-02T15:16:45.031Z</time></trkpt><trkpt lat="42.1319868" lon="13.3140966"><ele>1049.0</ele><time>2026-05-02T15:16:46.031Z</time></trkpt><trkpt lat="42.1319267" lon="13.3140209"><ele>1049.0</ele><time>2026-05-02T15:16:47.03Z</time></trkpt><trkpt lat="42.1318808" lon="13.3139528"><ele>1049.0</ele><time>2026-05-02T15:16:48.03Z</time></trkpt><trkpt lat="42.1318456" lon="13.313881"><ele>1049.0</ele><time>2026-05-02T15:16:49.03Z</time></trkpt><trkpt lat="42.1318151" lon="13.3137072"><ele>1049.0</ele><time>2026-05-02T15:16:51.031Z</time></trkpt><trkpt lat="42.1318143" lon="13.313601"><ele>1049.0</ele><time>2026-05-02T15:16:52.031Z</time></trkpt><trkpt lat="42.1318181" lon="13.3135042"><ele>1049.0</ele><time>2026-05-02T15:16:53.031Z</time></trkpt><trkpt lat="42.1318212" lon="13.3134029"><ele>1049.5</ele><time>2026-05-02T15:16:54.031Z</time></trkpt><trkpt lat="42.1318239" lon="13.3132922"><ele>1050.0</ele><time>2026-05-02T15:16:55.03Z</time></trkpt><trkpt lat="42.1318224" lon="13.3131758"><ele>1050.5</ele><time>2026-05-02T15:16:56.031Z</time></trkpt><trkpt lat="42.1318211" lon="13.3130633"><ele>1051.0</ele><time>2026-05-02T15:16:57.031Z</time></trkpt><trkpt lat="42.1318268" lon="13.3129563"><ele>1051.5</ele><time>2026-05-02T15:16:58.031Z</time></trkpt><trkpt lat="42.1318373" lon="13.312851"><ele>1052.0</ele><time>2026-05-02T15:16:59.031Z</time></trkpt><trkpt lat="42.1318571" lon="13.3127497"><ele>1052.5</ele><time>2026-05-02T15:17:00.031Z</time></trkpt><trkpt lat="42.1318859" lon="13.3126612"><ele>1053.0</ele><time>2026-05-02T15:17:01.031Z</time></trkpt><trkpt lat="42.1319247" lon="13.3125803"><ele>1053.5</ele><time>2026-05-02T15:17:02.031Z</time></trkpt><trkpt lat="42.1319731" lon="13.3125014"><ele>1054.0</ele><time>2026-05-02T15:17:03.031Z</time></trkpt><trkpt lat="42.1320244" lon="13.3124357"><ele>1054.5</ele><time>2026-05-02T15:17:04.031Z</time></trkpt><trkpt lat="42.1320764" lon="13.3123748"><ele>1055.0</ele><time>2026-05-02T15:17:05.031Z</time></trkpt><trkpt lat="42.132143" lon="13.3122844"><ele>1057.0</ele><time>2026-05-02T15:17:07.031Z</time></trkpt><trkpt lat="42.1321752" lon="13.312178"><ele>1059.0</ele><time>2026-05-02T15:17:09.03Z</time></trkpt><trkpt lat="42.1322155" lon="13.3120804"><ele>1061.0</ele><time>2026-05-02T15:17:11.03Z</time></trkpt><trkpt lat="42.1323049" lon="13.3120149"><ele>1063.0</ele><time>2026-05-02T15:17:13.031Z</time></trkpt><trkpt lat="42.1323606" lon="13.3118971"><ele>1065.0</ele><time>2026-05-02T15:17:15.031Z</time></trkpt><trkpt lat="42.132415" lon="13.3117918"><ele>1062.3333333333333</ele><time>2026-05-02T15:17:17.031Z</time></trkpt><trkpt lat="42.1324666" lon="13.3117423"><ele>1059.6666666666667</ele><time>2026-05-02T15:17:18.031Z</time></trkpt><trkpt lat="42.1325277" lon="13.3116966"><ele>1057.0</ele><time>2026-05-02T15:17:19.031Z</time></trkpt><trkpt lat="42.1325899" lon="13.3116569"><ele>1054.3333333333335</ele><time>2026-05-02T15:17:20.031Z</time></trkpt><trkpt lat="42.1326886" lon="13.3115899"><ele>1051.6666666666667</ele><time>2026-05-02T15:17:22.031Z</time></trkpt><trkpt lat="42.1327629" lon="13.3114805"><ele>1049.0</ele><time>2026-05-02T15:17:24.03Z</time></trkpt><trkpt lat="42.1328131" lon="13.3113593"><ele>1049.0</ele><time>2026-05-02T15:17:26.031Z</time></trkpt><trkpt lat="42.1329019" lon="13.3112697"><ele>1049.0</ele><time>2026-05-02T15:17:28.03Z</time></trkpt><trkpt lat="42.132961" lon="13.3112339"><ele>1049.0</ele><time>2026-05-02T15:17:29.031Z</time></trkpt><trkpt lat="42.1330261" lon="13.3111975"><ele>1049.0</ele><time>2026-05-02T15:17:30.031Z</time></trkpt><trkpt lat="42.1330927" lon="13.3111723"><ele>1049.0</ele><time>2026-05-02T15:17:31.031Z</time></trkpt><trkpt lat="42.1331549" lon="13.3111481"><ele>1049.0</ele><time>2026-05-02T15:17:32.03Z</time></trkpt><trkpt lat="42.1332284" lon="13.3110619"><ele>1047.3333333333335</ele><time>2026-05-02T15:17:34.031Z</time></trkpt><trkpt lat="42.1332419" lon="13.3109188"><ele>1045.6666666666667</ele><time>2026-05-02T15:17:36.031Z</time></trkpt><trkpt lat="42.1332968" lon="13.3107689"><ele>1044.0</ele><time>2026-05-02T15:17:38.031Z</time></trkpt><trkpt lat="42.1333419" lon="13.3107044"><ele>1042.3333333333333</ele><time>2026-05-02T15:17:39.031Z</time></trkpt><trkpt lat="42.133396" lon="13.3106507"><ele>1040.6666666666665</ele><time>2026-05-02T15:17:40.031Z</time></trkpt><trkpt lat="42.1334472" lon="13.3105961"><ele>1039.0</ele><time>2026-05-02T15:17:41.031Z</time></trkpt><trkpt lat="42.1334959" lon="13.3105311"><ele>1039.0</ele><time>2026-05-02T15:17:42.031Z</time></trkpt><trkpt lat="42.1335411" lon="13.3104658"><ele>1039.0</ele><time>2026-05-02T15:17:43.031Z</time></trkpt><trkpt lat="42.133615" lon="13.3103601"><ele>1039.0</ele><time>2026-05-02T15:17:45.031Z</time></trkpt><trkpt lat="42.1336631" lon="13.3102639"><ele>1039.0</ele><time>2026-05-02T15:17:47.031Z</time></trkpt><trkpt lat="42.1337026" lon="13.3101648"><ele>1039.0</ele><time>2026-05-02T15:17:49.03Z</time></trkpt><trkpt lat="42.1337521" lon="13.3100713"><ele>1039.0</ele><time>2026-05-02T15:17:51.031Z</time></trkpt><trkpt lat="42.1338304" lon="13.3099995"><ele>1039.0</ele><time>2026-05-02T15:17:54.031Z</time></trkpt><trkpt lat="42.1339321" lon="13.3099791"><ele>1039.0</ele><time>2026-05-02T15:17:56.031Z</time></trkpt><trkpt lat="42.1340159" lon="13.30995"><ele>1039.0</ele><time>2026-05-02T15:17:58.031Z</time></trkpt><trkpt lat="42.134068" lon="13.3098636"><ele>1039.0</ele><time>2026-05-02T15:18:00.031Z</time></trkpt><trkpt lat="42.1341214" lon="13.3097714"><ele>1039.0</ele><time>2026-05-02T15:18:02.031Z</time></trkpt><trkpt lat="42.134144" lon="13.3096655"><ele>1039.0</ele><time>2026-05-02T15:18:04.031Z</time></trkpt><trkpt lat="42.1341276" lon="13.3095752"><ele>1034.6000000000001</ele><time>2026-05-02T15:18:06.031Z</time></trkpt><trkpt lat="42.134121" lon="13.3094726"><ele>1030.2</ele><time>2026-05-02T15:18:09.031Z</time></trkpt><trkpt lat="42.1341773" lon="13.3093829"><ele>1025.8000000000002</ele><time>2026-05-02T15:18:11.031Z</time></trkpt><trkpt lat="42.1342421" lon="13.3092868"><ele>1021.4000000000001</ele><time>2026-05-02T15:18:13.031Z</time></trkpt><trkpt lat="42.134295" lon="13.3091532"><ele>1017.0</ele><time>2026-05-02T15:18:15.03Z</time></trkpt><trkpt lat="42.134348" lon="13.3090537"><ele>1017.0</ele><time>2026-05-02T15:18:17.03Z</time></trkpt><trkpt lat="42.1343997" lon="13.3089869"><ele>1017.0</ele><time>2026-05-02T15:18:19.031Z</time></trkpt><trkpt lat="42.1344691" lon="13.3089031"><ele>1017.0</ele><time>2026-05-02T15:18:21.03Z</time></trkpt><trkpt lat="42.1345504" lon="13.3088014"><ele>1017.0</ele><time>2026-05-02T15:18:23.031Z</time></trkpt><trkpt lat="42.1346374" lon="13.3087229"><ele>1017.0</ele><time>2026-05-02T15:18:25.031Z</time></trkpt><trkpt lat="42.1346954" lon="13.3086701"><ele>1017.0</ele><time>2026-05-02T15:18:27.031Z</time></trkpt><trkpt lat="42.1346819" lon="13.3085105"><ele>1017.0</ele><time>2026-05-02T15:18:30.031Z</time></trkpt><trkpt lat="42.1346799" lon="13.308347"><ele>1017.0</ele><time>2026-05-02T15:18:32.031Z</time></trkpt><trkpt lat="42.1346908" lon="13.3082612"><ele>1017.0</ele><time>2026-05-02T15:18:33.03Z</time></trkpt><trkpt lat="42.1346941" lon="13.3081731"><ele>1017.0</ele><time>2026-05-02T15:18:34.031Z</time></trkpt><trkpt lat="42.1346918" lon="13.3080865"><ele>1017.0</ele><time>2026-05-02T15:18:35.031Z</time></trkpt><trkpt lat="42.134696" lon="13.3079995"><ele>1015.0</ele><time>2026-05-02T15:18:36.031Z</time></trkpt><trkpt lat="42.1347252" lon="13.3078389"><ele>1013.0</ele><time>2026-05-02T15:18:38.03Z</time></trkpt><trkpt lat="42.134779" lon="13.3077188"><ele>1011.0</ele><time>2026-05-02T15:18:40.03Z</time></trkpt><trkpt lat="42.1348434" lon="13.307609"><ele>1009.0</ele><time>2026-05-02T15:18:42.031Z</time></trkpt><trkpt lat="42.1348306" lon="13.3074711"><ele>1007.0</ele><time>2026-05-02T15:18:44.03Z</time></trkpt><trkpt lat="42.1347953" lon="13.3073987"><ele>1007.0000000000001</ele><time>2026-05-02T15:18:45.031Z</time></trkpt><trkpt lat="42.1347509" lon="13.3073233"><ele>1007.0</ele><time>2026-05-02T15:18:46.031Z</time></trkpt><trkpt lat="42.1347071" lon="13.3072429"><ele>1007.0</ele><time>2026-05-02T15:18:47.031Z</time></trkpt><trkpt lat="42.1346643" lon="13.3071624"><ele>1007.0</ele><time>2026-05-02T15:18:48.031Z</time></trkpt><trkpt lat="42.1345962" lon="13.3070348"><ele>1007.0000000000001</ele><time>2026-05-02T15:18:50.031Z</time></trkpt><trkpt lat="42.134557" lon="13.3069148"><ele>1007.0</ele><time>2026-05-02T15:18:52.031Z</time></trkpt><trkpt lat="42.1345357" lon="13.3067611"><ele>1004.0</ele><time>2026-05-02T15:18:54.031Z</time></trkpt><trkpt lat="42.1345279" lon="13.3066735"><ele>1001.0</ele><time>2026-05-02T15:18:55.031Z</time></trkpt><trkpt lat="42.134521" lon="13.3065882"><ele>998.0</ele><time>2026-05-02T15:18:56.03Z</time></trkpt><trkpt lat="42.1345182" lon="13.3064324"><ele>995.0</ele><time>2026-05-02T15:18:58.031Z</time></trkpt><trkpt lat="42.1345332" lon="13.3062874"><ele>992.0</ele><time>2026-05-02T15:19:00.031Z</time></trkpt><trkpt lat="42.1345171" lon="13.3061501"><ele>989.4000000000001</ele><time>2026-05-02T15:19:02.031Z</time></trkpt><trkpt lat="42.1344738" lon="13.3060829"><ele>986.8000000000001</ele><time>2026-05-02T15:19:04.03Z</time></trkpt><trkpt lat="42.1344116" lon="13.306013"><ele>984.2</ele><time>2026-05-02T15:19:06.031Z</time></trkpt><trkpt lat="42.1343953" lon="13.3058859"><ele>981.6</ele><time>2026-05-02T15:19:08.031Z</time></trkpt><trkpt lat="42.1343857" lon="13.3057199"><ele>979.0</ele><time>2026-05-02T15:19:10.03Z</time></trkpt><trkpt lat="42.1343726" lon="13.3055681"><ele>976.75</ele><time>2026-05-02T15:19:12.03Z</time></trkpt><trkpt lat="42.1343558" lon="13.3054281"><ele>974.5</ele><time>2026-05-02T15:19:14.031Z</time></trkpt><trkpt lat="42.1343374" lon="13.3052703"><ele>972.25</ele><time>2026-05-02T15:19:16.031Z</time></trkpt><trkpt lat="42.1343147" lon="13.3051163"><ele>970.0</ele><time>2026-05-02T15:19:18.031Z</time></trkpt><trkpt lat="42.1342833" lon="13.3049495"><ele>969.9999999999999</ele><time>2026-05-02T15:19:20.031Z</time></trkpt><trkpt lat="42.1342633" lon="13.304867"><ele>970.0</ele><time>2026-05-02T15:19:21.03Z</time></trkpt><trkpt lat="42.1342317" lon="13.3047319"><ele>970.0</ele><time>2026-05-02T15:19:23.031Z</time></trkpt><trkpt lat="42.1342295" lon="13.3045817"><ele>970.0</ele><time>2026-05-02T15:19:25.03Z</time></trkpt><trkpt lat="42.1342307" lon="13.3044955"><ele>969.9999999999999</ele><time>2026-05-02T15:19:26.031Z</time></trkpt><trkpt lat="42.1342273" lon="13.3044062"><ele>970.0</ele><time>2026-05-02T15:19:27.03Z</time></trkpt><trkpt lat="42.1342206" lon="13.3043172"><ele>968.6666666666666</ele><time>2026-05-02T15:19:28.031Z</time></trkpt><trkpt lat="42.1342099" lon="13.3042188"><ele>967.3333333333333</ele><time>2026-05-02T15:19:29.031Z</time></trkpt><trkpt lat="42.1341981" lon="13.3041178"><ele>966.0</ele><time>2026-05-02T15:19:30.031Z</time></trkpt><trkpt lat="42.1341818" lon="13.3040101"><ele>964.6666666666667</ele><time>2026-05-02T15:19:31.031Z</time></trkpt><trkpt lat="42.1341655" lon="13.3039009"><ele>963.3333333333334</ele><time>2026-05-02T15:19:32.031Z</time></trkpt><trkpt lat="42.134151" lon="13.3037871"><ele>962.0</ele><time>2026-05-02T15:19:33.031Z</time></trkpt><trkpt lat="42.1341349" lon="13.3036778"><ele>961.6666666666667</ele><time>2026-05-02T15:19:34.031Z</time></trkpt><trkpt lat="42.1341242" lon="13.3035783"><ele>961.3333333333334</ele><time>2026-05-02T15:19:35.031Z</time></trkpt><trkpt lat="42.1341309" lon="13.3034892"><ele>961.0</ele><time>2026-05-02T15:19:36.031Z</time></trkpt><trkpt lat="42.1341619" lon="13.3034028"><ele>960.6666666666667</ele><time>2026-05-02T15:19:37.031Z</time></trkpt><trkpt lat="42.1341985" lon="13.3033117"><ele>960.3333333333334</ele><time>2026-05-02T15:19:38.03Z</time></trkpt><trkpt lat="42.1342374" lon="13.303209"><ele>960.0</ele><time>2026-05-02T15:19:39.031Z</time></trkpt><trkpt lat="42.1342818" lon="13.303106"><ele>960.8333333333334</ele><time>2026-05-02T15:19:40.031Z</time></trkpt><trkpt lat="42.1343247" lon="13.3030034"><ele>961.6666666666667</ele><time>2026-05-02T15:19:41.031Z</time></trkpt><trkpt lat="42.134364" lon="13.3029051"><ele>962.5</ele><time>2026-05-02T15:19:42.031Z</time></trkpt><trkpt lat="42.1344108" lon="13.3028044"><ele>963.3333333333334</ele><time>2026-05-02T15:19:43.031Z</time></trkpt><trkpt lat="42.1344544" lon="13.3027048"><ele>964.1666666666667</ele><time>2026-05-02T15:19:44.031Z</time></trkpt><trkpt lat="42.1344888" lon="13.3025982"><ele>965.0</ele><time>2026-05-02T15:19:45.031Z</time></trkpt><trkpt lat="42.1345193" lon="13.3024972"><ele>965.0000000000001</ele><time>2026-05-02T15:19:46.031Z</time></trkpt><trkpt lat="42.1345445" lon="13.302404"><ele>965.0</ele><time>2026-05-02T15:19:47.031Z</time></trkpt><trkpt lat="42.1345537" lon="13.3022726"><ele>965.0</ele><time>2026-05-02T15:19:49.03Z</time></trkpt><trkpt lat="42.1345283" lon="13.3021783"><ele>965.0</ele><time>2026-05-02T15:19:52.031Z</time></trkpt><trkpt lat="42.1345678" lon="13.3021021"><ele>965.0000000000001</ele><time>2026-05-02T15:19:54.031Z</time></trkpt><trkpt lat="42.1346201" lon="13.3020534"><ele>965.0</ele><time>2026-05-02T15:19:55.031Z</time></trkpt><trkpt lat="42.1346974" lon="13.3019483"><ele>966.2</ele><time>2026-05-02T15:19:57.031Z</time></trkpt><trkpt lat="42.1347332" lon="13.301814"><ele>967.4</ele><time>2026-05-02T15:19:59.03Z</time></trkpt><trkpt lat="42.1347821" lon="13.3016803"><ele>968.5999999999999</ele><time>2026-05-02T15:20:01.031Z</time></trkpt><trkpt lat="42.1348645" lon="13.3015527"><ele>969.8</ele><time>2026-05-02T15:20:03.031Z</time></trkpt><trkpt lat="42.1349177" lon="13.3014868"><ele>971.0</ele><time>2026-05-02T15:20:04.03Z</time></trkpt><trkpt lat="42.1349763" lon="13.3014384"><ele>966.6666666666667</ele><time>2026-05-02T15:20:05.031Z</time></trkpt><trkpt lat="42.1350352" lon="13.3013828"><ele>962.3333333333334</ele><time>2026-05-02T15:20:06.031Z</time></trkpt><trkpt lat="42.1350895" lon="13.3013168"><ele>958.0</ele><time>2026-05-02T15:20:07.031Z</time></trkpt><trkpt lat="42.1351389" lon="13.3012407"><ele>953.6666666666667</ele><time>2026-05-02T15:20:08.031Z</time></trkpt><trkpt lat="42.1351872" lon="13.301173"><ele>949.3333333333334</ele><time>2026-05-02T15:20:09.031Z</time></trkpt><trkpt lat="42.1352314" lon="13.3011057"><ele>945.0</ele><time>2026-05-02T15:20:10.031Z</time></trkpt><trkpt lat="42.1353226" lon="13.3010064"><ele>945.0</ele><time>2026-05-02T15:20:12.031Z</time></trkpt><trkpt lat="42.1354179" lon="13.3009226"><ele>945.0</ele><time>2026-05-02T15:20:14.031Z</time></trkpt><trkpt lat="42.1354807" lon="13.3008999"><ele>945.0</ele><time>2026-05-02T15:20:15.031Z</time></trkpt><trkpt lat="42.1355422" lon="13.3008762"><ele>945.0</ele><time>2026-05-02T15:20:16.03Z</time></trkpt><trkpt lat="42.1356233" lon="13.3007836"><ele>945.0</ele><time>2026-05-02T15:20:18.03Z</time></trkpt><trkpt lat="42.1356878" lon="13.3006882"><ele>945.0</ele><time>2026-05-02T15:20:20.031Z</time></trkpt><trkpt lat="42.1357847" lon="13.3006674"><ele>944.8333333333334</ele><time>2026-05-02T15:20:22.03Z</time></trkpt><trkpt lat="42.1358928" lon="13.3006724"><ele>944.6666666666667</ele><time>2026-05-02T15:20:24.031Z</time></trkpt><trkpt lat="42.1360244" lon="13.3006471"><ele>944.5</ele><time>2026-05-02T15:20:26.031Z</time></trkpt><trkpt lat="42.1360936" lon="13.3006224"><ele>944.3333333333334</ele><time>2026-05-02T15:20:27.031Z</time></trkpt><trkpt lat="42.1361551" lon="13.3005876"><ele>944.1666666666667</ele><time>2026-05-02T15:20:28.031Z</time></trkpt><trkpt lat="42.1362135" lon="13.3005387"><ele>944.0</ele><time>2026-05-02T15:20:29.031Z</time></trkpt><trkpt lat="42.1362634" lon="13.3004853"><ele>941.6</ele><time>2026-05-02T15:20:30.031Z</time></trkpt><trkpt lat="42.1363369" lon="13.3003673"><ele>939.2</ele><time>2026-05-02T15:20:32.031Z</time></trkpt><trkpt lat="42.1364149" lon="13.3002391"><ele>936.8000000000001</ele><time>2026-05-02T15:20:34.031Z</time></trkpt><trkpt lat="42.1364575" lon="13.3001626"><ele>934.4000000000001</ele><time>2026-05-02T15:20:35.031Z</time></trkpt><trkpt lat="42.1365026" lon="13.3000889"><ele>932.0</ele><time>2026-05-02T15:20:36.03Z</time></trkpt><trkpt lat="42.1365505" lon="13.3000169"><ele>932.0</ele><time>2026-05-02T15:20:37.03Z</time></trkpt><trkpt lat="42.1365961" lon="13.2999443"><ele>932.0</ele><time>2026-05-02T15:20:38.03Z</time></trkpt><trkpt lat="42.1366376" lon="13.2998637"><ele>932.0</ele><time>2026-05-02T15:20:39.031Z</time></trkpt><trkpt lat="42.1366785" lon="13.29978"><ele>932.0</ele><time>2026-05-02T15:20:40.031Z</time></trkpt><trkpt lat="42.1367065" lon="13.2996943"><ele>932.0</ele><time>2026-05-02T15:20:41.03Z</time></trkpt><trkpt lat="42.1367305" lon="13.2996026"><ele>932.0</ele><time>2026-05-02T15:20:42.03Z</time></trkpt><trkpt lat="42.1367519" lon="13.2995037"><ele>932.0</ele><time>2026-05-02T15:20:43.031Z</time></trkpt><trkpt lat="42.1367693" lon="13.2994052"><ele>932.0000000000001</ele><time>2026-05-02T15:20:44.031Z</time></trkpt><trkpt lat="42.1367835" lon="13.2993083"><ele>932.0</ele><time>2026-05-02T15:20:45.031Z</time></trkpt><trkpt lat="42.1367968" lon="13.2992143"><ele>932.0</ele><time>2026-05-02T15:20:46.031Z</time></trkpt><trkpt lat="42.1368099" lon="13.2991161"><ele>932.0</ele><time>2026-05-02T15:20:47.03Z</time></trkpt><trkpt lat="42.1368277" lon="13.2990105"><ele>932.0000000000001</ele><time>2026-05-02T15:20:48.031Z</time></trkpt><trkpt lat="42.1368501" lon="13.2988963"><ele>932.0</ele><time>2026-05-02T15:20:49.031Z</time></trkpt><trkpt lat="42.1368738" lon="13.2987779"><ele>931.3333333333334</ele><time>2026-05-02T15:20:50.031Z</time></trkpt><trkpt lat="42.1368979" lon="13.2986555"><ele>930.6666666666667</ele><time>2026-05-02T15:20:51.031Z</time></trkpt><trkpt lat="42.1369247" lon="13.2985381"><ele>930.0</ele><time>2026-05-02T15:20:52.031Z</time></trkpt><trkpt lat="42.1369564" lon="13.2984331"><ele>929.3333333333333</ele><time>2026-05-02T15:20:53.03Z</time></trkpt><trkpt lat="42.1369764" lon="13.2983444"><ele>928.6666666666666</ele><time>2026-05-02T15:20:54.031Z</time></trkpt><trkpt lat="42.1369704" lon="13.298204"><ele>928.0</ele><time>2026-05-02T15:20:56.03Z</time></trkpt><trkpt lat="42.1369005" lon="13.2981343"><ele>927.9999999999999</ele><time>2026-05-02T15:20:58.03Z</time></trkpt><trkpt lat="42.1367994" lon="13.2981352"><ele>928.0</ele><time>2026-05-02T15:21:00.031Z</time></trkpt><trkpt lat="42.1366926" lon="13.2981175"><ele>928.0</ele><time>2026-05-02T15:21:02.031Z</time></trkpt><trkpt lat="42.1366206" lon="13.2980671"><ele>928.0</ele><time>2026-05-02T15:21:04.031Z</time></trkpt><trkpt lat="42.1365675" lon="13.2979963"><ele>927.9999999999999</ele><time>2026-05-02T15:21:06.031Z</time></trkpt><trkpt lat="42.1365353" lon="13.2979087"><ele>928.0</ele><time>2026-05-02T15:21:08.031Z</time></trkpt><trkpt lat="42.1365447" lon="13.2977954"><ele>928.0</ele><time>2026-05-02T15:21:10.031Z</time></trkpt><trkpt lat="42.1366014" lon="13.297662"><ele>928.0</ele><time>2026-05-02T15:21:12.031Z</time></trkpt><trkpt lat="42.1366372" lon="13.2975916"><ele>928.0</ele><time>2026-05-02T15:21:13.031Z</time></trkpt><trkpt lat="42.1366816" lon="13.2974471"><ele>928.0</ele><time>2026-05-02T15:21:15.031Z</time></trkpt><trkpt lat="42.1366857" lon="13.2972838"><ele>928.0</ele><time>2026-05-02T15:21:17.031Z</time></trkpt><trkpt lat="42.1366825" lon="13.2971988"><ele>928.0000000000001</ele><time>2026-05-02T15:21:18.031Z</time></trkpt><trkpt lat="42.1366791" lon="13.2971118"><ele>928.0</ele><time>2026-05-02T15:21:19.031Z</time></trkpt><trkpt lat="42.136675" lon="13.2970183"><ele>928.0000000000001</ele><time>2026-05-02T15:21:20.031Z</time></trkpt><trkpt lat="42.1366774" lon="13.2969286"><ele>928.0000000000001</ele><time>2026-05-02T15:21:21.031Z</time></trkpt><trkpt lat="42.1366817" lon="13.2968272"><ele>928.0</ele><time>2026-05-02T15:21:22.031Z</time></trkpt><trkpt lat="42.1366894" lon="13.2967163"><ele>928.0000000000001</ele><time>2026-05-02T15:21:23.03Z</time></trkpt><trkpt lat="42.136696" lon="13.2965968"><ele>928.0000000000001</ele><time>2026-05-02T15:21:24.031Z</time></trkpt><trkpt lat="42.1367017" lon="13.2964826"><ele>927.0</ele><time>2026-05-02T15:21:25.03Z</time></trkpt><trkpt lat="42.1366957" lon="13.2963642"><ele>926.0</ele><time>2026-05-02T15:21:26.031Z</time></trkpt><trkpt lat="42.1366844" lon="13.2962428"><ele>925.0</ele><time>2026-05-02T15:21:27.031Z</time></trkpt><trkpt lat="42.1366742" lon="13.2961159"><ele>924.0</ele><time>2026-05-02T15:21:28.031Z</time></trkpt><trkpt lat="42.1366662" lon="13.2959871"><ele>923.0</ele><time>2026-05-02T15:21:29.031Z</time></trkpt><trkpt lat="42.1366592" lon="13.2958644"><ele>923.0000000000001</ele><time>2026-05-02T15:21:30.031Z</time></trkpt><trkpt lat="42.136652" lon="13.2957449"><ele>923.0</ele><time>2026-05-02T15:21:31.031Z</time></trkpt><trkpt lat="42.1366521" lon="13.2956308"><ele>923.0</ele><time>2026-05-02T15:21:32.03Z</time></trkpt><trkpt lat="42.1366582" lon="13.295516"><ele>923.0</ele><time>2026-05-02T15:21:33.031Z</time></trkpt><trkpt lat="42.1366618" lon="13.2954005"><ele>923.0000000000001</ele><time>2026-05-02T15:21:34.03Z</time></trkpt><trkpt lat="42.136658" lon="13.2952832"><ele>923.0</ele><time>2026-05-02T15:21:35.031Z</time></trkpt><trkpt lat="42.1366442" lon="13.2951649"><ele>922.0</ele><time>2026-05-02T15:21:36.03Z</time></trkpt><trkpt lat="42.136627" lon="13.2950347"><ele>921.0</ele><time>2026-05-02T15:21:37.031Z</time></trkpt><trkpt lat="42.1366013" lon="13.2949083"><ele>920.0</ele><time>2026-05-02T15:21:38.031Z</time></trkpt><trkpt lat="42.1365795" lon="13.2947859"><ele>919.0</ele><time>2026-05-02T15:21:39.031Z</time></trkpt><trkpt lat="42.1365601" lon="13.2946741"><ele>918.0</ele><time>2026-05-02T15:21:40.031Z</time></trkpt><trkpt lat="42.1365381" lon="13.2945643"><ele>916.5</ele><time>2026-05-02T15:21:41.03Z</time></trkpt><trkpt lat="42.1365194" lon="13.294447"><ele>915.0</ele><time>2026-05-02T15:21:42.03Z</time></trkpt><trkpt lat="42.1365009" lon="13.2943383"><ele>913.5</ele><time>2026-05-02T15:21:43.031Z</time></trkpt><trkpt lat="42.136484" lon="13.2942365"><ele>912.0</ele><time>2026-05-02T15:21:44.031Z</time></trkpt><trkpt lat="42.1364747" lon="13.2941402"><ele>910.5</ele><time>2026-05-02T15:21:45.03Z</time></trkpt><trkpt lat="42.1364758" lon="13.2940461"><ele>909.0</ele><time>2026-05-02T15:21:46.031Z</time></trkpt><trkpt lat="42.1364817" lon="13.2939044"><ele>909.0</ele><time>2026-05-02T15:21:48.031Z</time></trkpt><trkpt lat="42.1364515" lon="13.2937929"><ele>909.0000000000001</ele><time>2026-05-02T15:21:50.03Z</time></trkpt><trkpt lat="42.1364109" lon="13.2937245"><ele>909.0000000000001</ele><time>2026-05-02T15:21:52.03Z</time></trkpt><trkpt lat="42.1363487" lon="13.2936212"><ele>909.0</ele><time>2026-05-02T15:21:54.031Z</time></trkpt><trkpt lat="42.136321" lon="13.2934771"><ele>909.0</ele><time>2026-05-02T15:21:56.031Z</time></trkpt><trkpt lat="42.1363305" lon="13.2933585"><ele>909.0</ele><time>2026-05-02T15:21:58.031Z</time></trkpt><trkpt lat="42.136314" lon="13.2932287"><ele>909.0000000000001</ele><time>2026-05-02T15:22:00.03Z</time></trkpt><trkpt lat="42.1362699" lon="13.2931122"><ele>909.0000000000001</ele><time>2026-05-02T15:22:02.031Z</time></trkpt><trkpt lat="42.1362386" lon="13.2929812"><ele>909.0</ele><time>2026-05-02T15:22:04.031Z</time></trkpt><trkpt lat="42.1362243" lon="13.2928138"><ele>909.0</ele><time>2026-05-02T15:22:06.031Z</time></trkpt><trkpt lat="42.1362201" lon="13.2927251"><ele>908.7142857142857</ele><time>2026-05-02T15:22:07.031Z</time></trkpt><trkpt lat="42.1362214" lon="13.292638"><ele>908.4285714285716</ele><time>2026-05-02T15:22:08.031Z</time></trkpt><trkpt lat="42.1362269" lon="13.2925458"><ele>908.1428571428572</ele><time>2026-05-02T15:22:09.031Z</time></trkpt><trkpt lat="42.1362344" lon="13.2924503"><ele>907.8571428571429</ele><time>2026-05-02T15:22:10.031Z</time></trkpt><trkpt lat="42.1362477" lon="13.2923489"><ele>907.5714285714287</ele><time>2026-05-02T15:22:11.03Z</time></trkpt><trkpt lat="42.13626" lon="13.2922489"><ele>907.2857142857144</ele><time>2026-05-02T15:22:12.031Z</time></trkpt><trkpt lat="42.1362711" lon="13.2921525"><ele>907.0000000000001</ele><time>2026-05-02T15:22:13.031Z</time></trkpt><trkpt lat="42.1362804" lon="13.2920557"><ele>905.4999999999999</ele><time>2026-05-02T15:22:14.031Z</time></trkpt><trkpt lat="42.1362872" lon="13.2919589"><ele>904.0</ele><time>2026-05-02T15:22:15.031Z</time></trkpt><trkpt lat="42.1362905" lon="13.2918612"><ele>902.5</ele><time>2026-05-02T15:22:16.031Z</time></trkpt><trkpt lat="42.1362882" lon="13.2917644"><ele>901.0</ele><time>2026-05-02T15:22:17.031Z</time></trkpt><trkpt lat="42.1362817" lon="13.2916777"><ele>899.4999999999999</ele><time>2026-05-02T15:22:18.03Z</time></trkpt><trkpt lat="42.136282" lon="13.2915673"><ele>898.0</ele><time>2026-05-02T15:22:20.03Z</time></trkpt><trkpt lat="42.1363187" lon="13.2914595"><ele>895.4</ele><time>2026-05-02T15:22:23.031Z</time></trkpt><trkpt lat="42.1363876" lon="13.291368"><ele>892.8</ele><time>2026-05-02T15:22:25.03Z</time></trkpt><trkpt lat="42.1364681" lon="13.2912579"><ele>890.2</ele><time>2026-05-02T15:22:27.031Z</time></trkpt><trkpt lat="42.1364867" lon="13.2911214"><ele>887.6</ele><time>2026-05-02T15:22:29.031Z</time></trkpt><trkpt lat="42.1365003" lon="13.2910049"><ele>885.0</ele><time>2026-05-02T15:22:31.031Z</time></trkpt><trkpt lat="42.1365293" lon="13.2909003"><ele>886.1666666666666</ele><time>2026-05-02T15:22:33.031Z</time></trkpt><trkpt lat="42.136577" lon="13.2908116"><ele>887.3333333333333</ele><time>2026-05-02T15:22:35.031Z</time></trkpt><trkpt lat="42.1366516" lon="13.2907746"><ele>888.5</ele><time>2026-05-02T15:22:37.03Z</time></trkpt><trkpt lat="42.1367716" lon="13.2907519"><ele>889.6666666666666</ele><time>2026-05-02T15:22:39.03Z</time></trkpt><trkpt lat="42.1368467" lon="13.2907454"><ele>890.8333333333333</ele><time>2026-05-02T15:22:40.031Z</time></trkpt><trkpt lat="42.1369345" lon="13.29074"><ele>892.0</ele><time>2026-05-02T15:22:41.031Z</time></trkpt><trkpt lat="42.1370167" lon="13.2907376"><ele>891.9999999999999</ele><time>2026-05-02T15:22:42.03Z</time></trkpt><trkpt lat="42.1370911" lon="13.2907302"><ele>892.0</ele><time>2026-05-02T15:22:43.031Z</time></trkpt><trkpt lat="42.137179" lon="13.2906899"><ele>892.0</ele><time>2026-05-02T15:22:45.031Z</time></trkpt><trkpt lat="42.1372106" lon="13.2906084"><ele>892.0</ele><time>2026-05-02T15:22:47.031Z</time></trkpt><trkpt lat="42.1371763" lon="13.2905318"><ele>891.9999999999999</ele><time>2026-05-02T15:22:49.031Z</time></trkpt><trkpt lat="42.1370972" lon="13.2904881"><ele>892.0</ele><time>2026-05-02T15:22:51.03Z</time></trkpt><trkpt lat="42.1369821" lon="13.2904535"><ele>889.0</ele><time>2026-05-02T15:22:53.031Z</time></trkpt><trkpt lat="42.1368744" lon="13.2904201"><ele>886.0</ele><time>2026-05-02T15:22:55.031Z</time></trkpt><trkpt lat="42.1368174" lon="13.2903419"><ele>883.0</ele><time>2026-05-02T15:22:57.031Z</time></trkpt><trkpt lat="42.1368161" lon="13.2902562"><ele>880.0</ele><time>2026-05-02T15:22:59.031Z</time></trkpt><trkpt lat="42.1368749" lon="13.2901681"><ele>877.0</ele><time>2026-05-02T15:23:01.031Z</time></trkpt><trkpt lat="42.1369606" lon="13.2900638"><ele>877.0</ele><time>2026-05-02T15:23:03.031Z</time></trkpt><trkpt lat="42.1370401" lon="13.2899559"><ele>877.0</ele><time>2026-05-02T15:23:05.031Z</time></trkpt><trkpt lat="42.1371133" lon="13.2898454"><ele>877.0</ele><time>2026-05-02T15:23:07.031Z</time></trkpt><trkpt lat="42.1371504" lon="13.2897058"><ele>877.0</ele><time>2026-05-02T15:23:09.031Z</time></trkpt><trkpt lat="42.1371693" lon="13.2895602"><ele>877.0</ele><time>2026-05-02T15:23:11.031Z</time></trkpt><trkpt lat="42.1371532" lon="13.2894451"><ele>874.2</ele><time>2026-05-02T15:23:13.031Z</time></trkpt><trkpt lat="42.1371009" lon="13.2893371"><ele>871.4000000000001</ele><time>2026-05-02T15:23:15.031Z</time></trkpt><trkpt lat="42.1370587" lon="13.28923"><ele>868.5999999999999</ele><time>2026-05-02T15:23:17.03Z</time></trkpt><trkpt lat="42.1370636" lon="13.2891235"><ele>865.8</ele><time>2026-05-02T15:23:19.03Z</time></trkpt><trkpt lat="42.1371231" lon="13.2890395"><ele>863.0</ele><time>2026-05-02T15:23:21.03Z</time></trkpt><trkpt lat="42.1372041" lon="13.2889495"><ele>861.6666666666667</ele><time>2026-05-02T15:23:23.031Z</time></trkpt><trkpt lat="42.1371863" lon="13.2888259"><ele>860.3333333333334</ele><time>2026-05-02T15:23:25.03Z</time></trkpt><trkpt lat="42.1371555" lon="13.2887445"><ele>859.0</ele><time>2026-05-02T15:23:26.03Z</time></trkpt><trkpt lat="42.1371159" lon="13.2886572"><ele>857.6666666666667</ele><time>2026-05-02T15:23:27.03Z</time></trkpt><trkpt lat="42.1370814" lon="13.2885467"><ele>856.3333333333334</ele><time>2026-05-02T15:23:28.031Z</time></trkpt><trkpt lat="42.1370557" lon="13.2884366"><ele>855.0</ele><time>2026-05-02T15:23:29.03Z</time></trkpt><trkpt lat="42.1370359" lon="13.2883378"><ele>855.0</ele><time>2026-05-02T15:23:30.03Z</time></trkpt><trkpt lat="42.1370246" lon="13.288245"><ele>855.0</ele><time>2026-05-02T15:23:31.03Z</time></trkpt><trkpt lat="42.1370358" lon="13.2881069"><ele>855.0</ele><time>2026-05-02T15:23:33.031Z</time></trkpt><trkpt lat="42.1370948" lon="13.2880391"><ele>855.0</ele><time>2026-05-02T15:23:35.031Z</time></trkpt><trkpt lat="42.1371697" lon="13.2880691"><ele>855.0</ele><time>2026-05-02T15:23:38.031Z</time></trkpt><trkpt lat="42.1372126" lon="13.2881547"><ele>855.0</ele><time>2026-05-02T15:23:40.03Z</time></trkpt><trkpt lat="42.1372624" lon="13.2882274"><ele>855.0</ele><time>2026-05-02T15:23:42.031Z</time></trkpt><trkpt lat="42.1373605" lon="13.288297"><ele>855.0</ele><time>2026-05-02T15:23:44.031Z</time></trkpt><trkpt lat="42.1374729" lon="13.2883747"><ele>855.0</ele><time>2026-05-02T15:23:46.031Z</time></trkpt><trkpt lat="42.1375321" lon="13.2884162"><ele>855.0</ele><time>2026-05-02T15:23:47.031Z</time></trkpt><trkpt lat="42.1375866" lon="13.2884662"><ele>855.0</ele><time>2026-05-02T15:23:48.031Z</time></trkpt><trkpt lat="42.1376423" lon="13.2885186"><ele>855.0</ele><time>2026-05-02T15:23:49.031Z</time></trkpt><trkpt lat="42.1377534" lon="13.288571"><ele>855.4</ele><time>2026-05-02T15:23:51.031Z</time></trkpt><trkpt lat="42.1378521" lon="13.2885157"><ele>855.8</ele><time>2026-05-02T15:23:53.031Z</time></trkpt><trkpt lat="42.1378898" lon="13.2883721"><ele>856.2</ele><time>2026-05-02T15:23:55.031Z</time></trkpt><trkpt lat="42.1378839" lon="13.2882691"><ele>856.6</ele><time>2026-05-02T15:23:56.031Z</time></trkpt><trkpt lat="42.1378719" lon="13.2881521"><ele>857.0</ele><time>2026-05-02T15:23:57.03Z</time></trkpt><trkpt lat="42.1378499" lon="13.2880231"><ele>855.0</ele><time>2026-05-02T15:23:58.031Z</time></trkpt><trkpt lat="42.1378224" lon="13.2878654"><ele>853.0</ele><time>2026-05-02T15:23:59.031Z</time></trkpt><trkpt lat="42.1377835" lon="13.2877065"><ele>851.0</ele><time>2026-05-02T15:24:00.03Z</time></trkpt><trkpt lat="42.1377507" lon="13.2875516"><ele>849.0</ele><time>2026-05-02T15:24:01.03Z</time></trkpt><trkpt lat="42.1377236" lon="13.2874062"><ele>849.0</ele><time>2026-05-02T15:24:02.031Z</time></trkpt><trkpt lat="42.137706" lon="13.2872629"><ele>849.0</ele><time>2026-05-02T15:24:03.031Z</time></trkpt><trkpt lat="42.1376985" lon="13.2871342"><ele>849.0</ele><time>2026-05-02T15:24:04.031Z</time></trkpt><trkpt lat="42.1376911" lon="13.2870211"><ele>849.0</ele><time>2026-05-02T15:24:05.031Z</time></trkpt><trkpt lat="42.1376922" lon="13.2869248"><ele>849.0</ele><time>2026-05-02T15:24:06.031Z</time></trkpt><trkpt lat="42.1376868" lon="13.2868327"><ele>849.0</ele><time>2026-05-02T15:24:07.031Z</time></trkpt><trkpt lat="42.1376752" lon="13.2867355"><ele>847.6666666666666</ele><time>2026-05-02T15:24:08.031Z</time></trkpt><trkpt lat="42.1376575" lon="13.2866161"><ele>846.3333333333333</ele><time>2026-05-02T15:24:09.031Z</time></trkpt><trkpt lat="42.1376436" lon="13.2864907"><ele>845.0</ele><time>2026-05-02T15:24:10.031Z</time></trkpt><trkpt lat="42.1376373" lon="13.286369"><ele>843.6666666666666</ele><time>2026-05-02T15:24:11.031Z</time></trkpt><trkpt lat="42.137629" lon="13.2862539"><ele>842.3333333333333</ele><time>2026-05-02T15:24:12.031Z</time></trkpt><trkpt lat="42.1376232" lon="13.2861501"><ele>841.0</ele><time>2026-05-02T15:24:13.031Z</time></trkpt><trkpt lat="42.1376037" lon="13.2860553"><ele>840.6666666666666</ele><time>2026-05-02T15:24:14.031Z</time></trkpt><trkpt lat="42.137583" lon="13.2859718"><ele>840.3333333333333</ele><time>2026-05-02T15:24:15.03Z</time></trkpt><trkpt lat="42.1375748" lon="13.2858425"><ele>840.0</ele><time>2026-05-02T15:24:17.031Z</time></trkpt><trkpt lat="42.1376134" lon="13.2857429"><ele>839.6666666666667</ele><time>2026-05-02T15:24:19.031Z</time></trkpt><trkpt lat="42.1377179" lon="13.2857075"><ele>839.3333333333334</ele><time>2026-05-02T15:24:21.031Z</time></trkpt><trkpt lat="42.1377948" lon="13.2857128"><ele>839.0</ele><time>2026-05-02T15:24:22.031Z</time></trkpt><trkpt lat="42.1378857" lon="13.2857322"><ele>839.0000000000001</ele><time>2026-05-02T15:24:23.031Z</time></trkpt><trkpt lat="42.1379845" lon="13.2857686"><ele>839.0</ele><time>2026-05-02T15:24:24.031Z</time></trkpt><trkpt lat="42.1380793" lon="13.2858054"><ele>839.0</ele><time>2026-05-02T15:24:25.031Z</time></trkpt><trkpt lat="42.1381624" lon="13.2858333"><ele>839.0</ele><time>2026-05-02T15:24:26.031Z</time></trkpt><trkpt lat="42.1382281" lon="13.2858627"><ele>839.0000000000001</ele><time>2026-05-02T15:24:27.031Z</time></trkpt><trkpt lat="42.1383064" lon="13.2859232"><ele>839.0</ele><time>2026-05-02T15:24:29.031Z</time></trkpt><trkpt lat="42.1384005" lon="13.2858755"><ele>839.2</ele><time>2026-05-02T15:24:32.031Z</time></trkpt><trkpt lat="42.1385041" lon="13.2858668"><ele>839.4000000000001</ele><time>2026-05-02T15:24:34.031Z</time></trkpt><trkpt lat="42.1385947" lon="13.2858674"><ele>839.6</ele><time>2026-05-02T15:24:36.031Z</time></trkpt><trkpt lat="42.1386716" lon="13.2858502"><ele>839.8</ele><time>2026-05-02T15:24:38.031Z</time></trkpt><trkpt lat="42.1387557" lon="13.2858453"><ele>840.0</ele><time>2026-05-02T15:24:40.03Z</time></trkpt><trkpt lat="42.1388519" lon="13.2858621"><ele>840.0</ele><time>2026-05-02T15:24:42.031Z</time></trkpt><trkpt lat="42.1389223" lon="13.2858928"><ele>840.0</ele><time>2026-05-02T15:24:44.031Z</time></trkpt><trkpt lat="42.1389957" lon="13.2859168"><ele>840.0</ele><time>2026-05-02T15:24:46.031Z</time></trkpt><trkpt lat="42.1391214" lon="13.2859091"><ele>840.0</ele><time>2026-05-02T15:24:48.031Z</time></trkpt><trkpt lat="42.1391836" lon="13.2858953"><ele>840.0</ele><time>2026-05-02T15:24:49.031Z</time></trkpt><trkpt lat="42.139251" lon="13.2858887"><ele>840.0</ele><time>2026-05-02T15:24:50.031Z</time></trkpt><trkpt lat="42.139317" lon="13.2858918"><ele>839.5714285714286</ele><time>2026-05-02T15:24:51.03Z</time></trkpt><trkpt lat="42.1393876" lon="13.2858944"><ele>839.1428571428571</ele><time>2026-05-02T15:24:52.031Z</time></trkpt><trkpt lat="42.1394597" lon="13.2858994"><ele>838.7142857142858</ele><time>2026-05-02T15:24:53.03Z</time></trkpt><trkpt lat="42.1395299" lon="13.2859065"><ele>838.2857142857142</ele><time>2026-05-02T15:24:54.031Z</time></trkpt><trkpt lat="42.1396024" lon="13.285909"><ele>837.8571428571429</ele><time>2026-05-02T15:24:55.031Z</time></trkpt><trkpt lat="42.1396744" lon="13.2859056"><ele>837.4285714285714</ele><time>2026-05-02T15:24:56.031Z</time></trkpt><trkpt lat="42.1397489" lon="13.2859037"><ele>837.0</ele><time>2026-05-02T15:24:57.031Z</time></trkpt><trkpt lat="42.1398251" lon="13.2859016"><ele>835.3333333333334</ele><time>2026-05-02T15:24:58.031Z</time></trkpt><trkpt lat="42.1399003" lon="13.2859043"><ele>833.6666666666667</ele><time>2026-05-02T15:24:59.031Z</time></trkpt><trkpt lat="42.1399762" lon="13.2859003"><ele>832.0</ele><time>2026-05-02T15:25:00.031Z</time></trkpt><trkpt lat="42.1400552" lon="13.2859134"><ele>830.3333333333334</ele><time>2026-05-02T15:25:01.031Z</time></trkpt><trkpt lat="42.1401309" lon="13.285932"><ele>828.6666666666667</ele><time>2026-05-02T15:25:02.03Z</time></trkpt><trkpt lat="42.1402073" lon="13.2859401"><ele>827.0</ele><time>2026-05-02T15:25:03.031Z</time></trkpt><trkpt lat="42.1402805" lon="13.2859458"><ele>827.0000000000001</ele><time>2026-05-02T15:25:04.031Z</time></trkpt><trkpt lat="42.1403526" lon="13.2859546"><ele>827.0</ele><time>2026-05-02T15:25:05.031Z</time></trkpt><trkpt lat="42.1404184" lon="13.2859628"><ele>827.0</ele><time>2026-05-02T15:25:06.031Z</time></trkpt><trkpt lat="42.1404846" lon="13.2859814"><ele>827.0</ele><time>2026-05-02T15:25:07.031Z</time></trkpt><trkpt lat="42.140611" lon="13.2859971"><ele>827.0000000000001</ele><time>2026-05-02T15:25:09.031Z</time></trkpt><trkpt lat="42.1406751" lon="13.2859967"><ele>827.0</ele><time>2026-05-02T15:25:10.031Z</time></trkpt><trkpt lat="42.1407742" lon="13.2859924"><ele>825.4000000000001</ele><time>2026-05-02T15:25:12.031Z</time></trkpt><trkpt lat="42.1408637" lon="13.2859693"><ele>823.8000000000001</ele><time>2026-05-02T15:25:14.031Z</time></trkpt><trkpt lat="42.1409376" lon="13.2859884"><ele>822.2</ele><time>2026-05-02T15:25:16.032Z</time></trkpt><trkpt lat="42.1410163" lon="13.2860558"><ele>820.6</ele><time>2026-05-02T15:25:18.032Z</time></trkpt><trkpt lat="42.1411278" lon="13.28612"><ele>819.0</ele><time>2026-05-02T15:25:20.031Z</time></trkpt><trkpt lat="42.1412444" lon="13.2861074"><ele>819.0</ele><time>2026-05-02T15:25:22.032Z</time></trkpt><trkpt lat="42.1413084" lon="13.2860767"><ele>819.0</ele><time>2026-05-02T15:25:23.032Z</time></trkpt><trkpt lat="42.1413766" lon="13.2860451"><ele>819.0</ele><time>2026-05-02T15:25:24.032Z</time></trkpt><trkpt lat="42.141445" lon="13.2860175"><ele>819.0</ele><time>2026-05-02T15:25:25.032Z</time></trkpt><trkpt lat="42.1415199" lon="13.2859929"><ele>819.0</ele><time>2026-05-02T15:25:26.032Z</time></trkpt><trkpt lat="42.1415926" lon="13.2859767"><ele>819.0</ele><time>2026-05-02T15:25:27.032Z</time></trkpt><trkpt lat="42.1416665" lon="13.2859764"><ele>819.0</ele><time>2026-05-02T15:25:28.032Z</time></trkpt><trkpt lat="42.1417434" lon="13.2859761"><ele>815.6666666666666</ele><time>2026-05-02T15:25:29.032Z</time></trkpt><trkpt lat="42.1418221" lon="13.285982"><ele>812.3333333333333</ele><time>2026-05-02T15:25:30.032Z</time></trkpt><trkpt lat="42.1418973" lon="13.2859799"><ele>809.0</ele><time>2026-05-02T15:25:31.032Z</time></trkpt><trkpt lat="42.1419682" lon="13.2859764"><ele>805.6666666666666</ele><time>2026-05-02T15:25:32.032Z</time></trkpt><trkpt lat="42.1420339" lon="13.285979"><ele>802.3333333333333</ele><time>2026-05-02T15:25:33.032Z</time></trkpt><trkpt lat="42.1421475" lon="13.2859854"><ele>799.0</ele><time>2026-05-02T15:25:35.032Z</time></trkpt><trkpt lat="42.1422384" lon="13.2859743"><ele>798.9999999999999</ele><time>2026-05-02T15:25:37.031Z</time></trkpt><trkpt lat="42.1423031" lon="13.285938"><ele>799.0</ele><time>2026-05-02T15:25:39.032Z</time></trkpt><trkpt lat="42.1423776" lon="13.2859134"><ele>799.0</ele><time>2026-05-02T15:25:41.032Z</time></trkpt><trkpt lat="42.1424505" lon="13.2859299"><ele>799.0</ele><time>2026-05-02T15:25:44.032Z</time></trkpt><trkpt lat="42.1425004" lon="13.2860132"><ele>798.9999999999999</ele><time>2026-05-02T15:25:47.032Z</time></trkpt><trkpt lat="42.1425361" lon="13.2861264"><ele>799.0</ele><time>2026-05-02T15:25:50.032Z</time></trkpt><trkpt lat="42.1425858" lon="13.2861986"><ele>798.6</ele><time>2026-05-02T15:25:52.032Z</time></trkpt><trkpt lat="42.1426448" lon="13.2862565"><ele>798.2</ele><time>2026-05-02T15:25:54.032Z</time></trkpt><trkpt lat="42.1427125" lon="13.2863235"><ele>797.8000000000001</ele><time>2026-05-02T15:25:56.031Z</time></trkpt><trkpt lat="42.1428051" lon="13.2863665"><ele>797.4000000000001</ele><time>2026-05-02T15:25:58.032Z</time></trkpt><trkpt lat="42.1429" lon="13.2864257"><ele>797.0</ele><time>2026-05-02T15:26:00.032Z</time></trkpt><trkpt lat="42.1429932" lon="13.286538"><ele>797.0000000000001</ele><time>2026-05-02T15:26:02.032Z</time></trkpt><trkpt lat="42.1430348" lon="13.2866135"><ele>797.0</ele><time>2026-05-02T15:26:03.032Z</time></trkpt><trkpt lat="42.1430808" lon="13.2867"><ele>797.0</ele><time>2026-05-02T15:26:04.031Z</time></trkpt><trkpt lat="42.1431277" lon="13.2867944"><ele>797.0</ele><time>2026-05-02T15:26:05.032Z</time></trkpt><trkpt lat="42.1431723" lon="13.2868861"><ele>797.0000000000001</ele><time>2026-05-02T15:26:06.031Z</time></trkpt><trkpt lat="42.1432038" lon="13.2869818"><ele>797.0</ele><time>2026-05-02T15:26:07.032Z</time></trkpt><trkpt lat="42.1432276" lon="13.2870761"><ele>794.5000000000001</ele><time>2026-05-02T15:26:08.031Z</time></trkpt><trkpt lat="42.1432463" lon="13.2871655"><ele>792.0</ele><time>2026-05-02T15:26:09.032Z</time></trkpt><trkpt lat="42.1432477" lon="13.2872626"><ele>789.5</ele><time>2026-05-02T15:26:10.031Z</time></trkpt><trkpt lat="42.1432484" lon="13.287369"><ele>787.0</ele><time>2026-05-02T15:26:11.032Z</time></trkpt><trkpt lat="42.1432489" lon="13.2874801"><ele>784.5000000000001</ele><time>2026-05-02T15:26:12.032Z</time></trkpt><trkpt lat="42.1432431" lon="13.2875761"><ele>782.0</ele><time>2026-05-02T15:26:13.032Z</time></trkpt><trkpt lat="42.1432946" lon="13.2877028"><ele>782.0000000000001</ele><time>2026-05-02T15:26:15.031Z</time></trkpt><trkpt lat="42.1433688" lon="13.2877595"><ele>782.0</ele><time>2026-05-02T15:26:17.032Z</time></trkpt><trkpt lat="42.1434497" lon="13.2877925"><ele>782.0</ele><time>2026-05-02T15:26:20.031Z</time></trkpt><trkpt lat="42.1435158" lon="13.2878254"><ele>782.0</ele><time>2026-05-02T15:26:22.032Z</time></trkpt><trkpt lat="42.1436092" lon="13.2878552"><ele>782.0000000000001</ele><time>2026-05-02T15:26:24.032Z</time></trkpt><trkpt lat="42.1437033" lon="13.2878016"><ele>782.0</ele><time>2026-05-02T15:26:26.032Z</time></trkpt><trkpt lat="42.1437486" lon="13.2877367"><ele>782.0</ele><time>2026-05-02T15:26:27.032Z</time></trkpt><trkpt lat="42.1438218" lon="13.2876175"><ele>782.0</ele><time>2026-05-02T15:26:29.032Z</time></trkpt><trkpt lat="42.1439025" lon="13.2875216"><ele>782.0</ele><time>2026-05-02T15:26:31.032Z</time></trkpt><trkpt lat="42.1439825" lon="13.2874573"><ele>782.0</ele><time>2026-05-02T15:26:33.032Z</time></trkpt><trkpt lat="42.144051" lon="13.2874055"><ele>782.0</ele><time>2026-05-02T15:26:35.032Z</time></trkpt><trkpt lat="42.1441403" lon="13.2873842"><ele>783.5</ele><time>2026-05-02T15:26:37.032Z</time></trkpt><trkpt lat="42.1442545" lon="13.2873828"><ele>785.0</ele><time>2026-05-02T15:26:39.032Z</time></trkpt><trkpt lat="42.144361" lon="13.2873814"><ele>786.5</ele><time>2026-05-02T15:26:41.032Z</time></trkpt><trkpt lat="42.1444771" lon="13.2873698"><ele>788.0</ele><time>2026-05-02T15:26:43.031Z</time></trkpt><trkpt lat="42.1445938" lon="13.2873612"><ele>788.0</ele><time>2026-05-02T15:26:45.032Z</time></trkpt><trkpt lat="42.1447153" lon="13.2873572"><ele>788.0</ele><time>2026-05-02T15:26:47.032Z</time></trkpt><trkpt lat="42.1448195" lon="13.2873711"><ele>788.0</ele><time>2026-05-02T15:26:49.031Z</time></trkpt><trkpt lat="42.144914" lon="13.2874276"><ele>788.0</ele><time>2026-05-02T15:26:51.032Z</time></trkpt><trkpt lat="42.1449828" lon="13.2874946"><ele>788.0</ele><time>2026-05-02T15:26:53.032Z</time></trkpt><trkpt lat="42.1450306" lon="13.2875941"><ele>789.5999999999999</ele><time>2026-05-02T15:26:55.032Z</time></trkpt><trkpt lat="42.1450597" lon="13.2877008"><ele>791.1999999999999</ele><time>2026-05-02T15:26:57.031Z</time></trkpt><trkpt lat="42.1450624" lon="13.2878291"><ele>792.8</ele><time>2026-05-02T15:27:00.032Z</time></trkpt><trkpt lat="42.1450363" lon="13.287938"><ele>794.4</ele><time>2026-05-02T15:27:02.032Z</time></trkpt><trkpt lat="42.1450051" lon="13.2880848"><ele>796.0</ele><time>2026-05-02T15:27:04.032Z</time></trkpt><trkpt lat="42.1449868" lon="13.2882261"><ele>796.1999999999999</ele><time>2026-05-02T15:27:06.032Z</time></trkpt><trkpt lat="42.1449809" lon="13.2883586"><ele>796.4</ele><time>2026-05-02T15:27:08.032Z</time></trkpt><trkpt lat="42.1449666" lon="13.2885301"><ele>796.6</ele><time>2026-05-02T15:27:10.032Z</time></trkpt><trkpt lat="42.1449598" lon="13.2886445"><ele>796.8</ele><time>2026-05-02T15:27:11.032Z</time></trkpt><trkpt lat="42.1449543" lon="13.2887471"><ele>797.0</ele><time>2026-05-02T15:27:12.032Z</time></trkpt><trkpt lat="42.1449469" lon="13.2889245"><ele>796.5000000000001</ele><time>2026-05-02T15:27:14.031Z</time></trkpt><trkpt lat="42.1449494" lon="13.2890197"><ele>796.0</ele><time>2026-05-02T15:27:15.032Z</time></trkpt><trkpt lat="42.1449566" lon="13.2891266"><ele>795.5</ele><time>2026-05-02T15:27:16.032Z</time></trkpt><trkpt lat="42.1449625" lon="13.2892349"><ele>795.0</ele><time>2026-05-02T15:27:17.032Z</time></trkpt><trkpt lat="42.1449696" lon="13.2893378"><ele>794.5000000000001</ele><time>2026-05-02T15:27:18.032Z</time></trkpt><trkpt lat="42.144974" lon="13.2894389"><ele>794.0</ele><time>2026-05-02T15:27:19.032Z</time></trkpt><trkpt lat="42.1449849" lon="13.2895413"><ele>794.0000000000001</ele><time>2026-05-02T15:27:20.032Z</time></trkpt><trkpt lat="42.1449948" lon="13.289645"><ele>794.0</ele><time>2026-05-02T15:27:21.032Z</time></trkpt><trkpt lat="42.1450218" lon="13.2897374"><ele>794.0</ele><time>2026-05-02T15:27:22.032Z</time></trkpt><trkpt lat="42.1450549" lon="13.2898246"><ele>794.0</ele><time>2026-05-02T15:27:23.032Z</time></trkpt><trkpt lat="42.1450961" lon="13.2899137"><ele>794.0000000000001</ele><time>2026-05-02T15:27:24.032Z</time></trkpt><trkpt lat="42.1451382" lon="13.2899935"><ele>794.0</ele><time>2026-05-02T15:27:25.031Z</time></trkpt><trkpt lat="42.1451829" lon="13.2900855"><ele>794.8000000000001</ele><time>2026-05-02T15:27:26.032Z</time></trkpt><trkpt lat="42.1452214" lon="13.2901802"><ele>795.6</ele><time>2026-05-02T15:27:27.032Z</time></trkpt><trkpt lat="42.1452674" lon="13.290271"><ele>796.4</ele><time>2026-05-02T15:27:28.032Z</time></trkpt><trkpt lat="42.1453263" lon="13.2903629"><ele>797.2</ele><time>2026-05-02T15:27:29.032Z</time></trkpt><trkpt lat="42.1453947" lon="13.2904613"><ele>798.0</ele><time>2026-05-02T15:27:30.031Z</time></trkpt><trkpt lat="42.1454732" lon="13.290553"><ele>799.0</ele><time>2026-05-02T15:27:31.032Z</time></trkpt><trkpt lat="42.145553" lon="13.2906447"><ele>800.0</ele><time>2026-05-02T15:27:32.032Z</time></trkpt><trkpt lat="42.1456337" lon="13.2907261"><ele>801.0</ele><time>2026-05-02T15:27:33.032Z</time></trkpt><trkpt lat="42.1457129" lon="13.2907928"><ele>802.0</ele><time>2026-05-02T15:27:34.031Z</time></trkpt><trkpt lat="42.1457856" lon="13.2908574"><ele>803.0</ele><time>2026-05-02T15:27:35.032Z</time></trkpt><trkpt lat="42.1458573" lon="13.2909151"><ele>800.5000000000001</ele><time>2026-05-02T15:27:36.032Z</time></trkpt><trkpt lat="42.1459214" lon="13.2909695"><ele>798.0</ele><time>2026-05-02T15:27:37.031Z</time></trkpt><trkpt lat="42.145971" lon="13.2910236"><ele>795.5</ele><time>2026-05-02T15:27:38.032Z</time></trkpt><trkpt lat="42.1460266" lon="13.2910911"><ele>793.0</ele><time>2026-05-02T15:27:40.031Z</time></trkpt><trkpt lat="42.1460979" lon="13.2911526"><ele>790.5000000000001</ele><time>2026-05-02T15:32:26.03Z</time></trkpt><trkpt lat="42.1461299" lon="13.2912363"><ele>788.0</ele><time>2026-05-02T15:32:28.031Z</time></trkpt><trkpt lat="42.1461865" lon="13.2913205"><ele>789.0000000000001</ele><time>2026-05-02T15:32:30.031Z</time></trkpt><trkpt lat="42.1462695" lon="13.2914288"><ele>790.0</ele><time>2026-05-02T15:32:32.031Z</time></trkpt><trkpt lat="42.1463189" lon="13.2914881"><ele>791.0</ele><time>2026-05-02T15:32:33.031Z</time></trkpt><trkpt lat="42.1463716" lon="13.2915588"><ele>792.0</ele><time>2026-05-02T15:32:34.031Z</time></trkpt><trkpt lat="42.1464272" lon="13.2916237"><ele>793.0000000000001</ele><time>2026-05-02T15:32:35.031Z</time></trkpt><trkpt lat="42.1464822" lon="13.2916865"><ele>794.0</ele><time>2026-05-02T15:32:36.031Z</time></trkpt><trkpt lat="42.1465321" lon="13.291752"><ele>791.6666666666667</ele><time>2026-05-02T15:32:37.03Z</time></trkpt><trkpt lat="42.14658" lon="13.2918178"><ele>789.3333333333334</ele><time>2026-05-02T15:32:38.03Z</time></trkpt><trkpt lat="42.1466611" lon="13.2918932"><ele>787.0</ele><time>2026-05-02T15:32:40.031Z</time></trkpt><trkpt lat="42.1467454" lon="13.2918871"><ele>784.6666666666667</ele><time>2026-05-02T15:32:42.031Z</time></trkpt><trkpt lat="42.1468334" lon="13.2917987"><ele>782.3333333333334</ele><time>2026-05-02T15:32:44.031Z</time></trkpt><trkpt lat="42.1468842" lon="13.291746"><ele>780.0</ele><time>2026-05-02T15:32:45.031Z</time></trkpt><trkpt lat="42.1469385" lon="13.2916901"><ele>780.0</ele><time>2026-05-02T15:32:46.031Z</time></trkpt><trkpt lat="42.1469893" lon="13.2916258"><ele>780.0</ele><time>2026-05-02T15:32:47.03Z</time></trkpt><trkpt lat="42.1470916" lon="13.2915468"><ele>780.0</ele><time>2026-05-02T15:32:49.031Z</time></trkpt><trkpt lat="42.1471892" lon="13.2915201"><ele>780.0</ele><time>2026-05-02T15:32:51.031Z</time></trkpt><trkpt lat="42.1472826" lon="13.2915088"><ele>780.0</ele><time>2026-05-02T15:32:53.03Z</time></trkpt><trkpt lat="42.1473755" lon="13.2915478"><ele>776.6</ele><time>2026-05-02T15:32:55.031Z</time></trkpt><trkpt lat="42.1474537" lon="13.2915931"><ele>773.2</ele><time>2026-05-02T15:32:57.03Z</time></trkpt><trkpt lat="42.1475377" lon="13.291634"><ele>769.8</ele><time>2026-05-02T15:32:59.031Z</time></trkpt><trkpt lat="42.1476177" lon="13.2917283"><ele>766.4</ele><time>2026-05-02T15:33:01.031Z</time></trkpt><trkpt lat="42.1476739" lon="13.2918887"><ele>763.0</ele><time>2026-05-02T15:33:03.031Z</time></trkpt><trkpt lat="42.1477096" lon="13.2919823"><ele>763.0</ele><time>2026-05-02T15:33:04.031Z</time></trkpt><trkpt lat="42.1477485" lon="13.2920794"><ele>763.0</ele><time>2026-05-02T15:33:05.031Z</time></trkpt><trkpt lat="42.1477858" lon="13.2921835"><ele>763.0</ele><time>2026-05-02T15:33:06.031Z</time></trkpt><trkpt lat="42.1478238" lon="13.2922895"><ele>763.0</ele><time>2026-05-02T15:33:07.031Z</time></trkpt><trkpt lat="42.1478696" lon="13.2924047"><ele>763.0</ele><time>2026-05-02T15:33:08.031Z</time></trkpt><trkpt lat="42.1479196" lon="13.2925189"><ele>765.5999999999999</ele><time>2026-05-02T15:33:09.03Z</time></trkpt><trkpt lat="42.1479748" lon="13.2926301"><ele>768.1999999999999</ele><time>2026-05-02T15:33:10.031Z</time></trkpt><trkpt lat="42.1480341" lon="13.2927172"><ele>770.8</ele><time>2026-05-02T15:33:11.031Z</time></trkpt><trkpt lat="42.1481237" lon="13.2927833"><ele>773.4</ele><time>2026-05-02T15:33:12.031Z</time></trkpt><trkpt lat="42.1482077" lon="13.2928412"><ele>776.0</ele><time>2026-05-02T15:33:13.03Z</time></trkpt><trkpt lat="42.1482844" lon="13.2928955"><ele>771.0</ele><time>2026-05-02T15:33:14.031Z</time></trkpt><trkpt lat="42.1483649" lon="13.2929565"><ele>766.0</ele><time>2026-05-02T15:33:15.03Z</time></trkpt><trkpt lat="42.1484436" lon="13.293"><ele>761.0</ele><time>2026-05-02T15:33:16.031Z</time></trkpt><trkpt lat="42.1485277" lon="13.2930424"><ele>756.0</ele><time>2026-05-02T15:33:17.031Z</time></trkpt><trkpt lat="42.1486166" lon="13.2930802"><ele>751.0</ele><time>2026-05-02T15:33:18.031Z</time></trkpt><trkpt lat="42.1487107" lon="13.2931161"><ele>751.0</ele><time>2026-05-02T15:33:19.031Z</time></trkpt><trkpt lat="42.1488037" lon="13.2931682"><ele>751.0</ele><time>2026-05-02T15:33:20.03Z</time></trkpt><trkpt lat="42.1488971" lon="13.29322"><ele>751.0</ele><time>2026-05-02T15:33:21.031Z</time></trkpt><trkpt lat="42.1489932" lon="13.2932818"><ele>751.0</ele><time>2026-05-02T15:33:22.031Z</time></trkpt><trkpt lat="42.1490836" lon="13.2933533"><ele>751.0</ele><time>2026-05-02T15:33:23.031Z</time></trkpt><trkpt lat="42.1491699" lon="13.2934319"><ele>751.5</ele><time>2026-05-02T15:33:24.031Z</time></trkpt><trkpt lat="42.1492516" lon="13.2934995"><ele>752.0</ele><time>2026-05-02T15:33:25.031Z</time></trkpt><trkpt lat="42.1493204" lon="13.2935585"><ele>752.5</ele><time>2026-05-02T15:33:26.031Z</time></trkpt><trkpt lat="42.1493737" lon="13.2936132"><ele>753.0</ele><time>2026-05-02T15:33:27.031Z</time></trkpt><trkpt lat="42.1494415" lon="13.2936885"><ele>753.5</ele><time>2026-05-02T15:33:29.031Z</time></trkpt><trkpt lat="42.1495171" lon="13.2936567"><ele>754.0</ele><time>2026-05-02T15:33:32.031Z</time></trkpt><trkpt lat="42.1495809" lon="13.293508"><ele>754.0</ele><time>2026-05-02T15:33:34.031Z</time></trkpt><trkpt lat="42.1496178" lon="13.2934035"><ele>754.0</ele><time>2026-05-02T15:33:35.03Z</time></trkpt><trkpt lat="42.1496586" lon="13.2933039"><ele>754.0</ele><time>2026-05-02T15:33:36.031Z</time></trkpt><trkpt lat="42.1497028" lon="13.2931906"><ele>754.0</ele><time>2026-05-02T15:33:37.031Z</time></trkpt><trkpt lat="42.1497506" lon="13.2930617"><ele>754.0</ele><time>2026-05-02T15:33:38.031Z</time></trkpt><trkpt lat="42.1498009" lon="13.2929358"><ele>754.2</ele><time>2026-05-02T15:33:39.031Z</time></trkpt><trkpt lat="42.1498519" lon="13.2928181"><ele>754.4000000000001</ele><time>2026-05-02T15:33:40.031Z</time></trkpt><trkpt lat="42.1499026" lon="13.2926903"><ele>754.6</ele><time>2026-05-02T15:33:41.031Z</time></trkpt><trkpt lat="42.1499514" lon="13.2925576"><ele>754.8</ele><time>2026-05-02T15:33:42.031Z</time></trkpt><trkpt lat="42.1500036" lon="13.2924186"><ele>755.0</ele><time>2026-05-02T15:33:43.031Z</time></trkpt><trkpt lat="42.1500368" lon="13.2922652"><ele>753.75</ele><time>2026-05-02T15:33:44.031Z</time></trkpt><trkpt lat="42.1500619" lon="13.2921013"><ele>752.5</ele><time>2026-05-02T15:33:45.03Z</time></trkpt><trkpt lat="42.1500809" lon="13.2919365"><ele>751.25</ele><time>2026-05-02T15:33:46.031Z</time></trkpt><trkpt lat="42.1500996" lon="13.2917746"><ele>750.0</ele><time>2026-05-02T15:33:47.031Z</time></trkpt><trkpt lat="42.1501208" lon="13.2916072"><ele>750.0</ele><time>2026-05-02T15:33:48.031Z</time></trkpt><trkpt lat="42.1501379" lon="13.291432"><ele>750.0</ele><time>2026-05-02T15:33:49.03Z</time></trkpt><trkpt lat="42.1501566" lon="13.2912659"><ele>750.0</ele><time>2026-05-02T15:33:50.031Z</time></trkpt><trkpt lat="42.1501737" lon="13.2911029"><ele>750.0</ele><time>2026-05-02T15:33:51.031Z</time></trkpt><trkpt lat="42.1501944" lon="13.290941"><ele>749.25</ele><time>2026-05-02T15:33:52.031Z</time></trkpt><trkpt lat="42.1502117" lon="13.2907782"><ele>748.5</ele><time>2026-05-02T15:33:53.031Z</time></trkpt><trkpt lat="42.1502224" lon="13.2906217"><ele>747.75</ele><time>2026-05-02T15:33:54.031Z</time></trkpt><trkpt lat="42.150238" lon="13.290463"><ele>747.0</ele><time>2026-05-02T15:33:55.03Z</time></trkpt><trkpt lat="42.1502595" lon="13.2902984"><ele>745.75</ele><time>2026-05-02T15:33:56.031Z</time></trkpt><trkpt lat="42.1502859" lon="13.2901232"><ele>744.5</ele><time>2026-05-02T15:33:57.031Z</time></trkpt><trkpt lat="42.1503203" lon="13.2899468"><ele>743.25</ele><time>2026-05-02T15:33:58.031Z</time></trkpt><trkpt lat="42.1503564" lon="13.2897555"><ele>742.0</ele><time>2026-05-02T15:33:59.03Z</time></trkpt><trkpt lat="42.1503971" lon="13.2895634"><ele>740.6666666666667</ele><time>2026-05-02T15:34:00.03Z</time></trkpt><trkpt lat="42.1504378" lon="13.2893755"><ele>739.3333333333334</ele><time>2026-05-02T15:34:01.031Z</time></trkpt><trkpt lat="42.1504823" lon="13.2891781"><ele>738.0</ele><time>2026-05-02T15:34:02.031Z</time></trkpt><trkpt lat="42.1505351" lon="13.2889736"><ele>737.0</ele><time>2026-05-02T15:34:03.031Z</time></trkpt><trkpt lat="42.1505872" lon="13.288773"><ele>736.0</ele><time>2026-05-02T15:34:04.031Z</time></trkpt><trkpt lat="42.1506332" lon="13.2885652"><ele>735.0</ele><time>2026-05-02T15:34:05.031Z</time></trkpt><trkpt lat="42.1506755" lon="13.2883548"><ele>734.75</ele><time>2026-05-02T15:34:06.031Z</time></trkpt><trkpt lat="42.1507256" lon="13.2881565"><ele>734.5</ele><time>2026-05-02T15:34:07.03Z</time></trkpt><trkpt lat="42.1507674" lon="13.2879622"><ele>734.25</ele><time>2026-05-02T15:34:08.031Z</time></trkpt><trkpt lat="42.1508042" lon="13.2877786"><ele>734.0</ele><time>2026-05-02T15:34:09.03Z</time></trkpt><trkpt lat="42.150822" lon="13.287601"><ele>734.0</ele><time>2026-05-02T15:34:10.031Z</time></trkpt><trkpt lat="42.1508245" lon="13.287425"><ele>734.0</ele><time>2026-05-02T15:34:11.03Z</time></trkpt><trkpt lat="42.1508198" lon="13.287255"><ele>734.0</ele><time>2026-05-02T15:34:12.031Z</time></trkpt><trkpt lat="42.1508116" lon="13.2870825"><ele>734.0</ele><time>2026-05-02T15:34:13.031Z</time></trkpt><trkpt lat="42.150802" lon="13.286903"><ele>733.0</ele><time>2026-05-02T15:34:14.031Z</time></trkpt><trkpt lat="42.1507911" lon="13.2867203"><ele>732.0</ele><time>2026-05-02T15:34:15.031Z</time></trkpt><trkpt lat="42.1507784" lon="13.2865352"><ele>731.0</ele><time>2026-05-02T15:34:16.031Z</time></trkpt><trkpt lat="42.1507681" lon="13.2863503"><ele>730.0</ele><time>2026-05-02T15:34:17.031Z</time></trkpt><trkpt lat="42.1507703" lon="13.2861602"><ele>729.75</ele><time>2026-05-02T15:34:18.031Z</time></trkpt><trkpt lat="42.150785" lon="13.2859684"><ele>729.5</ele><time>2026-05-02T15:34:19.03Z</time></trkpt><trkpt lat="42.1508008" lon="13.2857682"><ele>729.25</ele><time>2026-05-02T15:34:20.031Z</time></trkpt><trkpt lat="42.1508177" lon="13.285564"><ele>729.0</ele><time>2026-05-02T15:34:21.031Z</time></trkpt><trkpt lat="42.1508373" lon="13.2853514"><ele>729.0</ele><time>2026-05-02T15:34:22.031Z</time></trkpt><trkpt lat="42.1508633" lon="13.2851277"><ele>729.0</ele><time>2026-05-02T15:34:23.031Z</time></trkpt><trkpt lat="42.1508876" lon="13.2849021"><ele>729.0</ele><time>2026-05-02T15:34:24.031Z</time></trkpt><trkpt lat="42.1509093" lon="13.2846755"><ele>729.3333333333334</ele><time>2026-05-02T15:34:25.031Z</time></trkpt><trkpt lat="42.1509387" lon="13.2844508"><ele>729.6666666666667</ele><time>2026-05-02T15:34:26.031Z</time></trkpt><trkpt lat="42.1509735" lon="13.2842307"><ele>730.0</ele><time>2026-05-02T15:34:27.031Z</time></trkpt><trkpt lat="42.1510057" lon="13.2840031"><ele>729.6666666666667</ele><time>2026-05-02T15:34:28.031Z</time></trkpt><trkpt lat="42.1510386" lon="13.2837745"><ele>729.3333333333334</ele><time>2026-05-02T15:34:29.031Z</time></trkpt><trkpt lat="42.1510684" lon="13.2835512"><ele>729.0</ele><time>2026-05-02T15:34:30.031Z</time></trkpt><trkpt lat="42.1511032" lon="13.2833178"><ele>728.3333333333334</ele><time>2026-05-02T15:34:31.031Z</time></trkpt><trkpt lat="42.1511311" lon="13.283081"><ele>727.6666666666667</ele><time>2026-05-02T15:34:32.031Z</time></trkpt><trkpt lat="42.151163" lon="13.2828473"><ele>727.0</ele><time>2026-05-02T15:34:33.031Z</time></trkpt><trkpt lat="42.1511966" lon="13.2826149"><ele>727.0</ele><time>2026-05-02T15:34:34.031Z</time></trkpt><trkpt lat="42.1512281" lon="13.2823763"><ele>727.0</ele><time>2026-05-02T15:34:35.031Z</time></trkpt><trkpt lat="42.1512625" lon="13.2821375"><ele>727.0</ele><time>2026-05-02T15:34:36.031Z</time></trkpt><trkpt lat="42.151297" lon="13.2818923"><ele>729.0</ele><time>2026-05-02T15:34:37.031Z</time></trkpt><trkpt lat="42.1513319" lon="13.2816463"><ele>731.0</ele><time>2026-05-02T15:34:38.031Z</time></trkpt><trkpt lat="42.1513664" lon="13.2813975"><ele>733.0</ele><time>2026-05-02T15:34:39.03Z</time></trkpt><trkpt lat="42.151404" lon="13.2811513"><ele>733.0</ele><time>2026-05-02T15:34:40.03Z</time></trkpt><trkpt lat="42.1514416" lon="13.280904"><ele>733.0</ele><time>2026-05-02T15:34:41.031Z</time></trkpt><trkpt lat="42.1514782" lon="13.2806612"><ele>733.0</ele><time>2026-05-02T15:34:42.031Z</time></trkpt><trkpt lat="42.1515049" lon="13.280409"><ele>733.0</ele><time>2026-05-02T15:34:43.031Z</time></trkpt><trkpt lat="42.1515206" lon="13.2801632"><ele>733.0</ele><time>2026-05-02T15:34:44.03Z</time></trkpt><trkpt lat="42.1515196" lon="13.2799229"><ele>733.0</ele><time>2026-05-02T15:34:45.031Z</time></trkpt><trkpt lat="42.1515001" lon="13.2796779"><ele>731.3333333333334</ele><time>2026-05-02T15:34:46.031Z</time></trkpt><trkpt lat="42.1514754" lon="13.2794325"><ele>729.6666666666666</ele><time>2026-05-02T15:34:47.03Z</time></trkpt><trkpt lat="42.1514453" lon="13.2791867"><ele>728.0</ele><time>2026-05-02T15:34:48.031Z</time></trkpt><trkpt lat="42.1514204" lon="13.2789389"><ele>727.6666666666666</ele><time>2026-05-02T15:34:49.031Z</time></trkpt><trkpt lat="42.151398" lon="13.2786895"><ele>727.3333333333334</ele><time>2026-05-02T15:34:50.03Z</time></trkpt><trkpt lat="42.151374" lon="13.2784406"><ele>727.0</ele><time>2026-05-02T15:34:51.031Z</time></trkpt><trkpt lat="42.1513475" lon="13.2781876"><ele>727.0</ele><time>2026-05-02T15:34:52.031Z</time></trkpt><trkpt lat="42.1513203" lon="13.2779448"><ele>727.0</ele><time>2026-05-02T15:34:53.031Z</time></trkpt><trkpt lat="42.1512964" lon="13.2777169"><ele>727.0</ele><time>2026-05-02T15:34:54.031Z</time></trkpt><trkpt lat="42.1512725" lon="13.2774971"><ele>727.0</ele><time>2026-05-02T15:34:55.031Z</time></trkpt><trkpt lat="42.1512527" lon="13.2772783"><ele>727.0</ele><time>2026-05-02T15:34:56.031Z</time></trkpt><trkpt lat="42.1512389" lon="13.2770628"><ele>727.0</ele><time>2026-05-02T15:34:57.031Z</time></trkpt><trkpt lat="42.1512195" lon="13.2768428"><ele>727.0</ele><time>2026-05-02T15:34:58.031Z</time></trkpt><trkpt lat="42.1511993" lon="13.2766243"><ele>727.0</ele><time>2026-05-02T15:34:59.031Z</time></trkpt><trkpt lat="42.15118" lon="13.2764141"><ele>727.0</ele><time>2026-05-02T15:35:00.031Z</time></trkpt><trkpt lat="42.1511652" lon="13.2762273"><ele>727.2</ele><time>2026-05-02T15:35:01.031Z</time></trkpt><trkpt lat="42.1511484" lon="13.2760543"><ele>727.4000000000001</ele><time>2026-05-02T15:35:02.031Z</time></trkpt><trkpt lat="42.1511339" lon="13.2759034"><ele>727.5999999999999</ele><time>2026-05-02T15:35:03.03Z</time></trkpt><trkpt lat="42.1511194" lon="13.2757638"><ele>727.8</ele><time>2026-05-02T15:35:04.031Z</time></trkpt><trkpt lat="42.1511096" lon="13.2756497"><ele>728.0</ele><time>2026-05-02T15:35:05.03Z</time></trkpt><trkpt lat="42.1511088" lon="13.2755048"><ele>728.0</ele><time>2026-05-02T15:35:07.031Z</time></trkpt><trkpt lat="42.1511492" lon="13.2754104"><ele>728.0</ele><time>2026-05-02T15:35:09.031Z</time></trkpt><trkpt lat="42.1512065" lon="13.2753741"><ele>728.0</ele><time>2026-05-02T15:35:10.03Z</time></trkpt><trkpt lat="42.1512652" lon="13.2753401"><ele>728.0</ele><time>2026-05-02T15:35:11.031Z</time></trkpt><trkpt lat="42.1513452" lon="13.2752959"><ele>728.0</ele><time>2026-05-02T15:35:12.031Z</time></trkpt><trkpt lat="42.1514313" lon="13.2752563"><ele>728.0</ele><time>2026-05-02T15:35:13.031Z</time></trkpt><trkpt lat="42.151537" lon="13.2752022"><ele>728.0</ele><time>2026-05-02T15:35:14.031Z</time></trkpt><trkpt lat="42.1516588" lon="13.2751421"><ele>728.0</ele><time>2026-05-02T15:35:15.031Z</time></trkpt><trkpt lat="42.1517767" lon="13.2750906"><ele>728.0</ele><time>2026-05-02T15:35:16.031Z</time></trkpt><trkpt lat="42.1519073" lon="13.275025"><ele>728.0</ele><time>2026-05-02T15:35:17.031Z</time></trkpt><trkpt lat="42.1520462" lon="13.2749553"><ele>728.0</ele><time>2026-05-02T15:35:18.031Z</time></trkpt><trkpt lat="42.1521907" lon="13.2748865"><ele>728.0</ele><time>2026-05-02T15:35:19.031Z</time></trkpt><trkpt lat="42.1523425" lon="13.2748163"><ele>728.0</ele><time>2026-05-02T15:35:20.03Z</time></trkpt><trkpt lat="42.1524948" lon="13.2747397"><ele>728.6666666666666</ele><time>2026-05-02T15:35:21.031Z</time></trkpt><trkpt lat="42.1526453" lon="13.2746672"><ele>729.3333333333334</ele><time>2026-05-02T15:35:22.031Z</time></trkpt><trkpt lat="42.1527988" lon="13.2745983"><ele>730.0</ele><time>2026-05-02T15:35:23.031Z</time></trkpt><trkpt lat="42.1529572" lon="13.2745195"><ele>730.0</ele><time>2026-05-02T15:35:24.031Z</time></trkpt><trkpt lat="42.1531215" lon="13.2744432"><ele>730.0</ele><time>2026-05-02T15:35:25.031Z</time></trkpt><trkpt lat="42.1532857" lon="13.2743638"><ele>730.0</ele><time>2026-05-02T15:35:26.031Z</time></trkpt><trkpt lat="42.1534531" lon="13.2742817"><ele>729.0</ele><time>2026-05-02T15:35:27.03Z</time></trkpt><trkpt lat="42.1536263" lon="13.2741953"><ele>728.0</ele><time>2026-05-02T15:35:28.031Z</time></trkpt><trkpt lat="42.1537991" lon="13.2741125"><ele>727.0</ele><time>2026-05-02T15:35:29.031Z</time></trkpt><trkpt lat="42.1539696" lon="13.274029"><ele>727.6666666666667</ele><time>2026-05-02T15:35:30.031Z</time></trkpt><trkpt lat="42.1541433" lon="13.2739422"><ele>728.3333333333334</ele><time>2026-05-02T15:35:31.031Z</time></trkpt><trkpt lat="42.1543179" lon="13.2738568"><ele>729.0</ele><time>2026-05-02T15:35:32.031Z</time></trkpt><trkpt lat="42.1544958" lon="13.2737762"><ele>728.6666666666666</ele><time>2026-05-02T15:35:33.03Z</time></trkpt><trkpt lat="42.1546758" lon="13.2736941"><ele>728.3333333333333</ele><time>2026-05-02T15:35:34.031Z</time></trkpt><trkpt lat="42.1548561" lon="13.2736059"><ele>728.0</ele><time>2026-05-02T15:35:35.031Z</time></trkpt><trkpt lat="42.1550353" lon="13.2735214"><ele>728.0</ele><time>2026-05-02T15:35:36.031Z</time></trkpt><trkpt lat="42.155215" lon="13.2734325"><ele>728.0</ele><time>2026-05-02T15:35:37.03Z</time></trkpt><trkpt lat="42.1553956" lon="13.2733458"><ele>728.0</ele><time>2026-05-02T15:35:38.03Z</time></trkpt><trkpt lat="42.1555776" lon="13.2732611"><ele>729.0</ele><time>2026-05-02T15:35:39.031Z</time></trkpt><trkpt lat="42.1557581" lon="13.273166"><ele>730.0</ele><time>2026-05-02T15:35:40.031Z</time></trkpt><trkpt lat="42.1559374" lon="13.2730781"><ele>731.0</ele><time>2026-05-02T15:35:41.03Z</time></trkpt><trkpt lat="42.1561162" lon="13.2729887"><ele>731.6666666666666</ele><time>2026-05-02T15:35:42.03Z</time></trkpt><trkpt lat="42.1562998" lon="13.272905"><ele>732.3333333333334</ele><time>2026-05-02T15:35:43.031Z</time></trkpt><trkpt lat="42.1564801" lon="13.2728196"><ele>733.0</ele><time>2026-05-02T15:35:44.031Z</time></trkpt><trkpt lat="42.1566637" lon="13.2727337"><ele>733.6666666666667</ele><time>2026-05-02T15:35:45.031Z</time></trkpt><trkpt lat="42.1568452" lon="13.2726395"><ele>734.3333333333334</ele><time>2026-05-02T15:35:46.031Z</time></trkpt><trkpt lat="42.1570267" lon="13.2725514"><ele>735.0</ele><time>2026-05-02T15:35:47.03Z</time></trkpt><trkpt lat="42.1572118" lon="13.2724704"><ele>737.0</ele><time>2026-05-02T15:35:48.031Z</time></trkpt><trkpt lat="42.1573924" lon="13.2723901"><ele>739.0</ele><time>2026-05-02T15:35:49.031Z</time></trkpt><trkpt lat="42.1575755" lon="13.2723151"><ele>741.0</ele><time>2026-05-02T15:35:50.031Z</time></trkpt><trkpt lat="42.1577539" lon="13.2722387"><ele>741.6666666666666</ele><time>2026-05-02T15:35:51.031Z</time></trkpt><trkpt lat="42.1579189" lon="13.2721616"><ele>742.3333333333333</ele><time>2026-05-02T15:35:52.031Z</time></trkpt><trkpt lat="42.1580664" lon="13.2720796"><ele>743.0</ele><time>2026-05-02T15:35:53.031Z</time></trkpt><trkpt lat="42.1582053" lon="13.271971"><ele>743.0</ele><time>2026-05-02T15:35:54.031Z</time></trkpt><trkpt lat="42.158334" lon="13.2718282"><ele>743.0</ele><time>2026-05-02T15:35:55.03Z</time></trkpt><trkpt lat="42.1584562" lon="13.2716611"><ele>743.0</ele><time>2026-05-02T15:35:56.031Z</time></trkpt><trkpt lat="42.1585763" lon="13.2714733"><ele>745.3333333333333</ele><time>2026-05-02T15:35:57.031Z</time></trkpt><trkpt lat="42.1587027" lon="13.2712765"><ele>747.6666666666666</ele><time>2026-05-02T15:35:58.031Z</time></trkpt><trkpt lat="42.1588266" lon="13.2710794"><ele>750.0</ele><time>2026-05-02T15:35:59.031Z</time></trkpt><trkpt lat="42.1589431" lon="13.2708759"><ele>749.3333333333334</ele><time>2026-05-02T15:36:00.03Z</time></trkpt><trkpt lat="42.1590429" lon="13.2706671"><ele>748.6666666666667</ele><time>2026-05-02T15:36:01.031Z</time></trkpt><trkpt lat="42.1591276" lon="13.2704597"><ele>748.0</ele><time>2026-05-02T15:36:02.031Z</time></trkpt><trkpt lat="42.1592016" lon="13.2702624"><ele>748.0</ele><time>2026-05-02T15:36:03.031Z</time></trkpt><trkpt lat="42.1592855" lon="13.270075"><ele>748.0</ele><time>2026-05-02T15:36:04.031Z</time></trkpt><trkpt lat="42.1593903" lon="13.2698991"><ele>748.0</ele><time>2026-05-02T15:36:05.03Z</time></trkpt><trkpt lat="42.159519" lon="13.2697435"><ele>748.3333333333334</ele><time>2026-05-02T15:36:06.031Z</time></trkpt><trkpt lat="42.1596671" lon="13.2696132"><ele>748.6666666666666</ele><time>2026-05-02T15:36:07.031Z</time></trkpt><trkpt lat="42.1598257" lon="13.2695028"><ele>749.0</ele><time>2026-05-02T15:36:08.031Z</time></trkpt><trkpt lat="42.159997" lon="13.2694365"><ele>749.6666666666666</ele><time>2026-05-02T15:36:09.031Z</time></trkpt><trkpt lat="42.1601725" lon="13.2693904"><ele>750.3333333333334</ele><time>2026-05-02T15:36:10.031Z</time></trkpt><trkpt lat="42.1603551" lon="13.2693693"><ele>751.0</ele><time>2026-05-02T15:36:11.031Z</time></trkpt><trkpt lat="42.1605384" lon="13.2693789"><ele>751.6666666666667</ele><time>2026-05-02T15:36:12.031Z</time></trkpt><trkpt lat="42.1607074" lon="13.2694261"><ele>752.3333333333334</ele><time>2026-05-02T15:36:13.03Z</time></trkpt><trkpt lat="42.1608717" lon="13.269515"><ele>753.0</ele><time>2026-05-02T15:36:14.031Z</time></trkpt><trkpt lat="42.1610353" lon="13.2696213"><ele>753.0</ele><time>2026-05-02T15:36:15.03Z</time></trkpt><trkpt lat="42.1612058" lon="13.2697145"><ele>753.0</ele><time>2026-05-02T15:36:16.031Z</time></trkpt><trkpt lat="42.161373" lon="13.2697994"><ele>753.0</ele><time>2026-05-02T15:36:17.031Z</time></trkpt><trkpt lat="42.1615392" lon="13.2698862"><ele>754.3333333333334</ele><time>2026-05-02T15:36:18.031Z</time></trkpt><trkpt lat="42.1616997" lon="13.2699715"><ele>755.6666666666667</ele><time>2026-05-02T15:36:19.031Z</time></trkpt><trkpt lat="42.1618603" lon="13.2700566"><ele>757.0</ele><time>2026-05-02T15:36:20.031Z</time></trkpt><trkpt lat="42.1620202" lon="13.2701424"><ele>757.0</ele><time>2026-05-02T15:36:21.031Z</time></trkpt><trkpt lat="42.1621722" lon="13.2702274"><ele>757.0</ele><time>2026-05-02T15:36:22.031Z</time></trkpt><trkpt lat="42.1623102" lon="13.2703026"><ele>757.0</ele><time>2026-05-02T15:36:23.031Z</time></trkpt><trkpt lat="42.1624326" lon="13.2703696"><ele>757.0</ele><time>2026-05-02T15:36:24.031Z</time></trkpt><trkpt lat="42.1625492" lon="13.2704285"><ele>758.0</ele><time>2026-05-02T15:36:25.031Z</time></trkpt><trkpt lat="42.1626686" lon="13.2704955"><ele>759.0</ele><time>2026-05-02T15:36:26.031Z</time></trkpt><trkpt lat="42.1627931" lon="13.2705672"><ele>760.0</ele><time>2026-05-02T15:36:27.03Z</time></trkpt><trkpt lat="42.1629261" lon="13.2706387"><ele>761.0</ele><time>2026-05-02T15:36:28.031Z</time></trkpt><trkpt lat="42.1630659" lon="13.2707142"><ele>763.0</ele><time>2026-05-02T15:36:29.031Z</time></trkpt><trkpt lat="42.1632144" lon="13.2707996"><ele>765.0</ele><time>2026-05-02T15:36:30.031Z</time></trkpt><trkpt lat="42.1633653" lon="13.2708819"><ele>767.0</ele><time>2026-05-02T15:36:31.031Z</time></trkpt><trkpt lat="42.1635206" lon="13.2709652"><ele>767.0</ele><time>2026-05-02T15:36:32.031Z</time></trkpt><trkpt lat="42.1636777" lon="13.2710483"><ele>767.0</ele><time>2026-05-02T15:36:33.03Z</time></trkpt><trkpt lat="42.1638369" lon="13.2711317"><ele>767.0</ele><time>2026-05-02T15:36:34.031Z</time></trkpt><trkpt lat="42.163995" lon="13.2712207"><ele>767.0</ele><time>2026-05-02T15:36:35.031Z</time></trkpt><trkpt lat="42.1641567" lon="13.2713141"><ele>767.0</ele><time>2026-05-02T15:36:36.031Z</time></trkpt><trkpt lat="42.1643208" lon="13.2714029"><ele>767.0</ele><time>2026-05-02T15:36:37.031Z</time></trkpt><trkpt lat="42.1644877" lon="13.2714903"><ele>767.6666666666666</ele><time>2026-05-02T15:36:38.03Z</time></trkpt><trkpt lat="42.1646577" lon="13.2715773"><ele>768.3333333333333</ele><time>2026-05-02T15:36:39.031Z</time></trkpt><trkpt lat="42.1648303" lon="13.2716664"><ele>769.0</ele><time>2026-05-02T15:36:40.031Z</time></trkpt><trkpt lat="42.1650005" lon="13.2717621"><ele>769.6666666666666</ele><time>2026-05-02T15:36:41.031Z</time></trkpt><trkpt lat="42.165175" lon="13.2718652"><ele>770.3333333333333</ele><time>2026-05-02T15:36:42.031Z</time></trkpt><trkpt lat="42.1653537" lon="13.2719589"><ele>771.0</ele><time>2026-05-02T15:36:43.031Z</time></trkpt><trkpt lat="42.1655297" lon="13.2720535"><ele>771.6666666666667</ele><time>2026-05-02T15:36:44.031Z</time></trkpt><trkpt lat="42.1657059" lon="13.2721514"><ele>772.3333333333334</ele><time>2026-05-02T15:36:45.031Z</time></trkpt><trkpt lat="42.1658788" lon="13.2722473"><ele>773.0</ele><time>2026-05-02T15:36:46.031Z</time></trkpt><trkpt lat="42.1660497" lon="13.2723425"><ele>773.0</ele><time>2026-05-02T15:36:47.03Z</time></trkpt><trkpt lat="42.1662206" lon="13.2724348"><ele>773.0</ele><time>2026-05-02T15:36:48.031Z</time></trkpt><trkpt lat="42.1663885" lon="13.2725223"><ele>773.0</ele><time>2026-05-02T15:36:49.031Z</time></trkpt><trkpt lat="42.1665558" lon="13.2726131"><ele>775.0</ele><time>2026-05-02T15:36:50.031Z</time></trkpt><trkpt lat="42.1667211" lon="13.2727082"><ele>777.0</ele><time>2026-05-02T15:36:51.031Z</time></trkpt><trkpt lat="42.1668849" lon="13.2727966"><ele>779.0</ele><time>2026-05-02T15:36:52.031Z</time></trkpt><trkpt lat="42.1670503" lon="13.2728855"><ele>779.0</ele><time>2026-05-02T15:36:53.031Z</time></trkpt><trkpt lat="42.1672173" lon="13.2729753"><ele>779.0</ele><time>2026-05-02T15:36:54.031Z</time></trkpt><trkpt lat="42.1673825" lon="13.2730609"><ele>779.0</ele><time>2026-05-02T15:36:55.03Z</time></trkpt><trkpt lat="42.1675524" lon="13.2731522"><ele>780.3333333333334</ele><time>2026-05-02T15:36:56.031Z</time></trkpt><trkpt lat="42.1677229" lon="13.2732429"><ele>781.6666666666667</ele><time>2026-05-02T15:36:57.031Z</time></trkpt><trkpt lat="42.1678964" lon="13.2733312"><ele>783.0</ele><time>2026-05-02T15:36:58.031Z</time></trkpt><trkpt lat="42.1680683" lon="13.273422"><ele>784.0</ele><time>2026-05-02T15:36:59.031Z</time></trkpt><trkpt lat="42.1682366" lon="13.2735135"><ele>785.0</ele><time>2026-05-02T15:37:00.03Z</time></trkpt><trkpt lat="42.1684062" lon="13.2736069"><ele>786.0</ele><time>2026-05-02T15:37:01.031Z</time></trkpt><trkpt lat="42.1685781" lon="13.2737029"><ele>786.0</ele><time>2026-05-02T15:37:02.03Z</time></trkpt><trkpt lat="42.1687503" lon="13.2737966"><ele>786.0</ele><time>2026-05-02T15:37:03.031Z</time></trkpt><trkpt lat="42.1689213" lon="13.2738938"><ele>786.0</ele><time>2026-05-02T15:37:04.031Z</time></trkpt><trkpt lat="42.1690936" lon="13.2739908"><ele>786.6666666666667</ele><time>2026-05-02T15:37:05.031Z</time></trkpt><trkpt lat="42.1692655" lon="13.2740843"><ele>787.3333333333334</ele><time>2026-05-02T15:37:06.031Z</time></trkpt><trkpt lat="42.1694378" lon="13.27418"><ele>788.0</ele><time>2026-05-02T15:37:07.03Z</time></trkpt><trkpt lat="42.1696076" lon="13.2742727"><ele>788.0</ele><time>2026-05-02T15:37:08.031Z</time></trkpt><trkpt lat="42.1697776" lon="13.2743663"><ele>788.0</ele><time>2026-05-02T15:37:09.031Z</time></trkpt><trkpt lat="42.1699399" lon="13.2744567"><ele>788.0</ele><time>2026-05-02T15:37:10.031Z</time></trkpt><trkpt lat="42.1700873" lon="13.2745489"><ele>789.0</ele><time>2026-05-02T15:37:11.031Z</time></trkpt><trkpt lat="42.1702187" lon="13.2746772"><ele>790.0</ele><time>2026-05-02T15:37:12.031Z</time></trkpt><trkpt lat="42.1703382" lon="13.2748384"><ele>791.0</ele><time>2026-05-02T15:37:13.031Z</time></trkpt><trkpt lat="42.1704439" lon="13.27501"><ele>791.6666666666667</ele><time>2026-05-02T15:37:14.031Z</time></trkpt><trkpt lat="42.1705471" lon="13.275191"><ele>792.3333333333333</ele><time>2026-05-02T15:37:15.03Z</time></trkpt><trkpt lat="42.1706564" lon="13.2753735"><ele>793.0</ele><time>2026-05-02T15:37:16.031Z</time></trkpt><trkpt lat="42.1707654" lon="13.2755566"><ele>795.3333333333333</ele><time>2026-05-02T15:37:17.031Z</time></trkpt><trkpt lat="42.1708728" lon="13.2757332"><ele>797.6666666666667</ele><time>2026-05-02T15:37:18.031Z</time></trkpt><trkpt lat="42.1709826" lon="13.2759141"><ele>800.0</ele><time>2026-05-02T15:37:19.031Z</time></trkpt><trkpt lat="42.1710909" lon="13.2760936"><ele>800.0</ele><time>2026-05-02T15:37:20.031Z</time></trkpt><trkpt lat="42.171194" lon="13.2762682"><ele>800.0</ele><time>2026-05-02T15:37:21.031Z</time></trkpt><trkpt lat="42.1712886" lon="13.2764332"><ele>800.0</ele><time>2026-05-02T15:37:22.03Z</time></trkpt><trkpt lat="42.1713854" lon="13.2765881"><ele>800.0</ele><time>2026-05-02T15:37:23.03Z</time></trkpt><trkpt lat="42.1714823" lon="13.2767538"><ele>800.0</ele><time>2026-05-02T15:37:24.031Z</time></trkpt><trkpt lat="42.1715773" lon="13.2769175"><ele>800.0</ele><time>2026-05-02T15:37:25.031Z</time></trkpt><trkpt lat="42.1716732" lon="13.2770797"><ele>800.75</ele><time>2026-05-02T15:37:26.031Z</time></trkpt><trkpt lat="42.1717667" lon="13.2772338"><ele>801.5</ele><time>2026-05-02T15:37:27.031Z</time></trkpt><trkpt lat="42.171857" lon="13.2773859"><ele>802.25</ele><time>2026-05-02T15:37:28.031Z</time></trkpt><trkpt lat="42.1719473" lon="13.2775363"><ele>803.0</ele><time>2026-05-02T15:37:29.031Z</time></trkpt><trkpt lat="42.1720364" lon="13.2776851"><ele>803.25</ele><time>2026-05-02T15:37:30.031Z</time></trkpt><trkpt lat="42.1721239" lon="13.2778358"><ele>803.5</ele><time>2026-05-02T15:37:31.03Z</time></trkpt><trkpt lat="42.1722062" lon="13.2779731"><ele>803.75</ele><time>2026-05-02T15:37:32.031Z</time></trkpt><trkpt lat="42.1722886" lon="13.278097"><ele>804.0</ele><time>2026-05-02T15:37:33.03Z</time></trkpt><trkpt lat="42.172367" lon="13.2782077"><ele>805.6</ele><time>2026-05-02T15:37:34.03Z</time></trkpt><trkpt lat="42.1724567" lon="13.2782881"><ele>807.2</ele><time>2026-05-02T15:37:35.031Z</time></trkpt><trkpt lat="42.1725526" lon="13.2783278"><ele>808.8000000000001</ele><time>2026-05-02T15:37:36.031Z</time></trkpt><trkpt lat="42.1726612" lon="13.2783199"><ele>810.4000000000001</ele><time>2026-05-02T15:37:37.031Z</time></trkpt><trkpt lat="42.1727556" lon="13.2782534"><ele>812.0</ele><time>2026-05-02T15:37:38.031Z</time></trkpt><trkpt lat="42.1728322" lon="13.2781434"><ele>811.25</ele><time>2026-05-02T15:37:39.031Z</time></trkpt><trkpt lat="42.1728921" lon="13.2780213"><ele>810.5</ele><time>2026-05-02T15:37:40.03Z</time></trkpt><trkpt lat="42.1729431" lon="13.2778874"><ele>809.75</ele><time>2026-05-02T15:37:41.031Z</time></trkpt><trkpt lat="42.1729899" lon="13.2777438"><ele>809.0</ele><time>2026-05-02T15:37:42.031Z</time></trkpt><trkpt lat="42.1730422" lon="13.2775982"><ele>809.0</ele><time>2026-05-02T15:37:43.03Z</time></trkpt><trkpt lat="42.1730978" lon="13.277446"><ele>809.0</ele><time>2026-05-02T15:37:44.03Z</time></trkpt><trkpt lat="42.1731537" lon="13.2772933"><ele>809.0</ele><time>2026-05-02T15:37:45.031Z</time></trkpt><trkpt lat="42.1732094" lon="13.2771386"><ele>809.0</ele><time>2026-05-02T15:37:46.031Z</time></trkpt><trkpt lat="42.1732717" lon="13.2769794"><ele>809.75</ele><time>2026-05-02T15:37:47.03Z</time></trkpt><trkpt lat="42.1733434" lon="13.2768226"><ele>810.5</ele><time>2026-05-02T15:37:48.031Z</time></trkpt><trkpt lat="42.1734193" lon="13.2766703"><ele>811.25</ele><time>2026-05-02T15:37:49.031Z</time></trkpt><trkpt lat="42.173509" lon="13.2765368"><ele>812.0</ele><time>2026-05-02T15:37:50.031Z</time></trkpt><trkpt lat="42.1736115" lon="13.2764209"><ele>812.0</ele><time>2026-05-02T15:37:51.031Z</time></trkpt><trkpt lat="42.1737217" lon="13.2763318"><ele>812.0</ele><time>2026-05-02T15:37:52.03Z</time></trkpt><trkpt lat="42.1738362" lon="13.2762698"><ele>812.0</ele><time>2026-05-02T15:37:53.031Z</time></trkpt><trkpt lat="42.1739475" lon="13.2762247"><ele>812.0</ele><time>2026-05-02T15:37:54.031Z</time></trkpt><trkpt lat="42.1740571" lon="13.2762028"><ele>814.2</ele><time>2026-05-02T15:37:55.03Z</time></trkpt><trkpt lat="42.174156" lon="13.2762226"><ele>816.4000000000001</ele><time>2026-05-02T15:37:56.031Z</time></trkpt><trkpt lat="42.1742581" lon="13.276268"><ele>818.5999999999999</ele><time>2026-05-02T15:37:57.031Z</time></trkpt><trkpt lat="42.174344" lon="13.2763429"><ele>820.8</ele><time>2026-05-02T15:37:58.031Z</time></trkpt><trkpt lat="42.1744332" lon="13.2764219"><ele>823.0</ele><time>2026-05-02T15:37:59.03Z</time></trkpt><trkpt lat="42.1745142" lon="13.2764874"><ele>823.4</ele><time>2026-05-02T15:38:00.031Z</time></trkpt><trkpt lat="42.1746005" lon="13.276546"><ele>823.8</ele><time>2026-05-02T15:38:01.031Z</time></trkpt><trkpt lat="42.1746916" lon="13.2765974"><ele>824.2</ele><time>2026-05-02T15:38:02.031Z</time></trkpt><trkpt lat="42.1747936" lon="13.2766226"><ele>824.6</ele><time>2026-05-02T15:38:03.031Z</time></trkpt><trkpt lat="42.1748971" lon="13.2766199"><ele>825.0</ele><time>2026-05-02T15:38:04.031Z</time></trkpt><trkpt lat="42.1750069" lon="13.2765859"><ele>825.8</ele><time>2026-05-02T15:38:05.031Z</time></trkpt><trkpt lat="42.1751029" lon="13.2765077"><ele>826.6</ele><time>2026-05-02T15:38:06.031Z</time></trkpt><trkpt lat="42.175183" lon="13.2764035"><ele>827.4000000000001</ele><time>2026-05-02T15:38:07.031Z</time></trkpt><trkpt lat="42.1752483" lon="13.2762914"><ele>828.2</ele><time>2026-05-02T15:38:08.031Z</time></trkpt><trkpt lat="42.1753099" lon="13.2761648"><ele>829.0</ele><time>2026-05-02T15:38:09.031Z</time></trkpt><trkpt lat="42.1753638" lon="13.2760469"><ele>829.1666666666666</ele><time>2026-05-02T15:38:10.03Z</time></trkpt><trkpt lat="42.1754125" lon="13.2759326"><ele>829.3333333333333</ele><time>2026-05-02T15:38:11.031Z</time></trkpt><trkpt lat="42.1754579" lon="13.2758239"><ele>829.5</ele><time>2026-05-02T15:38:12.031Z</time></trkpt><trkpt lat="42.1755004" lon="13.2757342"><ele>829.6666666666667</ele><time>2026-05-02T15:38:13.031Z</time></trkpt><trkpt lat="42.1755422" lon="13.2756524"><ele>829.8333333333334</ele><time>2026-05-02T15:38:14.031Z</time></trkpt><trkpt lat="42.1755793" lon="13.2755795"><ele>830.0</ele><time>2026-05-02T15:38:15.031Z</time></trkpt><trkpt lat="42.1756335" lon="13.275512"><ele>830.0</ele><time>2026-05-02T15:38:16.031Z</time></trkpt><trkpt lat="42.1757063" lon="13.2754561"><ele>830.0</ele><time>2026-05-02T15:38:17.031Z</time></trkpt><trkpt lat="42.1758009" lon="13.2754069"><ele>830.0</ele><time>2026-05-02T15:38:18.031Z</time></trkpt><trkpt lat="42.1759033" lon="13.2753678"><ele>830.0</ele><time>2026-05-02T15:38:19.031Z</time></trkpt><trkpt lat="42.1760005" lon="13.2753395"><ele>830.0</ele><time>2026-05-02T15:38:20.031Z</time></trkpt><trkpt lat="42.1760933" lon="13.2753126"><ele>830.0</ele><time>2026-05-02T15:38:21.031Z</time></trkpt><trkpt lat="42.1761874" lon="13.2752828"><ele>830.0</ele><time>2026-05-02T15:38:22.031Z</time></trkpt><trkpt lat="42.1762781" lon="13.2752509"><ele>830.0</ele><time>2026-05-02T15:38:23.031Z</time></trkpt><trkpt lat="42.1763695" lon="13.2752262"><ele>830.0</ele><time>2026-05-02T15:38:24.031Z</time></trkpt><trkpt lat="42.1764589" lon="13.275202"><ele>830.0</ele><time>2026-05-02T15:38:25.031Z</time></trkpt><trkpt lat="42.1765417" lon="13.2751825"><ele>828.6666666666667</ele><time>2026-05-02T15:38:26.031Z</time></trkpt><trkpt lat="42.1766185" lon="13.2751605"><ele>827.3333333333334</ele><time>2026-05-02T15:38:27.031Z</time></trkpt><trkpt lat="42.1766957" lon="13.2751375"><ele>826.0</ele><time>2026-05-02T15:38:28.031Z</time></trkpt><trkpt lat="42.176774" lon="13.2751153"><ele>824.6666666666667</ele><time>2026-05-02T15:38:29.031Z</time></trkpt><trkpt lat="42.1768508" lon="13.2750893"><ele>823.3333333333334</ele><time>2026-05-02T15:38:30.031Z</time></trkpt><trkpt lat="42.1769262" lon="13.2750618"><ele>822.0</ele><time>2026-05-02T15:38:31.031Z</time></trkpt><trkpt lat="42.1769996" lon="13.275036"><ele>822.0</ele><time>2026-05-02T15:38:32.03Z</time></trkpt><trkpt lat="42.1770678" lon="13.2750186"><ele>822.0</ele><time>2026-05-02T15:38:33.031Z</time></trkpt><trkpt lat="42.1771802" lon="13.275009"><ele>822.0</ele><time>2026-05-02T15:38:35.031Z</time></trkpt><trkpt lat="42.177248" lon="13.2750465"><ele>822.0</ele><time>2026-05-02T15:38:37.03Z</time></trkpt><trkpt lat="42.1773112" lon="13.2751529"><ele>822.0</ele><time>2026-05-02T15:38:39.032Z</time></trkpt><trkpt lat="42.1773252" lon="13.2752604"><ele>822.0</ele><time>2026-05-02T15:38:41.032Z</time></trkpt><trkpt lat="42.1773323" lon="13.2754066"><ele>822.0</ele><time>2026-05-02T15:38:58.032Z</time></trkpt><trkpt lat="42.1773282" lon="13.2755601"><ele>822.0</ele><time>2026-05-02T15:39:00.032Z</time></trkpt><trkpt lat="42.1773314" lon="13.2756545"><ele>822.0</ele><time>2026-05-02T15:39:01.032Z</time></trkpt><trkpt lat="42.1773331" lon="13.2757488"><ele>822.0</ele><time>2026-05-02T15:39:02.032Z</time></trkpt><trkpt lat="42.1773389" lon="13.2759036"><ele>822.0</ele><time>2026-05-02T15:39:04.032Z</time></trkpt><trkpt lat="42.17734" lon="13.2760363"><ele>821.8333333333334</ele><time>2026-05-02T15:39:06.032Z</time></trkpt><trkpt lat="42.1773404" lon="13.2761422"><ele>821.6666666666667</ele><time>2026-05-02T15:39:08.032Z</time></trkpt><trkpt lat="42.177341" lon="13.2762313"><ele>821.5</ele><time>2026-05-02T15:39:10.032Z</time></trkpt><trkpt lat="42.1773468" lon="13.2763347"><ele>821.3333333333334</ele><time>2026-05-02T15:39:21.031Z</time></trkpt><trkpt lat="42.1773296" lon="13.2764457"><ele>821.1666666666667</ele><time>2026-05-02T15:40:06.032Z</time></trkpt><trkpt lat="42.1773481" lon="13.2765957"><ele>821.0</ele><time>2026-05-02T15:40:09.032Z</time></trkpt><trkpt lat="42.1773436" lon="13.2767444"><ele>821.1666666666667</ele><time>2026-05-02T15:40:11.032Z</time></trkpt><trkpt lat="42.1773356" lon="13.2768616"><ele>821.3333333333334</ele><time>2026-05-02T15:40:13.032Z</time></trkpt><trkpt lat="42.1773259" lon="13.2769479"><ele>821.5</ele><time>2026-05-02T15:40:15.032Z</time></trkpt><trkpt lat="42.177337" lon="13.277084"><ele>821.6666666666667</ele><time>2026-05-02T15:40:38.032Z</time></trkpt><trkpt lat="42.177359" lon="13.2771741"><ele>821.8333333333334</ele><time>2026-05-02T15:40:39.032Z</time></trkpt><trkpt lat="42.1773709" lon="13.2772841"><ele>822.0</ele><time>2026-05-02T15:40:40.032Z</time></trkpt><trkpt lat="42.1773833" lon="13.2774028"><ele>822.5</ele><time>2026-05-02T15:40:41.031Z</time></trkpt><trkpt lat="42.1773903" lon="13.2775455"><ele>823.0</ele><time>2026-05-02T15:40:42.031Z</time></trkpt><trkpt lat="42.1773829" lon="13.2777047"><ele>823.5</ele><time>2026-05-02T15:40:43.032Z</time></trkpt><trkpt lat="42.1773643" lon="13.2778662"><ele>824.0</ele><time>2026-05-02T15:40:44.032Z</time></trkpt><trkpt lat="42.1773213" lon="13.2780094"><ele>825.8000000000001</ele><time>2026-05-02T15:40:45.032Z</time></trkpt><trkpt lat="42.1772473" lon="13.278123"><ele>827.6</ele><time>2026-05-02T15:40:46.032Z</time></trkpt><trkpt lat="42.1771674" lon="13.2782033"><ele>829.4</ele><time>2026-05-02T15:40:47.032Z</time></trkpt><trkpt lat="42.1770661" lon="13.2782329"><ele>831.2</ele><time>2026-05-02T15:40:48.032Z</time></trkpt><trkpt lat="42.1769584" lon="13.2782152"><ele>833.0</ele><time>2026-05-02T15:40:49.032Z</time></trkpt><trkpt lat="42.176864" lon="13.2781595"><ele>833.0</ele><time>2026-05-02T15:40:50.032Z</time></trkpt><trkpt lat="42.1767798" lon="13.2780554"><ele>833.0</ele><time>2026-05-02T15:40:51.032Z</time></trkpt><trkpt lat="42.1766904" lon="13.2779293"><ele>833.0</ele><time>2026-05-02T15:40:52.032Z</time></trkpt><trkpt lat="42.1765983" lon="13.2777716"><ele>833.0</ele><time>2026-05-02T15:40:53.031Z</time></trkpt><trkpt lat="42.1765094" lon="13.2776151"><ele>833.0</ele><time>2026-05-02T15:40:54.032Z</time></trkpt><trkpt lat="42.1764132" lon="13.2774688"><ele>833.0</ele><time>2026-05-02T15:40:55.032Z</time></trkpt><trkpt lat="42.1762989" lon="13.2773566"><ele>833.0</ele><time>2026-05-02T15:40:56.031Z</time></trkpt><trkpt lat="42.1761798" lon="13.277265"><ele>833.0</ele><time>2026-05-02T15:40:57.032Z</time></trkpt><trkpt lat="42.176047" lon="13.2772081"><ele>832.0</ele><time>2026-05-02T15:40:58.032Z</time></trkpt><trkpt lat="42.1759072" lon="13.2771754"><ele>831.0</ele><time>2026-05-02T15:40:59.032Z</time></trkpt><trkpt lat="42.1757606" lon="13.2771669"><ele>830.0</ele><time>2026-05-02T15:41:00.032Z</time></trkpt><trkpt lat="42.1756147" lon="13.2771798"><ele>829.0</ele><time>2026-05-02T15:41:01.032Z</time></trkpt><trkpt lat="42.1754542" lon="13.2772308"><ele>829.6666666666666</ele><time>2026-05-02T15:41:02.032Z</time></trkpt><trkpt lat="42.1752923" lon="13.2773173"><ele>830.3333333333333</ele><time>2026-05-02T15:41:03.032Z</time></trkpt><trkpt lat="42.1751289" lon="13.2774095"><ele>831.0</ele><time>2026-05-02T15:41:04.032Z</time></trkpt><trkpt lat="42.1749693" lon="13.2775116"><ele>830.6666666666667</ele><time>2026-05-02T15:41:05.032Z</time></trkpt><trkpt lat="42.1748242" lon="13.2776203"><ele>830.3333333333334</ele><time>2026-05-02T15:41:06.032Z</time></trkpt><trkpt lat="42.1746903" lon="13.2777394"><ele>830.0</ele><time>2026-05-02T15:41:07.031Z</time></trkpt><trkpt lat="42.1745635" lon="13.2778653"><ele>830.0</ele><time>2026-05-02T15:41:08.032Z</time></trkpt><trkpt lat="42.1744416" lon="13.2779943"><ele>830.0</ele><time>2026-05-02T15:41:09.032Z</time></trkpt><trkpt lat="42.1743254" lon="13.2781223"><ele>830.0</ele><time>2026-05-02T15:41:10.032Z</time></trkpt><trkpt lat="42.174214" lon="13.2782578"><ele>830.0</ele><time>2026-05-02T15:41:11.032Z</time></trkpt><trkpt lat="42.1741119" lon="13.2783935"><ele>830.0</ele><time>2026-05-02T15:41:12.032Z</time></trkpt><trkpt lat="42.1740122" lon="13.2785313"><ele>830.0</ele><time>2026-05-02T15:41:13.032Z</time></trkpt><trkpt lat="42.1739181" lon="13.2786771"><ele>830.0</ele><time>2026-05-02T15:41:14.032Z</time></trkpt><trkpt lat="42.1738279" lon="13.2788268"><ele>828.5</ele><time>2026-05-02T15:41:15.031Z</time></trkpt><trkpt lat="42.1737437" lon="13.2789724"><ele>827.0</ele><time>2026-05-02T15:41:16.032Z</time></trkpt><trkpt lat="42.1736651" lon="13.2791261"><ele>825.5</ele><time>2026-05-02T15:41:17.032Z</time></trkpt><trkpt lat="42.1735949" lon="13.2792816"><ele>824.0</ele><time>2026-05-02T15:41:18.032Z</time></trkpt><trkpt lat="42.1735241" lon="13.2794484"><ele>824.0</ele><time>2026-05-02T15:41:19.032Z</time></trkpt><trkpt lat="42.1734536" lon="13.279615"><ele>824.0</ele><time>2026-05-02T15:41:20.032Z</time></trkpt><trkpt lat="42.1733876" lon="13.2797851"><ele>824.0</ele><time>2026-05-02T15:41:21.031Z</time></trkpt><trkpt lat="42.1733242" lon="13.279954"><ele>824.0</ele><time>2026-05-02T15:41:22.031Z</time></trkpt><trkpt lat="42.1732666" lon="13.2801202"><ele>824.75</ele><time>2026-05-02T15:41:23.031Z</time></trkpt><trkpt lat="42.1732038" lon="13.2802883"><ele>825.5</ele><time>2026-05-02T15:41:24.031Z</time></trkpt><trkpt lat="42.1731378" lon="13.2804587"><ele>826.25</ele><time>2026-05-02T15:41:25.032Z</time></trkpt><trkpt lat="42.1730752" lon="13.2806289"><ele>827.0</ele><time>2026-05-02T15:41:26.031Z</time></trkpt><trkpt lat="42.1730182" lon="13.2808043"><ele>823.6666666666667</ele><time>2026-05-02T15:41:27.031Z</time></trkpt><trkpt lat="42.1729657" lon="13.2809902"><ele>820.3333333333333</ele><time>2026-05-02T15:41:28.032Z</time></trkpt><trkpt lat="42.1729227" lon="13.281182"><ele>817.0</ele><time>2026-05-02T15:41:29.032Z</time></trkpt><trkpt lat="42.1728921" lon="13.2813865"><ele>816.3333333333333</ele><time>2026-05-02T15:41:30.032Z</time></trkpt><trkpt lat="42.1728743" lon="13.2815861"><ele>815.6666666666667</ele><time>2026-05-02T15:41:31.032Z</time></trkpt><trkpt lat="42.1728812" lon="13.2817931"><ele>815.0</ele><time>2026-05-02T15:41:32.031Z</time></trkpt><trkpt lat="42.1729092" lon="13.2819997"><ele>815.0</ele><time>2026-05-02T15:41:33.032Z</time></trkpt><trkpt lat="42.1729643" lon="13.2822013"><ele>815.0</ele><time>2026-05-02T15:41:34.032Z</time></trkpt><trkpt lat="42.1730485" lon="13.2823823"><ele>815.0</ele><time>2026-05-02T15:41:35.032Z</time></trkpt><trkpt lat="42.1731558" lon="13.2825334"><ele>819.25</ele><time>2026-05-02T15:41:36.032Z</time></trkpt><trkpt lat="42.1732863" lon="13.2826385"><ele>823.5</ele><time>2026-05-02T15:41:37.032Z</time></trkpt><trkpt lat="42.1734258" lon="13.2827054"><ele>827.75</ele><time>2026-05-02T15:41:38.031Z</time></trkpt><trkpt lat="42.1735668" lon="13.2827159"><ele>832.0</ele><time>2026-05-02T15:41:39.032Z</time></trkpt><trkpt lat="42.1737137" lon="13.2826932"><ele>832.0</ele><time>2026-05-02T15:41:40.032Z</time></trkpt><trkpt lat="42.1738635" lon="13.2826535"><ele>832.0</ele><time>2026-05-02T15:41:41.032Z</time></trkpt><trkpt lat="42.1740107" lon="13.2825965"><ele>832.0</ele><time>2026-05-02T15:41:42.032Z</time></trkpt><trkpt lat="42.1741546" lon="13.2825341"><ele>832.6666666666666</ele><time>2026-05-02T15:41:43.032Z</time></trkpt><trkpt lat="42.1742944" lon="13.2824552"><ele>833.3333333333333</ele><time>2026-05-02T15:41:44.032Z</time></trkpt><trkpt lat="42.1744414" lon="13.2823844"><ele>834.0</ele><time>2026-05-02T15:41:45.032Z</time></trkpt><trkpt lat="42.1745826" lon="13.2823045"><ele>834.0</ele><time>2026-05-02T15:41:46.032Z</time></trkpt><trkpt lat="42.1747296" lon="13.28223"><ele>834.0</ele><time>2026-05-02T15:41:47.032Z</time></trkpt><trkpt lat="42.174877" lon="13.282162"><ele>834.0</ele><time>2026-05-02T15:41:48.032Z</time></trkpt><trkpt lat="42.1750292" lon="13.2821047"><ele>833.3333333333333</ele><time>2026-05-02T15:41:49.032Z</time></trkpt><trkpt lat="42.1751826" lon="13.2820607"><ele>832.6666666666666</ele><time>2026-05-02T15:41:50.032Z</time></trkpt><trkpt lat="42.1753324" lon="13.2820437"><ele>832.0</ele><time>2026-05-02T15:41:51.032Z</time></trkpt><trkpt lat="42.1754871" lon="13.2820524"><ele>832.0</ele><time>2026-05-02T15:41:52.032Z</time></trkpt><trkpt lat="42.1756415" lon="13.2820878"><ele>832.0</ele><time>2026-05-02T15:41:53.032Z</time></trkpt><trkpt lat="42.1757966" lon="13.2821381"><ele>832.0</ele><time>2026-05-02T15:41:54.032Z</time></trkpt><trkpt lat="42.1759463" lon="13.2822015"><ele>834.3333333333333</ele><time>2026-05-02T15:41:55.032Z</time></trkpt><trkpt lat="42.1760962" lon="13.2822749"><ele>836.6666666666667</ele><time>2026-05-02T15:41:56.032Z</time></trkpt><trkpt lat="42.1762482" lon="13.2823625"><ele>839.0</ele><time>2026-05-02T15:41:57.031Z</time></trkpt><trkpt lat="42.1763975" lon="13.2824573"><ele>839.3333333333334</ele><time>2026-05-02T15:41:58.032Z</time></trkpt><trkpt lat="42.1765477" lon="13.282554"><ele>839.6666666666667</ele><time>2026-05-02T15:41:59.031Z</time></trkpt><trkpt lat="42.1767029" lon="13.2826492"><ele>840.0</ele><time>2026-05-02T15:42:00.032Z</time></trkpt><trkpt lat="42.1768655" lon="13.2827393"><ele>840.0</ele><time>2026-05-02T15:42:01.032Z</time></trkpt><trkpt lat="42.1770263" lon="13.2828405"><ele>840.0</ele><time>2026-05-02T15:42:02.032Z</time></trkpt><trkpt lat="42.1771929" lon="13.2829424"><ele>840.0</ele><time>2026-05-02T15:42:03.032Z</time></trkpt><trkpt lat="42.1773589" lon="13.2830484"><ele>841.0</ele><time>2026-05-02T15:42:04.032Z</time></trkpt><trkpt lat="42.1775265" lon="13.2831546"><ele>842.0</ele><time>2026-05-02T15:42:05.032Z</time></trkpt><trkpt lat="42.1776969" lon="13.2832611"><ele>843.0</ele><time>2026-05-02T15:42:06.032Z</time></trkpt><trkpt lat="42.1778692" lon="13.2833716"><ele>843.0</ele><time>2026-05-02T15:42:07.032Z</time></trkpt><trkpt lat="42.1780416" lon="13.2834847"><ele>843.0</ele><time>2026-05-02T15:42:08.032Z</time></trkpt><trkpt lat="42.1782117" lon="13.2835975"><ele>843.0</ele><time>2026-05-02T15:42:09.032Z</time></trkpt><trkpt lat="42.1783822" lon="13.2837045"><ele>842.6666666666667</ele><time>2026-05-02T15:42:10.031Z</time></trkpt><trkpt lat="42.178549" lon="13.2838129"><ele>842.3333333333334</ele><time>2026-05-02T15:42:11.032Z</time></trkpt><trkpt lat="42.1787157" lon="13.2839161"><ele>842.0</ele><time>2026-05-02T15:42:12.031Z</time></trkpt><trkpt lat="42.1788761" lon="13.2840221"><ele>842.0</ele><time>2026-05-02T15:42:13.032Z</time></trkpt><trkpt lat="42.1790411" lon="13.2841296"><ele>842.0</ele><time>2026-05-02T15:42:14.031Z</time></trkpt><trkpt lat="42.179203" lon="13.2842337"><ele>842.0</ele><time>2026-05-02T15:42:15.031Z</time></trkpt><trkpt lat="42.1793657" lon="13.284341"><ele>842.0</ele><time>2026-05-02T15:42:16.032Z</time></trkpt><trkpt lat="42.1795307" lon="13.2844504"><ele>842.0</ele><time>2026-05-02T15:42:17.032Z</time></trkpt><trkpt lat="42.1796974" lon="13.2845614"><ele>842.0</ele><time>2026-05-02T15:42:18.032Z</time></trkpt><trkpt lat="42.1798622" lon="13.284669"><ele>841.0</ele><time>2026-05-02T15:42:19.032Z</time></trkpt><trkpt lat="42.1800336" lon="13.2847688"><ele>840.0</ele><time>2026-05-02T15:42:20.032Z</time></trkpt><trkpt lat="42.1802077" lon="13.2848723"><ele>839.0</ele><time>2026-05-02T15:42:21.031Z</time></trkpt><trkpt lat="42.1803775" lon="13.2849808"><ele>839.0</ele><time>2026-05-02T15:42:22.032Z</time></trkpt><trkpt lat="42.1805455" lon="13.2850827"><ele>839.0</ele><time>2026-05-02T15:42:23.032Z</time></trkpt><trkpt lat="42.1807175" lon="13.2851782"><ele>839.0</ele><time>2026-05-02T15:42:24.031Z</time></trkpt><trkpt lat="42.1808916" lon="13.2852714"><ele>839.0</ele><time>2026-05-02T15:42:25.031Z</time></trkpt><trkpt lat="42.1810686" lon="13.2853671"><ele>839.0</ele><time>2026-05-02T15:42:26.031Z</time></trkpt><trkpt lat="42.1812468" lon="13.2854632"><ele>839.0</ele><time>2026-05-02T15:42:27.031Z</time></trkpt><trkpt lat="42.1814253" lon="13.285554"><ele>840.3333333333334</ele><time>2026-05-02T15:42:28.032Z</time></trkpt><trkpt lat="42.1816085" lon="13.2856388"><ele>841.6666666666667</ele><time>2026-05-02T15:42:29.032Z</time></trkpt><trkpt lat="42.1817962" lon="13.2857159"><ele>843.0</ele><time>2026-05-02T15:42:30.032Z</time></trkpt><trkpt lat="42.1819862" lon="13.2857964"><ele>843.0</ele><time>2026-05-02T15:42:31.031Z</time></trkpt><trkpt lat="42.1821803" lon="13.2858598"><ele>843.0</ele><time>2026-05-02T15:42:32.031Z</time></trkpt><trkpt lat="42.1823748" lon="13.2858914"><ele>843.0</ele><time>2026-05-02T15:42:33.032Z</time></trkpt><trkpt lat="42.1825611" lon="13.2859203"><ele>844.3333333333333</ele><time>2026-05-02T15:42:34.032Z</time></trkpt><trkpt lat="42.1827439" lon="13.2859305"><ele>845.6666666666666</ele><time>2026-05-02T15:42:35.032Z</time></trkpt><trkpt lat="42.1829384" lon="13.2860021"><ele>847.0</ele><time>2026-05-02T15:42:36.032Z</time></trkpt><trkpt lat="42.1831258" lon="13.2860611"><ele>847.3333333333333</ele><time>2026-05-02T15:42:37.032Z</time></trkpt><trkpt lat="42.1833222" lon="13.2861057"><ele>847.6666666666667</ele><time>2026-05-02T15:42:38.032Z</time></trkpt><trkpt lat="42.1835199" lon="13.2861391"><ele>848.0</ele><time>2026-05-02T15:42:39.032Z</time></trkpt><trkpt lat="42.1837184" lon="13.2861675"><ele>848.0</ele><time>2026-05-02T15:42:40.031Z</time></trkpt><trkpt lat="42.1839182" lon="13.2861868"><ele>848.0</ele><time>2026-05-02T15:42:41.032Z</time></trkpt><trkpt lat="42.1841174" lon="13.2862017"><ele>848.0</ele><time>2026-05-02T15:42:42.032Z</time></trkpt><trkpt lat="42.1843164" lon="13.2862125"><ele>848.3333333333334</ele><time>2026-05-02T15:42:43.032Z</time></trkpt><trkpt lat="42.1845222" lon="13.2862171"><ele>848.6666666666667</ele><time>2026-05-02T15:42:44.031Z</time></trkpt><trkpt lat="42.1847244" lon="13.28621"><ele>849.0</ele><time>2026-05-02T15:42:45.031Z</time></trkpt><trkpt lat="42.1849289" lon="13.2861991"><ele>849.6666666666667</ele><time>2026-05-02T15:42:46.032Z</time></trkpt><trkpt lat="42.1851329" lon="13.2861821"><ele>850.3333333333334</ele><time>2026-05-02T15:42:47.031Z</time></trkpt><trkpt lat="42.1853403" lon="13.2861659"><ele>851.0</ele><time>2026-05-02T15:42:48.032Z</time></trkpt><trkpt lat="42.185542" lon="13.2861449"><ele>851.6666666666667</ele><time>2026-05-02T15:42:49.032Z</time></trkpt><trkpt lat="42.1857423" lon="13.2861193"><ele>852.3333333333333</ele><time>2026-05-02T15:42:50.032Z</time></trkpt><trkpt lat="42.1859433" lon="13.2860918"><ele>853.0</ele><time>2026-05-02T15:42:51.032Z</time></trkpt><trkpt lat="42.1861445" lon="13.2860572"><ele>853.0</ele><time>2026-05-02T15:42:52.032Z</time></trkpt><trkpt lat="42.186342" lon="13.286015"><ele>853.0</ele><time>2026-05-02T15:42:53.032Z</time></trkpt><trkpt lat="42.1865402" lon="13.2859816"><ele>853.0</ele><time>2026-05-02T15:42:54.032Z</time></trkpt><trkpt lat="42.1867344" lon="13.2859491"><ele>855.3333333333333</ele><time>2026-05-02T15:42:55.032Z</time></trkpt><trkpt lat="42.1869238" lon="13.2859124"><ele>857.6666666666667</ele><time>2026-05-02T15:42:56.032Z</time></trkpt><trkpt lat="42.1871153" lon="13.2858771"><ele>860.0</ele><time>2026-05-02T15:42:57.032Z</time></trkpt><trkpt lat="42.1873067" lon="13.2858458"><ele>864.6666666666667</ele><time>2026-05-02T15:42:58.032Z</time></trkpt><trkpt lat="42.1874965" lon="13.2858152"><ele>869.3333333333333</ele><time>2026-05-02T15:42:59.032Z</time></trkpt><trkpt lat="42.1876878" lon="13.2857808"><ele>874.0</ele><time>2026-05-02T15:43:00.032Z</time></trkpt><trkpt lat="42.1878776" lon="13.2857437"><ele>874.0</ele><time>2026-05-02T15:43:01.032Z</time></trkpt><trkpt lat="42.1880708" lon="13.2857023"><ele>874.0</ele><time>2026-05-02T15:43:02.032Z</time></trkpt><trkpt lat="42.1882648" lon="13.2856616"><ele>874.0</ele><time>2026-05-02T15:43:03.031Z</time></trkpt><trkpt lat="42.1884605" lon="13.2856245"><ele>873.0</ele><time>2026-05-02T15:43:04.032Z</time></trkpt><trkpt lat="42.1886512" lon="13.2855903"><ele>872.0</ele><time>2026-05-02T15:43:05.031Z</time></trkpt><trkpt lat="42.1888406" lon="13.2855559"><ele>871.0</ele><time>2026-05-02T15:43:06.032Z</time></trkpt><trkpt lat="42.1890312" lon="13.2855226"><ele>873.6666666666666</ele><time>2026-05-02T15:43:07.031Z</time></trkpt><trkpt lat="42.1892198" lon="13.2854915"><ele>876.3333333333333</ele><time>2026-05-02T15:43:08.032Z</time></trkpt><trkpt lat="42.1894089" lon="13.2854556"><ele>879.0</ele><time>2026-05-02T15:43:09.032Z</time></trkpt><trkpt lat="42.1895956" lon="13.2854188"><ele>879.0</ele><time>2026-05-02T15:43:10.032Z</time></trkpt><trkpt lat="42.1897841" lon="13.2853819"><ele>879.0</ele><time>2026-05-02T15:43:11.032Z</time></trkpt><trkpt lat="42.1899717" lon="13.2853482"><ele>879.0</ele><time>2026-05-02T15:43:12.032Z</time></trkpt><trkpt lat="42.1901642" lon="13.2853128"><ele>879.6666666666667</ele><time>2026-05-02T15:43:13.032Z</time></trkpt><trkpt lat="42.1903528" lon="13.2852749"><ele>880.3333333333334</ele><time>2026-05-02T15:43:14.032Z</time></trkpt><trkpt lat="42.1905404" lon="13.2852323"><ele>881.0</ele><time>2026-05-02T15:43:15.032Z</time></trkpt><trkpt lat="42.1907315" lon="13.2851909"><ele>882.3333333333334</ele><time>2026-05-02T15:43:16.031Z</time></trkpt><trkpt lat="42.1909217" lon="13.285144"><ele>883.6666666666667</ele><time>2026-05-02T15:43:17.032Z</time></trkpt><trkpt lat="42.1911087" lon="13.2850942"><ele>885.0</ele><time>2026-05-02T15:43:18.031Z</time></trkpt><trkpt lat="42.1912964" lon="13.2850432"><ele>885.0</ele><time>2026-05-02T15:43:19.032Z</time></trkpt><trkpt lat="42.1914849" lon="13.2849908"><ele>885.0</ele><time>2026-05-02T15:43:20.032Z</time></trkpt><trkpt lat="42.1916741" lon="13.2849361"><ele>885.0</ele><time>2026-05-02T15:43:21.032Z</time></trkpt><trkpt lat="42.1918622" lon="13.2848824"><ele>885.3333333333333</ele><time>2026-05-02T15:43:22.032Z</time></trkpt><trkpt lat="42.1920526" lon="13.2848244"><ele>885.6666666666666</ele><time>2026-05-02T15:43:23.032Z</time></trkpt><trkpt lat="42.1922427" lon="13.2847664"><ele>886.0</ele><time>2026-05-02T15:43:24.032Z</time></trkpt><trkpt lat="42.1924338" lon="13.2846979"><ele>886.0</ele><time>2026-05-02T15:43:25.031Z</time></trkpt><trkpt lat="42.1926268" lon="13.2846337"><ele>886.0</ele><time>2026-05-02T15:43:26.031Z</time></trkpt><trkpt lat="42.1928169" lon="13.2845622"><ele>886.0</ele><time>2026-05-02T15:43:27.032Z</time></trkpt><trkpt lat="42.193008" lon="13.2844933"><ele>889.6666666666666</ele><time>2026-05-02T15:43:28.032Z</time></trkpt><trkpt lat="42.193199" lon="13.2844264"><ele>893.3333333333333</ele><time>2026-05-02T15:43:29.032Z</time></trkpt><trkpt lat="42.1933929" lon="13.2843662"><ele>897.0</ele><time>2026-05-02T15:43:30.031Z</time></trkpt><trkpt lat="42.1935857" lon="13.2843032"><ele>897.0</ele><time>2026-05-02T15:43:31.031Z</time></trkpt><trkpt lat="42.1937707" lon="13.2842353"><ele>897.0</ele><time>2026-05-02T15:43:32.032Z</time></trkpt><trkpt lat="42.1939631" lon="13.2841672"><ele>897.0</ele><time>2026-05-02T15:43:33.032Z</time></trkpt><trkpt lat="42.1941514" lon="13.2841068"><ele>896.6666666666667</ele><time>2026-05-02T15:43:34.032Z</time></trkpt><trkpt lat="42.1943387" lon="13.2840362"><ele>896.3333333333334</ele><time>2026-05-02T15:43:35.032Z</time></trkpt><trkpt lat="42.1945306" lon="13.2839781"><ele>896.0</ele><time>2026-05-02T15:43:36.032Z</time></trkpt><trkpt lat="42.1947205" lon="13.2839121"><ele>898.6666666666667</ele><time>2026-05-02T15:43:37.032Z</time></trkpt><trkpt lat="42.1949117" lon="13.2838447"><ele>901.3333333333333</ele><time>2026-05-02T15:43:38.031Z</time></trkpt><trkpt lat="42.1951039" lon="13.2837814"><ele>904.0</ele><time>2026-05-02T15:43:39.032Z</time></trkpt><trkpt lat="42.1952975" lon="13.2837167"><ele>904.0</ele><time>2026-05-02T15:43:40.032Z</time></trkpt><trkpt lat="42.1954891" lon="13.2836463"><ele>904.0</ele><time>2026-05-02T15:43:41.032Z</time></trkpt><trkpt lat="42.195682" lon="13.2835761"><ele>904.0</ele><time>2026-05-02T15:43:42.032Z</time></trkpt><trkpt lat="42.1958749" lon="13.2835073"><ele>906.3333333333333</ele><time>2026-05-02T15:43:43.031Z</time></trkpt><trkpt lat="42.1960663" lon="13.283436"><ele>908.6666666666667</ele><time>2026-05-02T15:43:44.032Z</time></trkpt><trkpt lat="42.196263" lon="13.2833645"><ele>911.0</ele><time>2026-05-02T15:43:45.032Z</time></trkpt><trkpt lat="42.1964568" lon="13.2832967"><ele>915.3333333333334</ele><time>2026-05-02T15:43:46.032Z</time></trkpt><trkpt lat="42.1966522" lon="13.2832324"><ele>919.6666666666667</ele><time>2026-05-02T15:43:47.031Z</time></trkpt><trkpt lat="42.1968488" lon="13.2831649"><ele>924.0</ele><time>2026-05-02T15:43:48.031Z</time></trkpt><trkpt lat="42.1970449" lon="13.2830929"><ele>917.3333333333333</ele><time>2026-05-02T15:43:49.032Z</time></trkpt><trkpt lat="42.1972428" lon="13.2830312"><ele>910.6666666666666</ele><time>2026-05-02T15:43:50.031Z</time></trkpt><trkpt lat="42.1974393" lon="13.2829693"><ele>904.0</ele><time>2026-05-02T15:43:51.032Z</time></trkpt><trkpt lat="42.1976396" lon="13.2829139"><ele>904.0</ele><time>2026-05-02T15:43:52.032Z</time></trkpt><trkpt lat="42.1978411" lon="13.2828661"><ele>904.0</ele><time>2026-05-02T15:43:53.032Z</time></trkpt><trkpt lat="42.1980444" lon="13.2828112"><ele>904.0</ele><time>2026-05-02T15:43:54.032Z</time></trkpt><trkpt lat="42.1982502" lon="13.2827658"><ele>909.0</ele><time>2026-05-02T15:43:55.031Z</time></trkpt><trkpt lat="42.1984563" lon="13.2827326"><ele>914.0</ele><time>2026-05-02T15:43:56.032Z</time></trkpt><trkpt lat="42.1986644" lon="13.2827232"><ele>919.0</ele><time>2026-05-02T15:43:57.032Z</time></trkpt><trkpt lat="42.1988735" lon="13.2827241"><ele>920.6666666666666</ele><time>2026-05-02T15:43:58.032Z</time></trkpt><trkpt lat="42.199084" lon="13.2827422"><ele>922.3333333333333</ele><time>2026-05-02T15:43:59.032Z</time></trkpt><trkpt lat="42.1992901" lon="13.2827674"><ele>924.0</ele><time>2026-05-02T15:44:00.032Z</time></trkpt><trkpt lat="42.1994969" lon="13.2828105"><ele>924.0</ele><time>2026-05-02T15:44:01.032Z</time></trkpt><trkpt lat="42.1997052" lon="13.2828601"><ele>924.0</ele><time>2026-05-02T15:44:02.031Z</time></trkpt><trkpt lat="42.1999141" lon="13.2829164"><ele>924.0</ele><time>2026-05-02T15:44:03.032Z</time></trkpt><trkpt lat="42.2001249" lon="13.2829776"><ele>922.6666666666667</ele><time>2026-05-02T15:44:04.032Z</time></trkpt><trkpt lat="42.2003291" lon="13.2830465"><ele>921.3333333333334</ele><time>2026-05-02T15:44:05.032Z</time></trkpt><trkpt lat="42.2005373" lon="13.283117"><ele>920.0</ele><time>2026-05-02T15:44:06.032Z</time></trkpt><trkpt lat="42.2007427" lon="13.2832021"><ele>926.3333333333334</ele><time>2026-05-02T15:44:07.032Z</time></trkpt><trkpt lat="42.2009473" lon="13.2832883"><ele>932.6666666666667</ele><time>2026-05-02T15:44:08.031Z</time></trkpt><trkpt lat="42.2011517" lon="13.283377"><ele>939.0</ele><time>2026-05-02T15:44:09.032Z</time></trkpt><trkpt lat="42.2013564" lon="13.2834608"><ele>936.3333333333333</ele><time>2026-05-02T15:44:10.031Z</time></trkpt><trkpt lat="42.2015617" lon="13.2835481"><ele>933.6666666666666</ele><time>2026-05-02T15:44:11.032Z</time></trkpt><trkpt lat="42.2017593" lon="13.2836375"><ele>931.0</ele><time>2026-05-02T15:44:12.032Z</time></trkpt><trkpt lat="42.2019679" lon="13.283725"><ele>931.0</ele><time>2026-05-02T15:44:13.032Z</time></trkpt><trkpt lat="42.2021786" lon="13.2838058"><ele>931.0</ele><time>2026-05-02T15:44:14.032Z</time></trkpt><trkpt lat="42.2023838" lon="13.283885"><ele>931.0</ele><time>2026-05-02T15:44:15.032Z</time></trkpt><trkpt lat="42.2025891" lon="13.2839686"><ele>935.3333333333333</ele><time>2026-05-02T15:44:16.032Z</time></trkpt><trkpt lat="42.2027963" lon="13.2840446"><ele>939.6666666666667</ele><time>2026-05-02T15:44:17.032Z</time></trkpt><trkpt lat="42.2030034" lon="13.2841172"><ele>944.0</ele><time>2026-05-02T15:44:18.032Z</time></trkpt><trkpt lat="42.2032108" lon="13.2841898"><ele>944.0</ele><time>2026-05-02T15:44:19.032Z</time></trkpt><trkpt lat="42.2034172" lon="13.2842646"><ele>944.0</ele><time>2026-05-02T15:44:20.031Z</time></trkpt><trkpt lat="42.2036256" lon="13.2843304"><ele>944.0</ele><time>2026-05-02T15:44:21.032Z</time></trkpt><trkpt lat="42.2038266" lon="13.2844038"><ele>941.6666666666667</ele><time>2026-05-02T15:44:22.032Z</time></trkpt><trkpt lat="42.204026" lon="13.2844733"><ele>939.3333333333333</ele><time>2026-05-02T15:44:23.032Z</time></trkpt><trkpt lat="42.2042289" lon="13.2845416"><ele>937.0</ele><time>2026-05-02T15:44:24.031Z</time></trkpt><trkpt lat="42.2044282" lon="13.2846121"><ele>937.0</ele><time>2026-05-02T15:44:25.032Z</time></trkpt><trkpt lat="42.2046259" lon="13.2846832"><ele>937.0</ele><time>2026-05-02T15:44:26.032Z</time></trkpt><trkpt lat="42.2048188" lon="13.2847548"><ele>937.0</ele><time>2026-05-02T15:44:27.032Z</time></trkpt><trkpt lat="42.2050091" lon="13.2848367"><ele>942.3333333333333</ele><time>2026-05-02T15:44:28.032Z</time></trkpt><trkpt lat="42.2051986" lon="13.2849227"><ele>947.6666666666667</ele><time>2026-05-02T15:44:29.031Z</time></trkpt><trkpt lat="42.2053871" lon="13.2850123"><ele>953.0</ele><time>2026-05-02T15:44:30.032Z</time></trkpt><trkpt lat="42.2055691" lon="13.285109"><ele>950.3333333333334</ele><time>2026-05-02T15:44:31.032Z</time></trkpt><trkpt lat="42.2057515" lon="13.2852135"><ele>947.6666666666667</ele><time>2026-05-02T15:44:32.032Z</time></trkpt><trkpt lat="42.2059285" lon="13.2853134"><ele>945.0</ele><time>2026-05-02T15:44:33.032Z</time></trkpt><trkpt lat="42.206101" lon="13.2854286"><ele>945.0</ele><time>2026-05-02T15:44:34.032Z</time></trkpt><trkpt lat="42.2062715" lon="13.2855471"><ele>945.0</ele><time>2026-05-02T15:44:35.031Z</time></trkpt><trkpt lat="42.206439" lon="13.2856644"><ele>945.0</ele><time>2026-05-02T15:44:36.031Z</time></trkpt><trkpt lat="42.2066014" lon="13.2857932"><ele>949.3333333333333</ele><time>2026-05-02T15:44:37.031Z</time></trkpt><trkpt lat="42.2067653" lon="13.2859351"><ele>953.6666666666666</ele><time>2026-05-02T15:44:38.032Z</time></trkpt><trkpt lat="42.2069287" lon="13.2860748"><ele>958.0</ele><time>2026-05-02T15:44:39.032Z</time></trkpt><trkpt lat="42.2070868" lon="13.2862208"><ele>958.0</ele><time>2026-05-02T15:44:40.032Z</time></trkpt><trkpt lat="42.207242" lon="13.2863763"><ele>958.0</ele><time>2026-05-02T15:44:41.032Z</time></trkpt><trkpt lat="42.2073878" lon="13.2865443"><ele>958.0</ele><time>2026-05-02T15:44:42.032Z</time></trkpt><trkpt lat="42.2075286" lon="13.2867186"><ele>960.0</ele><time>2026-05-02T15:44:43.031Z</time></trkpt><trkpt lat="42.2076674" lon="13.2868919"><ele>962.0</ele><time>2026-05-02T15:44:44.032Z</time></trkpt><trkpt lat="42.2078067" lon="13.2870711"><ele>964.0</ele><time>2026-05-02T15:44:45.031Z</time></trkpt><trkpt lat="42.2079396" lon="13.2872514"><ele>966.0</ele><time>2026-05-02T15:44:46.031Z</time></trkpt><trkpt lat="42.2080698" lon="13.287442"><ele>968.0</ele><time>2026-05-02T15:44:47.031Z</time></trkpt><trkpt lat="42.208193" lon="13.2876366"><ele>970.0</ele><time>2026-05-02T15:44:48.032Z</time></trkpt><trkpt lat="42.2083165" lon="13.2878364"><ele>970.0</ele><time>2026-05-02T15:44:49.032Z</time></trkpt><trkpt lat="42.2084387" lon="13.2880376"><ele>970.0</ele><time>2026-05-02T15:44:50.032Z</time></trkpt><trkpt lat="42.2085532" lon="13.2882416"><ele>970.0</ele><time>2026-05-02T15:44:51.032Z</time></trkpt><trkpt lat="42.2086661" lon="13.2884482"><ele>969.6666666666666</ele><time>2026-05-02T15:44:52.032Z</time></trkpt><trkpt lat="42.2087784" lon="13.2886578"><ele>969.3333333333333</ele><time>2026-05-02T15:44:53.032Z</time></trkpt><trkpt lat="42.2088925" lon="13.2888669"><ele>969.0</ele><time>2026-05-02T15:44:54.032Z</time></trkpt><trkpt lat="42.2090006" lon="13.2890791"><ele>969.0</ele><time>2026-05-02T15:44:55.031Z</time></trkpt><trkpt lat="42.2091059" lon="13.2892935"><ele>969.0</ele><time>2026-05-02T15:44:56.032Z</time></trkpt><trkpt lat="42.2092137" lon="13.2895066"><ele>969.0</ele><time>2026-05-02T15:44:57.032Z</time></trkpt><trkpt lat="42.2093184" lon="13.2897205"><ele>974.0</ele><time>2026-05-02T15:44:58.031Z</time></trkpt><trkpt lat="42.2094227" lon="13.2899324"><ele>979.0</ele><time>2026-05-02T15:44:59.031Z</time></trkpt><trkpt lat="42.2095289" lon="13.2901437"><ele>984.0</ele><time>2026-05-02T15:45:00.032Z</time></trkpt><trkpt lat="42.2096366" lon="13.2903551"><ele>984.0</ele><time>2026-05-02T15:45:01.032Z</time></trkpt><trkpt lat="42.209744" lon="13.2905701"><ele>984.0</ele><time>2026-05-02T15:45:02.032Z</time></trkpt><trkpt lat="42.2098497" lon="13.2907872"><ele>984.0</ele><time>2026-05-02T15:45:03.032Z</time></trkpt><trkpt lat="42.2099616" lon="13.2910003"><ele>982.0</ele><time>2026-05-02T15:45:04.032Z</time></trkpt><trkpt lat="42.2100754" lon="13.2912213"><ele>980.0</ele><time>2026-05-02T15:45:05.032Z</time></trkpt><trkpt lat="42.2101906" lon="13.2914366"><ele>978.0</ele><time>2026-05-02T15:45:06.032Z</time></trkpt><trkpt lat="42.2103033" lon="13.2916556"><ele>985.3333333333333</ele><time>2026-05-02T15:45:07.032Z</time></trkpt><trkpt lat="42.2104175" lon="13.2918645"><ele>992.6666666666666</ele><time>2026-05-02T15:45:08.032Z</time></trkpt><trkpt lat="42.2105334" lon="13.2920746"><ele>1000.0</ele><time>2026-05-02T15:45:09.032Z</time></trkpt><trkpt lat="42.2106491" lon="13.2922883"><ele>995.6666666666666</ele><time>2026-05-02T15:45:10.031Z</time></trkpt><trkpt lat="42.2107623" lon="13.2925011"><ele>991.3333333333333</ele><time>2026-05-02T15:45:11.031Z</time></trkpt><trkpt lat="42.2108765" lon="13.2927099"><ele>987.0</ele><time>2026-05-02T15:45:12.032Z</time></trkpt><trkpt lat="42.2109929" lon="13.292923"><ele>995.3333333333333</ele><time>2026-05-02T15:45:13.032Z</time></trkpt><trkpt lat="42.2111094" lon="13.2931272"><ele>1003.6666666666666</ele><time>2026-05-02T15:45:14.031Z</time></trkpt><trkpt lat="42.2112264" lon="13.2933291"><ele>1012.0</ele><time>2026-05-02T15:45:15.031Z</time></trkpt><trkpt lat="42.2113409" lon="13.2935332"><ele>1012.0</ele><time>2026-05-02T15:45:16.032Z</time></trkpt><trkpt lat="42.2114542" lon="13.2937405"><ele>1012.0</ele><time>2026-05-02T15:45:17.032Z</time></trkpt><trkpt lat="42.2115725" lon="13.2939375"><ele>1012.0</ele><time>2026-05-02T15:45:18.03Z</time></trkpt><trkpt lat="42.2116901" lon="13.2941398"><ele>1009.6666666666666</ele><time>2026-05-02T15:45:19.031Z</time></trkpt><trkpt lat="42.2118082" lon="13.2943474"><ele>1007.3333333333333</ele><time>2026-05-02T15:45:20.03Z</time></trkpt><trkpt lat="42.2119281" lon="13.2945523"><ele>1005.0</ele><time>2026-05-02T15:45:21.03Z</time></trkpt><trkpt lat="42.2120462" lon="13.294758"><ele>1002.6666666666667</ele><time>2026-05-02T15:45:22.03Z</time></trkpt><trkpt lat="42.2121669" lon="13.2949582"><ele>1000.3333333333334</ele><time>2026-05-02T15:45:23.03Z</time></trkpt><trkpt lat="42.2122865" lon="13.2951597"><ele>998.0</ele><time>2026-05-02T15:45:24.031Z</time></trkpt><trkpt lat="42.2124095" lon="13.2953544"><ele>998.0</ele><time>2026-05-02T15:45:25.031Z</time></trkpt><trkpt lat="42.2125307" lon="13.2955526"><ele>998.0</ele><time>2026-05-02T15:45:26.031Z</time></trkpt><trkpt lat="42.2126491" lon="13.2957565"><ele>998.0</ele><time>2026-05-02T15:45:27.031Z</time></trkpt><trkpt lat="42.2127718" lon="13.295959"><ele>1003.6666666666667</ele><time>2026-05-02T15:45:28.031Z</time></trkpt><trkpt lat="42.2128974" lon="13.2961563"><ele>1009.3333333333333</ele><time>2026-05-02T15:45:29.031Z</time></trkpt><trkpt lat="42.2130202" lon="13.2963523"><ele>1015.0</ele><time>2026-05-02T15:45:30.031Z</time></trkpt><trkpt lat="42.2131428" lon="13.2965528"><ele>1013.3333333333333</ele><time>2026-05-02T15:45:31.03Z</time></trkpt><trkpt lat="42.2132679" lon="13.296753"><ele>1011.6666666666667</ele><time>2026-05-02T15:45:32.031Z</time></trkpt><trkpt lat="42.2133965" lon="13.2969482"><ele>1010.0</ele><time>2026-05-02T15:45:33.031Z</time></trkpt><trkpt lat="42.213525" lon="13.2971435"><ele>1016.3333333333334</ele><time>2026-05-02T15:45:34.031Z</time></trkpt><trkpt lat="42.2136602" lon="13.2973275"><ele>1022.6666666666667</ele><time>2026-05-02T15:45:35.031Z</time></trkpt><trkpt lat="42.2137954" lon="13.2975083"><ele>1029.0</ele><time>2026-05-02T15:45:36.03Z</time></trkpt><trkpt lat="42.2139318" lon="13.2976885"><ele>1021.6666666666667</ele><time>2026-05-02T15:45:37.031Z</time></trkpt><trkpt lat="42.2140686" lon="13.2978672"><ele>1014.3333333333334</ele><time>2026-05-02T15:45:38.031Z</time></trkpt><trkpt lat="42.2142091" lon="13.2980349"><ele>1007.0</ele><time>2026-05-02T15:45:39.031Z</time></trkpt><trkpt lat="42.2143459" lon="13.2982013"><ele>1106.0</ele><time>2026-05-02T15:45:40.03Z</time></trkpt><trkpt lat="42.2488317" lon="13.3209045"><ele>1105.3333333333335</ele><time>2026-05-02T15:48:55.031Z</time></trkpt><trkpt lat="42.2490316" lon="13.3209482"><ele>1104.6666666666667</ele><time>2026-05-02T15:48:56.031Z</time></trkpt><trkpt lat="42.2492361" lon="13.3209999"><ele>1104.0</ele><time>2026-05-02T15:48:57.03Z</time></trkpt><trkpt lat="42.249438" lon="13.3210515"><ele>1104.0</ele><time>2026-05-02T15:48:58.031Z</time></trkpt><trkpt lat="42.2496395" lon="13.3210895"><ele>1104.0</ele><time>2026-05-02T15:48:59.031Z</time></trkpt><trkpt lat="42.2498435" lon="13.321144"><ele>1104.0</ele><time>2026-05-02T15:49:00.031Z</time></trkpt><trkpt lat="42.2500519" lon="13.3212037"><ele>1101.6666666666667</ele><time>2026-05-02T15:49:01.031Z</time></trkpt><trkpt lat="42.2502585" lon="13.3212582"><ele>1099.3333333333335</ele><time>2026-05-02T15:49:02.03Z</time></trkpt><trkpt lat="42.2504645" lon="13.3213075"><ele>1097.0</ele><time>2026-05-02T15:49:03.031Z</time></trkpt><trkpt lat="42.2506701" lon="13.3213497"><ele>1091.6666666666667</ele><time>2026-05-02T15:49:04.031Z</time></trkpt><trkpt lat="42.2508773" lon="13.3213901"><ele>1086.3333333333333</ele><time>2026-05-02T15:49:05.031Z</time></trkpt><trkpt lat="42.2510821" lon="13.3214343"><ele>1081.0</ele><time>2026-05-02T15:49:06.031Z</time></trkpt><trkpt lat="42.2512913" lon="13.3214704"><ele>1077.3333333333333</ele><time>2026-05-02T15:49:07.031Z</time></trkpt><trkpt lat="42.2514978" lon="13.3215095"><ele>1073.6666666666667</ele><time>2026-05-02T15:49:08.031Z</time></trkpt><trkpt lat="42.2517078" lon="13.3215529"><ele>1070.0</ele><time>2026-05-02T15:49:09.031Z</time></trkpt><trkpt lat="42.2519152" lon="13.3215875"><ele>1070.0</ele><time>2026-05-02T15:49:10.031Z</time></trkpt><trkpt lat="42.2521232" lon="13.321624"><ele>1070.0</ele><time>2026-05-02T15:49:11.03Z</time></trkpt><trkpt lat="42.2523264" lon="13.3216509"><ele>1070.0</ele><time>2026-05-02T15:49:12.03Z</time></trkpt><trkpt lat="42.2525307" lon="13.3216792"><ele>1078.6666666666667</ele><time>2026-05-02T15:49:13.03Z</time></trkpt><trkpt lat="42.2527318" lon="13.3217053"><ele>1087.3333333333333</ele><time>2026-05-02T15:49:14.03Z</time></trkpt><trkpt lat="42.2529319" lon="13.3217267"><ele>1096.0</ele><time>2026-05-02T15:49:15.031Z</time></trkpt><trkpt lat="42.2531321" lon="13.3217494"><ele>1096.0</ele><time>2026-05-02T15:49:16.03Z</time></trkpt><trkpt lat="42.2533288" lon="13.3217703"><ele>1096.0</ele><time>2026-05-02T15:49:17.031Z</time></trkpt><trkpt lat="42.2535252" lon="13.3217858"><ele>1096.0</ele><time>2026-05-02T15:49:18.031Z</time></trkpt><trkpt lat="42.2537242" lon="13.3218115"><ele>1096.0</ele><time>2026-05-02T15:49:19.031Z</time></trkpt><trkpt lat="42.2539203" lon="13.32183"><ele>1096.0</ele><time>2026-05-02T15:49:20.031Z</time></trkpt><trkpt lat="42.2541213" lon="13.3218434"><ele>1096.0</ele><time>2026-05-02T15:49:21.03Z</time></trkpt><trkpt lat="42.2543197" lon="13.3218549"><ele>1096.3333333333333</ele><time>2026-05-02T15:49:22.031Z</time></trkpt><trkpt lat="42.2545187" lon="13.3218638"><ele>1096.6666666666667</ele><time>2026-05-02T15:49:23.031Z</time></trkpt><trkpt lat="42.2547162" lon="13.3218739"><ele>1097.0</ele><time>2026-05-02T15:49:24.03Z</time></trkpt><trkpt lat="42.2549164" lon="13.3218791"><ele>1097.0</ele><time>2026-05-02T15:49:25.031Z</time></trkpt><trkpt lat="42.2551121" lon="13.3218839"><ele>1097.0</ele><time>2026-05-02T15:49:26.031Z</time></trkpt><trkpt lat="42.2553101" lon="13.3218931"><ele>1097.0</ele><time>2026-05-02T15:49:27.031Z</time></trkpt><trkpt lat="42.2555114" lon="13.3218993"><ele>1095.6666666666667</ele><time>2026-05-02T15:49:28.031Z</time></trkpt><trkpt lat="42.2557157" lon="13.3219017"><ele>1094.3333333333333</ele><time>2026-05-02T15:49:29.031Z</time></trkpt><trkpt lat="42.255917" lon="13.3218983"><ele>1093.0</ele><time>2026-05-02T15:49:30.031Z</time></trkpt><trkpt lat="42.2561186" lon="13.3219019"><ele>1093.0</ele><time>2026-05-02T15:49:31.03Z</time></trkpt><trkpt lat="42.2563248" lon="13.3219015"><ele>1093.0</ele><time>2026-05-02T15:49:32.031Z</time></trkpt><trkpt lat="42.2565309" lon="13.3218978"><ele>1093.0</ele><time>2026-05-02T15:49:33.031Z</time></trkpt><trkpt lat="42.2567384" lon="13.3218892"><ele>1095.3333333333333</ele><time>2026-05-02T15:49:34.031Z</time></trkpt><trkpt lat="42.2569512" lon="13.3218779"><ele>1097.6666666666667</ele><time>2026-05-02T15:49:35.031Z</time></trkpt><trkpt lat="42.2571625" lon="13.3218644"><ele>1100.0</ele><time>2026-05-02T15:49:36.031Z</time></trkpt><trkpt lat="42.2573753" lon="13.3218476"><ele>1100.0</ele><time>2026-05-02T15:49:37.031Z</time></trkpt><trkpt lat="42.2575855" lon="13.3218326"><ele>1100.0</ele><time>2026-05-02T15:49:38.03Z</time></trkpt><trkpt lat="42.2577989" lon="13.3218136"><ele>1100.0</ele><time>2026-05-02T15:49:39.03Z</time></trkpt><trkpt lat="42.2580131" lon="13.3217944"><ele>1102.3333333333335</ele><time>2026-05-02T15:49:40.031Z</time></trkpt><trkpt lat="42.2582278" lon="13.3217733"><ele>1104.6666666666667</ele><time>2026-05-02T15:49:41.031Z</time></trkpt><trkpt lat="42.2584443" lon="13.3217459"><ele>1107.0</ele><time>2026-05-02T15:49:42.031Z</time></trkpt><trkpt lat="42.2586609" lon="13.3217197"><ele>1107.0</ele><time>2026-05-02T15:49:43.031Z</time></trkpt><trkpt lat="42.2588729" lon="13.3216991"><ele>1107.0</ele><time>2026-05-02T15:49:44.03Z</time></trkpt><trkpt lat="42.2590822" lon="13.3216662"><ele>1107.0</ele><time>2026-05-02T15:49:45.031Z</time></trkpt><trkpt lat="42.2592891" lon="13.3216367"><ele>1106.0</ele><time>2026-05-02T15:49:46.03Z</time></trkpt><trkpt lat="42.2594937" lon="13.3216004"><ele>1105.0</ele><time>2026-05-02T15:49:47.031Z</time></trkpt><trkpt lat="42.2596921" lon="13.3215618"><ele>1104.0</ele><time>2026-05-02T15:49:48.031Z</time></trkpt><trkpt lat="42.2598915" lon="13.3215183"><ele>1104.0</ele><time>2026-05-02T15:49:49.031Z</time></trkpt><trkpt lat="42.2600934" lon="13.3214794"><ele>1104.0</ele><time>2026-05-02T15:49:50.031Z</time></trkpt><trkpt lat="42.2602983" lon="13.3214428"><ele>1104.0</ele><time>2026-05-02T15:49:51.03Z</time></trkpt><trkpt lat="42.2605039" lon="13.3214072"><ele>1096.0</ele><time>2026-05-02T15:49:52.031Z</time></trkpt><trkpt lat="42.2607075" lon="13.3213702"><ele>1088.0</ele><time>2026-05-02T15:49:53.03Z</time></trkpt><trkpt lat="42.2609133" lon="13.3213254"><ele>1080.0</ele><time>2026-05-02T15:49:54.03Z</time></trkpt><trkpt lat="42.2611167" lon="13.3212863"><ele>1080.0</ele><time>2026-05-02T15:49:55.031Z</time></trkpt><trkpt lat="42.2613213" lon="13.3212524"><ele>1080.0</ele><time>2026-05-02T15:49:56.03Z</time></trkpt><trkpt lat="42.2615237" lon="13.3212181"><ele>1080.0</ele><time>2026-05-02T15:49:57.03Z</time></trkpt><trkpt lat="42.2617292" lon="13.3211803"><ele>1082.0</ele><time>2026-05-02T15:49:58.031Z</time></trkpt><trkpt lat="42.2619365" lon="13.321143"><ele>1084.0</ele><time>2026-05-02T15:49:59.031Z</time></trkpt><trkpt lat="42.2621411" lon="13.321103"><ele>1086.0</ele><time>2026-05-02T15:50:00.03Z</time></trkpt><trkpt lat="42.2623453" lon="13.321061"><ele>1086.6666666666667</ele><time>2026-05-02T15:50:01.03Z</time></trkpt><trkpt lat="42.2625534" lon="13.3210256"><ele>1087.3333333333335</ele><time>2026-05-02T15:50:02.031Z</time></trkpt><trkpt lat="42.2627564" lon="13.3209881"><ele>1088.0</ele><time>2026-05-02T15:50:03.031Z</time></trkpt><trkpt lat="42.2629647" lon="13.3209507"><ele>1089.3333333333335</ele><time>2026-05-02T15:50:04.031Z</time></trkpt><trkpt lat="42.2631695" lon="13.320914"><ele>1090.6666666666667</ele><time>2026-05-02T15:50:05.031Z</time></trkpt><trkpt lat="42.2633691" lon="13.3208754"><ele>1092.0</ele><time>2026-05-02T15:50:06.031Z</time></trkpt><trkpt lat="42.2635705" lon="13.3208348"><ele>1092.0</ele><time>2026-05-02T15:50:07.031Z</time></trkpt><trkpt lat="42.2637728" lon="13.3207918"><ele>1092.0</ele><time>2026-05-02T15:50:08.031Z</time></trkpt><trkpt lat="42.2639729" lon="13.3207488"><ele>1092.0</ele><time>2026-05-02T15:50:09.031Z</time></trkpt><trkpt lat="42.2641724" lon="13.3207102"><ele>1093.0</ele><time>2026-05-02T15:50:10.031Z</time></trkpt><trkpt lat="42.2643711" lon="13.3206711"><ele>1094.0</ele><time>2026-05-02T15:50:11.03Z</time></trkpt><trkpt lat="42.264568" lon="13.320628"><ele>1095.0</ele><time>2026-05-02T15:50:12.031Z</time></trkpt><trkpt lat="42.2647643" lon="13.3205838"><ele>1086.6666666666667</ele><time>2026-05-02T15:50:13.031Z</time></trkpt><trkpt lat="42.2649626" lon="13.3205398"><ele>1078.3333333333335</ele><time>2026-05-02T15:50:14.031Z</time></trkpt><trkpt lat="42.2651564" lon="13.3204945"><ele>1070.0</ele><time>2026-05-02T15:50:15.031Z</time></trkpt><trkpt lat="42.2653548" lon="13.3204473"><ele>1070.0</ele><time>2026-05-02T15:50:16.03Z</time></trkpt><trkpt lat="42.2655497" lon="13.3203944"><ele>1070.0</ele><time>2026-05-02T15:50:17.03Z</time></trkpt><trkpt lat="42.265748" lon="13.3203428"><ele>1070.0</ele><time>2026-05-02T15:50:18.03Z</time></trkpt><trkpt lat="42.2659454" lon="13.3202864"><ele>1071.3333333333335</ele><time>2026-05-02T15:50:19.031Z</time></trkpt><trkpt lat="42.2661437" lon="13.3202336"><ele>1072.6666666666667</ele><time>2026-05-02T15:50:20.031Z</time></trkpt><trkpt lat="42.2663452" lon="13.3201799"><ele>1074.0</ele><time>2026-05-02T15:50:21.031Z</time></trkpt><trkpt lat="42.2665473" lon="13.3201223"><ele>1076.6666666666667</ele><time>2026-05-02T15:50:22.031Z</time></trkpt><trkpt lat="42.2667483" lon="13.3200531"><ele>1079.3333333333335</ele><time>2026-05-02T15:50:23.031Z</time></trkpt><trkpt lat="42.2669513" lon="13.3199744"><ele>1082.0</ele><time>2026-05-02T15:50:24.031Z</time></trkpt><trkpt lat="42.2671483" lon="13.3198915"><ele>1079.0</ele><time>2026-05-02T15:50:25.031Z</time></trkpt><trkpt lat="42.2673458" lon="13.319806"><ele>1076.0</ele><time>2026-05-02T15:50:26.031Z</time></trkpt><trkpt lat="42.2675448" lon="13.3197154"><ele>1073.0</ele><time>2026-05-02T15:50:27.031Z</time></trkpt><trkpt lat="42.267741" lon="13.319623"><ele>1073.0</ele><time>2026-05-02T15:50:28.03Z</time></trkpt><trkpt lat="42.2679385" lon="13.3195201"><ele>1073.0</ele><time>2026-05-02T15:50:29.031Z</time></trkpt><trkpt lat="42.2681358" lon="13.3194079"><ele>1073.0</ele><time>2026-05-02T15:50:30.031Z</time></trkpt><trkpt lat="42.2683298" lon="13.3192972"><ele>1073.6666666666667</ele><time>2026-05-02T15:50:31.031Z</time></trkpt><trkpt lat="42.2685224" lon="13.3191807"><ele>1074.3333333333333</ele><time>2026-05-02T15:50:32.031Z</time></trkpt><trkpt lat="42.2687133" lon="13.3190598"><ele>1075.0</ele><time>2026-05-02T15:50:33.031Z</time></trkpt><trkpt lat="42.2689026" lon="13.3189293"><ele>1070.0</ele><time>2026-05-02T15:50:34.031Z</time></trkpt><trkpt lat="42.2690898" lon="13.3187983"><ele>1065.0</ele><time>2026-05-02T15:50:35.031Z</time></trkpt><trkpt lat="42.2692766" lon="13.3186675"><ele>1060.0</ele><time>2026-05-02T15:50:36.031Z</time></trkpt><trkpt lat="42.2694603" lon="13.3185293"><ele>1060.0</ele><time>2026-05-02T15:50:37.031Z</time></trkpt><trkpt lat="42.2696441" lon="13.3183856"><ele>1060.0</ele><time>2026-05-02T15:50:38.031Z</time></trkpt><trkpt lat="42.2698229" lon="13.3182371"><ele>1060.0</ele><time>2026-05-02T15:50:39.031Z</time></trkpt><trkpt lat="42.2699898" lon="13.3180887"><ele>1057.0</ele><time>2026-05-02T15:50:40.031Z</time></trkpt><trkpt lat="42.2701543" lon="13.317935"><ele>1054.0</ele><time>2026-05-02T15:50:41.031Z</time></trkpt><trkpt lat="42.2703156" lon="13.317783"><ele>1051.0</ele><time>2026-05-02T15:50:42.031Z</time></trkpt><trkpt lat="42.270479" lon="13.3176275"><ele>1048.6666666666665</ele><time>2026-05-02T15:50:43.031Z</time></trkpt><trkpt lat="42.2706373" lon="13.3174766"><ele>1046.3333333333333</ele><time>2026-05-02T15:50:44.031Z</time></trkpt><trkpt lat="42.2707961" lon="13.3173217"><ele>1044.0</ele><time>2026-05-02T15:50:45.031Z</time></trkpt><trkpt lat="42.2709554" lon="13.3171673"><ele>1044.0</ele><time>2026-05-02T15:50:46.031Z</time></trkpt><trkpt lat="42.2711202" lon="13.3170138"><ele>1044.0</ele><time>2026-05-02T15:50:47.031Z</time></trkpt><trkpt lat="42.2712802" lon="13.3168573"><ele>1044.0</ele><time>2026-05-02T15:50:48.031Z</time></trkpt><trkpt lat="42.271446" lon="13.3167016"><ele>1042.0</ele><time>2026-05-02T15:50:49.031Z</time></trkpt><trkpt lat="42.2716096" lon="13.3165457"><ele>1040.0</ele><time>2026-05-02T15:50:50.031Z</time></trkpt><trkpt lat="42.2717758" lon="13.3163956"><ele>1038.0</ele><time>2026-05-02T15:50:51.031Z</time></trkpt><trkpt lat="42.2719473" lon="13.3162481"><ele>1038.0</ele><time>2026-05-02T15:50:52.031Z</time></trkpt><trkpt lat="42.2721214" lon="13.3161076"><ele>1038.0</ele><time>2026-05-02T15:50:53.031Z</time></trkpt><trkpt lat="42.2722995" lon="13.315969"><ele>1038.0</ele><time>2026-05-02T15:50:54.031Z</time></trkpt><trkpt lat="42.2724784" lon="13.3158352"><ele>1036.6666666666667</ele><time>2026-05-02T15:50:55.031Z</time></trkpt><trkpt lat="42.2726616" lon="13.315704"><ele>1035.3333333333335</ele><time>2026-05-02T15:50:56.031Z</time></trkpt><trkpt lat="42.2728494" lon="13.315581"><ele>1034.0</ele><time>2026-05-02T15:50:57.031Z</time></trkpt><trkpt lat="42.2730392" lon="13.3154646"><ele>1036.0</ele><time>2026-05-02T15:50:58.031Z</time></trkpt><trkpt lat="42.2732357" lon="13.3153533"><ele>1038.0</ele><time>2026-05-02T15:50:59.031Z</time></trkpt><trkpt lat="42.2734353" lon="13.315242"><ele>1040.0</ele><time>2026-05-02T15:51:00.031Z</time></trkpt><trkpt lat="42.2736391" lon="13.3151357"><ele>1040.0</ele><time>2026-05-02T15:51:01.031Z</time></trkpt><trkpt lat="42.2738442" lon="13.3150351"><ele>1040.0</ele><time>2026-05-02T15:51:02.031Z</time></trkpt><trkpt lat="42.2740465" lon="13.3149398"><ele>1040.0</ele><time>2026-05-02T15:51:03.031Z</time></trkpt><trkpt lat="42.2742524" lon="13.3148539"><ele>1038.6666666666667</ele><time>2026-05-02T15:51:04.031Z</time></trkpt><trkpt lat="42.274455" lon="13.3147687"><ele>1037.3333333333333</ele><time>2026-05-02T15:51:05.03Z</time></trkpt><trkpt lat="42.2746595" lon="13.3146797"><ele>1036.0</ele><time>2026-05-02T15:51:06.03Z</time></trkpt><trkpt lat="42.2748629" lon="13.3145902"><ele>1036.0</ele><time>2026-05-02T15:51:07.031Z</time></trkpt><trkpt lat="42.2750653" lon="13.3145049"><ele>1036.0</ele><time>2026-05-02T15:51:08.031Z</time></trkpt><trkpt lat="42.2752688" lon="13.3144167"><ele>1036.0</ele><time>2026-05-02T15:51:09.03Z</time></trkpt><trkpt lat="42.2754705" lon="13.3143341"><ele>1039.3333333333333</ele><time>2026-05-02T15:51:10.031Z</time></trkpt><trkpt lat="42.2756722" lon="13.314249"><ele>1042.6666666666667</ele><time>2026-05-02T15:51:11.031Z</time></trkpt><trkpt lat="42.2758744" lon="13.3141613"><ele>1046.0</ele><time>2026-05-02T15:51:12.031Z</time></trkpt><trkpt lat="42.2760714" lon="13.3140752"><ele>1046.0</ele><time>2026-05-02T15:51:13.031Z</time></trkpt><trkpt lat="42.276267" lon="13.3139876"><ele>1046.0</ele><time>2026-05-02T15:51:14.031Z</time></trkpt><trkpt lat="42.2764579" lon="13.3138956"><ele>1046.0</ele><time>2026-05-02T15:51:15.031Z</time></trkpt><trkpt lat="42.27665" lon="13.313796"><ele>1038.6666666666667</ele><time>2026-05-02T15:51:16.031Z</time></trkpt><trkpt lat="42.2768391" lon="13.3136935"><ele>1031.3333333333333</ele><time>2026-05-02T15:51:17.031Z</time></trkpt><trkpt lat="42.277023" lon="13.3135883"><ele>1024.0</ele><time>2026-05-02T15:51:18.031Z</time></trkpt><trkpt lat="42.2772072" lon="13.3134629"><ele>1030.0</ele><time>2026-05-02T15:51:19.031Z</time></trkpt><trkpt lat="42.277388" lon="13.3133321"><ele>1036.0</ele><time>2026-05-02T15:51:20.031Z</time></trkpt><trkpt lat="42.2775604" lon="13.3131942"><ele>1042.0</ele><time>2026-05-02T15:51:21.031Z</time></trkpt><trkpt lat="42.2777303" lon="13.3130439"><ele>1038.3333333333333</ele><time>2026-05-02T15:51:22.031Z</time></trkpt><trkpt lat="42.2779029" lon="13.3128958"><ele>1034.6666666666667</ele><time>2026-05-02T15:51:23.031Z</time></trkpt><trkpt lat="42.2780755" lon="13.3127504"><ele>1031.0</ele><time>2026-05-02T15:51:24.031Z</time></trkpt><trkpt lat="42.278245" lon="13.3125991"><ele>1031.0</ele><time>2026-05-02T15:51:25.03Z</time></trkpt><trkpt lat="42.2784136" lon="13.3124515"><ele>1031.0</ele><time>2026-05-02T15:51:26.031Z</time></trkpt><trkpt lat="42.2785831" lon="13.312299"><ele>1031.0</ele><time>2026-05-02T15:51:27.031Z</time></trkpt><trkpt lat="42.2787552" lon="13.3121571"><ele>1028.3333333333335</ele><time>2026-05-02T15:51:28.031Z</time></trkpt><trkpt lat="42.2789283" lon="13.3120086"><ele>1025.6666666666667</ele><time>2026-05-02T15:51:29.031Z</time></trkpt><trkpt lat="42.2791013" lon="13.3118718"><ele>1023.0</ele><time>2026-05-02T15:51:30.03Z</time></trkpt><trkpt lat="42.2792852" lon="13.3117457"><ele>1023.0</ele><time>2026-05-02T15:51:31.031Z</time></trkpt><trkpt lat="42.2794682" lon="13.3116249"><ele>1023.0</ele><time>2026-05-02T15:51:32.031Z</time></trkpt><trkpt lat="42.2796528" lon="13.3115125"><ele>1023.0</ele><time>2026-05-02T15:51:33.031Z</time></trkpt><trkpt lat="42.2798407" lon="13.3114079"><ele>1015.6666666666667</ele><time>2026-05-02T15:51:34.03Z</time></trkpt><trkpt lat="42.2800263" lon="13.3113121"><ele>1008.3333333333334</ele><time>2026-05-02T15:51:35.03Z</time></trkpt><trkpt lat="42.2802185" lon="13.311229"><ele>1001.0</ele><time>2026-05-02T15:51:36.03Z</time></trkpt><trkpt lat="42.2804128" lon="13.3111472"><ele>1006.3333333333334</ele><time>2026-05-02T15:51:37.03Z</time></trkpt><trkpt lat="42.2806056" lon="13.3110755"><ele>1011.6666666666667</ele><time>2026-05-02T15:51:38.03Z</time></trkpt><trkpt lat="42.2808" lon="13.3110101"><ele>1017.0</ele><time>2026-05-02T15:51:39.031Z</time></trkpt><trkpt lat="42.2809967" lon="13.3109548"><ele>1017.0</ele><time>2026-05-02T15:51:40.031Z</time></trkpt><trkpt lat="42.2811941" lon="13.3109043"><ele>1017.0</ele><time>2026-05-02T15:51:41.03Z</time></trkpt><trkpt lat="42.2813953" lon="13.3108574"><ele>1017.0</ele><time>2026-05-02T15:51:42.031Z</time></trkpt><trkpt lat="42.2815972" lon="13.3108096"><ele>1020.6666666666667</ele><time>2026-05-02T15:51:43.031Z</time></trkpt><trkpt lat="42.2818016" lon="13.3107725"><ele>1024.3333333333335</ele><time>2026-05-02T15:51:44.031Z</time></trkpt><trkpt lat="42.2820091" lon="13.3107423"><ele>1028.0</ele><time>2026-05-02T15:51:45.031Z</time></trkpt><trkpt lat="42.2822178" lon="13.310716"><ele>1029.6666666666667</ele><time>2026-05-02T15:51:46.031Z</time></trkpt><trkpt lat="42.2824264" lon="13.3106999"><ele>1031.3333333333333</ele><time>2026-05-02T15:51:47.031Z</time></trkpt><trkpt lat="42.2826386" lon="13.3106808"><ele>1033.0</ele><time>2026-05-02T15:51:48.03Z</time></trkpt><trkpt lat="42.2828501" lon="13.3106643"><ele>1033.0</ele><time>2026-05-02T15:51:49.031Z</time></trkpt><trkpt lat="42.2830609" lon="13.3106451"><ele>1033.0</ele><time>2026-05-02T15:51:50.031Z</time></trkpt><trkpt lat="42.2832684" lon="13.3106262"><ele>1033.0</ele><time>2026-05-02T15:51:51.03Z</time></trkpt><trkpt lat="42.2834775" lon="13.3106076"><ele>1031.3333333333333</ele><time>2026-05-02T15:51:52.031Z</time></trkpt><trkpt lat="42.2836846" lon="13.3105855"><ele>1029.6666666666667</ele><time>2026-05-02T15:51:53.031Z</time></trkpt><trkpt lat="42.2838909" lon="13.3105639"><ele>1028.0</ele><time>2026-05-02T15:51:54.03Z</time></trkpt><trkpt lat="42.2841019" lon="13.3105393"><ele>1016.3333333333334</ele><time>2026-05-02T15:51:55.03Z</time></trkpt><trkpt lat="42.2843085" lon="13.3105162"><ele>1004.6666666666667</ele><time>2026-05-02T15:51:56.03Z</time></trkpt><trkpt lat="42.284516" lon="13.3104938"><ele>993.0</ele><time>2026-05-02T15:51:57.031Z</time></trkpt><trkpt lat="42.2847192" lon="13.3104707"><ele>993.6666666666667</ele><time>2026-05-02T15:51:58.03Z</time></trkpt><trkpt lat="42.2849258" lon="13.3104475"><ele>994.3333333333334</ele><time>2026-05-02T15:51:59.03Z</time></trkpt><trkpt lat="42.2851315" lon="13.3104218"><ele>995.0</ele><time>2026-05-02T15:52:00.031Z</time></trkpt><trkpt lat="42.2853382" lon="13.3103892"><ele>995.0</ele><time>2026-05-02T15:52:01.03Z</time></trkpt><trkpt lat="42.2855467" lon="13.3103607"><ele>995.0</ele><time>2026-05-02T15:52:02.031Z</time></trkpt><trkpt lat="42.2857543" lon="13.3103298"><ele>995.0</ele><time>2026-05-02T15:52:03.031Z</time></trkpt><trkpt lat="42.2859655" lon="13.310298"><ele>995.6666666666667</ele><time>2026-05-02T15:52:04.031Z</time></trkpt><trkpt lat="42.2861748" lon="13.3102618"><ele>996.3333333333333</ele><time>2026-05-02T15:52:05.03Z</time></trkpt><trkpt lat="42.2863836" lon="13.31023"><ele>997.0</ele><time>2026-05-02T15:52:06.031Z</time></trkpt><trkpt lat="42.2865908" lon="13.3101944"><ele>997.0</ele><time>2026-05-02T15:52:07.031Z</time></trkpt><trkpt lat="42.2867994" lon="13.3101625"><ele>997.0</ele><time>2026-05-02T15:52:08.031Z</time></trkpt><trkpt lat="42.2870061" lon="13.3101321"><ele>997.0</ele><time>2026-05-02T15:52:09.031Z</time></trkpt><trkpt lat="42.2872108" lon="13.3101003"><ele>998.6666666666666</ele><time>2026-05-02T15:52:10.031Z</time></trkpt><trkpt lat="42.2874161" lon="13.310067"><ele>1000.3333333333333</ele><time>2026-05-02T15:52:11.03Z</time></trkpt><trkpt lat="42.2876207" lon="13.310034"><ele>1002.0</ele><time>2026-05-02T15:52:12.031Z</time></trkpt><trkpt lat="42.2878279" lon="13.3099998"><ele>1002.0</ele><time>2026-05-02T15:52:13.031Z</time></trkpt><trkpt lat="42.2880343" lon="13.3099651"><ele>1002.0</ele><time>2026-05-02T15:52:14.031Z</time></trkpt><trkpt lat="42.2882439" lon="13.3099341"><ele>1002.0</ele><time>2026-05-02T15:52:15.03Z</time></trkpt><trkpt lat="42.2884568" lon="13.3099027"><ele>1002.3333333333333</ele><time>2026-05-02T15:52:16.031Z</time></trkpt><trkpt lat="42.2886698" lon="13.309875"><ele>1002.6666666666666</ele><time>2026-05-02T15:52:17.03Z</time></trkpt><trkpt lat="42.2888879" lon="13.3098431"><ele>1003.0</ele><time>2026-05-02T15:52:18.031Z</time></trkpt><trkpt lat="42.2891058" lon="13.3098074"><ele>1003.6666666666666</ele><time>2026-05-02T15:52:19.031Z</time></trkpt><trkpt lat="42.2893231" lon="13.3097691"><ele>1004.3333333333333</ele><time>2026-05-02T15:52:20.031Z</time></trkpt><trkpt lat="42.2895377" lon="13.3097364"><ele>1005.0</ele><time>2026-05-02T15:52:21.03Z</time></trkpt><trkpt lat="42.2897547" lon="13.3097029"><ele>990.3333333333333</ele><time>2026-05-02T15:52:22.031Z</time></trkpt><trkpt lat="42.2899714" lon="13.3096678"><ele>975.6666666666666</ele><time>2026-05-02T15:52:23.031Z</time></trkpt><trkpt lat="42.2901864" lon="13.3096329"><ele>961.0</ele><time>2026-05-02T15:52:24.031Z</time></trkpt><trkpt lat="42.2903984" lon="13.3096001"><ele>962.3333333333333</ele><time>2026-05-02T15:52:25.031Z</time></trkpt><trkpt lat="42.2906142" lon="13.3095659"><ele>963.6666666666667</ele><time>2026-05-02T15:52:26.031Z</time></trkpt><trkpt lat="42.2908298" lon="13.3095343"><ele>965.0</ele><time>2026-05-02T15:52:27.031Z</time></trkpt><trkpt lat="42.2910431" lon="13.3095019"><ele>965.0</ele><time>2026-05-02T15:52:28.031Z</time></trkpt><trkpt lat="42.2912586" lon="13.309473"><ele>965.0</ele><time>2026-05-02T15:52:29.031Z</time></trkpt><trkpt lat="42.291469" lon="13.3094518"><ele>965.0</ele><time>2026-05-02T15:52:30.031Z</time></trkpt><trkpt lat="42.291677" lon="13.3094349"><ele>965.0</ele><time>2026-05-02T15:52:31.031Z</time></trkpt><trkpt lat="42.2918888" lon="13.3094225"><ele>965.0</ele><time>2026-05-02T15:52:32.031Z</time></trkpt><trkpt lat="42.2920925" lon="13.3094147"><ele>965.0</ele><time>2026-05-02T15:52:33.031Z</time></trkpt><trkpt lat="42.2923014" lon="13.3094083"><ele>964.3333333333334</ele><time>2026-05-02T15:52:34.031Z</time></trkpt><trkpt lat="42.2925112" lon="13.3094066"><ele>963.6666666666667</ele><time>2026-05-02T15:52:35.03Z</time></trkpt><trkpt lat="42.2927202" lon="13.309409"><ele>963.0</ele><time>2026-05-02T15:52:36.031Z</time></trkpt><trkpt lat="42.2929278" lon="13.3094105"><ele>961.6666666666667</ele><time>2026-05-02T15:52:37.031Z</time></trkpt><trkpt lat="42.293131" lon="13.3094177"><ele>960.3333333333334</ele><time>2026-05-02T15:52:38.031Z</time></trkpt><trkpt lat="42.2933368" lon="13.3094254"><ele>959.0</ele><time>2026-05-02T15:52:39.031Z</time></trkpt><trkpt lat="42.2935398" lon="13.3094328"><ele>959.0</ele><time>2026-05-02T15:52:40.031Z</time></trkpt><trkpt lat="42.2937438" lon="13.3094355"><ele>959.0</ele><time>2026-05-02T15:52:41.031Z</time></trkpt><trkpt lat="42.2939498" lon="13.3094458"><ele>959.0</ele><time>2026-05-02T15:52:42.031Z</time></trkpt><trkpt lat="42.2941565" lon="13.3094564"><ele>954.6666666666667</ele><time>2026-05-02T15:52:43.031Z</time></trkpt><trkpt lat="42.2943606" lon="13.309457"><ele>950.3333333333333</ele><time>2026-05-02T15:52:44.031Z</time></trkpt><trkpt lat="42.2945663" lon="13.3094581"><ele>946.0</ele><time>2026-05-02T15:52:45.031Z</time></trkpt><trkpt lat="42.294771" lon="13.3094445"><ele>946.0</ele><time>2026-05-02T15:52:46.03Z</time></trkpt><trkpt lat="42.2949783" lon="13.3094303"><ele>946.0</ele><time>2026-05-02T15:52:47.031Z</time></trkpt><trkpt lat="42.2951845" lon="13.3094033"><ele>946.0</ele><time>2026-05-02T15:52:48.031Z</time></trkpt><trkpt lat="42.2953937" lon="13.3093697"><ele>948.3333333333333</ele><time>2026-05-02T15:52:49.03Z</time></trkpt><trkpt lat="42.2956014" lon="13.3093291"><ele>950.6666666666667</ele><time>2026-05-02T15:52:50.031Z</time></trkpt><trkpt lat="42.295813" lon="13.3092724"><ele>953.0</ele><time>2026-05-02T15:52:51.031Z</time></trkpt><trkpt lat="42.2960241" lon="13.3092111"><ele>953.0</ele><time>2026-05-02T15:52:52.031Z</time></trkpt><trkpt lat="42.2962354" lon="13.3091353"><ele>953.0</ele><time>2026-05-02T15:52:53.03Z</time></trkpt><trkpt lat="42.2964502" lon="13.3090508"><ele>953.0</ele><time>2026-05-02T15:52:54.031Z</time></trkpt><trkpt lat="42.2966651" lon="13.308964"><ele>948.3333333333334</ele><time>2026-05-02T15:52:55.031Z</time></trkpt><trkpt lat="42.2968776" lon="13.3088756"><ele>943.6666666666667</ele><time>2026-05-02T15:52:56.031Z</time></trkpt><trkpt lat="42.2970912" lon="13.3087797"><ele>939.0</ele><time>2026-05-02T15:52:57.031Z</time></trkpt><trkpt lat="42.2973032" lon="13.3086927"><ele>939.0</ele><time>2026-05-02T15:52:58.031Z</time></trkpt><trkpt lat="42.2975165" lon="13.3086053"><ele>939.0</ele><time>2026-05-02T15:52:59.031Z</time></trkpt><trkpt lat="42.2977299" lon="13.3085134"><ele>939.0</ele><time>2026-05-02T15:53:00.03Z</time></trkpt><trkpt lat="42.2979433" lon="13.308423"><ele>942.3333333333333</ele><time>2026-05-02T15:53:01.031Z</time></trkpt><trkpt lat="42.2981545" lon="13.3083342"><ele>945.6666666666666</ele><time>2026-05-02T15:53:02.031Z</time></trkpt><trkpt lat="42.298365" lon="13.3082465"><ele>949.0</ele><time>2026-05-02T15:53:03.031Z</time></trkpt><trkpt lat="42.2985744" lon="13.3081578"><ele>942.0</ele><time>2026-05-02T15:53:04.031Z</time></trkpt><trkpt lat="42.2987862" lon="13.3080653"><ele>935.0</ele><time>2026-05-02T15:53:05.031Z</time></trkpt><trkpt lat="42.2989965" lon="13.3079778"><ele>928.0</ele><time>2026-05-02T15:53:06.03Z</time></trkpt><trkpt lat="42.2992092" lon="13.3078861"><ele>928.0</ele><time>2026-05-02T15:53:07.031Z</time></trkpt><trkpt lat="42.2994214" lon="13.3077923"><ele>928.0</ele><time>2026-05-02T15:53:08.031Z</time></trkpt><trkpt lat="42.2996356" lon="13.3077043"><ele>928.0</ele><time>2026-05-02T15:53:09.03Z</time></trkpt><trkpt lat="42.2998489" lon="13.3076155"><ele>929.3333333333333</ele><time>2026-05-02T15:53:10.031Z</time></trkpt><trkpt lat="42.3000631" lon="13.3075247"><ele>930.6666666666667</ele><time>2026-05-02T15:53:11.031Z</time></trkpt><trkpt lat="42.3002741" lon="13.3074309"><ele>932.0</ele><time>2026-05-02T15:53:12.031Z</time></trkpt><trkpt lat="42.3004869" lon="13.3073422"><ele>936.3333333333334</ele><time>2026-05-02T15:53:13.031Z</time></trkpt><trkpt lat="42.300696" lon="13.3072534"><ele>940.6666666666667</ele><time>2026-05-02T15:53:14.031Z</time></trkpt><trkpt lat="42.3009068" lon="13.307166"><ele>945.0</ele><time>2026-05-02T15:53:15.031Z</time></trkpt><trkpt lat="42.301115" lon="13.307078"><ele>934.0</ele><time>2026-05-02T15:53:16.031Z</time></trkpt><trkpt lat="42.3013222" lon="13.3069851"><ele>923.0</ele><time>2026-05-02T15:53:17.031Z</time></trkpt><trkpt lat="42.3015293" lon="13.3068967"><ele>912.0</ele><time>2026-05-02T15:53:18.031Z</time></trkpt><trkpt lat="42.301735" lon="13.3068118"><ele>912.0</ele><time>2026-05-02T15:53:19.031Z</time></trkpt><trkpt lat="42.3019441" lon="13.3067227"><ele>912.0</ele><time>2026-05-02T15:53:20.031Z</time></trkpt><trkpt lat="42.302153" lon="13.3066382"><ele>912.0</ele><time>2026-05-02T15:53:21.031Z</time></trkpt><trkpt lat="42.3023579" lon="13.3065498"><ele>915.3333333333333</ele><time>2026-05-02T15:53:22.031Z</time></trkpt><trkpt lat="42.3025638" lon="13.3064637"><ele>918.6666666666666</ele><time>2026-05-02T15:53:23.031Z</time></trkpt><trkpt lat="42.3027671" lon="13.3063689"><ele>922.0</ele><time>2026-05-02T15:53:24.031Z</time></trkpt><trkpt lat="42.3029734" lon="13.3062816"><ele>913.6666666666666</ele><time>2026-05-02T15:53:25.03Z</time></trkpt><trkpt lat="42.3031778" lon="13.3061989"><ele>905.3333333333333</ele><time>2026-05-02T15:53:26.031Z</time></trkpt><trkpt lat="42.3033808" lon="13.306109"><ele>897.0</ele><time>2026-05-02T15:53:27.031Z</time></trkpt><trkpt lat="42.3035862" lon="13.3060177"><ele>897.0</ele><time>2026-05-02T15:53:28.031Z</time></trkpt><trkpt lat="42.3037915" lon="13.3059232"><ele>897.0</ele><time>2026-05-02T15:53:29.032Z</time></trkpt><trkpt lat="42.3039967" lon="13.3058206"><ele>897.0</ele><time>2026-05-02T15:53:30.031Z</time></trkpt><trkpt lat="42.3042033" lon="13.3057096"><ele>894.3333333333333</ele><time>2026-05-02T15:53:31.032Z</time></trkpt><trkpt lat="42.3044109" lon="13.3055967"><ele>891.6666666666666</ele><time>2026-05-02T15:53:32.031Z</time></trkpt><trkpt lat="42.3046189" lon="13.3054862"><ele>889.0</ele><time>2026-05-02T15:53:33.032Z</time></trkpt><trkpt lat="42.3048269" lon="13.305376"><ele>889.0</ele><time>2026-05-02T15:53:34.031Z</time></trkpt><trkpt lat="42.305035" lon="13.3052691"><ele>889.0</ele><time>2026-05-02T15:53:35.032Z</time></trkpt><trkpt lat="42.3052488" lon="13.305165"><ele>889.0</ele><time>2026-05-02T15:53:36.032Z</time></trkpt><trkpt lat="42.3054614" lon="13.3050689"><ele>889.0</ele><time>2026-05-02T15:53:37.032Z</time></trkpt><trkpt lat="42.3056769" lon="13.3049755"><ele>893.0</ele><time>2026-05-02T15:53:38.032Z</time></trkpt><trkpt lat="42.3058905" lon="13.3048891"><ele>897.0</ele><time>2026-05-02T15:53:39.032Z</time></trkpt><trkpt lat="42.3061082" lon="13.3048179"><ele>901.0</ele><time>2026-05-02T15:53:40.032Z</time></trkpt><trkpt lat="42.3063336" lon="13.3047555"><ele>892.0</ele><time>2026-05-02T15:53:41.032Z</time></trkpt><trkpt lat="42.3065591" lon="13.3047083"><ele>883.0</ele><time>2026-05-02T15:53:42.032Z</time></trkpt><trkpt lat="42.3067832" lon="13.3046688"><ele>883.0</ele><time>2026-05-02T15:53:43.032Z</time></trkpt><trkpt lat="42.3070085" lon="13.3046364"><ele>883.0</ele><time>2026-05-02T15:53:44.032Z</time></trkpt><trkpt lat="42.3072357" lon="13.3046202"><ele>887.0</ele><time>2026-05-02T15:53:45.031Z</time></trkpt><trkpt lat="42.3074628" lon="13.3046121"><ele>891.0</ele><time>2026-05-02T15:53:46.031Z</time></trkpt><trkpt lat="42.3076887" lon="13.304618"><ele>891.0</ele><time>2026-05-02T15:53:47.032Z</time></trkpt><trkpt lat="42.3079142" lon="13.3046369"><ele>891.0</ele><time>2026-05-02T15:53:48.032Z</time></trkpt><trkpt lat="42.3081442" lon="13.3046632"><ele>890.0</ele><time>2026-05-02T15:53:49.032Z</time></trkpt><trkpt lat="42.3083699" lon="13.3047054"><ele>889.0</ele><time>2026-05-02T15:53:50.032Z</time></trkpt><trkpt lat="42.3085991" lon="13.3047609"><ele>888.5</ele><time>2026-05-02T15:53:51.032Z</time></trkpt><trkpt lat="42.3088247" lon="13.3048207"><ele>888.0</ele><time>2026-05-02T15:53:52.032Z</time></trkpt><trkpt lat="42.3090457" lon="13.3048939"><ele>888.0</ele><time>2026-05-02T15:53:53.031Z</time></trkpt><trkpt lat="42.3092685" lon="13.304979"><ele>888.0</ele><time>2026-05-02T15:53:54.031Z</time></trkpt><trkpt lat="42.3094862" lon="13.3050774"><ele>888.0</ele><time>2026-05-02T15:53:55.031Z</time></trkpt><trkpt lat="42.3097019" lon="13.3051883"><ele>888.0</ele><time>2026-05-02T15:53:56.032Z</time></trkpt><trkpt lat="42.3099106" lon="13.3053087"><ele>885.0</ele><time>2026-05-02T15:53:57.031Z</time></trkpt><trkpt lat="42.3101225" lon="13.3054424"><ele>882.0</ele><time>2026-05-02T15:53:58.032Z</time></trkpt><trkpt lat="42.3103275" lon="13.3055816"><ele>881.5</ele><time>2026-05-02T15:53:59.032Z</time></trkpt><trkpt lat="42.3105279" lon="13.3057256"><ele>881.0</ele><time>2026-05-02T15:54:00.032Z</time></trkpt><trkpt lat="42.3107261" lon="13.3058716"><ele>881.0</ele><time>2026-05-02T15:54:01.032Z</time></trkpt><trkpt lat="42.3109153" lon="13.3060272"><ele>881.0</ele><time>2026-05-02T15:54:02.031Z</time></trkpt><trkpt lat="42.3111052" lon="13.3061932"><ele>881.0</ele><time>2026-05-02T15:54:03.031Z</time></trkpt><trkpt lat="42.3112924" lon="13.3063538"><ele>882.0</ele><time>2026-05-02T15:54:04.032Z</time></trkpt><trkpt lat="42.311483" lon="13.3065192"><ele>883.0</ele><time>2026-05-02T15:54:05.032Z</time></trkpt><trkpt lat="42.3116722" lon="13.306692"><ele>883.0</ele><time>2026-05-02T15:54:06.032Z</time></trkpt><trkpt lat="42.3118621" lon="13.3068664"><ele>883.0</ele><time>2026-05-02T15:54:07.032Z</time></trkpt><trkpt lat="42.3120469" lon="13.3070407"><ele>883.0</ele><time>2026-05-02T15:54:08.031Z</time></trkpt><trkpt lat="42.3122333" lon="13.3072178"><ele>883.0</ele><time>2026-05-02T15:54:09.032Z</time></trkpt><trkpt lat="42.312419" lon="13.3073891"><ele>881.5</ele><time>2026-05-02T15:54:10.032Z</time></trkpt><trkpt lat="42.3126069" lon="13.3075668"><ele>880.0</ele><time>2026-05-02T15:54:11.032Z</time></trkpt><trkpt lat="42.3127961" lon="13.307743"><ele>880.0</ele><time>2026-05-02T15:54:12.031Z</time></trkpt><trkpt lat="42.3129835" lon="13.3079193"><ele>880.0</ele><time>2026-05-02T15:54:13.032Z</time></trkpt><trkpt lat="42.3131724" lon="13.3080954"><ele>874.0</ele><time>2026-05-02T15:54:14.032Z</time></trkpt><trkpt lat="42.3133599" lon="13.3082724"><ele>868.0</ele><time>2026-05-02T15:54:15.032Z</time></trkpt><trkpt lat="42.3135463" lon="13.3084454"><ele>868.0</ele><time>2026-05-02T15:54:16.031Z</time></trkpt><trkpt lat="42.3137332" lon="13.3086235"><ele>868.0</ele><time>2026-05-02T15:54:17.032Z</time></trkpt><trkpt lat="42.3139206" lon="13.308798"><ele>862.3333333333333</ele><time>2026-05-02T15:54:18.032Z</time></trkpt><trkpt lat="42.3141018" lon="13.3089724"><ele>856.6666666666667</ele><time>2026-05-02T15:54:19.032Z</time></trkpt><trkpt lat="42.3142862" lon="13.3091478"><ele>851.0</ele><time>2026-05-02T15:54:20.032Z</time></trkpt><trkpt lat="42.3144764" lon="13.3093166"><ele>851.0</ele><time>2026-05-02T15:54:21.031Z</time></trkpt><trkpt lat="42.3146642" lon="13.3094845"><ele>851.0</ele><time>2026-05-02T15:54:22.031Z</time></trkpt><trkpt lat="42.3148508" lon="13.309651"><ele>851.0</ele><time>2026-05-02T15:54:23.032Z</time></trkpt><trkpt lat="42.3150355" lon="13.3098243"><ele>847.5</ele><time>2026-05-02T15:54:24.032Z</time></trkpt><trkpt lat="42.3152181" lon="13.3100026"><ele>844.0</ele><time>2026-05-02T15:54:25.032Z</time></trkpt><trkpt lat="42.3154068" lon="13.3101809"><ele>839.6666666666666</ele><time>2026-05-02T15:54:26.032Z</time></trkpt><trkpt lat="42.3155898" lon="13.3103579"><ele>835.3333333333333</ele><time>2026-05-02T15:54:27.032Z</time></trkpt><trkpt lat="42.3157724" lon="13.3105305"><ele>831.0</ele><time>2026-05-02T15:54:28.032Z</time></trkpt><trkpt lat="42.3159592" lon="13.3107093"><ele>831.0</ele><time>2026-05-02T15:54:29.031Z</time></trkpt><trkpt lat="42.3161479" lon="13.31088"><ele>831.0</ele><time>2026-05-02T15:54:30.032Z</time></trkpt><trkpt lat="42.3163351" lon="13.3110527"><ele>830.0</ele><time>2026-05-02T15:54:31.032Z</time></trkpt><trkpt lat="42.3165186" lon="13.3112314"><ele>829.0</ele><time>2026-05-02T15:54:32.031Z</time></trkpt><trkpt lat="42.3167051" lon="13.3114076"><ele>834.0</ele><time>2026-05-02T15:54:33.032Z</time></trkpt><trkpt lat="42.3168891" lon="13.311583"><ele>839.0</ele><time>2026-05-02T15:54:34.032Z</time></trkpt><trkpt lat="42.3170737" lon="13.3117565"><ele>841.3333333333334</ele><time>2026-05-02T15:54:35.032Z</time></trkpt><trkpt lat="42.317256" lon="13.3119302"><ele>843.6666666666667</ele><time>2026-05-02T15:54:36.031Z</time></trkpt><trkpt lat="42.3174392" lon="13.3121017"><ele>846.0</ele><time>2026-05-02T15:54:37.032Z</time></trkpt><trkpt lat="42.3176229" lon="13.3122754"><ele>847.6666666666667</ele><time>2026-05-02T15:54:38.031Z</time></trkpt><trkpt lat="42.3178039" lon="13.3124457"><ele>849.3333333333334</ele><time>2026-05-02T15:54:39.032Z</time></trkpt><trkpt lat="42.3179888" lon="13.3126148"><ele>851.0</ele><time>2026-05-02T15:54:40.032Z</time></trkpt><trkpt lat="42.3181744" lon="13.312794"><ele>851.0</ele><time>2026-05-02T15:54:41.031Z</time></trkpt><trkpt lat="42.318358" lon="13.3129701"><ele>851.0</ele><time>2026-05-02T15:54:42.032Z</time></trkpt><trkpt lat="42.3185402" lon="13.3131422"><ele>851.0</ele><time>2026-05-02T15:54:43.032Z</time></trkpt><trkpt lat="42.3187184" lon="13.3133223"><ele>848.5</ele><time>2026-05-02T15:54:44.032Z</time></trkpt><trkpt lat="42.3189026" lon="13.3134995"><ele>846.0</ele><time>2026-05-02T15:54:45.031Z</time></trkpt><trkpt lat="42.3190879" lon="13.3136752"><ele>846.0</ele><time>2026-05-02T15:54:46.032Z</time></trkpt><trkpt lat="42.3192733" lon="13.3138489"><ele>846.0</ele><time>2026-05-02T15:54:47.032Z</time></trkpt><trkpt lat="42.3194535" lon="13.3140154"><ele>846.0</ele><time>2026-05-02T15:54:48.032Z</time></trkpt><trkpt lat="42.3196178" lon="13.3141729"><ele>844.3333333333333</ele><time>2026-05-02T15:54:49.032Z</time></trkpt><trkpt lat="42.3197639" lon="13.3143124"><ele>842.6666666666666</ele><time>2026-05-02T15:54:50.032Z</time></trkpt><trkpt lat="42.3199073" lon="13.3144409"><ele>841.0</ele><time>2026-05-02T15:54:51.032Z</time></trkpt><trkpt lat="42.3200468" lon="13.3145668"><ele>841.0</ele><time>2026-05-02T15:54:52.032Z</time></trkpt><trkpt lat="42.3201736" lon="13.3146793"><ele>841.0</ele><time>2026-05-02T15:54:53.031Z</time></trkpt><trkpt lat="42.3202961" lon="13.3147865"><ele>841.0</ele><time>2026-05-02T15:54:54.032Z</time></trkpt><trkpt lat="42.3204183" lon="13.3148923"><ele>841.0</ele><time>2026-05-02T15:54:55.032Z</time></trkpt><trkpt lat="42.3205378" lon="13.3149932"><ele>838.5</ele><time>2026-05-02T15:54:56.032Z</time></trkpt><trkpt lat="42.3206547" lon="13.3150934"><ele>836.0</ele><time>2026-05-02T15:54:57.032Z</time></trkpt><trkpt lat="42.3207679" lon="13.3151918"><ele>833.5</ele><time>2026-05-02T15:54:58.032Z</time></trkpt><trkpt lat="42.3208783" lon="13.3152794"><ele>831.0</ele><time>2026-05-02T15:54:59.031Z</time></trkpt><trkpt lat="42.3209901" lon="13.3153589"><ele>831.0</ele><time>2026-05-02T15:55:00.032Z</time></trkpt><trkpt lat="42.3210959" lon="13.3154294"><ele>831.0</ele><time>2026-05-02T15:55:01.032Z</time></trkpt><trkpt lat="42.3212025" lon="13.3155101"><ele>831.0</ele><time>2026-05-02T15:55:02.032Z</time></trkpt><trkpt lat="42.3213155" lon="13.3155951"><ele>831.0</ele><time>2026-05-02T15:55:03.032Z</time></trkpt><trkpt lat="42.3214431" lon="13.3156825"><ele>828.6666666666667</ele><time>2026-05-02T15:55:04.032Z</time></trkpt><trkpt lat="42.3215792" lon="13.3157713"><ele>826.3333333333334</ele><time>2026-05-02T15:55:05.032Z</time></trkpt><trkpt lat="42.3217187" lon="13.3158578"><ele>824.0</ele><time>2026-05-02T15:55:06.032Z</time></trkpt><trkpt lat="42.3218652" lon="13.3159468"><ele>824.0</ele><time>2026-05-02T15:55:07.032Z</time></trkpt><trkpt lat="42.3220137" lon="13.316025"><ele>824.0</ele><time>2026-05-02T15:55:08.032Z</time></trkpt><trkpt lat="42.3221671" lon="13.3161042"><ele>824.0</ele><time>2026-05-02T15:55:09.032Z</time></trkpt><trkpt lat="42.3223266" lon="13.3161844"><ele>822.3333333333334</ele><time>2026-05-02T15:55:10.032Z</time></trkpt><trkpt lat="42.3224889" lon="13.3162608"><ele>820.6666666666667</ele><time>2026-05-02T15:55:11.032Z</time></trkpt><trkpt lat="42.322651" lon="13.316337"><ele>819.0</ele><time>2026-05-02T15:55:12.032Z</time></trkpt><trkpt lat="42.3228252" lon="13.3164068"><ele>819.0</ele><time>2026-05-02T15:55:13.032Z</time></trkpt><trkpt lat="42.323008" lon="13.3164775"><ele>819.0</ele><time>2026-05-02T15:55:14.032Z</time></trkpt><trkpt lat="42.3231899" lon="13.3165451"><ele>819.0</ele><time>2026-05-02T15:55:15.032Z</time></trkpt><trkpt lat="42.3233775" lon="13.3166069"><ele>817.6666666666667</ele><time>2026-05-02T15:55:16.031Z</time></trkpt><trkpt lat="42.323566" lon="13.3166664"><ele>816.3333333333334</ele><time>2026-05-02T15:55:17.032Z</time></trkpt><trkpt lat="42.3237641" lon="13.316715"><ele>815.0</ele><time>2026-05-02T15:55:18.032Z</time></trkpt><trkpt lat="42.3239613" lon="13.3167539"><ele>813.3333333333334</ele><time>2026-05-02T15:55:19.031Z</time></trkpt><trkpt lat="42.324164" lon="13.3167995"><ele>811.6666666666667</ele><time>2026-05-02T15:55:20.032Z</time></trkpt><trkpt lat="42.3243688" lon="13.3168352"><ele>810.0</ele><time>2026-05-02T15:55:21.032Z</time></trkpt><trkpt lat="42.3245742" lon="13.3168664"><ele>809.0</ele><time>2026-05-02T15:55:22.032Z</time></trkpt><trkpt lat="42.3247818" lon="13.3168881"><ele>808.0</ele><time>2026-05-02T15:55:23.032Z</time></trkpt><trkpt lat="42.3249907" lon="13.316909"><ele>807.0</ele><time>2026-05-02T15:55:24.032Z</time></trkpt><trkpt lat="42.3251964" lon="13.3169198"><ele>807.0</ele><time>2026-05-02T15:55:25.032Z</time></trkpt><trkpt lat="42.3254018" lon="13.3169291"><ele>807.0</ele><time>2026-05-02T15:55:26.032Z</time></trkpt><trkpt lat="42.325611" lon="13.3169396"><ele>807.0</ele><time>2026-05-02T15:55:27.032Z</time></trkpt><trkpt lat="42.3258228" lon="13.3169453"><ele>807.0</ele><time>2026-05-02T15:55:28.032Z</time></trkpt><trkpt lat="42.3260318" lon="13.3169435"><ele>807.0</ele><time>2026-05-02T15:55:29.032Z</time></trkpt><trkpt lat="42.3262423" lon="13.316943"><ele>807.0</ele><time>2026-05-02T15:55:30.032Z</time></trkpt><trkpt lat="42.326452" lon="13.3169347"><ele>807.0</ele><time>2026-05-02T15:55:31.032Z</time></trkpt><trkpt lat="42.3266619" lon="13.3169277"><ele>807.0</ele><time>2026-05-02T15:55:32.032Z</time></trkpt><trkpt lat="42.3268718" lon="13.316923"><ele>807.0</ele><time>2026-05-02T15:55:33.032Z</time></trkpt><trkpt lat="42.3270836" lon="13.3169141"><ele>805.3333333333333</ele><time>2026-05-02T15:55:34.032Z</time></trkpt><trkpt lat="42.3272929" lon="13.3169039"><ele>803.6666666666666</ele><time>2026-05-02T15:55:35.031Z</time></trkpt><trkpt lat="42.3275024" lon="13.3168984"><ele>802.0</ele><time>2026-05-02T15:55:36.031Z</time></trkpt><trkpt lat="42.3277144" lon="13.3168925"><ele>802.0</ele><time>2026-05-02T15:55:37.031Z</time></trkpt><trkpt lat="42.3279256" lon="13.3168834"><ele>802.0</ele><time>2026-05-02T15:55:38.032Z</time></trkpt><trkpt lat="42.3281392" lon="13.3168801"><ele>802.0</ele><time>2026-05-02T15:55:39.032Z</time></trkpt><trkpt lat="42.3283569" lon="13.3168734"><ele>799.3333333333333</ele><time>2026-05-02T15:55:40.032Z</time></trkpt><trkpt lat="42.3285749" lon="13.3168726"><ele>796.6666666666667</ele><time>2026-05-02T15:55:41.032Z</time></trkpt><trkpt lat="42.3287947" lon="13.3168691"><ele>794.0</ele><time>2026-05-02T15:55:42.032Z</time></trkpt><trkpt lat="42.3290109" lon="13.3168642"><ele>793.0</ele><time>2026-05-02T15:55:43.032Z</time></trkpt><trkpt lat="42.3292345" lon="13.3168552"><ele>792.0</ele><time>2026-05-02T15:55:44.032Z</time></trkpt><trkpt lat="42.3294582" lon="13.3168478"><ele>791.0</ele><time>2026-05-02T15:55:45.031Z</time></trkpt><trkpt lat="42.3296834" lon="13.3168434"><ele>789.0</ele><time>2026-05-02T15:55:46.031Z</time></trkpt><trkpt lat="42.3299079" lon="13.3168394"><ele>787.0</ele><time>2026-05-02T15:55:47.032Z</time></trkpt><trkpt lat="42.3301358" lon="13.3168302"><ele>787.0</ele><time>2026-05-02T15:55:48.032Z</time></trkpt><trkpt lat="42.330363" lon="13.3168255"><ele>787.0</ele><time>2026-05-02T15:55:49.032Z</time></trkpt><trkpt lat="42.3305934" lon="13.3168228"><ele>786.5</ele><time>2026-05-02T15:55:50.032Z</time></trkpt><trkpt lat="42.3308198" lon="13.316818"><ele>786.0</ele><time>2026-05-02T15:55:51.031Z</time></trkpt><trkpt lat="42.3310457" lon="13.3168099"><ele>786.0</ele><time>2026-05-02T15:55:52.032Z</time></trkpt><trkpt lat="42.3312665" lon="13.3168061"><ele>786.0</ele><time>2026-05-02T15:55:53.032Z</time></trkpt><trkpt lat="42.3314861" lon="13.3167989"><ele>786.0</ele><time>2026-05-02T15:55:54.032Z</time></trkpt><trkpt lat="42.3317071" lon="13.3167971"><ele>784.3333333333333</ele><time>2026-05-02T15:55:55.032Z</time></trkpt><trkpt lat="42.3319223" lon="13.316793"><ele>782.6666666666666</ele><time>2026-05-02T15:55:56.032Z</time></trkpt><trkpt lat="42.3321351" lon="13.3167886"><ele>781.0</ele><time>2026-05-02T15:55:57.032Z</time></trkpt><trkpt lat="42.3323556" lon="13.3167821"><ele>779.3333333333333</ele><time>2026-05-02T15:55:58.032Z</time></trkpt><trkpt lat="42.3325747" lon="13.3167809"><ele>777.6666666666667</ele><time>2026-05-02T15:55:59.032Z</time></trkpt><trkpt lat="42.3327938" lon="13.3167815"><ele>776.0</ele><time>2026-05-02T15:56:00.032Z</time></trkpt><trkpt lat="42.3330108" lon="13.3167743"><ele>775.6666666666667</ele><time>2026-05-02T15:56:01.032Z</time></trkpt><trkpt lat="42.3332281" lon="13.3167713"><ele>775.3333333333333</ele><time>2026-05-02T15:56:02.032Z</time></trkpt><trkpt lat="42.3334504" lon="13.3167661"><ele>775.0</ele><time>2026-05-02T15:56:03.031Z</time></trkpt><trkpt lat="42.3336722" lon="13.3167584"><ele>773.0</ele><time>2026-05-02T15:56:04.031Z</time></trkpt><trkpt lat="42.3338899" lon="13.3167531"><ele>771.0</ele><time>2026-05-02T15:56:05.032Z</time></trkpt><trkpt lat="42.3341086" lon="13.3167467"><ele>769.0</ele><time>2026-05-02T15:56:06.032Z</time></trkpt><trkpt lat="42.3343293" lon="13.3167415"><ele>769.0</ele><time>2026-05-02T15:56:07.032Z</time></trkpt><trkpt lat="42.3345516" lon="13.3167324"><ele>769.0</ele><time>2026-05-02T15:56:08.032Z</time></trkpt><trkpt lat="42.3347718" lon="13.3167247"><ele>769.0</ele><time>2026-05-02T15:56:09.032Z</time></trkpt><trkpt lat="42.3349926" lon="13.3167167"><ele>769.0</ele><time>2026-05-02T15:56:10.032Z</time></trkpt><trkpt lat="42.3352125" lon="13.3167108"><ele>769.0</ele><time>2026-05-02T15:56:11.032Z</time></trkpt><trkpt lat="42.3354325" lon="13.3167028"><ele>769.0</ele><time>2026-05-02T15:56:12.032Z</time></trkpt><trkpt lat="42.3356483" lon="13.3167"><ele>768.3333333333333</ele><time>2026-05-02T15:56:13.032Z</time></trkpt><trkpt lat="42.3358652" lon="13.3166975"><ele>767.6666666666666</ele><time>2026-05-02T15:56:14.032Z</time></trkpt><trkpt lat="42.3360821" lon="13.3166932"><ele>767.0</ele><time>2026-05-02T15:56:15.031Z</time></trkpt><trkpt lat="42.3362975" lon="13.3166915"><ele>765.0</ele><time>2026-05-02T15:56:16.032Z</time></trkpt><trkpt lat="42.3365082" lon="13.3166814"><ele>763.0</ele><time>2026-05-02T15:56:17.032Z</time></trkpt><trkpt lat="42.3367214" lon="13.316671"><ele>761.0</ele><time>2026-05-02T15:56:18.031Z</time></trkpt><trkpt lat="42.3369339" lon="13.3166607"><ele>761.0</ele><time>2026-05-02T15:56:19.032Z</time></trkpt><trkpt lat="42.3371481" lon="13.3166595"><ele>761.0</ele><time>2026-05-02T15:56:20.032Z</time></trkpt><trkpt lat="42.3373625" lon="13.3166579"><ele>761.0</ele><time>2026-05-02T15:56:21.031Z</time></trkpt><trkpt lat="42.3375764" lon="13.3166539"><ele>759.3333333333333</ele><time>2026-05-02T15:56:22.032Z</time></trkpt><trkpt lat="42.3377913" lon="13.3166498"><ele>757.6666666666666</ele><time>2026-05-02T15:56:23.032Z</time></trkpt><trkpt lat="42.3380044" lon="13.3166458"><ele>756.0</ele><time>2026-05-02T15:56:24.032Z</time></trkpt><trkpt lat="42.3382219" lon="13.3166418"><ele>755.0</ele><time>2026-05-02T15:56:25.032Z</time></trkpt><trkpt lat="42.3384419" lon="13.3166319"><ele>754.0</ele><time>2026-05-02T15:56:26.032Z</time></trkpt><trkpt lat="42.3386582" lon="13.316627"><ele>753.0</ele><time>2026-05-02T15:56:27.032Z</time></trkpt><trkpt lat="42.3388741" lon="13.316631"><ele>752.0</ele><time>2026-05-02T15:56:28.032Z</time></trkpt><trkpt lat="42.3390897" lon="13.31664"><ele>751.0</ele><time>2026-05-02T15:56:29.031Z</time></trkpt><trkpt lat="42.3392982" lon="13.3166496"><ele>750.0</ele><time>2026-05-02T15:56:30.032Z</time></trkpt><trkpt lat="42.3395092" lon="13.3166569"><ele>749.0</ele><time>2026-05-02T15:56:31.032Z</time></trkpt><trkpt lat="42.3397215" lon="13.3166628"><ele>748.0</ele><time>2026-05-02T15:56:32.032Z</time></trkpt><trkpt lat="42.3399287" lon="13.3166753"><ele>747.0</ele><time>2026-05-02T15:56:33.032Z</time></trkpt><trkpt lat="42.3401336" lon="13.3166907"><ele>747.0</ele><time>2026-05-02T15:56:34.032Z</time></trkpt><trkpt lat="42.3403408" lon="13.3167177"><ele>747.0</ele><time>2026-05-02T15:56:35.032Z</time></trkpt><trkpt lat="42.3405493" lon="13.3167542"><ele>747.0</ele><time>2026-05-02T15:56:36.032Z</time></trkpt><trkpt lat="42.3407594" lon="13.3167911"><ele>746.3333333333334</ele><time>2026-05-02T15:56:37.032Z</time></trkpt><trkpt lat="42.3409666" lon="13.3168314"><ele>745.6666666666667</ele><time>2026-05-02T15:56:38.032Z</time></trkpt><trkpt lat="42.3411742" lon="13.3168925"><ele>745.0</ele><time>2026-05-02T15:56:39.032Z</time></trkpt><trkpt lat="42.3413809" lon="13.3169584"><ele>743.3333333333334</ele><time>2026-05-02T15:56:40.032Z</time></trkpt><trkpt lat="42.3415853" lon="13.3170287"><ele>741.6666666666666</ele><time>2026-05-02T15:56:41.032Z</time></trkpt><trkpt lat="42.3417927" lon="13.3171081"><ele>740.0</ele><time>2026-05-02T15:56:42.032Z</time></trkpt><trkpt lat="42.3420005" lon="13.3171918"><ele>736.6666666666666</ele><time>2026-05-02T15:56:43.032Z</time></trkpt><trkpt lat="42.3422005" lon="13.3172864"><ele>733.3333333333334</ele><time>2026-05-02T15:56:44.032Z</time></trkpt><trkpt lat="42.3424004" lon="13.3173833"><ele>730.0</ele><time>2026-05-02T15:56:45.032Z</time></trkpt><trkpt lat="42.3425947" lon="13.3174908"><ele>730.0</ele><time>2026-05-02T15:56:46.032Z</time></trkpt><trkpt lat="42.3427932" lon="13.3176056"><ele>730.0</ele><time>2026-05-02T15:56:47.032Z</time></trkpt><trkpt lat="42.3429836" lon="13.3177261"><ele>730.0</ele><time>2026-05-02T15:56:48.031Z</time></trkpt><trkpt lat="42.3431711" lon="13.3178535"><ele>730.0</ele><time>2026-05-02T15:56:49.032Z</time></trkpt><trkpt lat="42.3433541" lon="13.3179846"><ele>730.0</ele><time>2026-05-02T15:56:50.032Z</time></trkpt><trkpt lat="42.3435339" lon="13.3181246"><ele>730.0</ele><time>2026-05-02T15:56:51.032Z</time></trkpt><trkpt lat="42.343711" lon="13.3182622"><ele>729.3333333333334</ele><time>2026-05-02T15:56:52.032Z</time></trkpt><trkpt lat="42.3438861" lon="13.31841"><ele>728.6666666666666</ele><time>2026-05-02T15:56:53.032Z</time></trkpt><trkpt lat="42.3440551" lon="13.3185679"><ele>728.0</ele><time>2026-05-02T15:56:54.032Z</time></trkpt><trkpt lat="42.3442232" lon="13.3187317"><ele>728.0</ele><time>2026-05-02T15:56:55.031Z</time></trkpt><trkpt lat="42.3443862" lon="13.3188944"><ele>728.0</ele><time>2026-05-02T15:56:56.031Z</time></trkpt><trkpt lat="42.3445423" lon="13.3190581"><ele>728.0</ele><time>2026-05-02T15:56:57.032Z</time></trkpt><trkpt lat="42.3446931" lon="13.3192263"><ele>727.6666666666666</ele><time>2026-05-02T15:56:58.032Z</time></trkpt><trkpt lat="42.3448447" lon="13.3193949"><ele>727.3333333333334</ele><time>2026-05-02T15:56:59.032Z</time></trkpt><trkpt lat="42.344995" lon="13.3195676"><ele>727.0</ele><time>2026-05-02T15:57:00.032Z</time></trkpt><trkpt lat="42.3451429" lon="13.3197423"><ele>727.0</ele><time>2026-05-02T15:57:01.032Z</time></trkpt><trkpt lat="42.3452814" lon="13.3199257"><ele>727.0</ele><time>2026-05-02T15:57:02.032Z</time></trkpt><trkpt lat="42.3494593" lon="13.3273757"><ele>724.3333333333334</ele><time>2026-05-02T15:57:36.032Z</time></trkpt><trkpt lat="42.3495065" lon="13.3275478"><ele>721.6666666666666</ele><time>2026-05-02T15:57:37.032Z</time></trkpt><trkpt lat="42.3495739" lon="13.3278338"><ele>719.0</ele><time>2026-05-02T15:57:38.032Z</time></trkpt><trkpt lat="42.3496455" lon="13.3280797"><ele>717.0</ele><time>2026-05-02T15:57:39.032Z</time></trkpt><trkpt lat="42.3497057" lon="13.3283401"><ele>715.0</ele><time>2026-05-02T15:57:40.031Z</time></trkpt><trkpt lat="42.3497643" lon="13.3286041"><ele>713.0</ele><time>2026-05-02T15:57:41.032Z</time></trkpt><trkpt lat="42.3498148" lon="13.3288709"><ele>707.3333333333333</ele><time>2026-05-02T15:57:42.031Z</time></trkpt><trkpt lat="42.3498548" lon="13.3291369"><ele>701.6666666666666</ele><time>2026-05-02T15:57:43.032Z</time></trkpt><trkpt lat="42.3498935" lon="13.3294009"><ele>696.0</ele><time>2026-05-02T15:57:44.031Z</time></trkpt><trkpt lat="42.3499275" lon="13.3296658"><ele>696.3333333333334</ele><time>2026-05-02T15:57:45.032Z</time></trkpt><trkpt lat="42.3499526" lon="13.3299277"><ele>696.6666666666667</ele><time>2026-05-02T15:57:46.032Z</time></trkpt><trkpt lat="42.3499775" lon="13.3301859"><ele>697.0</ele><time>2026-05-02T15:57:47.031Z</time></trkpt><trkpt lat="42.3500039" lon="13.3304501"><ele>697.3333333333334</ele><time>2026-05-02T15:57:48.032Z</time></trkpt><trkpt lat="42.3500196" lon="13.3307162"><ele>697.6666666666666</ele><time>2026-05-02T15:57:49.032Z</time></trkpt><trkpt lat="42.350033" lon="13.3309808"><ele>698.0</ele><time>2026-05-02T15:57:50.032Z</time></trkpt><trkpt lat="42.35004" lon="13.3312469"><ele>699.0</ele><time>2026-05-02T15:57:51.032Z</time></trkpt><trkpt lat="42.350044" lon="13.3315118"><ele>700.0</ele><time>2026-05-02T15:57:52.031Z</time></trkpt><trkpt lat="42.3500394" lon="13.3317815"><ele>701.0</ele><time>2026-05-02T15:57:53.031Z</time></trkpt><trkpt lat="42.3500308" lon="13.3320514"><ele>699.6666666666666</ele><time>2026-05-02T15:57:54.032Z</time></trkpt><trkpt lat="42.3500228" lon="13.3323191"><ele>698.3333333333334</ele><time>2026-05-02T15:57:55.032Z</time></trkpt><trkpt lat="42.3500141" lon="13.3325897"><ele>697.0</ele><time>2026-05-02T15:57:56.032Z</time></trkpt><trkpt lat="42.3500004" lon="13.3328579"><ele>694.3333333333334</ele><time>2026-05-02T15:57:57.032Z</time></trkpt><trkpt lat="42.349979" lon="13.333126"><ele>691.6666666666666</ele><time>2026-05-02T15:57:58.032Z</time></trkpt><trkpt lat="42.349956" lon="13.3333971"><ele>689.0</ele><time>2026-05-02T15:57:59.032Z</time></trkpt><trkpt lat="42.3499383" lon="13.3336697"><ele>686.3333333333333</ele><time>2026-05-02T15:58:00.032Z</time></trkpt><trkpt lat="42.3499177" lon="13.3339409"><ele>683.6666666666666</ele><time>2026-05-02T15:58:01.032Z</time></trkpt><trkpt lat="42.3498922" lon="13.3342119"><ele>681.0</ele><time>2026-05-02T15:58:02.032Z</time></trkpt><trkpt lat="42.3498632" lon="13.33449"><ele>679.0</ele><time>2026-05-02T15:58:03.032Z</time></trkpt><trkpt lat="42.3498371" lon="13.3347698"><ele>677.0</ele><time>2026-05-02T15:58:04.032Z</time></trkpt><trkpt lat="42.3498132" lon="13.3350482"><ele>675.0</ele><time>2026-05-02T15:58:05.032Z</time></trkpt><trkpt lat="42.3497867" lon="13.3353267"><ele>673.6666666666666</ele><time>2026-05-02T15:58:06.032Z</time></trkpt><trkpt lat="42.3497569" lon="13.3356032"><ele>672.3333333333333</ele><time>2026-05-02T15:58:07.032Z</time></trkpt><trkpt lat="42.3497293" lon="13.3358843"><ele>671.0</ele><time>2026-05-02T15:58:08.031Z</time></trkpt><trkpt lat="42.3497039" lon="13.3361609"><ele>679.3333333333333</ele><time>2026-05-02T15:58:09.032Z</time></trkpt><trkpt lat="42.3496819" lon="13.3364418"><ele>687.6666666666666</ele><time>2026-05-02T15:58:10.032Z</time></trkpt><trkpt lat="42.3496603" lon="13.3367204"><ele>696.0</ele><time>2026-05-02T15:58:11.032Z</time></trkpt><trkpt lat="42.3496363" lon="13.3369961"><ele>693.3333333333334</ele><time>2026-05-02T15:58:12.032Z</time></trkpt><trkpt lat="42.3496089" lon="13.3372798"><ele>690.6666666666667</ele><time>2026-05-02T15:58:13.032Z</time></trkpt><trkpt lat="42.3495811" lon="13.3375607"><ele>688.0</ele><time>2026-05-02T15:58:14.032Z</time></trkpt><trkpt lat="42.3495563" lon="13.3378338"><ele>686.0</ele><time>2026-05-02T15:58:15.032Z</time></trkpt><trkpt lat="42.3495356" lon="13.3381068"><ele>684.0</ele><time>2026-05-02T15:58:16.032Z</time></trkpt><trkpt lat="42.3495084" lon="13.3383828"><ele>682.0</ele><time>2026-05-02T15:58:17.032Z</time></trkpt><trkpt lat="42.3494829" lon="13.338661"><ele>680.3333333333334</ele><time>2026-05-02T15:58:18.032Z</time></trkpt><trkpt lat="42.3494587" lon="13.338936"><ele>678.6666666666666</ele><time>2026-05-02T15:58:19.031Z</time></trkpt><trkpt lat="42.3494308" lon="13.3392065"><ele>677.0</ele><time>2026-05-02T15:58:20.032Z</time></trkpt><trkpt lat="42.3494063" lon="13.3394826"><ele>676.3333333333333</ele><time>2026-05-02T15:58:21.032Z</time></trkpt><trkpt lat="42.3493812" lon="13.3397556"><ele>675.6666666666666</ele><time>2026-05-02T15:58:22.032Z</time></trkpt><trkpt lat="42.3493527" lon="13.3400379"><ele>675.0</ele><time>2026-05-02T15:58:23.032Z</time></trkpt><trkpt lat="42.349326" lon="13.3403149"><ele>673.3333333333334</ele><time>2026-05-02T15:58:24.032Z</time></trkpt><trkpt lat="42.3493009" lon="13.3405991"><ele>671.6666666666667</ele><time>2026-05-02T15:58:25.032Z</time></trkpt><trkpt lat="42.3492755" lon="13.3408779"><ele>670.0</ele><time>2026-05-02T15:58:26.032Z</time></trkpt><trkpt lat="42.3492468" lon="13.3411539"><ele>668.6666666666667</ele><time>2026-05-02T15:58:27.032Z</time></trkpt><trkpt lat="42.349222" lon="13.3414298"><ele>667.3333333333334</ele><time>2026-05-02T15:58:28.032Z</time></trkpt><trkpt lat="42.3491952" lon="13.341713"><ele>666.0</ele><time>2026-05-02T15:58:29.032Z</time></trkpt><trkpt lat="42.3491696" lon="13.3419975"><ele>664.3333333333334</ele><time>2026-05-02T15:58:30.031Z</time></trkpt><trkpt lat="42.3491479" lon="13.3422768"><ele>662.6666666666667</ele><time>2026-05-02T15:58:31.031Z</time></trkpt><trkpt lat="42.3491245" lon="13.3425546"><ele>661.0</ele><time>2026-05-02T15:58:32.032Z</time></trkpt><trkpt lat="42.3491023" lon="13.3428309"><ele>658.6666666666667</ele><time>2026-05-02T15:58:33.032Z</time></trkpt><trkpt lat="42.3490776" lon="13.3431084"><ele>656.3333333333334</ele><time>2026-05-02T15:58:34.032Z</time></trkpt><trkpt lat="42.3490464" lon="13.343384"><ele>654.0</ele><time>2026-05-02T15:58:35.031Z</time></trkpt><trkpt lat="42.3490172" lon="13.343658"><ele>652.0</ele><time>2026-05-02T15:58:36.031Z</time></trkpt><trkpt lat="42.3489861" lon="13.3439348"><ele>650.0</ele><time>2026-05-02T15:58:37.031Z</time></trkpt><trkpt lat="42.3489547" lon="13.3442105"><ele>648.0</ele><time>2026-05-02T15:58:38.032Z</time></trkpt><trkpt lat="42.3489152" lon="13.3444773"><ele>655.0</ele><time>2026-05-02T15:58:39.032Z</time></trkpt><trkpt lat="42.3488697" lon="13.3447446"><ele>662.0</ele><time>2026-05-02T15:58:40.032Z</time></trkpt><trkpt lat="42.3488169" lon="13.34501"><ele>669.0</ele><time>2026-05-02T15:58:41.031Z</time></trkpt><trkpt lat="42.3487621" lon="13.3452783"><ele>669.0</ele><time>2026-05-02T15:58:42.031Z</time></trkpt><trkpt lat="42.3487025" lon="13.3455452"><ele>669.0</ele><time>2026-05-02T15:58:43.032Z</time></trkpt><trkpt lat="42.3486309" lon="13.3458067"><ele>669.0</ele><time>2026-05-02T15:58:44.032Z</time></trkpt><trkpt lat="42.3485559" lon="13.346065"><ele>667.3333333333334</ele><time>2026-05-02T15:58:45.031Z</time></trkpt><trkpt lat="42.348472" lon="13.3463138"><ele>665.6666666666667</ele><time>2026-05-02T15:58:46.032Z</time></trkpt><trkpt lat="42.3483857" lon="13.3465573"><ele>664.0</ele><time>2026-05-02T15:58:47.032Z</time></trkpt><trkpt lat="42.3482974" lon="13.3468006"><ele>666.6666666666667</ele><time>2026-05-02T15:58:48.032Z</time></trkpt><trkpt lat="42.3482035" lon="13.3470352"><ele>669.3333333333334</ele><time>2026-05-02T15:58:49.032Z</time></trkpt><trkpt lat="42.3481121" lon="13.3472658"><ele>672.0</ele><time>2026-05-02T15:58:50.032Z</time></trkpt><trkpt lat="42.3480199" lon="13.3474916"><ele>672.0</ele><time>2026-05-02T15:58:51.032Z</time></trkpt><trkpt lat="42.347926" lon="13.3477194"><ele>672.0</ele><time>2026-05-02T15:58:52.032Z</time></trkpt><trkpt lat="42.3478275" lon="13.347949"><ele>672.0</ele><time>2026-05-02T15:58:53.032Z</time></trkpt><trkpt lat="42.3477322" lon="13.3481723"><ele>667.3333333333334</ele><time>2026-05-02T15:58:54.032Z</time></trkpt><trkpt lat="42.3476391" lon="13.3483948"><ele>662.6666666666667</ele><time>2026-05-02T15:58:55.032Z</time></trkpt><trkpt lat="42.3475443" lon="13.348624"><ele>658.0</ele><time>2026-05-02T15:58:56.032Z</time></trkpt><trkpt lat="42.3474514" lon="13.3488446"><ele>653.6666666666667</ele><time>2026-05-02T15:58:57.031Z</time></trkpt><trkpt lat="42.3473639" lon="13.3490761"><ele>649.3333333333334</ele><time>2026-05-02T15:58:58.032Z</time></trkpt><trkpt lat="42.3472803" lon="13.3493115"><ele>645.0</ele><time>2026-05-02T15:58:59.031Z</time></trkpt><trkpt lat="42.3472031" lon="13.3495475"><ele>651.0</ele><time>2026-05-02T15:59:00.032Z</time></trkpt><trkpt lat="42.3471276" lon="13.3497873"><ele>657.0</ele><time>2026-05-02T15:59:01.032Z</time></trkpt><trkpt lat="42.3470602" lon="13.3500267"><ele>663.0</ele><time>2026-05-02T15:59:02.032Z</time></trkpt><trkpt lat="42.3469966" lon="13.3502712"><ele>663.0</ele><time>2026-05-02T15:59:03.032Z</time></trkpt><trkpt lat="42.3469401" lon="13.3505225"><ele>663.0</ele><time>2026-05-02T15:59:04.032Z</time></trkpt><trkpt lat="42.3468889" lon="13.3507729"><ele>663.0</ele><time>2026-05-02T15:59:05.032Z</time></trkpt><trkpt lat="42.3468398" lon="13.3510278"><ele>660.3333333333334</ele><time>2026-05-02T15:59:06.032Z</time></trkpt><trkpt lat="42.3467997" lon="13.3512852"><ele>657.6666666666667</ele><time>2026-05-02T15:59:07.032Z</time></trkpt><trkpt lat="42.3467693" lon="13.3515455"><ele>655.0</ele><time>2026-05-02T15:59:08.031Z</time></trkpt><trkpt lat="42.346743" lon="13.3518096"><ele>651.0</ele><time>2026-05-02T15:59:09.032Z</time></trkpt><trkpt lat="42.3467252" lon="13.352074"><ele>647.0</ele><time>2026-05-02T15:59:10.032Z</time></trkpt><trkpt lat="42.3467139" lon="13.3523449"><ele>643.0</ele><time>2026-05-02T15:59:11.031Z</time></trkpt><trkpt lat="42.3467072" lon="13.3526125"><ele>641.6666666666667</ele><time>2026-05-02T15:59:12.032Z</time></trkpt><trkpt lat="42.3467122" lon="13.3528809"><ele>640.3333333333334</ele><time>2026-05-02T15:59:13.032Z</time></trkpt><trkpt lat="42.3467225" lon="13.3531494"><ele>639.0</ele><time>2026-05-02T15:59:14.032Z</time></trkpt><trkpt lat="42.3467412" lon="13.3534118"><ele>638.3333333333334</ele><time>2026-05-02T15:59:15.032Z</time></trkpt><trkpt lat="42.3467673" lon="13.3536814"><ele>637.6666666666667</ele><time>2026-05-02T15:59:16.032Z</time></trkpt><trkpt lat="42.3467983" lon="13.3539532"><ele>637.0</ele><time>2026-05-02T15:59:17.032Z</time></trkpt><trkpt lat="42.3468396" lon="13.3542181"><ele>637.0</ele><time>2026-05-02T15:59:18.032Z</time></trkpt><trkpt lat="42.3468875" lon="13.3544853"><ele>637.0</ele><time>2026-05-02T15:59:19.032Z</time></trkpt><trkpt lat="42.3469428" lon="13.3547481"><ele>637.0</ele><time>2026-05-02T15:59:20.032Z</time></trkpt><trkpt lat="42.3470061" lon="13.3550048"><ele>636.6666666666667</ele><time>2026-05-02T15:59:21.031Z</time></trkpt><trkpt lat="42.3470771" lon="13.3552597"><ele>636.3333333333334</ele><time>2026-05-02T15:59:22.031Z</time></trkpt><trkpt lat="42.3471507" lon="13.355504"><ele>636.0</ele><time>2026-05-02T15:59:23.032Z</time></trkpt><trkpt lat="42.3472315" lon="13.3557492"><ele>634.6666666666666</ele><time>2026-05-02T15:59:24.031Z</time></trkpt><trkpt lat="42.347319" lon="13.3559865"><ele>633.3333333333333</ele><time>2026-05-02T15:59:25.031Z</time></trkpt><trkpt lat="42.3474122" lon="13.3562191"><ele>632.0</ele><time>2026-05-02T15:59:26.032Z</time></trkpt><trkpt lat="42.3475126" lon="13.3564477"><ele>632.0</ele><time>2026-05-02T15:59:27.032Z</time></trkpt><trkpt lat="42.3476147" lon="13.356671"><ele>632.0</ele><time>2026-05-02T15:59:28.032Z</time></trkpt><trkpt lat="42.3477262" lon="13.3568905"><ele>632.0</ele><time>2026-05-02T15:59:29.032Z</time></trkpt><trkpt lat="42.347842" lon="13.3571081"><ele>632.0</ele><time>2026-05-02T15:59:30.031Z</time></trkpt><trkpt lat="42.3479636" lon="13.3573179"><ele>632.0</ele><time>2026-05-02T15:59:31.031Z</time></trkpt><trkpt lat="42.3480898" lon="13.3575219"><ele>632.0</ele><time>2026-05-02T15:59:32.032Z</time></trkpt><trkpt lat="42.3482249" lon="13.357719"><ele>631.6666666666666</ele><time>2026-05-02T15:59:33.032Z</time></trkpt><trkpt lat="42.3483631" lon="13.3579112"><ele>631.3333333333334</ele><time>2026-05-02T15:59:34.032Z</time></trkpt><trkpt lat="42.3485074" lon="13.3580965"><ele>631.0</ele><time>2026-05-02T15:59:35.032Z</time></trkpt><trkpt lat="42.3486602" lon="13.358274"><ele>631.0</ele><time>2026-05-02T15:59:36.031Z</time></trkpt><trkpt lat="42.3488164" lon="13.3584463"><ele>631.0</ele><time>2026-05-02T15:59:37.032Z</time></trkpt><trkpt lat="42.3489824" lon="13.3586081"><ele>631.0</ele><time>2026-05-02T15:59:38.032Z</time></trkpt><trkpt lat="42.3491503" lon="13.358764"><ele>629.6666666666667</ele><time>2026-05-02T15:59:39.031Z</time></trkpt><trkpt lat="42.3493215" lon="13.3589155"><ele>628.3333333333334</ele><time>2026-05-02T15:59:40.032Z</time></trkpt><trkpt lat="42.3495003" lon="13.3590595"><ele>627.0</ele><time>2026-05-02T15:59:41.032Z</time></trkpt><trkpt lat="42.3496864" lon="13.3591865"><ele>627.3333333333334</ele><time>2026-05-02T15:59:42.032Z</time></trkpt><trkpt lat="42.3498744" lon="13.3593093"><ele>627.6666666666667</ele><time>2026-05-02T15:59:43.031Z</time></trkpt><trkpt lat="42.3500616" lon="13.3594222"><ele>628.0</ele><time>2026-05-02T15:59:44.032Z</time></trkpt><trkpt lat="42.3502538" lon="13.359527"><ele>628.0</ele><time>2026-05-02T15:59:45.032Z</time></trkpt><trkpt lat="42.3504453" lon="13.3596244"><ele>628.0</ele><time>2026-05-02T15:59:46.032Z</time></trkpt><trkpt lat="42.3506374" lon="13.3597083"><ele>628.0</ele><time>2026-05-02T15:59:47.032Z</time></trkpt><trkpt lat="42.3508318" lon="13.3597838"><ele>627.6666666666667</ele><time>2026-05-02T15:59:48.031Z</time></trkpt><trkpt lat="42.3510327" lon="13.3598458"><ele>627.3333333333334</ele><time>2026-05-02T15:59:49.032Z</time></trkpt><trkpt lat="42.3512347" lon="13.3598954"><ele>627.0</ele><time>2026-05-02T15:59:50.032Z</time></trkpt><trkpt lat="42.3514403" lon="13.3599394"><ele>627.0</ele><time>2026-05-02T15:59:51.032Z</time></trkpt><trkpt lat="42.3516394" lon="13.3599716"><ele>627.0</ele><time>2026-05-02T15:59:52.032Z</time></trkpt><trkpt lat="42.3518343" lon="13.3599946"><ele>627.0</ele><time>2026-05-02T15:59:53.032Z</time></trkpt><trkpt lat="42.3520235" lon="13.360022"><ele>626.3333333333334</ele><time>2026-05-02T15:59:54.031Z</time></trkpt><trkpt lat="42.352208" lon="13.3600418"><ele>625.6666666666667</ele><time>2026-05-02T15:59:55.032Z</time></trkpt><trkpt lat="42.3523932" lon="13.3600559"><ele>625.0</ele><time>2026-05-02T15:59:56.031Z</time></trkpt><trkpt lat="42.352579" lon="13.3600629"><ele>625.0</ele><time>2026-05-02T15:59:57.032Z</time></trkpt><trkpt lat="42.352762" lon="13.3600756"><ele>625.0</ele><time>2026-05-02T15:59:58.032Z</time></trkpt><trkpt lat="42.352942" lon="13.3600888"><ele>625.0</ele><time>2026-05-02T15:59:59.032Z</time></trkpt><trkpt lat="42.3531195" lon="13.360097"><ele>626.3333333333334</ele><time>2026-05-02T16:00:00.032Z</time></trkpt><trkpt lat="42.3532984" lon="13.3601015"><ele>627.6666666666666</ele><time>2026-05-02T16:00:01.031Z</time></trkpt><trkpt lat="42.3534736" lon="13.3601119"><ele>629.0</ele><time>2026-05-02T16:00:02.032Z</time></trkpt><trkpt lat="42.3536513" lon="13.3601238"><ele>629.0</ele><time>2026-05-02T16:00:03.032Z</time></trkpt><trkpt lat="42.3538296" lon="13.360145"><ele>629.0</ele><time>2026-05-02T16:00:04.032Z</time></trkpt><trkpt lat="42.3540091" lon="13.3601729"><ele>629.0</ele><time>2026-05-02T16:00:05.032Z</time></trkpt><trkpt lat="42.3541882" lon="13.3601989"><ele>628.0</ele><time>2026-05-02T16:00:06.031Z</time></trkpt><trkpt lat="42.3543679" lon="13.3602263"><ele>627.0</ele><time>2026-05-02T16:00:07.031Z</time></trkpt><trkpt lat="42.3545513" lon="13.3602578"><ele>626.0</ele><time>2026-05-02T16:00:08.032Z</time></trkpt><trkpt lat="42.3547294" lon="13.3602956"><ele>625.3333333333333</ele><time>2026-05-02T16:00:09.032Z</time></trkpt><trkpt lat="42.3549138" lon="13.3603393"><ele>624.6666666666666</ele><time>2026-05-02T16:00:10.032Z</time></trkpt><trkpt lat="42.3551008" lon="13.3603807"><ele>624.0</ele><time>2026-05-02T16:00:11.032Z</time></trkpt><trkpt lat="42.3552876" lon="13.3604284"><ele>624.0</ele><time>2026-05-02T16:00:12.032Z</time></trkpt><trkpt lat="42.3554772" lon="13.3604804"><ele>624.0</ele><time>2026-05-02T16:00:13.032Z</time></trkpt><trkpt lat="42.3556711" lon="13.3605416"><ele>624.0</ele><time>2026-05-02T16:00:14.032Z</time></trkpt><trkpt lat="42.3558589" lon="13.3606048"><ele>624.0</ele><time>2026-05-02T16:00:15.032Z</time></trkpt><trkpt lat="42.356048" lon="13.3606692"><ele>624.0</ele><time>2026-05-02T16:00:16.032Z</time></trkpt><trkpt lat="42.3562366" lon="13.3607356"><ele>624.0</ele><time>2026-05-02T16:00:17.032Z</time></trkpt><trkpt lat="42.3564244" lon="13.3608112"><ele>624.6666666666666</ele><time>2026-05-02T16:00:18.031Z</time></trkpt><trkpt lat="42.3566098" lon="13.3608891"><ele>625.3333333333333</ele><time>2026-05-02T16:00:19.032Z</time></trkpt><trkpt lat="42.3567928" lon="13.3609679"><ele>626.0</ele><time>2026-05-02T16:00:20.032Z</time></trkpt><trkpt lat="42.3569729" lon="13.3610487"><ele>626.0</ele><time>2026-05-02T16:00:21.032Z</time></trkpt><trkpt lat="42.3571501" lon="13.3611329"><ele>626.0</ele><time>2026-05-02T16:00:22.032Z</time></trkpt><trkpt lat="42.3573314" lon="13.3612189"><ele>626.0</ele><time>2026-05-02T16:00:23.032Z</time></trkpt><trkpt lat="42.3575093" lon="13.3613091"><ele>626.0</ele><time>2026-05-02T16:00:24.031Z</time></trkpt><trkpt lat="42.3576859" lon="13.3614033"><ele>626.0</ele><time>2026-05-02T16:00:25.031Z</time></trkpt><trkpt lat="42.3578616" lon="13.3614952"><ele>626.0</ele><time>2026-05-02T16:00:26.032Z</time></trkpt><trkpt lat="42.3580364" lon="13.3615939"><ele>626.3333333333333</ele><time>2026-05-02T16:00:27.032Z</time></trkpt><trkpt lat="42.3582122" lon="13.3616928"><ele>626.6666666666666</ele><time>2026-05-02T16:00:28.032Z</time></trkpt><trkpt lat="42.3583845" lon="13.3617953"><ele>627.0</ele><time>2026-05-02T16:00:29.032Z</time></trkpt><trkpt lat="42.3585562" lon="13.3618982"><ele>627.0</ele><time>2026-05-02T16:00:30.032Z</time></trkpt><trkpt lat="42.3587218" lon="13.3619994"><ele>627.0</ele><time>2026-05-02T16:00:31.032Z</time></trkpt><trkpt lat="42.3588907" lon="13.3620976"><ele>627.0</ele><time>2026-05-02T16:00:32.032Z</time></trkpt><trkpt lat="42.3590555" lon="13.3621961"><ele>629.6666666666666</ele><time>2026-05-02T16:00:33.032Z</time></trkpt><trkpt lat="42.3592092" lon="13.3622883"><ele>632.3333333333333</ele><time>2026-05-02T16:00:34.032Z</time></trkpt><trkpt lat="42.3593578" lon="13.3623811"><ele>635.0</ele><time>2026-05-02T16:00:35.031Z</time></trkpt><trkpt lat="42.3594986" lon="13.3624796"><ele>635.0</ele><time>2026-05-02T16:00:36.032Z</time></trkpt><trkpt lat="42.3596358" lon="13.3625812"><ele>635.0</ele><time>2026-05-02T16:00:37.032Z</time></trkpt><trkpt lat="42.3597733" lon="13.3626805"><ele>635.0</ele><time>2026-05-02T16:00:38.032Z</time></trkpt><trkpt lat="42.3599069" lon="13.3627784"><ele>635.5</ele><time>2026-05-02T16:00:39.032Z</time></trkpt><trkpt lat="42.3600322" lon="13.3628724"><ele>636.0</ele><time>2026-05-02T16:00:40.032Z</time></trkpt><trkpt lat="42.3601468" lon="13.3629677"><ele>636.5</ele><time>2026-05-02T16:00:41.032Z</time></trkpt><trkpt lat="42.3602562" lon="13.3630607"><ele>637.0</ele><time>2026-05-02T16:00:42.032Z</time></trkpt><trkpt lat="42.3603591" lon="13.3631552"><ele>637.0</ele><time>2026-05-02T16:00:43.032Z</time></trkpt><trkpt lat="42.3604604" lon="13.3632671"><ele>637.0</ele><time>2026-05-02T16:00:44.031Z</time></trkpt><trkpt lat="42.3605608" lon="13.3633869"><ele>637.0</ele><time>2026-05-02T16:00:45.032Z</time></trkpt><trkpt lat="42.3606614" lon="13.3635293"><ele>637.0</ele><time>2026-05-02T16:00:46.032Z</time></trkpt><trkpt lat="42.3607623" lon="13.3636798"><ele>636.3333333333334</ele><time>2026-05-02T16:00:47.032Z</time></trkpt><trkpt lat="42.3608591" lon="13.3638399"><ele>635.6666666666666</ele><time>2026-05-02T16:00:48.031Z</time></trkpt><trkpt lat="42.3609519" lon="13.3640064"><ele>635.0</ele><time>2026-05-02T16:00:49.031Z</time></trkpt><trkpt lat="42.3610425" lon="13.3641827"><ele>634.3333333333333</ele><time>2026-05-02T16:00:50.032Z</time></trkpt><trkpt lat="42.3611203" lon="13.3643801"><ele>633.6666666666666</ele><time>2026-05-02T16:00:51.032Z</time></trkpt><trkpt lat="42.3611869" lon="13.3645817"><ele>633.0</ele><time>2026-05-02T16:00:52.032Z</time></trkpt><trkpt lat="42.3612504" lon="13.3647921"><ele>633.0</ele><time>2026-05-02T16:00:53.032Z</time></trkpt><trkpt lat="42.3612984" lon="13.3650018"><ele>633.0</ele><time>2026-05-02T16:00:54.031Z</time></trkpt><trkpt lat="42.3613329" lon="13.3652084"><ele>633.0</ele><time>2026-05-02T16:00:55.032Z</time></trkpt><trkpt lat="42.3613579" lon="13.3654133"><ele>633.75</ele><time>2026-05-02T16:00:56.032Z</time></trkpt><trkpt lat="42.3613782" lon="13.3656165"><ele>634.5</ele><time>2026-05-02T16:00:57.032Z</time></trkpt><trkpt lat="42.3613904" lon="13.3658167"><ele>635.25</ele><time>2026-05-02T16:00:58.031Z</time></trkpt><trkpt lat="42.361393" lon="13.3660174"><ele>636.0</ele><time>2026-05-02T16:00:59.032Z</time></trkpt><trkpt lat="42.3613957" lon="13.3662131"><ele>635.5</ele><time>2026-05-02T16:01:00.032Z</time></trkpt><trkpt lat="42.3613957" lon="13.3664062"><ele>635.0</ele><time>2026-05-02T16:01:01.032Z</time></trkpt><trkpt lat="42.3613902" lon="13.3666023"><ele>634.5</ele><time>2026-05-02T16:01:02.032Z</time></trkpt><trkpt lat="42.3613816" lon="13.3668058"><ele>634.0</ele><time>2026-05-02T16:01:03.032Z</time></trkpt><trkpt lat="42.3613675" lon="13.3670085"><ele>632.6666666666667</ele><time>2026-05-02T16:01:04.032Z</time></trkpt><trkpt lat="42.3613549" lon="13.3672121"><ele>631.3333333333334</ele><time>2026-05-02T16:01:05.032Z</time></trkpt><trkpt lat="42.3613403" lon="13.3674214"><ele>630.0</ele><time>2026-05-02T16:01:06.032Z</time></trkpt><trkpt lat="42.361319" lon="13.3676253"><ele>630.0</ele><time>2026-05-02T16:01:07.032Z</time></trkpt><trkpt lat="42.3613057" lon="13.3678144"><ele>630.0</ele><time>2026-05-02T16:01:08.032Z</time></trkpt><trkpt lat="42.36129" lon="13.3679864"><ele>630.0</ele><time>2026-05-02T16:01:09.031Z</time></trkpt><trkpt lat="42.3612734" lon="13.3681433"><ele>630.0</ele><time>2026-05-02T16:01:10.032Z</time></trkpt><trkpt lat="42.3612588" lon="13.368284"><ele>629.8</ele><time>2026-05-02T16:01:11.031Z</time></trkpt><trkpt lat="42.3612431" lon="13.3684167"><ele>629.6</ele><time>2026-05-02T16:01:12.032Z</time></trkpt><trkpt lat="42.3612263" lon="13.3685567"><ele>629.4</ele><time>2026-05-02T16:01:13.032Z</time></trkpt><trkpt lat="42.3612141" lon="13.3686978"><ele>629.2</ele><time>2026-05-02T16:01:14.032Z</time></trkpt><trkpt lat="42.361203" lon="13.3688378"><ele>629.0</ele><time>2026-05-02T16:01:15.032Z</time></trkpt><trkpt lat="42.3611926" lon="13.3689757"><ele>629.8</ele><time>2026-05-02T16:01:16.032Z</time></trkpt><trkpt lat="42.3611855" lon="13.3691107"><ele>630.5999999999999</ele><time>2026-05-02T16:01:17.032Z</time></trkpt><trkpt lat="42.3611804" lon="13.3692425"><ele>631.4</ele><time>2026-05-02T16:01:18.031Z</time></trkpt><trkpt lat="42.3611779" lon="13.3693697"><ele>632.1999999999999</ele><time>2026-05-02T16:01:19.031Z</time></trkpt><trkpt lat="42.3611772" lon="13.3694811"><ele>633.0</ele><time>2026-05-02T16:01:20.032Z</time></trkpt><trkpt lat="42.3611737" lon="13.3695893"><ele>633.0</ele><time>2026-05-02T16:01:21.032Z</time></trkpt><trkpt lat="42.3611745" lon="13.3696785"><ele>633.0</ele><time>2026-05-02T16:01:22.032Z</time></trkpt><trkpt lat="42.36118" lon="13.3698147"><ele>633.0</ele><time>2026-05-02T16:01:24.032Z</time></trkpt><trkpt lat="42.3611872" lon="13.3699183"><ele>633.0</ele><time>2026-05-02T16:01:27.032Z</time></trkpt><trkpt lat="42.3611856" lon="13.3700273"><ele>633.0</ele><time>2026-05-02T16:04:06.032Z</time></trkpt><trkpt lat="42.3611641" lon="13.3701457"><ele>633.0</ele><time>2026-05-02T16:04:08.031Z</time></trkpt><trkpt lat="42.3611457" lon="13.370325"><ele>634.4</ele><time>2026-05-02T16:04:10.032Z</time></trkpt><trkpt lat="42.3611318" lon="13.3704194"><ele>635.8</ele><time>2026-05-02T16:04:11.031Z</time></trkpt><trkpt lat="42.3611221" lon="13.370504"><ele>637.2</ele><time>2026-05-02T16:04:12.032Z</time></trkpt><trkpt lat="42.3611163" lon="13.3706643"><ele>638.6</ele><time>2026-05-02T16:04:14.031Z</time></trkpt><trkpt lat="42.3611122" lon="13.370806"><ele>640.0</ele><time>2026-05-02T16:04:16.032Z</time></trkpt><trkpt lat="42.3611156" lon="13.37095"><ele>640.0</ele><time>2026-05-02T16:04:18.032Z</time></trkpt><trkpt lat="42.3611129" lon="13.3711222"><ele>640.0</ele><time>2026-05-02T16:04:20.032Z</time></trkpt><trkpt lat="42.361112" lon="13.3712087"><ele>640.0</ele><time>2026-05-02T16:04:21.032Z</time></trkpt><trkpt lat="42.3611077" lon="13.3713004"><ele>640.0</ele><time>2026-05-02T16:04:22.032Z</time></trkpt><trkpt lat="42.3611003" lon="13.3713998"><ele>640.0</ele><time>2026-05-02T16:04:23.032Z</time></trkpt><trkpt lat="42.3610923" lon="13.3714994"><ele>640.0</ele><time>2026-05-02T16:04:24.031Z</time></trkpt><trkpt lat="42.3610866" lon="13.3715945"><ele>640.3333333333334</ele><time>2026-05-02T16:04:25.031Z</time></trkpt><trkpt lat="42.3610807" lon="13.3716912"><ele>640.6666666666667</ele><time>2026-05-02T16:04:26.032Z</time></trkpt><trkpt lat="42.361071" lon="13.3717899"><ele>641.0</ele><time>2026-05-02T16:04:27.032Z</time></trkpt><trkpt lat="42.3610679" lon="13.3718785"><ele>641.3333333333334</ele><time>2026-05-02T16:04:28.032Z</time></trkpt><trkpt lat="42.3610314" lon="13.3720339"><ele>641.6666666666666</ele><time>2026-05-02T16:04:30.032Z</time></trkpt><trkpt lat="42.3609878" lon="13.3720954"><ele>642.0</ele><time>2026-05-02T16:04:31.032Z</time></trkpt><trkpt lat="42.360931" lon="13.3721639"><ele>642.1666666666666</ele><time>2026-05-02T16:04:32.032Z</time></trkpt><trkpt lat="42.3608619" lon="13.3722028"><ele>642.3333333333334</ele><time>2026-05-02T16:04:33.031Z</time></trkpt><trkpt lat="42.3607951" lon="13.3722399"><ele>642.5</ele><time>2026-05-02T16:04:34.031Z</time></trkpt><trkpt lat="42.3607223" lon="13.3722695"><ele>642.6666666666667</ele><time>2026-05-02T16:04:35.031Z</time></trkpt><trkpt lat="42.3606521" lon="13.3723137"><ele>642.8333333333334</ele><time>2026-05-02T16:04:36.032Z</time></trkpt><trkpt lat="42.3605774" lon="13.3723545"><ele>643.0</ele><time>2026-05-02T16:04:37.031Z</time></trkpt><trkpt lat="42.3604957" lon="13.372407"><ele>642.5999999999999</ele><time>2026-05-02T16:04:38.032Z</time></trkpt><trkpt lat="42.3604035" lon="13.3724624"><ele>642.1999999999999</ele><time>2026-05-02T16:04:39.032Z</time></trkpt><trkpt lat="42.3603104" lon="13.3725198"><ele>641.8</ele><time>2026-05-02T16:04:40.032Z</time></trkpt><trkpt lat="42.3602191" lon="13.3725745"><ele>641.4</ele><time>2026-05-02T16:04:41.031Z</time></trkpt><trkpt lat="42.3601354" lon="13.3726323"><ele>641.0</ele><time>2026-05-02T16:04:42.032Z</time></trkpt><trkpt lat="42.3600602" lon="13.3726863"><ele>641.0</ele><time>2026-05-02T16:04:43.032Z</time></trkpt><trkpt lat="42.3599906" lon="13.3727485"><ele>641.0</ele><time>2026-05-02T16:04:44.031Z</time></trkpt><trkpt lat="42.3599294" lon="13.3728187"><ele>641.0</ele><time>2026-05-02T16:04:45.032Z</time></trkpt><trkpt lat="42.3598826" lon="13.372906"><ele>641.0</ele><time>2026-05-02T16:04:46.032Z</time></trkpt><trkpt lat="42.3598581" lon="13.3730156"><ele>641.0</ele><time>2026-05-02T16:04:47.031Z</time></trkpt><trkpt lat="42.3598555" lon="13.3731331"><ele>641.0</ele><time>2026-05-02T16:04:48.032Z</time></trkpt><trkpt lat="42.359863" lon="13.3732501"><ele>641.5</ele><time>2026-05-02T16:04:49.032Z</time></trkpt><trkpt lat="42.3598783" lon="13.3733566"><ele>642.0</ele><time>2026-05-02T16:04:50.031Z</time></trkpt><trkpt lat="42.3598872" lon="13.3734546"><ele>642.5</ele><time>2026-05-02T16:04:51.032Z</time></trkpt><trkpt lat="42.3599114" lon="13.3735877"><ele>643.0</ele><time>2026-05-02T16:04:53.032Z</time></trkpt><trkpt lat="42.3599261" lon="13.3736858"><ele>643.5</ele><time>2026-05-02T16:04:55.032Z</time></trkpt><trkpt lat="42.3599457" lon="13.3738396"><ele>644.0</ele><time>2026-05-02T16:04:57.032Z</time></trkpt><trkpt lat="42.3599647" lon="13.3739237"><ele>644.1666666666666</ele><time>2026-05-02T16:04:58.032Z</time></trkpt><trkpt lat="42.3599862" lon="13.3740184"><ele>644.3333333333333</ele><time>2026-05-02T16:04:59.032Z</time></trkpt><trkpt lat="42.3599994" lon="13.3741195"><ele>644.5</ele><time>2026-05-02T16:05:00.032Z</time></trkpt><trkpt lat="42.3600137" lon="13.3742144"><ele>644.6666666666666</ele><time>2026-05-02T16:05:01.032Z</time></trkpt><trkpt lat="42.3600276" lon="13.3742988"><ele>644.8333333333334</ele><time>2026-05-02T16:05:02.032Z</time></trkpt><trkpt lat="42.3600741" lon="13.3744179"><ele>645.0</ele><time>2026-05-02T16:05:04.031Z</time></trkpt><trkpt lat="42.360126" lon="13.374478"><ele>645.0</ele><time>2026-05-02T16:05:07.032Z</time></trkpt><trkpt lat="42.3601177" lon="13.3745928"><ele>645.0</ele><time>2026-05-02T16:06:39.032Z</time></trkpt><trkpt lat="42.3600868" lon="13.3747377"><ele>645.0</ele><time>2026-05-02T16:06:42.032Z</time></trkpt><trkpt lat="42.3601204" lon="13.3748804"><ele>645.0</ele><time>2026-05-02T16:06:44.032Z</time></trkpt><trkpt lat="42.360138" lon="13.3749751"><ele>645.0</ele><time>2026-05-02T16:06:45.032Z</time></trkpt><trkpt lat="42.360161" lon="13.3750935"><ele>645.25</ele><time>2026-05-02T16:06:46.032Z</time></trkpt><trkpt lat="42.3601713" lon="13.3752318"><ele>645.5</ele><time>2026-05-02T16:06:47.031Z</time></trkpt><trkpt lat="42.3601969" lon="13.3753808"><ele>645.75</ele><time>2026-05-02T16:06:48.032Z</time></trkpt><trkpt lat="42.3602204" lon="13.3755495"><ele>646.0</ele><time>2026-05-02T16:06:49.032Z</time></trkpt><trkpt lat="42.360239" lon="13.3757205"><ele>646.5</ele><time>2026-05-02T16:06:50.032Z</time></trkpt><trkpt lat="42.3602536" lon="13.3758777"><ele>647.0</ele><time>2026-05-02T16:06:51.031Z</time></trkpt><trkpt lat="42.360268" lon="13.3760254"><ele>647.5</ele><time>2026-05-02T16:06:52.032Z</time></trkpt><trkpt lat="42.3602847" lon="13.3761826"><ele>648.0</ele><time>2026-05-02T16:06:53.032Z</time></trkpt><trkpt lat="42.3603015" lon="13.3763541"><ele>648.5</ele><time>2026-05-02T16:06:54.032Z</time></trkpt><trkpt lat="42.3603186" lon="13.3765224"><ele>649.0</ele><time>2026-05-02T16:06:55.032Z</time></trkpt><trkpt lat="42.3603359" lon="13.3766957"><ele>649.5</ele><time>2026-05-02T16:06:56.032Z</time></trkpt><trkpt lat="42.3603487" lon="13.37687"><ele>650.0</ele><time>2026-05-02T16:06:57.032Z</time></trkpt><trkpt lat="42.3603625" lon="13.3770359"><ele>650.0</ele><time>2026-05-02T16:06:58.032Z</time></trkpt><trkpt lat="42.3603749" lon="13.377187"><ele>650.0</ele><time>2026-05-02T16:06:59.032Z</time></trkpt><trkpt lat="42.3603796" lon="13.3773378"><ele>650.0</ele><time>2026-05-02T16:07:00.031Z</time></trkpt><trkpt lat="42.3603817" lon="13.3774922"><ele>650.0</ele><time>2026-05-02T16:07:01.032Z</time></trkpt><trkpt lat="42.3603804" lon="13.3776447"><ele>650.0</ele><time>2026-05-02T16:07:02.031Z</time></trkpt><trkpt lat="42.36037" lon="13.3778006"><ele>650.0</ele><time>2026-05-02T16:07:03.032Z</time></trkpt><trkpt lat="42.3603583" lon="13.3779578"><ele>650.0</ele><time>2026-05-02T16:07:04.032Z</time></trkpt><trkpt lat="42.3603444" lon="13.3781185"><ele>650.0</ele><time>2026-05-02T16:07:05.032Z</time></trkpt><trkpt lat="42.360329" lon="13.3782778"><ele>650.2</ele><time>2026-05-02T16:07:06.032Z</time></trkpt><trkpt lat="42.3603098" lon="13.3784239"><ele>650.4</ele><time>2026-05-02T16:07:07.032Z</time></trkpt><trkpt lat="42.3602842" lon="13.3785645"><ele>650.5999999999999</ele><time>2026-05-02T16:07:08.032Z</time></trkpt><trkpt lat="42.3602566" lon="13.3786965"><ele>650.8</ele><time>2026-05-02T16:07:09.032Z</time></trkpt><trkpt lat="42.3602294" lon="13.378814"><ele>651.0</ele><time>2026-05-02T16:07:10.032Z</time></trkpt><trkpt lat="42.3602023" lon="13.3789218"><ele>651.1666666666666</ele><time>2026-05-02T16:07:11.032Z</time></trkpt><trkpt lat="42.3601695" lon="13.3790186"><ele>651.3333333333334</ele><time>2026-05-02T16:07:12.032Z</time></trkpt><trkpt lat="42.3601406" lon="13.379118"><ele>651.5</ele><time>2026-05-02T16:07:13.032Z</time></trkpt><trkpt lat="42.3601119" lon="13.3792078"><ele>651.6666666666667</ele><time>2026-05-02T16:07:14.031Z</time></trkpt><trkpt lat="42.3600599" lon="13.3793501"><ele>651.8333333333334</ele><time>2026-05-02T16:07:16.032Z</time></trkpt><trkpt lat="42.3600232" lon="13.3794253"><ele>652.0</ele><time>2026-05-02T16:07:18.032Z</time></trkpt><trkpt lat="42.3599547" lon="13.3795171"><ele>652.0</ele><time>2026-05-02T16:07:21.032Z</time></trkpt><trkpt lat="42.3598877" lon="13.3795968"><ele>652.0</ele><time>2026-05-02T16:07:23.032Z</time></trkpt><trkpt lat="42.3598512" lon="13.3797411"><ele>652.0</ele><time>2026-05-02T16:07:25.032Z</time></trkpt><trkpt lat="42.3598399" lon="13.3798374"><ele>652.0</ele><time>2026-05-02T16:07:26.032Z</time></trkpt><trkpt lat="42.3598427" lon="13.3799279"><ele>652.0</ele><time>2026-05-02T16:07:27.032Z</time></trkpt><trkpt lat="42.3598443" lon="13.3800143"><ele>652.0</ele><time>2026-05-02T16:07:28.032Z</time></trkpt><trkpt lat="42.3598051" lon="13.3801876"><ele>651.8</ele><time>2026-05-02T16:07:30.032Z</time></trkpt><trkpt lat="42.3597722" lon="13.3802819"><ele>651.6</ele><time>2026-05-02T16:07:31.031Z</time></trkpt><trkpt lat="42.3597285" lon="13.3803771"><ele>651.4</ele><time>2026-05-02T16:07:32.032Z</time></trkpt><trkpt lat="42.3596775" lon="13.3804814"><ele>651.1999999999999</ele><time>2026-05-02T16:07:33.032Z</time></trkpt><trkpt lat="42.3596294" lon="13.3805963"><ele>651.0</ele><time>2026-05-02T16:07:34.032Z</time></trkpt><trkpt lat="42.35958" lon="13.380715"><ele>650.8</ele><time>2026-05-02T16:07:35.032Z</time></trkpt><trkpt lat="42.3595287" lon="13.3808345"><ele>650.5999999999999</ele><time>2026-05-02T16:07:36.032Z</time></trkpt><trkpt lat="42.3594808" lon="13.3809395"><ele>650.4</ele><time>2026-05-02T16:07:37.031Z</time></trkpt><trkpt lat="42.3594343" lon="13.3810452"><ele>650.2</ele><time>2026-05-02T16:07:38.032Z</time></trkpt><trkpt lat="42.3593907" lon="13.3811477"><ele>650.0</ele><time>2026-05-02T16:07:39.031Z</time></trkpt><trkpt lat="42.3593431" lon="13.3812501"><ele>650.0</ele><time>2026-05-02T16:07:40.032Z</time></trkpt><trkpt lat="42.359302" lon="13.381343"><ele>650.0</ele><time>2026-05-02T16:07:41.031Z</time></trkpt><trkpt lat="42.3592614" lon="13.3814374"><ele>650.0</ele><time>2026-05-02T16:07:42.032Z</time></trkpt><trkpt lat="42.3592188" lon="13.3815345"><ele>650.0</ele><time>2026-05-02T16:07:43.031Z</time></trkpt><trkpt lat="42.3591717" lon="13.3816361"><ele>650.0</ele><time>2026-05-02T16:07:44.031Z</time></trkpt><trkpt lat="42.3591284" lon="13.3817357"><ele>650.0</ele><time>2026-05-02T16:07:45.032Z</time></trkpt><trkpt lat="42.3590796" lon="13.3818341"><ele>649.8</ele><time>2026-05-02T16:07:46.032Z</time></trkpt><trkpt lat="42.359029" lon="13.381933"><ele>649.6</ele><time>2026-05-02T16:07:47.032Z</time></trkpt><trkpt lat="42.3589836" lon="13.3820387"><ele>649.4000000000001</ele><time>2026-05-02T16:07:48.032Z</time></trkpt><trkpt lat="42.3589351" lon="13.3821486"><ele>649.2</ele><time>2026-05-02T16:07:49.032Z</time></trkpt><trkpt lat="42.3588866" lon="13.3822644"><ele>649.0</ele><time>2026-05-02T16:07:50.032Z</time></trkpt><trkpt lat="42.3588348" lon="13.3823736"><ele>649.4000000000001</ele><time>2026-05-02T16:07:51.032Z</time></trkpt><trkpt lat="42.3587858" lon="13.3824813"><ele>649.8</ele><time>2026-05-02T16:07:52.032Z</time></trkpt><trkpt lat="42.3587352" lon="13.3825884"><ele>650.2</ele><time>2026-05-02T16:07:53.032Z</time></trkpt><trkpt lat="42.3586843" lon="13.3826944"><ele>650.5999999999999</ele><time>2026-05-02T16:07:54.032Z</time></trkpt><trkpt lat="42.3586401" lon="13.3828009"><ele>651.0</ele><time>2026-05-02T16:07:55.032Z</time></trkpt><trkpt lat="42.3585916" lon="13.3829029"><ele>650.5999999999999</ele><time>2026-05-02T16:07:56.032Z</time></trkpt><trkpt lat="42.3585505" lon="13.3830144"><ele>650.2</ele><time>2026-05-02T16:07:57.032Z</time></trkpt><trkpt lat="42.3585029" lon="13.3831232"><ele>649.8</ele><time>2026-05-02T16:07:58.031Z</time></trkpt><trkpt lat="42.358446" lon="13.3832332"><ele>649.4000000000001</ele><time>2026-05-02T16:07:59.032Z</time></trkpt><trkpt lat="42.3583889" lon="13.3833475"><ele>649.0</ele><time>2026-05-02T16:08:00.032Z</time></trkpt><trkpt lat="42.3583359" lon="13.383465"><ele>649.0</ele><time>2026-05-02T16:08:01.032Z</time></trkpt><trkpt lat="42.358284" lon="13.3835861"><ele>649.0</ele><time>2026-05-02T16:08:02.032Z</time></trkpt><trkpt lat="42.35823" lon="13.3837143"><ele>649.0</ele><time>2026-05-02T16:08:03.032Z</time></trkpt><trkpt lat="42.3581708" lon="13.3838461"><ele>649.0</ele><time>2026-05-02T16:08:04.032Z</time></trkpt><trkpt lat="42.3581078" lon="13.3839848"><ele>649.0</ele><time>2026-05-02T16:08:05.032Z</time></trkpt><trkpt lat="42.3580482" lon="13.3841268"><ele>648.75</ele><time>2026-05-02T16:08:06.032Z</time></trkpt><trkpt lat="42.3579902" lon="13.3842618"><ele>648.5</ele><time>2026-05-02T16:08:07.032Z</time></trkpt><trkpt lat="42.3579376" lon="13.3843996"><ele>648.25</ele><time>2026-05-02T16:08:08.031Z</time></trkpt><trkpt lat="42.357897" lon="13.3845453"><ele>648.0</ele><time>2026-05-02T16:08:09.032Z</time></trkpt><trkpt lat="42.3578561" lon="13.3846785"><ele>648.1666666666666</ele><time>2026-05-02T16:08:10.031Z</time></trkpt><trkpt lat="42.3578192" lon="13.384807"><ele>648.3333333333334</ele><time>2026-05-02T16:08:11.032Z</time></trkpt><trkpt lat="42.3577852" lon="13.3849169"><ele>648.5</ele><time>2026-05-02T16:08:12.032Z</time></trkpt><trkpt lat="42.3577486" lon="13.3850091"><ele>648.6666666666667</ele><time>2026-05-02T16:08:13.032Z</time></trkpt><trkpt lat="42.3577106" lon="13.3850947"><ele>648.8333333333334</ele><time>2026-05-02T16:08:14.032Z</time></trkpt><trkpt lat="42.3576616" lon="13.385167"><ele>649.0</ele><time>2026-05-02T16:08:15.032Z</time></trkpt><trkpt lat="42.3576156" lon="13.3852359"><ele>649.0</ele><time>2026-05-02T16:08:16.032Z</time></trkpt><trkpt lat="42.3575705" lon="13.3853121"><ele>649.0</ele><time>2026-05-02T16:08:17.032Z</time></trkpt><trkpt lat="42.3575241" lon="13.3853978"><ele>649.0</ele><time>2026-05-02T16:08:18.032Z</time></trkpt><trkpt lat="42.3574734" lon="13.3854828"><ele>649.0</ele><time>2026-05-02T16:08:19.031Z</time></trkpt><trkpt lat="42.3574259" lon="13.3855657"><ele>649.0</ele><time>2026-05-02T16:08:20.032Z</time></trkpt><trkpt lat="42.3573772" lon="13.3856421"><ele>649.0</ele><time>2026-05-02T16:08:21.032Z</time></trkpt><trkpt lat="42.3573274" lon="13.3857186"><ele>649.0</ele><time>2026-05-02T16:08:22.032Z</time></trkpt><trkpt lat="42.3572757" lon="13.3857942"><ele>649.0</ele><time>2026-05-02T16:08:23.031Z</time></trkpt><trkpt lat="42.3572248" lon="13.3858662"><ele>649.0</ele><time>2026-05-02T16:08:24.032Z</time></trkpt><trkpt lat="42.3571716" lon="13.385937"><ele>649.0</ele><time>2026-05-02T16:08:25.031Z</time></trkpt><trkpt lat="42.3571089" lon="13.3860073"><ele>649.0</ele><time>2026-05-02T16:08:26.031Z</time></trkpt><trkpt lat="42.3570479" lon="13.3860829"><ele>649.0</ele><time>2026-05-02T16:08:27.032Z</time></trkpt><trkpt lat="42.3569913" lon="13.3861592"><ele>648.8571428571428</ele><time>2026-05-02T16:08:28.032Z</time></trkpt><trkpt lat="42.3569398" lon="13.3862395"><ele>648.7142857142857</ele><time>2026-05-02T16:08:29.032Z</time></trkpt><trkpt lat="42.3568946" lon="13.3863119"><ele>648.5714285714286</ele><time>2026-05-02T16:08:30.032Z</time></trkpt><trkpt lat="42.3568545" lon="13.386381"><ele>648.4285714285713</ele><time>2026-05-02T16:08:31.032Z</time></trkpt><trkpt lat="42.3568102" lon="13.3864578"><ele>648.2857142857142</ele><time>2026-05-02T16:08:32.032Z</time></trkpt><trkpt lat="42.3567654" lon="13.3865322"><ele>648.1428571428571</ele><time>2026-05-02T16:08:33.032Z</time></trkpt><trkpt lat="42.3567218" lon="13.3865992"><ele>648.0</ele><time>2026-05-02T16:08:34.032Z</time></trkpt><trkpt lat="42.3566507" lon="13.3867303"><ele>648.0</ele><time>2026-05-02T16:08:36.032Z</time></trkpt><trkpt lat="42.3566095" lon="13.3868241"><ele>648.0</ele><time>2026-05-02T16:08:37.032Z</time></trkpt><trkpt lat="42.3565554" lon="13.3869229"><ele>648.0</ele><time>2026-05-02T16:08:38.032Z</time></trkpt><trkpt lat="42.356485" lon="13.3870334"><ele>648.0</ele><time>2026-05-02T16:08:39.032Z</time></trkpt><trkpt lat="42.3563995" lon="13.3871781"><ele>648.0</ele><time>2026-05-02T16:08:40.031Z</time></trkpt><trkpt lat="42.3563074" lon="13.3873197"><ele>647.5</ele><time>2026-05-02T16:08:41.031Z</time></trkpt><trkpt lat="42.3562087" lon="13.3874778"><ele>647.0</ele><time>2026-05-02T16:08:42.032Z</time></trkpt><trkpt lat="42.3561166" lon="13.387637"><ele>646.5</ele><time>2026-05-02T16:08:43.032Z</time></trkpt><trkpt lat="42.3560349" lon="13.3877762"><ele>646.0</ele><time>2026-05-02T16:08:44.032Z</time></trkpt><trkpt lat="42.3559584" lon="13.3879054"><ele>646.0</ele><time>2026-05-02T16:08:45.032Z</time></trkpt><trkpt lat="42.3558993" lon="13.3879911"><ele>646.0</ele><time>2026-05-02T16:08:46.032Z</time></trkpt><trkpt lat="42.3558139" lon="13.3880803"><ele>646.0</ele><time>2026-05-02T16:08:48.031Z</time></trkpt><trkpt lat="42.3557441" lon="13.388134"><ele>646.0</ele><time>2026-05-02T16:08:50.032Z</time></trkpt><trkpt lat="42.3556652" lon="13.388184"><ele>646.0</ele><time>2026-05-02T16:08:52.032Z</time></trkpt><trkpt lat="42.3555713" lon="13.3882462"><ele>647.0</ele><time>2026-05-02T16:08:54.032Z</time></trkpt><trkpt lat="42.3555009" lon="13.3883352"><ele>648.0</ele><time>2026-05-02T16:08:56.032Z</time></trkpt><trkpt lat="42.3554702" lon="13.3884637"><ele>649.0</ele><time>2026-05-02T16:08:58.032Z</time></trkpt><trkpt lat="42.355509" lon="13.3885848"><ele>650.0</ele><time>2026-05-02T16:09:00.032Z</time></trkpt><trkpt lat="42.3556038" lon="13.3886852"><ele>651.0</ele><time>2026-05-02T16:09:02.032Z</time></trkpt><trkpt lat="42.3556955" lon="13.3887921"><ele>652.1999999999999</ele><time>2026-05-02T16:09:04.031Z</time></trkpt><trkpt lat="42.3557445" lon="13.3888643"><ele>653.4</ele><time>2026-05-02T16:09:05.032Z</time></trkpt><trkpt lat="42.3558002" lon="13.3889594"><ele>654.6</ele><time>2026-05-02T16:09:06.032Z</time></trkpt><trkpt lat="42.35587" lon="13.3890498"><ele>655.8</ele><time>2026-05-02T16:09:07.032Z</time></trkpt><trkpt lat="42.3559378" lon="13.3891582"><ele>657.0</ele><time>2026-05-02T16:09:08.031Z</time></trkpt><trkpt lat="42.3560224" lon="13.3892865"><ele>657.0</ele><time>2026-05-02T16:09:09.032Z</time></trkpt><trkpt lat="42.3561063" lon="13.3894205"><ele>657.0</ele><time>2026-05-02T16:09:10.031Z</time></trkpt><trkpt lat="42.3561985" lon="13.3895761"><ele>657.0</ele><time>2026-05-02T16:09:11.032Z</time></trkpt><trkpt lat="42.3563087" lon="13.3897449"><ele>657.0</ele><time>2026-05-02T16:09:12.032Z</time></trkpt><trkpt lat="42.3564378" lon="13.3898845"><ele>656.0</ele><time>2026-05-02T16:09:13.032Z</time></trkpt><trkpt lat="42.3565143" lon="13.3900553"><ele>655.0</ele><time>2026-05-02T16:09:14.031Z</time></trkpt><trkpt lat="42.3566001" lon="13.3901762"><ele>654.0</ele><time>2026-05-02T16:09:15.032Z</time></trkpt><trkpt lat="42.3566748" lon="13.3902723"><ele>653.0</ele><time>2026-05-02T16:09:16.032Z</time></trkpt><trkpt lat="42.356731" lon="13.3903716"><ele>653.0</ele><time>2026-05-02T16:09:17.032Z</time></trkpt><trkpt lat="42.356768" lon="13.3904688"><ele>653.0</ele><time>2026-05-02T16:09:18.032Z</time></trkpt><trkpt lat="42.3567954" lon="13.3905714"><ele>653.0</ele><time>2026-05-02T16:09:19.032Z</time></trkpt><trkpt lat="42.3568124" lon="13.3906874"><ele>653.0</ele><time>2026-05-02T16:09:20.032Z</time></trkpt><trkpt lat="42.3568033" lon="13.3908158"><ele>653.0</ele><time>2026-05-02T16:09:21.031Z</time></trkpt><trkpt lat="42.356775" lon="13.3909634"><ele>653.25</ele><time>2026-05-02T16:09:22.032Z</time></trkpt><trkpt lat="42.3567264" lon="13.3911209"><ele>653.5</ele><time>2026-05-02T16:09:23.031Z</time></trkpt><trkpt lat="42.3566898" lon="13.3912913"><ele>653.75</ele><time>2026-05-02T16:09:24.032Z</time></trkpt><trkpt lat="42.3566727" lon="13.3914578"><ele>654.0</ele><time>2026-05-02T16:09:25.032Z</time></trkpt><trkpt lat="42.3566658" lon="13.3916333"><ele>655.25</ele><time>2026-05-02T16:09:26.032Z</time></trkpt><trkpt lat="42.3566543" lon="13.3918147"><ele>656.5</ele><time>2026-05-02T16:09:27.032Z</time></trkpt><trkpt lat="42.3566521" lon="13.3919942"><ele>657.75</ele><time>2026-05-02T16:09:28.032Z</time></trkpt><trkpt lat="42.3566461" lon="13.3921785"><ele>659.0</ele><time>2026-05-02T16:09:29.032Z</time></trkpt><trkpt lat="42.3566411" lon="13.3923653"><ele>660.5</ele><time>2026-05-02T16:09:30.032Z</time></trkpt><trkpt lat="42.3566371" lon="13.3925482"><ele>662.0</ele><time>2026-05-02T16:09:31.032Z</time></trkpt><trkpt lat="42.3566351" lon="13.3927344"><ele>663.5</ele><time>2026-05-02T16:09:32.032Z</time></trkpt><trkpt lat="42.3566373" lon="13.3929299"><ele>665.0</ele><time>2026-05-02T16:09:33.032Z</time></trkpt><trkpt lat="42.3566264" lon="13.3931327"><ele>666.0</ele><time>2026-05-02T16:09:34.032Z</time></trkpt><trkpt lat="42.3566336" lon="13.3933353"><ele>667.0</ele><time>2026-05-02T16:09:35.032Z</time></trkpt><trkpt lat="42.3566473" lon="13.3935307"><ele>668.0</ele><time>2026-05-02T16:09:36.031Z</time></trkpt><trkpt lat="42.3566751" lon="13.3937193"><ele>669.0</ele><time>2026-05-02T16:09:37.032Z</time></trkpt><trkpt lat="42.3566466" lon="13.3939223"><ele>670.5</ele><time>2026-05-02T16:09:38.032Z</time></trkpt><trkpt lat="42.3566275" lon="13.3941083"><ele>672.0</ele><time>2026-05-02T16:09:39.032Z</time></trkpt><trkpt lat="42.3566214" lon="13.3942829"><ele>673.5</ele><time>2026-05-02T16:09:40.032Z</time></trkpt><trkpt lat="42.3566151" lon="13.3944343"><ele>675.0</ele><time>2026-05-02T16:09:41.032Z</time></trkpt><trkpt lat="42.3566103" lon="13.3945638"><ele>675.1666666666666</ele><time>2026-05-02T16:09:42.032Z</time></trkpt><trkpt lat="42.3566036" lon="13.3946808"><ele>675.3333333333334</ele><time>2026-05-02T16:09:43.032Z</time></trkpt><trkpt lat="42.3566011" lon="13.394792"><ele>675.5</ele><time>2026-05-02T16:09:44.032Z</time></trkpt><trkpt lat="42.356598" lon="13.3948969"><ele>675.6666666666667</ele><time>2026-05-02T16:09:45.032Z</time></trkpt><trkpt lat="42.356593" lon="13.395001"><ele>675.8333333333334</ele><time>2026-05-02T16:09:46.032Z</time></trkpt><trkpt lat="42.3565909" lon="13.3951072"><ele>676.0</ele><time>2026-05-02T16:09:47.032Z</time></trkpt><trkpt lat="42.3565924" lon="13.3952236"><ele>676.0</ele><time>2026-05-02T16:09:48.032Z</time></trkpt><trkpt lat="42.3565876" lon="13.3953422"><ele>676.0</ele><time>2026-05-02T16:09:49.031Z</time></trkpt><trkpt lat="42.356584" lon="13.3954602"><ele>676.0</ele><time>2026-05-02T16:09:50.032Z</time></trkpt><trkpt lat="42.3565818" lon="13.3955743"><ele>676.0</ele><time>2026-05-02T16:09:51.032Z</time></trkpt><trkpt lat="42.3565738" lon="13.3956831"><ele>676.0</ele><time>2026-05-02T16:09:52.032Z</time></trkpt><trkpt lat="42.3565719" lon="13.3957933"><ele>676.0</ele><time>2026-05-02T16:09:53.031Z</time></trkpt><trkpt lat="42.3565688" lon="13.3959026"><ele>675.6666666666667</ele><time>2026-05-02T16:09:54.032Z</time></trkpt><trkpt lat="42.3565652" lon="13.3960063"><ele>675.3333333333334</ele><time>2026-05-02T16:09:55.032Z</time></trkpt><trkpt lat="42.3565621" lon="13.3961054"><ele>675.0</ele><time>2026-05-02T16:09:56.032Z</time></trkpt><trkpt lat="42.3565584" lon="13.3962037"><ele>674.6666666666666</ele><time>2026-05-02T16:09:57.031Z</time></trkpt><trkpt lat="42.3565558" lon="13.3963026"><ele>674.3333333333333</ele><time>2026-05-02T16:09:58.032Z</time></trkpt><trkpt lat="42.3565553" lon="13.3964099"><ele>674.0</ele><time>2026-05-02T16:09:59.032Z</time></trkpt><trkpt lat="42.3565478" lon="13.3965298"><ele>675.0</ele><time>2026-05-02T16:10:00.032Z</time></trkpt><trkpt lat="42.3565352" lon="13.3966603"><ele>676.0</ele><time>2026-05-02T16:10:01.032Z</time></trkpt><trkpt lat="42.3565208" lon="13.3968009"><ele>677.0</ele><time>2026-05-02T16:10:02.032Z</time></trkpt><trkpt lat="42.3565041" lon="13.3969429"><ele>678.0</ele><time>2026-05-02T16:10:03.032Z</time></trkpt><trkpt lat="42.356491" lon="13.397083"><ele>679.0</ele><time>2026-05-02T16:10:04.032Z</time></trkpt><trkpt lat="42.3564852" lon="13.3972223"><ele>680.8000000000001</ele><time>2026-05-02T16:10:05.031Z</time></trkpt><trkpt lat="42.356488" lon="13.3973664"><ele>682.6</ele><time>2026-05-02T16:10:06.031Z</time></trkpt><trkpt lat="42.3564999" lon="13.397508"><ele>684.4</ele><time>2026-05-02T16:10:07.032Z</time></trkpt><trkpt lat="42.3565261" lon="13.3976551"><ele>686.2</ele><time>2026-05-02T16:10:08.032Z</time></trkpt><trkpt lat="42.356564" lon="13.3978054"><ele>688.0</ele><time>2026-05-02T16:10:09.032Z</time></trkpt><trkpt lat="42.356607" lon="13.3979427"><ele>688.2</ele><time>2026-05-02T16:10:10.031Z</time></trkpt><trkpt lat="42.3566535" lon="13.3980696"><ele>688.4</ele><time>2026-05-02T16:10:11.032Z</time></trkpt><trkpt lat="42.3567062" lon="13.3981862"><ele>688.6</ele><time>2026-05-02T16:10:12.031Z</time></trkpt><trkpt lat="42.3567652" lon="13.3983075"><ele>688.8000000000001</ele><time>2026-05-02T16:10:13.032Z</time></trkpt><trkpt lat="42.3568235" lon="13.3984326"><ele>689.0</ele><time>2026-05-02T16:10:14.032Z</time></trkpt><trkpt lat="42.356881" lon="13.3985601"><ele>689.0</ele><time>2026-05-02T16:10:15.032Z</time></trkpt><trkpt lat="42.3569302" lon="13.3986842"><ele>689.0</ele><time>2026-05-02T16:10:16.032Z</time></trkpt><trkpt lat="42.3569733" lon="13.3988258"><ele>689.0</ele><time>2026-05-02T16:10:17.032Z</time></trkpt><trkpt lat="42.3570023" lon="13.3989729"><ele>689.0</ele><time>2026-05-02T16:10:18.031Z</time></trkpt><trkpt lat="42.3570193" lon="13.3991197"><ele>689.0</ele><time>2026-05-02T16:10:19.032Z</time></trkpt><trkpt lat="42.3570252" lon="13.3992603"><ele>689.8333333333333</ele><time>2026-05-02T16:10:20.032Z</time></trkpt><trkpt lat="42.3570273" lon="13.3993808"><ele>690.6666666666666</ele><time>2026-05-02T16:10:21.032Z</time></trkpt><trkpt lat="42.3570264" lon="13.3994779"><ele>691.5</ele><time>2026-05-02T16:10:22.032Z</time></trkpt><trkpt lat="42.357023" lon="13.399619"><ele>692.3333333333334</ele><time>2026-05-02T16:10:24.032Z</time></trkpt><trkpt lat="42.3570277" lon="13.3997167"><ele>693.1666666666667</ele><time>2026-05-02T16:10:27.032Z</time></trkpt><trkpt lat="42.357024" lon="13.3998173"><ele>694.0</ele><time>2026-05-02T16:10:30.032Z</time></trkpt><trkpt lat="42.3570261" lon="13.3999417"><ele>695.0</ele><time>2026-05-02T16:10:33.031Z</time></trkpt><trkpt lat="42.3570242" lon="13.400053"><ele>696.0</ele><time>2026-05-02T16:10:35.032Z</time></trkpt><trkpt lat="42.3570269" lon="13.4001523"><ele>697.0</ele><time>2026-05-02T16:10:37.032Z</time></trkpt><trkpt lat="42.3570373" lon="13.40026"><ele>698.0</ele><time>2026-05-02T16:10:40.032Z</time></trkpt><trkpt lat="42.3570438" lon="13.400349"><ele>699.0</ele><time>2026-05-02T16:10:49.032Z</time></trkpt><trkpt lat="42.3570325" lon="13.4004765"><ele>700.0</ele><time>2026-05-02T16:10:52.032Z</time></trkpt><trkpt lat="42.3570277" lon="13.4006023"><ele>700.6666666666667</ele><time>2026-05-02T16:10:54.031Z</time></trkpt><trkpt lat="42.3570297" lon="13.4007247"><ele>701.3333333333334</ele><time>2026-05-02T16:10:56.032Z</time></trkpt><trkpt lat="42.3570361" lon="13.4008478"><ele>702.0</ele><time>2026-05-02T16:10:58.032Z</time></trkpt><trkpt lat="42.3570346" lon="13.4010032"><ele>702.6666666666666</ele><time>2026-05-02T16:11:00.032Z</time></trkpt><trkpt lat="42.357038" lon="13.4010922"><ele>703.3333333333333</ele><time>2026-05-02T16:11:01.032Z</time></trkpt><trkpt lat="42.3570426" lon="13.4011907"><ele>704.0</ele><time>2026-05-02T16:11:02.032Z</time></trkpt><trkpt lat="42.3570411" lon="13.4012939"><ele>703.8333333333333</ele><time>2026-05-02T16:11:03.032Z</time></trkpt><trkpt lat="42.3570438" lon="13.4013976"><ele>703.6666666666666</ele><time>2026-05-02T16:11:04.032Z</time></trkpt><trkpt lat="42.357046" lon="13.4014996"><ele>703.5</ele><time>2026-05-02T16:11:05.031Z</time></trkpt><trkpt lat="42.3570455" lon="13.4016033"><ele>703.3333333333334</ele><time>2026-05-02T16:11:06.032Z</time></trkpt><trkpt lat="42.3570443" lon="13.4017131"><ele>703.1666666666667</ele><time>2026-05-02T16:11:07.032Z</time></trkpt><trkpt lat="42.3570449" lon="13.4018215"><ele>703.0</ele><time>2026-05-02T16:11:08.032Z</time></trkpt><trkpt lat="42.3570457" lon="13.4019372"><ele>703.0</ele><time>2026-05-02T16:11:09.032Z</time></trkpt><trkpt lat="42.3570478" lon="13.4020545"><ele>703.0</ele><time>2026-05-02T16:11:10.032Z</time></trkpt><trkpt lat="42.3570525" lon="13.4021706"><ele>703.0</ele><time>2026-05-02T16:11:11.031Z</time></trkpt><trkpt lat="42.3570523" lon="13.4022836"><ele>703.0</ele><time>2026-05-02T16:11:12.032Z</time></trkpt><trkpt lat="42.357053" lon="13.4023983"><ele>703.0</ele><time>2026-05-02T16:11:13.032Z</time></trkpt><trkpt lat="42.3570543" lon="13.402512"><ele>703.0</ele><time>2026-05-02T16:11:14.032Z</time></trkpt><trkpt lat="42.3570611" lon="13.4026176"><ele>703.0</ele><time>2026-05-02T16:11:15.032Z</time></trkpt><trkpt lat="42.3570732" lon="13.4027158"><ele>703.0</ele><time>2026-05-02T16:11:16.032Z</time></trkpt><trkpt lat="42.3570848" lon="13.4028215"><ele>703.0</ele><time>2026-05-02T16:11:17.031Z</time></trkpt><trkpt lat="42.3571028" lon="13.4029215"><ele>703.0</ele><time>2026-05-02T16:11:18.032Z</time></trkpt><trkpt lat="42.357131" lon="13.4030246"><ele>703.0</ele><time>2026-05-02T16:11:19.032Z</time></trkpt><trkpt lat="42.3571695" lon="13.4031237"><ele>703.0</ele><time>2026-05-02T16:11:20.032Z</time></trkpt><trkpt lat="42.3572053" lon="13.4032082"><ele>703.0</ele><time>2026-05-02T16:11:21.032Z</time></trkpt><trkpt lat="42.3572441" lon="13.4033006"><ele>703.0</ele><time>2026-05-02T16:11:22.032Z</time></trkpt><trkpt lat="42.35728" lon="13.4033889"><ele>703.0</ele><time>2026-05-02T16:11:23.032Z</time></trkpt><trkpt lat="42.3573116" lon="13.4034729"><ele>703.0</ele><time>2026-05-02T16:11:24.032Z</time></trkpt><trkpt lat="42.3573485" lon="13.4035601"><ele>703.0</ele><time>2026-05-02T16:11:25.031Z</time></trkpt><trkpt lat="42.3573839" lon="13.4036524"><ele>703.0</ele><time>2026-05-02T16:11:26.032Z</time></trkpt><trkpt lat="42.3574192" lon="13.4037504"><ele>702.8333333333334</ele><time>2026-05-02T16:11:27.032Z</time></trkpt><trkpt lat="42.3574558" lon="13.4038531"><ele>702.6666666666667</ele><time>2026-05-02T16:11:28.032Z</time></trkpt><trkpt lat="42.3574937" lon="13.4039516"><ele>702.5</ele><time>2026-05-02T16:11:29.032Z</time></trkpt><trkpt lat="42.357528" lon="13.4040466"><ele>702.3333333333334</ele><time>2026-05-02T16:11:30.032Z</time></trkpt><trkpt lat="42.3575601" lon="13.4041417"><ele>702.1666666666666</ele><time>2026-05-02T16:11:31.031Z</time></trkpt><trkpt lat="42.3575923" lon="13.4042235"><ele>702.0</ele><time>2026-05-02T16:11:32.032Z</time></trkpt><trkpt lat="42.3576357" lon="13.4043619"><ele>702.0</ele><time>2026-05-02T16:11:34.032Z</time></trkpt><trkpt lat="42.3576448" lon="13.4045134"><ele>702.0</ele><time>2026-05-02T16:11:36.032Z</time></trkpt><trkpt lat="42.3575936" lon="13.4046824"><ele>702.0</ele><time>2026-05-02T16:11:38.032Z</time></trkpt><trkpt lat="42.3575446" lon="13.4047678"><ele>702.0</ele><time>2026-05-02T16:11:39.031Z</time></trkpt><trkpt lat="42.3574792" lon="13.4048373"><ele>702.0</ele><time>2026-05-02T16:11:40.032Z</time></trkpt><trkpt lat="42.357402" lon="13.4048814"><ele>703.2</ele><time>2026-05-02T16:11:41.032Z</time></trkpt><trkpt lat="42.3573164" lon="13.4049043"><ele>704.4000000000001</ele><time>2026-05-02T16:11:42.032Z</time></trkpt><trkpt lat="42.3572214" lon="13.404916"><ele>705.5999999999999</ele><time>2026-05-02T16:11:43.032Z</time></trkpt><trkpt lat="42.3571297" lon="13.404925"><ele>706.8</ele><time>2026-05-02T16:11:44.032Z</time></trkpt><trkpt lat="42.357026" lon="13.4049382"><ele>708.0</ele><time>2026-05-02T16:11:45.032Z</time></trkpt><trkpt lat="42.3569332" lon="13.4049493"><ele>708.0</ele><time>2026-05-02T16:11:46.032Z</time></trkpt><trkpt lat="42.3568488" lon="13.4049669"><ele>708.0</ele><time>2026-05-02T16:11:47.031Z</time></trkpt><trkpt lat="42.3567708" lon="13.4049923"><ele>708.0</ele><time>2026-05-02T16:11:48.032Z</time></trkpt><trkpt lat="42.3566999" lon="13.4050327"><ele>708.0</ele><time>2026-05-02T16:11:49.032Z</time></trkpt><trkpt lat="42.3566321" lon="13.4050789"><ele>708.0</ele><time>2026-05-02T16:11:50.032Z</time></trkpt><trkpt lat="42.3565686" lon="13.4051302"><ele>708.0</ele><time>2026-05-02T16:11:51.032Z</time></trkpt><trkpt lat="42.3564788" lon="13.4052057"><ele>708.0</ele><time>2026-05-02T16:11:53.032Z</time></trkpt><trkpt lat="42.3564134" lon="13.4052597"><ele>708.0</ele><time>2026-05-02T16:11:55.032Z</time></trkpt><trkpt lat="42.3563374" lon="13.4053314"><ele>708.0</ele><time>2026-05-02T16:11:57.031Z</time></trkpt><trkpt lat="42.3562618" lon="13.4054051"><ele>708.0</ele><time>2026-05-02T16:11:59.031Z</time></trkpt><trkpt lat="42.3562038" lon="13.4054527"><ele>708.0</ele><time>2026-05-02T16:12:01.03Z</time></trkpt><trkpt lat="42.3561433" lon="13.4055154"><ele>708.0</ele><time>2026-05-02T16:12:04.031Z</time></trkpt><trkpt lat="42.3560851" lon="13.4055555"><ele>708.5999999999999</ele><time>2026-05-02T16:12:07.031Z</time></trkpt><trkpt lat="42.3560249" lon="13.4055903"><ele>709.1999999999999</ele><time>2026-05-02T16:12:10.031Z</time></trkpt><trkpt lat="42.3559488" lon="13.4056085"><ele>709.8</ele><time>2026-05-02T16:12:12.031Z</time></trkpt><trkpt lat="42.3558419" lon="13.4055546"><ele>710.4</ele><time>2026-05-02T16:12:14.031Z</time></trkpt><trkpt lat="42.3557535" lon="13.4054054"><ele>711.0</ele><time>2026-05-02T16:12:16.031Z</time></trkpt><trkpt lat="42.3557354" lon="13.4053019"><ele>711.0</ele><time>2026-05-02T16:12:17.031Z</time></trkpt><trkpt lat="42.3557051" lon="13.4051919"><ele>711.0</ele><time>2026-05-02T16:12:18.03Z</time></trkpt><trkpt lat="42.3556745" lon="13.4050817"><ele>711.0</ele><time>2026-05-02T16:12:19.03Z</time></trkpt><trkpt lat="42.3556475" lon="13.4049682"><ele>711.0</ele><time>2026-05-02T16:12:20.031Z</time></trkpt><trkpt lat="42.3556207" lon="13.4048484"><ele>711.0</ele><time>2026-05-02T16:12:21.031Z</time></trkpt><trkpt lat="42.3555928" lon="13.4047256"><ele>711.0</ele><time>2026-05-02T16:12:22.031Z</time></trkpt><trkpt lat="42.3555654" lon="13.404598"><ele>709.5999999999999</ele><time>2026-05-02T16:12:23.031Z</time></trkpt><trkpt lat="42.3555386" lon="13.4044691"><ele>708.2</ele><time>2026-05-02T16:12:24.031Z</time></trkpt><trkpt lat="42.3555104" lon="13.4043414"><ele>706.8</ele><time>2026-05-02T16:12:25.03Z</time></trkpt><trkpt lat="42.3554818" lon="13.4042163"><ele>705.4000000000001</ele><time>2026-05-02T16:12:26.03Z</time></trkpt><trkpt lat="42.3554544" lon="13.4040936"><ele>704.0</ele><time>2026-05-02T16:12:27.03Z</time></trkpt><trkpt lat="42.355428" lon="13.4039676"><ele>707.8000000000001</ele><time>2026-05-02T16:12:28.031Z</time></trkpt><trkpt lat="42.3554046" lon="13.4038491"><ele>711.6</ele><time>2026-05-02T16:12:29.03Z</time></trkpt><trkpt lat="42.3553763" lon="13.4037281"><ele>715.4</ele><time>2026-05-02T16:12:30.031Z</time></trkpt><trkpt lat="42.3553491" lon="13.4036042"><ele>719.2</ele><time>2026-05-02T16:12:31.03Z</time></trkpt><trkpt lat="42.3553167" lon="13.4034805"><ele>723.0</ele><time>2026-05-02T16:12:32.03Z</time></trkpt><trkpt lat="42.3552744" lon="13.403355"><ele>723.0</ele><time>2026-05-02T16:12:33.031Z</time></trkpt><trkpt lat="42.3552241" lon="13.403226"><ele>723.0</ele><time>2026-05-02T16:12:34.031Z</time></trkpt><trkpt lat="42.3551653" lon="13.4030962"><ele>723.0</ele><time>2026-05-02T16:12:35.031Z</time></trkpt><trkpt lat="42.3550998" lon="13.4029779"><ele>723.0</ele><time>2026-05-02T16:12:36.03Z</time></trkpt><trkpt lat="42.355027" lon="13.4028685"><ele>723.0</ele><time>2026-05-02T16:12:37.031Z</time></trkpt><trkpt lat="42.3549536" lon="13.4027767"><ele>721.8333333333334</ele><time>2026-05-02T16:12:38.031Z</time></trkpt><trkpt lat="42.3548891" lon="13.402691"><ele>720.6666666666666</ele><time>2026-05-02T16:12:39.03Z</time></trkpt><trkpt lat="42.3548241" lon="13.4026277"><ele>719.5</ele><time>2026-05-02T16:12:40.031Z</time></trkpt><trkpt lat="42.354766" lon="13.4025665"><ele>718.3333333333333</ele><time>2026-05-02T16:12:41.031Z</time></trkpt><trkpt lat="42.3547059" lon="13.4024895"><ele>717.1666666666666</ele><time>2026-05-02T16:12:43.031Z</time></trkpt><trkpt lat="42.3546195" lon="13.4023914"><ele>716.0</ele><time>2026-05-02T16:12:49.031Z</time></trkpt><trkpt lat="42.3545388" lon="13.4022925"><ele>718.4</ele><time>2026-05-02T16:12:51.031Z</time></trkpt><trkpt lat="42.3544478" lon="13.4021841"><ele>720.8</ele><time>2026-05-02T16:12:53.031Z</time></trkpt><trkpt lat="42.3543977" lon="13.4021178"><ele>723.1999999999999</ele><time>2026-05-02T16:12:54.031Z</time></trkpt><trkpt lat="42.3543548" lon="13.4020522"><ele>725.5999999999999</ele><time>2026-05-02T16:12:55.031Z</time></trkpt><trkpt lat="42.3543127" lon="13.4019291"><ele>728.0</ele><time>2026-05-02T16:12:57.032Z</time></trkpt><trkpt lat="42.3543067" lon="13.4017894"><ele>728.0</ele><time>2026-05-02T16:12:59.031Z</time></trkpt><trkpt lat="42.3543189" lon="13.4016509"><ele>728.0</ele><time>2026-05-02T16:13:01.032Z</time></trkpt><trkpt lat="42.3543341" lon="13.401543"><ele>728.0</ele><time>2026-05-02T16:13:03.032Z</time></trkpt><trkpt lat="42.3543128" lon="13.4014388"><ele>728.0</ele><time>2026-05-02T16:13:06.032Z</time></trkpt><trkpt lat="42.3542541" lon="13.4013771"><ele>728.0</ele><time>2026-05-02T16:13:09.032Z</time></trkpt><trkpt lat="42.35418" lon="13.4013358"><ele>728.0</ele><time>2026-05-02T16:13:12.032Z</time></trkpt><trkpt lat="42.3541029" lon="13.4013215"><ele>728.5</ele><time>2026-05-02T16:13:15.032Z</time></trkpt><trkpt lat="42.3540234" lon="13.4012864"><ele>729.0</ele><time>2026-05-02T16:13:18.032Z</time></trkpt><trkpt lat="42.3539571" lon="13.401247"><ele>729.5</ele><time>2026-05-02T16:13:22.032Z</time></trkpt><trkpt lat="42.3538966" lon="13.4012087"><ele>730.0</ele><time>2026-05-02T16:13:25.032Z</time></trkpt><trkpt lat="42.3538198" lon="13.4011735"><ele>730.5</ele><time>2026-05-02T16:13:28.032Z</time></trkpt><trkpt lat="42.3537428" lon="13.4011357"><ele>731.0</ele><time>2026-05-02T16:13:32.032Z</time></trkpt><trkpt lat="42.3536884" lon="13.4011927"><ele>731.5</ele><time>2026-05-02T16:13:40.031Z</time></trkpt><trkpt lat="42.3536927" lon="13.4012947"><ele>732.0</ele><time>2026-05-02T16:13:43.032Z</time></trkpt><trkpt lat="42.3537154" lon="13.4013812"><ele>732.5</ele><time>2026-05-02T16:13:46.031Z</time></trkpt><trkpt lat="42.3537527" lon="13.401476"><ele>733.0</ele><time>2026-05-02T16:13:49.031Z</time></trkpt><trkpt lat="42.3537987" lon="13.4015734"><ele>733.5</ele><time>2026-05-02T16:13:52.031Z</time></trkpt><trkpt lat="42.353778" lon="13.4016884"><ele>734.0</ele><time>2026-05-02T16:13:55.032Z</time></trkpt><trkpt lat="42.3537646" lon="13.401792"><ele>734.0</ele><time>2026-05-02T16:13:57.032Z</time></trkpt><trkpt lat="42.3537442" lon="13.4018758"><ele>734.0</ele><time>2026-05-02T16:13:59.031Z</time></trkpt><trkpt lat="42.3537288" lon="13.4019818"><ele>734.0</ele><time>2026-05-02T16:14:02.032Z</time></trkpt><trkpt lat="42.3537372" lon="13.4021033"><ele>734.0</ele><time>2026-05-02T16:14:05.032Z</time></trkpt><trkpt lat="42.3537275" lon="13.4022012"><ele>734.0</ele><time>2026-05-02T16:14:08.032Z</time></trkpt><trkpt lat="42.3537474" lon="13.4023038"><ele>734.0</ele><time>2026-05-02T16:14:18.032Z</time></trkpt><trkpt lat="42.3537618" lon="13.4022099"><ele>734.0</ele><time>2026-05-02T16:53:02.035Z</time></trkpt><trkpt lat="42.3537534" lon="13.4021012"><ele>734.0</ele><time>2026-05-02T16:53:05.034Z</time></trkpt><trkpt lat="42.3537429" lon="13.4020003"><ele>734.0</ele><time>2026-05-02T16:53:09.035Z</time></trkpt><trkpt lat="42.3537594" lon="13.4019155"><ele>734.0</ele><time>2026-05-02T16:53:12.035Z</time></trkpt><trkpt lat="42.3537763" lon="13.4018274"><ele>734.0</ele><time>2026-05-02T16:53:16.034Z</time></trkpt><trkpt lat="42.3537728" lon="13.4017409"><ele>734.0</ele><time>2026-05-02T16:53:24.035Z</time></trkpt><trkpt lat="42.3538323" lon="13.4016609"><ele>734.0</ele><time>2026-05-02T16:53:28.035Z</time></trkpt><trkpt lat="42.3539014" lon="13.4016138"><ele>733.0</ele><time>2026-05-02T16:53:31.035Z</time></trkpt><trkpt lat="42.3539625" lon="13.4016481"><ele>732.0</ele><time>2026-05-02T16:53:33.035Z</time></trkpt><trkpt lat="42.3540225" lon="13.4017108"><ele>731.0</ele><time>2026-05-02T16:53:35.034Z</time></trkpt><trkpt lat="42.3540793" lon="13.401779"><ele>730.0</ele><time>2026-05-02T16:53:37.034Z</time></trkpt><trkpt lat="42.3541514" lon="13.4018431"><ele>729.0</ele><time>2026-05-02T16:53:39.035Z</time></trkpt><trkpt lat="42.3542307" lon="13.4019367"><ele>728.0</ele><time>2026-05-02T16:53:41.035Z</time></trkpt><trkpt lat="42.3543057" lon="13.4020489"><ele>728.0</ele><time>2026-05-02T16:53:43.035Z</time></trkpt><trkpt lat="42.3543994" lon="13.4021497"><ele>728.0</ele><time>2026-05-02T16:53:45.035Z</time></trkpt><trkpt lat="42.3544914" lon="13.4022631"><ele>728.0</ele><time>2026-05-02T16:53:47.035Z</time></trkpt><trkpt lat="42.3545381" lon="13.4023207"><ele>728.0</ele><time>2026-05-02T16:53:48.034Z</time></trkpt><trkpt lat="42.354633" lon="13.402426"><ele>728.0</ele><time>2026-05-02T16:53:50.035Z</time></trkpt><trkpt lat="42.3547241" lon="13.4025319"><ele>726.0</ele><time>2026-05-02T16:53:52.035Z</time></trkpt><trkpt lat="42.3547717" lon="13.4025953"><ele>724.0</ele><time>2026-05-02T16:53:53.035Z</time></trkpt><trkpt lat="42.3548641" lon="13.4027038"><ele>722.0</ele><time>2026-05-02T16:53:55.035Z</time></trkpt><trkpt lat="42.3549343" lon="13.4027864"><ele>720.0</ele><time>2026-05-02T16:53:57.035Z</time></trkpt><trkpt lat="42.3549903" lon="13.4028559"><ele>718.0</ele><time>2026-05-02T16:54:01.035Z</time></trkpt><trkpt lat="42.355048" lon="13.4029358"><ele>716.0</ele><time>2026-05-02T16:54:04.035Z</time></trkpt><trkpt lat="42.3550997" lon="13.402995"><ele>717.1666666666666</ele><time>2026-05-02T16:54:06.035Z</time></trkpt><trkpt lat="42.3551414" lon="13.4030725"><ele>718.3333333333333</ele><time>2026-05-02T16:54:08.034Z</time></trkpt><trkpt lat="42.355185" lon="13.4031682"><ele>719.5</ele><time>2026-05-02T16:54:10.035Z</time></trkpt><trkpt lat="42.355235" lon="13.403276"><ele>720.6666666666666</ele><time>2026-05-02T16:54:12.034Z</time></trkpt><trkpt lat="42.355282" lon="13.4033869"><ele>721.8333333333334</ele><time>2026-05-02T16:54:14.035Z</time></trkpt><trkpt lat="42.3553104" lon="13.4035073"><ele>723.0</ele><time>2026-05-02T16:54:16.034Z</time></trkpt><trkpt lat="42.3553383" lon="13.4036425"><ele>723.0</ele><time>2026-05-02T16:54:18.035Z</time></trkpt><trkpt lat="42.3553621" lon="13.4037686"><ele>723.0</ele><time>2026-05-02T16:54:20.035Z</time></trkpt><trkpt lat="42.3553802" lon="13.4038699"><ele>723.0</ele><time>2026-05-02T16:54:22.035Z</time></trkpt><trkpt lat="42.3554023" lon="13.4039632"><ele>723.0</ele><time>2026-05-02T16:54:25.035Z</time></trkpt><trkpt lat="42.3554254" lon="13.4040528"><ele>723.0</ele><time>2026-05-02T16:54:29.035Z</time></trkpt><trkpt lat="42.3554506" lon="13.4041515"><ele>723.0</ele><time>2026-05-02T16:54:33.035Z</time></trkpt><trkpt lat="42.3554776" lon="13.4042351"><ele>724.4</ele><time>2026-05-02T16:54:37.034Z</time></trkpt><trkpt lat="42.3554943" lon="13.4043561"><ele>725.8</ele><time>2026-05-02T16:54:45.035Z</time></trkpt><trkpt lat="42.355508" lon="13.4044561"><ele>727.2</ele><time>2026-05-02T16:54:47.035Z</time></trkpt><trkpt lat="42.3555288" lon="13.4045751"><ele>728.6</ele><time>2026-05-02T16:54:49.035Z</time></trkpt><trkpt lat="42.3555524" lon="13.4047084"><ele>730.0</ele><time>2026-05-02T16:54:51.035Z</time></trkpt><trkpt lat="42.3555862" lon="13.4048457"><ele>726.2</ele><time>2026-05-02T16:54:53.035Z</time></trkpt><trkpt lat="42.3556037" lon="13.4050099"><ele>722.4</ele><time>2026-05-02T16:54:55.035Z</time></trkpt><trkpt lat="42.3556227" lon="13.4050985"><ele>718.5999999999999</ele><time>2026-05-02T16:54:56.035Z</time></trkpt><trkpt lat="42.3556443" lon="13.4051917"><ele>714.8</ele><time>2026-05-02T16:54:57.035Z</time></trkpt><trkpt lat="42.3556628" lon="13.4052841"><ele>711.0</ele><time>2026-05-02T16:54:58.034Z</time></trkpt><trkpt lat="42.3556937" lon="13.4054353"><ele>711.1666666666666</ele><time>2026-05-02T16:55:00.035Z</time></trkpt><trkpt lat="42.3557243" lon="13.4055522"><ele>711.3333333333334</ele><time>2026-05-02T16:55:02.035Z</time></trkpt><trkpt lat="42.3557305" lon="13.4056511"><ele>711.5</ele><time>2026-05-02T16:55:04.035Z</time></trkpt><trkpt lat="42.3557315" lon="13.4057575"><ele>711.6666666666667</ele><time>2026-05-02T16:55:07.035Z</time></trkpt><trkpt lat="42.3557376" lon="13.4058573"><ele>711.8333333333334</ele><time>2026-05-02T16:55:09.035Z</time></trkpt><trkpt lat="42.3557512" lon="13.4059853"><ele>712.0</ele><time>2026-05-02T16:55:11.034Z</time></trkpt><trkpt lat="42.3557794" lon="13.4061214"><ele>712.0</ele><time>2026-05-02T16:55:13.035Z</time></trkpt><trkpt lat="42.3557919" lon="13.4062687"><ele>712.0</ele><time>2026-05-02T16:55:15.034Z</time></trkpt><trkpt lat="42.3557863" lon="13.4063536"><ele>712.0</ele><time>2026-05-02T16:55:16.035Z</time></trkpt><trkpt lat="42.355764" lon="13.4064342"><ele>712.0</ele><time>2026-05-02T16:55:17.035Z</time></trkpt><trkpt lat="42.3557272" lon="13.4065179"><ele>712.0</ele><time>2026-05-02T16:55:18.035Z</time></trkpt><trkpt lat="42.3556865" lon="13.406597"><ele>712.0</ele><time>2026-05-02T16:55:19.035Z</time></trkpt><trkpt lat="42.3556436" lon="13.406673"><ele>712.0</ele><time>2026-05-02T16:55:20.035Z</time></trkpt><trkpt lat="42.3556021" lon="13.4067462"><ele>712.0</ele><time>2026-05-02T16:55:21.035Z</time></trkpt><trkpt lat="42.3555561" lon="13.4068056"><ele>712.0</ele><time>2026-05-02T16:55:22.035Z</time></trkpt><trkpt lat="42.3554996" lon="13.4068549"><ele>712.0</ele><time>2026-05-02T16:55:23.035Z</time></trkpt><trkpt lat="42.3553906" lon="13.4069267"><ele>712.0</ele><time>2026-05-02T16:55:25.034Z</time></trkpt><trkpt lat="42.3553396" lon="13.4069854"><ele>712.0</ele><time>2026-05-02T16:55:26.035Z</time></trkpt><trkpt lat="42.3552939" lon="13.4070614"><ele>712.0</ele><time>2026-05-02T16:55:27.034Z</time></trkpt><trkpt lat="42.3552483" lon="13.4071461"><ele>712.0</ele><time>2026-05-02T16:55:28.035Z</time></trkpt><trkpt lat="42.3551999" lon="13.407228"><ele>712.0</ele><time>2026-05-02T16:55:29.035Z</time></trkpt><trkpt lat="42.3551455" lon="13.4073165"><ele>712.0</ele><time>2026-05-02T16:55:30.035Z</time></trkpt><trkpt lat="42.3550897" lon="13.4074072"><ele>712.0</ele><time>2026-05-02T16:55:31.035Z</time></trkpt><trkpt lat="42.3550356" lon="13.4075089"><ele>712.0</ele><time>2026-05-02T16:55:32.035Z</time></trkpt><trkpt lat="42.3549833" lon="13.4076109"><ele>712.0</ele><time>2026-05-02T16:55:33.035Z</time></trkpt><trkpt lat="42.3549312" lon="13.4077187"><ele>712.0</ele><time>2026-05-02T16:55:34.035Z</time></trkpt><trkpt lat="42.3548794" lon="13.4078315"><ele>712.0</ele><time>2026-05-02T16:55:35.034Z</time></trkpt><trkpt lat="42.3548237" lon="13.4079516"><ele>712.0</ele><time>2026-05-02T16:55:36.035Z</time></trkpt><trkpt lat="42.3547678" lon="13.4080588"><ele>712.0</ele><time>2026-05-02T16:55:37.035Z</time></trkpt><trkpt lat="42.3547114" lon="13.408181"><ele>711.0</ele><time>2026-05-02T16:55:38.035Z</time></trkpt><trkpt lat="42.354654" lon="13.4082937"><ele>710.0</ele><time>2026-05-02T16:55:39.035Z</time></trkpt><trkpt lat="42.3545966" lon="13.4084152"><ele>709.0</ele><time>2026-05-02T16:55:40.035Z</time></trkpt><trkpt lat="42.3545398" lon="13.4085304"><ele>708.0</ele><time>2026-05-02T16:55:41.035Z</time></trkpt><trkpt lat="42.3544844" lon="13.4086422"><ele>707.0</ele><time>2026-05-02T16:55:42.035Z</time></trkpt><trkpt lat="42.3544279" lon="13.4087546"><ele>708.4000000000001</ele><time>2026-05-02T16:55:43.035Z</time></trkpt><trkpt lat="42.3543709" lon="13.4088617"><ele>709.8000000000001</ele><time>2026-05-02T16:55:44.035Z</time></trkpt><trkpt lat="42.3543133" lon="13.4089601"><ele>711.2</ele><time>2026-05-02T16:55:45.034Z</time></trkpt><trkpt lat="42.3542521" lon="13.4090629"><ele>712.6</ele><time>2026-05-02T16:55:46.035Z</time></trkpt><trkpt lat="42.354192" lon="13.4091626"><ele>714.0</ele><time>2026-05-02T16:55:47.035Z</time></trkpt><trkpt lat="42.3541316" lon="13.4092445"><ele>714.0</ele><time>2026-05-02T16:55:48.035Z</time></trkpt><trkpt lat="42.3540743" lon="13.4093218"><ele>714.0</ele><time>2026-05-02T16:55:49.034Z</time></trkpt><trkpt lat="42.3540202" lon="13.4093932"><ele>714.0</ele><time>2026-05-02T16:55:50.035Z</time></trkpt><trkpt lat="42.3539705" lon="13.4094641"><ele>714.0</ele><time>2026-05-02T16:55:51.035Z</time></trkpt><trkpt lat="42.3539172" lon="13.4095414"><ele>714.0</ele><time>2026-05-02T16:55:52.034Z</time></trkpt><trkpt lat="42.3538682" lon="13.4096095"><ele>714.0</ele><time>2026-05-02T16:55:53.035Z</time></trkpt><trkpt lat="42.3538182" lon="13.4096817"><ele>713.8333333333334</ele><time>2026-05-02T16:55:54.034Z</time></trkpt><trkpt lat="42.3537646" lon="13.4097609"><ele>713.6666666666666</ele><time>2026-05-02T16:55:55.035Z</time></trkpt><trkpt lat="42.3537076" lon="13.4098454"><ele>713.5</ele><time>2026-05-02T16:55:56.035Z</time></trkpt><trkpt lat="42.3536503" lon="13.4099378"><ele>713.3333333333333</ele><time>2026-05-02T16:55:57.035Z</time></trkpt><trkpt lat="42.3535915" lon="13.4100218"><ele>713.1666666666666</ele><time>2026-05-02T16:55:58.035Z</time></trkpt><trkpt lat="42.3535309" lon="13.4101149"><ele>713.0</ele><time>2026-05-02T16:55:59.035Z</time></trkpt><trkpt lat="42.3534689" lon="13.4102"><ele>713.0</ele><time>2026-05-02T16:56:00.035Z</time></trkpt><trkpt lat="42.3534075" lon="13.4102883"><ele>713.0</ele><time>2026-05-02T16:56:01.035Z</time></trkpt><trkpt lat="42.3533447" lon="13.4103701"><ele>713.0</ele><time>2026-05-02T16:56:02.035Z</time></trkpt><trkpt lat="42.3532847" lon="13.4104518"><ele>713.0</ele><time>2026-05-02T16:56:03.035Z</time></trkpt><trkpt lat="42.3532286" lon="13.4105355"><ele>713.0</ele><time>2026-05-02T16:56:04.035Z</time></trkpt><trkpt lat="42.3531701" lon="13.4106168"><ele>713.0</ele><time>2026-05-02T16:56:05.035Z</time></trkpt><trkpt lat="42.3531137" lon="13.4106978"><ele>713.1666666666666</ele><time>2026-05-02T16:56:06.034Z</time></trkpt><trkpt lat="42.3530583" lon="13.4107804"><ele>713.3333333333333</ele><time>2026-05-02T16:56:07.035Z</time></trkpt><trkpt lat="42.3530047" lon="13.4108613"><ele>713.5</ele><time>2026-05-02T16:56:08.035Z</time></trkpt><trkpt lat="42.3529514" lon="13.4109418"><ele>713.6666666666666</ele><time>2026-05-02T16:56:09.035Z</time></trkpt><trkpt lat="42.3529001" lon="13.4110162"><ele>713.8333333333334</ele><time>2026-05-02T16:56:10.035Z</time></trkpt><trkpt lat="42.3528486" lon="13.4110869"><ele>714.0</ele><time>2026-05-02T16:56:11.035Z</time></trkpt><trkpt lat="42.3527968" lon="13.4111615"><ele>714.0</ele><time>2026-05-02T16:56:12.035Z</time></trkpt><trkpt lat="42.3527449" lon="13.4112335"><ele>714.0</ele><time>2026-05-02T16:56:13.034Z</time></trkpt><trkpt lat="42.352696" lon="13.4113074"><ele>714.0</ele><time>2026-05-02T16:56:14.035Z</time></trkpt><trkpt lat="42.352648" lon="13.4113761"><ele>714.0</ele><time>2026-05-02T16:56:15.035Z</time></trkpt><trkpt lat="42.3525975" lon="13.4114484"><ele>714.0</ele><time>2026-05-02T16:56:16.035Z</time></trkpt><trkpt lat="42.3525516" lon="13.4115149"><ele>714.0</ele><time>2026-05-02T16:56:17.035Z</time></trkpt><trkpt lat="42.3525085" lon="13.4115911"><ele>714.0</ele><time>2026-05-02T16:56:18.035Z</time></trkpt><trkpt lat="42.3524587" lon="13.4116669"><ele>714.3333333333334</ele><time>2026-05-02T16:56:19.035Z</time></trkpt><trkpt lat="42.3524134" lon="13.4117434"><ele>714.6666666666666</ele><time>2026-05-02T16:56:20.035Z</time></trkpt><trkpt lat="42.3523631" lon="13.4118161"><ele>715.0</ele><time>2026-05-02T16:56:21.035Z</time></trkpt><trkpt lat="42.3523088" lon="13.4118903"><ele>715.3333333333333</ele><time>2026-05-02T16:56:22.035Z</time></trkpt><trkpt lat="42.3522528" lon="13.4119715"><ele>715.6666666666666</ele><time>2026-05-02T16:56:23.035Z</time></trkpt><trkpt lat="42.3521982" lon="13.4120543"><ele>716.0</ele><time>2026-05-02T16:56:24.035Z</time></trkpt><trkpt lat="42.3521443" lon="13.4121375"><ele>715.8333333333333</ele><time>2026-05-02T16:56:25.035Z</time></trkpt><trkpt lat="42.3520928" lon="13.4122134"><ele>715.6666666666666</ele><time>2026-05-02T16:56:26.035Z</time></trkpt><trkpt lat="42.3520461" lon="13.412292"><ele>715.5</ele><time>2026-05-02T16:56:27.035Z</time></trkpt><trkpt lat="42.3520097" lon="13.4123807"><ele>715.3333333333334</ele><time>2026-05-02T16:56:28.035Z</time></trkpt><trkpt lat="42.3519833" lon="13.4124773"><ele>715.1666666666667</ele><time>2026-05-02T16:56:29.034Z</time></trkpt><trkpt lat="42.3519714" lon="13.4125866"><ele>715.0</ele><time>2026-05-02T16:56:30.035Z</time></trkpt><trkpt lat="42.3519655" lon="13.4127006"><ele>715.0</ele><time>2026-05-02T16:56:31.035Z</time></trkpt><trkpt lat="42.3519731" lon="13.4128169"><ele>715.0</ele><time>2026-05-02T16:56:32.035Z</time></trkpt><trkpt lat="42.3520026" lon="13.4129366"><ele>715.0</ele><time>2026-05-02T16:56:33.035Z</time></trkpt><trkpt lat="42.3520432" lon="13.4130513"><ele>715.0</ele><time>2026-05-02T16:56:34.035Z</time></trkpt><trkpt lat="42.3520864" lon="13.4131642"><ele>715.0</ele><time>2026-05-02T16:56:35.035Z</time></trkpt><trkpt lat="42.3521338" lon="13.4132637"><ele>715.3333333333334</ele><time>2026-05-02T16:56:36.035Z</time></trkpt><trkpt lat="42.3521832" lon="13.4133623"><ele>715.6666666666667</ele><time>2026-05-02T16:56:37.035Z</time></trkpt><trkpt lat="42.3522278" lon="13.4134683"><ele>716.0</ele><time>2026-05-02T16:56:38.035Z</time></trkpt><trkpt lat="42.3522745" lon="13.413571"><ele>716.3333333333334</ele><time>2026-05-02T16:56:39.035Z</time></trkpt><trkpt lat="42.3523183" lon="13.4136773"><ele>716.6666666666666</ele><time>2026-05-02T16:56:40.035Z</time></trkpt><trkpt lat="42.3523611" lon="13.4137879"><ele>717.0</ele><time>2026-05-02T16:56:41.035Z</time></trkpt><trkpt lat="42.3524026" lon="13.4138984"><ele>717.6</ele><time>2026-05-02T16:56:42.034Z</time></trkpt><trkpt lat="42.3524368" lon="13.4140155"><ele>718.2</ele><time>2026-05-02T16:56:43.035Z</time></trkpt><trkpt lat="42.3524538" lon="13.4141472"><ele>718.8</ele><time>2026-05-02T16:56:44.034Z</time></trkpt><trkpt lat="42.3524589" lon="13.4142838"><ele>719.4</ele><time>2026-05-02T16:56:45.035Z</time></trkpt><trkpt lat="42.352451" lon="13.4144214"><ele>720.0</ele><time>2026-05-02T16:56:46.034Z</time></trkpt><trkpt lat="42.3524371" lon="13.4145638"><ele>720.2</ele><time>2026-05-02T16:56:47.035Z</time></trkpt><trkpt lat="42.3524202" lon="13.4147008"><ele>720.4</ele><time>2026-05-02T16:56:48.035Z</time></trkpt><trkpt lat="42.3523924" lon="13.4148385"><ele>720.5999999999999</ele><time>2026-05-02T16:56:49.035Z</time></trkpt><trkpt lat="42.3523559" lon="13.4149738"><ele>720.8</ele><time>2026-05-02T16:56:50.035Z</time></trkpt><trkpt lat="42.3523157" lon="13.4150979"><ele>721.0</ele><time>2026-05-02T16:56:51.035Z</time></trkpt><trkpt lat="42.3522667" lon="13.4152205"><ele>721.0</ele><time>2026-05-02T16:56:52.035Z</time></trkpt><trkpt lat="42.3522128" lon="13.4153373"><ele>721.0</ele><time>2026-05-02T16:56:53.034Z</time></trkpt><trkpt lat="42.3521527" lon="13.4154493"><ele>721.0</ele><time>2026-05-02T16:56:54.035Z</time></trkpt><trkpt lat="42.352095" lon="13.4155583"><ele>721.0</ele><time>2026-05-02T16:56:55.035Z</time></trkpt><trkpt lat="42.352034" lon="13.4156649"><ele>721.0</ele><time>2026-05-02T16:56:56.034Z</time></trkpt><trkpt lat="42.3519734" lon="13.4157597"><ele>721.5</ele><time>2026-05-02T16:56:57.035Z</time></trkpt><trkpt lat="42.3519195" lon="13.4158518"><ele>722.0</ele><time>2026-05-02T16:56:58.035Z</time></trkpt><trkpt lat="42.3518724" lon="13.4159458"><ele>722.5</ele><time>2026-05-02T16:56:59.035Z</time></trkpt><trkpt lat="42.3518353" lon="13.4160418"><ele>723.0</ele><time>2026-05-02T16:57:00.035Z</time></trkpt><trkpt lat="42.3518028" lon="13.4161414"><ele>723.5</ele><time>2026-05-02T16:57:01.035Z</time></trkpt><trkpt lat="42.3517748" lon="13.4162439"><ele>724.0</ele><time>2026-05-02T16:57:02.035Z</time></trkpt><trkpt lat="42.3517467" lon="13.4163543"><ele>724.6</ele><time>2026-05-02T16:57:03.035Z</time></trkpt><trkpt lat="42.3517214" lon="13.4164688"><ele>725.2</ele><time>2026-05-02T16:57:04.035Z</time></trkpt><trkpt lat="42.3517" lon="13.4165847"><ele>725.8000000000001</ele><time>2026-05-02T16:57:05.035Z</time></trkpt><trkpt lat="42.351682" lon="13.4167082"><ele>726.4000000000001</ele><time>2026-05-02T16:57:06.035Z</time></trkpt><trkpt lat="42.3516641" lon="13.4168348"><ele>727.0</ele><time>2026-05-02T16:57:07.035Z</time></trkpt><trkpt lat="42.3516549" lon="13.4169707"><ele>727.0</ele><time>2026-05-02T16:57:08.035Z</time></trkpt><trkpt lat="42.3516463" lon="13.4171049"><ele>727.0</ele><time>2026-05-02T16:57:09.035Z</time></trkpt><trkpt lat="42.3516403" lon="13.4172464"><ele>727.0</ele><time>2026-05-02T16:57:10.035Z</time></trkpt><trkpt lat="42.3516361" lon="13.4173903"><ele>727.0</ele><time>2026-05-02T16:57:11.035Z</time></trkpt><trkpt lat="42.3516351" lon="13.417533"><ele>727.0</ele><time>2026-05-02T16:57:12.035Z</time></trkpt><trkpt lat="42.3516305" lon="13.4176807"><ele>727.6</ele><time>2026-05-02T16:57:13.034Z</time></trkpt><trkpt lat="42.3516302" lon="13.4178198"><ele>728.2</ele><time>2026-05-02T16:57:14.035Z</time></trkpt><trkpt lat="42.3516327" lon="13.4179564"><ele>728.8</ele><time>2026-05-02T16:57:15.035Z</time></trkpt><trkpt lat="42.3516469" lon="13.4180767"><ele>729.4</ele><time>2026-05-02T16:57:16.035Z</time></trkpt><trkpt lat="42.3516713" lon="13.4181929"><ele>730.0</ele><time>2026-05-02T16:57:17.035Z</time></trkpt><trkpt lat="42.3517062" lon="13.4183003"><ele>730.0</ele><time>2026-05-02T16:57:18.035Z</time></trkpt><trkpt lat="42.3517483" lon="13.4184092"><ele>730.0</ele><time>2026-05-02T16:57:19.034Z</time></trkpt><trkpt lat="42.3518008" lon="13.4185125"><ele>730.0</ele><time>2026-05-02T16:57:20.035Z</time></trkpt><trkpt lat="42.3518584" lon="13.4186019"><ele>730.0</ele><time>2026-05-02T16:57:21.035Z</time></trkpt><trkpt lat="42.3519079" lon="13.4186717"><ele>730.0</ele><time>2026-05-02T16:57:22.035Z</time></trkpt><trkpt lat="42.3519459" lon="13.4187403"><ele>730.0</ele><time>2026-05-02T16:57:23.035Z</time></trkpt><trkpt lat="42.3519674" lon="13.418825"><ele>730.1666666666667</ele><time>2026-05-02T16:57:24.035Z</time></trkpt><trkpt lat="42.3519841" lon="13.418916"><ele>730.3333333333334</ele><time>2026-05-02T16:57:25.034Z</time></trkpt><trkpt lat="42.3520116" lon="13.4190108"><ele>730.5</ele><time>2026-05-02T16:57:26.034Z</time></trkpt><trkpt lat="42.3520614" lon="13.419097"><ele>730.6666666666666</ele><time>2026-05-02T16:57:27.035Z</time></trkpt><trkpt lat="42.3521247" lon="13.4191833"><ele>730.8333333333333</ele><time>2026-05-02T16:57:28.034Z</time></trkpt><trkpt lat="42.3521842" lon="13.4192744"><ele>731.0</ele><time>2026-05-02T16:57:29.035Z</time></trkpt><trkpt lat="42.3522305" lon="13.4193745"><ele>732.5</ele><time>2026-05-02T16:57:30.035Z</time></trkpt><trkpt lat="42.3522708" lon="13.4194726"><ele>734.0</ele><time>2026-05-02T16:57:31.035Z</time></trkpt><trkpt lat="42.3523123" lon="13.4195637"><ele>735.5</ele><time>2026-05-02T16:57:32.034Z</time></trkpt><trkpt lat="42.3523528" lon="13.4196613"><ele>737.0</ele><time>2026-05-02T16:57:33.034Z</time></trkpt><trkpt lat="42.3523977" lon="13.4197611"><ele>738.5</ele><time>2026-05-02T16:57:34.035Z</time></trkpt><trkpt lat="42.3524456" lon="13.4198632"><ele>740.0</ele><time>2026-05-02T16:57:35.035Z</time></trkpt><trkpt lat="42.3524888" lon="13.4199746"><ele>740.0</ele><time>2026-05-02T16:57:36.035Z</time></trkpt><trkpt lat="42.3525238" lon="13.4200933"><ele>740.0</ele><time>2026-05-02T16:57:37.035Z</time></trkpt><trkpt lat="42.3525421" lon="13.4202274"><ele>740.0</ele><time>2026-05-02T16:57:38.035Z</time></trkpt><trkpt lat="42.3525478" lon="13.4203589"><ele>740.0</ele><time>2026-05-02T16:57:39.035Z</time></trkpt><trkpt lat="42.3525442" lon="13.4204922"><ele>740.0</ele><time>2026-05-02T16:57:40.035Z</time></trkpt><trkpt lat="42.3525252" lon="13.4206215"><ele>740.2</ele><time>2026-05-02T16:57:41.035Z</time></trkpt><trkpt lat="42.3525092" lon="13.4207508"><ele>740.4</ele><time>2026-05-02T16:57:42.035Z</time></trkpt><trkpt lat="42.3524937" lon="13.4208848"><ele>740.5999999999999</ele><time>2026-05-02T16:57:43.035Z</time></trkpt><trkpt lat="42.3524895" lon="13.4210179"><ele>740.8</ele><time>2026-05-02T16:57:44.035Z</time></trkpt><trkpt lat="42.3524987" lon="13.4211519"><ele>741.0</ele><time>2026-05-02T16:57:45.035Z</time></trkpt><trkpt lat="42.3525131" lon="13.4212866"><ele>741.5999999999999</ele><time>2026-05-02T16:57:46.035Z</time></trkpt><trkpt lat="42.3525327" lon="13.421423"><ele>742.2</ele><time>2026-05-02T16:57:47.035Z</time></trkpt><trkpt lat="42.3525561" lon="13.421566"><ele>742.8</ele><time>2026-05-02T16:57:48.035Z</time></trkpt><trkpt lat="42.3525804" lon="13.421702"><ele>743.4000000000001</ele><time>2026-05-02T16:57:49.035Z</time></trkpt><trkpt lat="42.3526063" lon="13.4218407"><ele>744.0</ele><time>2026-05-02T16:57:50.035Z</time></trkpt><trkpt lat="42.3526367" lon="13.4219799"><ele>744.0</ele><time>2026-05-02T16:57:51.035Z</time></trkpt><trkpt lat="42.3526706" lon="13.4221169"><ele>744.0</ele><time>2026-05-02T16:57:52.035Z</time></trkpt><trkpt lat="42.3527053" lon="13.4222574"><ele>744.0</ele><time>2026-05-02T16:57:53.035Z</time></trkpt><trkpt lat="42.3527428" lon="13.4223985"><ele>744.0</ele><time>2026-05-02T16:57:54.035Z</time></trkpt><trkpt lat="42.3527822" lon="13.4225366"><ele>744.0</ele><time>2026-05-02T16:57:55.035Z</time></trkpt><trkpt lat="42.35282" lon="13.4226794"><ele>742.6</ele><time>2026-05-02T16:57:56.035Z</time></trkpt><trkpt lat="42.3528586" lon="13.4228216"><ele>741.2</ele><time>2026-05-02T16:57:57.035Z</time></trkpt><trkpt lat="42.352897" lon="13.4229664"><ele>739.8000000000001</ele><time>2026-05-02T16:57:58.035Z</time></trkpt><trkpt lat="42.3529345" lon="13.4231039"><ele>738.4000000000001</ele><time>2026-05-02T16:57:59.035Z</time></trkpt><trkpt lat="42.3529711" lon="13.4232473"><ele>737.0</ele><time>2026-05-02T16:58:00.035Z</time></trkpt><trkpt lat="42.3530102" lon="13.4233925"><ele>737.75</ele><time>2026-05-02T16:58:01.034Z</time></trkpt><trkpt lat="42.3530461" lon="13.4235431"><ele>738.5</ele><time>2026-05-02T16:58:02.035Z</time></trkpt><trkpt lat="42.3530906" lon="13.4236928"><ele>739.25</ele><time>2026-05-02T16:58:03.035Z</time></trkpt><trkpt lat="42.3531351" lon="13.4238514"><ele>740.0</ele><time>2026-05-02T16:58:04.035Z</time></trkpt><trkpt lat="42.3531733" lon="13.4240108"><ele>740.0</ele><time>2026-05-02T16:58:05.035Z</time></trkpt><trkpt lat="42.3532121" lon="13.424168"><ele>740.0</ele><time>2026-05-02T16:58:06.035Z</time></trkpt><trkpt lat="42.3532469" lon="13.4243237"><ele>740.0</ele><time>2026-05-02T16:58:07.035Z</time></trkpt><trkpt lat="42.353279" lon="13.424484"><ele>740.0</ele><time>2026-05-02T16:58:08.035Z</time></trkpt><trkpt lat="42.3533036" lon="13.4246478"><ele>738.5</ele><time>2026-05-02T16:58:09.035Z</time></trkpt><trkpt lat="42.3533223" lon="13.424809"><ele>737.0</ele><time>2026-05-02T16:58:10.035Z</time></trkpt><trkpt lat="42.353336" lon="13.4249724"><ele>735.5</ele><time>2026-05-02T16:58:11.034Z</time></trkpt><trkpt lat="42.3533436" lon="13.4251346"><ele>734.0</ele><time>2026-05-02T16:58:12.035Z</time></trkpt><trkpt lat="42.3533483" lon="13.4252884"><ele>734.0</ele><time>2026-05-02T16:58:13.035Z</time></trkpt><trkpt lat="42.3533436" lon="13.4254444"><ele>734.0</ele><time>2026-05-02T16:58:14.035Z</time></trkpt><trkpt lat="42.3533351" lon="13.4255992"><ele>734.0</ele><time>2026-05-02T16:58:15.035Z</time></trkpt><trkpt lat="42.3533182" lon="13.4257568"><ele>734.0</ele><time>2026-05-02T16:58:16.035Z</time></trkpt><trkpt lat="42.3533005" lon="13.4259105"><ele>733.4000000000001</ele><time>2026-05-02T16:58:17.035Z</time></trkpt><trkpt lat="42.3532737" lon="13.4260619"><ele>732.8</ele><time>2026-05-02T16:58:18.035Z</time></trkpt><trkpt lat="42.3532426" lon="13.4262084"><ele>732.2</ele><time>2026-05-02T16:58:19.035Z</time></trkpt><trkpt lat="42.3532046" lon="13.4263481"><ele>731.5999999999999</ele><time>2026-05-02T16:58:20.035Z</time></trkpt><trkpt lat="42.3531653" lon="13.4264788"><ele>731.0</ele><time>2026-05-02T16:58:21.035Z</time></trkpt><trkpt lat="42.3531255" lon="13.4266056"><ele>731.4</ele><time>2026-05-02T16:58:22.034Z</time></trkpt><trkpt lat="42.3530827" lon="13.4267316"><ele>731.8</ele><time>2026-05-02T16:58:23.035Z</time></trkpt><trkpt lat="42.3530337" lon="13.4268506"><ele>732.1999999999999</ele><time>2026-05-02T16:58:24.035Z</time></trkpt><trkpt lat="42.3529817" lon="13.4269719"><ele>732.5999999999999</ele><time>2026-05-02T16:58:25.035Z</time></trkpt><trkpt lat="42.3529244" lon="13.4270911"><ele>733.0</ele><time>2026-05-02T16:58:26.035Z</time></trkpt><trkpt lat="42.3528672" lon="13.4272048"><ele>733.0</ele><time>2026-05-02T16:58:27.035Z</time></trkpt><trkpt lat="42.3528022" lon="13.4273174"><ele>733.0</ele><time>2026-05-02T16:58:28.035Z</time></trkpt><trkpt lat="42.3527308" lon="13.427433"><ele>733.0</ele><time>2026-05-02T16:58:29.035Z</time></trkpt><trkpt lat="42.3526534" lon="13.4275463"><ele>733.0</ele><time>2026-05-02T16:58:30.035Z</time></trkpt><trkpt lat="42.3525715" lon="13.4276533"><ele>733.0</ele><time>2026-05-02T16:58:31.034Z</time></trkpt><trkpt lat="42.3524821" lon="13.4277557"><ele>733.0</ele><time>2026-05-02T16:58:32.035Z</time></trkpt><trkpt lat="42.3523903" lon="13.4278529"><ele>733.0</ele><time>2026-05-02T16:58:33.035Z</time></trkpt><trkpt lat="42.3522955" lon="13.4279535"><ele>733.0</ele><time>2026-05-02T16:58:34.035Z</time></trkpt><trkpt lat="42.3522045" lon="13.4280563"><ele>733.0</ele><time>2026-05-02T16:58:35.035Z</time></trkpt><trkpt lat="42.3521143" lon="13.4281571"><ele>735.0</ele><time>2026-05-02T16:58:36.035Z</time></trkpt><trkpt lat="42.352023" lon="13.4282516"><ele>737.0</ele><time>2026-05-02T16:58:37.035Z</time></trkpt><trkpt lat="42.3519322" lon="13.4283367"><ele>739.0</ele><time>2026-05-02T16:58:38.035Z</time></trkpt><trkpt lat="42.3518413" lon="13.4284258"><ele>741.0</ele><time>2026-05-02T16:58:39.035Z</time></trkpt><trkpt lat="42.3517506" lon="13.4285209"><ele>741.0</ele><time>2026-05-02T16:58:40.035Z</time></trkpt><trkpt lat="42.351659" lon="13.428619"><ele>741.0</ele><time>2026-05-02T16:58:41.035Z</time></trkpt><trkpt lat="42.3515659" lon="13.4287172"><ele>741.0</ele><time>2026-05-02T16:58:42.035Z</time></trkpt><trkpt lat="42.3514758" lon="13.4288082"><ele>741.0</ele><time>2026-05-02T16:58:43.035Z</time></trkpt><trkpt lat="42.3513847" lon="13.4289058"><ele>737.75</ele><time>2026-05-02T16:58:44.036Z</time></trkpt><trkpt lat="42.3512958" lon="13.4290022"><ele>734.5</ele><time>2026-05-02T16:58:45.036Z</time></trkpt><trkpt lat="42.3512064" lon="13.429101"><ele>731.25</ele><time>2026-05-02T16:58:46.036Z</time></trkpt><trkpt lat="42.3511193" lon="13.4292072"><ele>728.0</ele><time>2026-05-02T16:58:47.036Z</time></trkpt><trkpt lat="42.3510318" lon="13.4293155"><ele>728.0</ele><time>2026-05-02T16:58:48.036Z</time></trkpt><trkpt lat="42.3509443" lon="13.4294224"><ele>728.0</ele><time>2026-05-02T16:58:49.036Z</time></trkpt><trkpt lat="42.3508513" lon="13.4295288"><ele>728.0</ele><time>2026-05-02T16:58:50.036Z</time></trkpt><trkpt lat="42.3507584" lon="13.4296323"><ele>728.0</ele><time>2026-05-02T16:58:51.035Z</time></trkpt><trkpt lat="42.3506643" lon="13.4297249"><ele>729.0</ele><time>2026-05-02T16:58:52.035Z</time></trkpt><trkpt lat="42.3505659" lon="13.4298176"><ele>730.0</ele><time>2026-05-02T16:58:53.036Z</time></trkpt><trkpt lat="42.3504653" lon="13.4299053"><ele>731.0</ele><time>2026-05-02T16:58:54.036Z</time></trkpt><trkpt lat="42.3503646" lon="13.4299958"><ele>732.0</ele><time>2026-05-02T16:58:55.035Z</time></trkpt><trkpt lat="42.3502603" lon="13.4300779"><ele>728.75</ele><time>2026-05-02T16:58:56.035Z</time></trkpt><trkpt lat="42.3501543" lon="13.4301642"><ele>725.5</ele><time>2026-05-02T16:58:57.036Z</time></trkpt><trkpt lat="42.3500513" lon="13.4302486"><ele>722.25</ele><time>2026-05-02T16:58:58.036Z</time></trkpt><trkpt lat="42.3499477" lon="13.4303316"><ele>719.0</ele><time>2026-05-02T16:58:59.036Z</time></trkpt><trkpt lat="42.3498402" lon="13.4304123"><ele>719.5</ele><time>2026-05-02T16:59:00.036Z</time></trkpt><trkpt lat="42.3497291" lon="13.4304809"><ele>720.0</ele><time>2026-05-02T16:59:01.036Z</time></trkpt><trkpt lat="42.3496201" lon="13.4305499"><ele>720.5</ele><time>2026-05-02T16:59:02.036Z</time></trkpt><trkpt lat="42.3495046" lon="13.4306138"><ele>721.0</ele><time>2026-05-02T16:59:03.036Z</time></trkpt><trkpt lat="42.3493847" lon="13.4306762"><ele>721.0</ele><time>2026-05-02T16:59:04.035Z</time></trkpt><trkpt lat="42.3492649" lon="13.430733"><ele>721.0</ele><time>2026-05-02T16:59:05.036Z</time></trkpt><trkpt lat="42.3491454" lon="13.430789"><ele>721.0</ele><time>2026-05-02T16:59:06.036Z</time></trkpt><trkpt lat="42.3490264" lon="13.4308454"><ele>721.0</ele><time>2026-05-02T16:59:07.036Z</time></trkpt><trkpt lat="42.3489041" lon="13.4309"><ele>719.0</ele><time>2026-05-02T16:59:08.036Z</time></trkpt><trkpt lat="42.3487798" lon="13.43095"><ele>717.0</ele><time>2026-05-02T16:59:09.035Z</time></trkpt><trkpt lat="42.3486563" lon="13.4310015"><ele>715.0</ele><time>2026-05-02T16:59:10.035Z</time></trkpt><trkpt lat="42.3485321" lon="13.4310552"><ele>713.0</ele><time>2026-05-02T16:59:11.036Z</time></trkpt><trkpt lat="42.3484077" lon="13.431113"><ele>713.0</ele><time>2026-05-02T16:59:12.036Z</time></trkpt><trkpt lat="42.3482825" lon="13.4311702"><ele>713.0</ele><time>2026-05-02T16:59:13.036Z</time></trkpt><trkpt lat="42.3481552" lon="13.4312224"><ele>713.0</ele><time>2026-05-02T16:59:14.036Z</time></trkpt><trkpt lat="42.3480294" lon="13.4312777"><ele>713.0</ele><time>2026-05-02T16:59:15.036Z</time></trkpt><trkpt lat="42.3479029" lon="13.4313294"><ele>712.5</ele><time>2026-05-02T16:59:16.036Z</time></trkpt><trkpt lat="42.3477824" lon="13.43139"><ele>712.0</ele><time>2026-05-02T16:59:17.035Z</time></trkpt><trkpt lat="42.3476607" lon="13.4314507"><ele>711.5</ele><time>2026-05-02T16:59:18.036Z</time></trkpt><trkpt lat="42.3475405" lon="13.4315041"><ele>711.0</ele><time>2026-05-02T16:59:19.036Z</time></trkpt><trkpt lat="42.3474149" lon="13.4315531"><ele>711.0</ele><time>2026-05-02T16:59:20.036Z</time></trkpt><trkpt lat="42.3472936" lon="13.4316048"><ele>711.0</ele><time>2026-05-02T16:59:21.036Z</time></trkpt><trkpt lat="42.3471748" lon="13.4316618"><ele>711.0</ele><time>2026-05-02T16:59:22.036Z</time></trkpt><trkpt lat="42.3470588" lon="13.4317138"><ele>711.0</ele><time>2026-05-02T16:59:23.036Z</time></trkpt><trkpt lat="42.3469384" lon="13.4317618"><ele>709.25</ele><time>2026-05-02T16:59:24.036Z</time></trkpt><trkpt lat="42.3468212" lon="13.4318104"><ele>707.5</ele><time>2026-05-02T16:59:25.035Z</time></trkpt><trkpt lat="42.3467089" lon="13.4318599"><ele>705.75</ele><time>2026-05-02T16:59:26.036Z</time></trkpt><trkpt lat="42.3465986" lon="13.4319132"><ele>704.0</ele><time>2026-05-02T16:59:27.035Z</time></trkpt><trkpt lat="42.3464883" lon="13.4319661"><ele>705.0</ele><time>2026-05-02T16:59:28.035Z</time></trkpt><trkpt lat="42.3463778" lon="13.4320105"><ele>706.0</ele><time>2026-05-02T16:59:29.036Z</time></trkpt><trkpt lat="42.3462696" lon="13.4320556"><ele>707.0</ele><time>2026-05-02T16:59:30.035Z</time></trkpt><trkpt lat="42.3461577" lon="13.4321003"><ele>708.0</ele><time>2026-05-02T16:59:31.035Z</time></trkpt><trkpt lat="42.3460475" lon="13.4321489"><ele>708.0</ele><time>2026-05-02T16:59:32.036Z</time></trkpt><trkpt lat="42.3459383" lon="13.4322034"><ele>708.0</ele><time>2026-05-02T16:59:33.035Z</time></trkpt><trkpt lat="42.3458283" lon="13.4322552"><ele>708.0</ele><time>2026-05-02T16:59:34.036Z</time></trkpt><trkpt lat="42.3457205" lon="13.4323048"><ele>708.0</ele><time>2026-05-02T16:59:35.036Z</time></trkpt><trkpt lat="42.3456135" lon="13.4323572"><ele>705.75</ele><time>2026-05-02T16:59:36.036Z</time></trkpt><trkpt lat="42.3455046" lon="13.4324148"><ele>703.5</ele><time>2026-05-02T16:59:37.036Z</time></trkpt><trkpt lat="42.3453961" lon="13.4324794"><ele>701.25</ele><time>2026-05-02T16:59:38.036Z</time></trkpt><trkpt lat="42.3452919" lon="13.4325478"><ele>699.0</ele><time>2026-05-02T16:59:39.036Z</time></trkpt><trkpt lat="42.3451917" lon="13.4326302"><ele>699.0</ele><time>2026-05-02T16:59:40.036Z</time></trkpt><trkpt lat="42.3450938" lon="13.4327122"><ele>699.0</ele><time>2026-05-02T16:59:41.036Z</time></trkpt><trkpt lat="42.3449987" lon="13.4327938"><ele>699.0</ele><time>2026-05-02T16:59:42.036Z</time></trkpt><trkpt lat="42.3449018" lon="13.4328767"><ele>699.0</ele><time>2026-05-02T16:59:43.036Z</time></trkpt><trkpt lat="42.3448119" lon="13.4329788"><ele>699.5</ele><time>2026-05-02T16:59:44.036Z</time></trkpt><trkpt lat="42.3447269" lon="13.4330901"><ele>700.0</ele><time>2026-05-02T16:59:45.036Z</time></trkpt><trkpt lat="42.3446426" lon="13.4331994"><ele>700.5</ele><time>2026-05-02T16:59:46.036Z</time></trkpt><trkpt lat="42.3445642" lon="13.4333206"><ele>701.0</ele><time>2026-05-02T16:59:47.036Z</time></trkpt><trkpt lat="42.344491" lon="13.4334507"><ele>698.75</ele><time>2026-05-02T16:59:48.036Z</time></trkpt><trkpt lat="42.3444204" lon="13.4335811"><ele>696.5</ele><time>2026-05-02T16:59:49.036Z</time></trkpt><trkpt lat="42.3443587" lon="13.4337209"><ele>694.25</ele><time>2026-05-02T16:59:50.036Z</time></trkpt><trkpt lat="42.3443014" lon="13.4338603"><ele>692.0</ele><time>2026-05-02T16:59:51.036Z</time></trkpt><trkpt lat="42.3442439" lon="13.4340077"><ele>692.0</ele><time>2026-05-02T16:59:52.036Z</time></trkpt><trkpt lat="42.3441905" lon="13.4341608"><ele>692.0</ele><time>2026-05-02T16:59:53.036Z</time></trkpt><trkpt lat="42.3441467" lon="13.4343116"><ele>692.0</ele><time>2026-05-02T16:59:54.036Z</time></trkpt><trkpt lat="42.3441099" lon="13.4344719"><ele>692.0</ele><time>2026-05-02T16:59:55.035Z</time></trkpt><trkpt lat="42.3440802" lon="13.4346267"><ele>692.5</ele><time>2026-05-02T16:59:56.036Z</time></trkpt><trkpt lat="42.3440543" lon="13.43478"><ele>693.0</ele><time>2026-05-02T16:59:57.036Z</time></trkpt><trkpt lat="42.3440294" lon="13.4349394"><ele>693.5</ele><time>2026-05-02T16:59:58.036Z</time></trkpt><trkpt lat="42.3440092" lon="13.4350992"><ele>694.0</ele><time>2026-05-02T16:59:59.035Z</time></trkpt><trkpt lat="42.343989" lon="13.4352567"><ele>694.0</ele><time>2026-05-02T17:00:00.035Z</time></trkpt><trkpt lat="42.3439704" lon="13.4354204"><ele>694.0</ele><time>2026-05-02T17:00:01.035Z</time></trkpt><trkpt lat="42.3439509" lon="13.4355851"><ele>694.0</ele><time>2026-05-02T17:00:02.036Z</time></trkpt><trkpt lat="42.3439309" lon="13.4357476"><ele>694.0</ele><time>2026-05-02T17:00:03.036Z</time></trkpt><trkpt lat="42.3439118" lon="13.4359054"><ele>694.75</ele><time>2026-05-02T17:00:04.036Z</time></trkpt><trkpt lat="42.3438946" lon="13.4360695"><ele>695.5</ele><time>2026-05-02T17:00:05.036Z</time></trkpt><trkpt lat="42.3438714" lon="13.4362351"><ele>696.25</ele><time>2026-05-02T17:00:06.036Z</time></trkpt><trkpt lat="42.343842" lon="13.4363949"><ele>697.0</ele><time>2026-05-02T17:00:07.036Z</time></trkpt><trkpt lat="42.3438022" lon="13.4365546"><ele>691.5</ele><time>2026-05-02T17:00:08.036Z</time></trkpt><trkpt lat="42.3437559" lon="13.436711"><ele>686.0</ele><time>2026-05-02T17:00:09.036Z</time></trkpt><trkpt lat="42.3437019" lon="13.4368725"><ele>680.5</ele><time>2026-05-02T17:00:10.036Z</time></trkpt><trkpt lat="42.3436342" lon="13.43703"><ele>675.0</ele><time>2026-05-02T17:00:11.036Z</time></trkpt><trkpt lat="42.3435625" lon="13.4371756"><ele>675.0</ele><time>2026-05-02T17:00:12.036Z</time></trkpt><trkpt lat="42.343485" lon="13.4373195"><ele>675.0</ele><time>2026-05-02T17:00:13.035Z</time></trkpt><trkpt lat="42.3434034" lon="13.4374547"><ele>675.0</ele><time>2026-05-02T17:00:14.035Z</time></trkpt><trkpt lat="42.3433127" lon="13.4375881"><ele>675.0</ele><time>2026-05-02T17:00:15.036Z</time></trkpt><trkpt lat="42.3432149" lon="13.4377112"><ele>675.0</ele><time>2026-05-02T17:00:16.036Z</time></trkpt><trkpt lat="42.3431086" lon="13.4378246"><ele>675.0</ele><time>2026-05-02T17:00:17.036Z</time></trkpt><trkpt lat="42.3429976" lon="13.4379341"><ele>675.0</ele><time>2026-05-02T17:00:18.036Z</time></trkpt><trkpt lat="42.3428828" lon="13.4380317"><ele>675.0</ele><time>2026-05-02T17:00:19.035Z</time></trkpt><trkpt lat="42.3427622" lon="13.4381163"><ele>674.25</ele><time>2026-05-02T17:00:20.036Z</time></trkpt><trkpt lat="42.3426364" lon="13.4381893"><ele>673.5</ele><time>2026-05-02T17:00:21.036Z</time></trkpt><trkpt lat="42.3425064" lon="13.4382514"><ele>672.75</ele><time>2026-05-02T17:00:22.036Z</time></trkpt><trkpt lat="42.3423783" lon="13.4383059"><ele>672.0</ele><time>2026-05-02T17:00:23.036Z</time></trkpt><trkpt lat="42.3422509" lon="13.4383518"><ele>670.25</ele><time>2026-05-02T17:00:24.036Z</time></trkpt><trkpt lat="42.3421207" lon="13.4383899"><ele>668.5</ele><time>2026-05-02T17:00:25.036Z</time></trkpt><trkpt lat="42.3419917" lon="13.4384245"><ele>666.75</ele><time>2026-05-02T17:00:26.036Z</time></trkpt><trkpt lat="42.3418614" lon="13.438459"><ele>665.0</ele><time>2026-05-02T17:00:27.036Z</time></trkpt><trkpt lat="42.3417311" lon="13.4384961"><ele>665.0</ele><time>2026-05-02T17:00:28.035Z</time></trkpt><trkpt lat="42.3415996" lon="13.4385347"><ele>665.0</ele><time>2026-05-02T17:00:29.036Z</time></trkpt><trkpt lat="42.3414698" lon="13.43857"><ele>665.0</ele><time>2026-05-02T17:00:30.036Z</time></trkpt><trkpt lat="42.3413376" lon="13.4386059"><ele>665.0</ele><time>2026-05-02T17:00:31.036Z</time></trkpt><trkpt lat="42.341206" lon="13.4386444"><ele>665.0</ele><time>2026-05-02T17:00:32.035Z</time></trkpt><trkpt lat="42.3410779" lon="13.4386831"><ele>665.0</ele><time>2026-05-02T17:00:33.036Z</time></trkpt><trkpt lat="42.3409477" lon="13.4387237"><ele>665.0</ele><time>2026-05-02T17:00:34.036Z</time></trkpt><trkpt lat="42.3408189" lon="13.4387778"><ele>665.0</ele><time>2026-05-02T17:00:35.036Z</time></trkpt><trkpt lat="42.3406942" lon="13.4388331"><ele>665.0</ele><time>2026-05-02T17:00:36.036Z</time></trkpt><trkpt lat="42.3405696" lon="13.4388997"><ele>665.0</ele><time>2026-05-02T17:00:37.036Z</time></trkpt><trkpt lat="42.340446" lon="13.4389761"><ele>665.0</ele><time>2026-05-02T17:00:38.036Z</time></trkpt><trkpt lat="42.3403265" lon="13.4390604"><ele>665.0</ele><time>2026-05-02T17:00:39.035Z</time></trkpt><trkpt lat="42.3402069" lon="13.4391506"><ele>662.5</ele><time>2026-05-02T17:00:40.036Z</time></trkpt><trkpt lat="42.3400924" lon="13.4392525"><ele>660.0</ele><time>2026-05-02T17:00:41.036Z</time></trkpt><trkpt lat="42.3399813" lon="13.4393594"><ele>657.5</ele><time>2026-05-02T17:00:42.035Z</time></trkpt><trkpt lat="42.3398755" lon="13.4394757"><ele>655.0</ele><time>2026-05-02T17:00:43.036Z</time></trkpt><trkpt lat="42.3397703" lon="13.4395969"><ele>653.25</ele><time>2026-05-02T17:00:44.036Z</time></trkpt><trkpt lat="42.3396712" lon="13.4397273"><ele>651.5</ele><time>2026-05-02T17:00:45.036Z</time></trkpt><trkpt lat="42.3395789" lon="13.439855"><ele>649.75</ele><time>2026-05-02T17:00:46.036Z</time></trkpt><trkpt lat="42.3394967" lon="13.4399942"><ele>648.0</ele><time>2026-05-02T17:00:47.035Z</time></trkpt><trkpt lat="42.339419" lon="13.4401358"><ele>648.0</ele><time>2026-05-02T17:00:48.036Z</time></trkpt><trkpt lat="42.3393448" lon="13.4402905"><ele>648.0</ele><time>2026-05-02T17:00:49.036Z</time></trkpt><trkpt lat="42.3392737" lon="13.4404437"><ele>648.0</ele><time>2026-05-02T17:00:50.036Z</time></trkpt><trkpt lat="42.3392122" lon="13.4405999"><ele>648.0</ele><time>2026-05-02T17:00:51.036Z</time></trkpt><trkpt lat="42.3391571" lon="13.440763"><ele>648.5</ele><time>2026-05-02T17:00:52.036Z</time></trkpt><trkpt lat="42.3391092" lon="13.4409296"><ele>649.0</ele><time>2026-05-02T17:00:53.036Z</time></trkpt><trkpt lat="42.3390614" lon="13.441095"><ele>649.5</ele><time>2026-05-02T17:00:54.036Z</time></trkpt><trkpt lat="42.3390138" lon="13.4412618"><ele>650.0</ele><time>2026-05-02T17:00:55.036Z</time></trkpt><trkpt lat="42.3389615" lon="13.4414313"><ele>650.0</ele><time>2026-05-02T17:00:56.036Z</time></trkpt><trkpt lat="42.338912" lon="13.4416"><ele>650.0</ele><time>2026-05-02T17:00:57.036Z</time></trkpt><trkpt lat="42.3388621" lon="13.4417745"><ele>650.0</ele><time>2026-05-02T17:00:58.036Z</time></trkpt><trkpt lat="42.3388149" lon="13.4419408"><ele>650.0</ele><time>2026-05-02T17:00:59.035Z</time></trkpt><trkpt lat="42.3387622" lon="13.4421088"><ele>646.75</ele><time>2026-05-02T17:01:00.036Z</time></trkpt><trkpt lat="42.3387103" lon="13.4422776"><ele>643.5</ele><time>2026-05-02T17:01:01.036Z</time></trkpt><trkpt lat="42.3386578" lon="13.4424517"><ele>640.25</ele><time>2026-05-02T17:01:02.036Z</time></trkpt><trkpt lat="42.3386098" lon="13.442627"><ele>637.0</ele><time>2026-05-02T17:01:03.036Z</time></trkpt><trkpt lat="42.3385602" lon="13.4427935"><ele>637.0</ele><time>2026-05-02T17:01:04.035Z</time></trkpt><trkpt lat="42.3385061" lon="13.4429632"><ele>637.0</ele><time>2026-05-02T17:01:05.036Z</time></trkpt><trkpt lat="42.3384554" lon="13.4431325"><ele>637.0</ele><time>2026-05-02T17:01:06.036Z</time></trkpt><trkpt lat="42.338409" lon="13.4433063"><ele>637.0</ele><time>2026-05-02T17:01:07.036Z</time></trkpt><trkpt lat="42.3383609" lon="13.443478"><ele>637.0</ele><time>2026-05-02T17:01:08.035Z</time></trkpt><trkpt lat="42.338316" lon="13.4436415"><ele>637.0</ele><time>2026-05-02T17:01:09.035Z</time></trkpt><trkpt lat="42.3382676" lon="13.4438073"><ele>637.0</ele><time>2026-05-02T17:01:10.036Z</time></trkpt><trkpt lat="42.3382198" lon="13.4439753"><ele>637.0</ele><time>2026-05-02T17:01:11.036Z</time></trkpt><trkpt lat="42.3381739" lon="13.4441398"><ele>638.0</ele><time>2026-05-02T17:01:12.035Z</time></trkpt><trkpt lat="42.3381311" lon="13.4443112"><ele>639.0</ele><time>2026-05-02T17:01:13.036Z</time></trkpt><trkpt lat="42.338084" lon="13.4444815"><ele>640.0</ele><time>2026-05-02T17:01:14.035Z</time></trkpt><trkpt lat="42.3380388" lon="13.4446485"><ele>641.0</ele><time>2026-05-02T17:01:15.036Z</time></trkpt><trkpt lat="42.3379978" lon="13.4448133"><ele>637.5</ele><time>2026-05-02T17:01:16.036Z</time></trkpt><trkpt lat="42.3379519" lon="13.4449829"><ele>634.0</ele><time>2026-05-02T17:01:17.036Z</time></trkpt><trkpt lat="42.3379099" lon="13.4451505"><ele>630.5</ele><time>2026-05-02T17:01:18.036Z</time></trkpt><trkpt lat="42.337865" lon="13.4453195"><ele>627.0</ele><time>2026-05-02T17:01:19.036Z</time></trkpt><trkpt lat="42.3378178" lon="13.4454908"><ele>626.25</ele><time>2026-05-02T17:01:20.036Z</time></trkpt><trkpt lat="42.3377748" lon="13.4456623"><ele>625.5</ele><time>2026-05-02T17:01:21.036Z</time></trkpt><trkpt lat="42.3377327" lon="13.44583"><ele>624.75</ele><time>2026-05-02T17:01:22.036Z</time></trkpt><trkpt lat="42.3376893" lon="13.4460047"><ele>624.0</ele><time>2026-05-02T17:01:23.035Z</time></trkpt><trkpt lat="42.3376497" lon="13.4461728"><ele>623.75</ele><time>2026-05-02T17:01:24.036Z</time></trkpt><trkpt lat="42.3376112" lon="13.4463434"><ele>623.5</ele><time>2026-05-02T17:01:25.036Z</time></trkpt><trkpt lat="42.3375741" lon="13.4465139"><ele>623.25</ele><time>2026-05-02T17:01:26.036Z</time></trkpt><trkpt lat="42.3375368" lon="13.4466832"><ele>623.0</ele><time>2026-05-02T17:01:27.035Z</time></trkpt><trkpt lat="42.3374985" lon="13.4468402"><ele>623.0</ele><time>2026-05-02T17:01:28.036Z</time></trkpt><trkpt lat="42.3374632" lon="13.4469862"><ele>623.0</ele><time>2026-05-02T17:01:29.036Z</time></trkpt><trkpt lat="42.3374279" lon="13.4471208"><ele>623.0</ele><time>2026-05-02T17:01:30.036Z</time></trkpt><trkpt lat="42.3373948" lon="13.4472423"><ele>623.0</ele><time>2026-05-02T17:01:31.036Z</time></trkpt><trkpt lat="42.3373541" lon="13.4473509"><ele>623.0</ele><time>2026-05-02T17:01:32.036Z</time></trkpt><trkpt lat="42.3373152" lon="13.4474499"><ele>623.0</ele><time>2026-05-02T17:01:33.036Z</time></trkpt><trkpt lat="42.337283" lon="13.4475485"><ele>623.0</ele><time>2026-05-02T17:01:34.036Z</time></trkpt><trkpt lat="42.3372645" lon="13.4476513"><ele>623.0</ele><time>2026-05-02T17:01:35.036Z</time></trkpt><trkpt lat="42.3372601" lon="13.4477561"><ele>623.0</ele><time>2026-05-02T17:01:36.036Z</time></trkpt><trkpt lat="42.3372661" lon="13.4478664"><ele>623.0</ele><time>2026-05-02T17:01:37.036Z</time></trkpt><trkpt lat="42.3372691" lon="13.4479834"><ele>623.0</ele><time>2026-05-02T17:01:38.036Z</time></trkpt><trkpt lat="42.3372699" lon="13.4480995"><ele>623.0</ele><time>2026-05-02T17:01:39.036Z</time></trkpt><trkpt lat="42.337257" lon="13.4482238"><ele>623.0</ele><time>2026-05-02T17:01:40.036Z</time></trkpt><trkpt lat="42.3372329" lon="13.4483495"><ele>623.0</ele><time>2026-05-02T17:01:41.036Z</time></trkpt><trkpt lat="42.3372093" lon="13.4484792"><ele>623.0</ele><time>2026-05-02T17:01:42.036Z</time></trkpt><trkpt lat="42.3371826" lon="13.4486187"><ele>623.0</ele><time>2026-05-02T17:01:43.035Z</time></trkpt><trkpt lat="42.3371505" lon="13.4487672"><ele>619.8</ele><time>2026-05-02T17:01:44.035Z</time></trkpt><trkpt lat="42.3371184" lon="13.448914"><ele>616.5999999999999</ele><time>2026-05-02T17:01:45.036Z</time></trkpt><trkpt lat="42.3370872" lon="13.4490587"><ele>613.4000000000001</ele><time>2026-05-02T17:01:46.035Z</time></trkpt><trkpt lat="42.3370588" lon="13.4491994"><ele>610.2</ele><time>2026-05-02T17:01:47.036Z</time></trkpt><trkpt lat="42.3370315" lon="13.4493371"><ele>607.0</ele><time>2026-05-02T17:01:48.036Z</time></trkpt><trkpt lat="42.3370016" lon="13.4494742"><ele>607.0</ele><time>2026-05-02T17:01:49.036Z</time></trkpt><trkpt lat="42.3369705" lon="13.4496116"><ele>607.0</ele><time>2026-05-02T17:01:50.036Z</time></trkpt><trkpt lat="42.3369386" lon="13.4497477"><ele>607.0</ele><time>2026-05-02T17:01:51.036Z</time></trkpt><trkpt lat="42.3369092" lon="13.4498883"><ele>607.0</ele><time>2026-05-02T17:01:52.036Z</time></trkpt><trkpt lat="42.3368822" lon="13.4500195"><ele>607.0</ele><time>2026-05-02T17:01:53.036Z</time></trkpt><trkpt lat="42.3368505" lon="13.4501522"><ele>607.0</ele><time>2026-05-02T17:01:54.036Z</time></trkpt><trkpt lat="42.3368209" lon="13.4502827"><ele>607.0</ele><time>2026-05-02T17:01:55.036Z</time></trkpt><trkpt lat="42.3367906" lon="13.4504117"><ele>607.0</ele><time>2026-05-02T17:01:56.036Z</time></trkpt><trkpt lat="42.3367597" lon="13.4505378"><ele>607.0</ele><time>2026-05-02T17:01:57.036Z</time></trkpt><trkpt lat="42.3367321" lon="13.4506537"><ele>607.0</ele><time>2026-05-02T17:01:58.036Z</time></trkpt><trkpt lat="42.3366983" lon="13.4507623"><ele>606.7142857142857</ele><time>2026-05-02T17:01:59.036Z</time></trkpt><trkpt lat="42.336658" lon="13.45086"><ele>606.4285714285714</ele><time>2026-05-02T17:02:00.036Z</time></trkpt><trkpt lat="42.3366045" lon="13.4509427"><ele>606.1428571428571</ele><time>2026-05-02T17:02:01.036Z</time></trkpt><trkpt lat="42.3365476" lon="13.4509998"><ele>605.8571428571429</ele><time>2026-05-02T17:02:02.036Z</time></trkpt><trkpt lat="42.3364894" lon="13.4510457"><ele>605.5714285714286</ele><time>2026-05-02T17:02:03.035Z</time></trkpt><trkpt lat="42.3364271" lon="13.4510936"><ele>605.2857142857142</ele><time>2026-05-02T17:02:04.036Z</time></trkpt><trkpt lat="42.33637" lon="13.4511525"><ele>605.0</ele><time>2026-05-02T17:02:05.036Z</time></trkpt><trkpt lat="42.3363273" lon="13.4512231"><ele>604.6666666666666</ele><time>2026-05-02T17:02:06.036Z</time></trkpt><trkpt lat="42.3363103" lon="13.45132"><ele>604.3333333333333</ele><time>2026-05-02T17:02:07.036Z</time></trkpt><trkpt lat="42.336323" lon="13.4514059"><ele>604.0</ele><time>2026-05-02T17:02:08.036Z</time></trkpt><trkpt lat="42.3363556" lon="13.4514863"><ele>603.6666666666666</ele><time>2026-05-02T17:02:09.035Z</time></trkpt><trkpt lat="42.3363945" lon="13.4515716"><ele>603.3333333333334</ele><time>2026-05-02T17:02:10.036Z</time></trkpt><trkpt lat="42.3364308" lon="13.4516683"><ele>603.0</ele><time>2026-05-02T17:02:11.035Z</time></trkpt><trkpt lat="42.3364626" lon="13.4517825"><ele>603.0</ele><time>2026-05-02T17:02:12.035Z</time></trkpt><trkpt lat="42.3364877" lon="13.4519058"><ele>603.0</ele><time>2026-05-02T17:02:13.035Z</time></trkpt><trkpt lat="42.3365169" lon="13.4520362"><ele>603.0</ele><time>2026-05-02T17:02:14.036Z</time></trkpt><trkpt lat="42.3365425" lon="13.4521744"><ele>603.0</ele><time>2026-05-02T17:02:15.036Z</time></trkpt><trkpt lat="42.336569" lon="13.4523152"><ele>603.0</ele><time>2026-05-02T17:02:16.036Z</time></trkpt><trkpt lat="42.3366" lon="13.4524544"><ele>603.0</ele><time>2026-05-02T17:02:17.036Z</time></trkpt><trkpt lat="42.3366288" lon="13.4525976"><ele>603.0</ele><time>2026-05-02T17:02:18.035Z</time></trkpt><trkpt lat="42.3366608" lon="13.4527357"><ele>603.0</ele><time>2026-05-02T17:02:19.036Z</time></trkpt><trkpt lat="42.336692" lon="13.4528715"><ele>603.0</ele><time>2026-05-02T17:02:20.036Z</time></trkpt><trkpt lat="42.3367214" lon="13.4530075"><ele>603.0</ele><time>2026-05-02T17:02:21.036Z</time></trkpt><trkpt lat="42.3367522" lon="13.4531472"><ele>602.6</ele><time>2026-05-02T17:02:22.035Z</time></trkpt><trkpt lat="42.3367852" lon="13.453278"><ele>602.1999999999999</ele><time>2026-05-02T17:02:23.035Z</time></trkpt><trkpt lat="42.336817" lon="13.4534157"><ele>601.8</ele><time>2026-05-02T17:02:24.036Z</time></trkpt><trkpt lat="42.3368471" lon="13.4535553"><ele>601.4</ele><time>2026-05-02T17:02:25.036Z</time></trkpt><trkpt lat="42.3368807" lon="13.4536889"><ele>601.0</ele><time>2026-05-02T17:02:26.036Z</time></trkpt><trkpt lat="42.336916" lon="13.4538261"><ele>600.6</ele><time>2026-05-02T17:02:27.036Z</time></trkpt><trkpt lat="42.3369478" lon="13.4539643"><ele>600.2</ele><time>2026-05-02T17:02:28.036Z</time></trkpt><trkpt lat="42.3369832" lon="13.4541033"><ele>599.8</ele><time>2026-05-02T17:02:29.036Z</time></trkpt><trkpt lat="42.3370142" lon="13.4542488"><ele>599.4</ele><time>2026-05-02T17:02:30.035Z</time></trkpt><trkpt lat="42.3370433" lon="13.4543959"><ele>599.0</ele><time>2026-05-02T17:02:31.036Z</time></trkpt><trkpt lat="42.3370741" lon="13.4545443"><ele>598.4</ele><time>2026-05-02T17:02:32.036Z</time></trkpt><trkpt lat="42.3371069" lon="13.4546889"><ele>597.8</ele><time>2026-05-02T17:02:33.036Z</time></trkpt><trkpt lat="42.3371379" lon="13.4548321"><ele>597.2</ele><time>2026-05-02T17:02:34.036Z</time></trkpt><trkpt lat="42.337166" lon="13.4549708"><ele>596.6</ele><time>2026-05-02T17:02:35.036Z</time></trkpt><trkpt lat="42.3371949" lon="13.4551141"><ele>596.0</ele><time>2026-05-02T17:02:36.035Z</time></trkpt><trkpt lat="42.3372212" lon="13.4552533"><ele>596.8</ele><time>2026-05-02T17:02:37.035Z</time></trkpt><trkpt lat="42.3372463" lon="13.4553959"><ele>597.6</ele><time>2026-05-02T17:02:38.036Z</time></trkpt><trkpt lat="42.3372637" lon="13.4555432"><ele>598.4</ele><time>2026-05-02T17:02:39.035Z</time></trkpt><trkpt lat="42.3372769" lon="13.4556853"><ele>599.2</ele><time>2026-05-02T17:02:40.036Z</time></trkpt><trkpt lat="42.3372863" lon="13.4558241"><ele>600.0</ele><time>2026-05-02T17:02:41.036Z</time></trkpt><trkpt lat="42.3372894" lon="13.4559641"><ele>600.0</ele><time>2026-05-02T17:02:42.036Z</time></trkpt><trkpt lat="42.3372819" lon="13.4561061"><ele>600.0</ele><time>2026-05-02T17:02:43.036Z</time></trkpt><trkpt lat="42.3372736" lon="13.4562556"><ele>600.0</ele><time>2026-05-02T17:02:44.036Z</time></trkpt><trkpt lat="42.3372621" lon="13.456397"><ele>600.0</ele><time>2026-05-02T17:02:45.036Z</time></trkpt><trkpt lat="42.3372466" lon="13.4565364"><ele>600.0</ele><time>2026-05-02T17:02:46.036Z</time></trkpt><trkpt lat="42.3372281" lon="13.4566653"><ele>599.3333333333334</ele><time>2026-05-02T17:02:47.036Z</time></trkpt><trkpt lat="42.3372007" lon="13.4567953"><ele>598.6666666666666</ele><time>2026-05-02T17:02:48.036Z</time></trkpt><trkpt lat="42.3371708" lon="13.4569199"><ele>598.0</ele><time>2026-05-02T17:02:49.036Z</time></trkpt><trkpt lat="42.3371318" lon="13.457025"><ele>597.3333333333333</ele><time>2026-05-02T17:02:50.036Z</time></trkpt><trkpt lat="42.337088" lon="13.4571212"><ele>596.6666666666666</ele><time>2026-05-02T17:02:51.035Z</time></trkpt><trkpt lat="42.3370447" lon="13.4572071"><ele>596.0</ele><time>2026-05-02T17:02:52.036Z</time></trkpt><trkpt lat="42.3369926" lon="13.457284"><ele>596.0</ele><time>2026-05-02T17:02:53.036Z</time></trkpt><trkpt lat="42.3369448" lon="13.4573635"><ele>596.0</ele><time>2026-05-02T17:02:54.036Z</time></trkpt><trkpt lat="42.3369157" lon="13.4574543"><ele>596.0</ele><time>2026-05-02T17:02:55.036Z</time></trkpt><trkpt lat="42.336914" lon="13.4575493"><ele>596.0</ele><time>2026-05-02T17:02:56.036Z</time></trkpt><trkpt lat="42.3369207" lon="13.4576554"><ele>596.0</ele><time>2026-05-02T17:02:57.036Z</time></trkpt><trkpt lat="42.3369259" lon="13.4577656"><ele>596.0</ele><time>2026-05-02T17:02:58.036Z</time></trkpt><trkpt lat="42.3369165" lon="13.4578897"><ele>595.8</ele><time>2026-05-02T17:02:59.036Z</time></trkpt><trkpt lat="42.3368854" lon="13.4580142"><ele>595.6</ele><time>2026-05-02T17:03:00.036Z</time></trkpt><trkpt lat="42.3368512" lon="13.4581378"><ele>595.4</ele><time>2026-05-02T17:03:01.036Z</time></trkpt><trkpt lat="42.3368186" lon="13.4582699"><ele>595.2</ele><time>2026-05-02T17:03:02.036Z</time></trkpt><trkpt lat="42.3367845" lon="13.4584043"><ele>595.0</ele><time>2026-05-02T17:03:03.036Z</time></trkpt><trkpt lat="42.3367478" lon="13.4585365"><ele>595.0</ele><time>2026-05-02T17:03:04.036Z</time></trkpt><trkpt lat="42.3367092" lon="13.4586814"><ele>595.0</ele><time>2026-05-02T17:03:05.036Z</time></trkpt><trkpt lat="42.3366693" lon="13.4588191"><ele>595.0</ele><time>2026-05-02T17:03:06.036Z</time></trkpt><trkpt lat="42.3366288" lon="13.4589636"><ele>595.0</ele><time>2026-05-02T17:03:07.036Z</time></trkpt><trkpt lat="42.3365888" lon="13.4591117"><ele>595.0</ele><time>2026-05-02T17:03:08.036Z</time></trkpt><trkpt lat="42.336546" lon="13.4592549"><ele>595.0</ele><time>2026-05-02T17:03:09.036Z</time></trkpt><trkpt lat="42.3365044" lon="13.4594058"><ele>595.0</ele><time>2026-05-02T17:03:10.036Z</time></trkpt><trkpt lat="42.3364642" lon="13.4595549"><ele>595.0</ele><time>2026-05-02T17:03:11.036Z</time></trkpt><trkpt lat="42.3364231" lon="13.4597"><ele>594.4</ele><time>2026-05-02T17:03:12.036Z</time></trkpt><trkpt lat="42.3363839" lon="13.4598386"><ele>593.8</ele><time>2026-05-02T17:03:13.036Z</time></trkpt><trkpt lat="42.3363473" lon="13.459975"><ele>593.2</ele><time>2026-05-02T17:03:14.036Z</time></trkpt><trkpt lat="42.3363091" lon="13.4601194"><ele>592.6</ele><time>2026-05-02T17:03:15.036Z</time></trkpt><trkpt lat="42.3362703" lon="13.4602556"><ele>592.0</ele><time>2026-05-02T17:03:16.036Z</time></trkpt><trkpt lat="42.3362303" lon="13.4603919"><ele>592.4</ele><time>2026-05-02T17:03:17.036Z</time></trkpt><trkpt lat="42.3361939" lon="13.4605267"><ele>592.8000000000001</ele><time>2026-05-02T17:03:18.036Z</time></trkpt><trkpt lat="42.3361557" lon="13.4606669"><ele>593.2</ele><time>2026-05-02T17:03:19.036Z</time></trkpt><trkpt lat="42.336117" lon="13.4607976"><ele>593.6</ele><time>2026-05-02T17:03:20.036Z</time></trkpt><trkpt lat="42.3360828" lon="13.4609176"><ele>594.0</ele><time>2026-05-02T17:03:21.036Z</time></trkpt><trkpt lat="42.3360558" lon="13.4610105"><ele>594.0</ele><time>2026-05-02T17:03:22.036Z</time></trkpt><trkpt lat="42.3360291" lon="13.4611222"><ele>594.0</ele><time>2026-05-02T17:03:24.036Z</time></trkpt><trkpt lat="42.3360209" lon="13.4612107"><ele>594.0</ele><time>2026-05-02T17:03:30.035Z</time></trkpt><trkpt lat="42.3359708" lon="13.4613306"><ele>594.0</ele><time>2026-05-02T17:03:32.036Z</time></trkpt><trkpt lat="42.3359485" lon="13.4614145"><ele>594.0</ele><time>2026-05-02T17:03:33.036Z</time></trkpt><trkpt lat="42.3359196" lon="13.4615208"><ele>594.0</ele><time>2026-05-02T17:03:34.036Z</time></trkpt><trkpt lat="42.3358869" lon="13.4616345"><ele>594.0</ele><time>2026-05-02T17:03:35.036Z</time></trkpt><trkpt lat="42.3358546" lon="13.4617465"><ele>594.0</ele><time>2026-05-02T17:03:36.036Z</time></trkpt><trkpt lat="42.3358211" lon="13.4618673"><ele>594.0</ele><time>2026-05-02T17:03:37.036Z</time></trkpt><trkpt lat="42.3357815" lon="13.4619952"><ele>594.0</ele><time>2026-05-02T17:03:38.036Z</time></trkpt><trkpt lat="42.3357438" lon="13.4621299"><ele>594.0</ele><time>2026-05-02T17:03:39.036Z</time></trkpt><trkpt lat="42.3357078" lon="13.4622644"><ele>594.0</ele><time>2026-05-02T17:03:40.035Z</time></trkpt><trkpt lat="42.335669" lon="13.4623963"><ele>594.0</ele><time>2026-05-02T17:03:41.036Z</time></trkpt><trkpt lat="42.3356317" lon="13.4625406"><ele>594.0</ele><time>2026-05-02T17:03:42.035Z</time></trkpt><trkpt lat="42.3355924" lon="13.4626844"><ele>594.0</ele><time>2026-05-02T17:03:43.036Z</time></trkpt><trkpt lat="42.335552" lon="13.4628284"><ele>594.0</ele><time>2026-05-02T17:03:44.036Z</time></trkpt><trkpt lat="42.33551" lon="13.4629683"><ele>594.0</ele><time>2026-05-02T17:03:45.036Z</time></trkpt><trkpt lat="42.335471" lon="13.4631188"><ele>594.0</ele><time>2026-05-02T17:03:46.036Z</time></trkpt><trkpt lat="42.3354327" lon="13.4632716"><ele>594.0</ele><time>2026-05-02T17:03:47.035Z</time></trkpt><trkpt lat="42.3353895" lon="13.4634226"><ele>594.0</ele><time>2026-05-02T17:03:48.036Z</time></trkpt><trkpt lat="42.3353482" lon="13.4635673"><ele>594.0</ele><time>2026-05-02T17:03:49.036Z</time></trkpt><trkpt lat="42.3353061" lon="13.4637136"><ele>594.0</ele><time>2026-05-02T17:03:50.035Z</time></trkpt><trkpt lat="42.33526" lon="13.4638689"><ele>594.0</ele><time>2026-05-02T17:03:51.036Z</time></trkpt><trkpt lat="42.3352178" lon="13.464021"><ele>594.0</ele><time>2026-05-02T17:03:52.036Z</time></trkpt><trkpt lat="42.3351764" lon="13.4641702"><ele>594.0</ele><time>2026-05-02T17:03:53.036Z</time></trkpt><trkpt lat="42.3351365" lon="13.4643158"><ele>594.0</ele><time>2026-05-02T17:03:54.036Z</time></trkpt><trkpt lat="42.3350924" lon="13.4644676"><ele>594.0</ele><time>2026-05-02T17:03:55.036Z</time></trkpt><trkpt lat="42.3350497" lon="13.4646187"><ele>594.0</ele><time>2026-05-02T17:03:56.036Z</time></trkpt><trkpt lat="42.3350095" lon="13.4647716"><ele>594.0</ele><time>2026-05-02T17:03:57.036Z</time></trkpt><trkpt lat="42.3349693" lon="13.4649269"><ele>594.0</ele><time>2026-05-02T17:03:58.036Z</time></trkpt><trkpt lat="42.3349269" lon="13.4650787"><ele>594.0</ele><time>2026-05-02T17:03:59.036Z</time></trkpt><trkpt lat="42.3348798" lon="13.4652345"><ele>594.0</ele><time>2026-05-02T17:04:00.036Z</time></trkpt><trkpt lat="42.3348378" lon="13.4653893"><ele>594.0</ele><time>2026-05-02T17:04:01.036Z</time></trkpt><trkpt lat="42.3348006" lon="13.4655367"><ele>594.0</ele><time>2026-05-02T17:04:02.036Z</time></trkpt><trkpt lat="42.3347582" lon="13.4656888"><ele>594.0</ele><time>2026-05-02T17:04:03.036Z</time></trkpt><trkpt lat="42.3347196" lon="13.4658367"><ele>594.0</ele><time>2026-05-02T17:04:04.036Z</time></trkpt><trkpt lat="42.3346788" lon="13.4659877"><ele>593.5</ele><time>2026-05-02T17:04:05.036Z</time></trkpt><trkpt lat="42.3346387" lon="13.4661343"><ele>593.0</ele><time>2026-05-02T17:04:06.036Z</time></trkpt><trkpt lat="42.3345962" lon="13.4662889"><ele>592.5</ele><time>2026-05-02T17:04:07.036Z</time></trkpt><trkpt lat="42.3345554" lon="13.4664397"><ele>592.0</ele><time>2026-05-02T17:04:08.036Z</time></trkpt><trkpt lat="42.3345147" lon="13.4665919"><ele>592.0</ele><time>2026-05-02T17:04:09.036Z</time></trkpt><trkpt lat="42.334467" lon="13.4667474"><ele>592.0</ele><time>2026-05-02T17:04:10.036Z</time></trkpt><trkpt lat="42.3344199" lon="13.4669053"><ele>592.0</ele><time>2026-05-02T17:04:11.035Z</time></trkpt><trkpt lat="42.3343755" lon="13.467067"><ele>592.0</ele><time>2026-05-02T17:04:12.036Z</time></trkpt><trkpt lat="42.3343323" lon="13.467228"><ele>591.75</ele><time>2026-05-02T17:04:13.036Z</time></trkpt><trkpt lat="42.3342854" lon="13.4673931"><ele>591.5</ele><time>2026-05-02T17:04:14.035Z</time></trkpt><trkpt lat="42.3342373" lon="13.4675653"><ele>591.25</ele><time>2026-05-02T17:04:15.036Z</time></trkpt><trkpt lat="42.3341939" lon="13.4677336"><ele>591.0</ele><time>2026-05-02T17:04:16.035Z</time></trkpt><trkpt lat="42.3341465" lon="13.467899"><ele>591.5</ele><time>2026-05-02T17:04:17.035Z</time></trkpt><trkpt lat="42.3340997" lon="13.4680629"><ele>592.0</ele><time>2026-05-02T17:04:18.036Z</time></trkpt><trkpt lat="42.3340507" lon="13.4682311"><ele>592.5</ele><time>2026-05-02T17:04:19.036Z</time></trkpt><trkpt lat="42.3340039" lon="13.4683993"><ele>593.0</ele><time>2026-05-02T17:04:20.036Z</time></trkpt><trkpt lat="42.3339563" lon="13.4685673"><ele>593.0</ele><time>2026-05-02T17:04:21.036Z</time></trkpt><trkpt lat="42.3339118" lon="13.4687234"><ele>593.0</ele><time>2026-05-02T17:04:22.036Z</time></trkpt><trkpt lat="42.3338655" lon="13.4688827"><ele>593.0</ele><time>2026-05-02T17:04:23.036Z</time></trkpt><trkpt lat="42.3338222" lon="13.4690471"><ele>593.0</ele><time>2026-05-02T17:04:24.036Z</time></trkpt><trkpt lat="42.3337782" lon="13.4692084"><ele>592.5</ele><time>2026-05-02T17:04:25.035Z</time></trkpt><trkpt lat="42.3337322" lon="13.4693699"><ele>592.0</ele><time>2026-05-02T17:04:26.036Z</time></trkpt><trkpt lat="42.3336866" lon="13.469534"><ele>591.5</ele><time>2026-05-02T17:04:27.035Z</time></trkpt><trkpt lat="42.3336401" lon="13.4696941"><ele>591.0</ele><time>2026-05-02T17:04:28.036Z</time></trkpt><trkpt lat="42.333599" lon="13.4698564"><ele>591.0</ele><time>2026-05-02T17:04:29.036Z</time></trkpt><trkpt lat="42.3335609" lon="13.4700169"><ele>591.0</ele><time>2026-05-02T17:04:30.036Z</time></trkpt><trkpt lat="42.3335312" lon="13.4701766"><ele>591.0</ele><time>2026-05-02T17:04:31.036Z</time></trkpt><trkpt lat="42.3335101" lon="13.4703195"><ele>591.0</ele><time>2026-05-02T17:04:32.036Z</time></trkpt><trkpt lat="42.333492" lon="13.4704576"><ele>591.2</ele><time>2026-05-02T17:04:33.035Z</time></trkpt><trkpt lat="42.3334712" lon="13.4705863"><ele>591.4000000000001</ele><time>2026-05-02T17:04:34.035Z</time></trkpt><trkpt lat="42.333442" lon="13.4707141"><ele>591.6</ele><time>2026-05-02T17:04:35.036Z</time></trkpt><trkpt lat="42.3334091" lon="13.4708341"><ele>591.8000000000001</ele><time>2026-05-02T17:04:36.036Z</time></trkpt><trkpt lat="42.3333751" lon="13.4709608"><ele>592.0</ele><time>2026-05-02T17:04:37.036Z</time></trkpt><trkpt lat="42.3333413" lon="13.4710967"><ele>592.0</ele><time>2026-05-02T17:04:38.035Z</time></trkpt><trkpt lat="42.3333096" lon="13.471237"><ele>592.0</ele><time>2026-05-02T17:04:39.035Z</time></trkpt><trkpt lat="42.3332719" lon="13.4713726"><ele>592.0</ele><time>2026-05-02T17:04:40.036Z</time></trkpt><trkpt lat="42.3332273" lon="13.4715023"><ele>592.0</ele><time>2026-05-02T17:04:41.036Z</time></trkpt><trkpt lat="42.3331763" lon="13.4716338"><ele>592.0</ele><time>2026-05-02T17:04:42.036Z</time></trkpt><trkpt lat="42.3331323" lon="13.4717693"><ele>591.75</ele><time>2026-05-02T17:04:43.035Z</time></trkpt><trkpt lat="42.3330867" lon="13.4719134"><ele>591.5</ele><time>2026-05-02T17:04:44.036Z</time></trkpt><trkpt lat="42.3330418" lon="13.4720638"><ele>591.25</ele><time>2026-05-02T17:04:45.036Z</time></trkpt><trkpt lat="42.3330016" lon="13.472216"><ele>591.0</ele><time>2026-05-02T17:04:46.036Z</time></trkpt><trkpt lat="42.3329601" lon="13.4723719"><ele>591.0</ele><time>2026-05-02T17:04:47.036Z</time></trkpt><trkpt lat="42.3329237" lon="13.4725188"><ele>591.0</ele><time>2026-05-02T17:04:48.036Z</time></trkpt><trkpt lat="42.3328824" lon="13.4726697"><ele>591.0</ele><time>2026-05-02T17:04:49.036Z</time></trkpt><trkpt lat="42.3328396" lon="13.4728267"><ele>591.0</ele><time>2026-05-02T17:04:50.036Z</time></trkpt><trkpt lat="42.3327987" lon="13.4729825"><ele>591.5</ele><time>2026-05-02T17:04:51.036Z</time></trkpt><trkpt lat="42.332758" lon="13.4731349"><ele>592.0</ele><time>2026-05-02T17:04:52.036Z</time></trkpt><trkpt lat="42.3327143" lon="13.4732948"><ele>592.5</ele><time>2026-05-02T17:04:53.035Z</time></trkpt><trkpt lat="42.3326692" lon="13.4734473"><ele>593.0</ele><time>2026-05-02T17:04:54.036Z</time></trkpt><trkpt lat="42.3326284" lon="13.4736034"><ele>593.0</ele><time>2026-05-02T17:04:55.035Z</time></trkpt><trkpt lat="42.3325871" lon="13.4737644"><ele>593.0</ele><time>2026-05-02T17:04:56.036Z</time></trkpt><trkpt lat="42.3325471" lon="13.473923"><ele>593.0</ele><time>2026-05-02T17:04:57.036Z</time></trkpt><trkpt lat="42.3325069" lon="13.474092"><ele>593.0</ele><time>2026-05-02T17:04:58.036Z</time></trkpt><trkpt lat="42.3324639" lon="13.4742517"><ele>593.25</ele><time>2026-05-02T17:04:59.036Z</time></trkpt><trkpt lat="42.3324211" lon="13.474409"><ele>593.5</ele><time>2026-05-02T17:05:00.035Z</time></trkpt><trkpt lat="42.3323786" lon="13.4745695"><ele>593.75</ele><time>2026-05-02T17:05:01.036Z</time></trkpt><trkpt lat="42.3323357" lon="13.4747392"><ele>594.0</ele><time>2026-05-02T17:05:02.036Z</time></trkpt><trkpt lat="42.3322931" lon="13.474905"><ele>593.5</ele><time>2026-05-02T17:05:03.036Z</time></trkpt><trkpt lat="42.3322504" lon="13.4750651"><ele>593.0</ele><time>2026-05-02T17:05:04.036Z</time></trkpt><trkpt lat="42.3322104" lon="13.4752188"><ele>592.5</ele><time>2026-05-02T17:05:05.036Z</time></trkpt><trkpt lat="42.3321691" lon="13.4753833"><ele>592.0</ele><time>2026-05-02T17:05:06.036Z</time></trkpt><trkpt lat="42.3321272" lon="13.4755484"><ele>592.0</ele><time>2026-05-02T17:05:07.036Z</time></trkpt><trkpt lat="42.3320861" lon="13.4757113"><ele>592.0</ele><time>2026-05-02T17:05:08.036Z</time></trkpt><trkpt lat="42.3320417" lon="13.4758809"><ele>592.0</ele><time>2026-05-02T17:05:09.035Z</time></trkpt><trkpt lat="42.3319988" lon="13.4760533"><ele>592.0</ele><time>2026-05-02T17:05:10.036Z</time></trkpt><trkpt lat="42.3319555" lon="13.4762214"><ele>592.0</ele><time>2026-05-02T17:05:11.035Z</time></trkpt><trkpt lat="42.3319078" lon="13.476398"><ele>592.0</ele><time>2026-05-02T17:05:12.036Z</time></trkpt><trkpt lat="42.331859" lon="13.4765647"><ele>592.0</ele><time>2026-05-02T17:05:13.036Z</time></trkpt><trkpt lat="42.3318098" lon="13.4767334"><ele>592.0</ele><time>2026-05-02T17:05:14.036Z</time></trkpt><trkpt lat="42.3317642" lon="13.4769063"><ele>592.0</ele><time>2026-05-02T17:05:15.036Z</time></trkpt><trkpt lat="42.3317154" lon="13.4770702"><ele>592.0</ele><time>2026-05-02T17:05:16.035Z</time></trkpt><trkpt lat="42.3316689" lon="13.4772339"><ele>592.0</ele><time>2026-05-02T17:05:17.036Z</time></trkpt><trkpt lat="42.3316249" lon="13.4773979"><ele>592.0</ele><time>2026-05-02T17:05:18.036Z</time></trkpt><trkpt lat="42.3315799" lon="13.4775561"><ele>592.0</ele><time>2026-05-02T17:05:19.036Z</time></trkpt><trkpt lat="42.3315293" lon="13.4777137"><ele>592.0</ele><time>2026-05-02T17:05:20.036Z</time></trkpt><trkpt lat="42.3314835" lon="13.4778638"><ele>592.0</ele><time>2026-05-02T17:05:21.036Z</time></trkpt><trkpt lat="42.3314399" lon="13.4780115"><ele>592.0</ele><time>2026-05-02T17:05:22.036Z</time></trkpt><trkpt lat="42.3313944" lon="13.4781575"><ele>591.5</ele><time>2026-05-02T17:05:23.036Z</time></trkpt><trkpt lat="42.3313558" lon="13.4782932"><ele>591.0</ele><time>2026-05-02T17:05:24.036Z</time></trkpt><trkpt lat="42.3313164" lon="13.4784184"><ele>590.5</ele><time>2026-05-02T17:05:25.035Z</time></trkpt><trkpt lat="42.3312791" lon="13.4785326"><ele>590.0</ele><time>2026-05-02T17:05:26.035Z</time></trkpt><trkpt lat="42.3312455" lon="13.4786294"><ele>589.5</ele><time>2026-05-02T17:05:27.036Z</time></trkpt><trkpt lat="42.3312063" lon="13.4787056"><ele>589.0</ele><time>2026-05-02T17:05:28.036Z</time></trkpt><trkpt lat="42.3311217" lon="13.4788284"><ele>589.0</ele><time>2026-05-02T17:05:30.036Z</time></trkpt><trkpt lat="42.3310993" lon="13.4789129"><ele>589.0</ele><time>2026-05-02T17:05:31.036Z</time></trkpt><trkpt lat="42.331091" lon="13.4790045"><ele>589.0</ele><time>2026-05-02T17:05:32.036Z</time></trkpt><trkpt lat="42.3310851" lon="13.4791111"><ele>589.0</ele><time>2026-05-02T17:05:33.036Z</time></trkpt><trkpt lat="42.3310726" lon="13.4792336"><ele>589.0</ele><time>2026-05-02T17:05:34.035Z</time></trkpt><trkpt lat="42.3310484" lon="13.4793574"><ele>589.0</ele><time>2026-05-02T17:05:35.036Z</time></trkpt><trkpt lat="42.3310111" lon="13.4794857"><ele>588.8</ele><time>2026-05-02T17:05:36.036Z</time></trkpt><trkpt lat="42.3309709" lon="13.4796169"><ele>588.5999999999999</ele><time>2026-05-02T17:05:37.036Z</time></trkpt><trkpt lat="42.3309279" lon="13.4797504"><ele>588.4</ele><time>2026-05-02T17:05:38.036Z</time></trkpt><trkpt lat="42.3308877" lon="13.4798883"><ele>588.1999999999999</ele><time>2026-05-02T17:05:39.036Z</time></trkpt><trkpt lat="42.3308438" lon="13.4800343"><ele>588.0</ele><time>2026-05-02T17:05:40.035Z</time></trkpt><trkpt lat="42.3307992" lon="13.4801878"><ele>588.0</ele><time>2026-05-02T17:05:41.036Z</time></trkpt><trkpt lat="42.3307506" lon="13.4803386"><ele>588.0</ele><time>2026-05-02T17:05:42.036Z</time></trkpt><trkpt lat="42.3307034" lon="13.4804953"><ele>588.0</ele><time>2026-05-02T17:05:43.035Z</time></trkpt><trkpt lat="42.3306581" lon="13.4806498"><ele>588.0</ele><time>2026-05-02T17:05:44.036Z</time></trkpt><trkpt lat="42.330611" lon="13.4808095"><ele>587.75</ele><time>2026-05-02T17:05:45.036Z</time></trkpt><trkpt lat="42.3305629" lon="13.480975"><ele>587.5</ele><time>2026-05-02T17:05:46.035Z</time></trkpt><trkpt lat="42.330514" lon="13.4811371"><ele>587.25</ele><time>2026-05-02T17:05:47.036Z</time></trkpt><trkpt lat="42.3304671" lon="13.4812931"><ele>587.0</ele><time>2026-05-02T17:05:48.036Z</time></trkpt><trkpt lat="42.3304218" lon="13.4814465"><ele>586.0</ele><time>2026-05-02T17:05:49.036Z</time></trkpt><trkpt lat="42.3303735" lon="13.4816008"><ele>585.0</ele><time>2026-05-02T17:05:50.036Z</time></trkpt><trkpt lat="42.3303274" lon="13.4817486"><ele>584.0</ele><time>2026-05-02T17:05:51.036Z</time></trkpt><trkpt lat="42.3302853" lon="13.4818994"><ele>583.0</ele><time>2026-05-02T17:05:52.035Z</time></trkpt><trkpt lat="42.3302398" lon="13.4820537"><ele>583.0</ele><time>2026-05-02T17:05:53.036Z</time></trkpt><trkpt lat="42.3301938" lon="13.4822011"><ele>583.0</ele><time>2026-05-02T17:05:54.036Z</time></trkpt><trkpt lat="42.3301479" lon="13.4823545"><ele>583.0</ele><time>2026-05-02T17:05:55.036Z</time></trkpt><trkpt lat="42.3301045" lon="13.4825048"><ele>583.0</ele><time>2026-05-02T17:05:56.036Z</time></trkpt><trkpt lat="42.3300576" lon="13.4826568"><ele>583.0</ele><time>2026-05-02T17:05:57.036Z</time></trkpt><trkpt lat="42.330009" lon="13.482813"><ele>583.0</ele><time>2026-05-02T17:05:58.035Z</time></trkpt><trkpt lat="42.329961" lon="13.4829652"><ele>583.0</ele><time>2026-05-02T17:05:59.036Z</time></trkpt><trkpt lat="42.3299148" lon="13.4831279"><ele>583.0</ele><time>2026-05-02T17:06:00.035Z</time></trkpt><trkpt lat="42.3298677" lon="13.4832861"><ele>583.0</ele><time>2026-05-02T17:06:01.036Z</time></trkpt><trkpt lat="42.3298187" lon="13.4834473"><ele>583.0</ele><time>2026-05-02T17:06:02.036Z</time></trkpt><trkpt lat="42.3297683" lon="13.4836098"><ele>583.0</ele><time>2026-05-02T17:06:03.036Z</time></trkpt><trkpt lat="42.3297183" lon="13.4837733"><ele>583.0</ele><time>2026-05-02T17:06:04.036Z</time></trkpt><trkpt lat="42.3296697" lon="13.4839368"><ele>582.5</ele><time>2026-05-02T17:06:05.036Z</time></trkpt><trkpt lat="42.3296192" lon="13.4841071"><ele>582.0</ele><time>2026-05-02T17:06:06.036Z</time></trkpt><trkpt lat="42.3295737" lon="13.484274"><ele>581.5</ele><time>2026-05-02T17:06:07.036Z</time></trkpt><trkpt lat="42.3295267" lon="13.4844388"><ele>581.0</ele><time>2026-05-02T17:06:08.035Z</time></trkpt><trkpt lat="42.3294773" lon="13.4846011"><ele>580.75</ele><time>2026-05-02T17:06:09.036Z</time></trkpt><trkpt lat="42.3294264" lon="13.4847684"><ele>580.5</ele><time>2026-05-02T17:06:10.036Z</time></trkpt><trkpt lat="42.3293773" lon="13.4849359"><ele>580.25</ele><time>2026-05-02T17:06:11.036Z</time></trkpt><trkpt lat="42.3293275" lon="13.4851032"><ele>580.0</ele><time>2026-05-02T17:06:12.035Z</time></trkpt><trkpt lat="42.3292785" lon="13.485264"><ele>580.0</ele><time>2026-05-02T17:06:13.035Z</time></trkpt><trkpt lat="42.3292266" lon="13.4854269"><ele>580.0</ele><time>2026-05-02T17:06:14.035Z</time></trkpt><trkpt lat="42.3291748" lon="13.4855914"><ele>580.0</ele><time>2026-05-02T17:06:15.036Z</time></trkpt><trkpt lat="42.329126" lon="13.4857516"><ele>580.0</ele><time>2026-05-02T17:06:16.036Z</time></trkpt><trkpt lat="42.3290759" lon="13.485917"><ele>580.25</ele><time>2026-05-02T17:06:17.035Z</time></trkpt><trkpt lat="42.3290289" lon="13.486082"><ele>580.5</ele><time>2026-05-02T17:06:18.036Z</time></trkpt><trkpt lat="42.3289826" lon="13.4862428"><ele>580.75</ele><time>2026-05-02T17:06:19.036Z</time></trkpt><trkpt lat="42.3289337" lon="13.4864053"><ele>581.0</ele><time>2026-05-02T17:06:20.036Z</time></trkpt><trkpt lat="42.3288857" lon="13.4865667"><ele>580.5</ele><time>2026-05-02T17:06:21.036Z</time></trkpt><trkpt lat="42.3288388" lon="13.4867322"><ele>580.0</ele><time>2026-05-02T17:06:22.036Z</time></trkpt><trkpt lat="42.3287912" lon="13.4868932"><ele>579.5</ele><time>2026-05-02T17:06:23.036Z</time></trkpt><trkpt lat="42.3287422" lon="13.4870519"><ele>579.0</ele><time>2026-05-02T17:06:24.035Z</time></trkpt><trkpt lat="42.328693" lon="13.4872176"><ele>578.75</ele><time>2026-05-02T17:06:25.035Z</time></trkpt><trkpt lat="42.3286452" lon="13.4873839"><ele>578.5</ele><time>2026-05-02T17:06:26.036Z</time></trkpt><trkpt lat="42.3285935" lon="13.4875491"><ele>578.25</ele><time>2026-05-02T17:06:27.036Z</time></trkpt><trkpt lat="42.3285438" lon="13.4877128"><ele>578.0</ele><time>2026-05-02T17:06:28.035Z</time></trkpt><trkpt lat="42.3284966" lon="13.4878741"><ele>578.0</ele><time>2026-05-02T17:06:29.036Z</time></trkpt><trkpt lat="42.3284477" lon="13.4880385"><ele>578.0</ele><time>2026-05-02T17:06:30.036Z</time></trkpt><trkpt lat="42.3284015" lon="13.4881977"><ele>578.0</ele><time>2026-05-02T17:06:31.036Z</time></trkpt><trkpt lat="42.3283554" lon="13.4883561"><ele>578.0</ele><time>2026-05-02T17:06:32.036Z</time></trkpt><trkpt lat="42.3283052" lon="13.4885208"><ele>578.0</ele><time>2026-05-02T17:06:33.035Z</time></trkpt><trkpt lat="42.3282557" lon="13.4886871"><ele>578.0</ele><time>2026-05-02T17:06:34.036Z</time></trkpt><trkpt lat="42.3282054" lon="13.4888513"><ele>578.0</ele><time>2026-05-02T17:06:35.035Z</time></trkpt><trkpt lat="42.3281549" lon="13.4890142"><ele>578.0</ele><time>2026-05-02T17:06:36.035Z</time></trkpt><trkpt lat="42.3281038" lon="13.4891807"><ele>577.5</ele><time>2026-05-02T17:06:37.036Z</time></trkpt><trkpt lat="42.3280549" lon="13.4893466"><ele>577.0</ele><time>2026-05-02T17:06:38.036Z</time></trkpt><trkpt lat="42.3280076" lon="13.489514"><ele>576.5</ele><time>2026-05-02T17:06:39.035Z</time></trkpt><trkpt lat="42.327958" lon="13.4896796"><ele>576.0</ele><time>2026-05-02T17:06:40.036Z</time></trkpt><trkpt lat="42.3279081" lon="13.4898464"><ele>576.0</ele><time>2026-05-02T17:06:41.035Z</time></trkpt><trkpt lat="42.3278592" lon="13.49001"><ele>576.0</ele><time>2026-05-02T17:06:42.036Z</time></trkpt><trkpt lat="42.3278115" lon="13.4901728"><ele>576.0</ele><time>2026-05-02T17:06:43.036Z</time></trkpt><trkpt lat="42.3277643" lon="13.4903424"><ele>576.0</ele><time>2026-05-02T17:06:44.035Z</time></trkpt><trkpt lat="42.3277174" lon="13.4905031"><ele>576.25</ele><time>2026-05-02T17:06:45.036Z</time></trkpt><trkpt lat="42.327669" lon="13.4906635"><ele>576.5</ele><time>2026-05-02T17:06:46.036Z</time></trkpt><trkpt lat="42.3276199" lon="13.4908259"><ele>576.75</ele><time>2026-05-02T17:06:47.036Z</time></trkpt><trkpt lat="42.3275764" lon="13.4909866"><ele>577.0</ele><time>2026-05-02T17:06:48.036Z</time></trkpt><trkpt lat="42.3275294" lon="13.4911451"><ele>577.0</ele><time>2026-05-02T17:06:49.036Z</time></trkpt><trkpt lat="42.3274819" lon="13.491301"><ele>577.0</ele><time>2026-05-02T17:06:50.035Z</time></trkpt><trkpt lat="42.32743" lon="13.4914598"><ele>577.0</ele><time>2026-05-02T17:06:51.035Z</time></trkpt><trkpt lat="42.3273816" lon="13.4916226"><ele>577.0</ele><time>2026-05-02T17:06:52.036Z</time></trkpt><trkpt lat="42.3273327" lon="13.491782"><ele>577.0</ele><time>2026-05-02T17:06:53.036Z</time></trkpt><trkpt lat="42.3272858" lon="13.4919441"><ele>577.0</ele><time>2026-05-02T17:06:54.036Z</time></trkpt><trkpt lat="42.3272375" lon="13.4921033"><ele>577.0</ele><time>2026-05-02T17:06:55.036Z</time></trkpt><trkpt lat="42.3271918" lon="13.4922577"><ele>577.0</ele><time>2026-05-02T17:06:56.036Z</time></trkpt><trkpt lat="42.3271422" lon="13.4924202"><ele>576.75</ele><time>2026-05-02T17:06:57.035Z</time></trkpt><trkpt lat="42.3270939" lon="13.4925828"><ele>576.5</ele><time>2026-05-02T17:06:58.036Z</time></trkpt><trkpt lat="42.3270444" lon="13.4927407"><ele>576.25</ele><time>2026-05-02T17:06:59.036Z</time></trkpt><trkpt lat="42.3269952" lon="13.492901"><ele>576.0</ele><time>2026-05-02T17:07:00.036Z</time></trkpt><trkpt lat="42.3269483" lon="13.4930664"><ele>575.75</ele><time>2026-05-02T17:07:01.036Z</time></trkpt><trkpt lat="42.3269045" lon="13.4932273"><ele>575.5</ele><time>2026-05-02T17:07:02.036Z</time></trkpt><trkpt lat="42.3268571" lon="13.4933884"><ele>575.25</ele><time>2026-05-02T17:07:03.036Z</time></trkpt><trkpt lat="42.3268082" lon="13.493548"><ele>575.0</ele><time>2026-05-02T17:07:04.035Z</time></trkpt><trkpt lat="42.3267596" lon="13.4937051"><ele>575.5</ele><time>2026-05-02T17:07:05.036Z</time></trkpt><trkpt lat="42.3267098" lon="13.4938631"><ele>576.0</ele><time>2026-05-02T17:07:06.035Z</time></trkpt><trkpt lat="42.3266648" lon="13.4940261"><ele>576.5</ele><time>2026-05-02T17:07:07.035Z</time></trkpt><trkpt lat="42.326615" lon="13.4941902"><ele>577.0</ele><time>2026-05-02T17:07:08.036Z</time></trkpt><trkpt lat="42.3265626" lon="13.4943478"><ele>577.0</ele><time>2026-05-02T17:07:09.035Z</time></trkpt><trkpt lat="42.3265151" lon="13.4945137"><ele>577.0</ele><time>2026-05-02T17:07:10.035Z</time></trkpt><trkpt lat="42.3264676" lon="13.4946741"><ele>577.0</ele><time>2026-05-02T17:07:11.036Z</time></trkpt><trkpt lat="42.3264199" lon="13.4948338"><ele>577.0</ele><time>2026-05-02T17:07:12.036Z</time></trkpt><trkpt lat="42.3263706" lon="13.4949913"><ele>577.25</ele><time>2026-05-02T17:07:13.036Z</time></trkpt><trkpt lat="42.326319" lon="13.4951565"><ele>577.5</ele><time>2026-05-02T17:07:14.036Z</time></trkpt><trkpt lat="42.3262704" lon="13.4953179"><ele>577.75</ele><time>2026-05-02T17:07:15.036Z</time></trkpt><trkpt lat="42.3262232" lon="13.4954816"><ele>578.0</ele><time>2026-05-02T17:07:16.036Z</time></trkpt><trkpt lat="42.3261765" lon="13.495645"><ele>578.0</ele><time>2026-05-02T17:07:17.036Z</time></trkpt><trkpt lat="42.3261288" lon="13.4958073"><ele>578.0</ele><time>2026-05-02T17:07:18.036Z</time></trkpt><trkpt lat="42.3260817" lon="13.495975"><ele>578.0</ele><time>2026-05-02T17:07:19.036Z</time></trkpt><trkpt lat="42.3260415" lon="13.4961371"><ele>578.0</ele><time>2026-05-02T17:07:20.036Z</time></trkpt><trkpt lat="42.3260063" lon="13.4962963"><ele>578.4</ele><time>2026-05-02T17:07:21.036Z</time></trkpt><trkpt lat="42.3259724" lon="13.4964499"><ele>578.8</ele><time>2026-05-02T17:07:22.036Z</time></trkpt><trkpt lat="42.3259441" lon="13.496593"><ele>579.2</ele><time>2026-05-02T17:07:23.035Z</time></trkpt><trkpt lat="42.3259169" lon="13.4967265"><ele>579.6</ele><time>2026-05-02T17:07:24.035Z</time></trkpt><trkpt lat="42.3258864" lon="13.4968456"><ele>580.0</ele><time>2026-05-02T17:07:25.036Z</time></trkpt><trkpt lat="42.3258544" lon="13.4969531"><ele>580.0</ele><time>2026-05-02T17:07:26.035Z</time></trkpt><trkpt lat="42.3258231" lon="13.4970452"><ele>580.0</ele><time>2026-05-02T17:07:27.036Z</time></trkpt><trkpt lat="42.3257942" lon="13.4971339"><ele>580.0</ele><time>2026-05-02T17:07:28.036Z</time></trkpt><trkpt lat="42.3258014" lon="13.4973017"><ele>580.0</ele><time>2026-05-02T17:07:30.036Z</time></trkpt><trkpt lat="42.3258224" lon="13.4973924"><ele>580.0</ele><time>2026-05-02T17:07:31.036Z</time></trkpt><trkpt lat="42.325834" lon="13.4974921"><ele>580.0</ele><time>2026-05-02T17:07:32.036Z</time></trkpt><trkpt lat="42.3258382" lon="13.4976004"><ele>581.2</ele><time>2026-05-02T17:07:33.036Z</time></trkpt><trkpt lat="42.325832" lon="13.4977261"><ele>582.4</ele><time>2026-05-02T17:07:34.036Z</time></trkpt><trkpt lat="42.3258186" lon="13.4978617"><ele>583.6</ele><time>2026-05-02T17:07:35.036Z</time></trkpt><trkpt lat="42.3258006" lon="13.4979978"><ele>584.8</ele><time>2026-05-02T17:07:36.036Z</time></trkpt><trkpt lat="42.3257808" lon="13.498133"><ele>586.0</ele><time>2026-05-02T17:07:37.035Z</time></trkpt><trkpt lat="42.325762" lon="13.4982709"><ele>586.8</ele><time>2026-05-02T17:07:38.035Z</time></trkpt><trkpt lat="42.3257432" lon="13.4983977"><ele>587.6</ele><time>2026-05-02T17:07:39.036Z</time></trkpt><trkpt lat="42.325731" lon="13.4985322"><ele>588.4</ele><time>2026-05-02T17:07:40.036Z</time></trkpt><trkpt lat="42.3257199" lon="13.4986619"><ele>589.2</ele><time>2026-05-02T17:07:41.035Z</time></trkpt><trkpt lat="42.3257034" lon="13.4987934"><ele>590.0</ele><time>2026-05-02T17:07:42.036Z</time></trkpt><trkpt lat="42.3256906" lon="13.4989261"><ele>591.0</ele><time>2026-05-02T17:07:43.036Z</time></trkpt><trkpt lat="42.3256774" lon="13.499058"><ele>592.0</ele><time>2026-05-02T17:07:44.036Z</time></trkpt><trkpt lat="42.3256606" lon="13.499194"><ele>593.0</ele><time>2026-05-02T17:07:45.036Z</time></trkpt><trkpt lat="42.3256461" lon="13.4993369"><ele>594.0</ele><time>2026-05-02T17:07:46.036Z</time></trkpt><trkpt lat="42.3256312" lon="13.4994688"><ele>595.0</ele><time>2026-05-02T17:07:47.036Z</time></trkpt><trkpt lat="42.3256178" lon="13.4996019"><ele>595.4</ele><time>2026-05-02T17:07:48.035Z</time></trkpt><trkpt lat="42.3256041" lon="13.4997373"><ele>595.8</ele><time>2026-05-02T17:07:49.036Z</time></trkpt><trkpt lat="42.3255914" lon="13.499865"><ele>596.2</ele><time>2026-05-02T17:07:50.036Z</time></trkpt><trkpt lat="42.3255788" lon="13.4999938"><ele>596.6</ele><time>2026-05-02T17:07:51.036Z</time></trkpt><trkpt lat="42.3255673" lon="13.5001172"><ele>597.0</ele><time>2026-05-02T17:07:52.035Z</time></trkpt><trkpt lat="42.3255534" lon="13.5002444"><ele>596.4</ele><time>2026-05-02T17:07:53.035Z</time></trkpt><trkpt lat="42.3255393" lon="13.5003684"><ele>595.8000000000001</ele><time>2026-05-02T17:07:54.036Z</time></trkpt><trkpt lat="42.3255232" lon="13.5004987"><ele>595.2</ele><time>2026-05-02T17:07:55.036Z</time></trkpt><trkpt lat="42.3255107" lon="13.5006254"><ele>594.6</ele><time>2026-05-02T17:07:56.035Z</time></trkpt><trkpt lat="42.3254986" lon="13.5007518"><ele>594.0</ele><time>2026-05-02T17:07:57.036Z</time></trkpt><trkpt lat="42.32549" lon="13.5008809"><ele>594.0</ele><time>2026-05-02T17:07:58.036Z</time></trkpt><trkpt lat="42.3254808" lon="13.5010143"><ele>594.0</ele><time>2026-05-02T17:07:59.036Z</time></trkpt><trkpt lat="42.3254749" lon="13.5011387"><ele>594.0</ele><time>2026-05-02T17:08:00.036Z</time></trkpt><trkpt lat="42.3254641" lon="13.5012584"><ele>594.0</ele><time>2026-05-02T17:08:01.036Z</time></trkpt><trkpt lat="42.3254549" lon="13.5013696"><ele>594.0</ele><time>2026-05-02T17:08:02.036Z</time></trkpt><trkpt lat="42.3254463" lon="13.5014654"><ele>594.0</ele><time>2026-05-02T17:08:03.036Z</time></trkpt><trkpt lat="42.3254378" lon="13.5015571"><ele>594.4</ele><time>2026-05-02T17:08:04.036Z</time></trkpt><trkpt lat="42.3254339" lon="13.5017089"><ele>594.8</ele><time>2026-05-02T17:08:06.036Z</time></trkpt><trkpt lat="42.3254685" lon="13.5018249"><ele>595.2</ele><time>2026-05-02T17:08:08.036Z</time></trkpt><trkpt lat="42.3255437" lon="13.5018962"><ele>595.6</ele><time>2026-05-02T17:08:10.035Z</time></trkpt><trkpt lat="42.325632" lon="13.5019654"><ele>596.0</ele><time>2026-05-02T17:08:12.036Z</time></trkpt><trkpt lat="42.3257096" lon="13.5020052"><ele>600.0</ele><time>2026-05-02T17:08:14.036Z</time></trkpt><trkpt lat="42.325768" lon="13.5020449"><ele>600.0</ele><time>2026-05-02T17:08:16.036Z</time></trkpt><trkpt lat="42.3258424" lon="13.5021284"><ele>603.0</ele><time>2026-05-02T17:08:19.035Z</time></trkpt><trkpt lat="42.325905" lon="13.5021793"><ele>603.0</ele><time>2026-05-02T17:08:21.036Z</time></trkpt><trkpt lat="42.3259791" lon="13.5022239"><ele>603.0</ele><time>2026-05-02T17:08:24.035Z</time></trkpt><trkpt lat="42.3260503" lon="13.5022499"><ele>603.0</ele><time>2026-05-02T17:08:27.036Z</time></trkpt></trkseg></trk></gpx>